<?xml version="1.0" encoding="UTF-8" standalone="no" ?>
<gpx xmlns="http://www.topografix.com/GPX/1/1" xmlns:xsi="http://www.w3.org/2001/XMLSchema-instance" xsi:schemaLocation="http://www.topografix.com/GPX/1/1 http://www.topografix.com/GPX/1/1/gpx.xsd" version="1.1" creator="VisuGPX - https://www.visugpx.com">
  <metadata>
    <name>Parcours la Tatave 2024</name>
    <desc><![CDATA[Parcours 60 kms la Tatave 2024 au départ de Moulet Marcenat. Pas de difficulté technique, mais assez physique.]]></desc>
  </metadata>
  <trk>
    <name><![CDATA[Parcours la Tatave 2024_1]]></name>
    <trkseg>
      <trkpt lat="45.87517" lon="2.98699">
        <ele>758.4</ele>
        <time>2025-08-07T13:18:11Z</time>
      </trkpt>
      <trkpt lat="45.87517" lon="2.98699">
        <ele>758.4</ele>
        <time>2025-08-07T13:18:12Z</time>
      </trkpt>
      <trkpt lat="45.87517" lon="2.98699">
        <ele>758.4</ele>
        <time>2025-08-07T13:18:13Z</time>
      </trkpt>
      <trkpt lat="45.87517" lon="2.98699">
        <ele>758.4</ele>
        <time>2025-08-07T13:18:14Z</time>
      </trkpt>
      <trkpt lat="45.87517" lon="2.98699">
        <ele>758.4</ele>
        <time>2025-08-07T13:18:15Z</time>
      </trkpt>
      <trkpt lat="45.87516" lon="2.987">
        <ele>758.4</ele>
        <time>2025-08-07T13:18:16Z</time>
      </trkpt>
      <trkpt lat="45.87515" lon="2.98701">
        <ele>758.4</ele>
        <time>2025-08-07T13:18:17Z</time>
      </trkpt>
      <trkpt lat="45.87515" lon="2.98702">
        <ele>758.4</ele>
        <time>2025-08-07T13:18:18Z</time>
      </trkpt>
      <trkpt lat="45.87516" lon="2.98704">
        <ele>758.4</ele>
        <time>2025-08-07T13:18:19Z</time>
      </trkpt>
      <trkpt lat="45.87517" lon="2.98707">
        <ele>758.4</ele>
        <time>2025-08-07T13:18:20Z</time>
      </trkpt>
      <trkpt lat="45.87517" lon="2.98711">
        <ele>758.4</ele>
        <time>2025-08-07T13:18:21Z</time>
      </trkpt>
      <trkpt lat="45.87518" lon="2.98715">
        <ele>758.4</ele>
        <time>2025-08-07T13:18:22Z</time>
      </trkpt>
      <trkpt lat="45.87519" lon="2.98721">
        <ele>758.4</ele>
        <time>2025-08-07T13:18:23Z</time>
      </trkpt>
      <trkpt lat="45.87522" lon="2.98727">
        <ele>758.4</ele>
        <time>2025-08-07T13:18:24Z</time>
      </trkpt>
      <trkpt lat="45.87525" lon="2.98733">
        <ele>758.4</ele>
        <time>2025-08-07T13:18:25Z</time>
      </trkpt>
      <trkpt lat="45.87529" lon="2.98739">
        <ele>758.4</ele>
        <time>2025-08-07T13:18:26Z</time>
      </trkpt>
      <trkpt lat="45.87532" lon="2.98744">
        <ele>758.4</ele>
        <time>2025-08-07T13:18:27Z</time>
      </trkpt>
      <trkpt lat="45.87535" lon="2.98749">
        <ele>758.4</ele>
        <time>2025-08-07T13:18:28Z</time>
      </trkpt>
      <trkpt lat="45.87539" lon="2.98753">
        <ele>758.4</ele>
        <time>2025-08-07T13:18:29Z</time>
      </trkpt>
      <trkpt lat="45.87542" lon="2.98759">
        <ele>758.4</ele>
        <time>2025-08-07T13:18:30Z</time>
      </trkpt>
      <trkpt lat="45.87546" lon="2.98765">
        <ele>758.4</ele>
        <time>2025-08-07T13:18:31Z</time>
      </trkpt>
      <trkpt lat="45.8755" lon="2.98771">
        <ele>758.2</ele>
        <time>2025-08-07T13:18:32Z</time>
      </trkpt>
      <trkpt lat="45.87555" lon="2.9878">
        <ele>758.2</ele>
        <time>2025-08-07T13:18:33Z</time>
      </trkpt>
      <trkpt lat="45.8756" lon="2.98788">
        <ele>758</ele>
        <time>2025-08-07T13:18:34Z</time>
      </trkpt>
      <trkpt lat="45.87565" lon="2.98796">
        <ele>758</ele>
        <time>2025-08-07T13:18:35Z</time>
      </trkpt>
      <trkpt lat="45.87569" lon="2.98803">
        <ele>757.8</ele>
        <time>2025-08-07T13:18:36Z</time>
      </trkpt>
      <trkpt lat="45.87574" lon="2.9881">
        <ele>757.6</ele>
        <time>2025-08-07T13:18:37Z</time>
      </trkpt>
      <trkpt lat="45.87579" lon="2.98817">
        <ele>757.4</ele>
        <time>2025-08-07T13:18:38Z</time>
      </trkpt>
      <trkpt lat="45.87585" lon="2.98826">
        <ele>757.2</ele>
        <time>2025-08-07T13:18:39Z</time>
      </trkpt>
      <trkpt lat="45.87591" lon="2.98835">
        <ele>757</ele>
        <time>2025-08-07T13:18:40Z</time>
      </trkpt>
      <trkpt lat="45.87596" lon="2.98843">
        <ele>757</ele>
        <time>2025-08-07T13:18:41Z</time>
      </trkpt>
      <trkpt lat="45.87602" lon="2.98851">
        <ele>756.8</ele>
        <time>2025-08-07T13:18:42Z</time>
      </trkpt>
      <trkpt lat="45.87606" lon="2.98858">
        <ele>756.6</ele>
        <time>2025-08-07T13:18:43Z</time>
      </trkpt>
      <trkpt lat="45.87611" lon="2.98865">
        <ele>756.4</ele>
        <time>2025-08-07T13:18:44Z</time>
      </trkpt>
      <trkpt lat="45.87615" lon="2.98873">
        <ele>756.4</ele>
        <time>2025-08-07T13:18:45Z</time>
      </trkpt>
      <trkpt lat="45.8762" lon="2.98881">
        <ele>756.2</ele>
        <time>2025-08-07T13:18:46Z</time>
      </trkpt>
      <trkpt lat="45.87625" lon="2.98889">
        <ele>756</ele>
        <time>2025-08-07T13:18:47Z</time>
      </trkpt>
      <trkpt lat="45.8763" lon="2.98897">
        <ele>755.8</ele>
        <time>2025-08-07T13:18:48Z</time>
      </trkpt>
      <trkpt lat="45.87635" lon="2.98905">
        <ele>755.8</ele>
        <time>2025-08-07T13:18:49Z</time>
      </trkpt>
      <trkpt lat="45.8764" lon="2.98912">
        <ele>755.6</ele>
        <time>2025-08-07T13:18:50Z</time>
      </trkpt>
      <trkpt lat="45.87644" lon="2.9892">
        <ele>755.6</ele>
        <time>2025-08-07T13:18:51Z</time>
      </trkpt>
      <trkpt lat="45.87648" lon="2.98927">
        <ele>755.4</ele>
        <time>2025-08-07T13:18:52Z</time>
      </trkpt>
      <trkpt lat="45.87654" lon="2.98935">
        <ele>755.4</ele>
        <time>2025-08-07T13:18:53Z</time>
      </trkpt>
      <trkpt lat="45.87657" lon="2.9894">
        <ele>755.4</ele>
        <time>2025-08-07T13:18:54Z</time>
      </trkpt>
      <trkpt lat="45.87662" lon="2.98946">
        <ele>755.2</ele>
        <time>2025-08-07T13:18:55Z</time>
      </trkpt>
      <trkpt lat="45.87667" lon="2.98953">
        <ele>755.2</ele>
        <time>2025-08-07T13:18:56Z</time>
      </trkpt>
      <trkpt lat="45.87671" lon="2.9896">
        <ele>755</ele>
        <time>2025-08-07T13:18:57Z</time>
      </trkpt>
      <trkpt lat="45.87675" lon="2.98966">
        <ele>755</ele>
        <time>2025-08-07T13:18:58Z</time>
      </trkpt>
      <trkpt lat="45.8768" lon="2.98973">
        <ele>755</ele>
        <time>2025-08-07T13:18:59Z</time>
      </trkpt>
      <trkpt lat="45.87683" lon="2.98977">
        <ele>754.8</ele>
        <time>2025-08-07T13:19:00Z</time>
      </trkpt>
      <trkpt lat="45.87687" lon="2.98983">
        <ele>754.8</ele>
        <time>2025-08-07T13:19:01Z</time>
      </trkpt>
      <trkpt lat="45.8769" lon="2.98985">
        <ele>754.8</ele>
        <time>2025-08-07T13:19:02Z</time>
      </trkpt>
      <trkpt lat="45.87693" lon="2.98988">
        <ele>754.8</ele>
        <time>2025-08-07T13:19:03Z</time>
      </trkpt>
      <trkpt lat="45.87695" lon="2.98987">
        <ele>754.6</ele>
        <time>2025-08-07T13:19:04Z</time>
      </trkpt>
      <trkpt lat="45.87698" lon="2.98984">
        <ele>754.6</ele>
        <time>2025-08-07T13:19:05Z</time>
      </trkpt>
      <trkpt lat="45.87699" lon="2.98979">
        <ele>754.4</ele>
        <time>2025-08-07T13:19:06Z</time>
      </trkpt>
      <trkpt lat="45.87699" lon="2.98974">
        <ele>754.4</ele>
        <time>2025-08-07T13:19:07Z</time>
      </trkpt>
      <trkpt lat="45.877" lon="2.98966">
        <ele>754.4</ele>
        <time>2025-08-07T13:19:08Z</time>
      </trkpt>
      <trkpt lat="45.87701" lon="2.98959">
        <ele>754.6</ele>
        <time>2025-08-07T13:19:09Z</time>
      </trkpt>
      <trkpt lat="45.87701" lon="2.98952">
        <ele>754.6</ele>
        <time>2025-08-07T13:19:10Z</time>
      </trkpt>
      <trkpt lat="45.87702" lon="2.98945">
        <ele>754.6</ele>
        <time>2025-08-07T13:19:11Z</time>
      </trkpt>
      <trkpt lat="45.87702" lon="2.98938">
        <ele>754.8</ele>
        <time>2025-08-07T13:19:12Z</time>
      </trkpt>
      <trkpt lat="45.87703" lon="2.9893">
        <ele>754.8</ele>
        <time>2025-08-07T13:19:13Z</time>
      </trkpt>
      <trkpt lat="45.87704" lon="2.98924">
        <ele>754.8</ele>
        <time>2025-08-07T13:19:14Z</time>
      </trkpt>
      <trkpt lat="45.87706" lon="2.98917">
        <ele>754.8</ele>
        <time>2025-08-07T13:19:15Z</time>
      </trkpt>
      <trkpt lat="45.87708" lon="2.98909">
        <ele>755</ele>
        <time>2025-08-07T13:19:16Z</time>
      </trkpt>
      <trkpt lat="45.8771" lon="2.98901">
        <ele>755</ele>
        <time>2025-08-07T13:19:17Z</time>
      </trkpt>
      <trkpt lat="45.8771" lon="2.98893">
        <ele>755</ele>
        <time>2025-08-07T13:19:18Z</time>
      </trkpt>
      <trkpt lat="45.87711" lon="2.98886">
        <ele>755</ele>
        <time>2025-08-07T13:19:19Z</time>
      </trkpt>
      <trkpt lat="45.87712" lon="2.9888">
        <ele>755.2</ele>
        <time>2025-08-07T13:19:20Z</time>
      </trkpt>
      <trkpt lat="45.87714" lon="2.98874">
        <ele>755.2</ele>
        <time>2025-08-07T13:19:21Z</time>
      </trkpt>
      <trkpt lat="45.87715" lon="2.98867">
        <ele>755.2</ele>
        <time>2025-08-07T13:19:22Z</time>
      </trkpt>
      <trkpt lat="45.87716" lon="2.9886">
        <ele>755.4</ele>
        <time>2025-08-07T13:19:23Z</time>
      </trkpt>
      <trkpt lat="45.87717" lon="2.98852">
        <ele>755.4</ele>
        <time>2025-08-07T13:19:24Z</time>
      </trkpt>
      <trkpt lat="45.87718" lon="2.98846">
        <ele>755.6</ele>
        <time>2025-08-07T13:19:25Z</time>
      </trkpt>
      <trkpt lat="45.87719" lon="2.98839">
        <ele>755.6</ele>
        <time>2025-08-07T13:19:26Z</time>
      </trkpt>
      <trkpt lat="45.8772" lon="2.98832">
        <ele>755.8</ele>
        <time>2025-08-07T13:19:27Z</time>
      </trkpt>
      <trkpt lat="45.87721" lon="2.98825">
        <ele>755.8</ele>
        <time>2025-08-07T13:19:28Z</time>
      </trkpt>
      <trkpt lat="45.87721" lon="2.98816">
        <ele>755.8</ele>
        <time>2025-08-07T13:19:29Z</time>
      </trkpt>
      <trkpt lat="45.87722" lon="2.9881">
        <ele>756</ele>
        <time>2025-08-07T13:19:30Z</time>
      </trkpt>
      <trkpt lat="45.87723" lon="2.98803">
        <ele>756</ele>
        <time>2025-08-07T13:19:31Z</time>
      </trkpt>
      <trkpt lat="45.87724" lon="2.98794">
        <ele>756.2</ele>
        <time>2025-08-07T13:19:32Z</time>
      </trkpt>
      <trkpt lat="45.87725" lon="2.98787">
        <ele>756.2</ele>
        <time>2025-08-07T13:19:33Z</time>
      </trkpt>
      <trkpt lat="45.87725" lon="2.98781">
        <ele>756.4</ele>
        <time>2025-08-07T13:19:34Z</time>
      </trkpt>
      <trkpt lat="45.87725" lon="2.98774">
        <ele>756.4</ele>
        <time>2025-08-07T13:19:35Z</time>
      </trkpt>
      <trkpt lat="45.87725" lon="2.98766">
        <ele>756.4</ele>
        <time>2025-08-07T13:19:36Z</time>
      </trkpt>
      <trkpt lat="45.87726" lon="2.98758">
        <ele>756.4</ele>
        <time>2025-08-07T13:19:37Z</time>
      </trkpt>
      <trkpt lat="45.87727" lon="2.98751">
        <ele>756.6</ele>
        <time>2025-08-07T13:19:38Z</time>
      </trkpt>
      <trkpt lat="45.87727" lon="2.98744">
        <ele>756.6</ele>
        <time>2025-08-07T13:19:39Z</time>
      </trkpt>
      <trkpt lat="45.87728" lon="2.98737">
        <ele>756.6</ele>
        <time>2025-08-07T13:19:40Z</time>
      </trkpt>
      <trkpt lat="45.87728" lon="2.98731">
        <ele>756.8</ele>
        <time>2025-08-07T13:19:41Z</time>
      </trkpt>
      <trkpt lat="45.87729" lon="2.98724">
        <ele>756.8</ele>
        <time>2025-08-07T13:19:42Z</time>
      </trkpt>
      <trkpt lat="45.8773" lon="2.98717">
        <ele>756.8</ele>
        <time>2025-08-07T13:19:43Z</time>
      </trkpt>
      <trkpt lat="45.8773" lon="2.9871">
        <ele>757</ele>
        <time>2025-08-07T13:19:44Z</time>
      </trkpt>
      <trkpt lat="45.87731" lon="2.98704">
        <ele>757</ele>
        <time>2025-08-07T13:19:45Z</time>
      </trkpt>
      <trkpt lat="45.87731" lon="2.98699">
        <ele>757.2</ele>
        <time>2025-08-07T13:19:46Z</time>
      </trkpt>
      <trkpt lat="45.87732" lon="2.98695">
        <ele>757.2</ele>
        <time>2025-08-07T13:19:47Z</time>
      </trkpt>
      <trkpt lat="45.87732" lon="2.98691">
        <ele>757.2</ele>
        <time>2025-08-07T13:19:48Z</time>
      </trkpt>
      <trkpt lat="45.87732" lon="2.98687">
        <ele>757.2</ele>
        <time>2025-08-07T13:19:49Z</time>
      </trkpt>
      <trkpt lat="45.87732" lon="2.98682">
        <ele>757.4</ele>
        <time>2025-08-07T13:19:50Z</time>
      </trkpt>
      <trkpt lat="45.87733" lon="2.98678">
        <ele>757.4</ele>
        <time>2025-08-07T13:19:51Z</time>
      </trkpt>
      <trkpt lat="45.87733" lon="2.98672">
        <ele>757.4</ele>
        <time>2025-08-07T13:19:52Z</time>
      </trkpt>
      <trkpt lat="45.87734" lon="2.98666">
        <ele>757.6</ele>
        <time>2025-08-07T13:19:53Z</time>
      </trkpt>
      <trkpt lat="45.87735" lon="2.98659">
        <ele>757.6</ele>
        <time>2025-08-07T13:19:54Z</time>
      </trkpt>
      <trkpt lat="45.87735" lon="2.98654">
        <ele>757.8</ele>
        <time>2025-08-07T13:19:55Z</time>
      </trkpt>
      <trkpt lat="45.87736" lon="2.98648">
        <ele>758</ele>
        <time>2025-08-07T13:19:56Z</time>
      </trkpt>
      <trkpt lat="45.87737" lon="2.9864">
        <ele>758</ele>
        <time>2025-08-07T13:19:57Z</time>
      </trkpt>
      <trkpt lat="45.87738" lon="2.98634">
        <ele>758.2</ele>
        <time>2025-08-07T13:19:58Z</time>
      </trkpt>
      <trkpt lat="45.87738" lon="2.98628">
        <ele>758.4</ele>
        <time>2025-08-07T13:19:59Z</time>
      </trkpt>
      <trkpt lat="45.87739" lon="2.98623">
        <ele>758.4</ele>
        <time>2025-08-07T13:20:00Z</time>
      </trkpt>
      <trkpt lat="45.87739" lon="2.98617">
        <ele>758.6</ele>
        <time>2025-08-07T13:20:01Z</time>
      </trkpt>
      <trkpt lat="45.87741" lon="2.98606">
        <ele>758.6</ele>
        <time>2025-08-07T13:20:02Z</time>
      </trkpt>
      <trkpt lat="45.87742" lon="2.98598">
        <ele>758.8</ele>
        <time>2025-08-07T13:20:03Z</time>
      </trkpt>
      <trkpt lat="45.87743" lon="2.98593">
        <ele>759</ele>
        <time>2025-08-07T13:20:04Z</time>
      </trkpt>
      <trkpt lat="45.87744" lon="2.98586">
        <ele>759.2</ele>
        <time>2025-08-07T13:20:05Z</time>
      </trkpt>
      <trkpt lat="45.87744" lon="2.9858">
        <ele>759.4</ele>
        <time>2025-08-07T13:20:06Z</time>
      </trkpt>
      <trkpt lat="45.87745" lon="2.98574">
        <ele>759.4</ele>
        <time>2025-08-07T13:20:07Z</time>
      </trkpt>
      <trkpt lat="45.87746" lon="2.98568">
        <ele>759.6</ele>
        <time>2025-08-07T13:20:08Z</time>
      </trkpt>
      <trkpt lat="45.87746" lon="2.98561">
        <ele>759.6</ele>
        <time>2025-08-07T13:20:09Z</time>
      </trkpt>
      <trkpt lat="45.87747" lon="2.98556">
        <ele>759.8</ele>
        <time>2025-08-07T13:20:10Z</time>
      </trkpt>
      <trkpt lat="45.87747" lon="2.98549">
        <ele>759.8</ele>
        <time>2025-08-07T13:20:11Z</time>
      </trkpt>
      <trkpt lat="45.87748" lon="2.98543">
        <ele>760</ele>
        <time>2025-08-07T13:20:12Z</time>
      </trkpt>
      <trkpt lat="45.87748" lon="2.98537">
        <ele>760</ele>
        <time>2025-08-07T13:20:13Z</time>
      </trkpt>
      <trkpt lat="45.87748" lon="2.98531">
        <ele>760.2</ele>
        <time>2025-08-07T13:20:14Z</time>
      </trkpt>
      <trkpt lat="45.87749" lon="2.98525">
        <ele>760.2</ele>
        <time>2025-08-07T13:20:15Z</time>
      </trkpt>
      <trkpt lat="45.87749" lon="2.98518">
        <ele>760.4</ele>
        <time>2025-08-07T13:20:16Z</time>
      </trkpt>
      <trkpt lat="45.8775" lon="2.98513">
        <ele>760.4</ele>
        <time>2025-08-07T13:20:17Z</time>
      </trkpt>
      <trkpt lat="45.87751" lon="2.98507">
        <ele>760.6</ele>
        <time>2025-08-07T13:20:18Z</time>
      </trkpt>
      <trkpt lat="45.87751" lon="2.98501">
        <ele>760.8</ele>
        <time>2025-08-07T13:20:19Z</time>
      </trkpt>
      <trkpt lat="45.87752" lon="2.98494">
        <ele>760.8</ele>
        <time>2025-08-07T13:20:20Z</time>
      </trkpt>
      <trkpt lat="45.87752" lon="2.98489">
        <ele>761</ele>
        <time>2025-08-07T13:20:21Z</time>
      </trkpt>
      <trkpt lat="45.87753" lon="2.98483">
        <ele>761.2</ele>
        <time>2025-08-07T13:20:22Z</time>
      </trkpt>
      <trkpt lat="45.87752" lon="2.98478">
        <ele>761.2</ele>
        <time>2025-08-07T13:20:23Z</time>
      </trkpt>
      <trkpt lat="45.87752" lon="2.98473">
        <ele>761.4</ele>
        <time>2025-08-07T13:20:24Z</time>
      </trkpt>
      <trkpt lat="45.87753" lon="2.98468">
        <ele>761.4</ele>
        <time>2025-08-07T13:20:25Z</time>
      </trkpt>
      <trkpt lat="45.87754" lon="2.98462">
        <ele>761.6</ele>
        <time>2025-08-07T13:20:26Z</time>
      </trkpt>
      <trkpt lat="45.87756" lon="2.98457">
        <ele>761.8</ele>
        <time>2025-08-07T13:20:27Z</time>
      </trkpt>
      <trkpt lat="45.87756" lon="2.98451">
        <ele>761.8</ele>
        <time>2025-08-07T13:20:28Z</time>
      </trkpt>
      <trkpt lat="45.87756" lon="2.98446">
        <ele>762</ele>
        <time>2025-08-07T13:20:29Z</time>
      </trkpt>
      <trkpt lat="45.87756" lon="2.98441">
        <ele>762.2</ele>
        <time>2025-08-07T13:20:30Z</time>
      </trkpt>
      <trkpt lat="45.87757" lon="2.98436">
        <ele>762.4</ele>
        <time>2025-08-07T13:20:31Z</time>
      </trkpt>
      <trkpt lat="45.87758" lon="2.9843">
        <ele>762.6</ele>
        <time>2025-08-07T13:20:32Z</time>
      </trkpt>
      <trkpt lat="45.87758" lon="2.98425">
        <ele>762.8</ele>
        <time>2025-08-07T13:20:33Z</time>
      </trkpt>
      <trkpt lat="45.87759" lon="2.98419">
        <ele>763</ele>
        <time>2025-08-07T13:20:34Z</time>
      </trkpt>
      <trkpt lat="45.87759" lon="2.98413">
        <ele>763</ele>
        <time>2025-08-07T13:20:35Z</time>
      </trkpt>
      <trkpt lat="45.8776" lon="2.98408">
        <ele>763.2</ele>
        <time>2025-08-07T13:20:36Z</time>
      </trkpt>
      <trkpt lat="45.87761" lon="2.98402">
        <ele>763.4</ele>
        <time>2025-08-07T13:20:37Z</time>
      </trkpt>
      <trkpt lat="45.87762" lon="2.98398">
        <ele>763.6</ele>
        <time>2025-08-07T13:20:38Z</time>
      </trkpt>
      <trkpt lat="45.87761" lon="2.98394">
        <ele>763.8</ele>
        <time>2025-08-07T13:20:39Z</time>
      </trkpt>
      <trkpt lat="45.87761" lon="2.98389">
        <ele>764</ele>
        <time>2025-08-07T13:20:40Z</time>
      </trkpt>
      <trkpt lat="45.8776" lon="2.98385">
        <ele>764.2</ele>
        <time>2025-08-07T13:20:41Z</time>
      </trkpt>
      <trkpt lat="45.8776" lon="2.9838">
        <ele>764.4</ele>
        <time>2025-08-07T13:20:42Z</time>
      </trkpt>
      <trkpt lat="45.8776" lon="2.98375">
        <ele>764.6</ele>
        <time>2025-08-07T13:20:43Z</time>
      </trkpt>
      <trkpt lat="45.87762" lon="2.9837">
        <ele>764.8</ele>
        <time>2025-08-07T13:20:44Z</time>
      </trkpt>
      <trkpt lat="45.87762" lon="2.98367">
        <ele>765</ele>
        <time>2025-08-07T13:20:45Z</time>
      </trkpt>
      <trkpt lat="45.87761" lon="2.98364">
        <ele>765.4</ele>
        <time>2025-08-07T13:20:46Z</time>
      </trkpt>
      <trkpt lat="45.87761" lon="2.9836">
        <ele>765.6</ele>
        <time>2025-08-07T13:20:47Z</time>
      </trkpt>
      <trkpt lat="45.87759" lon="2.98356">
        <ele>766</ele>
        <time>2025-08-07T13:20:48Z</time>
      </trkpt>
      <trkpt lat="45.87758" lon="2.98353">
        <ele>766.2</ele>
        <time>2025-08-07T13:20:49Z</time>
      </trkpt>
      <trkpt lat="45.87758" lon="2.98349">
        <ele>766.6</ele>
        <time>2025-08-07T13:20:50Z</time>
      </trkpt>
      <trkpt lat="45.87756" lon="2.98346">
        <ele>766.8</ele>
        <time>2025-08-07T13:20:51Z</time>
      </trkpt>
      <trkpt lat="45.87756" lon="2.98342">
        <ele>767</ele>
        <time>2025-08-07T13:20:52Z</time>
      </trkpt>
      <trkpt lat="45.87756" lon="2.98338">
        <ele>767.4</ele>
        <time>2025-08-07T13:20:53Z</time>
      </trkpt>
      <trkpt lat="45.87757" lon="2.98334">
        <ele>767.6</ele>
        <time>2025-08-07T13:20:54Z</time>
      </trkpt>
      <trkpt lat="45.87756" lon="2.98328">
        <ele>768</ele>
        <time>2025-08-07T13:20:55Z</time>
      </trkpt>
      <trkpt lat="45.87755" lon="2.98323">
        <ele>768.2</ele>
        <time>2025-08-07T13:20:56Z</time>
      </trkpt>
      <trkpt lat="45.87754" lon="2.9832">
        <ele>768.4</ele>
        <time>2025-08-07T13:20:57Z</time>
      </trkpt>
      <trkpt lat="45.87753" lon="2.98316">
        <ele>768.8</ele>
        <time>2025-08-07T13:20:58Z</time>
      </trkpt>
      <trkpt lat="45.87753" lon="2.98313">
        <ele>769</ele>
        <time>2025-08-07T13:20:59Z</time>
      </trkpt>
      <trkpt lat="45.87753" lon="2.9831">
        <ele>769.4</ele>
        <time>2025-08-07T13:21:00Z</time>
      </trkpt>
      <trkpt lat="45.87753" lon="2.98306">
        <ele>769.6</ele>
        <time>2025-08-07T13:21:01Z</time>
      </trkpt>
      <trkpt lat="45.87754" lon="2.98301">
        <ele>770</ele>
        <time>2025-08-07T13:21:02Z</time>
      </trkpt>
      <trkpt lat="45.87754" lon="2.98297">
        <ele>770.2</ele>
        <time>2025-08-07T13:21:03Z</time>
      </trkpt>
      <trkpt lat="45.87755" lon="2.98292">
        <ele>770.4</ele>
        <time>2025-08-07T13:21:04Z</time>
      </trkpt>
      <trkpt lat="45.87756" lon="2.98287">
        <ele>770.6</ele>
        <time>2025-08-07T13:21:05Z</time>
      </trkpt>
      <trkpt lat="45.87756" lon="2.98283">
        <ele>770.8</ele>
        <time>2025-08-07T13:21:06Z</time>
      </trkpt>
      <trkpt lat="45.87758" lon="2.98278">
        <ele>771</ele>
        <time>2025-08-07T13:21:07Z</time>
      </trkpt>
      <trkpt lat="45.8776" lon="2.98276">
        <ele>771.2</ele>
        <time>2025-08-07T13:21:08Z</time>
      </trkpt>
      <trkpt lat="45.87761" lon="2.98274">
        <ele>771.2</ele>
        <time>2025-08-07T13:21:09Z</time>
      </trkpt>
      <trkpt lat="45.87762" lon="2.98276">
        <ele>771.4</ele>
        <time>2025-08-07T13:21:10Z</time>
      </trkpt>
      <trkpt lat="45.87764" lon="2.98279">
        <ele>771.6</ele>
        <time>2025-08-07T13:21:11Z</time>
      </trkpt>
      <trkpt lat="45.87765" lon="2.98281">
        <ele>772</ele>
        <time>2025-08-07T13:21:12Z</time>
      </trkpt>
      <trkpt lat="45.87766" lon="2.98282">
        <ele>772.2</ele>
        <time>2025-08-07T13:21:13Z</time>
      </trkpt>
      <trkpt lat="45.87767" lon="2.98283">
        <ele>772.6</ele>
        <time>2025-08-07T13:21:14Z</time>
      </trkpt>
      <trkpt lat="45.87768" lon="2.98284">
        <ele>773</ele>
        <time>2025-08-07T13:21:15Z</time>
      </trkpt>
      <trkpt lat="45.87769" lon="2.98286">
        <ele>773.2</ele>
        <time>2025-08-07T13:21:16Z</time>
      </trkpt>
      <trkpt lat="45.87769" lon="2.98286">
        <ele>773.4</ele>
        <time>2025-08-07T13:21:17Z</time>
      </trkpt>
      <trkpt lat="45.8777" lon="2.98286">
        <ele>773.6</ele>
        <time>2025-08-07T13:21:18Z</time>
      </trkpt>
      <trkpt lat="45.87773" lon="2.98288">
        <ele>774</ele>
        <time>2025-08-07T13:21:19Z</time>
      </trkpt>
      <trkpt lat="45.87775" lon="2.98289">
        <ele>774.2</ele>
        <time>2025-08-07T13:21:20Z</time>
      </trkpt>
      <trkpt lat="45.87776" lon="2.98291">
        <ele>774.8</ele>
        <time>2025-08-07T13:21:21Z</time>
      </trkpt>
      <trkpt lat="45.87778" lon="2.98292">
        <ele>775.2</ele>
        <time>2025-08-07T13:21:22Z</time>
      </trkpt>
      <trkpt lat="45.8778" lon="2.98294">
        <ele>775.4</ele>
        <time>2025-08-07T13:21:23Z</time>
      </trkpt>
      <trkpt lat="45.87782" lon="2.98295">
        <ele>775.6</ele>
        <time>2025-08-07T13:21:24Z</time>
      </trkpt>
      <trkpt lat="45.87785" lon="2.98295">
        <ele>775.8</ele>
        <time>2025-08-07T13:21:25Z</time>
      </trkpt>
      <trkpt lat="45.87787" lon="2.98295">
        <ele>775.8</ele>
        <time>2025-08-07T13:21:26Z</time>
      </trkpt>
      <trkpt lat="45.87789" lon="2.98295">
        <ele>775.8</ele>
        <time>2025-08-07T13:21:27Z</time>
      </trkpt>
      <trkpt lat="45.87791" lon="2.98293">
        <ele>776</ele>
        <time>2025-08-07T13:21:28Z</time>
      </trkpt>
      <trkpt lat="45.87793" lon="2.98291">
        <ele>776</ele>
        <time>2025-08-07T13:21:29Z</time>
      </trkpt>
      <trkpt lat="45.87795" lon="2.98288">
        <ele>776.2</ele>
        <time>2025-08-07T13:21:30Z</time>
      </trkpt>
      <trkpt lat="45.87796" lon="2.98285">
        <ele>776.4</ele>
        <time>2025-08-07T13:21:31Z</time>
      </trkpt>
      <trkpt lat="45.87797" lon="2.98282">
        <ele>776.6</ele>
        <time>2025-08-07T13:21:32Z</time>
      </trkpt>
      <trkpt lat="45.87798" lon="2.98279">
        <ele>776.8</ele>
        <time>2025-08-07T13:21:33Z</time>
      </trkpt>
      <trkpt lat="45.87799" lon="2.98277">
        <ele>777</ele>
        <time>2025-08-07T13:21:34Z</time>
      </trkpt>
      <trkpt lat="45.878" lon="2.98274">
        <ele>777</ele>
        <time>2025-08-07T13:21:35Z</time>
      </trkpt>
      <trkpt lat="45.878" lon="2.98272">
        <ele>777.2</ele>
        <time>2025-08-07T13:21:36Z</time>
      </trkpt>
      <trkpt lat="45.87801" lon="2.9827">
        <ele>777.4</ele>
        <time>2025-08-07T13:21:37Z</time>
      </trkpt>
      <trkpt lat="45.87802" lon="2.98268">
        <ele>777.6</ele>
        <time>2025-08-07T13:21:38Z</time>
      </trkpt>
      <trkpt lat="45.87802" lon="2.98265">
        <ele>777.6</ele>
        <time>2025-08-07T13:21:39Z</time>
      </trkpt>
      <trkpt lat="45.87803" lon="2.98261">
        <ele>777.8</ele>
        <time>2025-08-07T13:21:40Z</time>
      </trkpt>
      <trkpt lat="45.87804" lon="2.98259">
        <ele>778</ele>
        <time>2025-08-07T13:21:41Z</time>
      </trkpt>
      <trkpt lat="45.87805" lon="2.98257">
        <ele>778.2</ele>
        <time>2025-08-07T13:21:42Z</time>
      </trkpt>
      <trkpt lat="45.87806" lon="2.98255">
        <ele>778.4</ele>
        <time>2025-08-07T13:21:43Z</time>
      </trkpt>
      <trkpt lat="45.87807" lon="2.98252">
        <ele>778.6</ele>
        <time>2025-08-07T13:21:44Z</time>
      </trkpt>
      <trkpt lat="45.87808" lon="2.98248">
        <ele>778.8</ele>
        <time>2025-08-07T13:21:45Z</time>
      </trkpt>
      <trkpt lat="45.8781" lon="2.98246">
        <ele>779</ele>
        <time>2025-08-07T13:21:46Z</time>
      </trkpt>
      <trkpt lat="45.8781" lon="2.98243">
        <ele>779.2</ele>
        <time>2025-08-07T13:21:47Z</time>
      </trkpt>
      <trkpt lat="45.87811" lon="2.98239">
        <ele>779.4</ele>
        <time>2025-08-07T13:21:48Z</time>
      </trkpt>
      <trkpt lat="45.87809" lon="2.98235">
        <ele>779.6</ele>
        <time>2025-08-07T13:21:49Z</time>
      </trkpt>
      <trkpt lat="45.87809" lon="2.98232">
        <ele>779.8</ele>
        <time>2025-08-07T13:21:50Z</time>
      </trkpt>
      <trkpt lat="45.87808" lon="2.98229">
        <ele>780</ele>
        <time>2025-08-07T13:21:51Z</time>
      </trkpt>
      <trkpt lat="45.87808" lon="2.98227">
        <ele>780.2</ele>
        <time>2025-08-07T13:21:52Z</time>
      </trkpt>
      <trkpt lat="45.87808" lon="2.98224">
        <ele>780.4</ele>
        <time>2025-08-07T13:21:53Z</time>
      </trkpt>
      <trkpt lat="45.87807" lon="2.98221">
        <ele>780.6</ele>
        <time>2025-08-07T13:21:54Z</time>
      </trkpt>
      <trkpt lat="45.87807" lon="2.98219">
        <ele>780.8</ele>
        <time>2025-08-07T13:21:55Z</time>
      </trkpt>
      <trkpt lat="45.87808" lon="2.98217">
        <ele>781</ele>
        <time>2025-08-07T13:21:56Z</time>
      </trkpt>
      <trkpt lat="45.87807" lon="2.98213">
        <ele>781.2</ele>
        <time>2025-08-07T13:21:57Z</time>
      </trkpt>
      <trkpt lat="45.87806" lon="2.98208">
        <ele>781.2</ele>
        <time>2025-08-07T13:21:58Z</time>
      </trkpt>
      <trkpt lat="45.87806" lon="2.98205">
        <ele>781.4</ele>
        <time>2025-08-07T13:21:59Z</time>
      </trkpt>
      <trkpt lat="45.87806" lon="2.98202">
        <ele>781.6</ele>
        <time>2025-08-07T13:22:00Z</time>
      </trkpt>
      <trkpt lat="45.87805" lon="2.98201">
        <ele>781.6</ele>
        <time>2025-08-07T13:22:01Z</time>
      </trkpt>
      <trkpt lat="45.87804" lon="2.98198">
        <ele>781.8</ele>
        <time>2025-08-07T13:22:02Z</time>
      </trkpt>
      <trkpt lat="45.87804" lon="2.98195">
        <ele>781.8</ele>
        <time>2025-08-07T13:22:03Z</time>
      </trkpt>
      <trkpt lat="45.87803" lon="2.98192">
        <ele>781.8</ele>
        <time>2025-08-07T13:22:04Z</time>
      </trkpt>
      <trkpt lat="45.87803" lon="2.98187">
        <ele>782</ele>
        <time>2025-08-07T13:22:05Z</time>
      </trkpt>
      <trkpt lat="45.87802" lon="2.98181">
        <ele>782.2</ele>
        <time>2025-08-07T13:22:06Z</time>
      </trkpt>
      <trkpt lat="45.87801" lon="2.98176">
        <ele>782.2</ele>
        <time>2025-08-07T13:22:07Z</time>
      </trkpt>
      <trkpt lat="45.87801" lon="2.98173">
        <ele>782.4</ele>
        <time>2025-08-07T13:22:08Z</time>
      </trkpt>
      <trkpt lat="45.87801" lon="2.98169">
        <ele>782.6</ele>
        <time>2025-08-07T13:22:09Z</time>
      </trkpt>
      <trkpt lat="45.87801" lon="2.98165">
        <ele>782.8</ele>
        <time>2025-08-07T13:22:10Z</time>
      </trkpt>
      <trkpt lat="45.87802" lon="2.98162">
        <ele>783</ele>
        <time>2025-08-07T13:22:11Z</time>
      </trkpt>
      <trkpt lat="45.87802" lon="2.9816">
        <ele>783.2</ele>
        <time>2025-08-07T13:22:12Z</time>
      </trkpt>
      <trkpt lat="45.87803" lon="2.98158">
        <ele>783.6</ele>
        <time>2025-08-07T13:22:13Z</time>
      </trkpt>
      <trkpt lat="45.87805" lon="2.98155">
        <ele>783.8</ele>
        <time>2025-08-07T13:22:14Z</time>
      </trkpt>
      <trkpt lat="45.87806" lon="2.98152">
        <ele>784</ele>
        <time>2025-08-07T13:22:15Z</time>
      </trkpt>
      <trkpt lat="45.87808" lon="2.98148">
        <ele>784.2</ele>
        <time>2025-08-07T13:22:16Z</time>
      </trkpt>
      <trkpt lat="45.87809" lon="2.98145">
        <ele>784.4</ele>
        <time>2025-08-07T13:22:17Z</time>
      </trkpt>
      <trkpt lat="45.87811" lon="2.98146">
        <ele>784.4</ele>
        <time>2025-08-07T13:22:18Z</time>
      </trkpt>
      <trkpt lat="45.87814" lon="2.98147">
        <ele>784.6</ele>
        <time>2025-08-07T13:22:19Z</time>
      </trkpt>
      <trkpt lat="45.87817" lon="2.9815">
        <ele>784.6</ele>
        <time>2025-08-07T13:22:20Z</time>
      </trkpt>
      <trkpt lat="45.87819" lon="2.98153">
        <ele>784.8</ele>
        <time>2025-08-07T13:22:21Z</time>
      </trkpt>
      <trkpt lat="45.87823" lon="2.98156">
        <ele>784.8</ele>
        <time>2025-08-07T13:22:22Z</time>
      </trkpt>
      <trkpt lat="45.87827" lon="2.98159">
        <ele>784.6</ele>
        <time>2025-08-07T13:22:23Z</time>
      </trkpt>
      <trkpt lat="45.87831" lon="2.98163">
        <ele>784.6</ele>
        <time>2025-08-07T13:22:24Z</time>
      </trkpt>
      <trkpt lat="45.87835" lon="2.98166">
        <ele>784.6</ele>
        <time>2025-08-07T13:22:25Z</time>
      </trkpt>
      <trkpt lat="45.87838" lon="2.98169">
        <ele>784.4</ele>
        <time>2025-08-07T13:22:26Z</time>
      </trkpt>
      <trkpt lat="45.87841" lon="2.98173">
        <ele>784.2</ele>
        <time>2025-08-07T13:22:27Z</time>
      </trkpt>
      <trkpt lat="45.87843" lon="2.98176">
        <ele>784.2</ele>
        <time>2025-08-07T13:22:28Z</time>
      </trkpt>
      <trkpt lat="45.87845" lon="2.98178">
        <ele>784</ele>
        <time>2025-08-07T13:22:29Z</time>
      </trkpt>
      <trkpt lat="45.87845" lon="2.98178">
        <ele>783.8</ele>
        <time>2025-08-07T13:22:30Z</time>
      </trkpt>
      <trkpt lat="45.87849" lon="2.98182">
        <ele>783.4</ele>
        <time>2025-08-07T13:23:33Z</time>
      </trkpt>
      <trkpt lat="45.87852" lon="2.98184">
        <ele>783.2</ele>
        <time>2025-08-07T13:23:34Z</time>
      </trkpt>
      <trkpt lat="45.87854" lon="2.98186">
        <ele>783.2</ele>
        <time>2025-08-07T13:23:35Z</time>
      </trkpt>
      <trkpt lat="45.87857" lon="2.9819">
        <ele>783</ele>
        <time>2025-08-07T13:23:36Z</time>
      </trkpt>
      <trkpt lat="45.8786" lon="2.98193">
        <ele>783</ele>
        <time>2025-08-07T13:23:37Z</time>
      </trkpt>
      <trkpt lat="45.87864" lon="2.98196">
        <ele>782.8</ele>
        <time>2025-08-07T13:23:38Z</time>
      </trkpt>
      <trkpt lat="45.8787" lon="2.982">
        <ele>782.6</ele>
        <time>2025-08-07T13:23:39Z</time>
      </trkpt>
      <trkpt lat="45.87876" lon="2.98204">
        <ele>782.4</ele>
        <time>2025-08-07T13:23:40Z</time>
      </trkpt>
      <trkpt lat="45.87881" lon="2.98209">
        <ele>782.2</ele>
        <time>2025-08-07T13:23:41Z</time>
      </trkpt>
      <trkpt lat="45.87887" lon="2.98214">
        <ele>782</ele>
        <time>2025-08-07T13:23:42Z</time>
      </trkpt>
      <trkpt lat="45.87893" lon="2.98219">
        <ele>781.8</ele>
        <time>2025-08-07T13:23:43Z</time>
      </trkpt>
      <trkpt lat="45.87898" lon="2.98223">
        <ele>781.6</ele>
        <time>2025-08-07T13:23:44Z</time>
      </trkpt>
      <trkpt lat="45.87903" lon="2.98226">
        <ele>781.4</ele>
        <time>2025-08-07T13:23:45Z</time>
      </trkpt>
      <trkpt lat="45.87909" lon="2.98231">
        <ele>781</ele>
        <time>2025-08-07T13:23:46Z</time>
      </trkpt>
      <trkpt lat="45.87914" lon="2.98235">
        <ele>780.8</ele>
        <time>2025-08-07T13:23:47Z</time>
      </trkpt>
      <trkpt lat="45.87919" lon="2.98239">
        <ele>780.4</ele>
        <time>2025-08-07T13:23:48Z</time>
      </trkpt>
      <trkpt lat="45.87924" lon="2.98243">
        <ele>780.2</ele>
        <time>2025-08-07T13:23:49Z</time>
      </trkpt>
      <trkpt lat="45.8793" lon="2.98248">
        <ele>780</ele>
        <time>2025-08-07T13:23:50Z</time>
      </trkpt>
      <trkpt lat="45.87936" lon="2.9825">
        <ele>779.8</ele>
        <time>2025-08-07T13:23:51Z</time>
      </trkpt>
      <trkpt lat="45.87941" lon="2.98251">
        <ele>779.6</ele>
        <time>2025-08-07T13:23:52Z</time>
      </trkpt>
      <trkpt lat="45.87946" lon="2.98253">
        <ele>779.2</ele>
        <time>2025-08-07T13:23:53Z</time>
      </trkpt>
      <trkpt lat="45.87952" lon="2.98259">
        <ele>778.8</ele>
        <time>2025-08-07T13:23:54Z</time>
      </trkpt>
      <trkpt lat="45.87958" lon="2.98263">
        <ele>778.6</ele>
        <time>2025-08-07T13:23:55Z</time>
      </trkpt>
      <trkpt lat="45.87965" lon="2.98263">
        <ele>778.2</ele>
        <time>2025-08-07T13:23:56Z</time>
      </trkpt>
      <trkpt lat="45.87972" lon="2.98264">
        <ele>777.8</ele>
        <time>2025-08-07T13:23:57Z</time>
      </trkpt>
      <trkpt lat="45.87981" lon="2.98265">
        <ele>777.4</ele>
        <time>2025-08-07T13:23:58Z</time>
      </trkpt>
      <trkpt lat="45.87988" lon="2.98267">
        <ele>777</ele>
        <time>2025-08-07T13:23:59Z</time>
      </trkpt>
      <trkpt lat="45.87998" lon="2.98267">
        <ele>776.8</ele>
        <time>2025-08-07T13:24:00Z</time>
      </trkpt>
      <trkpt lat="45.8801" lon="2.98267">
        <ele>776.4</ele>
        <time>2025-08-07T13:24:01Z</time>
      </trkpt>
      <trkpt lat="45.88023" lon="2.98267">
        <ele>776.2</ele>
        <time>2025-08-07T13:24:02Z</time>
      </trkpt>
      <trkpt lat="45.88034" lon="2.98267">
        <ele>776</ele>
        <time>2025-08-07T13:24:03Z</time>
      </trkpt>
      <trkpt lat="45.88045" lon="2.98268">
        <ele>775.8</ele>
        <time>2025-08-07T13:24:04Z</time>
      </trkpt>
      <trkpt lat="45.88057" lon="2.9827">
        <ele>775.8</ele>
        <time>2025-08-07T13:24:05Z</time>
      </trkpt>
      <trkpt lat="45.88069" lon="2.98269">
        <ele>775.6</ele>
        <time>2025-08-07T13:24:06Z</time>
      </trkpt>
      <trkpt lat="45.88079" lon="2.98269">
        <ele>775.4</ele>
        <time>2025-08-07T13:24:07Z</time>
      </trkpt>
      <trkpt lat="45.88089" lon="2.9827">
        <ele>775.2</ele>
        <time>2025-08-07T13:24:08Z</time>
      </trkpt>
      <trkpt lat="45.88098" lon="2.9827">
        <ele>775.2</ele>
        <time>2025-08-07T13:24:09Z</time>
      </trkpt>
      <trkpt lat="45.88106" lon="2.98271">
        <ele>775.2</ele>
        <time>2025-08-07T13:24:10Z</time>
      </trkpt>
      <trkpt lat="45.88114" lon="2.98272">
        <ele>775</ele>
        <time>2025-08-07T13:24:11Z</time>
      </trkpt>
      <trkpt lat="45.88122" lon="2.98274">
        <ele>775</ele>
        <time>2025-08-07T13:24:12Z</time>
      </trkpt>
      <trkpt lat="45.8813" lon="2.98274">
        <ele>774.8</ele>
        <time>2025-08-07T13:24:13Z</time>
      </trkpt>
      <trkpt lat="45.88138" lon="2.98274">
        <ele>774.8</ele>
        <time>2025-08-07T13:24:14Z</time>
      </trkpt>
      <trkpt lat="45.88146" lon="2.98276">
        <ele>774.6</ele>
        <time>2025-08-07T13:24:15Z</time>
      </trkpt>
      <trkpt lat="45.88154" lon="2.98278">
        <ele>774.6</ele>
        <time>2025-08-07T13:24:16Z</time>
      </trkpt>
      <trkpt lat="45.88162" lon="2.98279">
        <ele>774.4</ele>
        <time>2025-08-07T13:24:17Z</time>
      </trkpt>
      <trkpt lat="45.88169" lon="2.98279">
        <ele>774.4</ele>
        <time>2025-08-07T13:24:18Z</time>
      </trkpt>
      <trkpt lat="45.88177" lon="2.9828">
        <ele>774.2</ele>
        <time>2025-08-07T13:24:19Z</time>
      </trkpt>
      <trkpt lat="45.88184" lon="2.9828">
        <ele>774.2</ele>
        <time>2025-08-07T13:24:20Z</time>
      </trkpt>
      <trkpt lat="45.88191" lon="2.9828">
        <ele>774</ele>
        <time>2025-08-07T13:24:21Z</time>
      </trkpt>
      <trkpt lat="45.88197" lon="2.98281">
        <ele>774</ele>
        <time>2025-08-07T13:24:22Z</time>
      </trkpt>
      <trkpt lat="45.88203" lon="2.98283">
        <ele>774</ele>
        <time>2025-08-07T13:24:23Z</time>
      </trkpt>
      <trkpt lat="45.88209" lon="2.98284">
        <ele>774</ele>
        <time>2025-08-07T13:24:24Z</time>
      </trkpt>
      <trkpt lat="45.88215" lon="2.98286">
        <ele>774</ele>
        <time>2025-08-07T13:24:25Z</time>
      </trkpt>
      <trkpt lat="45.88221" lon="2.98287">
        <ele>773.8</ele>
        <time>2025-08-07T13:24:26Z</time>
      </trkpt>
      <trkpt lat="45.88226" lon="2.98288">
        <ele>773.8</ele>
        <time>2025-08-07T13:24:27Z</time>
      </trkpt>
      <trkpt lat="45.88232" lon="2.98289">
        <ele>773.8</ele>
        <time>2025-08-07T13:24:28Z</time>
      </trkpt>
      <trkpt lat="45.88238" lon="2.98289">
        <ele>773.8</ele>
        <time>2025-08-07T13:24:29Z</time>
      </trkpt>
      <trkpt lat="45.88244" lon="2.9829">
        <ele>774</ele>
        <time>2025-08-07T13:24:30Z</time>
      </trkpt>
      <trkpt lat="45.88249" lon="2.9829">
        <ele>774</ele>
        <time>2025-08-07T13:24:31Z</time>
      </trkpt>
      <trkpt lat="45.88255" lon="2.9829">
        <ele>774</ele>
        <time>2025-08-07T13:24:32Z</time>
      </trkpt>
      <trkpt lat="45.88261" lon="2.9829">
        <ele>774</ele>
        <time>2025-08-07T13:24:33Z</time>
      </trkpt>
      <trkpt lat="45.88267" lon="2.98289">
        <ele>774.2</ele>
        <time>2025-08-07T13:24:34Z</time>
      </trkpt>
      <trkpt lat="45.88273" lon="2.98289">
        <ele>774.2</ele>
        <time>2025-08-07T13:24:35Z</time>
      </trkpt>
      <trkpt lat="45.88279" lon="2.98287">
        <ele>774.2</ele>
        <time>2025-08-07T13:24:36Z</time>
      </trkpt>
      <trkpt lat="45.88284" lon="2.98286">
        <ele>774.4</ele>
        <time>2025-08-07T13:24:37Z</time>
      </trkpt>
      <trkpt lat="45.8829" lon="2.98285">
        <ele>774.4</ele>
        <time>2025-08-07T13:24:38Z</time>
      </trkpt>
      <trkpt lat="45.88295" lon="2.98283">
        <ele>774.6</ele>
        <time>2025-08-07T13:24:39Z</time>
      </trkpt>
      <trkpt lat="45.88301" lon="2.98281">
        <ele>774.6</ele>
        <time>2025-08-07T13:24:40Z</time>
      </trkpt>
      <trkpt lat="45.88307" lon="2.98278">
        <ele>774.8</ele>
        <time>2025-08-07T13:24:41Z</time>
      </trkpt>
      <trkpt lat="45.88313" lon="2.98274">
        <ele>775</ele>
        <time>2025-08-07T13:24:42Z</time>
      </trkpt>
      <trkpt lat="45.88319" lon="2.98271">
        <ele>775</ele>
        <time>2025-08-07T13:24:43Z</time>
      </trkpt>
      <trkpt lat="45.88324" lon="2.98269">
        <ele>775</ele>
        <time>2025-08-07T13:24:44Z</time>
      </trkpt>
      <trkpt lat="45.88329" lon="2.98268">
        <ele>775.2</ele>
        <time>2025-08-07T13:24:45Z</time>
      </trkpt>
      <trkpt lat="45.88335" lon="2.98266">
        <ele>775.2</ele>
        <time>2025-08-07T13:24:46Z</time>
      </trkpt>
      <trkpt lat="45.88341" lon="2.98265">
        <ele>775.4</ele>
        <time>2025-08-07T13:24:47Z</time>
      </trkpt>
      <trkpt lat="45.88348" lon="2.98263">
        <ele>775.6</ele>
        <time>2025-08-07T13:24:48Z</time>
      </trkpt>
      <trkpt lat="45.88354" lon="2.98263">
        <ele>775.6</ele>
        <time>2025-08-07T13:24:49Z</time>
      </trkpt>
      <trkpt lat="45.8836" lon="2.98263">
        <ele>775.8</ele>
        <time>2025-08-07T13:24:50Z</time>
      </trkpt>
      <trkpt lat="45.88367" lon="2.98263">
        <ele>776</ele>
        <time>2025-08-07T13:24:51Z</time>
      </trkpt>
      <trkpt lat="45.88373" lon="2.98265">
        <ele>776</ele>
        <time>2025-08-07T13:24:52Z</time>
      </trkpt>
      <trkpt lat="45.88378" lon="2.98266">
        <ele>776</ele>
        <time>2025-08-07T13:24:53Z</time>
      </trkpt>
      <trkpt lat="45.88383" lon="2.98266">
        <ele>776</ele>
        <time>2025-08-07T13:24:54Z</time>
      </trkpt>
      <trkpt lat="45.88387" lon="2.98266">
        <ele>776</ele>
        <time>2025-08-07T13:24:55Z</time>
      </trkpt>
      <trkpt lat="45.88391" lon="2.98267">
        <ele>776</ele>
        <time>2025-08-07T13:24:56Z</time>
      </trkpt>
      <trkpt lat="45.88394" lon="2.98268">
        <ele>776</ele>
        <time>2025-08-07T13:24:57Z</time>
      </trkpt>
      <trkpt lat="45.88397" lon="2.98269">
        <ele>776</ele>
        <time>2025-08-07T13:24:58Z</time>
      </trkpt>
      <trkpt lat="45.884" lon="2.98268">
        <ele>776</ele>
        <time>2025-08-07T13:24:59Z</time>
      </trkpt>
      <trkpt lat="45.88405" lon="2.98266">
        <ele>776</ele>
        <time>2025-08-07T13:25:00Z</time>
      </trkpt>
      <trkpt lat="45.88409" lon="2.98262">
        <ele>776</ele>
        <time>2025-08-07T13:25:01Z</time>
      </trkpt>
      <trkpt lat="45.88413" lon="2.98258">
        <ele>776.2</ele>
        <time>2025-08-07T13:25:02Z</time>
      </trkpt>
      <trkpt lat="45.88417" lon="2.98253">
        <ele>776.2</ele>
        <time>2025-08-07T13:25:03Z</time>
      </trkpt>
      <trkpt lat="45.88421" lon="2.98248">
        <ele>776.4</ele>
        <time>2025-08-07T13:25:04Z</time>
      </trkpt>
      <trkpt lat="45.88425" lon="2.98241">
        <ele>776.6</ele>
        <time>2025-08-07T13:25:05Z</time>
      </trkpt>
      <trkpt lat="45.88429" lon="2.98235">
        <ele>776.6</ele>
        <time>2025-08-07T13:25:06Z</time>
      </trkpt>
      <trkpt lat="45.88432" lon="2.98229">
        <ele>776.6</ele>
        <time>2025-08-07T13:25:07Z</time>
      </trkpt>
      <trkpt lat="45.88436" lon="2.98224">
        <ele>776.8</ele>
        <time>2025-08-07T13:25:08Z</time>
      </trkpt>
      <trkpt lat="45.8844" lon="2.98219">
        <ele>777</ele>
        <time>2025-08-07T13:25:09Z</time>
      </trkpt>
      <trkpt lat="45.88443" lon="2.98214">
        <ele>777</ele>
        <time>2025-08-07T13:25:10Z</time>
      </trkpt>
      <trkpt lat="45.88447" lon="2.98209">
        <ele>777.2</ele>
        <time>2025-08-07T13:25:11Z</time>
      </trkpt>
      <trkpt lat="45.8845" lon="2.98203">
        <ele>777.4</ele>
        <time>2025-08-07T13:25:12Z</time>
      </trkpt>
      <trkpt lat="45.88452" lon="2.98198">
        <ele>777.6</ele>
        <time>2025-08-07T13:25:13Z</time>
      </trkpt>
      <trkpt lat="45.88455" lon="2.98192">
        <ele>777.8</ele>
        <time>2025-08-07T13:25:14Z</time>
      </trkpt>
      <trkpt lat="45.88458" lon="2.98187">
        <ele>778</ele>
        <time>2025-08-07T13:25:15Z</time>
      </trkpt>
      <trkpt lat="45.88461" lon="2.98181">
        <ele>778.2</ele>
        <time>2025-08-07T13:25:16Z</time>
      </trkpt>
      <trkpt lat="45.88464" lon="2.98175">
        <ele>778.2</ele>
        <time>2025-08-07T13:25:17Z</time>
      </trkpt>
      <trkpt lat="45.88466" lon="2.9817">
        <ele>778.4</ele>
        <time>2025-08-07T13:25:18Z</time>
      </trkpt>
      <trkpt lat="45.88469" lon="2.98164">
        <ele>778.4</ele>
        <time>2025-08-07T13:25:19Z</time>
      </trkpt>
      <trkpt lat="45.88471" lon="2.98158">
        <ele>778.6</ele>
        <time>2025-08-07T13:25:20Z</time>
      </trkpt>
      <trkpt lat="45.88473" lon="2.98152">
        <ele>778.8</ele>
        <time>2025-08-07T13:25:21Z</time>
      </trkpt>
      <trkpt lat="45.88475" lon="2.98146">
        <ele>779</ele>
        <time>2025-08-07T13:25:22Z</time>
      </trkpt>
      <trkpt lat="45.88477" lon="2.9814">
        <ele>779</ele>
        <time>2025-08-07T13:25:23Z</time>
      </trkpt>
      <trkpt lat="45.88479" lon="2.98135">
        <ele>779.2</ele>
        <time>2025-08-07T13:25:24Z</time>
      </trkpt>
      <trkpt lat="45.8848" lon="2.98129">
        <ele>779.4</ele>
        <time>2025-08-07T13:25:25Z</time>
      </trkpt>
      <trkpt lat="45.8848" lon="2.98123">
        <ele>779.6</ele>
        <time>2025-08-07T13:25:26Z</time>
      </trkpt>
      <trkpt lat="45.88481" lon="2.98117">
        <ele>779.8</ele>
        <time>2025-08-07T13:25:27Z</time>
      </trkpt>
      <trkpt lat="45.88482" lon="2.98112">
        <ele>780</ele>
        <time>2025-08-07T13:25:28Z</time>
      </trkpt>
      <trkpt lat="45.88483" lon="2.98106">
        <ele>780.2</ele>
        <time>2025-08-07T13:25:29Z</time>
      </trkpt>
      <trkpt lat="45.88483" lon="2.981">
        <ele>780.2</ele>
        <time>2025-08-07T13:25:30Z</time>
      </trkpt>
      <trkpt lat="45.88484" lon="2.98094">
        <ele>780.4</ele>
        <time>2025-08-07T13:25:31Z</time>
      </trkpt>
      <trkpt lat="45.88485" lon="2.98089">
        <ele>780.6</ele>
        <time>2025-08-07T13:25:32Z</time>
      </trkpt>
      <trkpt lat="45.88485" lon="2.98083">
        <ele>780.8</ele>
        <time>2025-08-07T13:25:33Z</time>
      </trkpt>
      <trkpt lat="45.88486" lon="2.98078">
        <ele>781</ele>
        <time>2025-08-07T13:25:34Z</time>
      </trkpt>
      <trkpt lat="45.88487" lon="2.98073">
        <ele>781</ele>
        <time>2025-08-07T13:25:35Z</time>
      </trkpt>
      <trkpt lat="45.88487" lon="2.98067">
        <ele>781.2</ele>
        <time>2025-08-07T13:25:36Z</time>
      </trkpt>
      <trkpt lat="45.88488" lon="2.98061">
        <ele>781.4</ele>
        <time>2025-08-07T13:25:37Z</time>
      </trkpt>
      <trkpt lat="45.88488" lon="2.98055">
        <ele>781.8</ele>
        <time>2025-08-07T13:25:38Z</time>
      </trkpt>
      <trkpt lat="45.88489" lon="2.98049">
        <ele>781.8</ele>
        <time>2025-08-07T13:25:39Z</time>
      </trkpt>
      <trkpt lat="45.88489" lon="2.98043">
        <ele>782</ele>
        <time>2025-08-07T13:25:40Z</time>
      </trkpt>
      <trkpt lat="45.8849" lon="2.98037">
        <ele>782.2</ele>
        <time>2025-08-07T13:25:41Z</time>
      </trkpt>
      <trkpt lat="45.88491" lon="2.98031">
        <ele>782.4</ele>
        <time>2025-08-07T13:25:42Z</time>
      </trkpt>
      <trkpt lat="45.88491" lon="2.98025">
        <ele>782.8</ele>
        <time>2025-08-07T13:25:43Z</time>
      </trkpt>
      <trkpt lat="45.88492" lon="2.98019">
        <ele>783</ele>
        <time>2025-08-07T13:25:44Z</time>
      </trkpt>
      <trkpt lat="45.88492" lon="2.98014">
        <ele>783.2</ele>
        <time>2025-08-07T13:25:45Z</time>
      </trkpt>
      <trkpt lat="45.88493" lon="2.98008">
        <ele>783.4</ele>
        <time>2025-08-07T13:25:46Z</time>
      </trkpt>
      <trkpt lat="45.88494" lon="2.98002">
        <ele>783.6</ele>
        <time>2025-08-07T13:25:47Z</time>
      </trkpt>
      <trkpt lat="45.88495" lon="2.97997">
        <ele>783.6</ele>
        <time>2025-08-07T13:25:48Z</time>
      </trkpt>
      <trkpt lat="45.88497" lon="2.97992">
        <ele>783.8</ele>
        <time>2025-08-07T13:25:49Z</time>
      </trkpt>
      <trkpt lat="45.885" lon="2.97988">
        <ele>784</ele>
        <time>2025-08-07T13:25:50Z</time>
      </trkpt>
      <trkpt lat="45.88503" lon="2.97985">
        <ele>783.8</ele>
        <time>2025-08-07T13:25:51Z</time>
      </trkpt>
      <trkpt lat="45.88506" lon="2.97985">
        <ele>783.8</ele>
        <time>2025-08-07T13:25:52Z</time>
      </trkpt>
      <trkpt lat="45.88511" lon="2.97986">
        <ele>783.6</ele>
        <time>2025-08-07T13:25:53Z</time>
      </trkpt>
      <trkpt lat="45.88516" lon="2.97988">
        <ele>783.6</ele>
        <time>2025-08-07T13:25:54Z</time>
      </trkpt>
      <trkpt lat="45.88522" lon="2.97991">
        <ele>783.6</ele>
        <time>2025-08-07T13:25:55Z</time>
      </trkpt>
      <trkpt lat="45.88527" lon="2.97994">
        <ele>783.4</ele>
        <time>2025-08-07T13:25:56Z</time>
      </trkpt>
      <trkpt lat="45.88533" lon="2.97998">
        <ele>783.2</ele>
        <time>2025-08-07T13:25:57Z</time>
      </trkpt>
      <trkpt lat="45.88539" lon="2.98002">
        <ele>783.2</ele>
        <time>2025-08-07T13:25:58Z</time>
      </trkpt>
      <trkpt lat="45.88545" lon="2.98006">
        <ele>783</ele>
        <time>2025-08-07T13:25:59Z</time>
      </trkpt>
      <trkpt lat="45.8855" lon="2.98009">
        <ele>783</ele>
        <time>2025-08-07T13:26:00Z</time>
      </trkpt>
      <trkpt lat="45.88556" lon="2.98012">
        <ele>782.8</ele>
        <time>2025-08-07T13:26:01Z</time>
      </trkpt>
      <trkpt lat="45.88563" lon="2.98016">
        <ele>782.8</ele>
        <time>2025-08-07T13:26:02Z</time>
      </trkpt>
      <trkpt lat="45.88568" lon="2.9802">
        <ele>782.6</ele>
        <time>2025-08-07T13:26:03Z</time>
      </trkpt>
      <trkpt lat="45.88574" lon="2.98025">
        <ele>782.6</ele>
        <time>2025-08-07T13:26:04Z</time>
      </trkpt>
      <trkpt lat="45.8858" lon="2.9803">
        <ele>782.4</ele>
        <time>2025-08-07T13:26:05Z</time>
      </trkpt>
      <trkpt lat="45.88585" lon="2.98037">
        <ele>782.4</ele>
        <time>2025-08-07T13:26:06Z</time>
      </trkpt>
      <trkpt lat="45.88589" lon="2.98044">
        <ele>782.2</ele>
        <time>2025-08-07T13:26:07Z</time>
      </trkpt>
      <trkpt lat="45.88593" lon="2.98051">
        <ele>782.2</ele>
        <time>2025-08-07T13:26:08Z</time>
      </trkpt>
      <trkpt lat="45.88598" lon="2.98059">
        <ele>782.2</ele>
        <time>2025-08-07T13:26:09Z</time>
      </trkpt>
      <trkpt lat="45.88602" lon="2.98067">
        <ele>782</ele>
        <time>2025-08-07T13:26:10Z</time>
      </trkpt>
      <trkpt lat="45.88607" lon="2.98075">
        <ele>781.8</ele>
        <time>2025-08-07T13:26:11Z</time>
      </trkpt>
      <trkpt lat="45.88612" lon="2.98082">
        <ele>781.8</ele>
        <time>2025-08-07T13:26:12Z</time>
      </trkpt>
      <trkpt lat="45.88617" lon="2.98089">
        <ele>781.6</ele>
        <time>2025-08-07T13:26:13Z</time>
      </trkpt>
      <trkpt lat="45.88622" lon="2.98096">
        <ele>781.4</ele>
        <time>2025-08-07T13:26:14Z</time>
      </trkpt>
      <trkpt lat="45.88626" lon="2.98103">
        <ele>781.2</ele>
        <time>2025-08-07T13:26:15Z</time>
      </trkpt>
      <trkpt lat="45.88631" lon="2.9811">
        <ele>781.2</ele>
        <time>2025-08-07T13:26:16Z</time>
      </trkpt>
      <trkpt lat="45.88636" lon="2.98117">
        <ele>781</ele>
        <time>2025-08-07T13:26:17Z</time>
      </trkpt>
      <trkpt lat="45.8864" lon="2.98125">
        <ele>780.8</ele>
        <time>2025-08-07T13:26:18Z</time>
      </trkpt>
      <trkpt lat="45.88643" lon="2.98133">
        <ele>780.6</ele>
        <time>2025-08-07T13:26:19Z</time>
      </trkpt>
      <trkpt lat="45.88646" lon="2.98142">
        <ele>780.4</ele>
        <time>2025-08-07T13:26:20Z</time>
      </trkpt>
      <trkpt lat="45.88648" lon="2.9815">
        <ele>780.2</ele>
        <time>2025-08-07T13:26:21Z</time>
      </trkpt>
      <trkpt lat="45.8865" lon="2.98157">
        <ele>780.2</ele>
        <time>2025-08-07T13:26:22Z</time>
      </trkpt>
      <trkpt lat="45.88651" lon="2.98164">
        <ele>780</ele>
        <time>2025-08-07T13:26:23Z</time>
      </trkpt>
      <trkpt lat="45.88652" lon="2.9817">
        <ele>780</ele>
        <time>2025-08-07T13:26:24Z</time>
      </trkpt>
      <trkpt lat="45.88653" lon="2.98175">
        <ele>779.8</ele>
        <time>2025-08-07T13:26:25Z</time>
      </trkpt>
      <trkpt lat="45.88656" lon="2.98179">
        <ele>779.8</ele>
        <time>2025-08-07T13:26:26Z</time>
      </trkpt>
      <trkpt lat="45.88659" lon="2.98183">
        <ele>779.8</ele>
        <time>2025-08-07T13:26:27Z</time>
      </trkpt>
      <trkpt lat="45.88662" lon="2.98184">
        <ele>779.8</ele>
        <time>2025-08-07T13:26:28Z</time>
      </trkpt>
      <trkpt lat="45.88664" lon="2.98185">
        <ele>780</ele>
        <time>2025-08-07T13:26:29Z</time>
      </trkpt>
      <trkpt lat="45.88666" lon="2.98185">
        <ele>780</ele>
        <time>2025-08-07T13:26:30Z</time>
      </trkpt>
      <trkpt lat="45.88668" lon="2.98185">
        <ele>780</ele>
        <time>2025-08-07T13:26:31Z</time>
      </trkpt>
      <trkpt lat="45.8867" lon="2.98185">
        <ele>780.2</ele>
        <time>2025-08-07T13:26:32Z</time>
      </trkpt>
      <trkpt lat="45.88672" lon="2.98184">
        <ele>780.2</ele>
        <time>2025-08-07T13:26:33Z</time>
      </trkpt>
      <trkpt lat="45.88676" lon="2.98184">
        <ele>780.2</ele>
        <time>2025-08-07T13:26:34Z</time>
      </trkpt>
      <trkpt lat="45.8868" lon="2.98184">
        <ele>780.2</ele>
        <time>2025-08-07T13:26:35Z</time>
      </trkpt>
      <trkpt lat="45.88685" lon="2.98182">
        <ele>780.2</ele>
        <time>2025-08-07T13:26:36Z</time>
      </trkpt>
      <trkpt lat="45.88691" lon="2.98183">
        <ele>780.4</ele>
        <time>2025-08-07T13:26:37Z</time>
      </trkpt>
      <trkpt lat="45.88696" lon="2.98184">
        <ele>780.4</ele>
        <time>2025-08-07T13:26:38Z</time>
      </trkpt>
      <trkpt lat="45.88701" lon="2.98185">
        <ele>780.6</ele>
        <time>2025-08-07T13:26:39Z</time>
      </trkpt>
      <trkpt lat="45.88707" lon="2.98185">
        <ele>780.6</ele>
        <time>2025-08-07T13:26:40Z</time>
      </trkpt>
      <trkpt lat="45.88712" lon="2.98183">
        <ele>780.8</ele>
        <time>2025-08-07T13:26:41Z</time>
      </trkpt>
      <trkpt lat="45.88717" lon="2.98181">
        <ele>780.8</ele>
        <time>2025-08-07T13:26:42Z</time>
      </trkpt>
      <trkpt lat="45.88723" lon="2.98179">
        <ele>781</ele>
        <time>2025-08-07T13:26:43Z</time>
      </trkpt>
      <trkpt lat="45.88728" lon="2.98175">
        <ele>781.2</ele>
        <time>2025-08-07T13:26:44Z</time>
      </trkpt>
      <trkpt lat="45.88733" lon="2.98172">
        <ele>781.4</ele>
        <time>2025-08-07T13:26:45Z</time>
      </trkpt>
      <trkpt lat="45.88737" lon="2.98168">
        <ele>781.6</ele>
        <time>2025-08-07T13:26:46Z</time>
      </trkpt>
      <trkpt lat="45.8874" lon="2.98164">
        <ele>782</ele>
        <time>2025-08-07T13:26:47Z</time>
      </trkpt>
      <trkpt lat="45.88743" lon="2.98158">
        <ele>782.4</ele>
        <time>2025-08-07T13:26:48Z</time>
      </trkpt>
      <trkpt lat="45.88745" lon="2.98152">
        <ele>782.8</ele>
        <time>2025-08-07T13:26:49Z</time>
      </trkpt>
      <trkpt lat="45.88746" lon="2.98147">
        <ele>783</ele>
        <time>2025-08-07T13:26:50Z</time>
      </trkpt>
      <trkpt lat="45.88747" lon="2.98141">
        <ele>783.4</ele>
        <time>2025-08-07T13:26:51Z</time>
      </trkpt>
      <trkpt lat="45.88747" lon="2.98137">
        <ele>783.6</ele>
        <time>2025-08-07T13:26:52Z</time>
      </trkpt>
      <trkpt lat="45.88747" lon="2.98132">
        <ele>783.8</ele>
        <time>2025-08-07T13:26:53Z</time>
      </trkpt>
      <trkpt lat="45.88747" lon="2.98127">
        <ele>784</ele>
        <time>2025-08-07T13:26:54Z</time>
      </trkpt>
      <trkpt lat="45.88748" lon="2.98123">
        <ele>784.2</ele>
        <time>2025-08-07T13:26:55Z</time>
      </trkpt>
      <trkpt lat="45.8875" lon="2.9812">
        <ele>784.4</ele>
        <time>2025-08-07T13:26:56Z</time>
      </trkpt>
      <trkpt lat="45.88751" lon="2.98117">
        <ele>784.6</ele>
        <time>2025-08-07T13:26:57Z</time>
      </trkpt>
      <trkpt lat="45.88751" lon="2.98114">
        <ele>784.6</ele>
        <time>2025-08-07T13:26:58Z</time>
      </trkpt>
      <trkpt lat="45.88749" lon="2.98114">
        <ele>784.6</ele>
        <time>2025-08-07T13:26:59Z</time>
      </trkpt>
      <trkpt lat="45.88747" lon="2.98116">
        <ele>784.6</ele>
        <time>2025-08-07T13:27:00Z</time>
      </trkpt>
      <trkpt lat="45.88746" lon="2.98119">
        <ele>784.4</ele>
        <time>2025-08-07T13:27:01Z</time>
      </trkpt>
      <trkpt lat="45.88746" lon="2.98123">
        <ele>784.4</ele>
        <time>2025-08-07T13:27:02Z</time>
      </trkpt>
      <trkpt lat="45.88745" lon="2.98129">
        <ele>784.2</ele>
        <time>2025-08-07T13:27:03Z</time>
      </trkpt>
      <trkpt lat="45.88745" lon="2.98135">
        <ele>784</ele>
        <time>2025-08-07T13:27:04Z</time>
      </trkpt>
      <trkpt lat="45.88745" lon="2.98141">
        <ele>783.8</ele>
        <time>2025-08-07T13:27:05Z</time>
      </trkpt>
      <trkpt lat="45.88745" lon="2.98147">
        <ele>783.6</ele>
        <time>2025-08-07T13:27:06Z</time>
      </trkpt>
      <trkpt lat="45.88746" lon="2.98152">
        <ele>783.4</ele>
        <time>2025-08-07T13:27:07Z</time>
      </trkpt>
      <trkpt lat="45.88748" lon="2.98157">
        <ele>783.2</ele>
        <time>2025-08-07T13:27:08Z</time>
      </trkpt>
      <trkpt lat="45.88751" lon="2.98162">
        <ele>783</ele>
        <time>2025-08-07T13:27:09Z</time>
      </trkpt>
      <trkpt lat="45.88754" lon="2.98166">
        <ele>782.8</ele>
        <time>2025-08-07T13:27:10Z</time>
      </trkpt>
      <trkpt lat="45.88759" lon="2.9817">
        <ele>782.6</ele>
        <time>2025-08-07T13:27:11Z</time>
      </trkpt>
      <trkpt lat="45.88762" lon="2.98174">
        <ele>782.4</ele>
        <time>2025-08-07T13:27:12Z</time>
      </trkpt>
      <trkpt lat="45.88766" lon="2.98178">
        <ele>782</ele>
        <time>2025-08-07T13:27:13Z</time>
      </trkpt>
      <trkpt lat="45.8877" lon="2.98183">
        <ele>781.6</ele>
        <time>2025-08-07T13:27:14Z</time>
      </trkpt>
      <trkpt lat="45.88773" lon="2.98188">
        <ele>781</ele>
        <time>2025-08-07T13:27:15Z</time>
      </trkpt>
      <trkpt lat="45.88777" lon="2.98194">
        <ele>780.4</ele>
        <time>2025-08-07T13:27:16Z</time>
      </trkpt>
      <trkpt lat="45.88779" lon="2.98201">
        <ele>779.8</ele>
        <time>2025-08-07T13:27:17Z</time>
      </trkpt>
      <trkpt lat="45.88782" lon="2.98207">
        <ele>779</ele>
        <time>2025-08-07T13:27:18Z</time>
      </trkpt>
      <trkpt lat="45.88783" lon="2.98213">
        <ele>778.4</ele>
        <time>2025-08-07T13:27:19Z</time>
      </trkpt>
      <trkpt lat="45.88785" lon="2.98219">
        <ele>777.8</ele>
        <time>2025-08-07T13:27:20Z</time>
      </trkpt>
      <trkpt lat="45.88785" lon="2.98224">
        <ele>777.2</ele>
        <time>2025-08-07T13:27:21Z</time>
      </trkpt>
      <trkpt lat="45.88786" lon="2.98228">
        <ele>776.6</ele>
        <time>2025-08-07T13:27:22Z</time>
      </trkpt>
      <trkpt lat="45.88787" lon="2.98232">
        <ele>776.2</ele>
        <time>2025-08-07T13:27:23Z</time>
      </trkpt>
      <trkpt lat="45.8879" lon="2.98235">
        <ele>775.8</ele>
        <time>2025-08-07T13:27:24Z</time>
      </trkpt>
      <trkpt lat="45.88792" lon="2.98237">
        <ele>775.4</ele>
        <time>2025-08-07T13:27:25Z</time>
      </trkpt>
      <trkpt lat="45.88796" lon="2.98239">
        <ele>775.2</ele>
        <time>2025-08-07T13:27:26Z</time>
      </trkpt>
      <trkpt lat="45.88802" lon="2.9824">
        <ele>775.2</ele>
        <time>2025-08-07T13:27:27Z</time>
      </trkpt>
      <trkpt lat="45.88807" lon="2.98239">
        <ele>775.2</ele>
        <time>2025-08-07T13:27:28Z</time>
      </trkpt>
      <trkpt lat="45.88812" lon="2.98238">
        <ele>775.4</ele>
        <time>2025-08-07T13:27:29Z</time>
      </trkpt>
      <trkpt lat="45.88815" lon="2.98237">
        <ele>775.4</ele>
        <time>2025-08-07T13:27:30Z</time>
      </trkpt>
      <trkpt lat="45.88819" lon="2.98236">
        <ele>775.6</ele>
        <time>2025-08-07T13:27:31Z</time>
      </trkpt>
      <trkpt lat="45.88823" lon="2.98235">
        <ele>775.8</ele>
        <time>2025-08-07T13:27:32Z</time>
      </trkpt>
      <trkpt lat="45.88828" lon="2.98233">
        <ele>776</ele>
        <time>2025-08-07T13:27:33Z</time>
      </trkpt>
      <trkpt lat="45.88832" lon="2.98228">
        <ele>776.2</ele>
        <time>2025-08-07T13:27:34Z</time>
      </trkpt>
      <trkpt lat="45.88837" lon="2.98223">
        <ele>776.4</ele>
        <time>2025-08-07T13:27:35Z</time>
      </trkpt>
      <trkpt lat="45.88841" lon="2.98217">
        <ele>776.8</ele>
        <time>2025-08-07T13:27:36Z</time>
      </trkpt>
      <trkpt lat="45.88844" lon="2.98212">
        <ele>777</ele>
        <time>2025-08-07T13:27:37Z</time>
      </trkpt>
      <trkpt lat="45.88846" lon="2.98207">
        <ele>777.2</ele>
        <time>2025-08-07T13:27:38Z</time>
      </trkpt>
      <trkpt lat="45.88848" lon="2.98202">
        <ele>777.4</ele>
        <time>2025-08-07T13:27:39Z</time>
      </trkpt>
      <trkpt lat="45.8885" lon="2.98198">
        <ele>777.6</ele>
        <time>2025-08-07T13:27:40Z</time>
      </trkpt>
      <trkpt lat="45.88852" lon="2.98194">
        <ele>778</ele>
        <time>2025-08-07T13:27:41Z</time>
      </trkpt>
      <trkpt lat="45.88854" lon="2.98191">
        <ele>778.2</ele>
        <time>2025-08-07T13:27:42Z</time>
      </trkpt>
      <trkpt lat="45.88856" lon="2.98187">
        <ele>778.4</ele>
        <time>2025-08-07T13:27:43Z</time>
      </trkpt>
      <trkpt lat="45.8886" lon="2.98183">
        <ele>778.8</ele>
        <time>2025-08-07T13:27:44Z</time>
      </trkpt>
      <trkpt lat="45.88863" lon="2.98178">
        <ele>779.2</ele>
        <time>2025-08-07T13:27:45Z</time>
      </trkpt>
      <trkpt lat="45.88866" lon="2.98175">
        <ele>779.4</ele>
        <time>2025-08-07T13:27:46Z</time>
      </trkpt>
      <trkpt lat="45.88869" lon="2.9817">
        <ele>779.8</ele>
        <time>2025-08-07T13:27:47Z</time>
      </trkpt>
      <trkpt lat="45.88871" lon="2.98166">
        <ele>780</ele>
        <time>2025-08-07T13:27:48Z</time>
      </trkpt>
      <trkpt lat="45.88873" lon="2.98161">
        <ele>780.2</ele>
        <time>2025-08-07T13:27:49Z</time>
      </trkpt>
      <trkpt lat="45.88876" lon="2.98157">
        <ele>780.4</ele>
        <time>2025-08-07T13:27:50Z</time>
      </trkpt>
      <trkpt lat="45.88877" lon="2.98154">
        <ele>780.6</ele>
        <time>2025-08-07T13:27:51Z</time>
      </trkpt>
      <trkpt lat="45.8888" lon="2.9815">
        <ele>780.6</ele>
        <time>2025-08-07T13:27:52Z</time>
      </trkpt>
      <trkpt lat="45.88882" lon="2.98146">
        <ele>780.8</ele>
        <time>2025-08-07T13:27:53Z</time>
      </trkpt>
      <trkpt lat="45.88884" lon="2.98143">
        <ele>781</ele>
        <time>2025-08-07T13:27:54Z</time>
      </trkpt>
      <trkpt lat="45.88886" lon="2.98141">
        <ele>781</ele>
        <time>2025-08-07T13:27:55Z</time>
      </trkpt>
      <trkpt lat="45.88889" lon="2.98139">
        <ele>781.2</ele>
        <time>2025-08-07T13:27:56Z</time>
      </trkpt>
      <trkpt lat="45.88892" lon="2.98137">
        <ele>781.2</ele>
        <time>2025-08-07T13:27:57Z</time>
      </trkpt>
      <trkpt lat="45.88896" lon="2.98133">
        <ele>781.4</ele>
        <time>2025-08-07T13:27:58Z</time>
      </trkpt>
      <trkpt lat="45.88902" lon="2.9813">
        <ele>781.4</ele>
        <time>2025-08-07T13:27:59Z</time>
      </trkpt>
      <trkpt lat="45.88907" lon="2.98126">
        <ele>781.6</ele>
        <time>2025-08-07T13:28:00Z</time>
      </trkpt>
      <trkpt lat="45.88912" lon="2.98121">
        <ele>781.6</ele>
        <time>2025-08-07T13:28:01Z</time>
      </trkpt>
      <trkpt lat="45.88913" lon="2.98115">
        <ele>781.8</ele>
        <time>2025-08-07T13:28:02Z</time>
      </trkpt>
      <trkpt lat="45.88912" lon="2.98109">
        <ele>781.8</ele>
        <time>2025-08-07T13:28:03Z</time>
      </trkpt>
      <trkpt lat="45.88914" lon="2.98102">
        <ele>782</ele>
        <time>2025-08-07T13:28:04Z</time>
      </trkpt>
      <trkpt lat="45.88915" lon="2.98096">
        <ele>782</ele>
        <time>2025-08-07T13:28:05Z</time>
      </trkpt>
      <trkpt lat="45.88917" lon="2.98091">
        <ele>782</ele>
        <time>2025-08-07T13:28:06Z</time>
      </trkpt>
      <trkpt lat="45.88919" lon="2.98085">
        <ele>782</ele>
        <time>2025-08-07T13:28:07Z</time>
      </trkpt>
      <trkpt lat="45.88922" lon="2.98078">
        <ele>782</ele>
        <time>2025-08-07T13:28:08Z</time>
      </trkpt>
      <trkpt lat="45.88925" lon="2.98071">
        <ele>782</ele>
        <time>2025-08-07T13:28:09Z</time>
      </trkpt>
      <trkpt lat="45.88925" lon="2.98062">
        <ele>782</ele>
        <time>2025-08-07T13:28:10Z</time>
      </trkpt>
      <trkpt lat="45.88923" lon="2.98054">
        <ele>782</ele>
        <time>2025-08-07T13:28:11Z</time>
      </trkpt>
      <trkpt lat="45.88921" lon="2.98045">
        <ele>782</ele>
        <time>2025-08-07T13:28:12Z</time>
      </trkpt>
      <trkpt lat="45.88922" lon="2.98038">
        <ele>782</ele>
        <time>2025-08-07T13:28:13Z</time>
      </trkpt>
      <trkpt lat="45.88924" lon="2.98031">
        <ele>782</ele>
        <time>2025-08-07T13:28:14Z</time>
      </trkpt>
      <trkpt lat="45.88925" lon="2.98024">
        <ele>782</ele>
        <time>2025-08-07T13:28:15Z</time>
      </trkpt>
      <trkpt lat="45.88929" lon="2.98016">
        <ele>782</ele>
        <time>2025-08-07T13:28:16Z</time>
      </trkpt>
      <trkpt lat="45.8893" lon="2.98008">
        <ele>782</ele>
        <time>2025-08-07T13:28:17Z</time>
      </trkpt>
      <trkpt lat="45.88931" lon="2.97999">
        <ele>782</ele>
        <time>2025-08-07T13:28:18Z</time>
      </trkpt>
      <trkpt lat="45.88932" lon="2.9799">
        <ele>782</ele>
        <time>2025-08-07T13:28:19Z</time>
      </trkpt>
      <trkpt lat="45.88932" lon="2.97981">
        <ele>782</ele>
        <time>2025-08-07T13:28:20Z</time>
      </trkpt>
      <trkpt lat="45.88933" lon="2.97973">
        <ele>782</ele>
        <time>2025-08-07T13:28:21Z</time>
      </trkpt>
      <trkpt lat="45.88934" lon="2.97966">
        <ele>782</ele>
        <time>2025-08-07T13:28:22Z</time>
      </trkpt>
      <trkpt lat="45.88934" lon="2.97959">
        <ele>782</ele>
        <time>2025-08-07T13:28:23Z</time>
      </trkpt>
      <trkpt lat="45.88935" lon="2.97951">
        <ele>782.2</ele>
        <time>2025-08-07T13:28:24Z</time>
      </trkpt>
      <trkpt lat="45.88935" lon="2.97943">
        <ele>782.2</ele>
        <time>2025-08-07T13:28:25Z</time>
      </trkpt>
      <trkpt lat="45.88936" lon="2.97936">
        <ele>782.2</ele>
        <time>2025-08-07T13:28:26Z</time>
      </trkpt>
      <trkpt lat="45.88937" lon="2.97929">
        <ele>782.2</ele>
        <time>2025-08-07T13:28:27Z</time>
      </trkpt>
      <trkpt lat="45.88937" lon="2.97921">
        <ele>782.4</ele>
        <time>2025-08-07T13:28:28Z</time>
      </trkpt>
      <trkpt lat="45.88937" lon="2.97913">
        <ele>782.4</ele>
        <time>2025-08-07T13:28:29Z</time>
      </trkpt>
      <trkpt lat="45.88938" lon="2.97906">
        <ele>782.4</ele>
        <time>2025-08-07T13:28:30Z</time>
      </trkpt>
      <trkpt lat="45.88938" lon="2.97898">
        <ele>782.6</ele>
        <time>2025-08-07T13:28:31Z</time>
      </trkpt>
      <trkpt lat="45.88938" lon="2.9789">
        <ele>782.8</ele>
        <time>2025-08-07T13:28:32Z</time>
      </trkpt>
      <trkpt lat="45.88939" lon="2.97883">
        <ele>782.8</ele>
        <time>2025-08-07T13:28:33Z</time>
      </trkpt>
      <trkpt lat="45.8894" lon="2.97875">
        <ele>782.8</ele>
        <time>2025-08-07T13:28:34Z</time>
      </trkpt>
      <trkpt lat="45.8894" lon="2.97868">
        <ele>782.8</ele>
        <time>2025-08-07T13:28:35Z</time>
      </trkpt>
      <trkpt lat="45.88941" lon="2.97861">
        <ele>783</ele>
        <time>2025-08-07T13:28:36Z</time>
      </trkpt>
      <trkpt lat="45.88943" lon="2.97854">
        <ele>783</ele>
        <time>2025-08-07T13:28:37Z</time>
      </trkpt>
      <trkpt lat="45.88944" lon="2.97846">
        <ele>783</ele>
        <time>2025-08-07T13:28:38Z</time>
      </trkpt>
      <trkpt lat="45.88946" lon="2.97839">
        <ele>783.2</ele>
        <time>2025-08-07T13:28:39Z</time>
      </trkpt>
      <trkpt lat="45.88948" lon="2.97832">
        <ele>783.2</ele>
        <time>2025-08-07T13:28:40Z</time>
      </trkpt>
      <trkpt lat="45.8895" lon="2.97824">
        <ele>783.2</ele>
        <time>2025-08-07T13:28:41Z</time>
      </trkpt>
      <trkpt lat="45.88952" lon="2.97817">
        <ele>783.4</ele>
        <time>2025-08-07T13:28:42Z</time>
      </trkpt>
      <trkpt lat="45.88954" lon="2.97809">
        <ele>783.6</ele>
        <time>2025-08-07T13:28:43Z</time>
      </trkpt>
      <trkpt lat="45.88956" lon="2.97802">
        <ele>783.6</ele>
        <time>2025-08-07T13:28:44Z</time>
      </trkpt>
      <trkpt lat="45.88958" lon="2.97795">
        <ele>783.8</ele>
        <time>2025-08-07T13:28:45Z</time>
      </trkpt>
      <trkpt lat="45.88959" lon="2.97788">
        <ele>783.8</ele>
        <time>2025-08-07T13:28:46Z</time>
      </trkpt>
      <trkpt lat="45.88961" lon="2.9778">
        <ele>783.8</ele>
        <time>2025-08-07T13:28:47Z</time>
      </trkpt>
      <trkpt lat="45.88962" lon="2.97773">
        <ele>783.8</ele>
        <time>2025-08-07T13:28:48Z</time>
      </trkpt>
      <trkpt lat="45.88963" lon="2.97765">
        <ele>784</ele>
        <time>2025-08-07T13:28:49Z</time>
      </trkpt>
      <trkpt lat="45.88964" lon="2.97757">
        <ele>784</ele>
        <time>2025-08-07T13:28:50Z</time>
      </trkpt>
      <trkpt lat="45.88965" lon="2.97749">
        <ele>784</ele>
        <time>2025-08-07T13:28:51Z</time>
      </trkpt>
      <trkpt lat="45.88966" lon="2.97741">
        <ele>784</ele>
        <time>2025-08-07T13:28:52Z</time>
      </trkpt>
      <trkpt lat="45.88967" lon="2.97733">
        <ele>784</ele>
        <time>2025-08-07T13:28:53Z</time>
      </trkpt>
      <trkpt lat="45.88968" lon="2.97725">
        <ele>784</ele>
        <time>2025-08-07T13:28:54Z</time>
      </trkpt>
      <trkpt lat="45.88969" lon="2.97717">
        <ele>784</ele>
        <time>2025-08-07T13:28:55Z</time>
      </trkpt>
      <trkpt lat="45.8897" lon="2.97709">
        <ele>784</ele>
        <time>2025-08-07T13:28:56Z</time>
      </trkpt>
      <trkpt lat="45.88971" lon="2.97701">
        <ele>784</ele>
        <time>2025-08-07T13:28:57Z</time>
      </trkpt>
      <trkpt lat="45.88973" lon="2.97694">
        <ele>783.8</ele>
        <time>2025-08-07T13:28:58Z</time>
      </trkpt>
      <trkpt lat="45.88974" lon="2.97686">
        <ele>783.8</ele>
        <time>2025-08-07T13:28:59Z</time>
      </trkpt>
      <trkpt lat="45.88974" lon="2.97677">
        <ele>783.8</ele>
        <time>2025-08-07T13:29:00Z</time>
      </trkpt>
      <trkpt lat="45.88975" lon="2.97669">
        <ele>783.6</ele>
        <time>2025-08-07T13:29:01Z</time>
      </trkpt>
      <trkpt lat="45.88976" lon="2.97661">
        <ele>783.6</ele>
        <time>2025-08-07T13:29:02Z</time>
      </trkpt>
      <trkpt lat="45.88977" lon="2.97653">
        <ele>783.6</ele>
        <time>2025-08-07T13:29:03Z</time>
      </trkpt>
      <trkpt lat="45.88979" lon="2.97646">
        <ele>783.6</ele>
        <time>2025-08-07T13:29:04Z</time>
      </trkpt>
      <trkpt lat="45.88981" lon="2.97639">
        <ele>783.6</ele>
        <time>2025-08-07T13:29:05Z</time>
      </trkpt>
      <trkpt lat="45.88984" lon="2.97632">
        <ele>783.6</ele>
        <time>2025-08-07T13:29:06Z</time>
      </trkpt>
      <trkpt lat="45.88986" lon="2.97625">
        <ele>783.6</ele>
        <time>2025-08-07T13:29:07Z</time>
      </trkpt>
      <trkpt lat="45.88988" lon="2.97618">
        <ele>783.6</ele>
        <time>2025-08-07T13:29:08Z</time>
      </trkpt>
      <trkpt lat="45.8899" lon="2.97611">
        <ele>783.6</ele>
        <time>2025-08-07T13:29:09Z</time>
      </trkpt>
      <trkpt lat="45.88992" lon="2.97603">
        <ele>783.6</ele>
        <time>2025-08-07T13:29:10Z</time>
      </trkpt>
      <trkpt lat="45.88995" lon="2.97596">
        <ele>783.6</ele>
        <time>2025-08-07T13:29:11Z</time>
      </trkpt>
      <trkpt lat="45.88997" lon="2.97588">
        <ele>783.6</ele>
        <time>2025-08-07T13:29:12Z</time>
      </trkpt>
      <trkpt lat="45.89" lon="2.97581">
        <ele>783.8</ele>
        <time>2025-08-07T13:29:13Z</time>
      </trkpt>
      <trkpt lat="45.89002" lon="2.97574">
        <ele>783.8</ele>
        <time>2025-08-07T13:29:14Z</time>
      </trkpt>
      <trkpt lat="45.89004" lon="2.97567">
        <ele>784</ele>
        <time>2025-08-07T13:29:15Z</time>
      </trkpt>
      <trkpt lat="45.89007" lon="2.9756">
        <ele>784</ele>
        <time>2025-08-07T13:29:16Z</time>
      </trkpt>
      <trkpt lat="45.8901" lon="2.97553">
        <ele>784</ele>
        <time>2025-08-07T13:29:17Z</time>
      </trkpt>
      <trkpt lat="45.89012" lon="2.97546">
        <ele>784</ele>
        <time>2025-08-07T13:29:18Z</time>
      </trkpt>
      <trkpt lat="45.89014" lon="2.97538">
        <ele>784</ele>
        <time>2025-08-07T13:29:19Z</time>
      </trkpt>
      <trkpt lat="45.89015" lon="2.9753">
        <ele>784</ele>
        <time>2025-08-07T13:29:20Z</time>
      </trkpt>
      <trkpt lat="45.89017" lon="2.97523">
        <ele>784</ele>
        <time>2025-08-07T13:29:21Z</time>
      </trkpt>
      <trkpt lat="45.8902" lon="2.97517">
        <ele>784</ele>
        <time>2025-08-07T13:29:22Z</time>
      </trkpt>
      <trkpt lat="45.89022" lon="2.9751">
        <ele>784</ele>
        <time>2025-08-07T13:29:23Z</time>
      </trkpt>
      <trkpt lat="45.89023" lon="2.97503">
        <ele>784</ele>
        <time>2025-08-07T13:29:24Z</time>
      </trkpt>
      <trkpt lat="45.89025" lon="2.97495">
        <ele>784.2</ele>
        <time>2025-08-07T13:29:25Z</time>
      </trkpt>
      <trkpt lat="45.89027" lon="2.97487">
        <ele>784.2</ele>
        <time>2025-08-07T13:29:26Z</time>
      </trkpt>
      <trkpt lat="45.89029" lon="2.9748">
        <ele>784.2</ele>
        <time>2025-08-07T13:29:27Z</time>
      </trkpt>
      <trkpt lat="45.89032" lon="2.97473">
        <ele>784.2</ele>
        <time>2025-08-07T13:29:28Z</time>
      </trkpt>
      <trkpt lat="45.89034" lon="2.97465">
        <ele>784</ele>
        <time>2025-08-07T13:29:29Z</time>
      </trkpt>
      <trkpt lat="45.89036" lon="2.97457">
        <ele>784</ele>
        <time>2025-08-07T13:29:30Z</time>
      </trkpt>
      <trkpt lat="45.89038" lon="2.97448">
        <ele>783.8</ele>
        <time>2025-08-07T13:29:31Z</time>
      </trkpt>
      <trkpt lat="45.89039" lon="2.9744">
        <ele>783.8</ele>
        <time>2025-08-07T13:29:32Z</time>
      </trkpt>
      <trkpt lat="45.89042" lon="2.97432">
        <ele>783.8</ele>
        <time>2025-08-07T13:29:33Z</time>
      </trkpt>
      <trkpt lat="45.89044" lon="2.97424">
        <ele>783.8</ele>
        <time>2025-08-07T13:29:34Z</time>
      </trkpt>
      <trkpt lat="45.89047" lon="2.97417">
        <ele>783.6</ele>
        <time>2025-08-07T13:29:35Z</time>
      </trkpt>
      <trkpt lat="45.8905" lon="2.9741">
        <ele>783.6</ele>
        <time>2025-08-07T13:29:36Z</time>
      </trkpt>
      <trkpt lat="45.89054" lon="2.97404">
        <ele>783.6</ele>
        <time>2025-08-07T13:29:37Z</time>
      </trkpt>
      <trkpt lat="45.89058" lon="2.97398">
        <ele>783.4</ele>
        <time>2025-08-07T13:29:38Z</time>
      </trkpt>
      <trkpt lat="45.89063" lon="2.97392">
        <ele>783.4</ele>
        <time>2025-08-07T13:29:39Z</time>
      </trkpt>
      <trkpt lat="45.89068" lon="2.97387">
        <ele>783.4</ele>
        <time>2025-08-07T13:29:40Z</time>
      </trkpt>
      <trkpt lat="45.89072" lon="2.97382">
        <ele>783.4</ele>
        <time>2025-08-07T13:29:41Z</time>
      </trkpt>
      <trkpt lat="45.89076" lon="2.97376">
        <ele>783.4</ele>
        <time>2025-08-07T13:29:42Z</time>
      </trkpt>
      <trkpt lat="45.89081" lon="2.97371">
        <ele>783.6</ele>
        <time>2025-08-07T13:29:43Z</time>
      </trkpt>
      <trkpt lat="45.89084" lon="2.97367">
        <ele>783.6</ele>
        <time>2025-08-07T13:29:44Z</time>
      </trkpt>
      <trkpt lat="45.89088" lon="2.97362">
        <ele>783.6</ele>
        <time>2025-08-07T13:29:45Z</time>
      </trkpt>
      <trkpt lat="45.89092" lon="2.97357">
        <ele>783.8</ele>
        <time>2025-08-07T13:29:46Z</time>
      </trkpt>
      <trkpt lat="45.89095" lon="2.97353">
        <ele>783.8</ele>
        <time>2025-08-07T13:29:47Z</time>
      </trkpt>
      <trkpt lat="45.89099" lon="2.97349">
        <ele>784</ele>
        <time>2025-08-07T13:29:48Z</time>
      </trkpt>
      <trkpt lat="45.89103" lon="2.97346">
        <ele>784.2</ele>
        <time>2025-08-07T13:29:49Z</time>
      </trkpt>
      <trkpt lat="45.89107" lon="2.97343">
        <ele>784.4</ele>
        <time>2025-08-07T13:29:50Z</time>
      </trkpt>
      <trkpt lat="45.89111" lon="2.97339">
        <ele>784.6</ele>
        <time>2025-08-07T13:29:51Z</time>
      </trkpt>
      <trkpt lat="45.89115" lon="2.97335">
        <ele>784.8</ele>
        <time>2025-08-07T13:29:52Z</time>
      </trkpt>
      <trkpt lat="45.8912" lon="2.97331">
        <ele>785.2</ele>
        <time>2025-08-07T13:29:53Z</time>
      </trkpt>
      <trkpt lat="45.89124" lon="2.97327">
        <ele>785.6</ele>
        <time>2025-08-07T13:29:54Z</time>
      </trkpt>
      <trkpt lat="45.89127" lon="2.97324">
        <ele>786</ele>
        <time>2025-08-07T13:29:55Z</time>
      </trkpt>
      <trkpt lat="45.8913" lon="2.9732">
        <ele>786.4</ele>
        <time>2025-08-07T13:29:56Z</time>
      </trkpt>
      <trkpt lat="45.89133" lon="2.97317">
        <ele>786.6</ele>
        <time>2025-08-07T13:29:57Z</time>
      </trkpt>
      <trkpt lat="45.89136" lon="2.97314">
        <ele>787</ele>
        <time>2025-08-07T13:29:58Z</time>
      </trkpt>
      <trkpt lat="45.89139" lon="2.97311">
        <ele>787.4</ele>
        <time>2025-08-07T13:29:59Z</time>
      </trkpt>
      <trkpt lat="45.89143" lon="2.97308">
        <ele>787.8</ele>
        <time>2025-08-07T13:30:00Z</time>
      </trkpt>
      <trkpt lat="45.89146" lon="2.97305">
        <ele>788.2</ele>
        <time>2025-08-07T13:30:01Z</time>
      </trkpt>
      <trkpt lat="45.89149" lon="2.97302">
        <ele>788.4</ele>
        <time>2025-08-07T13:30:02Z</time>
      </trkpt>
      <trkpt lat="45.89152" lon="2.97299">
        <ele>788.6</ele>
        <time>2025-08-07T13:30:03Z</time>
      </trkpt>
      <trkpt lat="45.89156" lon="2.97296">
        <ele>789</ele>
        <time>2025-08-07T13:30:04Z</time>
      </trkpt>
      <trkpt lat="45.8916" lon="2.97293">
        <ele>789.4</ele>
        <time>2025-08-07T13:30:05Z</time>
      </trkpt>
      <trkpt lat="45.89163" lon="2.97289">
        <ele>789.8</ele>
        <time>2025-08-07T13:30:06Z</time>
      </trkpt>
      <trkpt lat="45.89166" lon="2.97285">
        <ele>790</ele>
        <time>2025-08-07T13:30:07Z</time>
      </trkpt>
      <trkpt lat="45.89169" lon="2.97282">
        <ele>790.4</ele>
        <time>2025-08-07T13:30:08Z</time>
      </trkpt>
      <trkpt lat="45.89172" lon="2.97279">
        <ele>790.6</ele>
        <time>2025-08-07T13:30:09Z</time>
      </trkpt>
      <trkpt lat="45.89176" lon="2.97275">
        <ele>790.8</ele>
        <time>2025-08-07T13:30:10Z</time>
      </trkpt>
      <trkpt lat="45.89179" lon="2.97272">
        <ele>791.2</ele>
        <time>2025-08-07T13:30:11Z</time>
      </trkpt>
      <trkpt lat="45.89181" lon="2.97269">
        <ele>791.2</ele>
        <time>2025-08-07T13:30:12Z</time>
      </trkpt>
      <trkpt lat="45.89185" lon="2.97268">
        <ele>791.4</ele>
        <time>2025-08-07T13:30:13Z</time>
      </trkpt>
      <trkpt lat="45.89189" lon="2.97265">
        <ele>791.6</ele>
        <time>2025-08-07T13:30:14Z</time>
      </trkpt>
      <trkpt lat="45.89192" lon="2.97263">
        <ele>791.8</ele>
        <time>2025-08-07T13:30:15Z</time>
      </trkpt>
      <trkpt lat="45.89196" lon="2.9726">
        <ele>792.2</ele>
        <time>2025-08-07T13:30:16Z</time>
      </trkpt>
      <trkpt lat="45.89199" lon="2.97256">
        <ele>792.4</ele>
        <time>2025-08-07T13:30:17Z</time>
      </trkpt>
      <trkpt lat="45.89201" lon="2.97253">
        <ele>792.6</ele>
        <time>2025-08-07T13:30:18Z</time>
      </trkpt>
      <trkpt lat="45.89203" lon="2.9725">
        <ele>792.8</ele>
        <time>2025-08-07T13:30:19Z</time>
      </trkpt>
      <trkpt lat="45.89205" lon="2.97246">
        <ele>793</ele>
        <time>2025-08-07T13:30:20Z</time>
      </trkpt>
      <trkpt lat="45.89208" lon="2.97243">
        <ele>793.2</ele>
        <time>2025-08-07T13:30:21Z</time>
      </trkpt>
      <trkpt lat="45.89211" lon="2.9724">
        <ele>793.4</ele>
        <time>2025-08-07T13:30:22Z</time>
      </trkpt>
      <trkpt lat="45.89215" lon="2.97236">
        <ele>793.6</ele>
        <time>2025-08-07T13:30:23Z</time>
      </trkpt>
      <trkpt lat="45.89219" lon="2.97232">
        <ele>793.8</ele>
        <time>2025-08-07T13:30:24Z</time>
      </trkpt>
      <trkpt lat="45.89222" lon="2.97229">
        <ele>793.8</ele>
        <time>2025-08-07T13:30:25Z</time>
      </trkpt>
      <trkpt lat="45.89226" lon="2.97225">
        <ele>794</ele>
        <time>2025-08-07T13:30:26Z</time>
      </trkpt>
      <trkpt lat="45.89229" lon="2.97222">
        <ele>794.2</ele>
        <time>2025-08-07T13:30:27Z</time>
      </trkpt>
      <trkpt lat="45.89233" lon="2.97218">
        <ele>794.4</ele>
        <time>2025-08-07T13:30:28Z</time>
      </trkpt>
      <trkpt lat="45.89236" lon="2.97216">
        <ele>794.6</ele>
        <time>2025-08-07T13:30:29Z</time>
      </trkpt>
      <trkpt lat="45.8924" lon="2.97212">
        <ele>794.6</ele>
        <time>2025-08-07T13:30:30Z</time>
      </trkpt>
      <trkpt lat="45.89243" lon="2.97209">
        <ele>794.8</ele>
        <time>2025-08-07T13:30:31Z</time>
      </trkpt>
      <trkpt lat="45.89246" lon="2.97206">
        <ele>795</ele>
        <time>2025-08-07T13:30:32Z</time>
      </trkpt>
      <trkpt lat="45.8925" lon="2.97202">
        <ele>795.2</ele>
        <time>2025-08-07T13:30:33Z</time>
      </trkpt>
      <trkpt lat="45.89253" lon="2.97199">
        <ele>795.4</ele>
        <time>2025-08-07T13:30:34Z</time>
      </trkpt>
      <trkpt lat="45.89257" lon="2.97196">
        <ele>795.4</ele>
        <time>2025-08-07T13:30:35Z</time>
      </trkpt>
      <trkpt lat="45.8926" lon="2.97193">
        <ele>795.6</ele>
        <time>2025-08-07T13:30:36Z</time>
      </trkpt>
      <trkpt lat="45.89263" lon="2.9719">
        <ele>795.8</ele>
        <time>2025-08-07T13:30:37Z</time>
      </trkpt>
      <trkpt lat="45.89266" lon="2.97187">
        <ele>795.8</ele>
        <time>2025-08-07T13:30:38Z</time>
      </trkpt>
      <trkpt lat="45.89269" lon="2.97183">
        <ele>796</ele>
        <time>2025-08-07T13:30:39Z</time>
      </trkpt>
      <trkpt lat="45.89273" lon="2.9718">
        <ele>796.2</ele>
        <time>2025-08-07T13:30:40Z</time>
      </trkpt>
      <trkpt lat="45.89276" lon="2.97176">
        <ele>796.4</ele>
        <time>2025-08-07T13:30:41Z</time>
      </trkpt>
      <trkpt lat="45.8928" lon="2.97173">
        <ele>796.4</ele>
        <time>2025-08-07T13:30:42Z</time>
      </trkpt>
      <trkpt lat="45.89284" lon="2.9717">
        <ele>796.6</ele>
        <time>2025-08-07T13:30:43Z</time>
      </trkpt>
      <trkpt lat="45.89288" lon="2.97167">
        <ele>796.6</ele>
        <time>2025-08-07T13:30:44Z</time>
      </trkpt>
      <trkpt lat="45.89291" lon="2.97164">
        <ele>796.8</ele>
        <time>2025-08-07T13:30:45Z</time>
      </trkpt>
      <trkpt lat="45.89293" lon="2.9716">
        <ele>796.8</ele>
        <time>2025-08-07T13:30:46Z</time>
      </trkpt>
      <trkpt lat="45.89297" lon="2.97157">
        <ele>797</ele>
        <time>2025-08-07T13:30:47Z</time>
      </trkpt>
      <trkpt lat="45.893" lon="2.97153">
        <ele>797</ele>
        <time>2025-08-07T13:30:48Z</time>
      </trkpt>
      <trkpt lat="45.89303" lon="2.9715">
        <ele>797.2</ele>
        <time>2025-08-07T13:30:49Z</time>
      </trkpt>
      <trkpt lat="45.89306" lon="2.97147">
        <ele>797.4</ele>
        <time>2025-08-07T13:30:50Z</time>
      </trkpt>
      <trkpt lat="45.89309" lon="2.97143">
        <ele>797.4</ele>
        <time>2025-08-07T13:30:51Z</time>
      </trkpt>
      <trkpt lat="45.89312" lon="2.97139">
        <ele>797.4</ele>
        <time>2025-08-07T13:30:52Z</time>
      </trkpt>
      <trkpt lat="45.89315" lon="2.97135">
        <ele>797.6</ele>
        <time>2025-08-07T13:30:53Z</time>
      </trkpt>
      <trkpt lat="45.89319" lon="2.97132">
        <ele>797.6</ele>
        <time>2025-08-07T13:30:54Z</time>
      </trkpt>
      <trkpt lat="45.89322" lon="2.97128">
        <ele>797.6</ele>
        <time>2025-08-07T13:30:55Z</time>
      </trkpt>
      <trkpt lat="45.89325" lon="2.97124">
        <ele>797.6</ele>
        <time>2025-08-07T13:30:56Z</time>
      </trkpt>
      <trkpt lat="45.89329" lon="2.9712">
        <ele>797.8</ele>
        <time>2025-08-07T13:30:57Z</time>
      </trkpt>
      <trkpt lat="45.89332" lon="2.97116">
        <ele>797.8</ele>
        <time>2025-08-07T13:30:58Z</time>
      </trkpt>
      <trkpt lat="45.89336" lon="2.97112">
        <ele>797.8</ele>
        <time>2025-08-07T13:30:59Z</time>
      </trkpt>
      <trkpt lat="45.89339" lon="2.97109">
        <ele>798</ele>
        <time>2025-08-07T13:31:00Z</time>
      </trkpt>
      <trkpt lat="45.89343" lon="2.97105">
        <ele>798</ele>
        <time>2025-08-07T13:31:01Z</time>
      </trkpt>
      <trkpt lat="45.89347" lon="2.97101">
        <ele>798</ele>
        <time>2025-08-07T13:31:02Z</time>
      </trkpt>
      <trkpt lat="45.89349" lon="2.97096">
        <ele>798</ele>
        <time>2025-08-07T13:31:03Z</time>
      </trkpt>
      <trkpt lat="45.89351" lon="2.9709">
        <ele>798</ele>
        <time>2025-08-07T13:31:04Z</time>
      </trkpt>
      <trkpt lat="45.89352" lon="2.97083">
        <ele>798</ele>
        <time>2025-08-07T13:31:05Z</time>
      </trkpt>
      <trkpt lat="45.89351" lon="2.97077">
        <ele>798</ele>
        <time>2025-08-07T13:31:06Z</time>
      </trkpt>
      <trkpt lat="45.89351" lon="2.9707">
        <ele>798</ele>
        <time>2025-08-07T13:31:07Z</time>
      </trkpt>
      <trkpt lat="45.8935" lon="2.97064">
        <ele>798</ele>
        <time>2025-08-07T13:31:08Z</time>
      </trkpt>
      <trkpt lat="45.89348" lon="2.97057">
        <ele>798</ele>
        <time>2025-08-07T13:31:09Z</time>
      </trkpt>
      <trkpt lat="45.89347" lon="2.97051">
        <ele>798.2</ele>
        <time>2025-08-07T13:31:10Z</time>
      </trkpt>
      <trkpt lat="45.89345" lon="2.97044">
        <ele>798.2</ele>
        <time>2025-08-07T13:31:11Z</time>
      </trkpt>
      <trkpt lat="45.89344" lon="2.97037">
        <ele>798.2</ele>
        <time>2025-08-07T13:31:12Z</time>
      </trkpt>
      <trkpt lat="45.89343" lon="2.9703">
        <ele>798.2</ele>
        <time>2025-08-07T13:31:13Z</time>
      </trkpt>
      <trkpt lat="45.89341" lon="2.97023">
        <ele>798.2</ele>
        <time>2025-08-07T13:31:14Z</time>
      </trkpt>
      <trkpt lat="45.8934" lon="2.97016">
        <ele>798.2</ele>
        <time>2025-08-07T13:31:15Z</time>
      </trkpt>
      <trkpt lat="45.8934" lon="2.9701">
        <ele>798.2</ele>
        <time>2025-08-07T13:31:16Z</time>
      </trkpt>
      <trkpt lat="45.89339" lon="2.97003">
        <ele>798.2</ele>
        <time>2025-08-07T13:31:17Z</time>
      </trkpt>
      <trkpt lat="45.89337" lon="2.96996">
        <ele>798.4</ele>
        <time>2025-08-07T13:31:18Z</time>
      </trkpt>
      <trkpt lat="45.89336" lon="2.9699">
        <ele>798.4</ele>
        <time>2025-08-07T13:31:19Z</time>
      </trkpt>
      <trkpt lat="45.89335" lon="2.96983">
        <ele>798.4</ele>
        <time>2025-08-07T13:31:20Z</time>
      </trkpt>
      <trkpt lat="45.89334" lon="2.96977">
        <ele>798.4</ele>
        <time>2025-08-07T13:31:21Z</time>
      </trkpt>
      <trkpt lat="45.89333" lon="2.9697">
        <ele>798.4</ele>
        <time>2025-08-07T13:31:22Z</time>
      </trkpt>
      <trkpt lat="45.89332" lon="2.96963">
        <ele>798.6</ele>
        <time>2025-08-07T13:31:23Z</time>
      </trkpt>
      <trkpt lat="45.8933" lon="2.96956">
        <ele>798.6</ele>
        <time>2025-08-07T13:31:24Z</time>
      </trkpt>
      <trkpt lat="45.89329" lon="2.96948">
        <ele>798.6</ele>
        <time>2025-08-07T13:31:25Z</time>
      </trkpt>
      <trkpt lat="45.89328" lon="2.96941">
        <ele>798.6</ele>
        <time>2025-08-07T13:31:26Z</time>
      </trkpt>
      <trkpt lat="45.89327" lon="2.96934">
        <ele>798.6</ele>
        <time>2025-08-07T13:31:27Z</time>
      </trkpt>
      <trkpt lat="45.89326" lon="2.96927">
        <ele>798.8</ele>
        <time>2025-08-07T13:31:28Z</time>
      </trkpt>
      <trkpt lat="45.89325" lon="2.9692">
        <ele>798.8</ele>
        <time>2025-08-07T13:31:29Z</time>
      </trkpt>
      <trkpt lat="45.89323" lon="2.96913">
        <ele>798.8</ele>
        <time>2025-08-07T13:31:30Z</time>
      </trkpt>
      <trkpt lat="45.89321" lon="2.96906">
        <ele>798.8</ele>
        <time>2025-08-07T13:31:31Z</time>
      </trkpt>
      <trkpt lat="45.89319" lon="2.96898">
        <ele>798.8</ele>
        <time>2025-08-07T13:31:32Z</time>
      </trkpt>
      <trkpt lat="45.89318" lon="2.96891">
        <ele>798.8</ele>
        <time>2025-08-07T13:31:33Z</time>
      </trkpt>
      <trkpt lat="45.89317" lon="2.96883">
        <ele>798.8</ele>
        <time>2025-08-07T13:31:34Z</time>
      </trkpt>
      <trkpt lat="45.89315" lon="2.96876">
        <ele>798.8</ele>
        <time>2025-08-07T13:31:35Z</time>
      </trkpt>
      <trkpt lat="45.89314" lon="2.96868">
        <ele>798.6</ele>
        <time>2025-08-07T13:31:36Z</time>
      </trkpt>
      <trkpt lat="45.89312" lon="2.96861">
        <ele>798.4</ele>
        <time>2025-08-07T13:31:37Z</time>
      </trkpt>
      <trkpt lat="45.89311" lon="2.96853">
        <ele>798.4</ele>
        <time>2025-08-07T13:31:38Z</time>
      </trkpt>
      <trkpt lat="45.8931" lon="2.96846">
        <ele>798.4</ele>
        <time>2025-08-07T13:31:39Z</time>
      </trkpt>
      <trkpt lat="45.89309" lon="2.96838">
        <ele>798.2</ele>
        <time>2025-08-07T13:31:40Z</time>
      </trkpt>
      <trkpt lat="45.89308" lon="2.9683">
        <ele>798.2</ele>
        <time>2025-08-07T13:31:41Z</time>
      </trkpt>
      <trkpt lat="45.89307" lon="2.96823">
        <ele>798.2</ele>
        <time>2025-08-07T13:31:42Z</time>
      </trkpt>
      <trkpt lat="45.89307" lon="2.96815">
        <ele>798.2</ele>
        <time>2025-08-07T13:31:43Z</time>
      </trkpt>
      <trkpt lat="45.89307" lon="2.96807">
        <ele>798.2</ele>
        <time>2025-08-07T13:31:44Z</time>
      </trkpt>
      <trkpt lat="45.89307" lon="2.968">
        <ele>798</ele>
        <time>2025-08-07T13:31:45Z</time>
      </trkpt>
      <trkpt lat="45.89307" lon="2.96792">
        <ele>798</ele>
        <time>2025-08-07T13:31:46Z</time>
      </trkpt>
      <trkpt lat="45.89307" lon="2.96785">
        <ele>798</ele>
        <time>2025-08-07T13:31:47Z</time>
      </trkpt>
      <trkpt lat="45.89306" lon="2.96778">
        <ele>798</ele>
        <time>2025-08-07T13:31:48Z</time>
      </trkpt>
      <trkpt lat="45.89306" lon="2.96771">
        <ele>798</ele>
        <time>2025-08-07T13:31:49Z</time>
      </trkpt>
      <trkpt lat="45.89306" lon="2.96764">
        <ele>798</ele>
        <time>2025-08-07T13:31:50Z</time>
      </trkpt>
      <trkpt lat="45.89306" lon="2.96757">
        <ele>797.8</ele>
        <time>2025-08-07T13:31:51Z</time>
      </trkpt>
      <trkpt lat="45.89306" lon="2.9675">
        <ele>797.8</ele>
        <time>2025-08-07T13:31:52Z</time>
      </trkpt>
      <trkpt lat="45.89306" lon="2.96742">
        <ele>797.8</ele>
        <time>2025-08-07T13:31:53Z</time>
      </trkpt>
      <trkpt lat="45.89305" lon="2.96735">
        <ele>797.6</ele>
        <time>2025-08-07T13:31:54Z</time>
      </trkpt>
      <trkpt lat="45.89305" lon="2.96728">
        <ele>797.6</ele>
        <time>2025-08-07T13:31:55Z</time>
      </trkpt>
      <trkpt lat="45.89305" lon="2.96723">
        <ele>797.4</ele>
        <time>2025-08-07T13:31:56Z</time>
      </trkpt>
      <trkpt lat="45.89305" lon="2.96719">
        <ele>797.4</ele>
        <time>2025-08-07T13:31:57Z</time>
      </trkpt>
      <trkpt lat="45.89304" lon="2.96715">
        <ele>797.4</ele>
        <time>2025-08-07T13:31:58Z</time>
      </trkpt>
      <trkpt lat="45.89303" lon="2.96713">
        <ele>797.4</ele>
        <time>2025-08-07T13:31:59Z</time>
      </trkpt>
      <trkpt lat="45.89301" lon="2.96712">
        <ele>797.4</ele>
        <time>2025-08-07T13:32:00Z</time>
      </trkpt>
      <trkpt lat="45.89299" lon="2.96711">
        <ele>797.2</ele>
        <time>2025-08-07T13:32:01Z</time>
      </trkpt>
      <trkpt lat="45.89297" lon="2.9671">
        <ele>797.2</ele>
        <time>2025-08-07T13:32:02Z</time>
      </trkpt>
      <trkpt lat="45.89295" lon="2.96709">
        <ele>797.2</ele>
        <time>2025-08-07T13:32:03Z</time>
      </trkpt>
      <trkpt lat="45.89292" lon="2.96707">
        <ele>797</ele>
        <time>2025-08-07T13:32:04Z</time>
      </trkpt>
      <trkpt lat="45.89289" lon="2.96706">
        <ele>796.8</ele>
        <time>2025-08-07T13:32:05Z</time>
      </trkpt>
      <trkpt lat="45.89286" lon="2.96704">
        <ele>796.8</ele>
        <time>2025-08-07T13:32:06Z</time>
      </trkpt>
      <trkpt lat="45.89283" lon="2.96703">
        <ele>796.6</ele>
        <time>2025-08-07T13:32:07Z</time>
      </trkpt>
      <trkpt lat="45.89281" lon="2.96702">
        <ele>796.6</ele>
        <time>2025-08-07T13:32:08Z</time>
      </trkpt>
      <trkpt lat="45.89279" lon="2.96702">
        <ele>796.4</ele>
        <time>2025-08-07T13:32:09Z</time>
      </trkpt>
      <trkpt lat="45.89277" lon="2.96701">
        <ele>796.2</ele>
        <time>2025-08-07T13:32:10Z</time>
      </trkpt>
      <trkpt lat="45.89274" lon="2.96699">
        <ele>796.2</ele>
        <time>2025-08-07T13:32:11Z</time>
      </trkpt>
      <trkpt lat="45.89271" lon="2.96696">
        <ele>796</ele>
        <time>2025-08-07T13:32:12Z</time>
      </trkpt>
      <trkpt lat="45.89268" lon="2.96693">
        <ele>795.8</ele>
        <time>2025-08-07T13:32:13Z</time>
      </trkpt>
      <trkpt lat="45.89265" lon="2.96689">
        <ele>795.6</ele>
        <time>2025-08-07T13:32:14Z</time>
      </trkpt>
      <trkpt lat="45.89261" lon="2.96687">
        <ele>795.4</ele>
        <time>2025-08-07T13:32:15Z</time>
      </trkpt>
      <trkpt lat="45.89257" lon="2.96683">
        <ele>795.2</ele>
        <time>2025-08-07T13:32:16Z</time>
      </trkpt>
      <trkpt lat="45.89252" lon="2.96677">
        <ele>794.8</ele>
        <time>2025-08-07T13:32:17Z</time>
      </trkpt>
      <trkpt lat="45.89246" lon="2.96673">
        <ele>794.6</ele>
        <time>2025-08-07T13:32:18Z</time>
      </trkpt>
      <trkpt lat="45.89242" lon="2.96671">
        <ele>794.2</ele>
        <time>2025-08-07T13:32:19Z</time>
      </trkpt>
      <trkpt lat="45.89237" lon="2.96669">
        <ele>794</ele>
        <time>2025-08-07T13:32:20Z</time>
      </trkpt>
      <trkpt lat="45.89233" lon="2.96667">
        <ele>793.6</ele>
        <time>2025-08-07T13:32:21Z</time>
      </trkpt>
      <trkpt lat="45.89229" lon="2.96665">
        <ele>793.4</ele>
        <time>2025-08-07T13:32:22Z</time>
      </trkpt>
      <trkpt lat="45.89225" lon="2.96663">
        <ele>793.2</ele>
        <time>2025-08-07T13:32:23Z</time>
      </trkpt>
      <trkpt lat="45.89221" lon="2.96662">
        <ele>793.2</ele>
        <time>2025-08-07T13:32:24Z</time>
      </trkpt>
      <trkpt lat="45.89216" lon="2.9666">
        <ele>793</ele>
        <time>2025-08-07T13:32:25Z</time>
      </trkpt>
      <trkpt lat="45.89212" lon="2.96658">
        <ele>793</ele>
        <time>2025-08-07T13:32:26Z</time>
      </trkpt>
      <trkpt lat="45.89207" lon="2.96656">
        <ele>792.8</ele>
        <time>2025-08-07T13:32:27Z</time>
      </trkpt>
      <trkpt lat="45.89202" lon="2.96655">
        <ele>792.8</ele>
        <time>2025-08-07T13:32:28Z</time>
      </trkpt>
      <trkpt lat="45.89196" lon="2.96652">
        <ele>792.8</ele>
        <time>2025-08-07T13:32:29Z</time>
      </trkpt>
      <trkpt lat="45.8919" lon="2.96649">
        <ele>792.8</ele>
        <time>2025-08-07T13:32:30Z</time>
      </trkpt>
      <trkpt lat="45.89183" lon="2.96644">
        <ele>792.6</ele>
        <time>2025-08-07T13:32:31Z</time>
      </trkpt>
      <trkpt lat="45.89177" lon="2.96641">
        <ele>792.6</ele>
        <time>2025-08-07T13:32:32Z</time>
      </trkpt>
      <trkpt lat="45.8917" lon="2.96638">
        <ele>792.6</ele>
        <time>2025-08-07T13:32:33Z</time>
      </trkpt>
      <trkpt lat="45.89165" lon="2.96635">
        <ele>792.6</ele>
        <time>2025-08-07T13:32:34Z</time>
      </trkpt>
      <trkpt lat="45.89159" lon="2.96633">
        <ele>792.8</ele>
        <time>2025-08-07T13:32:35Z</time>
      </trkpt>
      <trkpt lat="45.89155" lon="2.96632">
        <ele>793</ele>
        <time>2025-08-07T13:32:36Z</time>
      </trkpt>
      <trkpt lat="45.89153" lon="2.9663">
        <ele>793.2</ele>
        <time>2025-08-07T13:32:37Z</time>
      </trkpt>
      <trkpt lat="45.89152" lon="2.96628">
        <ele>793.6</ele>
        <time>2025-08-07T13:32:38Z</time>
      </trkpt>
      <trkpt lat="45.8915" lon="2.96628">
        <ele>794</ele>
        <time>2025-08-07T13:32:39Z</time>
      </trkpt>
      <trkpt lat="45.89147" lon="2.96628">
        <ele>794.2</ele>
        <time>2025-08-07T13:32:40Z</time>
      </trkpt>
      <trkpt lat="45.89145" lon="2.96627">
        <ele>794.6</ele>
        <time>2025-08-07T13:32:41Z</time>
      </trkpt>
      <trkpt lat="45.89142" lon="2.96625">
        <ele>794.8</ele>
        <time>2025-08-07T13:32:42Z</time>
      </trkpt>
      <trkpt lat="45.8914" lon="2.96623">
        <ele>795.2</ele>
        <time>2025-08-07T13:32:43Z</time>
      </trkpt>
      <trkpt lat="45.89137" lon="2.96621">
        <ele>795.6</ele>
        <time>2025-08-07T13:32:44Z</time>
      </trkpt>
      <trkpt lat="45.89135" lon="2.96619">
        <ele>796.2</ele>
        <time>2025-08-07T13:32:45Z</time>
      </trkpt>
      <trkpt lat="45.89133" lon="2.96617">
        <ele>796.6</ele>
        <time>2025-08-07T13:32:46Z</time>
      </trkpt>
      <trkpt lat="45.8913" lon="2.96616">
        <ele>797.2</ele>
        <time>2025-08-07T13:32:47Z</time>
      </trkpt>
      <trkpt lat="45.89128" lon="2.96614">
        <ele>797.6</ele>
        <time>2025-08-07T13:32:48Z</time>
      </trkpt>
      <trkpt lat="45.89126" lon="2.96613">
        <ele>798</ele>
        <time>2025-08-07T13:32:49Z</time>
      </trkpt>
      <trkpt lat="45.89124" lon="2.96611">
        <ele>798.6</ele>
        <time>2025-08-07T13:32:50Z</time>
      </trkpt>
      <trkpt lat="45.89121" lon="2.96608">
        <ele>799</ele>
        <time>2025-08-07T13:32:51Z</time>
      </trkpt>
      <trkpt lat="45.89118" lon="2.96606">
        <ele>799.6</ele>
        <time>2025-08-07T13:32:52Z</time>
      </trkpt>
      <trkpt lat="45.89116" lon="2.96604">
        <ele>800.2</ele>
        <time>2025-08-07T13:32:53Z</time>
      </trkpt>
      <trkpt lat="45.89114" lon="2.96601">
        <ele>800.6</ele>
        <time>2025-08-07T13:32:54Z</time>
      </trkpt>
      <trkpt lat="45.89111" lon="2.96598">
        <ele>801.2</ele>
        <time>2025-08-07T13:32:55Z</time>
      </trkpt>
      <trkpt lat="45.89108" lon="2.96596">
        <ele>801.6</ele>
        <time>2025-08-07T13:32:56Z</time>
      </trkpt>
      <trkpt lat="45.89103" lon="2.96595">
        <ele>802.2</ele>
        <time>2025-08-07T13:32:57Z</time>
      </trkpt>
      <trkpt lat="45.89098" lon="2.96593">
        <ele>802.8</ele>
        <time>2025-08-07T13:32:58Z</time>
      </trkpt>
      <trkpt lat="45.89094" lon="2.96591">
        <ele>803.4</ele>
        <time>2025-08-07T13:32:59Z</time>
      </trkpt>
      <trkpt lat="45.8909" lon="2.96588">
        <ele>804</ele>
        <time>2025-08-07T13:33:00Z</time>
      </trkpt>
      <trkpt lat="45.89087" lon="2.96584">
        <ele>804.4</ele>
        <time>2025-08-07T13:33:01Z</time>
      </trkpt>
      <trkpt lat="45.89085" lon="2.96581">
        <ele>805</ele>
        <time>2025-08-07T13:33:02Z</time>
      </trkpt>
      <trkpt lat="45.89081" lon="2.96577">
        <ele>805.6</ele>
        <time>2025-08-07T13:33:03Z</time>
      </trkpt>
      <trkpt lat="45.89078" lon="2.96573">
        <ele>806.2</ele>
        <time>2025-08-07T13:33:04Z</time>
      </trkpt>
      <trkpt lat="45.89076" lon="2.96569">
        <ele>806.6</ele>
        <time>2025-08-07T13:33:05Z</time>
      </trkpt>
      <trkpt lat="45.89074" lon="2.96565">
        <ele>807.2</ele>
        <time>2025-08-07T13:33:06Z</time>
      </trkpt>
      <trkpt lat="45.89072" lon="2.96561">
        <ele>807.8</ele>
        <time>2025-08-07T13:33:07Z</time>
      </trkpt>
      <trkpt lat="45.89069" lon="2.96555">
        <ele>808.2</ele>
        <time>2025-08-07T13:33:08Z</time>
      </trkpt>
      <trkpt lat="45.89066" lon="2.96548">
        <ele>808.8</ele>
        <time>2025-08-07T13:33:09Z</time>
      </trkpt>
      <trkpt lat="45.89064" lon="2.96544">
        <ele>809.2</ele>
        <time>2025-08-07T13:33:10Z</time>
      </trkpt>
      <trkpt lat="45.8906" lon="2.96538">
        <ele>809.6</ele>
        <time>2025-08-07T13:33:11Z</time>
      </trkpt>
      <trkpt lat="45.89058" lon="2.96535">
        <ele>810.2</ele>
        <time>2025-08-07T13:33:12Z</time>
      </trkpt>
      <trkpt lat="45.89055" lon="2.96531">
        <ele>810.6</ele>
        <time>2025-08-07T13:33:13Z</time>
      </trkpt>
      <trkpt lat="45.89052" lon="2.96527">
        <ele>811</ele>
        <time>2025-08-07T13:33:14Z</time>
      </trkpt>
      <trkpt lat="45.89048" lon="2.96522">
        <ele>811.6</ele>
        <time>2025-08-07T13:33:15Z</time>
      </trkpt>
      <trkpt lat="45.89044" lon="2.96516">
        <ele>812</ele>
        <time>2025-08-07T13:33:16Z</time>
      </trkpt>
      <trkpt lat="45.89041" lon="2.96509">
        <ele>812.6</ele>
        <time>2025-08-07T13:33:17Z</time>
      </trkpt>
      <trkpt lat="45.89039" lon="2.965">
        <ele>813</ele>
        <time>2025-08-07T13:33:18Z</time>
      </trkpt>
      <trkpt lat="45.89037" lon="2.96492">
        <ele>813.6</ele>
        <time>2025-08-07T13:33:19Z</time>
      </trkpt>
      <trkpt lat="45.89036" lon="2.96487">
        <ele>814</ele>
        <time>2025-08-07T13:33:20Z</time>
      </trkpt>
      <trkpt lat="45.89034" lon="2.96482">
        <ele>814.6</ele>
        <time>2025-08-07T13:33:21Z</time>
      </trkpt>
      <trkpt lat="45.89031" lon="2.96478">
        <ele>815</ele>
        <time>2025-08-07T13:33:22Z</time>
      </trkpt>
      <trkpt lat="45.89029" lon="2.96473">
        <ele>815.4</ele>
        <time>2025-08-07T13:33:23Z</time>
      </trkpt>
      <trkpt lat="45.89028" lon="2.96468">
        <ele>815.8</ele>
        <time>2025-08-07T13:33:24Z</time>
      </trkpt>
      <trkpt lat="45.89026" lon="2.96462">
        <ele>816.4</ele>
        <time>2025-08-07T13:33:25Z</time>
      </trkpt>
      <trkpt lat="45.89025" lon="2.96456">
        <ele>816.8</ele>
        <time>2025-08-07T13:33:26Z</time>
      </trkpt>
      <trkpt lat="45.89023" lon="2.96448">
        <ele>817.4</ele>
        <time>2025-08-07T13:33:27Z</time>
      </trkpt>
      <trkpt lat="45.8902" lon="2.9644">
        <ele>817.8</ele>
        <time>2025-08-07T13:33:28Z</time>
      </trkpt>
      <trkpt lat="45.89019" lon="2.96436">
        <ele>818.4</ele>
        <time>2025-08-07T13:33:29Z</time>
      </trkpt>
      <trkpt lat="45.89019" lon="2.96433">
        <ele>818.8</ele>
        <time>2025-08-07T13:33:30Z</time>
      </trkpt>
      <trkpt lat="45.89018" lon="2.9643">
        <ele>819.4</ele>
        <time>2025-08-07T13:33:31Z</time>
      </trkpt>
      <trkpt lat="45.89017" lon="2.96426">
        <ele>819.8</ele>
        <time>2025-08-07T13:33:32Z</time>
      </trkpt>
      <trkpt lat="45.89015" lon="2.9642">
        <ele>820.4</ele>
        <time>2025-08-07T13:33:33Z</time>
      </trkpt>
      <trkpt lat="45.89012" lon="2.96414">
        <ele>820.8</ele>
        <time>2025-08-07T13:33:34Z</time>
      </trkpt>
      <trkpt lat="45.8901" lon="2.96408">
        <ele>821.4</ele>
        <time>2025-08-07T13:33:35Z</time>
      </trkpt>
      <trkpt lat="45.89007" lon="2.96402">
        <ele>821.8</ele>
        <time>2025-08-07T13:33:36Z</time>
      </trkpt>
      <trkpt lat="45.89005" lon="2.96395">
        <ele>822.4</ele>
        <time>2025-08-07T13:33:37Z</time>
      </trkpt>
      <trkpt lat="45.89002" lon="2.96389">
        <ele>822.8</ele>
        <time>2025-08-07T13:33:38Z</time>
      </trkpt>
      <trkpt lat="45.89" lon="2.96385">
        <ele>823.2</ele>
        <time>2025-08-07T13:33:39Z</time>
      </trkpt>
      <trkpt lat="45.89" lon="2.96382">
        <ele>823.8</ele>
        <time>2025-08-07T13:33:40Z</time>
      </trkpt>
      <trkpt lat="45.89" lon="2.9638">
        <ele>824.2</ele>
        <time>2025-08-07T13:33:41Z</time>
      </trkpt>
      <trkpt lat="45.89001" lon="2.96377">
        <ele>824.8</ele>
        <time>2025-08-07T13:33:42Z</time>
      </trkpt>
      <trkpt lat="45.89002" lon="2.96372">
        <ele>825.2</ele>
        <time>2025-08-07T13:33:43Z</time>
      </trkpt>
      <trkpt lat="45.89003" lon="2.96367">
        <ele>825.8</ele>
        <time>2025-08-07T13:33:44Z</time>
      </trkpt>
      <trkpt lat="45.89003" lon="2.96361">
        <ele>826.2</ele>
        <time>2025-08-07T13:33:45Z</time>
      </trkpt>
      <trkpt lat="45.89003" lon="2.96357">
        <ele>826.6</ele>
        <time>2025-08-07T13:33:46Z</time>
      </trkpt>
      <trkpt lat="45.89003" lon="2.96354">
        <ele>827</ele>
        <time>2025-08-07T13:33:47Z</time>
      </trkpt>
      <trkpt lat="45.89005" lon="2.9635">
        <ele>827.2</ele>
        <time>2025-08-07T13:33:48Z</time>
      </trkpt>
      <trkpt lat="45.89007" lon="2.96346">
        <ele>827.4</ele>
        <time>2025-08-07T13:33:49Z</time>
      </trkpt>
      <trkpt lat="45.89009" lon="2.96342">
        <ele>827.6</ele>
        <time>2025-08-07T13:33:50Z</time>
      </trkpt>
      <trkpt lat="45.8901" lon="2.9634">
        <ele>827.8</ele>
        <time>2025-08-07T13:33:51Z</time>
      </trkpt>
      <trkpt lat="45.8901" lon="2.96338">
        <ele>827.8</ele>
        <time>2025-08-07T13:33:52Z</time>
      </trkpt>
      <trkpt lat="45.89011" lon="2.96336">
        <ele>827.8</ele>
        <time>2025-08-07T13:33:53Z</time>
      </trkpt>
      <trkpt lat="45.89011" lon="2.96333">
        <ele>827.8</ele>
        <time>2025-08-07T13:33:54Z</time>
      </trkpt>
      <trkpt lat="45.89011" lon="2.96333">
        <ele>828</ele>
        <time>2025-08-07T13:33:55Z</time>
      </trkpt>
      <trkpt lat="45.89011" lon="2.96333">
        <ele>828</ele>
        <time>2025-08-07T13:33:56Z</time>
      </trkpt>
      <trkpt lat="45.89011" lon="2.96333">
        <ele>828</ele>
        <time>2025-08-07T13:33:57Z</time>
      </trkpt>
      <trkpt lat="45.89011" lon="2.96333">
        <ele>828</ele>
        <time>2025-08-07T13:33:58Z</time>
      </trkpt>
      <trkpt lat="45.89011" lon="2.96333">
        <ele>828</ele>
        <time>2025-08-07T13:33:59Z</time>
      </trkpt>
      <trkpt lat="45.89011" lon="2.96333">
        <ele>828</ele>
        <time>2025-08-07T13:34:00Z</time>
      </trkpt>
      <trkpt lat="45.89011" lon="2.96333">
        <ele>828.2</ele>
        <time>2025-08-07T13:34:01Z</time>
      </trkpt>
      <trkpt lat="45.89011" lon="2.96333">
        <ele>828.2</ele>
        <time>2025-08-07T13:34:02Z</time>
      </trkpt>
      <trkpt lat="45.89011" lon="2.96333">
        <ele>828.2</ele>
        <time>2025-08-07T13:34:03Z</time>
      </trkpt>
      <trkpt lat="45.89011" lon="2.96333">
        <ele>828.2</ele>
        <time>2025-08-07T13:34:04Z</time>
      </trkpt>
      <trkpt lat="45.89013" lon="2.96329">
        <ele>828.4</ele>
        <time>2025-08-07T13:35:13Z</time>
      </trkpt>
      <trkpt lat="45.89014" lon="2.96326">
        <ele>828.4</ele>
        <time>2025-08-07T13:35:14Z</time>
      </trkpt>
      <trkpt lat="45.89015" lon="2.96323">
        <ele>828.4</ele>
        <time>2025-08-07T13:35:15Z</time>
      </trkpt>
      <trkpt lat="45.89015" lon="2.9632">
        <ele>828.4</ele>
        <time>2025-08-07T13:35:16Z</time>
      </trkpt>
      <trkpt lat="45.89016" lon="2.96315">
        <ele>828.6</ele>
        <time>2025-08-07T13:35:17Z</time>
      </trkpt>
      <trkpt lat="45.89017" lon="2.96308">
        <ele>828.6</ele>
        <time>2025-08-07T13:35:18Z</time>
      </trkpt>
      <trkpt lat="45.89019" lon="2.96301">
        <ele>828.6</ele>
        <time>2025-08-07T13:35:19Z</time>
      </trkpt>
      <trkpt lat="45.89021" lon="2.96294">
        <ele>828.6</ele>
        <time>2025-08-07T13:35:20Z</time>
      </trkpt>
      <trkpt lat="45.89022" lon="2.9629">
        <ele>828.6</ele>
        <time>2025-08-07T13:35:21Z</time>
      </trkpt>
      <trkpt lat="45.89024" lon="2.96285">
        <ele>828.6</ele>
        <time>2025-08-07T13:35:22Z</time>
      </trkpt>
      <trkpt lat="45.89025" lon="2.96281">
        <ele>828.6</ele>
        <time>2025-08-07T13:35:23Z</time>
      </trkpt>
      <trkpt lat="45.89026" lon="2.96278">
        <ele>828.8</ele>
        <time>2025-08-07T13:35:24Z</time>
      </trkpt>
      <trkpt lat="45.89026" lon="2.96274">
        <ele>828.8</ele>
        <time>2025-08-07T13:35:25Z</time>
      </trkpt>
      <trkpt lat="45.89026" lon="2.96267">
        <ele>828.8</ele>
        <time>2025-08-07T13:35:26Z</time>
      </trkpt>
      <trkpt lat="45.89027" lon="2.96262">
        <ele>829</ele>
        <time>2025-08-07T13:35:27Z</time>
      </trkpt>
      <trkpt lat="45.89029" lon="2.96255">
        <ele>829</ele>
        <time>2025-08-07T13:35:28Z</time>
      </trkpt>
      <trkpt lat="45.89032" lon="2.96246">
        <ele>829.2</ele>
        <time>2025-08-07T13:35:29Z</time>
      </trkpt>
      <trkpt lat="45.89033" lon="2.96241">
        <ele>829.4</ele>
        <time>2025-08-07T13:35:30Z</time>
      </trkpt>
      <trkpt lat="45.89035" lon="2.96232">
        <ele>829.6</ele>
        <time>2025-08-07T13:35:31Z</time>
      </trkpt>
      <trkpt lat="45.89035" lon="2.96223">
        <ele>829.6</ele>
        <time>2025-08-07T13:35:32Z</time>
      </trkpt>
      <trkpt lat="45.89036" lon="2.96216">
        <ele>829.8</ele>
        <time>2025-08-07T13:35:33Z</time>
      </trkpt>
      <trkpt lat="45.89036" lon="2.96208">
        <ele>830</ele>
        <time>2025-08-07T13:35:34Z</time>
      </trkpt>
      <trkpt lat="45.89035" lon="2.96199">
        <ele>830.2</ele>
        <time>2025-08-07T13:35:35Z</time>
      </trkpt>
      <trkpt lat="45.89036" lon="2.96193">
        <ele>830.6</ele>
        <time>2025-08-07T13:35:36Z</time>
      </trkpt>
      <trkpt lat="45.89035" lon="2.96187">
        <ele>830.8</ele>
        <time>2025-08-07T13:35:37Z</time>
      </trkpt>
      <trkpt lat="45.89035" lon="2.96182">
        <ele>831</ele>
        <time>2025-08-07T13:35:38Z</time>
      </trkpt>
      <trkpt lat="45.89036" lon="2.96177">
        <ele>831.4</ele>
        <time>2025-08-07T13:35:39Z</time>
      </trkpt>
      <trkpt lat="45.89037" lon="2.96171">
        <ele>831.6</ele>
        <time>2025-08-07T13:35:40Z</time>
      </trkpt>
      <trkpt lat="45.89038" lon="2.96166">
        <ele>831.8</ele>
        <time>2025-08-07T13:35:41Z</time>
      </trkpt>
      <trkpt lat="45.89037" lon="2.96159">
        <ele>832</ele>
        <time>2025-08-07T13:35:42Z</time>
      </trkpt>
      <trkpt lat="45.89036" lon="2.96151">
        <ele>832.2</ele>
        <time>2025-08-07T13:35:43Z</time>
      </trkpt>
      <trkpt lat="45.89034" lon="2.96141">
        <ele>832.4</ele>
        <time>2025-08-07T13:35:44Z</time>
      </trkpt>
      <trkpt lat="45.89031" lon="2.96135">
        <ele>832.6</ele>
        <time>2025-08-07T13:35:45Z</time>
      </trkpt>
      <trkpt lat="45.89028" lon="2.96127">
        <ele>832.8</ele>
        <time>2025-08-07T13:35:46Z</time>
      </trkpt>
      <trkpt lat="45.89026" lon="2.96122">
        <ele>832.8</ele>
        <time>2025-08-07T13:35:47Z</time>
      </trkpt>
      <trkpt lat="45.89024" lon="2.96116">
        <ele>833</ele>
        <time>2025-08-07T13:35:48Z</time>
      </trkpt>
      <trkpt lat="45.89023" lon="2.96112">
        <ele>833.2</ele>
        <time>2025-08-07T13:35:49Z</time>
      </trkpt>
      <trkpt lat="45.89023" lon="2.96106">
        <ele>833.4</ele>
        <time>2025-08-07T13:35:50Z</time>
      </trkpt>
      <trkpt lat="45.89023" lon="2.961">
        <ele>833.8</ele>
        <time>2025-08-07T13:35:51Z</time>
      </trkpt>
      <trkpt lat="45.89021" lon="2.9609">
        <ele>834</ele>
        <time>2025-08-07T13:35:52Z</time>
      </trkpt>
      <trkpt lat="45.89018" lon="2.96083">
        <ele>834.2</ele>
        <time>2025-08-07T13:35:53Z</time>
      </trkpt>
      <trkpt lat="45.89017" lon="2.96077">
        <ele>834.4</ele>
        <time>2025-08-07T13:35:54Z</time>
      </trkpt>
      <trkpt lat="45.89017" lon="2.96073">
        <ele>834.8</ele>
        <time>2025-08-07T13:35:55Z</time>
      </trkpt>
      <trkpt lat="45.89017" lon="2.96068">
        <ele>835</ele>
        <time>2025-08-07T13:35:56Z</time>
      </trkpt>
      <trkpt lat="45.89017" lon="2.96063">
        <ele>835.4</ele>
        <time>2025-08-07T13:35:57Z</time>
      </trkpt>
      <trkpt lat="45.89017" lon="2.96058">
        <ele>835.6</ele>
        <time>2025-08-07T13:35:58Z</time>
      </trkpt>
      <trkpt lat="45.89014" lon="2.96054">
        <ele>835.8</ele>
        <time>2025-08-07T13:35:59Z</time>
      </trkpt>
      <trkpt lat="45.89013" lon="2.96049">
        <ele>836.2</ele>
        <time>2025-08-07T13:36:00Z</time>
      </trkpt>
      <trkpt lat="45.89011" lon="2.96044">
        <ele>836.4</ele>
        <time>2025-08-07T13:36:01Z</time>
      </trkpt>
      <trkpt lat="45.89007" lon="2.96037">
        <ele>836.8</ele>
        <time>2025-08-07T13:36:02Z</time>
      </trkpt>
      <trkpt lat="45.89005" lon="2.96033">
        <ele>837</ele>
        <time>2025-08-07T13:36:03Z</time>
      </trkpt>
      <trkpt lat="45.89002" lon="2.96028">
        <ele>837.2</ele>
        <time>2025-08-07T13:36:04Z</time>
      </trkpt>
      <trkpt lat="45.89" lon="2.96022">
        <ele>837.4</ele>
        <time>2025-08-07T13:36:05Z</time>
      </trkpt>
      <trkpt lat="45.88999" lon="2.96017">
        <ele>837.6</ele>
        <time>2025-08-07T13:36:06Z</time>
      </trkpt>
      <trkpt lat="45.88998" lon="2.96011">
        <ele>837.8</ele>
        <time>2025-08-07T13:36:07Z</time>
      </trkpt>
      <trkpt lat="45.88998" lon="2.96006">
        <ele>838</ele>
        <time>2025-08-07T13:36:08Z</time>
      </trkpt>
      <trkpt lat="45.88998" lon="2.96001">
        <ele>838.2</ele>
        <time>2025-08-07T13:36:09Z</time>
      </trkpt>
      <trkpt lat="45.88999" lon="2.95996">
        <ele>838.4</ele>
        <time>2025-08-07T13:36:10Z</time>
      </trkpt>
      <trkpt lat="45.88999" lon="2.95993">
        <ele>838.4</ele>
        <time>2025-08-07T13:36:11Z</time>
      </trkpt>
      <trkpt lat="45.88997" lon="2.95989">
        <ele>838.6</ele>
        <time>2025-08-07T13:36:12Z</time>
      </trkpt>
      <trkpt lat="45.88995" lon="2.95985">
        <ele>838.6</ele>
        <time>2025-08-07T13:36:13Z</time>
      </trkpt>
      <trkpt lat="45.88994" lon="2.95981">
        <ele>838.8</ele>
        <time>2025-08-07T13:36:14Z</time>
      </trkpt>
      <trkpt lat="45.88992" lon="2.95977">
        <ele>838.8</ele>
        <time>2025-08-07T13:36:15Z</time>
      </trkpt>
      <trkpt lat="45.88992" lon="2.95973">
        <ele>839</ele>
        <time>2025-08-07T13:36:16Z</time>
      </trkpt>
      <trkpt lat="45.88993" lon="2.95969">
        <ele>839</ele>
        <time>2025-08-07T13:36:17Z</time>
      </trkpt>
      <trkpt lat="45.88992" lon="2.95965">
        <ele>839.2</ele>
        <time>2025-08-07T13:36:18Z</time>
      </trkpt>
      <trkpt lat="45.88991" lon="2.95961">
        <ele>839.4</ele>
        <time>2025-08-07T13:36:19Z</time>
      </trkpt>
      <trkpt lat="45.8899" lon="2.95956">
        <ele>839.6</ele>
        <time>2025-08-07T13:36:20Z</time>
      </trkpt>
      <trkpt lat="45.88988" lon="2.95952">
        <ele>839.8</ele>
        <time>2025-08-07T13:36:21Z</time>
      </trkpt>
      <trkpt lat="45.88987" lon="2.95949">
        <ele>840</ele>
        <time>2025-08-07T13:36:22Z</time>
      </trkpt>
      <trkpt lat="45.88986" lon="2.95948">
        <ele>840.4</ele>
        <time>2025-08-07T13:36:23Z</time>
      </trkpt>
      <trkpt lat="45.88986" lon="2.95946">
        <ele>840.6</ele>
        <time>2025-08-07T13:36:24Z</time>
      </trkpt>
      <trkpt lat="45.88986" lon="2.95942">
        <ele>841</ele>
        <time>2025-08-07T13:36:25Z</time>
      </trkpt>
      <trkpt lat="45.88985" lon="2.95939">
        <ele>841.2</ele>
        <time>2025-08-07T13:36:26Z</time>
      </trkpt>
      <trkpt lat="45.88984" lon="2.95935">
        <ele>841.4</ele>
        <time>2025-08-07T13:36:27Z</time>
      </trkpt>
      <trkpt lat="45.88983" lon="2.95931">
        <ele>841.6</ele>
        <time>2025-08-07T13:36:28Z</time>
      </trkpt>
      <trkpt lat="45.88981" lon="2.95927">
        <ele>841.8</ele>
        <time>2025-08-07T13:36:29Z</time>
      </trkpt>
      <trkpt lat="45.8898" lon="2.95922">
        <ele>842</ele>
        <time>2025-08-07T13:36:30Z</time>
      </trkpt>
      <trkpt lat="45.88978" lon="2.95916">
        <ele>842.2</ele>
        <time>2025-08-07T13:36:31Z</time>
      </trkpt>
      <trkpt lat="45.88977" lon="2.95911">
        <ele>842.4</ele>
        <time>2025-08-07T13:36:32Z</time>
      </trkpt>
      <trkpt lat="45.88975" lon="2.95904">
        <ele>842.6</ele>
        <time>2025-08-07T13:36:33Z</time>
      </trkpt>
      <trkpt lat="45.88974" lon="2.95898">
        <ele>842.8</ele>
        <time>2025-08-07T13:36:34Z</time>
      </trkpt>
      <trkpt lat="45.88973" lon="2.95893">
        <ele>843</ele>
        <time>2025-08-07T13:36:35Z</time>
      </trkpt>
      <trkpt lat="45.88973" lon="2.95888">
        <ele>843.2</ele>
        <time>2025-08-07T13:36:36Z</time>
      </trkpt>
      <trkpt lat="45.88973" lon="2.95885">
        <ele>843.4</ele>
        <time>2025-08-07T13:36:37Z</time>
      </trkpt>
      <trkpt lat="45.88973" lon="2.95882">
        <ele>843.6</ele>
        <time>2025-08-07T13:36:38Z</time>
      </trkpt>
      <trkpt lat="45.88974" lon="2.95881">
        <ele>843.8</ele>
        <time>2025-08-07T13:36:39Z</time>
      </trkpt>
      <trkpt lat="45.88974" lon="2.95879">
        <ele>844</ele>
        <time>2025-08-07T13:36:40Z</time>
      </trkpt>
      <trkpt lat="45.88974" lon="2.95875">
        <ele>844.2</ele>
        <time>2025-08-07T13:36:41Z</time>
      </trkpt>
      <trkpt lat="45.88973" lon="2.9587">
        <ele>844.4</ele>
        <time>2025-08-07T13:36:42Z</time>
      </trkpt>
      <trkpt lat="45.88972" lon="2.95864">
        <ele>844.6</ele>
        <time>2025-08-07T13:36:43Z</time>
      </trkpt>
      <trkpt lat="45.88971" lon="2.95857">
        <ele>844.8</ele>
        <time>2025-08-07T13:36:44Z</time>
      </trkpt>
      <trkpt lat="45.88969" lon="2.95851">
        <ele>845</ele>
        <time>2025-08-07T13:36:45Z</time>
      </trkpt>
      <trkpt lat="45.88968" lon="2.95845">
        <ele>845.4</ele>
        <time>2025-08-07T13:36:46Z</time>
      </trkpt>
      <trkpt lat="45.88966" lon="2.95839">
        <ele>845.6</ele>
        <time>2025-08-07T13:36:47Z</time>
      </trkpt>
      <trkpt lat="45.88966" lon="2.95834">
        <ele>845.8</ele>
        <time>2025-08-07T13:36:48Z</time>
      </trkpt>
      <trkpt lat="45.88966" lon="2.95829">
        <ele>846.2</ele>
        <time>2025-08-07T13:36:49Z</time>
      </trkpt>
      <trkpt lat="45.88965" lon="2.95823">
        <ele>846.4</ele>
        <time>2025-08-07T13:36:50Z</time>
      </trkpt>
      <trkpt lat="45.88965" lon="2.95818">
        <ele>846.6</ele>
        <time>2025-08-07T13:36:51Z</time>
      </trkpt>
      <trkpt lat="45.88966" lon="2.95813">
        <ele>847</ele>
        <time>2025-08-07T13:36:52Z</time>
      </trkpt>
      <trkpt lat="45.88967" lon="2.9581">
        <ele>847.2</ele>
        <time>2025-08-07T13:36:53Z</time>
      </trkpt>
      <trkpt lat="45.88967" lon="2.95805">
        <ele>847.6</ele>
        <time>2025-08-07T13:36:54Z</time>
      </trkpt>
      <trkpt lat="45.88968" lon="2.95801">
        <ele>848</ele>
        <time>2025-08-07T13:36:55Z</time>
      </trkpt>
      <trkpt lat="45.88968" lon="2.95796">
        <ele>848.2</ele>
        <time>2025-08-07T13:36:56Z</time>
      </trkpt>
      <trkpt lat="45.88968" lon="2.9579">
        <ele>848.6</ele>
        <time>2025-08-07T13:36:57Z</time>
      </trkpt>
      <trkpt lat="45.88968" lon="2.95783">
        <ele>848.8</ele>
        <time>2025-08-07T13:36:58Z</time>
      </trkpt>
      <trkpt lat="45.88966" lon="2.95776">
        <ele>849.2</ele>
        <time>2025-08-07T13:36:59Z</time>
      </trkpt>
      <trkpt lat="45.88965" lon="2.9577">
        <ele>849.4</ele>
        <time>2025-08-07T13:37:00Z</time>
      </trkpt>
      <trkpt lat="45.88965" lon="2.95765">
        <ele>849.6</ele>
        <time>2025-08-07T13:37:01Z</time>
      </trkpt>
      <trkpt lat="45.88966" lon="2.95761">
        <ele>849.8</ele>
        <time>2025-08-07T13:37:02Z</time>
      </trkpt>
      <trkpt lat="45.88965" lon="2.95755">
        <ele>850</ele>
        <time>2025-08-07T13:37:03Z</time>
      </trkpt>
      <trkpt lat="45.88964" lon="2.95749">
        <ele>850.2</ele>
        <time>2025-08-07T13:37:04Z</time>
      </trkpt>
      <trkpt lat="45.88964" lon="2.95744">
        <ele>850.4</ele>
        <time>2025-08-07T13:37:05Z</time>
      </trkpt>
      <trkpt lat="45.88964" lon="2.95739">
        <ele>850.4</ele>
        <time>2025-08-07T13:37:06Z</time>
      </trkpt>
      <trkpt lat="45.88965" lon="2.95734">
        <ele>850.6</ele>
        <time>2025-08-07T13:37:07Z</time>
      </trkpt>
      <trkpt lat="45.88965" lon="2.95726">
        <ele>850.8</ele>
        <time>2025-08-07T13:37:08Z</time>
      </trkpt>
      <trkpt lat="45.88966" lon="2.95719">
        <ele>851</ele>
        <time>2025-08-07T13:37:09Z</time>
      </trkpt>
      <trkpt lat="45.88966" lon="2.95713">
        <ele>851.2</ele>
        <time>2025-08-07T13:37:10Z</time>
      </trkpt>
      <trkpt lat="45.88967" lon="2.95709">
        <ele>851.4</ele>
        <time>2025-08-07T13:37:11Z</time>
      </trkpt>
      <trkpt lat="45.88967" lon="2.95706">
        <ele>851.6</ele>
        <time>2025-08-07T13:37:12Z</time>
      </trkpt>
      <trkpt lat="45.88968" lon="2.95703">
        <ele>851.8</ele>
        <time>2025-08-07T13:37:13Z</time>
      </trkpt>
      <trkpt lat="45.88967" lon="2.95699">
        <ele>851.8</ele>
        <time>2025-08-07T13:37:14Z</time>
      </trkpt>
      <trkpt lat="45.88967" lon="2.95693">
        <ele>852</ele>
        <time>2025-08-07T13:37:15Z</time>
      </trkpt>
      <trkpt lat="45.88967" lon="2.95687">
        <ele>852</ele>
        <time>2025-08-07T13:37:16Z</time>
      </trkpt>
      <trkpt lat="45.88968" lon="2.95681">
        <ele>852.2</ele>
        <time>2025-08-07T13:37:17Z</time>
      </trkpt>
      <trkpt lat="45.88968" lon="2.95676">
        <ele>852.4</ele>
        <time>2025-08-07T13:37:18Z</time>
      </trkpt>
      <trkpt lat="45.88968" lon="2.95672">
        <ele>852.4</ele>
        <time>2025-08-07T13:37:19Z</time>
      </trkpt>
      <trkpt lat="45.88969" lon="2.95667">
        <ele>852.6</ele>
        <time>2025-08-07T13:37:20Z</time>
      </trkpt>
      <trkpt lat="45.8897" lon="2.95662">
        <ele>852.6</ele>
        <time>2025-08-07T13:37:21Z</time>
      </trkpt>
      <trkpt lat="45.8897" lon="2.95658">
        <ele>852.8</ele>
        <time>2025-08-07T13:37:22Z</time>
      </trkpt>
      <trkpt lat="45.88971" lon="2.95653">
        <ele>853</ele>
        <time>2025-08-07T13:37:23Z</time>
      </trkpt>
      <trkpt lat="45.88973" lon="2.95648">
        <ele>853</ele>
        <time>2025-08-07T13:37:24Z</time>
      </trkpt>
      <trkpt lat="45.88973" lon="2.95643">
        <ele>853.2</ele>
        <time>2025-08-07T13:37:25Z</time>
      </trkpt>
      <trkpt lat="45.88974" lon="2.95637">
        <ele>853.4</ele>
        <time>2025-08-07T13:37:26Z</time>
      </trkpt>
      <trkpt lat="45.88974" lon="2.9563">
        <ele>853.4</ele>
        <time>2025-08-07T13:37:27Z</time>
      </trkpt>
      <trkpt lat="45.88976" lon="2.95624">
        <ele>853.6</ele>
        <time>2025-08-07T13:37:28Z</time>
      </trkpt>
      <trkpt lat="45.88976" lon="2.95617">
        <ele>853.6</ele>
        <time>2025-08-07T13:37:29Z</time>
      </trkpt>
      <trkpt lat="45.88976" lon="2.95611">
        <ele>853.6</ele>
        <time>2025-08-07T13:37:30Z</time>
      </trkpt>
      <trkpt lat="45.88976" lon="2.95605">
        <ele>853.6</ele>
        <time>2025-08-07T13:37:31Z</time>
      </trkpt>
      <trkpt lat="45.88978" lon="2.95599">
        <ele>853.8</ele>
        <time>2025-08-07T13:37:32Z</time>
      </trkpt>
      <trkpt lat="45.8898" lon="2.95593">
        <ele>853.8</ele>
        <time>2025-08-07T13:37:33Z</time>
      </trkpt>
      <trkpt lat="45.8898" lon="2.95587">
        <ele>853.8</ele>
        <time>2025-08-07T13:37:34Z</time>
      </trkpt>
      <trkpt lat="45.88981" lon="2.95583">
        <ele>853.8</ele>
        <time>2025-08-07T13:37:35Z</time>
      </trkpt>
      <trkpt lat="45.88981" lon="2.95578">
        <ele>853.8</ele>
        <time>2025-08-07T13:37:36Z</time>
      </trkpt>
      <trkpt lat="45.88982" lon="2.95572">
        <ele>853.8</ele>
        <time>2025-08-07T13:37:37Z</time>
      </trkpt>
      <trkpt lat="45.88983" lon="2.95567">
        <ele>853.8</ele>
        <time>2025-08-07T13:37:38Z</time>
      </trkpt>
      <trkpt lat="45.88986" lon="2.9556">
        <ele>854</ele>
        <time>2025-08-07T13:37:39Z</time>
      </trkpt>
      <trkpt lat="45.88988" lon="2.95555">
        <ele>854</ele>
        <time>2025-08-07T13:37:40Z</time>
      </trkpt>
      <trkpt lat="45.88989" lon="2.95549">
        <ele>854</ele>
        <time>2025-08-07T13:37:41Z</time>
      </trkpt>
      <trkpt lat="45.88992" lon="2.95541">
        <ele>854</ele>
        <time>2025-08-07T13:37:42Z</time>
      </trkpt>
      <trkpt lat="45.88995" lon="2.95532">
        <ele>853.8</ele>
        <time>2025-08-07T13:37:43Z</time>
      </trkpt>
      <trkpt lat="45.89" lon="2.95521">
        <ele>853.8</ele>
        <time>2025-08-07T13:37:44Z</time>
      </trkpt>
      <trkpt lat="45.89001" lon="2.95513">
        <ele>853.8</ele>
        <time>2025-08-07T13:37:45Z</time>
      </trkpt>
      <trkpt lat="45.89003" lon="2.95504">
        <ele>853.6</ele>
        <time>2025-08-07T13:37:46Z</time>
      </trkpt>
      <trkpt lat="45.89005" lon="2.95497">
        <ele>853.6</ele>
        <time>2025-08-07T13:37:47Z</time>
      </trkpt>
      <trkpt lat="45.89006" lon="2.95489">
        <ele>853.6</ele>
        <time>2025-08-07T13:37:48Z</time>
      </trkpt>
      <trkpt lat="45.89008" lon="2.95482">
        <ele>853.6</ele>
        <time>2025-08-07T13:37:49Z</time>
      </trkpt>
      <trkpt lat="45.89013" lon="2.95472">
        <ele>853.4</ele>
        <time>2025-08-07T13:37:50Z</time>
      </trkpt>
      <trkpt lat="45.89017" lon="2.95462">
        <ele>853.4</ele>
        <time>2025-08-07T13:37:51Z</time>
      </trkpt>
      <trkpt lat="45.8902" lon="2.95454">
        <ele>853.2</ele>
        <time>2025-08-07T13:37:52Z</time>
      </trkpt>
      <trkpt lat="45.89022" lon="2.95445">
        <ele>853.2</ele>
        <time>2025-08-07T13:37:53Z</time>
      </trkpt>
      <trkpt lat="45.89024" lon="2.95438">
        <ele>853.2</ele>
        <time>2025-08-07T13:37:54Z</time>
      </trkpt>
      <trkpt lat="45.89025" lon="2.95427">
        <ele>853.2</ele>
        <time>2025-08-07T13:37:55Z</time>
      </trkpt>
      <trkpt lat="45.89027" lon="2.9542">
        <ele>853.2</ele>
        <time>2025-08-07T13:37:56Z</time>
      </trkpt>
      <trkpt lat="45.89028" lon="2.95413">
        <ele>853.2</ele>
        <time>2025-08-07T13:37:57Z</time>
      </trkpt>
      <trkpt lat="45.89031" lon="2.95407">
        <ele>853.2</ele>
        <time>2025-08-07T13:37:58Z</time>
      </trkpt>
      <trkpt lat="45.89033" lon="2.954">
        <ele>853.2</ele>
        <time>2025-08-07T13:37:59Z</time>
      </trkpt>
      <trkpt lat="45.89034" lon="2.95392">
        <ele>853</ele>
        <time>2025-08-07T13:38:00Z</time>
      </trkpt>
      <trkpt lat="45.89036" lon="2.95383">
        <ele>853</ele>
        <time>2025-08-07T13:38:01Z</time>
      </trkpt>
      <trkpt lat="45.89037" lon="2.95374">
        <ele>853</ele>
        <time>2025-08-07T13:38:02Z</time>
      </trkpt>
      <trkpt lat="45.89038" lon="2.95367">
        <ele>853.2</ele>
        <time>2025-08-07T13:38:03Z</time>
      </trkpt>
      <trkpt lat="45.89039" lon="2.95358">
        <ele>853.2</ele>
        <time>2025-08-07T13:38:04Z</time>
      </trkpt>
      <trkpt lat="45.8904" lon="2.95352">
        <ele>853.2</ele>
        <time>2025-08-07T13:38:05Z</time>
      </trkpt>
      <trkpt lat="45.89044" lon="2.95345">
        <ele>853.2</ele>
        <time>2025-08-07T13:38:06Z</time>
      </trkpt>
      <trkpt lat="45.89046" lon="2.95336">
        <ele>853.2</ele>
        <time>2025-08-07T13:38:07Z</time>
      </trkpt>
      <trkpt lat="45.89047" lon="2.95327">
        <ele>853.2</ele>
        <time>2025-08-07T13:38:08Z</time>
      </trkpt>
      <trkpt lat="45.89049" lon="2.95319">
        <ele>853</ele>
        <time>2025-08-07T13:38:09Z</time>
      </trkpt>
      <trkpt lat="45.89052" lon="2.9531">
        <ele>852.8</ele>
        <time>2025-08-07T13:38:10Z</time>
      </trkpt>
      <trkpt lat="45.89054" lon="2.95297">
        <ele>852.6</ele>
        <time>2025-08-07T13:38:11Z</time>
      </trkpt>
      <trkpt lat="45.89055" lon="2.95286">
        <ele>852.2</ele>
        <time>2025-08-07T13:38:12Z</time>
      </trkpt>
      <trkpt lat="45.89055" lon="2.95275">
        <ele>852</ele>
        <time>2025-08-07T13:38:13Z</time>
      </trkpt>
      <trkpt lat="45.89057" lon="2.95265">
        <ele>851.6</ele>
        <time>2025-08-07T13:38:14Z</time>
      </trkpt>
      <trkpt lat="45.89059" lon="2.95252">
        <ele>851.2</ele>
        <time>2025-08-07T13:38:15Z</time>
      </trkpt>
      <trkpt lat="45.89059" lon="2.95241">
        <ele>850.8</ele>
        <time>2025-08-07T13:38:16Z</time>
      </trkpt>
      <trkpt lat="45.8906" lon="2.95233">
        <ele>850.6</ele>
        <time>2025-08-07T13:38:17Z</time>
      </trkpt>
      <trkpt lat="45.89061" lon="2.95222">
        <ele>850.2</ele>
        <time>2025-08-07T13:38:18Z</time>
      </trkpt>
      <trkpt lat="45.89061" lon="2.95209">
        <ele>850</ele>
        <time>2025-08-07T13:38:19Z</time>
      </trkpt>
      <trkpt lat="45.89061" lon="2.95198">
        <ele>849.6</ele>
        <time>2025-08-07T13:38:20Z</time>
      </trkpt>
      <trkpt lat="45.89062" lon="2.95186">
        <ele>849.4</ele>
        <time>2025-08-07T13:38:21Z</time>
      </trkpt>
      <trkpt lat="45.89065" lon="2.95176">
        <ele>849</ele>
        <time>2025-08-07T13:38:22Z</time>
      </trkpt>
      <trkpt lat="45.89069" lon="2.95168">
        <ele>848.6</ele>
        <time>2025-08-07T13:38:23Z</time>
      </trkpt>
      <trkpt lat="45.89074" lon="2.95162">
        <ele>848.4</ele>
        <time>2025-08-07T13:38:24Z</time>
      </trkpt>
      <trkpt lat="45.8908" lon="2.95156">
        <ele>848</ele>
        <time>2025-08-07T13:38:25Z</time>
      </trkpt>
      <trkpt lat="45.89084" lon="2.9515">
        <ele>847.6</ele>
        <time>2025-08-07T13:38:26Z</time>
      </trkpt>
      <trkpt lat="45.89088" lon="2.95145">
        <ele>847</ele>
        <time>2025-08-07T13:38:27Z</time>
      </trkpt>
      <trkpt lat="45.89093" lon="2.95139">
        <ele>846.4</ele>
        <time>2025-08-07T13:38:28Z</time>
      </trkpt>
      <trkpt lat="45.89097" lon="2.95133">
        <ele>845.6</ele>
        <time>2025-08-07T13:38:29Z</time>
      </trkpt>
      <trkpt lat="45.89102" lon="2.95127">
        <ele>844.6</ele>
        <time>2025-08-07T13:38:30Z</time>
      </trkpt>
      <trkpt lat="45.89107" lon="2.95124">
        <ele>843.8</ele>
        <time>2025-08-07T13:38:31Z</time>
      </trkpt>
      <trkpt lat="45.8911" lon="2.95119">
        <ele>843</ele>
        <time>2025-08-07T13:38:32Z</time>
      </trkpt>
      <trkpt lat="45.89113" lon="2.95114">
        <ele>842.4</ele>
        <time>2025-08-07T13:38:33Z</time>
      </trkpt>
      <trkpt lat="45.89116" lon="2.95111">
        <ele>841.6</ele>
        <time>2025-08-07T13:38:34Z</time>
      </trkpt>
      <trkpt lat="45.8912" lon="2.95107">
        <ele>840.8</ele>
        <time>2025-08-07T13:38:35Z</time>
      </trkpt>
      <trkpt lat="45.89129" lon="2.95101">
        <ele>840</ele>
        <time>2025-08-07T13:38:36Z</time>
      </trkpt>
      <trkpt lat="45.89137" lon="2.95094">
        <ele>839.2</ele>
        <time>2025-08-07T13:38:37Z</time>
      </trkpt>
      <trkpt lat="45.89144" lon="2.95087">
        <ele>838.6</ele>
        <time>2025-08-07T13:38:38Z</time>
      </trkpt>
      <trkpt lat="45.89149" lon="2.95081">
        <ele>837.8</ele>
        <time>2025-08-07T13:38:39Z</time>
      </trkpt>
      <trkpt lat="45.89154" lon="2.95077">
        <ele>837</ele>
        <time>2025-08-07T13:38:40Z</time>
      </trkpt>
      <trkpt lat="45.8916" lon="2.95074">
        <ele>836.2</ele>
        <time>2025-08-07T13:38:41Z</time>
      </trkpt>
      <trkpt lat="45.89167" lon="2.9507">
        <ele>835.4</ele>
        <time>2025-08-07T13:38:42Z</time>
      </trkpt>
      <trkpt lat="45.89173" lon="2.95067">
        <ele>834.6</ele>
        <time>2025-08-07T13:38:43Z</time>
      </trkpt>
      <trkpt lat="45.89178" lon="2.95064">
        <ele>834</ele>
        <time>2025-08-07T13:38:44Z</time>
      </trkpt>
      <trkpt lat="45.89183" lon="2.95056">
        <ele>833.2</ele>
        <time>2025-08-07T13:38:45Z</time>
      </trkpt>
      <trkpt lat="45.89186" lon="2.95054">
        <ele>832.6</ele>
        <time>2025-08-07T13:38:46Z</time>
      </trkpt>
      <trkpt lat="45.89189" lon="2.95052">
        <ele>832</ele>
        <time>2025-08-07T13:38:47Z</time>
      </trkpt>
      <trkpt lat="45.89193" lon="2.95048">
        <ele>831.4</ele>
        <time>2025-08-07T13:38:48Z</time>
      </trkpt>
      <trkpt lat="45.89198" lon="2.95042">
        <ele>830.6</ele>
        <time>2025-08-07T13:38:49Z</time>
      </trkpt>
      <trkpt lat="45.8921" lon="2.9503">
        <ele>830</ele>
        <time>2025-08-07T13:38:50Z</time>
      </trkpt>
      <trkpt lat="45.89217" lon="2.95019">
        <ele>829.6</ele>
        <time>2025-08-07T13:38:51Z</time>
      </trkpt>
      <trkpt lat="45.89223" lon="2.9501">
        <ele>829.2</ele>
        <time>2025-08-07T13:38:52Z</time>
      </trkpt>
      <trkpt lat="45.89227" lon="2.95002">
        <ele>828.8</ele>
        <time>2025-08-07T13:38:53Z</time>
      </trkpt>
      <trkpt lat="45.89231" lon="2.94993">
        <ele>828.4</ele>
        <time>2025-08-07T13:38:54Z</time>
      </trkpt>
      <trkpt lat="45.89235" lon="2.94985">
        <ele>828</ele>
        <time>2025-08-07T13:38:55Z</time>
      </trkpt>
      <trkpt lat="45.89239" lon="2.94976">
        <ele>827.6</ele>
        <time>2025-08-07T13:38:56Z</time>
      </trkpt>
      <trkpt lat="45.89243" lon="2.94967">
        <ele>827.4</ele>
        <time>2025-08-07T13:38:57Z</time>
      </trkpt>
      <trkpt lat="45.89246" lon="2.94958">
        <ele>827.2</ele>
        <time>2025-08-07T13:38:58Z</time>
      </trkpt>
      <trkpt lat="45.89249" lon="2.94949">
        <ele>827</ele>
        <time>2025-08-07T13:38:59Z</time>
      </trkpt>
      <trkpt lat="45.89252" lon="2.94942">
        <ele>827</ele>
        <time>2025-08-07T13:39:00Z</time>
      </trkpt>
      <trkpt lat="45.89255" lon="2.94933">
        <ele>826.8</ele>
        <time>2025-08-07T13:39:01Z</time>
      </trkpt>
      <trkpt lat="45.89259" lon="2.94924">
        <ele>826.6</ele>
        <time>2025-08-07T13:39:02Z</time>
      </trkpt>
      <trkpt lat="45.89262" lon="2.94916">
        <ele>826.6</ele>
        <time>2025-08-07T13:39:03Z</time>
      </trkpt>
      <trkpt lat="45.89265" lon="2.94909">
        <ele>826.6</ele>
        <time>2025-08-07T13:39:04Z</time>
      </trkpt>
      <trkpt lat="45.89268" lon="2.94903">
        <ele>826.6</ele>
        <time>2025-08-07T13:39:05Z</time>
      </trkpt>
      <trkpt lat="45.89271" lon="2.94898">
        <ele>826.4</ele>
        <time>2025-08-07T13:39:06Z</time>
      </trkpt>
      <trkpt lat="45.89273" lon="2.94893">
        <ele>826.6</ele>
        <time>2025-08-07T13:39:07Z</time>
      </trkpt>
      <trkpt lat="45.89273" lon="2.9489">
        <ele>826.6</ele>
        <time>2025-08-07T13:39:08Z</time>
      </trkpt>
      <trkpt lat="45.89273" lon="2.94885">
        <ele>826.6</ele>
        <time>2025-08-07T13:39:09Z</time>
      </trkpt>
      <trkpt lat="45.89273" lon="2.94881">
        <ele>826.8</ele>
        <time>2025-08-07T13:39:10Z</time>
      </trkpt>
      <trkpt lat="45.89271" lon="2.94877">
        <ele>827</ele>
        <time>2025-08-07T13:39:11Z</time>
      </trkpt>
      <trkpt lat="45.8927" lon="2.94874">
        <ele>827</ele>
        <time>2025-08-07T13:39:12Z</time>
      </trkpt>
      <trkpt lat="45.89269" lon="2.9487">
        <ele>827</ele>
        <time>2025-08-07T13:39:13Z</time>
      </trkpt>
      <trkpt lat="45.89267" lon="2.94865">
        <ele>827</ele>
        <time>2025-08-07T13:39:14Z</time>
      </trkpt>
      <trkpt lat="45.89266" lon="2.94858">
        <ele>827</ele>
        <time>2025-08-07T13:39:15Z</time>
      </trkpt>
      <trkpt lat="45.89267" lon="2.94851">
        <ele>826.8</ele>
        <time>2025-08-07T13:39:16Z</time>
      </trkpt>
      <trkpt lat="45.89268" lon="2.94844">
        <ele>826.6</ele>
        <time>2025-08-07T13:39:17Z</time>
      </trkpt>
      <trkpt lat="45.89269" lon="2.94837">
        <ele>826.4</ele>
        <time>2025-08-07T13:39:18Z</time>
      </trkpt>
      <trkpt lat="45.8927" lon="2.94828">
        <ele>826.2</ele>
        <time>2025-08-07T13:39:19Z</time>
      </trkpt>
      <trkpt lat="45.8927" lon="2.94818">
        <ele>826</ele>
        <time>2025-08-07T13:39:20Z</time>
      </trkpt>
      <trkpt lat="45.8927" lon="2.94808">
        <ele>825.8</ele>
        <time>2025-08-07T13:39:21Z</time>
      </trkpt>
      <trkpt lat="45.89269" lon="2.94798">
        <ele>825.4</ele>
        <time>2025-08-07T13:39:22Z</time>
      </trkpt>
      <trkpt lat="45.89267" lon="2.9479">
        <ele>825.2</ele>
        <time>2025-08-07T13:39:23Z</time>
      </trkpt>
      <trkpt lat="45.89264" lon="2.94778">
        <ele>824.8</ele>
        <time>2025-08-07T13:39:24Z</time>
      </trkpt>
      <trkpt lat="45.89262" lon="2.9477">
        <ele>824.4</ele>
        <time>2025-08-07T13:39:25Z</time>
      </trkpt>
      <trkpt lat="45.8926" lon="2.94759">
        <ele>824.4</ele>
        <time>2025-08-07T13:39:26Z</time>
      </trkpt>
      <trkpt lat="45.8926" lon="2.94748">
        <ele>824.2</ele>
        <time>2025-08-07T13:39:27Z</time>
      </trkpt>
      <trkpt lat="45.89262" lon="2.94736">
        <ele>824.2</ele>
        <time>2025-08-07T13:39:28Z</time>
      </trkpt>
      <trkpt lat="45.89263" lon="2.94727">
        <ele>824</ele>
        <time>2025-08-07T13:39:29Z</time>
      </trkpt>
      <trkpt lat="45.89265" lon="2.94717">
        <ele>824.2</ele>
        <time>2025-08-07T13:39:30Z</time>
      </trkpt>
      <trkpt lat="45.89265" lon="2.9471">
        <ele>824.2</ele>
        <time>2025-08-07T13:39:31Z</time>
      </trkpt>
      <trkpt lat="45.89266" lon="2.94703">
        <ele>824.4</ele>
        <time>2025-08-07T13:39:32Z</time>
      </trkpt>
      <trkpt lat="45.89267" lon="2.94694">
        <ele>824.6</ele>
        <time>2025-08-07T13:39:33Z</time>
      </trkpt>
      <trkpt lat="45.89268" lon="2.94686">
        <ele>824.6</ele>
        <time>2025-08-07T13:39:34Z</time>
      </trkpt>
      <trkpt lat="45.89269" lon="2.94681">
        <ele>824.6</ele>
        <time>2025-08-07T13:39:35Z</time>
      </trkpt>
      <trkpt lat="45.89271" lon="2.94674">
        <ele>824.8</ele>
        <time>2025-08-07T13:39:36Z</time>
      </trkpt>
      <trkpt lat="45.89272" lon="2.94666">
        <ele>824.8</ele>
        <time>2025-08-07T13:39:37Z</time>
      </trkpt>
      <trkpt lat="45.89273" lon="2.9466">
        <ele>825</ele>
        <time>2025-08-07T13:39:38Z</time>
      </trkpt>
      <trkpt lat="45.89274" lon="2.94652">
        <ele>825.4</ele>
        <time>2025-08-07T13:39:39Z</time>
      </trkpt>
      <trkpt lat="45.89275" lon="2.94646">
        <ele>825.6</ele>
        <time>2025-08-07T13:39:40Z</time>
      </trkpt>
      <trkpt lat="45.89276" lon="2.94639">
        <ele>825.8</ele>
        <time>2025-08-07T13:39:41Z</time>
      </trkpt>
      <trkpt lat="45.89278" lon="2.94632">
        <ele>826.2</ele>
        <time>2025-08-07T13:39:42Z</time>
      </trkpt>
      <trkpt lat="45.89279" lon="2.94625">
        <ele>826.4</ele>
        <time>2025-08-07T13:39:43Z</time>
      </trkpt>
      <trkpt lat="45.89281" lon="2.9462">
        <ele>826.6</ele>
        <time>2025-08-07T13:39:44Z</time>
      </trkpt>
      <trkpt lat="45.89282" lon="2.94614">
        <ele>826.8</ele>
        <time>2025-08-07T13:39:45Z</time>
      </trkpt>
      <trkpt lat="45.89284" lon="2.94607">
        <ele>827</ele>
        <time>2025-08-07T13:39:46Z</time>
      </trkpt>
      <trkpt lat="45.89284" lon="2.94602">
        <ele>827.4</ele>
        <time>2025-08-07T13:39:47Z</time>
      </trkpt>
      <trkpt lat="45.89286" lon="2.94597">
        <ele>827.6</ele>
        <time>2025-08-07T13:39:48Z</time>
      </trkpt>
      <trkpt lat="45.89288" lon="2.94592">
        <ele>828</ele>
        <time>2025-08-07T13:39:49Z</time>
      </trkpt>
      <trkpt lat="45.89291" lon="2.94587">
        <ele>828.2</ele>
        <time>2025-08-07T13:39:50Z</time>
      </trkpt>
      <trkpt lat="45.89293" lon="2.94581">
        <ele>828.6</ele>
        <time>2025-08-07T13:39:51Z</time>
      </trkpt>
      <trkpt lat="45.89295" lon="2.94577">
        <ele>829</ele>
        <time>2025-08-07T13:39:52Z</time>
      </trkpt>
      <trkpt lat="45.89298" lon="2.94572">
        <ele>829.6</ele>
        <time>2025-08-07T13:39:53Z</time>
      </trkpt>
      <trkpt lat="45.893" lon="2.94567">
        <ele>830</ele>
        <time>2025-08-07T13:39:54Z</time>
      </trkpt>
      <trkpt lat="45.89302" lon="2.94563">
        <ele>830.6</ele>
        <time>2025-08-07T13:39:55Z</time>
      </trkpt>
      <trkpt lat="45.89304" lon="2.94558">
        <ele>831</ele>
        <time>2025-08-07T13:39:56Z</time>
      </trkpt>
      <trkpt lat="45.89306" lon="2.94553">
        <ele>831.4</ele>
        <time>2025-08-07T13:39:57Z</time>
      </trkpt>
      <trkpt lat="45.89309" lon="2.94549">
        <ele>831.8</ele>
        <time>2025-08-07T13:39:58Z</time>
      </trkpt>
      <trkpt lat="45.89311" lon="2.94545">
        <ele>832.2</ele>
        <time>2025-08-07T13:39:59Z</time>
      </trkpt>
      <trkpt lat="45.89313" lon="2.94541">
        <ele>832.6</ele>
        <time>2025-08-07T13:40:00Z</time>
      </trkpt>
      <trkpt lat="45.89316" lon="2.94537">
        <ele>833</ele>
        <time>2025-08-07T13:40:01Z</time>
      </trkpt>
      <trkpt lat="45.89318" lon="2.94532">
        <ele>833.4</ele>
        <time>2025-08-07T13:40:02Z</time>
      </trkpt>
      <trkpt lat="45.8932" lon="2.94528">
        <ele>833.8</ele>
        <time>2025-08-07T13:40:03Z</time>
      </trkpt>
      <trkpt lat="45.89322" lon="2.94524">
        <ele>834</ele>
        <time>2025-08-07T13:40:04Z</time>
      </trkpt>
      <trkpt lat="45.89324" lon="2.94519">
        <ele>834.4</ele>
        <time>2025-08-07T13:40:05Z</time>
      </trkpt>
      <trkpt lat="45.89326" lon="2.94515">
        <ele>834.8</ele>
        <time>2025-08-07T13:40:06Z</time>
      </trkpt>
      <trkpt lat="45.89328" lon="2.9451">
        <ele>835.2</ele>
        <time>2025-08-07T13:40:07Z</time>
      </trkpt>
      <trkpt lat="45.8933" lon="2.94506">
        <ele>835.4</ele>
        <time>2025-08-07T13:40:08Z</time>
      </trkpt>
      <trkpt lat="45.89332" lon="2.94502">
        <ele>835.8</ele>
        <time>2025-08-07T13:40:09Z</time>
      </trkpt>
      <trkpt lat="45.89334" lon="2.94498">
        <ele>836.2</ele>
        <time>2025-08-07T13:40:10Z</time>
      </trkpt>
      <trkpt lat="45.89336" lon="2.94493">
        <ele>836.6</ele>
        <time>2025-08-07T13:40:11Z</time>
      </trkpt>
      <trkpt lat="45.89338" lon="2.94489">
        <ele>837</ele>
        <time>2025-08-07T13:40:12Z</time>
      </trkpt>
      <trkpt lat="45.8934" lon="2.94484">
        <ele>837.2</ele>
        <time>2025-08-07T13:40:13Z</time>
      </trkpt>
      <trkpt lat="45.89343" lon="2.9448">
        <ele>837.6</ele>
        <time>2025-08-07T13:40:14Z</time>
      </trkpt>
      <trkpt lat="45.89345" lon="2.94476">
        <ele>838</ele>
        <time>2025-08-07T13:40:15Z</time>
      </trkpt>
      <trkpt lat="45.89347" lon="2.94472">
        <ele>838.2</ele>
        <time>2025-08-07T13:40:16Z</time>
      </trkpt>
      <trkpt lat="45.89349" lon="2.94468">
        <ele>838.4</ele>
        <time>2025-08-07T13:40:17Z</time>
      </trkpt>
      <trkpt lat="45.89351" lon="2.94463">
        <ele>838.6</ele>
        <time>2025-08-07T13:40:18Z</time>
      </trkpt>
      <trkpt lat="45.89354" lon="2.94459">
        <ele>838.8</ele>
        <time>2025-08-07T13:40:19Z</time>
      </trkpt>
      <trkpt lat="45.89356" lon="2.94455">
        <ele>839</ele>
        <time>2025-08-07T13:40:20Z</time>
      </trkpt>
      <trkpt lat="45.89358" lon="2.94451">
        <ele>839.2</ele>
        <time>2025-08-07T13:40:21Z</time>
      </trkpt>
      <trkpt lat="45.89361" lon="2.94447">
        <ele>839.4</ele>
        <time>2025-08-07T13:40:22Z</time>
      </trkpt>
      <trkpt lat="45.89363" lon="2.94443">
        <ele>839.8</ele>
        <time>2025-08-07T13:40:23Z</time>
      </trkpt>
      <trkpt lat="45.89365" lon="2.94438">
        <ele>840</ele>
        <time>2025-08-07T13:40:24Z</time>
      </trkpt>
      <trkpt lat="45.89368" lon="2.94434">
        <ele>840.2</ele>
        <time>2025-08-07T13:40:25Z</time>
      </trkpt>
      <trkpt lat="45.8937" lon="2.94429">
        <ele>840.4</ele>
        <time>2025-08-07T13:40:26Z</time>
      </trkpt>
      <trkpt lat="45.89372" lon="2.94425">
        <ele>840.6</ele>
        <time>2025-08-07T13:40:27Z</time>
      </trkpt>
      <trkpt lat="45.89374" lon="2.9442">
        <ele>840.8</ele>
        <time>2025-08-07T13:40:28Z</time>
      </trkpt>
      <trkpt lat="45.89377" lon="2.94415">
        <ele>841</ele>
        <time>2025-08-07T13:40:29Z</time>
      </trkpt>
      <trkpt lat="45.89379" lon="2.9441">
        <ele>841.2</ele>
        <time>2025-08-07T13:40:30Z</time>
      </trkpt>
      <trkpt lat="45.89381" lon="2.94406">
        <ele>841.4</ele>
        <time>2025-08-07T13:40:31Z</time>
      </trkpt>
      <trkpt lat="45.89384" lon="2.94401">
        <ele>841.6</ele>
        <time>2025-08-07T13:40:32Z</time>
      </trkpt>
      <trkpt lat="45.89386" lon="2.94397">
        <ele>841.8</ele>
        <time>2025-08-07T13:40:33Z</time>
      </trkpt>
      <trkpt lat="45.89388" lon="2.94392">
        <ele>842</ele>
        <time>2025-08-07T13:40:34Z</time>
      </trkpt>
      <trkpt lat="45.8939" lon="2.94388">
        <ele>842.4</ele>
        <time>2025-08-07T13:40:35Z</time>
      </trkpt>
      <trkpt lat="45.89392" lon="2.94383">
        <ele>842.6</ele>
        <time>2025-08-07T13:40:36Z</time>
      </trkpt>
      <trkpt lat="45.89394" lon="2.94379">
        <ele>842.8</ele>
        <time>2025-08-07T13:40:37Z</time>
      </trkpt>
      <trkpt lat="45.89397" lon="2.94374">
        <ele>843.2</ele>
        <time>2025-08-07T13:40:38Z</time>
      </trkpt>
      <trkpt lat="45.89399" lon="2.9437">
        <ele>843.4</ele>
        <time>2025-08-07T13:40:39Z</time>
      </trkpt>
      <trkpt lat="45.89401" lon="2.94366">
        <ele>843.8</ele>
        <time>2025-08-07T13:40:40Z</time>
      </trkpt>
      <trkpt lat="45.89404" lon="2.94362">
        <ele>844</ele>
        <time>2025-08-07T13:40:41Z</time>
      </trkpt>
      <trkpt lat="45.89407" lon="2.94359">
        <ele>844.4</ele>
        <time>2025-08-07T13:40:42Z</time>
      </trkpt>
      <trkpt lat="45.89409" lon="2.94356">
        <ele>844.6</ele>
        <time>2025-08-07T13:40:43Z</time>
      </trkpt>
      <trkpt lat="45.89412" lon="2.94352">
        <ele>845</ele>
        <time>2025-08-07T13:40:44Z</time>
      </trkpt>
      <trkpt lat="45.89415" lon="2.94349">
        <ele>845.2</ele>
        <time>2025-08-07T13:40:45Z</time>
      </trkpt>
      <trkpt lat="45.89417" lon="2.94346">
        <ele>845.6</ele>
        <time>2025-08-07T13:40:46Z</time>
      </trkpt>
      <trkpt lat="45.8942" lon="2.94343">
        <ele>846</ele>
        <time>2025-08-07T13:40:47Z</time>
      </trkpt>
      <trkpt lat="45.89423" lon="2.9434">
        <ele>846.2</ele>
        <time>2025-08-07T13:40:48Z</time>
      </trkpt>
      <trkpt lat="45.89425" lon="2.94338">
        <ele>846.6</ele>
        <time>2025-08-07T13:40:49Z</time>
      </trkpt>
      <trkpt lat="45.89428" lon="2.94336">
        <ele>847</ele>
        <time>2025-08-07T13:40:50Z</time>
      </trkpt>
      <trkpt lat="45.8943" lon="2.94333">
        <ele>847.2</ele>
        <time>2025-08-07T13:40:51Z</time>
      </trkpt>
      <trkpt lat="45.89432" lon="2.94331">
        <ele>847.6</ele>
        <time>2025-08-07T13:40:52Z</time>
      </trkpt>
      <trkpt lat="45.89435" lon="2.94328">
        <ele>848</ele>
        <time>2025-08-07T13:40:53Z</time>
      </trkpt>
      <trkpt lat="45.89437" lon="2.94326">
        <ele>848.4</ele>
        <time>2025-08-07T13:40:54Z</time>
      </trkpt>
      <trkpt lat="45.89439" lon="2.94323">
        <ele>848.6</ele>
        <time>2025-08-07T13:40:55Z</time>
      </trkpt>
      <trkpt lat="45.89442" lon="2.94321">
        <ele>848.8</ele>
        <time>2025-08-07T13:40:56Z</time>
      </trkpt>
      <trkpt lat="45.89445" lon="2.94318">
        <ele>849.2</ele>
        <time>2025-08-07T13:40:57Z</time>
      </trkpt>
      <trkpt lat="45.89447" lon="2.94314">
        <ele>849.4</ele>
        <time>2025-08-07T13:40:58Z</time>
      </trkpt>
      <trkpt lat="45.89449" lon="2.94311">
        <ele>849.6</ele>
        <time>2025-08-07T13:40:59Z</time>
      </trkpt>
      <trkpt lat="45.89451" lon="2.94307">
        <ele>849.8</ele>
        <time>2025-08-07T13:41:00Z</time>
      </trkpt>
      <trkpt lat="45.89453" lon="2.94303">
        <ele>850</ele>
        <time>2025-08-07T13:41:01Z</time>
      </trkpt>
      <trkpt lat="45.89455" lon="2.94299">
        <ele>850.2</ele>
        <time>2025-08-07T13:41:02Z</time>
      </trkpt>
      <trkpt lat="45.89457" lon="2.94295">
        <ele>850.4</ele>
        <time>2025-08-07T13:41:03Z</time>
      </trkpt>
      <trkpt lat="45.8946" lon="2.94291">
        <ele>850.6</ele>
        <time>2025-08-07T13:41:04Z</time>
      </trkpt>
      <trkpt lat="45.89462" lon="2.94288">
        <ele>850.6</ele>
        <time>2025-08-07T13:41:05Z</time>
      </trkpt>
      <trkpt lat="45.89465" lon="2.94285">
        <ele>850.8</ele>
        <time>2025-08-07T13:41:06Z</time>
      </trkpt>
      <trkpt lat="45.89468" lon="2.94282">
        <ele>851</ele>
        <time>2025-08-07T13:41:07Z</time>
      </trkpt>
      <trkpt lat="45.89471" lon="2.94278">
        <ele>851.2</ele>
        <time>2025-08-07T13:41:08Z</time>
      </trkpt>
      <trkpt lat="45.89472" lon="2.94273">
        <ele>851.2</ele>
        <time>2025-08-07T13:41:09Z</time>
      </trkpt>
      <trkpt lat="45.89471" lon="2.94268">
        <ele>851.4</ele>
        <time>2025-08-07T13:41:10Z</time>
      </trkpt>
      <trkpt lat="45.8947" lon="2.94264">
        <ele>851.4</ele>
        <time>2025-08-07T13:41:11Z</time>
      </trkpt>
      <trkpt lat="45.89469" lon="2.9426">
        <ele>851.6</ele>
        <time>2025-08-07T13:41:12Z</time>
      </trkpt>
      <trkpt lat="45.89468" lon="2.94256">
        <ele>851.8</ele>
        <time>2025-08-07T13:41:13Z</time>
      </trkpt>
      <trkpt lat="45.89466" lon="2.94251">
        <ele>852</ele>
        <time>2025-08-07T13:41:14Z</time>
      </trkpt>
      <trkpt lat="45.89465" lon="2.94246">
        <ele>852.2</ele>
        <time>2025-08-07T13:41:15Z</time>
      </trkpt>
      <trkpt lat="45.89463" lon="2.94241">
        <ele>852.6</ele>
        <time>2025-08-07T13:41:16Z</time>
      </trkpt>
      <trkpt lat="45.89462" lon="2.94236">
        <ele>852.8</ele>
        <time>2025-08-07T13:41:17Z</time>
      </trkpt>
      <trkpt lat="45.8946" lon="2.94231">
        <ele>853</ele>
        <time>2025-08-07T13:41:18Z</time>
      </trkpt>
      <trkpt lat="45.89458" lon="2.94226">
        <ele>853.2</ele>
        <time>2025-08-07T13:41:19Z</time>
      </trkpt>
      <trkpt lat="45.89457" lon="2.94222">
        <ele>853.6</ele>
        <time>2025-08-07T13:41:20Z</time>
      </trkpt>
      <trkpt lat="45.89455" lon="2.94217">
        <ele>853.8</ele>
        <time>2025-08-07T13:41:21Z</time>
      </trkpt>
      <trkpt lat="45.89454" lon="2.94212">
        <ele>854</ele>
        <time>2025-08-07T13:41:22Z</time>
      </trkpt>
      <trkpt lat="45.89451" lon="2.94209">
        <ele>854.2</ele>
        <time>2025-08-07T13:41:23Z</time>
      </trkpt>
      <trkpt lat="45.89449" lon="2.94204">
        <ele>854.6</ele>
        <time>2025-08-07T13:41:24Z</time>
      </trkpt>
      <trkpt lat="45.89446" lon="2.942">
        <ele>855</ele>
        <time>2025-08-07T13:41:25Z</time>
      </trkpt>
      <trkpt lat="45.89443" lon="2.94196">
        <ele>855.2</ele>
        <time>2025-08-07T13:41:26Z</time>
      </trkpt>
      <trkpt lat="45.8944" lon="2.94194">
        <ele>855.6</ele>
        <time>2025-08-07T13:41:27Z</time>
      </trkpt>
      <trkpt lat="45.89436" lon="2.94192">
        <ele>855.8</ele>
        <time>2025-08-07T13:41:28Z</time>
      </trkpt>
      <trkpt lat="45.89433" lon="2.94189">
        <ele>856</ele>
        <time>2025-08-07T13:41:29Z</time>
      </trkpt>
      <trkpt lat="45.89429" lon="2.94187">
        <ele>856.4</ele>
        <time>2025-08-07T13:41:30Z</time>
      </trkpt>
      <trkpt lat="45.89426" lon="2.94184">
        <ele>856.6</ele>
        <time>2025-08-07T13:41:31Z</time>
      </trkpt>
      <trkpt lat="45.89422" lon="2.94181">
        <ele>857</ele>
        <time>2025-08-07T13:41:32Z</time>
      </trkpt>
      <trkpt lat="45.89419" lon="2.94178">
        <ele>857.2</ele>
        <time>2025-08-07T13:41:33Z</time>
      </trkpt>
      <trkpt lat="45.89416" lon="2.94175">
        <ele>857.6</ele>
        <time>2025-08-07T13:41:34Z</time>
      </trkpt>
      <trkpt lat="45.89413" lon="2.94173">
        <ele>857.8</ele>
        <time>2025-08-07T13:41:35Z</time>
      </trkpt>
      <trkpt lat="45.8941" lon="2.9417">
        <ele>858.2</ele>
        <time>2025-08-07T13:41:36Z</time>
      </trkpt>
      <trkpt lat="45.89406" lon="2.94167">
        <ele>858.6</ele>
        <time>2025-08-07T13:41:37Z</time>
      </trkpt>
      <trkpt lat="45.89403" lon="2.94165">
        <ele>858.8</ele>
        <time>2025-08-07T13:41:38Z</time>
      </trkpt>
      <trkpt lat="45.894" lon="2.94163">
        <ele>859.2</ele>
        <time>2025-08-07T13:41:39Z</time>
      </trkpt>
      <trkpt lat="45.89398" lon="2.9416">
        <ele>859.6</ele>
        <time>2025-08-07T13:41:40Z</time>
      </trkpt>
      <trkpt lat="45.89395" lon="2.94159">
        <ele>859.8</ele>
        <time>2025-08-07T13:41:41Z</time>
      </trkpt>
      <trkpt lat="45.89392" lon="2.94157">
        <ele>860.2</ele>
        <time>2025-08-07T13:41:42Z</time>
      </trkpt>
      <trkpt lat="45.89389" lon="2.94156">
        <ele>860.4</ele>
        <time>2025-08-07T13:41:43Z</time>
      </trkpt>
      <trkpt lat="45.89385" lon="2.94154">
        <ele>860.6</ele>
        <time>2025-08-07T13:41:44Z</time>
      </trkpt>
      <trkpt lat="45.89382" lon="2.94152">
        <ele>860.8</ele>
        <time>2025-08-07T13:41:45Z</time>
      </trkpt>
      <trkpt lat="45.8938" lon="2.9415">
        <ele>861</ele>
        <time>2025-08-07T13:41:46Z</time>
      </trkpt>
      <trkpt lat="45.89377" lon="2.94147">
        <ele>861</ele>
        <time>2025-08-07T13:41:47Z</time>
      </trkpt>
      <trkpt lat="45.89374" lon="2.94144">
        <ele>861.2</ele>
        <time>2025-08-07T13:41:48Z</time>
      </trkpt>
      <trkpt lat="45.8937" lon="2.94141">
        <ele>861.2</ele>
        <time>2025-08-07T13:41:49Z</time>
      </trkpt>
      <trkpt lat="45.89367" lon="2.94137">
        <ele>861.2</ele>
        <time>2025-08-07T13:41:50Z</time>
      </trkpt>
      <trkpt lat="45.89364" lon="2.94135">
        <ele>861.4</ele>
        <time>2025-08-07T13:41:51Z</time>
      </trkpt>
      <trkpt lat="45.89361" lon="2.94132">
        <ele>861.4</ele>
        <time>2025-08-07T13:41:52Z</time>
      </trkpt>
      <trkpt lat="45.89359" lon="2.94129">
        <ele>861.6</ele>
        <time>2025-08-07T13:41:53Z</time>
      </trkpt>
      <trkpt lat="45.89358" lon="2.94126">
        <ele>861.8</ele>
        <time>2025-08-07T13:41:54Z</time>
      </trkpt>
      <trkpt lat="45.89356" lon="2.94122">
        <ele>862.2</ele>
        <time>2025-08-07T13:41:55Z</time>
      </trkpt>
      <trkpt lat="45.89354" lon="2.94118">
        <ele>862.4</ele>
        <time>2025-08-07T13:41:56Z</time>
      </trkpt>
      <trkpt lat="45.89352" lon="2.94113">
        <ele>862.8</ele>
        <time>2025-08-07T13:41:57Z</time>
      </trkpt>
      <trkpt lat="45.89351" lon="2.9411">
        <ele>863</ele>
        <time>2025-08-07T13:41:58Z</time>
      </trkpt>
      <trkpt lat="45.8935" lon="2.94106">
        <ele>863.4</ele>
        <time>2025-08-07T13:41:59Z</time>
      </trkpt>
      <trkpt lat="45.8935" lon="2.94102">
        <ele>863.6</ele>
        <time>2025-08-07T13:42:00Z</time>
      </trkpt>
      <trkpt lat="45.8935" lon="2.94098">
        <ele>863.8</ele>
        <time>2025-08-07T13:42:01Z</time>
      </trkpt>
      <trkpt lat="45.8935" lon="2.94094">
        <ele>864.2</ele>
        <time>2025-08-07T13:42:02Z</time>
      </trkpt>
      <trkpt lat="45.89348" lon="2.94091">
        <ele>864.2</ele>
        <time>2025-08-07T13:42:03Z</time>
      </trkpt>
      <trkpt lat="45.89346" lon="2.94091">
        <ele>864.4</ele>
        <time>2025-08-07T13:42:04Z</time>
      </trkpt>
      <trkpt lat="45.89344" lon="2.94093">
        <ele>864.2</ele>
        <time>2025-08-07T13:42:05Z</time>
      </trkpt>
      <trkpt lat="45.89343" lon="2.94094">
        <ele>864</ele>
        <time>2025-08-07T13:42:06Z</time>
      </trkpt>
      <trkpt lat="45.89343" lon="2.94096">
        <ele>864</ele>
        <time>2025-08-07T13:42:07Z</time>
      </trkpt>
      <trkpt lat="45.89344" lon="2.94099">
        <ele>863.8</ele>
        <time>2025-08-07T13:42:08Z</time>
      </trkpt>
      <trkpt lat="45.89346" lon="2.94101">
        <ele>863.8</ele>
        <time>2025-08-07T13:42:09Z</time>
      </trkpt>
      <trkpt lat="45.89348" lon="2.94104">
        <ele>863.6</ele>
        <time>2025-08-07T13:42:10Z</time>
      </trkpt>
      <trkpt lat="45.8935" lon="2.94107">
        <ele>863.6</ele>
        <time>2025-08-07T13:42:11Z</time>
      </trkpt>
      <trkpt lat="45.89351" lon="2.9411">
        <ele>863.4</ele>
        <time>2025-08-07T13:42:12Z</time>
      </trkpt>
      <trkpt lat="45.89353" lon="2.94112">
        <ele>863.2</ele>
        <time>2025-08-07T13:42:13Z</time>
      </trkpt>
      <trkpt lat="45.89354" lon="2.94114">
        <ele>863</ele>
        <time>2025-08-07T13:42:14Z</time>
      </trkpt>
      <trkpt lat="45.89355" lon="2.94116">
        <ele>862.6</ele>
        <time>2025-08-07T13:42:15Z</time>
      </trkpt>
      <trkpt lat="45.89356" lon="2.94118">
        <ele>862.4</ele>
        <time>2025-08-07T13:42:16Z</time>
      </trkpt>
      <trkpt lat="45.89356" lon="2.94119">
        <ele>862</ele>
        <time>2025-08-07T13:42:17Z</time>
      </trkpt>
      <trkpt lat="45.89357" lon="2.9412">
        <ele>861.8</ele>
        <time>2025-08-07T13:42:18Z</time>
      </trkpt>
      <trkpt lat="45.89356" lon="2.94121">
        <ele>861.6</ele>
        <time>2025-08-07T13:42:19Z</time>
      </trkpt>
      <trkpt lat="45.89355" lon="2.94121">
        <ele>861.6</ele>
        <time>2025-08-07T13:42:20Z</time>
      </trkpt>
      <trkpt lat="45.89354" lon="2.9412">
        <ele>861.6</ele>
        <time>2025-08-07T13:42:21Z</time>
      </trkpt>
      <trkpt lat="45.89353" lon="2.94118">
        <ele>861.6</ele>
        <time>2025-08-07T13:42:22Z</time>
      </trkpt>
      <trkpt lat="45.8935" lon="2.94115">
        <ele>861.6</ele>
        <time>2025-08-07T13:42:23Z</time>
      </trkpt>
      <trkpt lat="45.89346" lon="2.94113">
        <ele>861.6</ele>
        <time>2025-08-07T13:42:24Z</time>
      </trkpt>
      <trkpt lat="45.89342" lon="2.94112">
        <ele>861.6</ele>
        <time>2025-08-07T13:42:25Z</time>
      </trkpt>
      <trkpt lat="45.89336" lon="2.94111">
        <ele>861.6</ele>
        <time>2025-08-07T13:42:26Z</time>
      </trkpt>
      <trkpt lat="45.89331" lon="2.9411">
        <ele>861.6</ele>
        <time>2025-08-07T13:42:27Z</time>
      </trkpt>
      <trkpt lat="45.89326" lon="2.94107">
        <ele>861.6</ele>
        <time>2025-08-07T13:42:28Z</time>
      </trkpt>
      <trkpt lat="45.89321" lon="2.94104">
        <ele>861.4</ele>
        <time>2025-08-07T13:42:29Z</time>
      </trkpt>
      <trkpt lat="45.89315" lon="2.941">
        <ele>861.4</ele>
        <time>2025-08-07T13:42:30Z</time>
      </trkpt>
      <trkpt lat="45.8931" lon="2.94095">
        <ele>861.2</ele>
        <time>2025-08-07T13:42:31Z</time>
      </trkpt>
      <trkpt lat="45.89306" lon="2.94089">
        <ele>861.2</ele>
        <time>2025-08-07T13:42:32Z</time>
      </trkpt>
      <trkpt lat="45.89302" lon="2.94084">
        <ele>861.2</ele>
        <time>2025-08-07T13:42:33Z</time>
      </trkpt>
      <trkpt lat="45.89298" lon="2.94077">
        <ele>861.2</ele>
        <time>2025-08-07T13:42:34Z</time>
      </trkpt>
      <trkpt lat="45.89295" lon="2.9407">
        <ele>861.4</ele>
        <time>2025-08-07T13:42:35Z</time>
      </trkpt>
      <trkpt lat="45.89292" lon="2.94062">
        <ele>861.4</ele>
        <time>2025-08-07T13:42:36Z</time>
      </trkpt>
      <trkpt lat="45.8929" lon="2.94054">
        <ele>861.4</ele>
        <time>2025-08-07T13:42:37Z</time>
      </trkpt>
      <trkpt lat="45.89289" lon="2.94045">
        <ele>861.6</ele>
        <time>2025-08-07T13:42:38Z</time>
      </trkpt>
      <trkpt lat="45.89288" lon="2.94037">
        <ele>861.6</ele>
        <time>2025-08-07T13:42:39Z</time>
      </trkpt>
      <trkpt lat="45.89287" lon="2.94029">
        <ele>861.6</ele>
        <time>2025-08-07T13:42:40Z</time>
      </trkpt>
      <trkpt lat="45.89286" lon="2.94021">
        <ele>861.6</ele>
        <time>2025-08-07T13:42:41Z</time>
      </trkpt>
      <trkpt lat="45.89285" lon="2.94013">
        <ele>861.6</ele>
        <time>2025-08-07T13:42:42Z</time>
      </trkpt>
      <trkpt lat="45.89285" lon="2.94004">
        <ele>861.6</ele>
        <time>2025-08-07T13:42:43Z</time>
      </trkpt>
      <trkpt lat="45.89285" lon="2.93996">
        <ele>861.8</ele>
        <time>2025-08-07T13:42:44Z</time>
      </trkpt>
      <trkpt lat="45.89284" lon="2.93988">
        <ele>861.8</ele>
        <time>2025-08-07T13:42:45Z</time>
      </trkpt>
      <trkpt lat="45.89284" lon="2.93979">
        <ele>861.8</ele>
        <time>2025-08-07T13:42:46Z</time>
      </trkpt>
      <trkpt lat="45.89283" lon="2.93971">
        <ele>861.6</ele>
        <time>2025-08-07T13:42:47Z</time>
      </trkpt>
      <trkpt lat="45.89283" lon="2.93963">
        <ele>861.6</ele>
        <time>2025-08-07T13:42:48Z</time>
      </trkpt>
      <trkpt lat="45.89282" lon="2.93955">
        <ele>861.8</ele>
        <time>2025-08-07T13:42:49Z</time>
      </trkpt>
      <trkpt lat="45.89281" lon="2.93947">
        <ele>862</ele>
        <time>2025-08-07T13:42:50Z</time>
      </trkpt>
      <trkpt lat="45.8928" lon="2.93939">
        <ele>862</ele>
        <time>2025-08-07T13:42:51Z</time>
      </trkpt>
      <trkpt lat="45.8928" lon="2.93931">
        <ele>862</ele>
        <time>2025-08-07T13:42:52Z</time>
      </trkpt>
      <trkpt lat="45.8928" lon="2.93923">
        <ele>861.8</ele>
        <time>2025-08-07T13:42:53Z</time>
      </trkpt>
      <trkpt lat="45.89279" lon="2.93915">
        <ele>861.8</ele>
        <time>2025-08-07T13:42:54Z</time>
      </trkpt>
      <trkpt lat="45.89279" lon="2.93907">
        <ele>862</ele>
        <time>2025-08-07T13:42:55Z</time>
      </trkpt>
      <trkpt lat="45.89278" lon="2.93899">
        <ele>862</ele>
        <time>2025-08-07T13:42:56Z</time>
      </trkpt>
      <trkpt lat="45.89278" lon="2.9389">
        <ele>861.8</ele>
        <time>2025-08-07T13:42:57Z</time>
      </trkpt>
      <trkpt lat="45.89277" lon="2.93883">
        <ele>861.8</ele>
        <time>2025-08-07T13:42:58Z</time>
      </trkpt>
      <trkpt lat="45.89276" lon="2.93874">
        <ele>861.8</ele>
        <time>2025-08-07T13:42:59Z</time>
      </trkpt>
      <trkpt lat="45.89275" lon="2.93866">
        <ele>861.6</ele>
        <time>2025-08-07T13:43:00Z</time>
      </trkpt>
      <trkpt lat="45.89273" lon="2.93858">
        <ele>861.6</ele>
        <time>2025-08-07T13:43:01Z</time>
      </trkpt>
      <trkpt lat="45.89272" lon="2.93851">
        <ele>861.4</ele>
        <time>2025-08-07T13:43:02Z</time>
      </trkpt>
      <trkpt lat="45.89271" lon="2.93843">
        <ele>861.4</ele>
        <time>2025-08-07T13:43:03Z</time>
      </trkpt>
      <trkpt lat="45.89269" lon="2.93836">
        <ele>861.2</ele>
        <time>2025-08-07T13:43:04Z</time>
      </trkpt>
      <trkpt lat="45.89269" lon="2.93828">
        <ele>861</ele>
        <time>2025-08-07T13:43:05Z</time>
      </trkpt>
      <trkpt lat="45.89267" lon="2.93821">
        <ele>860.8</ele>
        <time>2025-08-07T13:43:06Z</time>
      </trkpt>
      <trkpt lat="45.89267" lon="2.93814">
        <ele>860.8</ele>
        <time>2025-08-07T13:43:07Z</time>
      </trkpt>
      <trkpt lat="45.89267" lon="2.93807">
        <ele>860.8</ele>
        <time>2025-08-07T13:43:08Z</time>
      </trkpt>
      <trkpt lat="45.89267" lon="2.938">
        <ele>860.8</ele>
        <time>2025-08-07T13:43:09Z</time>
      </trkpt>
      <trkpt lat="45.89267" lon="2.93792">
        <ele>860.6</ele>
        <time>2025-08-07T13:43:10Z</time>
      </trkpt>
      <trkpt lat="45.89268" lon="2.93785">
        <ele>860.6</ele>
        <time>2025-08-07T13:43:11Z</time>
      </trkpt>
      <trkpt lat="45.89268" lon="2.93778">
        <ele>860.6</ele>
        <time>2025-08-07T13:43:12Z</time>
      </trkpt>
      <trkpt lat="45.89268" lon="2.93772">
        <ele>860.4</ele>
        <time>2025-08-07T13:43:13Z</time>
      </trkpt>
      <trkpt lat="45.89268" lon="2.93766">
        <ele>860.4</ele>
        <time>2025-08-07T13:43:14Z</time>
      </trkpt>
      <trkpt lat="45.89268" lon="2.9376">
        <ele>860.4</ele>
        <time>2025-08-07T13:43:15Z</time>
      </trkpt>
      <trkpt lat="45.89268" lon="2.93756">
        <ele>860.2</ele>
        <time>2025-08-07T13:43:16Z</time>
      </trkpt>
      <trkpt lat="45.89268" lon="2.93753">
        <ele>860.2</ele>
        <time>2025-08-07T13:43:17Z</time>
      </trkpt>
      <trkpt lat="45.89268" lon="2.9375">
        <ele>860.2</ele>
        <time>2025-08-07T13:43:18Z</time>
      </trkpt>
      <trkpt lat="45.89268" lon="2.93746">
        <ele>860.4</ele>
        <time>2025-08-07T13:43:19Z</time>
      </trkpt>
      <trkpt lat="45.89267" lon="2.93741">
        <ele>860.4</ele>
        <time>2025-08-07T13:43:20Z</time>
      </trkpt>
      <trkpt lat="45.89265" lon="2.93735">
        <ele>860.4</ele>
        <time>2025-08-07T13:43:21Z</time>
      </trkpt>
      <trkpt lat="45.89263" lon="2.9373">
        <ele>860.6</ele>
        <time>2025-08-07T13:43:22Z</time>
      </trkpt>
      <trkpt lat="45.8926" lon="2.93723">
        <ele>860.6</ele>
        <time>2025-08-07T13:43:23Z</time>
      </trkpt>
      <trkpt lat="45.89258" lon="2.93716">
        <ele>860.6</ele>
        <time>2025-08-07T13:43:24Z</time>
      </trkpt>
      <trkpt lat="45.89255" lon="2.93708">
        <ele>860.6</ele>
        <time>2025-08-07T13:43:25Z</time>
      </trkpt>
      <trkpt lat="45.89253" lon="2.93699">
        <ele>860.6</ele>
        <time>2025-08-07T13:43:26Z</time>
      </trkpt>
      <trkpt lat="45.89252" lon="2.93691">
        <ele>860.6</ele>
        <time>2025-08-07T13:43:27Z</time>
      </trkpt>
      <trkpt lat="45.8925" lon="2.93682">
        <ele>860.6</ele>
        <time>2025-08-07T13:43:28Z</time>
      </trkpt>
      <trkpt lat="45.89248" lon="2.93673">
        <ele>860.6</ele>
        <time>2025-08-07T13:43:29Z</time>
      </trkpt>
      <trkpt lat="45.89246" lon="2.93666">
        <ele>860.4</ele>
        <time>2025-08-07T13:43:30Z</time>
      </trkpt>
      <trkpt lat="45.89244" lon="2.93658">
        <ele>860.2</ele>
        <time>2025-08-07T13:43:31Z</time>
      </trkpt>
      <trkpt lat="45.89242" lon="2.93651">
        <ele>860.2</ele>
        <time>2025-08-07T13:43:32Z</time>
      </trkpt>
      <trkpt lat="45.89239" lon="2.93643">
        <ele>860</ele>
        <time>2025-08-07T13:43:33Z</time>
      </trkpt>
      <trkpt lat="45.89237" lon="2.93637">
        <ele>859.6</ele>
        <time>2025-08-07T13:43:34Z</time>
      </trkpt>
      <trkpt lat="45.89233" lon="2.93633">
        <ele>859.4</ele>
        <time>2025-08-07T13:43:35Z</time>
      </trkpt>
      <trkpt lat="45.89229" lon="2.93632">
        <ele>859.2</ele>
        <time>2025-08-07T13:43:36Z</time>
      </trkpt>
      <trkpt lat="45.89224" lon="2.93633">
        <ele>859</ele>
        <time>2025-08-07T13:43:37Z</time>
      </trkpt>
      <trkpt lat="45.89218" lon="2.93634">
        <ele>858.8</ele>
        <time>2025-08-07T13:43:38Z</time>
      </trkpt>
      <trkpt lat="45.89211" lon="2.93637">
        <ele>858.6</ele>
        <time>2025-08-07T13:43:39Z</time>
      </trkpt>
      <trkpt lat="45.89205" lon="2.9364">
        <ele>858.4</ele>
        <time>2025-08-07T13:43:40Z</time>
      </trkpt>
      <trkpt lat="45.89198" lon="2.93644">
        <ele>858.2</ele>
        <time>2025-08-07T13:43:41Z</time>
      </trkpt>
      <trkpt lat="45.89191" lon="2.93647">
        <ele>857.8</ele>
        <time>2025-08-07T13:43:42Z</time>
      </trkpt>
      <trkpt lat="45.89185" lon="2.93649">
        <ele>857.6</ele>
        <time>2025-08-07T13:43:43Z</time>
      </trkpt>
      <trkpt lat="45.89177" lon="2.93652">
        <ele>857.4</ele>
        <time>2025-08-07T13:43:44Z</time>
      </trkpt>
      <trkpt lat="45.8917" lon="2.93655">
        <ele>857.2</ele>
        <time>2025-08-07T13:43:45Z</time>
      </trkpt>
      <trkpt lat="45.89163" lon="2.93657">
        <ele>857</ele>
        <time>2025-08-07T13:43:46Z</time>
      </trkpt>
      <trkpt lat="45.89156" lon="2.9366">
        <ele>856.6</ele>
        <time>2025-08-07T13:43:47Z</time>
      </trkpt>
      <trkpt lat="45.89148" lon="2.93662">
        <ele>856.4</ele>
        <time>2025-08-07T13:43:48Z</time>
      </trkpt>
      <trkpt lat="45.89141" lon="2.93665">
        <ele>856</ele>
        <time>2025-08-07T13:43:49Z</time>
      </trkpt>
      <trkpt lat="45.89134" lon="2.93668">
        <ele>855.6</ele>
        <time>2025-08-07T13:43:50Z</time>
      </trkpt>
      <trkpt lat="45.89127" lon="2.93671">
        <ele>855.2</ele>
        <time>2025-08-07T13:43:51Z</time>
      </trkpt>
      <trkpt lat="45.8912" lon="2.93674">
        <ele>855</ele>
        <time>2025-08-07T13:43:52Z</time>
      </trkpt>
      <trkpt lat="45.89114" lon="2.93677">
        <ele>854.6</ele>
        <time>2025-08-07T13:43:53Z</time>
      </trkpt>
      <trkpt lat="45.89107" lon="2.93681">
        <ele>854.4</ele>
        <time>2025-08-07T13:43:54Z</time>
      </trkpt>
      <trkpt lat="45.891" lon="2.93684">
        <ele>854.2</ele>
        <time>2025-08-07T13:43:55Z</time>
      </trkpt>
      <trkpt lat="45.89093" lon="2.93687">
        <ele>854</ele>
        <time>2025-08-07T13:43:56Z</time>
      </trkpt>
      <trkpt lat="45.89086" lon="2.9369">
        <ele>853.8</ele>
        <time>2025-08-07T13:43:57Z</time>
      </trkpt>
      <trkpt lat="45.8908" lon="2.93693">
        <ele>853.6</ele>
        <time>2025-08-07T13:43:58Z</time>
      </trkpt>
      <trkpt lat="45.89073" lon="2.93696">
        <ele>853.4</ele>
        <time>2025-08-07T13:43:59Z</time>
      </trkpt>
      <trkpt lat="45.89067" lon="2.93699">
        <ele>853.2</ele>
        <time>2025-08-07T13:44:00Z</time>
      </trkpt>
      <trkpt lat="45.8906" lon="2.93702">
        <ele>853.2</ele>
        <time>2025-08-07T13:44:01Z</time>
      </trkpt>
      <trkpt lat="45.89054" lon="2.93705">
        <ele>853</ele>
        <time>2025-08-07T13:44:02Z</time>
      </trkpt>
      <trkpt lat="45.89047" lon="2.93708">
        <ele>852.8</ele>
        <time>2025-08-07T13:44:03Z</time>
      </trkpt>
      <trkpt lat="45.8904" lon="2.93711">
        <ele>852.8</ele>
        <time>2025-08-07T13:44:04Z</time>
      </trkpt>
      <trkpt lat="45.89034" lon="2.93715">
        <ele>852.8</ele>
        <time>2025-08-07T13:44:05Z</time>
      </trkpt>
      <trkpt lat="45.89028" lon="2.93718">
        <ele>852.6</ele>
        <time>2025-08-07T13:44:06Z</time>
      </trkpt>
      <trkpt lat="45.89022" lon="2.93721">
        <ele>852.4</ele>
        <time>2025-08-07T13:44:07Z</time>
      </trkpt>
      <trkpt lat="45.89015" lon="2.93724">
        <ele>852.4</ele>
        <time>2025-08-07T13:44:08Z</time>
      </trkpt>
      <trkpt lat="45.89009" lon="2.93727">
        <ele>852.2</ele>
        <time>2025-08-07T13:44:09Z</time>
      </trkpt>
      <trkpt lat="45.89002" lon="2.9373">
        <ele>852.2</ele>
        <time>2025-08-07T13:44:10Z</time>
      </trkpt>
      <trkpt lat="45.88996" lon="2.93733">
        <ele>852</ele>
        <time>2025-08-07T13:44:11Z</time>
      </trkpt>
      <trkpt lat="45.8899" lon="2.93736">
        <ele>851.8</ele>
        <time>2025-08-07T13:44:12Z</time>
      </trkpt>
      <trkpt lat="45.88984" lon="2.93738">
        <ele>851.6</ele>
        <time>2025-08-07T13:44:13Z</time>
      </trkpt>
      <trkpt lat="45.88977" lon="2.93741">
        <ele>851.4</ele>
        <time>2025-08-07T13:44:14Z</time>
      </trkpt>
      <trkpt lat="45.88971" lon="2.93743">
        <ele>851.2</ele>
        <time>2025-08-07T13:44:15Z</time>
      </trkpt>
      <trkpt lat="45.88964" lon="2.93745">
        <ele>851.2</ele>
        <time>2025-08-07T13:44:16Z</time>
      </trkpt>
      <trkpt lat="45.88957" lon="2.93746">
        <ele>850.8</ele>
        <time>2025-08-07T13:44:17Z</time>
      </trkpt>
      <trkpt lat="45.8895" lon="2.93746">
        <ele>850.6</ele>
        <time>2025-08-07T13:44:18Z</time>
      </trkpt>
      <trkpt lat="45.88943" lon="2.93747">
        <ele>850.4</ele>
        <time>2025-08-07T13:44:19Z</time>
      </trkpt>
      <trkpt lat="45.88935" lon="2.93747">
        <ele>850.2</ele>
        <time>2025-08-07T13:44:20Z</time>
      </trkpt>
      <trkpt lat="45.88929" lon="2.93748">
        <ele>850</ele>
        <time>2025-08-07T13:44:21Z</time>
      </trkpt>
      <trkpt lat="45.88921" lon="2.93748">
        <ele>849.6</ele>
        <time>2025-08-07T13:44:22Z</time>
      </trkpt>
      <trkpt lat="45.88914" lon="2.93748">
        <ele>849.4</ele>
        <time>2025-08-07T13:44:23Z</time>
      </trkpt>
      <trkpt lat="45.88907" lon="2.93748">
        <ele>849.2</ele>
        <time>2025-08-07T13:44:24Z</time>
      </trkpt>
      <trkpt lat="45.889" lon="2.93747">
        <ele>848.8</ele>
        <time>2025-08-07T13:44:25Z</time>
      </trkpt>
      <trkpt lat="45.88892" lon="2.93745">
        <ele>848.4</ele>
        <time>2025-08-07T13:44:26Z</time>
      </trkpt>
      <trkpt lat="45.88885" lon="2.93743">
        <ele>848</ele>
        <time>2025-08-07T13:44:27Z</time>
      </trkpt>
      <trkpt lat="45.88877" lon="2.93741">
        <ele>847.6</ele>
        <time>2025-08-07T13:44:28Z</time>
      </trkpt>
      <trkpt lat="45.8887" lon="2.93738">
        <ele>847.4</ele>
        <time>2025-08-07T13:44:29Z</time>
      </trkpt>
      <trkpt lat="45.88863" lon="2.93736">
        <ele>847.2</ele>
        <time>2025-08-07T13:44:30Z</time>
      </trkpt>
      <trkpt lat="45.88856" lon="2.93734">
        <ele>846.8</ele>
        <time>2025-08-07T13:44:31Z</time>
      </trkpt>
      <trkpt lat="45.88848" lon="2.93732">
        <ele>846.6</ele>
        <time>2025-08-07T13:44:32Z</time>
      </trkpt>
      <trkpt lat="45.88841" lon="2.93731">
        <ele>846.6</ele>
        <time>2025-08-07T13:44:33Z</time>
      </trkpt>
      <trkpt lat="45.88835" lon="2.93729">
        <ele>846.4</ele>
        <time>2025-08-07T13:44:34Z</time>
      </trkpt>
      <trkpt lat="45.88828" lon="2.93728">
        <ele>846.4</ele>
        <time>2025-08-07T13:44:35Z</time>
      </trkpt>
      <trkpt lat="45.88822" lon="2.93726">
        <ele>846.2</ele>
        <time>2025-08-07T13:44:36Z</time>
      </trkpt>
      <trkpt lat="45.88815" lon="2.93725">
        <ele>846.2</ele>
        <time>2025-08-07T13:44:37Z</time>
      </trkpt>
      <trkpt lat="45.88809" lon="2.93724">
        <ele>846.2</ele>
        <time>2025-08-07T13:44:38Z</time>
      </trkpt>
      <trkpt lat="45.88803" lon="2.93723">
        <ele>846.2</ele>
        <time>2025-08-07T13:44:39Z</time>
      </trkpt>
      <trkpt lat="45.88797" lon="2.93721">
        <ele>846.2</ele>
        <time>2025-08-07T13:44:40Z</time>
      </trkpt>
      <trkpt lat="45.88791" lon="2.9372">
        <ele>846.2</ele>
        <time>2025-08-07T13:44:41Z</time>
      </trkpt>
      <trkpt lat="45.88785" lon="2.93719">
        <ele>846.2</ele>
        <time>2025-08-07T13:44:42Z</time>
      </trkpt>
      <trkpt lat="45.8878" lon="2.93718">
        <ele>846.2</ele>
        <time>2025-08-07T13:44:43Z</time>
      </trkpt>
      <trkpt lat="45.88775" lon="2.93717">
        <ele>846.4</ele>
        <time>2025-08-07T13:44:44Z</time>
      </trkpt>
      <trkpt lat="45.8877" lon="2.93717">
        <ele>846.6</ele>
        <time>2025-08-07T13:44:45Z</time>
      </trkpt>
      <trkpt lat="45.88765" lon="2.93718">
        <ele>846.8</ele>
        <time>2025-08-07T13:44:46Z</time>
      </trkpt>
      <trkpt lat="45.8876" lon="2.93718">
        <ele>846.8</ele>
        <time>2025-08-07T13:44:47Z</time>
      </trkpt>
      <trkpt lat="45.88756" lon="2.93718">
        <ele>847</ele>
        <time>2025-08-07T13:44:48Z</time>
      </trkpt>
      <trkpt lat="45.88751" lon="2.93718">
        <ele>847.2</ele>
        <time>2025-08-07T13:44:49Z</time>
      </trkpt>
      <trkpt lat="45.88746" lon="2.93717">
        <ele>847.4</ele>
        <time>2025-08-07T13:44:50Z</time>
      </trkpt>
      <trkpt lat="45.88742" lon="2.93715">
        <ele>847.6</ele>
        <time>2025-08-07T13:44:51Z</time>
      </trkpt>
      <trkpt lat="45.88739" lon="2.9371">
        <ele>848</ele>
        <time>2025-08-07T13:44:52Z</time>
      </trkpt>
      <trkpt lat="45.88737" lon="2.93705">
        <ele>848.6</ele>
        <time>2025-08-07T13:44:53Z</time>
      </trkpt>
      <trkpt lat="45.88736" lon="2.937">
        <ele>849</ele>
        <time>2025-08-07T13:44:54Z</time>
      </trkpt>
      <trkpt lat="45.88735" lon="2.93694">
        <ele>849.4</ele>
        <time>2025-08-07T13:44:55Z</time>
      </trkpt>
      <trkpt lat="45.88734" lon="2.93688">
        <ele>849.8</ele>
        <time>2025-08-07T13:44:56Z</time>
      </trkpt>
      <trkpt lat="45.88733" lon="2.93683">
        <ele>850.4</ele>
        <time>2025-08-07T13:44:57Z</time>
      </trkpt>
      <trkpt lat="45.88732" lon="2.93677">
        <ele>851</ele>
        <time>2025-08-07T13:44:58Z</time>
      </trkpt>
      <trkpt lat="45.88731" lon="2.93672">
        <ele>851.6</ele>
        <time>2025-08-07T13:44:59Z</time>
      </trkpt>
      <trkpt lat="45.8873" lon="2.93666">
        <ele>852.2</ele>
        <time>2025-08-07T13:45:00Z</time>
      </trkpt>
      <trkpt lat="45.88728" lon="2.93661">
        <ele>852.6</ele>
        <time>2025-08-07T13:45:01Z</time>
      </trkpt>
      <trkpt lat="45.88727" lon="2.93654">
        <ele>853.2</ele>
        <time>2025-08-07T13:45:02Z</time>
      </trkpt>
      <trkpt lat="45.88727" lon="2.93648">
        <ele>853.8</ele>
        <time>2025-08-07T13:45:03Z</time>
      </trkpt>
      <trkpt lat="45.88726" lon="2.93642">
        <ele>854.2</ele>
        <time>2025-08-07T13:45:04Z</time>
      </trkpt>
      <trkpt lat="45.88725" lon="2.93636">
        <ele>854.8</ele>
        <time>2025-08-07T13:45:05Z</time>
      </trkpt>
      <trkpt lat="45.88724" lon="2.9363">
        <ele>855.4</ele>
        <time>2025-08-07T13:45:06Z</time>
      </trkpt>
      <trkpt lat="45.88723" lon="2.93624">
        <ele>856</ele>
        <time>2025-08-07T13:45:07Z</time>
      </trkpt>
      <trkpt lat="45.88722" lon="2.93618">
        <ele>856.6</ele>
        <time>2025-08-07T13:45:08Z</time>
      </trkpt>
      <trkpt lat="45.8872" lon="2.93611">
        <ele>857.2</ele>
        <time>2025-08-07T13:45:09Z</time>
      </trkpt>
      <trkpt lat="45.88719" lon="2.93605">
        <ele>857.8</ele>
        <time>2025-08-07T13:45:10Z</time>
      </trkpt>
      <trkpt lat="45.88718" lon="2.93598">
        <ele>858.2</ele>
        <time>2025-08-07T13:45:11Z</time>
      </trkpt>
      <trkpt lat="45.88717" lon="2.93592">
        <ele>859</ele>
        <time>2025-08-07T13:45:12Z</time>
      </trkpt>
      <trkpt lat="45.88716" lon="2.93587">
        <ele>859.6</ele>
        <time>2025-08-07T13:45:13Z</time>
      </trkpt>
      <trkpt lat="45.88715" lon="2.93582">
        <ele>860.2</ele>
        <time>2025-08-07T13:45:14Z</time>
      </trkpt>
      <trkpt lat="45.88714" lon="2.93577">
        <ele>860.8</ele>
        <time>2025-08-07T13:45:15Z</time>
      </trkpt>
      <trkpt lat="45.88713" lon="2.93572">
        <ele>861.4</ele>
        <time>2025-08-07T13:45:16Z</time>
      </trkpt>
      <trkpt lat="45.88712" lon="2.93567">
        <ele>862</ele>
        <time>2025-08-07T13:45:17Z</time>
      </trkpt>
      <trkpt lat="45.88711" lon="2.93561">
        <ele>862.6</ele>
        <time>2025-08-07T13:45:18Z</time>
      </trkpt>
      <trkpt lat="45.8871" lon="2.93556">
        <ele>863.2</ele>
        <time>2025-08-07T13:45:19Z</time>
      </trkpt>
      <trkpt lat="45.88709" lon="2.9355">
        <ele>863.8</ele>
        <time>2025-08-07T13:45:20Z</time>
      </trkpt>
      <trkpt lat="45.88708" lon="2.93545">
        <ele>864.4</ele>
        <time>2025-08-07T13:45:21Z</time>
      </trkpt>
      <trkpt lat="45.88707" lon="2.9354">
        <ele>864.8</ele>
        <time>2025-08-07T13:45:22Z</time>
      </trkpt>
      <trkpt lat="45.88705" lon="2.93535">
        <ele>865.4</ele>
        <time>2025-08-07T13:45:23Z</time>
      </trkpt>
      <trkpt lat="45.88703" lon="2.9353">
        <ele>866</ele>
        <time>2025-08-07T13:45:24Z</time>
      </trkpt>
      <trkpt lat="45.88702" lon="2.93526">
        <ele>866.6</ele>
        <time>2025-08-07T13:45:25Z</time>
      </trkpt>
      <trkpt lat="45.887" lon="2.93521">
        <ele>867.2</ele>
        <time>2025-08-07T13:45:26Z</time>
      </trkpt>
      <trkpt lat="45.88698" lon="2.93516">
        <ele>867.6</ele>
        <time>2025-08-07T13:45:27Z</time>
      </trkpt>
      <trkpt lat="45.88696" lon="2.93511">
        <ele>868.2</ele>
        <time>2025-08-07T13:45:28Z</time>
      </trkpt>
      <trkpt lat="45.88695" lon="2.93506">
        <ele>868.8</ele>
        <time>2025-08-07T13:45:29Z</time>
      </trkpt>
      <trkpt lat="45.88693" lon="2.93502">
        <ele>869.4</ele>
        <time>2025-08-07T13:45:30Z</time>
      </trkpt>
      <trkpt lat="45.88691" lon="2.93497">
        <ele>870</ele>
        <time>2025-08-07T13:45:31Z</time>
      </trkpt>
      <trkpt lat="45.8869" lon="2.93491">
        <ele>870.4</ele>
        <time>2025-08-07T13:45:32Z</time>
      </trkpt>
      <trkpt lat="45.88689" lon="2.93486">
        <ele>871</ele>
        <time>2025-08-07T13:45:33Z</time>
      </trkpt>
      <trkpt lat="45.88688" lon="2.93481">
        <ele>871.6</ele>
        <time>2025-08-07T13:45:34Z</time>
      </trkpt>
      <trkpt lat="45.88686" lon="2.93475">
        <ele>872.2</ele>
        <time>2025-08-07T13:45:35Z</time>
      </trkpt>
      <trkpt lat="45.88683" lon="2.9347">
        <ele>872.8</ele>
        <time>2025-08-07T13:45:36Z</time>
      </trkpt>
      <trkpt lat="45.88682" lon="2.93465">
        <ele>873.4</ele>
        <time>2025-08-07T13:45:37Z</time>
      </trkpt>
      <trkpt lat="45.88679" lon="2.9346">
        <ele>873.8</ele>
        <time>2025-08-07T13:45:38Z</time>
      </trkpt>
      <trkpt lat="45.88677" lon="2.93455">
        <ele>874.4</ele>
        <time>2025-08-07T13:45:39Z</time>
      </trkpt>
      <trkpt lat="45.88676" lon="2.9345">
        <ele>874.8</ele>
        <time>2025-08-07T13:45:40Z</time>
      </trkpt>
      <trkpt lat="45.88674" lon="2.93444">
        <ele>875</ele>
        <time>2025-08-07T13:45:41Z</time>
      </trkpt>
      <trkpt lat="45.88672" lon="2.93438">
        <ele>875.4</ele>
        <time>2025-08-07T13:45:42Z</time>
      </trkpt>
      <trkpt lat="45.8867" lon="2.93432">
        <ele>875.6</ele>
        <time>2025-08-07T13:45:43Z</time>
      </trkpt>
      <trkpt lat="45.88668" lon="2.93425">
        <ele>875.8</ele>
        <time>2025-08-07T13:45:44Z</time>
      </trkpt>
      <trkpt lat="45.88665" lon="2.93418">
        <ele>875.8</ele>
        <time>2025-08-07T13:45:45Z</time>
      </trkpt>
      <trkpt lat="45.88663" lon="2.9341">
        <ele>875.6</ele>
        <time>2025-08-07T13:45:46Z</time>
      </trkpt>
      <trkpt lat="45.8866" lon="2.93402">
        <ele>875.6</ele>
        <time>2025-08-07T13:45:47Z</time>
      </trkpt>
      <trkpt lat="45.88658" lon="2.93395">
        <ele>875.4</ele>
        <time>2025-08-07T13:45:48Z</time>
      </trkpt>
      <trkpt lat="45.88654" lon="2.93387">
        <ele>875.2</ele>
        <time>2025-08-07T13:45:49Z</time>
      </trkpt>
      <trkpt lat="45.8865" lon="2.93379">
        <ele>874.8</ele>
        <time>2025-08-07T13:45:50Z</time>
      </trkpt>
      <trkpt lat="45.88647" lon="2.93371">
        <ele>874.6</ele>
        <time>2025-08-07T13:45:51Z</time>
      </trkpt>
      <trkpt lat="45.88643" lon="2.93362">
        <ele>874.2</ele>
        <time>2025-08-07T13:45:52Z</time>
      </trkpt>
      <trkpt lat="45.8864" lon="2.93354">
        <ele>874</ele>
        <time>2025-08-07T13:45:53Z</time>
      </trkpt>
      <trkpt lat="45.88636" lon="2.93346">
        <ele>873.8</ele>
        <time>2025-08-07T13:45:54Z</time>
      </trkpt>
      <trkpt lat="45.88632" lon="2.93338">
        <ele>873.6</ele>
        <time>2025-08-07T13:45:55Z</time>
      </trkpt>
      <trkpt lat="45.88628" lon="2.93329">
        <ele>873.2</ele>
        <time>2025-08-07T13:45:56Z</time>
      </trkpt>
      <trkpt lat="45.88625" lon="2.9332">
        <ele>872.8</ele>
        <time>2025-08-07T13:45:57Z</time>
      </trkpt>
      <trkpt lat="45.88622" lon="2.93311">
        <ele>872.4</ele>
        <time>2025-08-07T13:45:58Z</time>
      </trkpt>
      <trkpt lat="45.88619" lon="2.93302">
        <ele>872</ele>
        <time>2025-08-07T13:45:59Z</time>
      </trkpt>
      <trkpt lat="45.88616" lon="2.93294">
        <ele>871.8</ele>
        <time>2025-08-07T13:46:00Z</time>
      </trkpt>
      <trkpt lat="45.88613" lon="2.93285">
        <ele>871.6</ele>
        <time>2025-08-07T13:46:01Z</time>
      </trkpt>
      <trkpt lat="45.8861" lon="2.93275">
        <ele>871.2</ele>
        <time>2025-08-07T13:46:02Z</time>
      </trkpt>
      <trkpt lat="45.88606" lon="2.93267">
        <ele>871</ele>
        <time>2025-08-07T13:46:03Z</time>
      </trkpt>
      <trkpt lat="45.88602" lon="2.93259">
        <ele>870.8</ele>
        <time>2025-08-07T13:46:04Z</time>
      </trkpt>
      <trkpt lat="45.88599" lon="2.9325">
        <ele>870.6</ele>
        <time>2025-08-07T13:46:05Z</time>
      </trkpt>
      <trkpt lat="45.88595" lon="2.93242">
        <ele>870.4</ele>
        <time>2025-08-07T13:46:06Z</time>
      </trkpt>
      <trkpt lat="45.88591" lon="2.93234">
        <ele>870.2</ele>
        <time>2025-08-07T13:46:07Z</time>
      </trkpt>
      <trkpt lat="45.88586" lon="2.93227">
        <ele>870</ele>
        <time>2025-08-07T13:46:08Z</time>
      </trkpt>
      <trkpt lat="45.88581" lon="2.9322">
        <ele>869.6</ele>
        <time>2025-08-07T13:46:09Z</time>
      </trkpt>
      <trkpt lat="45.88575" lon="2.93215">
        <ele>869.6</ele>
        <time>2025-08-07T13:46:10Z</time>
      </trkpt>
      <trkpt lat="45.88569" lon="2.93211">
        <ele>869.4</ele>
        <time>2025-08-07T13:46:11Z</time>
      </trkpt>
      <trkpt lat="45.88564" lon="2.93207">
        <ele>869.4</ele>
        <time>2025-08-07T13:46:12Z</time>
      </trkpt>
      <trkpt lat="45.88559" lon="2.93204">
        <ele>869.2</ele>
        <time>2025-08-07T13:46:13Z</time>
      </trkpt>
      <trkpt lat="45.88554" lon="2.93199">
        <ele>869.2</ele>
        <time>2025-08-07T13:46:14Z</time>
      </trkpt>
      <trkpt lat="45.8855" lon="2.93192">
        <ele>869.2</ele>
        <time>2025-08-07T13:46:15Z</time>
      </trkpt>
      <trkpt lat="45.88547" lon="2.93184">
        <ele>869</ele>
        <time>2025-08-07T13:46:16Z</time>
      </trkpt>
      <trkpt lat="45.88544" lon="2.93175">
        <ele>868.8</ele>
        <time>2025-08-07T13:46:17Z</time>
      </trkpt>
      <trkpt lat="45.88542" lon="2.93166">
        <ele>868.8</ele>
        <time>2025-08-07T13:46:18Z</time>
      </trkpt>
      <trkpt lat="45.8854" lon="2.93157">
        <ele>868.6</ele>
        <time>2025-08-07T13:46:19Z</time>
      </trkpt>
      <trkpt lat="45.88538" lon="2.93148">
        <ele>868.4</ele>
        <time>2025-08-07T13:46:20Z</time>
      </trkpt>
      <trkpt lat="45.88537" lon="2.93139">
        <ele>868.4</ele>
        <time>2025-08-07T13:46:21Z</time>
      </trkpt>
      <trkpt lat="45.88535" lon="2.9313">
        <ele>868.2</ele>
        <time>2025-08-07T13:46:22Z</time>
      </trkpt>
      <trkpt lat="45.88533" lon="2.93121">
        <ele>868</ele>
        <time>2025-08-07T13:46:23Z</time>
      </trkpt>
      <trkpt lat="45.88532" lon="2.93111">
        <ele>868</ele>
        <time>2025-08-07T13:46:24Z</time>
      </trkpt>
      <trkpt lat="45.8853" lon="2.93102">
        <ele>867.8</ele>
        <time>2025-08-07T13:46:25Z</time>
      </trkpt>
      <trkpt lat="45.88528" lon="2.93093">
        <ele>867.8</ele>
        <time>2025-08-07T13:46:26Z</time>
      </trkpt>
      <trkpt lat="45.88526" lon="2.93083">
        <ele>867.6</ele>
        <time>2025-08-07T13:46:27Z</time>
      </trkpt>
      <trkpt lat="45.88524" lon="2.93074">
        <ele>867.6</ele>
        <time>2025-08-07T13:46:28Z</time>
      </trkpt>
      <trkpt lat="45.88521" lon="2.93066">
        <ele>867.4</ele>
        <time>2025-08-07T13:46:29Z</time>
      </trkpt>
      <trkpt lat="45.88519" lon="2.93057">
        <ele>867.2</ele>
        <time>2025-08-07T13:46:30Z</time>
      </trkpt>
      <trkpt lat="45.88516" lon="2.93048">
        <ele>867.2</ele>
        <time>2025-08-07T13:46:31Z</time>
      </trkpt>
      <trkpt lat="45.88513" lon="2.9304">
        <ele>867.2</ele>
        <time>2025-08-07T13:46:32Z</time>
      </trkpt>
      <trkpt lat="45.8851" lon="2.93032">
        <ele>867</ele>
        <time>2025-08-07T13:46:33Z</time>
      </trkpt>
      <trkpt lat="45.88507" lon="2.93024">
        <ele>866.8</ele>
        <time>2025-08-07T13:46:34Z</time>
      </trkpt>
      <trkpt lat="45.88504" lon="2.93017">
        <ele>866.6</ele>
        <time>2025-08-07T13:46:35Z</time>
      </trkpt>
      <trkpt lat="45.885" lon="2.9301">
        <ele>866.6</ele>
        <time>2025-08-07T13:46:36Z</time>
      </trkpt>
      <trkpt lat="45.88497" lon="2.93003">
        <ele>866.6</ele>
        <time>2025-08-07T13:46:37Z</time>
      </trkpt>
      <trkpt lat="45.88494" lon="2.92995">
        <ele>866.6</ele>
        <time>2025-08-07T13:46:38Z</time>
      </trkpt>
      <trkpt lat="45.88491" lon="2.92988">
        <ele>866.4</ele>
        <time>2025-08-07T13:46:39Z</time>
      </trkpt>
      <trkpt lat="45.88488" lon="2.9298">
        <ele>866.4</ele>
        <time>2025-08-07T13:46:40Z</time>
      </trkpt>
      <trkpt lat="45.88485" lon="2.92972">
        <ele>866.2</ele>
        <time>2025-08-07T13:46:41Z</time>
      </trkpt>
      <trkpt lat="45.88482" lon="2.92964">
        <ele>866.2</ele>
        <time>2025-08-07T13:46:42Z</time>
      </trkpt>
      <trkpt lat="45.88481" lon="2.92955">
        <ele>866</ele>
        <time>2025-08-07T13:46:43Z</time>
      </trkpt>
      <trkpt lat="45.8848" lon="2.92946">
        <ele>866</ele>
        <time>2025-08-07T13:46:44Z</time>
      </trkpt>
      <trkpt lat="45.8848" lon="2.92937">
        <ele>866</ele>
        <time>2025-08-07T13:46:45Z</time>
      </trkpt>
      <trkpt lat="45.8848" lon="2.92928">
        <ele>866</ele>
        <time>2025-08-07T13:46:46Z</time>
      </trkpt>
      <trkpt lat="45.8848" lon="2.92919">
        <ele>866</ele>
        <time>2025-08-07T13:46:47Z</time>
      </trkpt>
      <trkpt lat="45.88481" lon="2.9291">
        <ele>866</ele>
        <time>2025-08-07T13:46:48Z</time>
      </trkpt>
      <trkpt lat="45.88481" lon="2.92901">
        <ele>865.8</ele>
        <time>2025-08-07T13:46:49Z</time>
      </trkpt>
      <trkpt lat="45.88481" lon="2.92892">
        <ele>865.8</ele>
        <time>2025-08-07T13:46:50Z</time>
      </trkpt>
      <trkpt lat="45.88481" lon="2.92883">
        <ele>865.8</ele>
        <time>2025-08-07T13:46:51Z</time>
      </trkpt>
      <trkpt lat="45.88481" lon="2.92874">
        <ele>865.8</ele>
        <time>2025-08-07T13:46:52Z</time>
      </trkpt>
      <trkpt lat="45.88482" lon="2.92866">
        <ele>865.8</ele>
        <time>2025-08-07T13:46:53Z</time>
      </trkpt>
      <trkpt lat="45.88482" lon="2.92857">
        <ele>865.8</ele>
        <time>2025-08-07T13:46:54Z</time>
      </trkpt>
      <trkpt lat="45.88482" lon="2.92849">
        <ele>865.8</ele>
        <time>2025-08-07T13:46:55Z</time>
      </trkpt>
      <trkpt lat="45.88482" lon="2.9284">
        <ele>866</ele>
        <time>2025-08-07T13:46:56Z</time>
      </trkpt>
      <trkpt lat="45.88482" lon="2.92832">
        <ele>866.2</ele>
        <time>2025-08-07T13:46:57Z</time>
      </trkpt>
      <trkpt lat="45.88482" lon="2.92824">
        <ele>866.2</ele>
        <time>2025-08-07T13:46:58Z</time>
      </trkpt>
      <trkpt lat="45.88482" lon="2.92816">
        <ele>866.4</ele>
        <time>2025-08-07T13:46:59Z</time>
      </trkpt>
      <trkpt lat="45.88482" lon="2.92808">
        <ele>866.6</ele>
        <time>2025-08-07T13:47:00Z</time>
      </trkpt>
      <trkpt lat="45.88482" lon="2.928">
        <ele>866.6</ele>
        <time>2025-08-07T13:47:01Z</time>
      </trkpt>
      <trkpt lat="45.88482" lon="2.92792">
        <ele>866.6</ele>
        <time>2025-08-07T13:47:02Z</time>
      </trkpt>
      <trkpt lat="45.88481" lon="2.92784">
        <ele>866.6</ele>
        <time>2025-08-07T13:47:03Z</time>
      </trkpt>
      <trkpt lat="45.8848" lon="2.92776">
        <ele>866.8</ele>
        <time>2025-08-07T13:47:04Z</time>
      </trkpt>
      <trkpt lat="45.8848" lon="2.92768">
        <ele>866.8</ele>
        <time>2025-08-07T13:47:05Z</time>
      </trkpt>
      <trkpt lat="45.88479" lon="2.92759">
        <ele>866.8</ele>
        <time>2025-08-07T13:47:06Z</time>
      </trkpt>
      <trkpt lat="45.88479" lon="2.92751">
        <ele>866.8</ele>
        <time>2025-08-07T13:47:07Z</time>
      </trkpt>
      <trkpt lat="45.88478" lon="2.92742">
        <ele>866.8</ele>
        <time>2025-08-07T13:47:08Z</time>
      </trkpt>
      <trkpt lat="45.88477" lon="2.92734">
        <ele>866.8</ele>
        <time>2025-08-07T13:47:09Z</time>
      </trkpt>
      <trkpt lat="45.88477" lon="2.92726">
        <ele>866.8</ele>
        <time>2025-08-07T13:47:10Z</time>
      </trkpt>
      <trkpt lat="45.88476" lon="2.92718">
        <ele>866.8</ele>
        <time>2025-08-07T13:47:11Z</time>
      </trkpt>
      <trkpt lat="45.88476" lon="2.92709">
        <ele>866.8</ele>
        <time>2025-08-07T13:47:12Z</time>
      </trkpt>
      <trkpt lat="45.88476" lon="2.92701">
        <ele>866.8</ele>
        <time>2025-08-07T13:47:13Z</time>
      </trkpt>
      <trkpt lat="45.88476" lon="2.92693">
        <ele>866.8</ele>
        <time>2025-08-07T13:47:14Z</time>
      </trkpt>
      <trkpt lat="45.88475" lon="2.92684">
        <ele>866.8</ele>
        <time>2025-08-07T13:47:15Z</time>
      </trkpt>
      <trkpt lat="45.88475" lon="2.92675">
        <ele>866.8</ele>
        <time>2025-08-07T13:47:16Z</time>
      </trkpt>
      <trkpt lat="45.88475" lon="2.92667">
        <ele>866.6</ele>
        <time>2025-08-07T13:47:17Z</time>
      </trkpt>
      <trkpt lat="45.88474" lon="2.92658">
        <ele>866.4</ele>
        <time>2025-08-07T13:47:18Z</time>
      </trkpt>
      <trkpt lat="45.88474" lon="2.9265">
        <ele>866.2</ele>
        <time>2025-08-07T13:47:19Z</time>
      </trkpt>
      <trkpt lat="45.88474" lon="2.92641">
        <ele>866</ele>
        <time>2025-08-07T13:47:20Z</time>
      </trkpt>
      <trkpt lat="45.88474" lon="2.92633">
        <ele>865.8</ele>
        <time>2025-08-07T13:47:21Z</time>
      </trkpt>
      <trkpt lat="45.88476" lon="2.92624">
        <ele>865.8</ele>
        <time>2025-08-07T13:47:22Z</time>
      </trkpt>
      <trkpt lat="45.88478" lon="2.92616">
        <ele>865.6</ele>
        <time>2025-08-07T13:47:23Z</time>
      </trkpt>
      <trkpt lat="45.88481" lon="2.92608">
        <ele>865.6</ele>
        <time>2025-08-07T13:47:24Z</time>
      </trkpt>
      <trkpt lat="45.88484" lon="2.92601">
        <ele>865.4</ele>
        <time>2025-08-07T13:47:25Z</time>
      </trkpt>
      <trkpt lat="45.88488" lon="2.92593">
        <ele>865.2</ele>
        <time>2025-08-07T13:47:26Z</time>
      </trkpt>
      <trkpt lat="45.88492" lon="2.92586">
        <ele>865</ele>
        <time>2025-08-07T13:47:27Z</time>
      </trkpt>
      <trkpt lat="45.88497" lon="2.9258">
        <ele>865</ele>
        <time>2025-08-07T13:47:28Z</time>
      </trkpt>
      <trkpt lat="45.88502" lon="2.92574">
        <ele>864.8</ele>
        <time>2025-08-07T13:47:29Z</time>
      </trkpt>
      <trkpt lat="45.88508" lon="2.92568">
        <ele>864.6</ele>
        <time>2025-08-07T13:47:30Z</time>
      </trkpt>
      <trkpt lat="45.88514" lon="2.92562">
        <ele>864.4</ele>
        <time>2025-08-07T13:47:31Z</time>
      </trkpt>
      <trkpt lat="45.88519" lon="2.92556">
        <ele>864.2</ele>
        <time>2025-08-07T13:47:32Z</time>
      </trkpt>
      <trkpt lat="45.88525" lon="2.9255">
        <ele>863.8</ele>
        <time>2025-08-07T13:47:33Z</time>
      </trkpt>
      <trkpt lat="45.88531" lon="2.92544">
        <ele>863.6</ele>
        <time>2025-08-07T13:47:34Z</time>
      </trkpt>
      <trkpt lat="45.88538" lon="2.92537">
        <ele>863.4</ele>
        <time>2025-08-07T13:47:35Z</time>
      </trkpt>
      <trkpt lat="45.88544" lon="2.92531">
        <ele>863.2</ele>
        <time>2025-08-07T13:47:36Z</time>
      </trkpt>
      <trkpt lat="45.8855" lon="2.92525">
        <ele>863</ele>
        <time>2025-08-07T13:47:37Z</time>
      </trkpt>
      <trkpt lat="45.88556" lon="2.92518">
        <ele>862.8</ele>
        <time>2025-08-07T13:47:38Z</time>
      </trkpt>
      <trkpt lat="45.8856" lon="2.9251">
        <ele>862.4</ele>
        <time>2025-08-07T13:47:39Z</time>
      </trkpt>
      <trkpt lat="45.88565" lon="2.92502">
        <ele>862.2</ele>
        <time>2025-08-07T13:47:40Z</time>
      </trkpt>
      <trkpt lat="45.88568" lon="2.92493">
        <ele>862</ele>
        <time>2025-08-07T13:47:41Z</time>
      </trkpt>
      <trkpt lat="45.88568" lon="2.92484">
        <ele>861.8</ele>
        <time>2025-08-07T13:47:42Z</time>
      </trkpt>
      <trkpt lat="45.88569" lon="2.92475">
        <ele>861.6</ele>
        <time>2025-08-07T13:47:43Z</time>
      </trkpt>
      <trkpt lat="45.88568" lon="2.92466">
        <ele>861.4</ele>
        <time>2025-08-07T13:47:44Z</time>
      </trkpt>
      <trkpt lat="45.88567" lon="2.92457">
        <ele>861.4</ele>
        <time>2025-08-07T13:47:45Z</time>
      </trkpt>
      <trkpt lat="45.88564" lon="2.92449">
        <ele>861.4</ele>
        <time>2025-08-07T13:47:46Z</time>
      </trkpt>
      <trkpt lat="45.88561" lon="2.92442">
        <ele>861.4</ele>
        <time>2025-08-07T13:47:47Z</time>
      </trkpt>
      <trkpt lat="45.88557" lon="2.92436">
        <ele>861.6</ele>
        <time>2025-08-07T13:47:48Z</time>
      </trkpt>
      <trkpt lat="45.88553" lon="2.9243">
        <ele>861.6</ele>
        <time>2025-08-07T13:47:49Z</time>
      </trkpt>
      <trkpt lat="45.88549" lon="2.92424">
        <ele>861.8</ele>
        <time>2025-08-07T13:47:50Z</time>
      </trkpt>
      <trkpt lat="45.88546" lon="2.92419">
        <ele>862</ele>
        <time>2025-08-07T13:47:51Z</time>
      </trkpt>
      <trkpt lat="45.88542" lon="2.92413">
        <ele>862</ele>
        <time>2025-08-07T13:47:52Z</time>
      </trkpt>
      <trkpt lat="45.88539" lon="2.92407">
        <ele>862.2</ele>
        <time>2025-08-07T13:47:53Z</time>
      </trkpt>
      <trkpt lat="45.88535" lon="2.92402">
        <ele>862.4</ele>
        <time>2025-08-07T13:47:54Z</time>
      </trkpt>
      <trkpt lat="45.88532" lon="2.92397">
        <ele>862.6</ele>
        <time>2025-08-07T13:47:55Z</time>
      </trkpt>
      <trkpt lat="45.88529" lon="2.92392">
        <ele>862.8</ele>
        <time>2025-08-07T13:47:56Z</time>
      </trkpt>
      <trkpt lat="45.88526" lon="2.92387">
        <ele>863</ele>
        <time>2025-08-07T13:47:57Z</time>
      </trkpt>
      <trkpt lat="45.88523" lon="2.92383">
        <ele>863.2</ele>
        <time>2025-08-07T13:47:58Z</time>
      </trkpt>
      <trkpt lat="45.88519" lon="2.92378">
        <ele>863.4</ele>
        <time>2025-08-07T13:47:59Z</time>
      </trkpt>
      <trkpt lat="45.88516" lon="2.92373">
        <ele>863.6</ele>
        <time>2025-08-07T13:48:00Z</time>
      </trkpt>
      <trkpt lat="45.88513" lon="2.92368">
        <ele>863.8</ele>
        <time>2025-08-07T13:48:01Z</time>
      </trkpt>
      <trkpt lat="45.88509" lon="2.92362">
        <ele>864</ele>
        <time>2025-08-07T13:48:02Z</time>
      </trkpt>
      <trkpt lat="45.88506" lon="2.92358">
        <ele>864.2</ele>
        <time>2025-08-07T13:48:03Z</time>
      </trkpt>
      <trkpt lat="45.88503" lon="2.92353">
        <ele>864.2</ele>
        <time>2025-08-07T13:48:04Z</time>
      </trkpt>
      <trkpt lat="45.88499" lon="2.92348">
        <ele>864.4</ele>
        <time>2025-08-07T13:48:05Z</time>
      </trkpt>
      <trkpt lat="45.88496" lon="2.92342">
        <ele>864.6</ele>
        <time>2025-08-07T13:48:06Z</time>
      </trkpt>
      <trkpt lat="45.88493" lon="2.92337">
        <ele>864.6</ele>
        <time>2025-08-07T13:48:07Z</time>
      </trkpt>
      <trkpt lat="45.8849" lon="2.92332">
        <ele>864.8</ele>
        <time>2025-08-07T13:48:08Z</time>
      </trkpt>
      <trkpt lat="45.88487" lon="2.92326">
        <ele>864.8</ele>
        <time>2025-08-07T13:48:09Z</time>
      </trkpt>
      <trkpt lat="45.88485" lon="2.92321">
        <ele>864.8</ele>
        <time>2025-08-07T13:48:10Z</time>
      </trkpt>
      <trkpt lat="45.88483" lon="2.92316">
        <ele>864.8</ele>
        <time>2025-08-07T13:48:11Z</time>
      </trkpt>
      <trkpt lat="45.88482" lon="2.92312">
        <ele>864.6</ele>
        <time>2025-08-07T13:48:12Z</time>
      </trkpt>
      <trkpt lat="45.88482" lon="2.92309">
        <ele>864.6</ele>
        <time>2025-08-07T13:48:13Z</time>
      </trkpt>
      <trkpt lat="45.88483" lon="2.92307">
        <ele>864.8</ele>
        <time>2025-08-07T13:48:14Z</time>
      </trkpt>
      <trkpt lat="45.88483" lon="2.92305">
        <ele>864.8</ele>
        <time>2025-08-07T13:48:15Z</time>
      </trkpt>
      <trkpt lat="45.88483" lon="2.92303">
        <ele>864.6</ele>
        <time>2025-08-07T13:48:16Z</time>
      </trkpt>
      <trkpt lat="45.88483" lon="2.92301">
        <ele>864.6</ele>
        <time>2025-08-07T13:48:17Z</time>
      </trkpt>
      <trkpt lat="45.88482" lon="2.92299">
        <ele>864.6</ele>
        <time>2025-08-07T13:48:18Z</time>
      </trkpt>
      <trkpt lat="45.8848" lon="2.92295">
        <ele>864.8</ele>
        <time>2025-08-07T13:48:19Z</time>
      </trkpt>
      <trkpt lat="45.8848" lon="2.9229">
        <ele>864.8</ele>
        <time>2025-08-07T13:48:20Z</time>
      </trkpt>
      <trkpt lat="45.88479" lon="2.92284">
        <ele>864.8</ele>
        <time>2025-08-07T13:48:21Z</time>
      </trkpt>
      <trkpt lat="45.88479" lon="2.92278">
        <ele>864.8</ele>
        <time>2025-08-07T13:48:22Z</time>
      </trkpt>
      <trkpt lat="45.88479" lon="2.92271">
        <ele>864.8</ele>
        <time>2025-08-07T13:48:23Z</time>
      </trkpt>
      <trkpt lat="45.88478" lon="2.92264">
        <ele>864.8</ele>
        <time>2025-08-07T13:48:24Z</time>
      </trkpt>
      <trkpt lat="45.88478" lon="2.92257">
        <ele>864.8</ele>
        <time>2025-08-07T13:48:25Z</time>
      </trkpt>
      <trkpt lat="45.88477" lon="2.9225">
        <ele>864.8</ele>
        <time>2025-08-07T13:48:26Z</time>
      </trkpt>
      <trkpt lat="45.88476" lon="2.92243">
        <ele>864.8</ele>
        <time>2025-08-07T13:48:27Z</time>
      </trkpt>
      <trkpt lat="45.88475" lon="2.92237">
        <ele>864.8</ele>
        <time>2025-08-07T13:48:28Z</time>
      </trkpt>
      <trkpt lat="45.88475" lon="2.92231">
        <ele>864.6</ele>
        <time>2025-08-07T13:48:29Z</time>
      </trkpt>
      <trkpt lat="45.88474" lon="2.92226">
        <ele>864.6</ele>
        <time>2025-08-07T13:48:30Z</time>
      </trkpt>
      <trkpt lat="45.88473" lon="2.92221">
        <ele>864.6</ele>
        <time>2025-08-07T13:48:31Z</time>
      </trkpt>
      <trkpt lat="45.88472" lon="2.92216">
        <ele>864.6</ele>
        <time>2025-08-07T13:48:32Z</time>
      </trkpt>
      <trkpt lat="45.88472" lon="2.92212">
        <ele>864.6</ele>
        <time>2025-08-07T13:48:33Z</time>
      </trkpt>
      <trkpt lat="45.88471" lon="2.92209">
        <ele>864.6</ele>
        <time>2025-08-07T13:48:34Z</time>
      </trkpt>
      <trkpt lat="45.88471" lon="2.92206">
        <ele>864.6</ele>
        <time>2025-08-07T13:48:35Z</time>
      </trkpt>
      <trkpt lat="45.88471" lon="2.92206">
        <ele>864.6</ele>
        <time>2025-08-07T13:48:36Z</time>
      </trkpt>
      <trkpt lat="45.88471" lon="2.92206">
        <ele>864.4</ele>
        <time>2025-08-07T13:48:37Z</time>
      </trkpt>
      <trkpt lat="45.8847" lon="2.92206">
        <ele>864.4</ele>
        <time>2025-08-07T13:48:38Z</time>
      </trkpt>
      <trkpt lat="45.8847" lon="2.92206">
        <ele>864.2</ele>
        <time>2025-08-07T13:48:39Z</time>
      </trkpt>
      <trkpt lat="45.8847" lon="2.92206">
        <ele>864.2</ele>
        <time>2025-08-07T13:48:40Z</time>
      </trkpt>
      <trkpt lat="45.8847" lon="2.92206">
        <ele>864</ele>
        <time>2025-08-07T13:48:41Z</time>
      </trkpt>
      <trkpt lat="45.8847" lon="2.92206">
        <ele>864</ele>
        <time>2025-08-07T13:48:42Z</time>
      </trkpt>
      <trkpt lat="45.8847" lon="2.92203">
        <ele>864</ele>
        <time>2025-08-07T13:49:06Z</time>
      </trkpt>
      <trkpt lat="45.8847" lon="2.92201">
        <ele>864</ele>
        <time>2025-08-07T13:49:07Z</time>
      </trkpt>
      <trkpt lat="45.88469" lon="2.92199">
        <ele>864</ele>
        <time>2025-08-07T13:49:08Z</time>
      </trkpt>
      <trkpt lat="45.88468" lon="2.92195">
        <ele>864</ele>
        <time>2025-08-07T13:49:09Z</time>
      </trkpt>
      <trkpt lat="45.88468" lon="2.92191">
        <ele>864</ele>
        <time>2025-08-07T13:49:10Z</time>
      </trkpt>
      <trkpt lat="45.88467" lon="2.92186">
        <ele>864</ele>
        <time>2025-08-07T13:49:11Z</time>
      </trkpt>
      <trkpt lat="45.88467" lon="2.92181">
        <ele>864</ele>
        <time>2025-08-07T13:49:12Z</time>
      </trkpt>
      <trkpt lat="45.88466" lon="2.92175">
        <ele>864.2</ele>
        <time>2025-08-07T13:49:13Z</time>
      </trkpt>
      <trkpt lat="45.88466" lon="2.92169">
        <ele>864.2</ele>
        <time>2025-08-07T13:49:14Z</time>
      </trkpt>
      <trkpt lat="45.88465" lon="2.92162">
        <ele>864.2</ele>
        <time>2025-08-07T13:49:15Z</time>
      </trkpt>
      <trkpt lat="45.88464" lon="2.92155">
        <ele>864.2</ele>
        <time>2025-08-07T13:49:16Z</time>
      </trkpt>
      <trkpt lat="45.88464" lon="2.92148">
        <ele>864.2</ele>
        <time>2025-08-07T13:49:17Z</time>
      </trkpt>
      <trkpt lat="45.88463" lon="2.92141">
        <ele>864.4</ele>
        <time>2025-08-07T13:49:18Z</time>
      </trkpt>
      <trkpt lat="45.88462" lon="2.92134">
        <ele>864.4</ele>
        <time>2025-08-07T13:49:19Z</time>
      </trkpt>
      <trkpt lat="45.88462" lon="2.92127">
        <ele>864.4</ele>
        <time>2025-08-07T13:49:20Z</time>
      </trkpt>
      <trkpt lat="45.88462" lon="2.92119">
        <ele>864.6</ele>
        <time>2025-08-07T13:49:21Z</time>
      </trkpt>
      <trkpt lat="45.88463" lon="2.92112">
        <ele>864.8</ele>
        <time>2025-08-07T13:49:22Z</time>
      </trkpt>
      <trkpt lat="45.88463" lon="2.92104">
        <ele>864.8</ele>
        <time>2025-08-07T13:49:23Z</time>
      </trkpt>
      <trkpt lat="45.88463" lon="2.92096">
        <ele>864.8</ele>
        <time>2025-08-07T13:49:24Z</time>
      </trkpt>
      <trkpt lat="45.88464" lon="2.92088">
        <ele>864.8</ele>
        <time>2025-08-07T13:49:25Z</time>
      </trkpt>
      <trkpt lat="45.88464" lon="2.92079">
        <ele>864.8</ele>
        <time>2025-08-07T13:49:26Z</time>
      </trkpt>
      <trkpt lat="45.88465" lon="2.9207">
        <ele>864.8</ele>
        <time>2025-08-07T13:49:27Z</time>
      </trkpt>
      <trkpt lat="45.88467" lon="2.92061">
        <ele>864.6</ele>
        <time>2025-08-07T13:49:28Z</time>
      </trkpt>
      <trkpt lat="45.88468" lon="2.92052">
        <ele>864.6</ele>
        <time>2025-08-07T13:49:29Z</time>
      </trkpt>
      <trkpt lat="45.8847" lon="2.92042">
        <ele>864.4</ele>
        <time>2025-08-07T13:49:30Z</time>
      </trkpt>
      <trkpt lat="45.88471" lon="2.92033">
        <ele>864.2</ele>
        <time>2025-08-07T13:49:31Z</time>
      </trkpt>
      <trkpt lat="45.88473" lon="2.92023">
        <ele>863.8</ele>
        <time>2025-08-07T13:49:32Z</time>
      </trkpt>
      <trkpt lat="45.88476" lon="2.92013">
        <ele>863.6</ele>
        <time>2025-08-07T13:49:33Z</time>
      </trkpt>
      <trkpt lat="45.88478" lon="2.92004">
        <ele>863.4</ele>
        <time>2025-08-07T13:49:34Z</time>
      </trkpt>
      <trkpt lat="45.8848" lon="2.91994">
        <ele>863.4</ele>
        <time>2025-08-07T13:49:35Z</time>
      </trkpt>
      <trkpt lat="45.88482" lon="2.91985">
        <ele>863.4</ele>
        <time>2025-08-07T13:49:36Z</time>
      </trkpt>
      <trkpt lat="45.88485" lon="2.91975">
        <ele>863.2</ele>
        <time>2025-08-07T13:49:37Z</time>
      </trkpt>
      <trkpt lat="45.88487" lon="2.91968">
        <ele>862.8</ele>
        <time>2025-08-07T13:49:38Z</time>
      </trkpt>
      <trkpt lat="45.8849" lon="2.91957">
        <ele>862.8</ele>
        <time>2025-08-07T13:49:39Z</time>
      </trkpt>
      <trkpt lat="45.88492" lon="2.91948">
        <ele>862.6</ele>
        <time>2025-08-07T13:49:40Z</time>
      </trkpt>
      <trkpt lat="45.88494" lon="2.91939">
        <ele>862.4</ele>
        <time>2025-08-07T13:49:41Z</time>
      </trkpt>
      <trkpt lat="45.88496" lon="2.9193">
        <ele>862.4</ele>
        <time>2025-08-07T13:49:42Z</time>
      </trkpt>
      <trkpt lat="45.88497" lon="2.9192">
        <ele>862.4</ele>
        <time>2025-08-07T13:49:43Z</time>
      </trkpt>
      <trkpt lat="45.88498" lon="2.91911">
        <ele>862.2</ele>
        <time>2025-08-07T13:49:44Z</time>
      </trkpt>
      <trkpt lat="45.88499" lon="2.91902">
        <ele>862.2</ele>
        <time>2025-08-07T13:49:45Z</time>
      </trkpt>
      <trkpt lat="45.88499" lon="2.91892">
        <ele>862.2</ele>
        <time>2025-08-07T13:49:46Z</time>
      </trkpt>
      <trkpt lat="45.885" lon="2.91883">
        <ele>862.2</ele>
        <time>2025-08-07T13:49:47Z</time>
      </trkpt>
      <trkpt lat="45.88501" lon="2.91874">
        <ele>862</ele>
        <time>2025-08-07T13:49:48Z</time>
      </trkpt>
      <trkpt lat="45.88502" lon="2.91864">
        <ele>861.8</ele>
        <time>2025-08-07T13:49:49Z</time>
      </trkpt>
      <trkpt lat="45.88502" lon="2.91855">
        <ele>861.8</ele>
        <time>2025-08-07T13:49:50Z</time>
      </trkpt>
      <trkpt lat="45.88503" lon="2.91845">
        <ele>861.8</ele>
        <time>2025-08-07T13:49:51Z</time>
      </trkpt>
      <trkpt lat="45.88504" lon="2.91835">
        <ele>861.8</ele>
        <time>2025-08-07T13:49:52Z</time>
      </trkpt>
      <trkpt lat="45.88504" lon="2.91825">
        <ele>861.6</ele>
        <time>2025-08-07T13:49:53Z</time>
      </trkpt>
      <trkpt lat="45.88504" lon="2.91816">
        <ele>861.6</ele>
        <time>2025-08-07T13:49:54Z</time>
      </trkpt>
      <trkpt lat="45.88505" lon="2.91807">
        <ele>861.6</ele>
        <time>2025-08-07T13:49:55Z</time>
      </trkpt>
      <trkpt lat="45.88504" lon="2.91798">
        <ele>861.4</ele>
        <time>2025-08-07T13:49:56Z</time>
      </trkpt>
      <trkpt lat="45.88504" lon="2.91788">
        <ele>861.4</ele>
        <time>2025-08-07T13:49:57Z</time>
      </trkpt>
      <trkpt lat="45.88504" lon="2.91778">
        <ele>861</ele>
        <time>2025-08-07T13:49:58Z</time>
      </trkpt>
      <trkpt lat="45.88504" lon="2.91767">
        <ele>860.8</ele>
        <time>2025-08-07T13:49:59Z</time>
      </trkpt>
      <trkpt lat="45.88504" lon="2.91758">
        <ele>860.6</ele>
        <time>2025-08-07T13:50:00Z</time>
      </trkpt>
      <trkpt lat="45.88504" lon="2.91748">
        <ele>860.4</ele>
        <time>2025-08-07T13:50:01Z</time>
      </trkpt>
      <trkpt lat="45.88504" lon="2.91739">
        <ele>860.2</ele>
        <time>2025-08-07T13:50:02Z</time>
      </trkpt>
      <trkpt lat="45.88504" lon="2.91729">
        <ele>860</ele>
        <time>2025-08-07T13:50:03Z</time>
      </trkpt>
      <trkpt lat="45.88504" lon="2.9172">
        <ele>859.8</ele>
        <time>2025-08-07T13:50:04Z</time>
      </trkpt>
      <trkpt lat="45.88504" lon="2.9171">
        <ele>859.6</ele>
        <time>2025-08-07T13:50:05Z</time>
      </trkpt>
      <trkpt lat="45.88504" lon="2.91701">
        <ele>859.4</ele>
        <time>2025-08-07T13:50:06Z</time>
      </trkpt>
      <trkpt lat="45.88504" lon="2.91692">
        <ele>859.2</ele>
        <time>2025-08-07T13:50:07Z</time>
      </trkpt>
      <trkpt lat="45.88503" lon="2.91682">
        <ele>859</ele>
        <time>2025-08-07T13:50:08Z</time>
      </trkpt>
      <trkpt lat="45.88503" lon="2.91673">
        <ele>858.8</ele>
        <time>2025-08-07T13:50:09Z</time>
      </trkpt>
      <trkpt lat="45.88503" lon="2.91664">
        <ele>858.6</ele>
        <time>2025-08-07T13:50:10Z</time>
      </trkpt>
      <trkpt lat="45.88502" lon="2.91654">
        <ele>858.6</ele>
        <time>2025-08-07T13:50:11Z</time>
      </trkpt>
      <trkpt lat="45.88502" lon="2.91645">
        <ele>858.4</ele>
        <time>2025-08-07T13:50:12Z</time>
      </trkpt>
      <trkpt lat="45.88502" lon="2.91635">
        <ele>858.2</ele>
        <time>2025-08-07T13:50:13Z</time>
      </trkpt>
      <trkpt lat="45.88502" lon="2.91626">
        <ele>858.2</ele>
        <time>2025-08-07T13:50:14Z</time>
      </trkpt>
      <trkpt lat="45.88502" lon="2.91617">
        <ele>858.2</ele>
        <time>2025-08-07T13:50:15Z</time>
      </trkpt>
      <trkpt lat="45.88502" lon="2.91608">
        <ele>858</ele>
        <time>2025-08-07T13:50:16Z</time>
      </trkpt>
      <trkpt lat="45.88503" lon="2.91601">
        <ele>857.8</ele>
        <time>2025-08-07T13:50:17Z</time>
      </trkpt>
      <trkpt lat="45.88504" lon="2.91594">
        <ele>857.4</ele>
        <time>2025-08-07T13:50:18Z</time>
      </trkpt>
      <trkpt lat="45.88504" lon="2.91587">
        <ele>857.2</ele>
        <time>2025-08-07T13:50:19Z</time>
      </trkpt>
      <trkpt lat="45.88503" lon="2.91581">
        <ele>856.8</ele>
        <time>2025-08-07T13:50:20Z</time>
      </trkpt>
      <trkpt lat="45.88503" lon="2.91576">
        <ele>856.6</ele>
        <time>2025-08-07T13:50:21Z</time>
      </trkpt>
      <trkpt lat="45.88503" lon="2.91572">
        <ele>856.6</ele>
        <time>2025-08-07T13:50:22Z</time>
      </trkpt>
      <trkpt lat="45.88503" lon="2.91569">
        <ele>856.4</ele>
        <time>2025-08-07T13:50:23Z</time>
      </trkpt>
      <trkpt lat="45.88503" lon="2.91567">
        <ele>856.4</ele>
        <time>2025-08-07T13:50:24Z</time>
      </trkpt>
      <trkpt lat="45.88503" lon="2.91565">
        <ele>856.4</ele>
        <time>2025-08-07T13:50:25Z</time>
      </trkpt>
      <trkpt lat="45.88503" lon="2.91563">
        <ele>856.4</ele>
        <time>2025-08-07T13:50:26Z</time>
      </trkpt>
      <trkpt lat="45.88503" lon="2.9156">
        <ele>856.2</ele>
        <time>2025-08-07T13:50:27Z</time>
      </trkpt>
      <trkpt lat="45.88503" lon="2.91557">
        <ele>856</ele>
        <time>2025-08-07T13:50:28Z</time>
      </trkpt>
      <trkpt lat="45.88503" lon="2.91553">
        <ele>856</ele>
        <time>2025-08-07T13:50:29Z</time>
      </trkpt>
      <trkpt lat="45.88502" lon="2.91547">
        <ele>856.2</ele>
        <time>2025-08-07T13:50:30Z</time>
      </trkpt>
      <trkpt lat="45.88501" lon="2.91541">
        <ele>856.2</ele>
        <time>2025-08-07T13:50:31Z</time>
      </trkpt>
      <trkpt lat="45.88499" lon="2.91535">
        <ele>856.2</ele>
        <time>2025-08-07T13:50:32Z</time>
      </trkpt>
      <trkpt lat="45.88497" lon="2.91528">
        <ele>856.4</ele>
        <time>2025-08-07T13:50:33Z</time>
      </trkpt>
      <trkpt lat="45.88495" lon="2.91521">
        <ele>856.8</ele>
        <time>2025-08-07T13:50:34Z</time>
      </trkpt>
      <trkpt lat="45.88493" lon="2.91515">
        <ele>857</ele>
        <time>2025-08-07T13:50:35Z</time>
      </trkpt>
      <trkpt lat="45.88491" lon="2.91507">
        <ele>857.2</ele>
        <time>2025-08-07T13:50:36Z</time>
      </trkpt>
      <trkpt lat="45.88489" lon="2.91501">
        <ele>857.4</ele>
        <time>2025-08-07T13:50:37Z</time>
      </trkpt>
      <trkpt lat="45.88486" lon="2.91493">
        <ele>857.6</ele>
        <time>2025-08-07T13:50:38Z</time>
      </trkpt>
      <trkpt lat="45.88483" lon="2.91486">
        <ele>857.8</ele>
        <time>2025-08-07T13:50:39Z</time>
      </trkpt>
      <trkpt lat="45.8848" lon="2.91478">
        <ele>858.2</ele>
        <time>2025-08-07T13:50:40Z</time>
      </trkpt>
      <trkpt lat="45.88478" lon="2.91471">
        <ele>858.6</ele>
        <time>2025-08-07T13:50:41Z</time>
      </trkpt>
      <trkpt lat="45.88475" lon="2.91463">
        <ele>858.8</ele>
        <time>2025-08-07T13:50:42Z</time>
      </trkpt>
      <trkpt lat="45.88473" lon="2.91455">
        <ele>859</ele>
        <time>2025-08-07T13:50:43Z</time>
      </trkpt>
      <trkpt lat="45.88471" lon="2.91448">
        <ele>859</ele>
        <time>2025-08-07T13:50:44Z</time>
      </trkpt>
      <trkpt lat="45.88468" lon="2.91441">
        <ele>859</ele>
        <time>2025-08-07T13:50:45Z</time>
      </trkpt>
      <trkpt lat="45.88466" lon="2.91434">
        <ele>859.2</ele>
        <time>2025-08-07T13:50:46Z</time>
      </trkpt>
      <trkpt lat="45.88463" lon="2.91427">
        <ele>859.2</ele>
        <time>2025-08-07T13:50:47Z</time>
      </trkpt>
      <trkpt lat="45.8846" lon="2.9142">
        <ele>859.4</ele>
        <time>2025-08-07T13:50:48Z</time>
      </trkpt>
      <trkpt lat="45.88458" lon="2.91413">
        <ele>859.4</ele>
        <time>2025-08-07T13:50:49Z</time>
      </trkpt>
      <trkpt lat="45.88454" lon="2.91406">
        <ele>859.4</ele>
        <time>2025-08-07T13:50:50Z</time>
      </trkpt>
      <trkpt lat="45.88451" lon="2.91399">
        <ele>859.2</ele>
        <time>2025-08-07T13:50:51Z</time>
      </trkpt>
      <trkpt lat="45.88448" lon="2.91392">
        <ele>859</ele>
        <time>2025-08-07T13:50:52Z</time>
      </trkpt>
      <trkpt lat="45.88446" lon="2.91385">
        <ele>859</ele>
        <time>2025-08-07T13:50:53Z</time>
      </trkpt>
      <trkpt lat="45.88444" lon="2.91377">
        <ele>858.8</ele>
        <time>2025-08-07T13:50:54Z</time>
      </trkpt>
      <trkpt lat="45.88441" lon="2.91369">
        <ele>858.8</ele>
        <time>2025-08-07T13:50:55Z</time>
      </trkpt>
      <trkpt lat="45.88439" lon="2.9136">
        <ele>858.6</ele>
        <time>2025-08-07T13:50:56Z</time>
      </trkpt>
      <trkpt lat="45.88436" lon="2.91352">
        <ele>858.8</ele>
        <time>2025-08-07T13:50:57Z</time>
      </trkpt>
      <trkpt lat="45.88434" lon="2.91345">
        <ele>858.8</ele>
        <time>2025-08-07T13:50:58Z</time>
      </trkpt>
      <trkpt lat="45.88432" lon="2.91337">
        <ele>859</ele>
        <time>2025-08-07T13:50:59Z</time>
      </trkpt>
      <trkpt lat="45.8843" lon="2.9133">
        <ele>859</ele>
        <time>2025-08-07T13:51:00Z</time>
      </trkpt>
      <trkpt lat="45.88428" lon="2.91323">
        <ele>859</ele>
        <time>2025-08-07T13:51:01Z</time>
      </trkpt>
      <trkpt lat="45.88426" lon="2.91318">
        <ele>859.2</ele>
        <time>2025-08-07T13:51:02Z</time>
      </trkpt>
      <trkpt lat="45.88424" lon="2.91312">
        <ele>859.4</ele>
        <time>2025-08-07T13:51:03Z</time>
      </trkpt>
      <trkpt lat="45.88421" lon="2.91308">
        <ele>859.4</ele>
        <time>2025-08-07T13:51:04Z</time>
      </trkpt>
      <trkpt lat="45.88419" lon="2.91302">
        <ele>859.6</ele>
        <time>2025-08-07T13:51:05Z</time>
      </trkpt>
      <trkpt lat="45.88417" lon="2.91297">
        <ele>859.8</ele>
        <time>2025-08-07T13:51:06Z</time>
      </trkpt>
      <trkpt lat="45.88414" lon="2.91291">
        <ele>859.8</ele>
        <time>2025-08-07T13:51:07Z</time>
      </trkpt>
      <trkpt lat="45.88411" lon="2.91284">
        <ele>860</ele>
        <time>2025-08-07T13:51:08Z</time>
      </trkpt>
      <trkpt lat="45.88408" lon="2.91279">
        <ele>860.2</ele>
        <time>2025-08-07T13:51:09Z</time>
      </trkpt>
      <trkpt lat="45.88405" lon="2.91273">
        <ele>860.4</ele>
        <time>2025-08-07T13:51:10Z</time>
      </trkpt>
      <trkpt lat="45.88403" lon="2.91268">
        <ele>860.4</ele>
        <time>2025-08-07T13:51:11Z</time>
      </trkpt>
      <trkpt lat="45.88402" lon="2.91263">
        <ele>860.6</ele>
        <time>2025-08-07T13:51:12Z</time>
      </trkpt>
      <trkpt lat="45.88399" lon="2.91258">
        <ele>860.8</ele>
        <time>2025-08-07T13:51:13Z</time>
      </trkpt>
      <trkpt lat="45.88397" lon="2.91253">
        <ele>860.8</ele>
        <time>2025-08-07T13:51:14Z</time>
      </trkpt>
      <trkpt lat="45.88395" lon="2.91247">
        <ele>861</ele>
        <time>2025-08-07T13:51:15Z</time>
      </trkpt>
      <trkpt lat="45.88393" lon="2.91242">
        <ele>861</ele>
        <time>2025-08-07T13:51:16Z</time>
      </trkpt>
      <trkpt lat="45.88391" lon="2.91238">
        <ele>861.2</ele>
        <time>2025-08-07T13:51:17Z</time>
      </trkpt>
      <trkpt lat="45.88389" lon="2.91232">
        <ele>861.4</ele>
        <time>2025-08-07T13:51:18Z</time>
      </trkpt>
      <trkpt lat="45.88386" lon="2.91225">
        <ele>861.6</ele>
        <time>2025-08-07T13:51:19Z</time>
      </trkpt>
      <trkpt lat="45.88385" lon="2.91218">
        <ele>861.6</ele>
        <time>2025-08-07T13:51:20Z</time>
      </trkpt>
      <trkpt lat="45.88384" lon="2.91211">
        <ele>861.6</ele>
        <time>2025-08-07T13:51:21Z</time>
      </trkpt>
      <trkpt lat="45.88382" lon="2.91205">
        <ele>861.6</ele>
        <time>2025-08-07T13:51:22Z</time>
      </trkpt>
      <trkpt lat="45.88382" lon="2.91198">
        <ele>861.4</ele>
        <time>2025-08-07T13:51:23Z</time>
      </trkpt>
      <trkpt lat="45.88382" lon="2.91191">
        <ele>861.2</ele>
        <time>2025-08-07T13:51:24Z</time>
      </trkpt>
      <trkpt lat="45.88382" lon="2.91184">
        <ele>861</ele>
        <time>2025-08-07T13:51:25Z</time>
      </trkpt>
      <trkpt lat="45.88381" lon="2.91176">
        <ele>861</ele>
        <time>2025-08-07T13:51:26Z</time>
      </trkpt>
      <trkpt lat="45.8838" lon="2.91169">
        <ele>860.8</ele>
        <time>2025-08-07T13:51:27Z</time>
      </trkpt>
      <trkpt lat="45.8838" lon="2.91161">
        <ele>860.6</ele>
        <time>2025-08-07T13:51:28Z</time>
      </trkpt>
      <trkpt lat="45.88379" lon="2.91154">
        <ele>860.6</ele>
        <time>2025-08-07T13:51:29Z</time>
      </trkpt>
      <trkpt lat="45.88379" lon="2.91147">
        <ele>860.6</ele>
        <time>2025-08-07T13:51:30Z</time>
      </trkpt>
      <trkpt lat="45.88378" lon="2.91139">
        <ele>860.6</ele>
        <time>2025-08-07T13:51:31Z</time>
      </trkpt>
      <trkpt lat="45.88378" lon="2.91132">
        <ele>860.6</ele>
        <time>2025-08-07T13:51:32Z</time>
      </trkpt>
      <trkpt lat="45.88378" lon="2.91124">
        <ele>860.4</ele>
        <time>2025-08-07T13:51:33Z</time>
      </trkpt>
      <trkpt lat="45.88378" lon="2.91116">
        <ele>860.4</ele>
        <time>2025-08-07T13:51:34Z</time>
      </trkpt>
      <trkpt lat="45.88379" lon="2.91108">
        <ele>860.6</ele>
        <time>2025-08-07T13:51:35Z</time>
      </trkpt>
      <trkpt lat="45.8838" lon="2.91101">
        <ele>860.4</ele>
        <time>2025-08-07T13:51:36Z</time>
      </trkpt>
      <trkpt lat="45.8838" lon="2.91094">
        <ele>860.4</ele>
        <time>2025-08-07T13:51:37Z</time>
      </trkpt>
      <trkpt lat="45.8838" lon="2.91088">
        <ele>860.4</ele>
        <time>2025-08-07T13:51:38Z</time>
      </trkpt>
      <trkpt lat="45.8838" lon="2.9108">
        <ele>860.6</ele>
        <time>2025-08-07T13:51:39Z</time>
      </trkpt>
      <trkpt lat="45.88379" lon="2.91073">
        <ele>860.6</ele>
        <time>2025-08-07T13:51:40Z</time>
      </trkpt>
      <trkpt lat="45.88379" lon="2.91066">
        <ele>860.8</ele>
        <time>2025-08-07T13:51:41Z</time>
      </trkpt>
      <trkpt lat="45.88378" lon="2.9106">
        <ele>860.8</ele>
        <time>2025-08-07T13:51:42Z</time>
      </trkpt>
      <trkpt lat="45.88378" lon="2.91053">
        <ele>861</ele>
        <time>2025-08-07T13:51:43Z</time>
      </trkpt>
      <trkpt lat="45.88377" lon="2.91048">
        <ele>861.2</ele>
        <time>2025-08-07T13:51:44Z</time>
      </trkpt>
      <trkpt lat="45.88377" lon="2.91042">
        <ele>861.2</ele>
        <time>2025-08-07T13:51:45Z</time>
      </trkpt>
      <trkpt lat="45.88376" lon="2.91036">
        <ele>861.4</ele>
        <time>2025-08-07T13:51:46Z</time>
      </trkpt>
      <trkpt lat="45.88376" lon="2.91031">
        <ele>861.4</ele>
        <time>2025-08-07T13:51:47Z</time>
      </trkpt>
      <trkpt lat="45.88376" lon="2.91026">
        <ele>861.6</ele>
        <time>2025-08-07T13:51:48Z</time>
      </trkpt>
      <trkpt lat="45.88377" lon="2.91022">
        <ele>861.6</ele>
        <time>2025-08-07T13:51:49Z</time>
      </trkpt>
      <trkpt lat="45.8838" lon="2.91019">
        <ele>861.8</ele>
        <time>2025-08-07T13:51:50Z</time>
      </trkpt>
      <trkpt lat="45.88383" lon="2.91017">
        <ele>861.8</ele>
        <time>2025-08-07T13:51:51Z</time>
      </trkpt>
      <trkpt lat="45.88387" lon="2.91017">
        <ele>862</ele>
        <time>2025-08-07T13:51:52Z</time>
      </trkpt>
      <trkpt lat="45.88392" lon="2.91019">
        <ele>862.2</ele>
        <time>2025-08-07T13:51:53Z</time>
      </trkpt>
      <trkpt lat="45.88396" lon="2.91021">
        <ele>862.4</ele>
        <time>2025-08-07T13:51:54Z</time>
      </trkpt>
      <trkpt lat="45.88401" lon="2.91022">
        <ele>862.6</ele>
        <time>2025-08-07T13:51:55Z</time>
      </trkpt>
      <trkpt lat="45.88405" lon="2.91023">
        <ele>862.8</ele>
        <time>2025-08-07T13:51:56Z</time>
      </trkpt>
      <trkpt lat="45.88409" lon="2.91024">
        <ele>863</ele>
        <time>2025-08-07T13:51:57Z</time>
      </trkpt>
      <trkpt lat="45.88413" lon="2.91026">
        <ele>863</ele>
        <time>2025-08-07T13:51:58Z</time>
      </trkpt>
      <trkpt lat="45.88417" lon="2.91028">
        <ele>863.2</ele>
        <time>2025-08-07T13:51:59Z</time>
      </trkpt>
      <trkpt lat="45.88422" lon="2.9103">
        <ele>863.2</ele>
        <time>2025-08-07T13:52:00Z</time>
      </trkpt>
      <trkpt lat="45.88427" lon="2.91031">
        <ele>863.4</ele>
        <time>2025-08-07T13:52:01Z</time>
      </trkpt>
      <trkpt lat="45.88432" lon="2.91033">
        <ele>863.4</ele>
        <time>2025-08-07T13:52:02Z</time>
      </trkpt>
      <trkpt lat="45.88437" lon="2.91037">
        <ele>863.4</ele>
        <time>2025-08-07T13:52:03Z</time>
      </trkpt>
      <trkpt lat="45.8844" lon="2.9104">
        <ele>863.6</ele>
        <time>2025-08-07T13:52:04Z</time>
      </trkpt>
      <trkpt lat="45.88444" lon="2.91044">
        <ele>863.6</ele>
        <time>2025-08-07T13:52:05Z</time>
      </trkpt>
      <trkpt lat="45.88447" lon="2.91047">
        <ele>863.6</ele>
        <time>2025-08-07T13:52:06Z</time>
      </trkpt>
      <trkpt lat="45.8845" lon="2.91051">
        <ele>863.8</ele>
        <time>2025-08-07T13:52:07Z</time>
      </trkpt>
      <trkpt lat="45.88454" lon="2.91054">
        <ele>863.8</ele>
        <time>2025-08-07T13:52:08Z</time>
      </trkpt>
      <trkpt lat="45.88457" lon="2.91058">
        <ele>863.8</ele>
        <time>2025-08-07T13:52:09Z</time>
      </trkpt>
      <trkpt lat="45.8846" lon="2.91062">
        <ele>864</ele>
        <time>2025-08-07T13:52:10Z</time>
      </trkpt>
      <trkpt lat="45.88463" lon="2.91066">
        <ele>864</ele>
        <time>2025-08-07T13:52:11Z</time>
      </trkpt>
      <trkpt lat="45.88465" lon="2.91072">
        <ele>864.2</ele>
        <time>2025-08-07T13:52:12Z</time>
      </trkpt>
      <trkpt lat="45.88465" lon="2.91078">
        <ele>864.2</ele>
        <time>2025-08-07T13:52:13Z</time>
      </trkpt>
      <trkpt lat="45.88466" lon="2.91084">
        <ele>864.4</ele>
        <time>2025-08-07T13:52:14Z</time>
      </trkpt>
      <trkpt lat="45.88467" lon="2.91088">
        <ele>864.4</ele>
        <time>2025-08-07T13:52:15Z</time>
      </trkpt>
      <trkpt lat="45.88467" lon="2.91088">
        <ele>864.6</ele>
        <time>2025-08-07T13:52:16Z</time>
      </trkpt>
      <trkpt lat="45.88468" lon="2.91086">
        <ele>864.4</ele>
        <time>2025-08-07T13:52:17Z</time>
      </trkpt>
      <trkpt lat="45.88468" lon="2.91081">
        <ele>864.4</ele>
        <time>2025-08-07T13:52:18Z</time>
      </trkpt>
      <trkpt lat="45.88467" lon="2.91076">
        <ele>864.4</ele>
        <time>2025-08-07T13:52:19Z</time>
      </trkpt>
      <trkpt lat="45.88465" lon="2.91071">
        <ele>864.4</ele>
        <time>2025-08-07T13:52:20Z</time>
      </trkpt>
      <trkpt lat="45.88462" lon="2.91066">
        <ele>864.4</ele>
        <time>2025-08-07T13:52:21Z</time>
      </trkpt>
      <trkpt lat="45.88457" lon="2.91061">
        <ele>864.4</ele>
        <time>2025-08-07T13:52:22Z</time>
      </trkpt>
      <trkpt lat="45.88453" lon="2.91057">
        <ele>864.4</ele>
        <time>2025-08-07T13:52:23Z</time>
      </trkpt>
      <trkpt lat="45.88449" lon="2.91052">
        <ele>864.4</ele>
        <time>2025-08-07T13:52:24Z</time>
      </trkpt>
      <trkpt lat="45.88444" lon="2.91047">
        <ele>864.4</ele>
        <time>2025-08-07T13:52:25Z</time>
      </trkpt>
      <trkpt lat="45.88441" lon="2.91043">
        <ele>864.2</ele>
        <time>2025-08-07T13:52:26Z</time>
      </trkpt>
      <trkpt lat="45.88436" lon="2.91038">
        <ele>864.2</ele>
        <time>2025-08-07T13:52:27Z</time>
      </trkpt>
      <trkpt lat="45.88431" lon="2.91034">
        <ele>864.2</ele>
        <time>2025-08-07T13:52:28Z</time>
      </trkpt>
      <trkpt lat="45.88427" lon="2.91031">
        <ele>864.2</ele>
        <time>2025-08-07T13:52:29Z</time>
      </trkpt>
      <trkpt lat="45.88422" lon="2.91028">
        <ele>864</ele>
        <time>2025-08-07T13:52:30Z</time>
      </trkpt>
      <trkpt lat="45.88417" lon="2.91026">
        <ele>864</ele>
        <time>2025-08-07T13:52:31Z</time>
      </trkpt>
      <trkpt lat="45.88412" lon="2.91024">
        <ele>863.8</ele>
        <time>2025-08-07T13:52:32Z</time>
      </trkpt>
      <trkpt lat="45.88407" lon="2.91022">
        <ele>863.8</ele>
        <time>2025-08-07T13:52:33Z</time>
      </trkpt>
      <trkpt lat="45.88401" lon="2.91021">
        <ele>863.8</ele>
        <time>2025-08-07T13:52:34Z</time>
      </trkpt>
      <trkpt lat="45.88396" lon="2.91019">
        <ele>863.6</ele>
        <time>2025-08-07T13:52:35Z</time>
      </trkpt>
      <trkpt lat="45.88391" lon="2.91018">
        <ele>863.6</ele>
        <time>2025-08-07T13:52:36Z</time>
      </trkpt>
      <trkpt lat="45.88386" lon="2.91016">
        <ele>863.4</ele>
        <time>2025-08-07T13:52:37Z</time>
      </trkpt>
      <trkpt lat="45.88381" lon="2.91013">
        <ele>863.2</ele>
        <time>2025-08-07T13:52:38Z</time>
      </trkpt>
      <trkpt lat="45.88377" lon="2.91008">
        <ele>863</ele>
        <time>2025-08-07T13:52:39Z</time>
      </trkpt>
      <trkpt lat="45.88374" lon="2.91002">
        <ele>862.8</ele>
        <time>2025-08-07T13:52:40Z</time>
      </trkpt>
      <trkpt lat="45.88372" lon="2.90995">
        <ele>862.6</ele>
        <time>2025-08-07T13:52:41Z</time>
      </trkpt>
      <trkpt lat="45.88372" lon="2.90988">
        <ele>862.4</ele>
        <time>2025-08-07T13:52:42Z</time>
      </trkpt>
      <trkpt lat="45.88374" lon="2.90982">
        <ele>862.2</ele>
        <time>2025-08-07T13:52:43Z</time>
      </trkpt>
      <trkpt lat="45.88379" lon="2.90975">
        <ele>862</ele>
        <time>2025-08-07T13:52:44Z</time>
      </trkpt>
      <trkpt lat="45.88384" lon="2.90969">
        <ele>861.6</ele>
        <time>2025-08-07T13:52:45Z</time>
      </trkpt>
      <trkpt lat="45.88391" lon="2.90965">
        <ele>861.2</ele>
        <time>2025-08-07T13:52:46Z</time>
      </trkpt>
      <trkpt lat="45.88397" lon="2.90963">
        <ele>861</ele>
        <time>2025-08-07T13:52:47Z</time>
      </trkpt>
      <trkpt lat="45.88405" lon="2.90964">
        <ele>860.6</ele>
        <time>2025-08-07T13:52:48Z</time>
      </trkpt>
      <trkpt lat="45.88413" lon="2.90967">
        <ele>860.4</ele>
        <time>2025-08-07T13:52:49Z</time>
      </trkpt>
      <trkpt lat="45.8842" lon="2.90971">
        <ele>860.2</ele>
        <time>2025-08-07T13:52:50Z</time>
      </trkpt>
      <trkpt lat="45.88427" lon="2.90976">
        <ele>859.8</ele>
        <time>2025-08-07T13:52:51Z</time>
      </trkpt>
      <trkpt lat="45.88434" lon="2.90981">
        <ele>859.6</ele>
        <time>2025-08-07T13:52:52Z</time>
      </trkpt>
      <trkpt lat="45.88441" lon="2.90987">
        <ele>859.2</ele>
        <time>2025-08-07T13:52:53Z</time>
      </trkpt>
      <trkpt lat="45.88449" lon="2.90993">
        <ele>858.8</ele>
        <time>2025-08-07T13:52:54Z</time>
      </trkpt>
      <trkpt lat="45.88457" lon="2.90999">
        <ele>858.4</ele>
        <time>2025-08-07T13:52:55Z</time>
      </trkpt>
      <trkpt lat="45.88464" lon="2.91004">
        <ele>857.8</ele>
        <time>2025-08-07T13:52:56Z</time>
      </trkpt>
      <trkpt lat="45.88472" lon="2.91007">
        <ele>857.2</ele>
        <time>2025-08-07T13:52:57Z</time>
      </trkpt>
      <trkpt lat="45.88478" lon="2.91011">
        <ele>856.8</ele>
        <time>2025-08-07T13:52:58Z</time>
      </trkpt>
      <trkpt lat="45.88484" lon="2.91014">
        <ele>856.2</ele>
        <time>2025-08-07T13:52:59Z</time>
      </trkpt>
      <trkpt lat="45.8849" lon="2.91017">
        <ele>855.6</ele>
        <time>2025-08-07T13:53:00Z</time>
      </trkpt>
      <trkpt lat="45.88495" lon="2.91019">
        <ele>855.2</ele>
        <time>2025-08-07T13:53:01Z</time>
      </trkpt>
      <trkpt lat="45.88499" lon="2.91021">
        <ele>854.8</ele>
        <time>2025-08-07T13:53:02Z</time>
      </trkpt>
      <trkpt lat="45.88504" lon="2.91023">
        <ele>854.2</ele>
        <time>2025-08-07T13:53:03Z</time>
      </trkpt>
      <trkpt lat="45.88509" lon="2.91025">
        <ele>853.8</ele>
        <time>2025-08-07T13:53:04Z</time>
      </trkpt>
      <trkpt lat="45.88513" lon="2.91028">
        <ele>853.6</ele>
        <time>2025-08-07T13:53:05Z</time>
      </trkpt>
      <trkpt lat="45.88517" lon="2.91029">
        <ele>853.2</ele>
        <time>2025-08-07T13:53:06Z</time>
      </trkpt>
      <trkpt lat="45.88522" lon="2.9103">
        <ele>853</ele>
        <time>2025-08-07T13:53:07Z</time>
      </trkpt>
      <trkpt lat="45.8853" lon="2.9103">
        <ele>852.8</ele>
        <time>2025-08-07T13:53:08Z</time>
      </trkpt>
      <trkpt lat="45.88535" lon="2.91031">
        <ele>852.4</ele>
        <time>2025-08-07T13:53:09Z</time>
      </trkpt>
      <trkpt lat="45.88539" lon="2.91032">
        <ele>852.2</ele>
        <time>2025-08-07T13:53:10Z</time>
      </trkpt>
      <trkpt lat="45.88543" lon="2.91032">
        <ele>852</ele>
        <time>2025-08-07T13:53:11Z</time>
      </trkpt>
      <trkpt lat="45.88545" lon="2.91034">
        <ele>852</ele>
        <time>2025-08-07T13:53:12Z</time>
      </trkpt>
      <trkpt lat="45.88547" lon="2.91034">
        <ele>851.8</ele>
        <time>2025-08-07T13:53:13Z</time>
      </trkpt>
      <trkpt lat="45.88547" lon="2.9103">
        <ele>851.6</ele>
        <time>2025-08-07T13:53:14Z</time>
      </trkpt>
      <trkpt lat="45.88546" lon="2.91028">
        <ele>851.6</ele>
        <time>2025-08-07T13:53:15Z</time>
      </trkpt>
      <trkpt lat="45.88544" lon="2.91025">
        <ele>851.6</ele>
        <time>2025-08-07T13:53:16Z</time>
      </trkpt>
      <trkpt lat="45.8854" lon="2.91025">
        <ele>851.8</ele>
        <time>2025-08-07T13:53:17Z</time>
      </trkpt>
      <trkpt lat="45.88535" lon="2.91025">
        <ele>852</ele>
        <time>2025-08-07T13:53:18Z</time>
      </trkpt>
      <trkpt lat="45.8853" lon="2.91025">
        <ele>852.2</ele>
        <time>2025-08-07T13:53:19Z</time>
      </trkpt>
      <trkpt lat="45.88526" lon="2.91024">
        <ele>852.4</ele>
        <time>2025-08-07T13:53:20Z</time>
      </trkpt>
      <trkpt lat="45.88522" lon="2.9102">
        <ele>852.6</ele>
        <time>2025-08-07T13:53:21Z</time>
      </trkpt>
      <trkpt lat="45.88517" lon="2.91017">
        <ele>852.6</ele>
        <time>2025-08-07T13:53:22Z</time>
      </trkpt>
      <trkpt lat="45.88514" lon="2.91014">
        <ele>852.8</ele>
        <time>2025-08-07T13:53:23Z</time>
      </trkpt>
      <trkpt lat="45.88509" lon="2.91011">
        <ele>852.8</ele>
        <time>2025-08-07T13:53:24Z</time>
      </trkpt>
      <trkpt lat="45.88505" lon="2.91006">
        <ele>852.6</ele>
        <time>2025-08-07T13:53:25Z</time>
      </trkpt>
      <trkpt lat="45.88501" lon="2.91001">
        <ele>852.6</ele>
        <time>2025-08-07T13:53:26Z</time>
      </trkpt>
      <trkpt lat="45.88499" lon="2.90994">
        <ele>852.4</ele>
        <time>2025-08-07T13:53:27Z</time>
      </trkpt>
      <trkpt lat="45.88497" lon="2.90986">
        <ele>852.2</ele>
        <time>2025-08-07T13:53:28Z</time>
      </trkpt>
      <trkpt lat="45.88496" lon="2.90978">
        <ele>852</ele>
        <time>2025-08-07T13:53:29Z</time>
      </trkpt>
      <trkpt lat="45.88494" lon="2.9097">
        <ele>851.8</ele>
        <time>2025-08-07T13:53:30Z</time>
      </trkpt>
      <trkpt lat="45.88492" lon="2.9096">
        <ele>851.4</ele>
        <time>2025-08-07T13:53:31Z</time>
      </trkpt>
      <trkpt lat="45.8849" lon="2.9095">
        <ele>851.2</ele>
        <time>2025-08-07T13:53:32Z</time>
      </trkpt>
      <trkpt lat="45.88487" lon="2.90941">
        <ele>851</ele>
        <time>2025-08-07T13:53:33Z</time>
      </trkpt>
      <trkpt lat="45.88484" lon="2.90931">
        <ele>850.6</ele>
        <time>2025-08-07T13:53:34Z</time>
      </trkpt>
      <trkpt lat="45.8848" lon="2.90923">
        <ele>850.4</ele>
        <time>2025-08-07T13:53:35Z</time>
      </trkpt>
      <trkpt lat="45.88476" lon="2.90915">
        <ele>850.2</ele>
        <time>2025-08-07T13:53:36Z</time>
      </trkpt>
      <trkpt lat="45.88471" lon="2.90908">
        <ele>850</ele>
        <time>2025-08-07T13:53:37Z</time>
      </trkpt>
      <trkpt lat="45.88466" lon="2.909">
        <ele>849.8</ele>
        <time>2025-08-07T13:53:38Z</time>
      </trkpt>
      <trkpt lat="45.88462" lon="2.90893">
        <ele>849.6</ele>
        <time>2025-08-07T13:53:39Z</time>
      </trkpt>
      <trkpt lat="45.88458" lon="2.90885">
        <ele>849.4</ele>
        <time>2025-08-07T13:53:40Z</time>
      </trkpt>
      <trkpt lat="45.88454" lon="2.90877">
        <ele>848.8</ele>
        <time>2025-08-07T13:53:41Z</time>
      </trkpt>
      <trkpt lat="45.8845" lon="2.90868">
        <ele>848.4</ele>
        <time>2025-08-07T13:53:42Z</time>
      </trkpt>
      <trkpt lat="45.88446" lon="2.90858">
        <ele>848</ele>
        <time>2025-08-07T13:53:43Z</time>
      </trkpt>
      <trkpt lat="45.88443" lon="2.90849">
        <ele>847.8</ele>
        <time>2025-08-07T13:53:44Z</time>
      </trkpt>
      <trkpt lat="45.8844" lon="2.90841">
        <ele>847.4</ele>
        <time>2025-08-07T13:53:45Z</time>
      </trkpt>
      <trkpt lat="45.88438" lon="2.90834">
        <ele>847</ele>
        <time>2025-08-07T13:53:46Z</time>
      </trkpt>
      <trkpt lat="45.88437" lon="2.9083">
        <ele>846.8</ele>
        <time>2025-08-07T13:53:47Z</time>
      </trkpt>
      <trkpt lat="45.88437" lon="2.90827">
        <ele>846.4</ele>
        <time>2025-08-07T13:53:48Z</time>
      </trkpt>
      <trkpt lat="45.88438" lon="2.90826">
        <ele>846</ele>
        <time>2025-08-07T13:53:49Z</time>
      </trkpt>
      <trkpt lat="45.88439" lon="2.90825">
        <ele>845.8</ele>
        <time>2025-08-07T13:53:50Z</time>
      </trkpt>
      <trkpt lat="45.8844" lon="2.90825">
        <ele>845.4</ele>
        <time>2025-08-07T13:53:51Z</time>
      </trkpt>
      <trkpt lat="45.8844" lon="2.90825">
        <ele>845.2</ele>
        <time>2025-08-07T13:53:52Z</time>
      </trkpt>
      <trkpt lat="45.88443" lon="2.90823">
        <ele>844.8</ele>
        <time>2025-08-07T13:53:53Z</time>
      </trkpt>
      <trkpt lat="45.88448" lon="2.90821">
        <ele>844.4</ele>
        <time>2025-08-07T13:53:54Z</time>
      </trkpt>
      <trkpt lat="45.88454" lon="2.90818">
        <ele>843.8</ele>
        <time>2025-08-07T13:53:55Z</time>
      </trkpt>
      <trkpt lat="45.8846" lon="2.90815">
        <ele>843.4</ele>
        <time>2025-08-07T13:53:56Z</time>
      </trkpt>
      <trkpt lat="45.88466" lon="2.90813">
        <ele>843</ele>
        <time>2025-08-07T13:53:57Z</time>
      </trkpt>
      <trkpt lat="45.88472" lon="2.9081">
        <ele>842.8</ele>
        <time>2025-08-07T13:53:58Z</time>
      </trkpt>
      <trkpt lat="45.88478" lon="2.90807">
        <ele>842.4</ele>
        <time>2025-08-07T13:53:59Z</time>
      </trkpt>
      <trkpt lat="45.88484" lon="2.90803">
        <ele>842.2</ele>
        <time>2025-08-07T13:54:00Z</time>
      </trkpt>
      <trkpt lat="45.88493" lon="2.90801">
        <ele>842</ele>
        <time>2025-08-07T13:54:01Z</time>
      </trkpt>
      <trkpt lat="45.88499" lon="2.90798">
        <ele>841.6</ele>
        <time>2025-08-07T13:54:02Z</time>
      </trkpt>
      <trkpt lat="45.88505" lon="2.90792">
        <ele>841.4</ele>
        <time>2025-08-07T13:54:03Z</time>
      </trkpt>
      <trkpt lat="45.8851" lon="2.90784">
        <ele>841.2</ele>
        <time>2025-08-07T13:54:04Z</time>
      </trkpt>
      <trkpt lat="45.88515" lon="2.90776">
        <ele>840.8</ele>
        <time>2025-08-07T13:54:05Z</time>
      </trkpt>
      <trkpt lat="45.8852" lon="2.90767">
        <ele>840.6</ele>
        <time>2025-08-07T13:54:06Z</time>
      </trkpt>
      <trkpt lat="45.88524" lon="2.90759">
        <ele>840.4</ele>
        <time>2025-08-07T13:54:07Z</time>
      </trkpt>
      <trkpt lat="45.88528" lon="2.90752">
        <ele>840</ele>
        <time>2025-08-07T13:54:08Z</time>
      </trkpt>
      <trkpt lat="45.88533" lon="2.90744">
        <ele>839.8</ele>
        <time>2025-08-07T13:54:09Z</time>
      </trkpt>
      <trkpt lat="45.88538" lon="2.90736">
        <ele>839.4</ele>
        <time>2025-08-07T13:54:10Z</time>
      </trkpt>
      <trkpt lat="45.88542" lon="2.90728">
        <ele>839</ele>
        <time>2025-08-07T13:54:11Z</time>
      </trkpt>
      <trkpt lat="45.88547" lon="2.90719">
        <ele>838.6</ele>
        <time>2025-08-07T13:54:12Z</time>
      </trkpt>
      <trkpt lat="45.88553" lon="2.90709">
        <ele>838.2</ele>
        <time>2025-08-07T13:54:13Z</time>
      </trkpt>
      <trkpt lat="45.88559" lon="2.907">
        <ele>837.6</ele>
        <time>2025-08-07T13:54:14Z</time>
      </trkpt>
      <trkpt lat="45.88565" lon="2.90691">
        <ele>837.2</ele>
        <time>2025-08-07T13:54:15Z</time>
      </trkpt>
      <trkpt lat="45.88568" lon="2.90683">
        <ele>836.8</ele>
        <time>2025-08-07T13:54:16Z</time>
      </trkpt>
      <trkpt lat="45.88572" lon="2.90678">
        <ele>836.2</ele>
        <time>2025-08-07T13:54:17Z</time>
      </trkpt>
      <trkpt lat="45.88574" lon="2.90671">
        <ele>835.8</ele>
        <time>2025-08-07T13:54:18Z</time>
      </trkpt>
      <trkpt lat="45.88575" lon="2.90662">
        <ele>835.4</ele>
        <time>2025-08-07T13:54:19Z</time>
      </trkpt>
      <trkpt lat="45.88573" lon="2.90654">
        <ele>835.4</ele>
        <time>2025-08-07T13:54:20Z</time>
      </trkpt>
      <trkpt lat="45.88569" lon="2.90645">
        <ele>835.2</ele>
        <time>2025-08-07T13:54:21Z</time>
      </trkpt>
      <trkpt lat="45.88563" lon="2.90636">
        <ele>834.8</ele>
        <time>2025-08-07T13:54:22Z</time>
      </trkpt>
      <trkpt lat="45.88557" lon="2.90627">
        <ele>834.6</ele>
        <time>2025-08-07T13:54:23Z</time>
      </trkpt>
      <trkpt lat="45.88552" lon="2.90621">
        <ele>834.4</ele>
        <time>2025-08-07T13:54:24Z</time>
      </trkpt>
      <trkpt lat="45.88547" lon="2.90616">
        <ele>834.2</ele>
        <time>2025-08-07T13:54:25Z</time>
      </trkpt>
      <trkpt lat="45.88543" lon="2.9061">
        <ele>834</ele>
        <time>2025-08-07T13:54:26Z</time>
      </trkpt>
      <trkpt lat="45.88537" lon="2.90604">
        <ele>833.8</ele>
        <time>2025-08-07T13:54:27Z</time>
      </trkpt>
      <trkpt lat="45.88531" lon="2.90593">
        <ele>833.6</ele>
        <time>2025-08-07T13:54:28Z</time>
      </trkpt>
      <trkpt lat="45.88527" lon="2.90585">
        <ele>833.2</ele>
        <time>2025-08-07T13:54:29Z</time>
      </trkpt>
      <trkpt lat="45.8852" lon="2.90576">
        <ele>832.8</ele>
        <time>2025-08-07T13:54:30Z</time>
      </trkpt>
      <trkpt lat="45.88514" lon="2.90568">
        <ele>832.2</ele>
        <time>2025-08-07T13:54:31Z</time>
      </trkpt>
      <trkpt lat="45.8851" lon="2.90558">
        <ele>832</ele>
        <time>2025-08-07T13:54:32Z</time>
      </trkpt>
      <trkpt lat="45.88506" lon="2.90547">
        <ele>831.6</ele>
        <time>2025-08-07T13:54:33Z</time>
      </trkpt>
      <trkpt lat="45.88502" lon="2.90537">
        <ele>831</ele>
        <time>2025-08-07T13:54:34Z</time>
      </trkpt>
      <trkpt lat="45.88499" lon="2.90527">
        <ele>830.6</ele>
        <time>2025-08-07T13:54:35Z</time>
      </trkpt>
      <trkpt lat="45.88495" lon="2.90518">
        <ele>830.4</ele>
        <time>2025-08-07T13:54:36Z</time>
      </trkpt>
      <trkpt lat="45.88491" lon="2.90509">
        <ele>830</ele>
        <time>2025-08-07T13:54:37Z</time>
      </trkpt>
      <trkpt lat="45.88487" lon="2.90501">
        <ele>829.6</ele>
        <time>2025-08-07T13:54:38Z</time>
      </trkpt>
      <trkpt lat="45.88482" lon="2.90494">
        <ele>829.4</ele>
        <time>2025-08-07T13:54:39Z</time>
      </trkpt>
      <trkpt lat="45.8848" lon="2.90487">
        <ele>829.4</ele>
        <time>2025-08-07T13:54:40Z</time>
      </trkpt>
      <trkpt lat="45.88477" lon="2.9048">
        <ele>829.2</ele>
        <time>2025-08-07T13:54:41Z</time>
      </trkpt>
      <trkpt lat="45.88473" lon="2.90472">
        <ele>829.2</ele>
        <time>2025-08-07T13:54:42Z</time>
      </trkpt>
      <trkpt lat="45.88469" lon="2.90462">
        <ele>829.2</ele>
        <time>2025-08-07T13:54:43Z</time>
      </trkpt>
      <trkpt lat="45.88465" lon="2.90455">
        <ele>828.8</ele>
        <time>2025-08-07T13:54:44Z</time>
      </trkpt>
      <trkpt lat="45.88461" lon="2.90449">
        <ele>828.4</ele>
        <time>2025-08-07T13:54:45Z</time>
      </trkpt>
      <trkpt lat="45.88456" lon="2.90439">
        <ele>827.8</ele>
        <time>2025-08-07T13:54:46Z</time>
      </trkpt>
      <trkpt lat="45.88451" lon="2.90427">
        <ele>827.2</ele>
        <time>2025-08-07T13:54:47Z</time>
      </trkpt>
      <trkpt lat="45.88447" lon="2.90415">
        <ele>826.6</ele>
        <time>2025-08-07T13:54:48Z</time>
      </trkpt>
      <trkpt lat="45.88443" lon="2.90404">
        <ele>826</ele>
        <time>2025-08-07T13:54:49Z</time>
      </trkpt>
      <trkpt lat="45.88439" lon="2.90391">
        <ele>825.6</ele>
        <time>2025-08-07T13:54:50Z</time>
      </trkpt>
      <trkpt lat="45.88435" lon="2.90379">
        <ele>825.2</ele>
        <time>2025-08-07T13:54:51Z</time>
      </trkpt>
      <trkpt lat="45.88431" lon="2.90368">
        <ele>825</ele>
        <time>2025-08-07T13:54:52Z</time>
      </trkpt>
      <trkpt lat="45.88428" lon="2.90356">
        <ele>824.4</ele>
        <time>2025-08-07T13:54:53Z</time>
      </trkpt>
      <trkpt lat="45.88423" lon="2.90341">
        <ele>823.8</ele>
        <time>2025-08-07T13:54:54Z</time>
      </trkpt>
      <trkpt lat="45.8842" lon="2.90331">
        <ele>823.4</ele>
        <time>2025-08-07T13:54:55Z</time>
      </trkpt>
      <trkpt lat="45.88418" lon="2.9032">
        <ele>823</ele>
        <time>2025-08-07T13:54:56Z</time>
      </trkpt>
      <trkpt lat="45.88416" lon="2.9031">
        <ele>822.8</ele>
        <time>2025-08-07T13:54:57Z</time>
      </trkpt>
      <trkpt lat="45.88413" lon="2.90297">
        <ele>822.4</ele>
        <time>2025-08-07T13:54:58Z</time>
      </trkpt>
      <trkpt lat="45.8841" lon="2.90287">
        <ele>822</ele>
        <time>2025-08-07T13:54:59Z</time>
      </trkpt>
      <trkpt lat="45.88408" lon="2.90277">
        <ele>821.6</ele>
        <time>2025-08-07T13:55:00Z</time>
      </trkpt>
      <trkpt lat="45.88406" lon="2.90267">
        <ele>821.2</ele>
        <time>2025-08-07T13:55:01Z</time>
      </trkpt>
      <trkpt lat="45.88405" lon="2.90257">
        <ele>820.8</ele>
        <time>2025-08-07T13:55:02Z</time>
      </trkpt>
      <trkpt lat="45.88403" lon="2.90246">
        <ele>820.4</ele>
        <time>2025-08-07T13:55:03Z</time>
      </trkpt>
      <trkpt lat="45.88403" lon="2.90235">
        <ele>820.2</ele>
        <time>2025-08-07T13:55:04Z</time>
      </trkpt>
      <trkpt lat="45.88402" lon="2.90224">
        <ele>819.8</ele>
        <time>2025-08-07T13:55:05Z</time>
      </trkpt>
      <trkpt lat="45.88401" lon="2.90212">
        <ele>819.4</ele>
        <time>2025-08-07T13:55:06Z</time>
      </trkpt>
      <trkpt lat="45.88401" lon="2.90201">
        <ele>818.6</ele>
        <time>2025-08-07T13:55:07Z</time>
      </trkpt>
      <trkpt lat="45.88401" lon="2.9019">
        <ele>818.2</ele>
        <time>2025-08-07T13:55:08Z</time>
      </trkpt>
      <trkpt lat="45.884" lon="2.90178">
        <ele>817.8</ele>
        <time>2025-08-07T13:55:09Z</time>
      </trkpt>
      <trkpt lat="45.884" lon="2.90167">
        <ele>817.2</ele>
        <time>2025-08-07T13:55:10Z</time>
      </trkpt>
      <trkpt lat="45.88398" lon="2.90155">
        <ele>816.8</ele>
        <time>2025-08-07T13:55:11Z</time>
      </trkpt>
      <trkpt lat="45.88398" lon="2.90143">
        <ele>816</ele>
        <time>2025-08-07T13:55:12Z</time>
      </trkpt>
      <trkpt lat="45.88398" lon="2.90131">
        <ele>815.4</ele>
        <time>2025-08-07T13:55:13Z</time>
      </trkpt>
      <trkpt lat="45.88398" lon="2.90119">
        <ele>814.8</ele>
        <time>2025-08-07T13:55:14Z</time>
      </trkpt>
      <trkpt lat="45.88398" lon="2.90106">
        <ele>814.2</ele>
        <time>2025-08-07T13:55:15Z</time>
      </trkpt>
      <trkpt lat="45.88398" lon="2.90094">
        <ele>813.4</ele>
        <time>2025-08-07T13:55:16Z</time>
      </trkpt>
      <trkpt lat="45.88398" lon="2.90084">
        <ele>812.4</ele>
        <time>2025-08-07T13:55:17Z</time>
      </trkpt>
      <trkpt lat="45.88398" lon="2.90074">
        <ele>812</ele>
        <time>2025-08-07T13:55:18Z</time>
      </trkpt>
      <trkpt lat="45.88398" lon="2.90064">
        <ele>811.6</ele>
        <time>2025-08-07T13:55:19Z</time>
      </trkpt>
      <trkpt lat="45.88397" lon="2.90053">
        <ele>811.4</ele>
        <time>2025-08-07T13:55:20Z</time>
      </trkpt>
      <trkpt lat="45.88397" lon="2.90042">
        <ele>811.2</ele>
        <time>2025-08-07T13:55:21Z</time>
      </trkpt>
      <trkpt lat="45.88395" lon="2.90032">
        <ele>811.2</ele>
        <time>2025-08-07T13:55:22Z</time>
      </trkpt>
      <trkpt lat="45.88394" lon="2.90022">
        <ele>811</ele>
        <time>2025-08-07T13:55:23Z</time>
      </trkpt>
      <trkpt lat="45.88391" lon="2.90011">
        <ele>810.8</ele>
        <time>2025-08-07T13:55:24Z</time>
      </trkpt>
      <trkpt lat="45.88387" lon="2.90001">
        <ele>810.8</ele>
        <time>2025-08-07T13:55:25Z</time>
      </trkpt>
      <trkpt lat="45.88383" lon="2.89992">
        <ele>810.8</ele>
        <time>2025-08-07T13:55:26Z</time>
      </trkpt>
      <trkpt lat="45.88378" lon="2.89984">
        <ele>810.6</ele>
        <time>2025-08-07T13:55:27Z</time>
      </trkpt>
      <trkpt lat="45.88373" lon="2.89978">
        <ele>810.6</ele>
        <time>2025-08-07T13:55:28Z</time>
      </trkpt>
      <trkpt lat="45.88369" lon="2.89972">
        <ele>810.6</ele>
        <time>2025-08-07T13:55:29Z</time>
      </trkpt>
      <trkpt lat="45.88364" lon="2.89967">
        <ele>810.8</ele>
        <time>2025-08-07T13:55:30Z</time>
      </trkpt>
      <trkpt lat="45.8836" lon="2.89964">
        <ele>810.6</ele>
        <time>2025-08-07T13:55:31Z</time>
      </trkpt>
      <trkpt lat="45.88355" lon="2.8996">
        <ele>810.6</ele>
        <time>2025-08-07T13:55:32Z</time>
      </trkpt>
      <trkpt lat="45.8835" lon="2.89957">
        <ele>810.6</ele>
        <time>2025-08-07T13:55:33Z</time>
      </trkpt>
      <trkpt lat="45.88345" lon="2.89954">
        <ele>810.6</ele>
        <time>2025-08-07T13:55:34Z</time>
      </trkpt>
      <trkpt lat="45.8834" lon="2.8995">
        <ele>810.8</ele>
        <time>2025-08-07T13:55:35Z</time>
      </trkpt>
      <trkpt lat="45.88335" lon="2.89946">
        <ele>810.8</ele>
        <time>2025-08-07T13:55:36Z</time>
      </trkpt>
      <trkpt lat="45.8833" lon="2.89942">
        <ele>811</ele>
        <time>2025-08-07T13:55:37Z</time>
      </trkpt>
      <trkpt lat="45.88325" lon="2.89937">
        <ele>810.8</ele>
        <time>2025-08-07T13:55:38Z</time>
      </trkpt>
      <trkpt lat="45.88321" lon="2.89932">
        <ele>811</ele>
        <time>2025-08-07T13:55:39Z</time>
      </trkpt>
      <trkpt lat="45.88317" lon="2.89926">
        <ele>811</ele>
        <time>2025-08-07T13:55:40Z</time>
      </trkpt>
      <trkpt lat="45.88314" lon="2.8992">
        <ele>811.2</ele>
        <time>2025-08-07T13:55:41Z</time>
      </trkpt>
      <trkpt lat="45.88311" lon="2.89915">
        <ele>811.2</ele>
        <time>2025-08-07T13:55:42Z</time>
      </trkpt>
      <trkpt lat="45.88309" lon="2.89909">
        <ele>811.4</ele>
        <time>2025-08-07T13:55:43Z</time>
      </trkpt>
      <trkpt lat="45.88307" lon="2.89904">
        <ele>811.8</ele>
        <time>2025-08-07T13:55:44Z</time>
      </trkpt>
      <trkpt lat="45.88304" lon="2.89898">
        <ele>812</ele>
        <time>2025-08-07T13:55:45Z</time>
      </trkpt>
      <trkpt lat="45.88302" lon="2.89893">
        <ele>812.4</ele>
        <time>2025-08-07T13:55:46Z</time>
      </trkpt>
      <trkpt lat="45.88299" lon="2.89888">
        <ele>812.6</ele>
        <time>2025-08-07T13:55:47Z</time>
      </trkpt>
      <trkpt lat="45.88297" lon="2.89883">
        <ele>813</ele>
        <time>2025-08-07T13:55:48Z</time>
      </trkpt>
      <trkpt lat="45.88294" lon="2.89878">
        <ele>813.4</ele>
        <time>2025-08-07T13:55:49Z</time>
      </trkpt>
      <trkpt lat="45.88291" lon="2.89873">
        <ele>813.8</ele>
        <time>2025-08-07T13:55:50Z</time>
      </trkpt>
      <trkpt lat="45.88289" lon="2.89868">
        <ele>814.2</ele>
        <time>2025-08-07T13:55:51Z</time>
      </trkpt>
      <trkpt lat="45.88286" lon="2.89864">
        <ele>814.4</ele>
        <time>2025-08-07T13:55:52Z</time>
      </trkpt>
      <trkpt lat="45.88283" lon="2.89859">
        <ele>814.8</ele>
        <time>2025-08-07T13:55:53Z</time>
      </trkpt>
      <trkpt lat="45.88281" lon="2.89854">
        <ele>815.2</ele>
        <time>2025-08-07T13:55:54Z</time>
      </trkpt>
      <trkpt lat="45.88278" lon="2.89849">
        <ele>815.4</ele>
        <time>2025-08-07T13:55:55Z</time>
      </trkpt>
      <trkpt lat="45.88274" lon="2.89844">
        <ele>815.6</ele>
        <time>2025-08-07T13:55:56Z</time>
      </trkpt>
      <trkpt lat="45.8827" lon="2.8984">
        <ele>815.8</ele>
        <time>2025-08-07T13:55:57Z</time>
      </trkpt>
      <trkpt lat="45.88267" lon="2.89835">
        <ele>815.8</ele>
        <time>2025-08-07T13:55:58Z</time>
      </trkpt>
      <trkpt lat="45.88264" lon="2.8983">
        <ele>815.8</ele>
        <time>2025-08-07T13:55:59Z</time>
      </trkpt>
      <trkpt lat="45.8826" lon="2.89823">
        <ele>815.8</ele>
        <time>2025-08-07T13:56:00Z</time>
      </trkpt>
      <trkpt lat="45.88258" lon="2.89816">
        <ele>815.8</ele>
        <time>2025-08-07T13:56:01Z</time>
      </trkpt>
      <trkpt lat="45.88257" lon="2.89808">
        <ele>815.8</ele>
        <time>2025-08-07T13:56:02Z</time>
      </trkpt>
      <trkpt lat="45.88256" lon="2.89801">
        <ele>815.8</ele>
        <time>2025-08-07T13:56:03Z</time>
      </trkpt>
      <trkpt lat="45.88255" lon="2.89793">
        <ele>815.6</ele>
        <time>2025-08-07T13:56:04Z</time>
      </trkpt>
      <trkpt lat="45.88255" lon="2.89785">
        <ele>815.8</ele>
        <time>2025-08-07T13:56:05Z</time>
      </trkpt>
      <trkpt lat="45.88254" lon="2.89777">
        <ele>815.6</ele>
        <time>2025-08-07T13:56:06Z</time>
      </trkpt>
      <trkpt lat="45.88254" lon="2.89769">
        <ele>815.6</ele>
        <time>2025-08-07T13:56:07Z</time>
      </trkpt>
      <trkpt lat="45.88253" lon="2.89761">
        <ele>815.4</ele>
        <time>2025-08-07T13:56:08Z</time>
      </trkpt>
      <trkpt lat="45.88253" lon="2.89754">
        <ele>815.4</ele>
        <time>2025-08-07T13:56:09Z</time>
      </trkpt>
      <trkpt lat="45.88252" lon="2.89746">
        <ele>815.2</ele>
        <time>2025-08-07T13:56:10Z</time>
      </trkpt>
      <trkpt lat="45.8825" lon="2.89739">
        <ele>815.2</ele>
        <time>2025-08-07T13:56:11Z</time>
      </trkpt>
      <trkpt lat="45.88249" lon="2.89732">
        <ele>815</ele>
        <time>2025-08-07T13:56:12Z</time>
      </trkpt>
      <trkpt lat="45.88246" lon="2.89726">
        <ele>814.6</ele>
        <time>2025-08-07T13:56:13Z</time>
      </trkpt>
      <trkpt lat="45.88244" lon="2.8972">
        <ele>814.4</ele>
        <time>2025-08-07T13:56:14Z</time>
      </trkpt>
      <trkpt lat="45.88242" lon="2.89716">
        <ele>814</ele>
        <time>2025-08-07T13:56:15Z</time>
      </trkpt>
      <trkpt lat="45.88239" lon="2.89713">
        <ele>813.6</ele>
        <time>2025-08-07T13:56:16Z</time>
      </trkpt>
      <trkpt lat="45.88237" lon="2.8971">
        <ele>813.2</ele>
        <time>2025-08-07T13:56:17Z</time>
      </trkpt>
      <trkpt lat="45.88236" lon="2.89707">
        <ele>812.8</ele>
        <time>2025-08-07T13:56:18Z</time>
      </trkpt>
      <trkpt lat="45.88234" lon="2.89705">
        <ele>812.4</ele>
        <time>2025-08-07T13:56:19Z</time>
      </trkpt>
      <trkpt lat="45.88234" lon="2.89703">
        <ele>812.2</ele>
        <time>2025-08-07T13:56:20Z</time>
      </trkpt>
      <trkpt lat="45.88234" lon="2.89699">
        <ele>811.8</ele>
        <time>2025-08-07T13:56:21Z</time>
      </trkpt>
      <trkpt lat="45.88236" lon="2.89697">
        <ele>811.8</ele>
        <time>2025-08-07T13:56:22Z</time>
      </trkpt>
      <trkpt lat="45.88237" lon="2.89694">
        <ele>811.6</ele>
        <time>2025-08-07T13:56:23Z</time>
      </trkpt>
      <trkpt lat="45.8824" lon="2.89693">
        <ele>811.6</ele>
        <time>2025-08-07T13:56:24Z</time>
      </trkpt>
      <trkpt lat="45.88243" lon="2.89692">
        <ele>811.6</ele>
        <time>2025-08-07T13:56:25Z</time>
      </trkpt>
      <trkpt lat="45.88247" lon="2.89692">
        <ele>811.6</ele>
        <time>2025-08-07T13:56:26Z</time>
      </trkpt>
      <trkpt lat="45.8825" lon="2.89691">
        <ele>811.8</ele>
        <time>2025-08-07T13:56:27Z</time>
      </trkpt>
      <trkpt lat="45.88254" lon="2.89691">
        <ele>811.8</ele>
        <time>2025-08-07T13:56:28Z</time>
      </trkpt>
      <trkpt lat="45.88258" lon="2.8969">
        <ele>812</ele>
        <time>2025-08-07T13:56:29Z</time>
      </trkpt>
      <trkpt lat="45.88262" lon="2.8969">
        <ele>812.2</ele>
        <time>2025-08-07T13:56:30Z</time>
      </trkpt>
      <trkpt lat="45.88265" lon="2.89689">
        <ele>812.4</ele>
        <time>2025-08-07T13:56:31Z</time>
      </trkpt>
      <trkpt lat="45.88269" lon="2.89689">
        <ele>812.6</ele>
        <time>2025-08-07T13:56:32Z</time>
      </trkpt>
      <trkpt lat="45.88274" lon="2.89688">
        <ele>812.8</ele>
        <time>2025-08-07T13:56:33Z</time>
      </trkpt>
      <trkpt lat="45.88279" lon="2.89688">
        <ele>813</ele>
        <time>2025-08-07T13:56:34Z</time>
      </trkpt>
      <trkpt lat="45.88283" lon="2.89689">
        <ele>813.2</ele>
        <time>2025-08-07T13:56:35Z</time>
      </trkpt>
      <trkpt lat="45.88288" lon="2.8969">
        <ele>813.6</ele>
        <time>2025-08-07T13:56:36Z</time>
      </trkpt>
      <trkpt lat="45.88293" lon="2.8969">
        <ele>814</ele>
        <time>2025-08-07T13:56:37Z</time>
      </trkpt>
      <trkpt lat="45.88297" lon="2.8969">
        <ele>814.2</ele>
        <time>2025-08-07T13:56:38Z</time>
      </trkpt>
      <trkpt lat="45.883" lon="2.8969">
        <ele>814.6</ele>
        <time>2025-08-07T13:56:39Z</time>
      </trkpt>
      <trkpt lat="45.88305" lon="2.89691">
        <ele>814.8</ele>
        <time>2025-08-07T13:56:40Z</time>
      </trkpt>
      <trkpt lat="45.88308" lon="2.89692">
        <ele>815.2</ele>
        <time>2025-08-07T13:56:41Z</time>
      </trkpt>
      <trkpt lat="45.88312" lon="2.89693">
        <ele>815.6</ele>
        <time>2025-08-07T13:56:42Z</time>
      </trkpt>
      <trkpt lat="45.88316" lon="2.89694">
        <ele>816</ele>
        <time>2025-08-07T13:56:43Z</time>
      </trkpt>
      <trkpt lat="45.8832" lon="2.89696">
        <ele>816.2</ele>
        <time>2025-08-07T13:56:44Z</time>
      </trkpt>
      <trkpt lat="45.88323" lon="2.89696">
        <ele>816.6</ele>
        <time>2025-08-07T13:56:45Z</time>
      </trkpt>
      <trkpt lat="45.88326" lon="2.89697">
        <ele>817</ele>
        <time>2025-08-07T13:56:46Z</time>
      </trkpt>
      <trkpt lat="45.8833" lon="2.89697">
        <ele>817.4</ele>
        <time>2025-08-07T13:56:47Z</time>
      </trkpt>
      <trkpt lat="45.88334" lon="2.89697">
        <ele>817.8</ele>
        <time>2025-08-07T13:56:48Z</time>
      </trkpt>
      <trkpt lat="45.88337" lon="2.89698">
        <ele>818.2</ele>
        <time>2025-08-07T13:56:49Z</time>
      </trkpt>
      <trkpt lat="45.88341" lon="2.89699">
        <ele>818.4</ele>
        <time>2025-08-07T13:56:50Z</time>
      </trkpt>
      <trkpt lat="45.88344" lon="2.89701">
        <ele>818.8</ele>
        <time>2025-08-07T13:56:51Z</time>
      </trkpt>
      <trkpt lat="45.88348" lon="2.89702">
        <ele>819.2</ele>
        <time>2025-08-07T13:56:52Z</time>
      </trkpt>
      <trkpt lat="45.88351" lon="2.89703">
        <ele>819.6</ele>
        <time>2025-08-07T13:56:53Z</time>
      </trkpt>
      <trkpt lat="45.88355" lon="2.89704">
        <ele>819.8</ele>
        <time>2025-08-07T13:56:54Z</time>
      </trkpt>
      <trkpt lat="45.88358" lon="2.89705">
        <ele>820.2</ele>
        <time>2025-08-07T13:56:55Z</time>
      </trkpt>
      <trkpt lat="45.88362" lon="2.89706">
        <ele>820.4</ele>
        <time>2025-08-07T13:56:56Z</time>
      </trkpt>
      <trkpt lat="45.88365" lon="2.89706">
        <ele>820.6</ele>
        <time>2025-08-07T13:56:57Z</time>
      </trkpt>
      <trkpt lat="45.88368" lon="2.89706">
        <ele>821</ele>
        <time>2025-08-07T13:56:58Z</time>
      </trkpt>
      <trkpt lat="45.88371" lon="2.89706">
        <ele>821.2</ele>
        <time>2025-08-07T13:56:59Z</time>
      </trkpt>
      <trkpt lat="45.88375" lon="2.89706">
        <ele>821.4</ele>
        <time>2025-08-07T13:57:00Z</time>
      </trkpt>
      <trkpt lat="45.88378" lon="2.89706">
        <ele>821.6</ele>
        <time>2025-08-07T13:57:01Z</time>
      </trkpt>
      <trkpt lat="45.88382" lon="2.89707">
        <ele>821.8</ele>
        <time>2025-08-07T13:57:02Z</time>
      </trkpt>
      <trkpt lat="45.88386" lon="2.89707">
        <ele>822</ele>
        <time>2025-08-07T13:57:03Z</time>
      </trkpt>
      <trkpt lat="45.88389" lon="2.89708">
        <ele>822.2</ele>
        <time>2025-08-07T13:57:04Z</time>
      </trkpt>
      <trkpt lat="45.88393" lon="2.89708">
        <ele>822.6</ele>
        <time>2025-08-07T13:57:05Z</time>
      </trkpt>
      <trkpt lat="45.88397" lon="2.89708">
        <ele>822.8</ele>
        <time>2025-08-07T13:57:06Z</time>
      </trkpt>
      <trkpt lat="45.884" lon="2.89709">
        <ele>823</ele>
        <time>2025-08-07T13:57:07Z</time>
      </trkpt>
      <trkpt lat="45.88404" lon="2.89709">
        <ele>823.2</ele>
        <time>2025-08-07T13:57:08Z</time>
      </trkpt>
      <trkpt lat="45.88408" lon="2.8971">
        <ele>823.6</ele>
        <time>2025-08-07T13:57:09Z</time>
      </trkpt>
      <trkpt lat="45.88412" lon="2.8971">
        <ele>823.8</ele>
        <time>2025-08-07T13:57:10Z</time>
      </trkpt>
      <trkpt lat="45.88416" lon="2.89709">
        <ele>823.8</ele>
        <time>2025-08-07T13:57:11Z</time>
      </trkpt>
      <trkpt lat="45.8842" lon="2.89708">
        <ele>824</ele>
        <time>2025-08-07T13:57:12Z</time>
      </trkpt>
      <trkpt lat="45.88424" lon="2.89706">
        <ele>824</ele>
        <time>2025-08-07T13:57:13Z</time>
      </trkpt>
      <trkpt lat="45.88428" lon="2.89703">
        <ele>824.2</ele>
        <time>2025-08-07T13:57:14Z</time>
      </trkpt>
      <trkpt lat="45.88432" lon="2.897">
        <ele>824.2</ele>
        <time>2025-08-07T13:57:15Z</time>
      </trkpt>
      <trkpt lat="45.88437" lon="2.89698">
        <ele>824.4</ele>
        <time>2025-08-07T13:57:16Z</time>
      </trkpt>
      <trkpt lat="45.88441" lon="2.89695">
        <ele>824.4</ele>
        <time>2025-08-07T13:57:17Z</time>
      </trkpt>
      <trkpt lat="45.88445" lon="2.89692">
        <ele>824.4</ele>
        <time>2025-08-07T13:57:18Z</time>
      </trkpt>
      <trkpt lat="45.8845" lon="2.89688">
        <ele>824.6</ele>
        <time>2025-08-07T13:57:19Z</time>
      </trkpt>
      <trkpt lat="45.88454" lon="2.89685">
        <ele>824.6</ele>
        <time>2025-08-07T13:57:20Z</time>
      </trkpt>
      <trkpt lat="45.88459" lon="2.89681">
        <ele>824.8</ele>
        <time>2025-08-07T13:57:21Z</time>
      </trkpt>
      <trkpt lat="45.88463" lon="2.89678">
        <ele>824.8</ele>
        <time>2025-08-07T13:57:22Z</time>
      </trkpt>
      <trkpt lat="45.88467" lon="2.89675">
        <ele>825</ele>
        <time>2025-08-07T13:57:23Z</time>
      </trkpt>
      <trkpt lat="45.88471" lon="2.89671">
        <ele>825</ele>
        <time>2025-08-07T13:57:24Z</time>
      </trkpt>
      <trkpt lat="45.88474" lon="2.89668">
        <ele>825.2</ele>
        <time>2025-08-07T13:57:25Z</time>
      </trkpt>
      <trkpt lat="45.88478" lon="2.89664">
        <ele>825.2</ele>
        <time>2025-08-07T13:57:26Z</time>
      </trkpt>
      <trkpt lat="45.88482" lon="2.8966">
        <ele>825.4</ele>
        <time>2025-08-07T13:57:27Z</time>
      </trkpt>
      <trkpt lat="45.88486" lon="2.89657">
        <ele>825.4</ele>
        <time>2025-08-07T13:57:28Z</time>
      </trkpt>
      <trkpt lat="45.8849" lon="2.89654">
        <ele>825.6</ele>
        <time>2025-08-07T13:57:29Z</time>
      </trkpt>
      <trkpt lat="45.88494" lon="2.8965">
        <ele>825.8</ele>
        <time>2025-08-07T13:57:30Z</time>
      </trkpt>
      <trkpt lat="45.88497" lon="2.89647">
        <ele>826</ele>
        <time>2025-08-07T13:57:31Z</time>
      </trkpt>
      <trkpt lat="45.88501" lon="2.89644">
        <ele>826.2</ele>
        <time>2025-08-07T13:57:32Z</time>
      </trkpt>
      <trkpt lat="45.88505" lon="2.89641">
        <ele>826.4</ele>
        <time>2025-08-07T13:57:33Z</time>
      </trkpt>
      <trkpt lat="45.88508" lon="2.89638">
        <ele>826.8</ele>
        <time>2025-08-07T13:57:34Z</time>
      </trkpt>
      <trkpt lat="45.88514" lon="2.89634">
        <ele>827.2</ele>
        <time>2025-08-07T13:57:35Z</time>
      </trkpt>
      <trkpt lat="45.88517" lon="2.8963">
        <ele>827.6</ele>
        <time>2025-08-07T13:57:36Z</time>
      </trkpt>
      <trkpt lat="45.8852" lon="2.89625">
        <ele>828</ele>
        <time>2025-08-07T13:57:37Z</time>
      </trkpt>
      <trkpt lat="45.88523" lon="2.89621">
        <ele>828.4</ele>
        <time>2025-08-07T13:57:38Z</time>
      </trkpt>
      <trkpt lat="45.88525" lon="2.89616">
        <ele>828.8</ele>
        <time>2025-08-07T13:57:39Z</time>
      </trkpt>
      <trkpt lat="45.88528" lon="2.8961">
        <ele>829.2</ele>
        <time>2025-08-07T13:57:40Z</time>
      </trkpt>
      <trkpt lat="45.88529" lon="2.89604">
        <ele>829.6</ele>
        <time>2025-08-07T13:57:41Z</time>
      </trkpt>
      <trkpt lat="45.88531" lon="2.89599">
        <ele>829.8</ele>
        <time>2025-08-07T13:57:42Z</time>
      </trkpt>
      <trkpt lat="45.88533" lon="2.89593">
        <ele>830.2</ele>
        <time>2025-08-07T13:57:43Z</time>
      </trkpt>
      <trkpt lat="45.88536" lon="2.89586">
        <ele>830.4</ele>
        <time>2025-08-07T13:57:44Z</time>
      </trkpt>
      <trkpt lat="45.88537" lon="2.8958">
        <ele>830.6</ele>
        <time>2025-08-07T13:57:45Z</time>
      </trkpt>
      <trkpt lat="45.88539" lon="2.89574">
        <ele>831</ele>
        <time>2025-08-07T13:57:46Z</time>
      </trkpt>
      <trkpt lat="45.88541" lon="2.89568">
        <ele>831.2</ele>
        <time>2025-08-07T13:57:47Z</time>
      </trkpt>
      <trkpt lat="45.88542" lon="2.89562">
        <ele>831.4</ele>
        <time>2025-08-07T13:57:48Z</time>
      </trkpt>
      <trkpt lat="45.88542" lon="2.89555">
        <ele>831.6</ele>
        <time>2025-08-07T13:57:49Z</time>
      </trkpt>
      <trkpt lat="45.88542" lon="2.89549">
        <ele>831.8</ele>
        <time>2025-08-07T13:57:50Z</time>
      </trkpt>
      <trkpt lat="45.88542" lon="2.89543">
        <ele>831.8</ele>
        <time>2025-08-07T13:57:51Z</time>
      </trkpt>
      <trkpt lat="45.88543" lon="2.89539">
        <ele>832</ele>
        <time>2025-08-07T13:57:52Z</time>
      </trkpt>
      <trkpt lat="45.88543" lon="2.89535">
        <ele>832.2</ele>
        <time>2025-08-07T13:57:53Z</time>
      </trkpt>
      <trkpt lat="45.88542" lon="2.89532">
        <ele>832.4</ele>
        <time>2025-08-07T13:57:54Z</time>
      </trkpt>
      <trkpt lat="45.88542" lon="2.89527">
        <ele>832.6</ele>
        <time>2025-08-07T13:57:55Z</time>
      </trkpt>
      <trkpt lat="45.88542" lon="2.89523">
        <ele>832.8</ele>
        <time>2025-08-07T13:57:56Z</time>
      </trkpt>
      <trkpt lat="45.88542" lon="2.89518">
        <ele>833</ele>
        <time>2025-08-07T13:57:57Z</time>
      </trkpt>
      <trkpt lat="45.88542" lon="2.89514">
        <ele>833.2</ele>
        <time>2025-08-07T13:57:58Z</time>
      </trkpt>
      <trkpt lat="45.88542" lon="2.89509">
        <ele>833.4</ele>
        <time>2025-08-07T13:57:59Z</time>
      </trkpt>
      <trkpt lat="45.88541" lon="2.89504">
        <ele>833.6</ele>
        <time>2025-08-07T13:58:00Z</time>
      </trkpt>
      <trkpt lat="45.88541" lon="2.89498">
        <ele>833.8</ele>
        <time>2025-08-07T13:58:01Z</time>
      </trkpt>
      <trkpt lat="45.88541" lon="2.89493">
        <ele>834</ele>
        <time>2025-08-07T13:58:02Z</time>
      </trkpt>
      <trkpt lat="45.8854" lon="2.89487">
        <ele>834.2</ele>
        <time>2025-08-07T13:58:03Z</time>
      </trkpt>
      <trkpt lat="45.8854" lon="2.89481">
        <ele>834.4</ele>
        <time>2025-08-07T13:58:04Z</time>
      </trkpt>
      <trkpt lat="45.8854" lon="2.89476">
        <ele>834.6</ele>
        <time>2025-08-07T13:58:05Z</time>
      </trkpt>
      <trkpt lat="45.8854" lon="2.89471">
        <ele>834.8</ele>
        <time>2025-08-07T13:58:06Z</time>
      </trkpt>
      <trkpt lat="45.8854" lon="2.89465">
        <ele>835</ele>
        <time>2025-08-07T13:58:07Z</time>
      </trkpt>
      <trkpt lat="45.88538" lon="2.8946">
        <ele>835.2</ele>
        <time>2025-08-07T13:58:08Z</time>
      </trkpt>
      <trkpt lat="45.88537" lon="2.89455">
        <ele>835.4</ele>
        <time>2025-08-07T13:58:09Z</time>
      </trkpt>
      <trkpt lat="45.88535" lon="2.89449">
        <ele>835.4</ele>
        <time>2025-08-07T13:58:10Z</time>
      </trkpt>
      <trkpt lat="45.88534" lon="2.89444">
        <ele>835.6</ele>
        <time>2025-08-07T13:58:11Z</time>
      </trkpt>
      <trkpt lat="45.88533" lon="2.89438">
        <ele>835.8</ele>
        <time>2025-08-07T13:58:12Z</time>
      </trkpt>
      <trkpt lat="45.88533" lon="2.89433">
        <ele>836</ele>
        <time>2025-08-07T13:58:13Z</time>
      </trkpt>
      <trkpt lat="45.88533" lon="2.89429">
        <ele>836.2</ele>
        <time>2025-08-07T13:58:14Z</time>
      </trkpt>
      <trkpt lat="45.88533" lon="2.89424">
        <ele>836.4</ele>
        <time>2025-08-07T13:58:15Z</time>
      </trkpt>
      <trkpt lat="45.88532" lon="2.89419">
        <ele>836.6</ele>
        <time>2025-08-07T13:58:16Z</time>
      </trkpt>
      <trkpt lat="45.88532" lon="2.89413">
        <ele>836.8</ele>
        <time>2025-08-07T13:58:17Z</time>
      </trkpt>
      <trkpt lat="45.88532" lon="2.89408">
        <ele>837.2</ele>
        <time>2025-08-07T13:58:18Z</time>
      </trkpt>
      <trkpt lat="45.88533" lon="2.89403">
        <ele>837.6</ele>
        <time>2025-08-07T13:58:19Z</time>
      </trkpt>
      <trkpt lat="45.88534" lon="2.89398">
        <ele>837.8</ele>
        <time>2025-08-07T13:58:20Z</time>
      </trkpt>
      <trkpt lat="45.88535" lon="2.89393">
        <ele>838.2</ele>
        <time>2025-08-07T13:58:21Z</time>
      </trkpt>
      <trkpt lat="45.88536" lon="2.89388">
        <ele>838.4</ele>
        <time>2025-08-07T13:58:22Z</time>
      </trkpt>
      <trkpt lat="45.88537" lon="2.89384">
        <ele>838.8</ele>
        <time>2025-08-07T13:58:23Z</time>
      </trkpt>
      <trkpt lat="45.88537" lon="2.89379">
        <ele>839.2</ele>
        <time>2025-08-07T13:58:24Z</time>
      </trkpt>
      <trkpt lat="45.88537" lon="2.89374">
        <ele>839.4</ele>
        <time>2025-08-07T13:58:25Z</time>
      </trkpt>
      <trkpt lat="45.88537" lon="2.89369">
        <ele>839.8</ele>
        <time>2025-08-07T13:58:26Z</time>
      </trkpt>
      <trkpt lat="45.88538" lon="2.89364">
        <ele>840.2</ele>
        <time>2025-08-07T13:58:27Z</time>
      </trkpt>
      <trkpt lat="45.88538" lon="2.8936">
        <ele>840.4</ele>
        <time>2025-08-07T13:58:28Z</time>
      </trkpt>
      <trkpt lat="45.88539" lon="2.89356">
        <ele>840.8</ele>
        <time>2025-08-07T13:58:29Z</time>
      </trkpt>
      <trkpt lat="45.88539" lon="2.89352">
        <ele>841.2</ele>
        <time>2025-08-07T13:58:30Z</time>
      </trkpt>
      <trkpt lat="45.8854" lon="2.89347">
        <ele>841.4</ele>
        <time>2025-08-07T13:58:31Z</time>
      </trkpt>
      <trkpt lat="45.8854" lon="2.89342">
        <ele>841.8</ele>
        <time>2025-08-07T13:58:32Z</time>
      </trkpt>
      <trkpt lat="45.8854" lon="2.89337">
        <ele>842.2</ele>
        <time>2025-08-07T13:58:33Z</time>
      </trkpt>
      <trkpt lat="45.88541" lon="2.89333">
        <ele>842.6</ele>
        <time>2025-08-07T13:58:34Z</time>
      </trkpt>
      <trkpt lat="45.88543" lon="2.89329">
        <ele>843</ele>
        <time>2025-08-07T13:58:35Z</time>
      </trkpt>
      <trkpt lat="45.88544" lon="2.89325">
        <ele>843.4</ele>
        <time>2025-08-07T13:58:36Z</time>
      </trkpt>
      <trkpt lat="45.88546" lon="2.89321">
        <ele>843.6</ele>
        <time>2025-08-07T13:58:37Z</time>
      </trkpt>
      <trkpt lat="45.88548" lon="2.89317">
        <ele>844</ele>
        <time>2025-08-07T13:58:38Z</time>
      </trkpt>
      <trkpt lat="45.8855" lon="2.89313">
        <ele>844.2</ele>
        <time>2025-08-07T13:58:39Z</time>
      </trkpt>
      <trkpt lat="45.88551" lon="2.89309">
        <ele>844.4</ele>
        <time>2025-08-07T13:58:40Z</time>
      </trkpt>
      <trkpt lat="45.88552" lon="2.89305">
        <ele>844.6</ele>
        <time>2025-08-07T13:58:41Z</time>
      </trkpt>
      <trkpt lat="45.88553" lon="2.89302">
        <ele>844.8</ele>
        <time>2025-08-07T13:58:42Z</time>
      </trkpt>
      <trkpt lat="45.88554" lon="2.89298">
        <ele>844.8</ele>
        <time>2025-08-07T13:58:43Z</time>
      </trkpt>
      <trkpt lat="45.88555" lon="2.89294">
        <ele>845</ele>
        <time>2025-08-07T13:58:44Z</time>
      </trkpt>
      <trkpt lat="45.88556" lon="2.8929">
        <ele>845</ele>
        <time>2025-08-07T13:58:45Z</time>
      </trkpt>
      <trkpt lat="45.88557" lon="2.89286">
        <ele>845.2</ele>
        <time>2025-08-07T13:58:46Z</time>
      </trkpt>
      <trkpt lat="45.88559" lon="2.89282">
        <ele>845.2</ele>
        <time>2025-08-07T13:58:47Z</time>
      </trkpt>
      <trkpt lat="45.8856" lon="2.89278">
        <ele>845.4</ele>
        <time>2025-08-07T13:58:48Z</time>
      </trkpt>
      <trkpt lat="45.88561" lon="2.89273">
        <ele>845.4</ele>
        <time>2025-08-07T13:58:49Z</time>
      </trkpt>
      <trkpt lat="45.88562" lon="2.89268">
        <ele>845.6</ele>
        <time>2025-08-07T13:58:50Z</time>
      </trkpt>
      <trkpt lat="45.88563" lon="2.89264">
        <ele>845.6</ele>
        <time>2025-08-07T13:58:51Z</time>
      </trkpt>
      <trkpt lat="45.88565" lon="2.89259">
        <ele>845.8</ele>
        <time>2025-08-07T13:58:52Z</time>
      </trkpt>
      <trkpt lat="45.88566" lon="2.89254">
        <ele>846</ele>
        <time>2025-08-07T13:58:53Z</time>
      </trkpt>
      <trkpt lat="45.88567" lon="2.89249">
        <ele>846.2</ele>
        <time>2025-08-07T13:58:54Z</time>
      </trkpt>
      <trkpt lat="45.88568" lon="2.89245">
        <ele>846.4</ele>
        <time>2025-08-07T13:58:55Z</time>
      </trkpt>
      <trkpt lat="45.88568" lon="2.8924">
        <ele>846.6</ele>
        <time>2025-08-07T13:58:56Z</time>
      </trkpt>
      <trkpt lat="45.88569" lon="2.89236">
        <ele>846.8</ele>
        <time>2025-08-07T13:58:57Z</time>
      </trkpt>
      <trkpt lat="45.8857" lon="2.89231">
        <ele>847</ele>
        <time>2025-08-07T13:58:58Z</time>
      </trkpt>
      <trkpt lat="45.88571" lon="2.89227">
        <ele>847.2</ele>
        <time>2025-08-07T13:58:59Z</time>
      </trkpt>
      <trkpt lat="45.88572" lon="2.89225">
        <ele>847.4</ele>
        <time>2025-08-07T13:59:00Z</time>
      </trkpt>
      <trkpt lat="45.88573" lon="2.89222">
        <ele>847.6</ele>
        <time>2025-08-07T13:59:01Z</time>
      </trkpt>
      <trkpt lat="45.88575" lon="2.89215">
        <ele>847.8</ele>
        <time>2025-08-07T13:59:02Z</time>
      </trkpt>
      <trkpt lat="45.88576" lon="2.89211">
        <ele>848</ele>
        <time>2025-08-07T13:59:03Z</time>
      </trkpt>
      <trkpt lat="45.88578" lon="2.89206">
        <ele>848.2</ele>
        <time>2025-08-07T13:59:04Z</time>
      </trkpt>
      <trkpt lat="45.88578" lon="2.89203">
        <ele>848.4</ele>
        <time>2025-08-07T13:59:05Z</time>
      </trkpt>
      <trkpt lat="45.88579" lon="2.89198">
        <ele>848.6</ele>
        <time>2025-08-07T13:59:06Z</time>
      </trkpt>
      <trkpt lat="45.88581" lon="2.89194">
        <ele>849</ele>
        <time>2025-08-07T13:59:07Z</time>
      </trkpt>
      <trkpt lat="45.88583" lon="2.8919">
        <ele>849.2</ele>
        <time>2025-08-07T13:59:08Z</time>
      </trkpt>
      <trkpt lat="45.88584" lon="2.89187">
        <ele>849.6</ele>
        <time>2025-08-07T13:59:09Z</time>
      </trkpt>
      <trkpt lat="45.88586" lon="2.89184">
        <ele>849.8</ele>
        <time>2025-08-07T13:59:10Z</time>
      </trkpt>
      <trkpt lat="45.88587" lon="2.8918">
        <ele>850.2</ele>
        <time>2025-08-07T13:59:11Z</time>
      </trkpt>
      <trkpt lat="45.88589" lon="2.89176">
        <ele>850.4</ele>
        <time>2025-08-07T13:59:12Z</time>
      </trkpt>
      <trkpt lat="45.88591" lon="2.89172">
        <ele>850.8</ele>
        <time>2025-08-07T13:59:13Z</time>
      </trkpt>
      <trkpt lat="45.88592" lon="2.89168">
        <ele>851</ele>
        <time>2025-08-07T13:59:14Z</time>
      </trkpt>
      <trkpt lat="45.88594" lon="2.89165">
        <ele>851.4</ele>
        <time>2025-08-07T13:59:15Z</time>
      </trkpt>
      <trkpt lat="45.88596" lon="2.89162">
        <ele>851.6</ele>
        <time>2025-08-07T13:59:16Z</time>
      </trkpt>
      <trkpt lat="45.88598" lon="2.89158">
        <ele>851.8</ele>
        <time>2025-08-07T13:59:17Z</time>
      </trkpt>
      <trkpt lat="45.886" lon="2.89154">
        <ele>852.2</ele>
        <time>2025-08-07T13:59:18Z</time>
      </trkpt>
      <trkpt lat="45.88601" lon="2.89149">
        <ele>852.4</ele>
        <time>2025-08-07T13:59:19Z</time>
      </trkpt>
      <trkpt lat="45.88602" lon="2.89145">
        <ele>852.6</ele>
        <time>2025-08-07T13:59:20Z</time>
      </trkpt>
      <trkpt lat="45.88604" lon="2.89141">
        <ele>853</ele>
        <time>2025-08-07T13:59:21Z</time>
      </trkpt>
      <trkpt lat="45.88605" lon="2.89137">
        <ele>853.2</ele>
        <time>2025-08-07T13:59:22Z</time>
      </trkpt>
      <trkpt lat="45.88607" lon="2.89131">
        <ele>853.4</ele>
        <time>2025-08-07T13:59:23Z</time>
      </trkpt>
      <trkpt lat="45.88608" lon="2.89126">
        <ele>853.8</ele>
        <time>2025-08-07T13:59:24Z</time>
      </trkpt>
      <trkpt lat="45.8861" lon="2.89122">
        <ele>854</ele>
        <time>2025-08-07T13:59:25Z</time>
      </trkpt>
      <trkpt lat="45.88611" lon="2.89117">
        <ele>854.2</ele>
        <time>2025-08-07T13:59:26Z</time>
      </trkpt>
      <trkpt lat="45.88613" lon="2.89113">
        <ele>854.4</ele>
        <time>2025-08-07T13:59:27Z</time>
      </trkpt>
      <trkpt lat="45.88614" lon="2.89108">
        <ele>854.4</ele>
        <time>2025-08-07T13:59:28Z</time>
      </trkpt>
      <trkpt lat="45.88615" lon="2.89104">
        <ele>854.6</ele>
        <time>2025-08-07T13:59:29Z</time>
      </trkpt>
      <trkpt lat="45.88616" lon="2.89099">
        <ele>854.8</ele>
        <time>2025-08-07T13:59:30Z</time>
      </trkpt>
      <trkpt lat="45.88618" lon="2.89094">
        <ele>855</ele>
        <time>2025-08-07T13:59:31Z</time>
      </trkpt>
      <trkpt lat="45.88619" lon="2.8909">
        <ele>855.2</ele>
        <time>2025-08-07T13:59:32Z</time>
      </trkpt>
      <trkpt lat="45.8862" lon="2.89085">
        <ele>855.2</ele>
        <time>2025-08-07T13:59:33Z</time>
      </trkpt>
      <trkpt lat="45.88621" lon="2.89081">
        <ele>855.4</ele>
        <time>2025-08-07T13:59:34Z</time>
      </trkpt>
      <trkpt lat="45.88622" lon="2.89075">
        <ele>855.6</ele>
        <time>2025-08-07T13:59:35Z</time>
      </trkpt>
      <trkpt lat="45.88623" lon="2.8907">
        <ele>855.8</ele>
        <time>2025-08-07T13:59:36Z</time>
      </trkpt>
      <trkpt lat="45.88624" lon="2.89067">
        <ele>856.2</ele>
        <time>2025-08-07T13:59:37Z</time>
      </trkpt>
      <trkpt lat="45.88625" lon="2.89063">
        <ele>856.4</ele>
        <time>2025-08-07T13:59:38Z</time>
      </trkpt>
      <trkpt lat="45.88626" lon="2.89058">
        <ele>856.6</ele>
        <time>2025-08-07T13:59:39Z</time>
      </trkpt>
      <trkpt lat="45.88627" lon="2.89054">
        <ele>856.8</ele>
        <time>2025-08-07T13:59:40Z</time>
      </trkpt>
      <trkpt lat="45.88628" lon="2.8905">
        <ele>857.2</ele>
        <time>2025-08-07T13:59:41Z</time>
      </trkpt>
      <trkpt lat="45.88628" lon="2.89045">
        <ele>857.4</ele>
        <time>2025-08-07T13:59:42Z</time>
      </trkpt>
      <trkpt lat="45.88629" lon="2.8904">
        <ele>857.8</ele>
        <time>2025-08-07T13:59:43Z</time>
      </trkpt>
      <trkpt lat="45.8863" lon="2.89036">
        <ele>858</ele>
        <time>2025-08-07T13:59:44Z</time>
      </trkpt>
      <trkpt lat="45.88631" lon="2.89031">
        <ele>858.2</ele>
        <time>2025-08-07T13:59:45Z</time>
      </trkpt>
      <trkpt lat="45.88632" lon="2.89026">
        <ele>858.6</ele>
        <time>2025-08-07T13:59:46Z</time>
      </trkpt>
      <trkpt lat="45.88632" lon="2.89021">
        <ele>858.8</ele>
        <time>2025-08-07T13:59:47Z</time>
      </trkpt>
      <trkpt lat="45.88632" lon="2.89016">
        <ele>859</ele>
        <time>2025-08-07T13:59:48Z</time>
      </trkpt>
      <trkpt lat="45.88633" lon="2.89011">
        <ele>859.4</ele>
        <time>2025-08-07T13:59:49Z</time>
      </trkpt>
      <trkpt lat="45.88633" lon="2.89007">
        <ele>859.6</ele>
        <time>2025-08-07T13:59:50Z</time>
      </trkpt>
      <trkpt lat="45.88634" lon="2.89002">
        <ele>860</ele>
        <time>2025-08-07T13:59:51Z</time>
      </trkpt>
      <trkpt lat="45.88634" lon="2.88997">
        <ele>860.2</ele>
        <time>2025-08-07T13:59:52Z</time>
      </trkpt>
      <trkpt lat="45.88634" lon="2.88992">
        <ele>860.4</ele>
        <time>2025-08-07T13:59:53Z</time>
      </trkpt>
      <trkpt lat="45.88635" lon="2.88987">
        <ele>860.8</ele>
        <time>2025-08-07T13:59:54Z</time>
      </trkpt>
      <trkpt lat="45.88635" lon="2.88982">
        <ele>861</ele>
        <time>2025-08-07T13:59:55Z</time>
      </trkpt>
      <trkpt lat="45.88636" lon="2.88977">
        <ele>861.4</ele>
        <time>2025-08-07T13:59:56Z</time>
      </trkpt>
      <trkpt lat="45.88636" lon="2.88972">
        <ele>861.6</ele>
        <time>2025-08-07T13:59:57Z</time>
      </trkpt>
      <trkpt lat="45.88636" lon="2.88968">
        <ele>862</ele>
        <time>2025-08-07T13:59:58Z</time>
      </trkpt>
      <trkpt lat="45.88636" lon="2.88964">
        <ele>862.2</ele>
        <time>2025-08-07T13:59:59Z</time>
      </trkpt>
      <trkpt lat="45.88636" lon="2.8896">
        <ele>862.4</ele>
        <time>2025-08-07T14:00:00Z</time>
      </trkpt>
      <trkpt lat="45.88635" lon="2.88956">
        <ele>862.6</ele>
        <time>2025-08-07T14:00:01Z</time>
      </trkpt>
      <trkpt lat="45.88633" lon="2.88951">
        <ele>862.8</ele>
        <time>2025-08-07T14:00:02Z</time>
      </trkpt>
      <trkpt lat="45.88632" lon="2.88947">
        <ele>863</ele>
        <time>2025-08-07T14:00:03Z</time>
      </trkpt>
      <trkpt lat="45.88629" lon="2.88942">
        <ele>863</ele>
        <time>2025-08-07T14:00:04Z</time>
      </trkpt>
      <trkpt lat="45.88626" lon="2.88935">
        <ele>862.8</ele>
        <time>2025-08-07T14:00:05Z</time>
      </trkpt>
      <trkpt lat="45.88622" lon="2.8893">
        <ele>862.6</ele>
        <time>2025-08-07T14:00:06Z</time>
      </trkpt>
      <trkpt lat="45.88617" lon="2.88926">
        <ele>862.4</ele>
        <time>2025-08-07T14:00:07Z</time>
      </trkpt>
      <trkpt lat="45.88611" lon="2.88923">
        <ele>862.2</ele>
        <time>2025-08-07T14:00:08Z</time>
      </trkpt>
      <trkpt lat="45.88606" lon="2.88921">
        <ele>861.6</ele>
        <time>2025-08-07T14:00:09Z</time>
      </trkpt>
      <trkpt lat="45.886" lon="2.88918">
        <ele>861.2</ele>
        <time>2025-08-07T14:00:10Z</time>
      </trkpt>
      <trkpt lat="45.88594" lon="2.88914">
        <ele>860.8</ele>
        <time>2025-08-07T14:00:11Z</time>
      </trkpt>
      <trkpt lat="45.88588" lon="2.88908">
        <ele>860.4</ele>
        <time>2025-08-07T14:00:12Z</time>
      </trkpt>
      <trkpt lat="45.88583" lon="2.88903">
        <ele>860</ele>
        <time>2025-08-07T14:00:13Z</time>
      </trkpt>
      <trkpt lat="45.88577" lon="2.88897">
        <ele>859.6</ele>
        <time>2025-08-07T14:00:14Z</time>
      </trkpt>
      <trkpt lat="45.88572" lon="2.88891">
        <ele>859.2</ele>
        <time>2025-08-07T14:00:15Z</time>
      </trkpt>
      <trkpt lat="45.88566" lon="2.88885">
        <ele>858.8</ele>
        <time>2025-08-07T14:00:16Z</time>
      </trkpt>
      <trkpt lat="45.8856" lon="2.88878">
        <ele>858.6</ele>
        <time>2025-08-07T14:00:17Z</time>
      </trkpt>
      <trkpt lat="45.88554" lon="2.88872">
        <ele>858.2</ele>
        <time>2025-08-07T14:00:18Z</time>
      </trkpt>
      <trkpt lat="45.88549" lon="2.88867">
        <ele>858</ele>
        <time>2025-08-07T14:00:19Z</time>
      </trkpt>
      <trkpt lat="45.88543" lon="2.88861">
        <ele>857.6</ele>
        <time>2025-08-07T14:00:20Z</time>
      </trkpt>
      <trkpt lat="45.88538" lon="2.88856">
        <ele>857.6</ele>
        <time>2025-08-07T14:00:21Z</time>
      </trkpt>
      <trkpt lat="45.88532" lon="2.88852">
        <ele>857.6</ele>
        <time>2025-08-07T14:00:22Z</time>
      </trkpt>
      <trkpt lat="45.88527" lon="2.88848">
        <ele>858</ele>
        <time>2025-08-07T14:00:23Z</time>
      </trkpt>
      <trkpt lat="45.88522" lon="2.88844">
        <ele>858.2</ele>
        <time>2025-08-07T14:00:24Z</time>
      </trkpt>
      <trkpt lat="45.88518" lon="2.88839">
        <ele>858.6</ele>
        <time>2025-08-07T14:00:25Z</time>
      </trkpt>
      <trkpt lat="45.88515" lon="2.88836">
        <ele>859.2</ele>
        <time>2025-08-07T14:00:26Z</time>
      </trkpt>
      <trkpt lat="45.88511" lon="2.88832">
        <ele>859.6</ele>
        <time>2025-08-07T14:00:27Z</time>
      </trkpt>
      <trkpt lat="45.88508" lon="2.8883">
        <ele>860.2</ele>
        <time>2025-08-07T14:00:28Z</time>
      </trkpt>
      <trkpt lat="45.88505" lon="2.88827">
        <ele>860.6</ele>
        <time>2025-08-07T14:00:29Z</time>
      </trkpt>
      <trkpt lat="45.88503" lon="2.88824">
        <ele>861</ele>
        <time>2025-08-07T14:00:30Z</time>
      </trkpt>
      <trkpt lat="45.885" lon="2.88822">
        <ele>861.4</ele>
        <time>2025-08-07T14:00:31Z</time>
      </trkpt>
      <trkpt lat="45.88496" lon="2.88819">
        <ele>862</ele>
        <time>2025-08-07T14:00:32Z</time>
      </trkpt>
      <trkpt lat="45.88493" lon="2.88815">
        <ele>862.6</ele>
        <time>2025-08-07T14:00:33Z</time>
      </trkpt>
      <trkpt lat="45.88489" lon="2.88811">
        <ele>863.2</ele>
        <time>2025-08-07T14:00:34Z</time>
      </trkpt>
      <trkpt lat="45.88486" lon="2.88807">
        <ele>863.6</ele>
        <time>2025-08-07T14:00:35Z</time>
      </trkpt>
      <trkpt lat="45.88483" lon="2.88804">
        <ele>864.4</ele>
        <time>2025-08-07T14:00:36Z</time>
      </trkpt>
      <trkpt lat="45.8848" lon="2.88801">
        <ele>865</ele>
        <time>2025-08-07T14:00:37Z</time>
      </trkpt>
      <trkpt lat="45.88477" lon="2.88797">
        <ele>865.6</ele>
        <time>2025-08-07T14:00:38Z</time>
      </trkpt>
      <trkpt lat="45.88474" lon="2.88793">
        <ele>866.2</ele>
        <time>2025-08-07T14:00:39Z</time>
      </trkpt>
      <trkpt lat="45.88471" lon="2.88789">
        <ele>866.8</ele>
        <time>2025-08-07T14:00:40Z</time>
      </trkpt>
      <trkpt lat="45.88469" lon="2.88785">
        <ele>867.4</ele>
        <time>2025-08-07T14:00:41Z</time>
      </trkpt>
      <trkpt lat="45.88467" lon="2.88781">
        <ele>867.8</ele>
        <time>2025-08-07T14:00:42Z</time>
      </trkpt>
      <trkpt lat="45.88465" lon="2.88776">
        <ele>868.2</ele>
        <time>2025-08-07T14:00:43Z</time>
      </trkpt>
      <trkpt lat="45.88462" lon="2.8877">
        <ele>868.6</ele>
        <time>2025-08-07T14:00:44Z</time>
      </trkpt>
      <trkpt lat="45.88459" lon="2.88765">
        <ele>869</ele>
        <time>2025-08-07T14:00:45Z</time>
      </trkpt>
      <trkpt lat="45.88457" lon="2.88759">
        <ele>869.2</ele>
        <time>2025-08-07T14:00:46Z</time>
      </trkpt>
      <trkpt lat="45.88454" lon="2.88753">
        <ele>869.6</ele>
        <time>2025-08-07T14:00:47Z</time>
      </trkpt>
      <trkpt lat="45.88453" lon="2.88746">
        <ele>870</ele>
        <time>2025-08-07T14:00:48Z</time>
      </trkpt>
      <trkpt lat="45.88452" lon="2.88739">
        <ele>870.2</ele>
        <time>2025-08-07T14:00:49Z</time>
      </trkpt>
      <trkpt lat="45.88452" lon="2.88733">
        <ele>870.4</ele>
        <time>2025-08-07T14:00:50Z</time>
      </trkpt>
      <trkpt lat="45.88452" lon="2.88728">
        <ele>870.6</ele>
        <time>2025-08-07T14:00:51Z</time>
      </trkpt>
      <trkpt lat="45.88453" lon="2.88722">
        <ele>870.8</ele>
        <time>2025-08-07T14:00:52Z</time>
      </trkpt>
      <trkpt lat="45.88453" lon="2.88715">
        <ele>871</ele>
        <time>2025-08-07T14:00:53Z</time>
      </trkpt>
      <trkpt lat="45.88453" lon="2.88709">
        <ele>871.2</ele>
        <time>2025-08-07T14:00:54Z</time>
      </trkpt>
      <trkpt lat="45.88453" lon="2.88703">
        <ele>871.4</ele>
        <time>2025-08-07T14:00:55Z</time>
      </trkpt>
      <trkpt lat="45.88452" lon="2.88696">
        <ele>871.6</ele>
        <time>2025-08-07T14:00:56Z</time>
      </trkpt>
      <trkpt lat="45.88453" lon="2.88689">
        <ele>871.6</ele>
        <time>2025-08-07T14:00:57Z</time>
      </trkpt>
      <trkpt lat="45.88452" lon="2.8868">
        <ele>871.8</ele>
        <time>2025-08-07T14:00:58Z</time>
      </trkpt>
      <trkpt lat="45.88452" lon="2.88672">
        <ele>871.8</ele>
        <time>2025-08-07T14:00:59Z</time>
      </trkpt>
      <trkpt lat="45.88451" lon="2.88666">
        <ele>871.8</ele>
        <time>2025-08-07T14:01:00Z</time>
      </trkpt>
      <trkpt lat="45.88451" lon="2.88659">
        <ele>871.8</ele>
        <time>2025-08-07T14:01:01Z</time>
      </trkpt>
      <trkpt lat="45.88451" lon="2.88652">
        <ele>871.8</ele>
        <time>2025-08-07T14:01:02Z</time>
      </trkpt>
      <trkpt lat="45.8845" lon="2.88645">
        <ele>871.8</ele>
        <time>2025-08-07T14:01:03Z</time>
      </trkpt>
      <trkpt lat="45.88448" lon="2.88636">
        <ele>871.6</ele>
        <time>2025-08-07T14:01:04Z</time>
      </trkpt>
      <trkpt lat="45.88447" lon="2.88627">
        <ele>871.6</ele>
        <time>2025-08-07T14:01:05Z</time>
      </trkpt>
      <trkpt lat="45.88448" lon="2.88618">
        <ele>871.8</ele>
        <time>2025-08-07T14:01:06Z</time>
      </trkpt>
      <trkpt lat="45.88448" lon="2.88608">
        <ele>871.8</ele>
        <time>2025-08-07T14:01:07Z</time>
      </trkpt>
      <trkpt lat="45.88448" lon="2.88597">
        <ele>871.8</ele>
        <time>2025-08-07T14:01:08Z</time>
      </trkpt>
      <trkpt lat="45.8845" lon="2.8859">
        <ele>871.8</ele>
        <time>2025-08-07T14:01:09Z</time>
      </trkpt>
      <trkpt lat="45.88451" lon="2.88583">
        <ele>871.6</ele>
        <time>2025-08-07T14:01:10Z</time>
      </trkpt>
      <trkpt lat="45.88451" lon="2.88575">
        <ele>871.6</ele>
        <time>2025-08-07T14:01:11Z</time>
      </trkpt>
      <trkpt lat="45.88453" lon="2.88567">
        <ele>871.4</ele>
        <time>2025-08-07T14:01:12Z</time>
      </trkpt>
      <trkpt lat="45.88455" lon="2.88558">
        <ele>871.4</ele>
        <time>2025-08-07T14:01:13Z</time>
      </trkpt>
      <trkpt lat="45.88457" lon="2.88548">
        <ele>871.2</ele>
        <time>2025-08-07T14:01:14Z</time>
      </trkpt>
      <trkpt lat="45.8846" lon="2.88538">
        <ele>871</ele>
        <time>2025-08-07T14:01:15Z</time>
      </trkpt>
      <trkpt lat="45.88463" lon="2.88529">
        <ele>870.8</ele>
        <time>2025-08-07T14:01:16Z</time>
      </trkpt>
      <trkpt lat="45.88466" lon="2.88519">
        <ele>870.6</ele>
        <time>2025-08-07T14:01:17Z</time>
      </trkpt>
      <trkpt lat="45.88468" lon="2.8851">
        <ele>870.4</ele>
        <time>2025-08-07T14:01:18Z</time>
      </trkpt>
      <trkpt lat="45.88471" lon="2.885">
        <ele>870</ele>
        <time>2025-08-07T14:01:19Z</time>
      </trkpt>
      <trkpt lat="45.88472" lon="2.88489">
        <ele>869.8</ele>
        <time>2025-08-07T14:01:20Z</time>
      </trkpt>
      <trkpt lat="45.88474" lon="2.8848">
        <ele>869.4</ele>
        <time>2025-08-07T14:01:21Z</time>
      </trkpt>
      <trkpt lat="45.88476" lon="2.88471">
        <ele>869.2</ele>
        <time>2025-08-07T14:01:22Z</time>
      </trkpt>
      <trkpt lat="45.88477" lon="2.88463">
        <ele>869.2</ele>
        <time>2025-08-07T14:01:23Z</time>
      </trkpt>
      <trkpt lat="45.8848" lon="2.88456">
        <ele>869</ele>
        <time>2025-08-07T14:01:24Z</time>
      </trkpt>
      <trkpt lat="45.88482" lon="2.88449">
        <ele>869</ele>
        <time>2025-08-07T14:01:25Z</time>
      </trkpt>
      <trkpt lat="45.88486" lon="2.88442">
        <ele>868.8</ele>
        <time>2025-08-07T14:01:26Z</time>
      </trkpt>
      <trkpt lat="45.88489" lon="2.88434">
        <ele>868.8</ele>
        <time>2025-08-07T14:01:27Z</time>
      </trkpt>
      <trkpt lat="45.88492" lon="2.88427">
        <ele>869</ele>
        <time>2025-08-07T14:01:28Z</time>
      </trkpt>
      <trkpt lat="45.88495" lon="2.88419">
        <ele>869</ele>
        <time>2025-08-07T14:01:29Z</time>
      </trkpt>
      <trkpt lat="45.88499" lon="2.88412">
        <ele>869.2</ele>
        <time>2025-08-07T14:01:30Z</time>
      </trkpt>
      <trkpt lat="45.88502" lon="2.88405">
        <ele>869.2</ele>
        <time>2025-08-07T14:01:31Z</time>
      </trkpt>
      <trkpt lat="45.88504" lon="2.88397">
        <ele>869.4</ele>
        <time>2025-08-07T14:01:32Z</time>
      </trkpt>
      <trkpt lat="45.88506" lon="2.88387">
        <ele>869.4</ele>
        <time>2025-08-07T14:01:33Z</time>
      </trkpt>
      <trkpt lat="45.88508" lon="2.88379">
        <ele>869.6</ele>
        <time>2025-08-07T14:01:34Z</time>
      </trkpt>
      <trkpt lat="45.88511" lon="2.88372">
        <ele>869.6</ele>
        <time>2025-08-07T14:01:35Z</time>
      </trkpt>
      <trkpt lat="45.88514" lon="2.88365">
        <ele>869.8</ele>
        <time>2025-08-07T14:01:36Z</time>
      </trkpt>
      <trkpt lat="45.88517" lon="2.88357">
        <ele>869.8</ele>
        <time>2025-08-07T14:01:37Z</time>
      </trkpt>
      <trkpt lat="45.88519" lon="2.88349">
        <ele>870</ele>
        <time>2025-08-07T14:01:38Z</time>
      </trkpt>
      <trkpt lat="45.8852" lon="2.88342">
        <ele>870</ele>
        <time>2025-08-07T14:01:39Z</time>
      </trkpt>
      <trkpt lat="45.88521" lon="2.88335">
        <ele>869.8</ele>
        <time>2025-08-07T14:01:40Z</time>
      </trkpt>
      <trkpt lat="45.88523" lon="2.88328">
        <ele>869.8</ele>
        <time>2025-08-07T14:01:41Z</time>
      </trkpt>
      <trkpt lat="45.88523" lon="2.88322">
        <ele>869.6</ele>
        <time>2025-08-07T14:01:42Z</time>
      </trkpt>
      <trkpt lat="45.88523" lon="2.88314">
        <ele>869.4</ele>
        <time>2025-08-07T14:01:43Z</time>
      </trkpt>
      <trkpt lat="45.88521" lon="2.88307">
        <ele>869</ele>
        <time>2025-08-07T14:01:44Z</time>
      </trkpt>
      <trkpt lat="45.88519" lon="2.88298">
        <ele>868.6</ele>
        <time>2025-08-07T14:01:45Z</time>
      </trkpt>
      <trkpt lat="45.88518" lon="2.88289">
        <ele>868</ele>
        <time>2025-08-07T14:01:46Z</time>
      </trkpt>
      <trkpt lat="45.88517" lon="2.88277">
        <ele>867.2</ele>
        <time>2025-08-07T14:01:47Z</time>
      </trkpt>
      <trkpt lat="45.88516" lon="2.88265">
        <ele>866.4</ele>
        <time>2025-08-07T14:01:48Z</time>
      </trkpt>
      <trkpt lat="45.88517" lon="2.88253">
        <ele>865.8</ele>
        <time>2025-08-07T14:01:49Z</time>
      </trkpt>
      <trkpt lat="45.88517" lon="2.88241">
        <ele>865</ele>
        <time>2025-08-07T14:01:50Z</time>
      </trkpt>
      <trkpt lat="45.88517" lon="2.88228">
        <ele>864</ele>
        <time>2025-08-07T14:01:51Z</time>
      </trkpt>
      <trkpt lat="45.88516" lon="2.88212">
        <ele>863.2</ele>
        <time>2025-08-07T14:01:52Z</time>
      </trkpt>
      <trkpt lat="45.88515" lon="2.88199">
        <ele>862.2</ele>
        <time>2025-08-07T14:01:53Z</time>
      </trkpt>
      <trkpt lat="45.88514" lon="2.88186">
        <ele>861.2</ele>
        <time>2025-08-07T14:01:54Z</time>
      </trkpt>
      <trkpt lat="45.88513" lon="2.88173">
        <ele>860.6</ele>
        <time>2025-08-07T14:01:55Z</time>
      </trkpt>
      <trkpt lat="45.88511" lon="2.88162">
        <ele>860</ele>
        <time>2025-08-07T14:01:56Z</time>
      </trkpt>
      <trkpt lat="45.88508" lon="2.88151">
        <ele>859.4</ele>
        <time>2025-08-07T14:01:57Z</time>
      </trkpt>
      <trkpt lat="45.88504" lon="2.88141">
        <ele>858.8</ele>
        <time>2025-08-07T14:01:58Z</time>
      </trkpt>
      <trkpt lat="45.88501" lon="2.88131">
        <ele>858.4</ele>
        <time>2025-08-07T14:01:59Z</time>
      </trkpt>
      <trkpt lat="45.88496" lon="2.88116">
        <ele>857.6</ele>
        <time>2025-08-07T14:02:00Z</time>
      </trkpt>
      <trkpt lat="45.88494" lon="2.88105">
        <ele>857.2</ele>
        <time>2025-08-07T14:02:01Z</time>
      </trkpt>
      <trkpt lat="45.88493" lon="2.88092">
        <ele>856.4</ele>
        <time>2025-08-07T14:02:02Z</time>
      </trkpt>
      <trkpt lat="45.88491" lon="2.88078">
        <ele>855.8</ele>
        <time>2025-08-07T14:02:03Z</time>
      </trkpt>
      <trkpt lat="45.8849" lon="2.88066">
        <ele>855.2</ele>
        <time>2025-08-07T14:02:04Z</time>
      </trkpt>
      <trkpt lat="45.88489" lon="2.88054">
        <ele>854.4</ele>
        <time>2025-08-07T14:02:05Z</time>
      </trkpt>
      <trkpt lat="45.88488" lon="2.88041">
        <ele>853.8</ele>
        <time>2025-08-07T14:02:06Z</time>
      </trkpt>
      <trkpt lat="45.88487" lon="2.88028">
        <ele>853</ele>
        <time>2025-08-07T14:02:07Z</time>
      </trkpt>
      <trkpt lat="45.88485" lon="2.88015">
        <ele>852.2</ele>
        <time>2025-08-07T14:02:08Z</time>
      </trkpt>
      <trkpt lat="45.88484" lon="2.88001">
        <ele>851.6</ele>
        <time>2025-08-07T14:02:09Z</time>
      </trkpt>
      <trkpt lat="45.88482" lon="2.87987">
        <ele>850.6</ele>
        <time>2025-08-07T14:02:10Z</time>
      </trkpt>
      <trkpt lat="45.8848" lon="2.87972">
        <ele>849.8</ele>
        <time>2025-08-07T14:02:11Z</time>
      </trkpt>
      <trkpt lat="45.88479" lon="2.87959">
        <ele>849</ele>
        <time>2025-08-07T14:02:12Z</time>
      </trkpt>
      <trkpt lat="45.88479" lon="2.87947">
        <ele>848</ele>
        <time>2025-08-07T14:02:13Z</time>
      </trkpt>
      <trkpt lat="45.88478" lon="2.87936">
        <ele>847.2</ele>
        <time>2025-08-07T14:02:14Z</time>
      </trkpt>
      <trkpt lat="45.88477" lon="2.87924">
        <ele>846.4</ele>
        <time>2025-08-07T14:02:15Z</time>
      </trkpt>
      <trkpt lat="45.88477" lon="2.87913">
        <ele>845.6</ele>
        <time>2025-08-07T14:02:16Z</time>
      </trkpt>
      <trkpt lat="45.88476" lon="2.87901">
        <ele>844.8</ele>
        <time>2025-08-07T14:02:17Z</time>
      </trkpt>
      <trkpt lat="45.88474" lon="2.87889">
        <ele>844</ele>
        <time>2025-08-07T14:02:18Z</time>
      </trkpt>
      <trkpt lat="45.88472" lon="2.87876">
        <ele>843.4</ele>
        <time>2025-08-07T14:02:19Z</time>
      </trkpt>
      <trkpt lat="45.8847" lon="2.87864">
        <ele>842.6</ele>
        <time>2025-08-07T14:02:20Z</time>
      </trkpt>
      <trkpt lat="45.88469" lon="2.87853">
        <ele>841.8</ele>
        <time>2025-08-07T14:02:21Z</time>
      </trkpt>
      <trkpt lat="45.88469" lon="2.87843">
        <ele>841</ele>
        <time>2025-08-07T14:02:22Z</time>
      </trkpt>
      <trkpt lat="45.88469" lon="2.87832">
        <ele>840.2</ele>
        <time>2025-08-07T14:02:23Z</time>
      </trkpt>
      <trkpt lat="45.88469" lon="2.87822">
        <ele>839.2</ele>
        <time>2025-08-07T14:02:24Z</time>
      </trkpt>
      <trkpt lat="45.8847" lon="2.87813">
        <ele>838.4</ele>
        <time>2025-08-07T14:02:25Z</time>
      </trkpt>
      <trkpt lat="45.88471" lon="2.87805">
        <ele>837.4</ele>
        <time>2025-08-07T14:02:26Z</time>
      </trkpt>
      <trkpt lat="45.88471" lon="2.87798">
        <ele>836.6</ele>
        <time>2025-08-07T14:02:27Z</time>
      </trkpt>
      <trkpt lat="45.8847" lon="2.87789">
        <ele>836</ele>
        <time>2025-08-07T14:02:28Z</time>
      </trkpt>
      <trkpt lat="45.88471" lon="2.87779">
        <ele>835.2</ele>
        <time>2025-08-07T14:02:29Z</time>
      </trkpt>
      <trkpt lat="45.88471" lon="2.87773">
        <ele>834.6</ele>
        <time>2025-08-07T14:02:30Z</time>
      </trkpt>
      <trkpt lat="45.88472" lon="2.87768">
        <ele>834</ele>
        <time>2025-08-07T14:02:31Z</time>
      </trkpt>
      <trkpt lat="45.88474" lon="2.87764">
        <ele>833.2</ele>
        <time>2025-08-07T14:02:32Z</time>
      </trkpt>
      <trkpt lat="45.88476" lon="2.87761">
        <ele>832.6</ele>
        <time>2025-08-07T14:02:33Z</time>
      </trkpt>
      <trkpt lat="45.88479" lon="2.87759">
        <ele>832</ele>
        <time>2025-08-07T14:02:34Z</time>
      </trkpt>
      <trkpt lat="45.88481" lon="2.87758">
        <ele>831.4</ele>
        <time>2025-08-07T14:02:35Z</time>
      </trkpt>
      <trkpt lat="45.88483" lon="2.87755">
        <ele>831</ele>
        <time>2025-08-07T14:02:36Z</time>
      </trkpt>
      <trkpt lat="45.88484" lon="2.87755">
        <ele>830.6</ele>
        <time>2025-08-07T14:02:37Z</time>
      </trkpt>
      <trkpt lat="45.88485" lon="2.87754">
        <ele>830.2</ele>
        <time>2025-08-07T14:02:38Z</time>
      </trkpt>
      <trkpt lat="45.88485" lon="2.87753">
        <ele>830</ele>
        <time>2025-08-07T14:02:39Z</time>
      </trkpt>
      <trkpt lat="45.88484" lon="2.87751">
        <ele>829.6</ele>
        <time>2025-08-07T14:02:40Z</time>
      </trkpt>
      <trkpt lat="45.88481" lon="2.8775">
        <ele>829.4</ele>
        <time>2025-08-07T14:02:41Z</time>
      </trkpt>
      <trkpt lat="45.88478" lon="2.87748">
        <ele>829.2</ele>
        <time>2025-08-07T14:02:42Z</time>
      </trkpt>
      <trkpt lat="45.88474" lon="2.87747">
        <ele>828.8</ele>
        <time>2025-08-07T14:02:43Z</time>
      </trkpt>
      <trkpt lat="45.8847" lon="2.87747">
        <ele>828.4</ele>
        <time>2025-08-07T14:02:44Z</time>
      </trkpt>
      <trkpt lat="45.88465" lon="2.87747">
        <ele>827.8</ele>
        <time>2025-08-07T14:02:45Z</time>
      </trkpt>
      <trkpt lat="45.8846" lon="2.87747">
        <ele>827.4</ele>
        <time>2025-08-07T14:02:46Z</time>
      </trkpt>
      <trkpt lat="45.88454" lon="2.87745">
        <ele>827</ele>
        <time>2025-08-07T14:02:47Z</time>
      </trkpt>
      <trkpt lat="45.88448" lon="2.87742">
        <ele>826.6</ele>
        <time>2025-08-07T14:02:48Z</time>
      </trkpt>
      <trkpt lat="45.88442" lon="2.8774">
        <ele>826</ele>
        <time>2025-08-07T14:02:49Z</time>
      </trkpt>
      <trkpt lat="45.88437" lon="2.87739">
        <ele>825.6</ele>
        <time>2025-08-07T14:02:50Z</time>
      </trkpt>
      <trkpt lat="45.88433" lon="2.87738">
        <ele>825.2</ele>
        <time>2025-08-07T14:02:51Z</time>
      </trkpt>
      <trkpt lat="45.8843" lon="2.87737">
        <ele>824.8</ele>
        <time>2025-08-07T14:02:52Z</time>
      </trkpt>
      <trkpt lat="45.88427" lon="2.87735">
        <ele>824.4</ele>
        <time>2025-08-07T14:02:53Z</time>
      </trkpt>
      <trkpt lat="45.88425" lon="2.87734">
        <ele>824</ele>
        <time>2025-08-07T14:02:54Z</time>
      </trkpt>
      <trkpt lat="45.88423" lon="2.87733">
        <ele>823.6</ele>
        <time>2025-08-07T14:02:55Z</time>
      </trkpt>
      <trkpt lat="45.88421" lon="2.87731">
        <ele>823.2</ele>
        <time>2025-08-07T14:02:56Z</time>
      </trkpt>
      <trkpt lat="45.88419" lon="2.87729">
        <ele>822.8</ele>
        <time>2025-08-07T14:02:57Z</time>
      </trkpt>
      <trkpt lat="45.88416" lon="2.87728">
        <ele>822.2</ele>
        <time>2025-08-07T14:02:58Z</time>
      </trkpt>
      <trkpt lat="45.88414" lon="2.87726">
        <ele>821.8</ele>
        <time>2025-08-07T14:02:59Z</time>
      </trkpt>
      <trkpt lat="45.88412" lon="2.87724">
        <ele>821.4</ele>
        <time>2025-08-07T14:03:00Z</time>
      </trkpt>
      <trkpt lat="45.88411" lon="2.87722">
        <ele>821</ele>
        <time>2025-08-07T14:03:01Z</time>
      </trkpt>
      <trkpt lat="45.88409" lon="2.8772">
        <ele>820.6</ele>
        <time>2025-08-07T14:03:02Z</time>
      </trkpt>
      <trkpt lat="45.88408" lon="2.8772">
        <ele>820.2</ele>
        <time>2025-08-07T14:03:03Z</time>
      </trkpt>
      <trkpt lat="45.88407" lon="2.87719">
        <ele>820</ele>
        <time>2025-08-07T14:03:04Z</time>
      </trkpt>
      <trkpt lat="45.88406" lon="2.87717">
        <ele>819.8</ele>
        <time>2025-08-07T14:03:05Z</time>
      </trkpt>
      <trkpt lat="45.88405" lon="2.87716">
        <ele>819.6</ele>
        <time>2025-08-07T14:03:06Z</time>
      </trkpt>
      <trkpt lat="45.88404" lon="2.87714">
        <ele>819.4</ele>
        <time>2025-08-07T14:03:07Z</time>
      </trkpt>
      <trkpt lat="45.88403" lon="2.87712">
        <ele>819.2</ele>
        <time>2025-08-07T14:03:08Z</time>
      </trkpt>
      <trkpt lat="45.88401" lon="2.8771">
        <ele>819</ele>
        <time>2025-08-07T14:03:09Z</time>
      </trkpt>
      <trkpt lat="45.884" lon="2.87708">
        <ele>818.8</ele>
        <time>2025-08-07T14:03:10Z</time>
      </trkpt>
      <trkpt lat="45.88399" lon="2.87706">
        <ele>818.6</ele>
        <time>2025-08-07T14:03:11Z</time>
      </trkpt>
      <trkpt lat="45.88398" lon="2.87704">
        <ele>818.6</ele>
        <time>2025-08-07T14:03:12Z</time>
      </trkpt>
      <trkpt lat="45.88397" lon="2.87702">
        <ele>818.4</ele>
        <time>2025-08-07T14:03:13Z</time>
      </trkpt>
      <trkpt lat="45.88396" lon="2.877">
        <ele>818.2</ele>
        <time>2025-08-07T14:03:14Z</time>
      </trkpt>
      <trkpt lat="45.88395" lon="2.87697">
        <ele>818</ele>
        <time>2025-08-07T14:03:15Z</time>
      </trkpt>
      <trkpt lat="45.88394" lon="2.87695">
        <ele>817.8</ele>
        <time>2025-08-07T14:03:16Z</time>
      </trkpt>
      <trkpt lat="45.88392" lon="2.87693">
        <ele>817.6</ele>
        <time>2025-08-07T14:03:17Z</time>
      </trkpt>
      <trkpt lat="45.88391" lon="2.8769">
        <ele>817.6</ele>
        <time>2025-08-07T14:03:18Z</time>
      </trkpt>
      <trkpt lat="45.88389" lon="2.87688">
        <ele>817.4</ele>
        <time>2025-08-07T14:03:19Z</time>
      </trkpt>
      <trkpt lat="45.88388" lon="2.87686">
        <ele>817.2</ele>
        <time>2025-08-07T14:03:20Z</time>
      </trkpt>
      <trkpt lat="45.88388" lon="2.87684">
        <ele>817.2</ele>
        <time>2025-08-07T14:03:21Z</time>
      </trkpt>
      <trkpt lat="45.88388" lon="2.87682">
        <ele>817</ele>
        <time>2025-08-07T14:03:22Z</time>
      </trkpt>
      <trkpt lat="45.88388" lon="2.8768">
        <ele>816.8</ele>
        <time>2025-08-07T14:03:23Z</time>
      </trkpt>
      <trkpt lat="45.88388" lon="2.87677">
        <ele>816.6</ele>
        <time>2025-08-07T14:03:24Z</time>
      </trkpt>
      <trkpt lat="45.88387" lon="2.87675">
        <ele>816.6</ele>
        <time>2025-08-07T14:03:25Z</time>
      </trkpt>
      <trkpt lat="45.88386" lon="2.87671">
        <ele>816.4</ele>
        <time>2025-08-07T14:03:26Z</time>
      </trkpt>
      <trkpt lat="45.88386" lon="2.87668">
        <ele>816.2</ele>
        <time>2025-08-07T14:03:27Z</time>
      </trkpt>
      <trkpt lat="45.88385" lon="2.87667">
        <ele>816.2</ele>
        <time>2025-08-07T14:03:28Z</time>
      </trkpt>
      <trkpt lat="45.88385" lon="2.87667">
        <ele>816</ele>
        <time>2025-08-07T14:03:29Z</time>
      </trkpt>
      <trkpt lat="45.88386" lon="2.87668">
        <ele>816</ele>
        <time>2025-08-07T14:03:30Z</time>
      </trkpt>
      <trkpt lat="45.88386" lon="2.87666">
        <ele>816</ele>
        <time>2025-08-07T14:03:31Z</time>
      </trkpt>
      <trkpt lat="45.88386" lon="2.87664">
        <ele>816</ele>
        <time>2025-08-07T14:03:32Z</time>
      </trkpt>
      <trkpt lat="45.88386" lon="2.87662">
        <ele>815.8</ele>
        <time>2025-08-07T14:03:33Z</time>
      </trkpt>
      <trkpt lat="45.88386" lon="2.87659">
        <ele>816</ele>
        <time>2025-08-07T14:03:34Z</time>
      </trkpt>
      <trkpt lat="45.88386" lon="2.87656">
        <ele>816</ele>
        <time>2025-08-07T14:03:35Z</time>
      </trkpt>
      <trkpt lat="45.88388" lon="2.87652">
        <ele>816</ele>
        <time>2025-08-07T14:03:36Z</time>
      </trkpt>
      <trkpt lat="45.88391" lon="2.87648">
        <ele>816</ele>
        <time>2025-08-07T14:03:37Z</time>
      </trkpt>
      <trkpt lat="45.88395" lon="2.87645">
        <ele>816.2</ele>
        <time>2025-08-07T14:03:38Z</time>
      </trkpt>
      <trkpt lat="45.88398" lon="2.87641">
        <ele>816.4</ele>
        <time>2025-08-07T14:03:39Z</time>
      </trkpt>
      <trkpt lat="45.88402" lon="2.87637">
        <ele>816.2</ele>
        <time>2025-08-07T14:03:40Z</time>
      </trkpt>
      <trkpt lat="45.88405" lon="2.87632">
        <ele>816.2</ele>
        <time>2025-08-07T14:03:41Z</time>
      </trkpt>
      <trkpt lat="45.88409" lon="2.87628">
        <ele>815.8</ele>
        <time>2025-08-07T14:03:42Z</time>
      </trkpt>
      <trkpt lat="45.88413" lon="2.87623">
        <ele>815.8</ele>
        <time>2025-08-07T14:03:43Z</time>
      </trkpt>
      <trkpt lat="45.88418" lon="2.8762">
        <ele>815.4</ele>
        <time>2025-08-07T14:03:44Z</time>
      </trkpt>
      <trkpt lat="45.88424" lon="2.87617">
        <ele>815.2</ele>
        <time>2025-08-07T14:03:45Z</time>
      </trkpt>
      <trkpt lat="45.8843" lon="2.87614">
        <ele>814.8</ele>
        <time>2025-08-07T14:03:46Z</time>
      </trkpt>
      <trkpt lat="45.88436" lon="2.87611">
        <ele>814.6</ele>
        <time>2025-08-07T14:03:47Z</time>
      </trkpt>
      <trkpt lat="45.88443" lon="2.8761">
        <ele>814.4</ele>
        <time>2025-08-07T14:03:48Z</time>
      </trkpt>
      <trkpt lat="45.88452" lon="2.87609">
        <ele>814</ele>
        <time>2025-08-07T14:03:49Z</time>
      </trkpt>
      <trkpt lat="45.8846" lon="2.87609">
        <ele>813.6</ele>
        <time>2025-08-07T14:03:50Z</time>
      </trkpt>
      <trkpt lat="45.88468" lon="2.87611">
        <ele>813.4</ele>
        <time>2025-08-07T14:03:51Z</time>
      </trkpt>
      <trkpt lat="45.88476" lon="2.87615">
        <ele>813</ele>
        <time>2025-08-07T14:03:52Z</time>
      </trkpt>
      <trkpt lat="45.88482" lon="2.8762">
        <ele>812.6</ele>
        <time>2025-08-07T14:03:53Z</time>
      </trkpt>
      <trkpt lat="45.88488" lon="2.87623">
        <ele>812.4</ele>
        <time>2025-08-07T14:03:54Z</time>
      </trkpt>
      <trkpt lat="45.88493" lon="2.87627">
        <ele>812.4</ele>
        <time>2025-08-07T14:03:55Z</time>
      </trkpt>
      <trkpt lat="45.88502" lon="2.87631">
        <ele>812.2</ele>
        <time>2025-08-07T14:03:56Z</time>
      </trkpt>
      <trkpt lat="45.88509" lon="2.87634">
        <ele>812</ele>
        <time>2025-08-07T14:03:57Z</time>
      </trkpt>
      <trkpt lat="45.88517" lon="2.87634">
        <ele>811.8</ele>
        <time>2025-08-07T14:03:58Z</time>
      </trkpt>
      <trkpt lat="45.88525" lon="2.87634">
        <ele>811.6</ele>
        <time>2025-08-07T14:03:59Z</time>
      </trkpt>
      <trkpt lat="45.88532" lon="2.87635">
        <ele>811.6</ele>
        <time>2025-08-07T14:04:00Z</time>
      </trkpt>
      <trkpt lat="45.8854" lon="2.87636">
        <ele>811.4</ele>
        <time>2025-08-07T14:04:01Z</time>
      </trkpt>
      <trkpt lat="45.88548" lon="2.87637">
        <ele>811</ele>
        <time>2025-08-07T14:04:02Z</time>
      </trkpt>
      <trkpt lat="45.88554" lon="2.87636">
        <ele>810.8</ele>
        <time>2025-08-07T14:04:03Z</time>
      </trkpt>
      <trkpt lat="45.88558" lon="2.87634">
        <ele>810.8</ele>
        <time>2025-08-07T14:04:04Z</time>
      </trkpt>
      <trkpt lat="45.88561" lon="2.87632">
        <ele>810.6</ele>
        <time>2025-08-07T14:04:05Z</time>
      </trkpt>
      <trkpt lat="45.88563" lon="2.87627">
        <ele>810.2</ele>
        <time>2025-08-07T14:04:06Z</time>
      </trkpt>
      <trkpt lat="45.88565" lon="2.87621">
        <ele>809.8</ele>
        <time>2025-08-07T14:04:07Z</time>
      </trkpt>
      <trkpt lat="45.88563" lon="2.87614">
        <ele>809.6</ele>
        <time>2025-08-07T14:04:08Z</time>
      </trkpt>
      <trkpt lat="45.8856" lon="2.87604">
        <ele>809.2</ele>
        <time>2025-08-07T14:04:09Z</time>
      </trkpt>
      <trkpt lat="45.88559" lon="2.87595">
        <ele>808.8</ele>
        <time>2025-08-07T14:04:10Z</time>
      </trkpt>
      <trkpt lat="45.8856" lon="2.87588">
        <ele>808.4</ele>
        <time>2025-08-07T14:04:11Z</time>
      </trkpt>
      <trkpt lat="45.8856" lon="2.87582">
        <ele>807.8</ele>
        <time>2025-08-07T14:04:12Z</time>
      </trkpt>
      <trkpt lat="45.88562" lon="2.87577">
        <ele>807.2</ele>
        <time>2025-08-07T14:04:13Z</time>
      </trkpt>
      <trkpt lat="45.88563" lon="2.87572">
        <ele>806.8</ele>
        <time>2025-08-07T14:04:14Z</time>
      </trkpt>
      <trkpt lat="45.88565" lon="2.87568">
        <ele>806.2</ele>
        <time>2025-08-07T14:04:15Z</time>
      </trkpt>
      <trkpt lat="45.88567" lon="2.87564">
        <ele>805.8</ele>
        <time>2025-08-07T14:04:16Z</time>
      </trkpt>
      <trkpt lat="45.88568" lon="2.87559">
        <ele>805.4</ele>
        <time>2025-08-07T14:04:17Z</time>
      </trkpt>
      <trkpt lat="45.8857" lon="2.87555">
        <ele>805</ele>
        <time>2025-08-07T14:04:18Z</time>
      </trkpt>
      <trkpt lat="45.88571" lon="2.8755">
        <ele>804.6</ele>
        <time>2025-08-07T14:04:19Z</time>
      </trkpt>
      <trkpt lat="45.88572" lon="2.87546">
        <ele>804</ele>
        <time>2025-08-07T14:04:20Z</time>
      </trkpt>
      <trkpt lat="45.88574" lon="2.87542">
        <ele>803.6</ele>
        <time>2025-08-07T14:04:21Z</time>
      </trkpt>
      <trkpt lat="45.88576" lon="2.87537">
        <ele>803.2</ele>
        <time>2025-08-07T14:04:22Z</time>
      </trkpt>
      <trkpt lat="45.88579" lon="2.87532">
        <ele>802.8</ele>
        <time>2025-08-07T14:04:23Z</time>
      </trkpt>
      <trkpt lat="45.88582" lon="2.87526">
        <ele>802.4</ele>
        <time>2025-08-07T14:04:24Z</time>
      </trkpt>
      <trkpt lat="45.88585" lon="2.8752">
        <ele>801.8</ele>
        <time>2025-08-07T14:04:25Z</time>
      </trkpt>
      <trkpt lat="45.88587" lon="2.87513">
        <ele>801.4</ele>
        <time>2025-08-07T14:04:26Z</time>
      </trkpt>
      <trkpt lat="45.88588" lon="2.87507">
        <ele>801</ele>
        <time>2025-08-07T14:04:27Z</time>
      </trkpt>
      <trkpt lat="45.88589" lon="2.875">
        <ele>800.4</ele>
        <time>2025-08-07T14:04:28Z</time>
      </trkpt>
      <trkpt lat="45.88589" lon="2.87492">
        <ele>800</ele>
        <time>2025-08-07T14:04:29Z</time>
      </trkpt>
      <trkpt lat="45.88589" lon="2.87485">
        <ele>799.6</ele>
        <time>2025-08-07T14:04:30Z</time>
      </trkpt>
      <trkpt lat="45.8859" lon="2.87477">
        <ele>799.2</ele>
        <time>2025-08-07T14:04:31Z</time>
      </trkpt>
      <trkpt lat="45.88591" lon="2.8747">
        <ele>798.8</ele>
        <time>2025-08-07T14:04:32Z</time>
      </trkpt>
      <trkpt lat="45.8859" lon="2.87463">
        <ele>798.2</ele>
        <time>2025-08-07T14:04:33Z</time>
      </trkpt>
      <trkpt lat="45.88589" lon="2.87456">
        <ele>797.6</ele>
        <time>2025-08-07T14:04:34Z</time>
      </trkpt>
      <trkpt lat="45.88587" lon="2.87449">
        <ele>797</ele>
        <time>2025-08-07T14:04:35Z</time>
      </trkpt>
      <trkpt lat="45.88584" lon="2.87444">
        <ele>796.6</ele>
        <time>2025-08-07T14:04:36Z</time>
      </trkpt>
      <trkpt lat="45.8858" lon="2.87439">
        <ele>796.2</ele>
        <time>2025-08-07T14:04:37Z</time>
      </trkpt>
      <trkpt lat="45.88576" lon="2.87435">
        <ele>795.6</ele>
        <time>2025-08-07T14:04:38Z</time>
      </trkpt>
      <trkpt lat="45.88571" lon="2.87431">
        <ele>795.4</ele>
        <time>2025-08-07T14:04:39Z</time>
      </trkpt>
      <trkpt lat="45.88565" lon="2.87428">
        <ele>795</ele>
        <time>2025-08-07T14:04:40Z</time>
      </trkpt>
      <trkpt lat="45.88559" lon="2.87425">
        <ele>794.8</ele>
        <time>2025-08-07T14:04:41Z</time>
      </trkpt>
      <trkpt lat="45.88552" lon="2.87422">
        <ele>794.6</ele>
        <time>2025-08-07T14:04:42Z</time>
      </trkpt>
      <trkpt lat="45.88546" lon="2.87419">
        <ele>794.4</ele>
        <time>2025-08-07T14:04:43Z</time>
      </trkpt>
      <trkpt lat="45.8854" lon="2.87417">
        <ele>794.2</ele>
        <time>2025-08-07T14:04:44Z</time>
      </trkpt>
      <trkpt lat="45.88534" lon="2.87416">
        <ele>794</ele>
        <time>2025-08-07T14:04:45Z</time>
      </trkpt>
      <trkpt lat="45.88528" lon="2.87414">
        <ele>793.8</ele>
        <time>2025-08-07T14:04:46Z</time>
      </trkpt>
      <trkpt lat="45.88521" lon="2.87411">
        <ele>793.8</ele>
        <time>2025-08-07T14:04:47Z</time>
      </trkpt>
      <trkpt lat="45.88516" lon="2.87408">
        <ele>793.8</ele>
        <time>2025-08-07T14:04:48Z</time>
      </trkpt>
      <trkpt lat="45.8851" lon="2.87402">
        <ele>793.8</ele>
        <time>2025-08-07T14:04:49Z</time>
      </trkpt>
      <trkpt lat="45.88505" lon="2.87396">
        <ele>793.6</ele>
        <time>2025-08-07T14:04:50Z</time>
      </trkpt>
      <trkpt lat="45.88499" lon="2.87391">
        <ele>793.4</ele>
        <time>2025-08-07T14:04:51Z</time>
      </trkpt>
      <trkpt lat="45.88494" lon="2.87384">
        <ele>793.4</ele>
        <time>2025-08-07T14:04:52Z</time>
      </trkpt>
      <trkpt lat="45.88489" lon="2.87377">
        <ele>793.2</ele>
        <time>2025-08-07T14:04:53Z</time>
      </trkpt>
      <trkpt lat="45.88485" lon="2.87369">
        <ele>793</ele>
        <time>2025-08-07T14:04:54Z</time>
      </trkpt>
      <trkpt lat="45.88479" lon="2.8736">
        <ele>792.8</ele>
        <time>2025-08-07T14:04:55Z</time>
      </trkpt>
      <trkpt lat="45.88472" lon="2.87352">
        <ele>792.4</ele>
        <time>2025-08-07T14:04:56Z</time>
      </trkpt>
      <trkpt lat="45.88465" lon="2.87346">
        <ele>792</ele>
        <time>2025-08-07T14:04:57Z</time>
      </trkpt>
      <trkpt lat="45.88458" lon="2.8734">
        <ele>791.6</ele>
        <time>2025-08-07T14:04:58Z</time>
      </trkpt>
      <trkpt lat="45.88451" lon="2.87334">
        <ele>791</ele>
        <time>2025-08-07T14:04:59Z</time>
      </trkpt>
      <trkpt lat="45.88445" lon="2.87328">
        <ele>790.6</ele>
        <time>2025-08-07T14:05:00Z</time>
      </trkpt>
      <trkpt lat="45.88438" lon="2.87322">
        <ele>790.2</ele>
        <time>2025-08-07T14:05:01Z</time>
      </trkpt>
      <trkpt lat="45.88432" lon="2.87317">
        <ele>790</ele>
        <time>2025-08-07T14:05:02Z</time>
      </trkpt>
      <trkpt lat="45.88428" lon="2.87314">
        <ele>789.6</ele>
        <time>2025-08-07T14:05:03Z</time>
      </trkpt>
      <trkpt lat="45.88424" lon="2.87309">
        <ele>789</ele>
        <time>2025-08-07T14:05:04Z</time>
      </trkpt>
      <trkpt lat="45.8842" lon="2.87305">
        <ele>788.6</ele>
        <time>2025-08-07T14:05:05Z</time>
      </trkpt>
      <trkpt lat="45.88416" lon="2.87301">
        <ele>788.2</ele>
        <time>2025-08-07T14:05:06Z</time>
      </trkpt>
      <trkpt lat="45.88413" lon="2.87297">
        <ele>787.8</ele>
        <time>2025-08-07T14:05:07Z</time>
      </trkpt>
      <trkpt lat="45.8841" lon="2.87293">
        <ele>787.2</ele>
        <time>2025-08-07T14:05:08Z</time>
      </trkpt>
      <trkpt lat="45.88407" lon="2.8729">
        <ele>786.8</ele>
        <time>2025-08-07T14:05:09Z</time>
      </trkpt>
      <trkpt lat="45.88405" lon="2.87288">
        <ele>786.4</ele>
        <time>2025-08-07T14:05:10Z</time>
      </trkpt>
      <trkpt lat="45.88402" lon="2.87287">
        <ele>786</ele>
        <time>2025-08-07T14:05:11Z</time>
      </trkpt>
      <trkpt lat="45.884" lon="2.87285">
        <ele>785.6</ele>
        <time>2025-08-07T14:05:12Z</time>
      </trkpt>
      <trkpt lat="45.88399" lon="2.87284">
        <ele>785.4</ele>
        <time>2025-08-07T14:05:13Z</time>
      </trkpt>
      <trkpt lat="45.88398" lon="2.87283">
        <ele>785.2</ele>
        <time>2025-08-07T14:05:14Z</time>
      </trkpt>
      <trkpt lat="45.88398" lon="2.87281">
        <ele>785</ele>
        <time>2025-08-07T14:05:15Z</time>
      </trkpt>
      <trkpt lat="45.88398" lon="2.87279">
        <ele>784.8</ele>
        <time>2025-08-07T14:05:16Z</time>
      </trkpt>
      <trkpt lat="45.88397" lon="2.87276">
        <ele>784.6</ele>
        <time>2025-08-07T14:05:17Z</time>
      </trkpt>
      <trkpt lat="45.88395" lon="2.87271">
        <ele>784.6</ele>
        <time>2025-08-07T14:05:18Z</time>
      </trkpt>
      <trkpt lat="45.88393" lon="2.87266">
        <ele>784.6</ele>
        <time>2025-08-07T14:05:19Z</time>
      </trkpt>
      <trkpt lat="45.88391" lon="2.87261">
        <ele>784.6</ele>
        <time>2025-08-07T14:05:20Z</time>
      </trkpt>
      <trkpt lat="45.88388" lon="2.87256">
        <ele>784.6</ele>
        <time>2025-08-07T14:05:21Z</time>
      </trkpt>
      <trkpt lat="45.88385" lon="2.87249">
        <ele>784.6</ele>
        <time>2025-08-07T14:05:22Z</time>
      </trkpt>
      <trkpt lat="45.8838" lon="2.87242">
        <ele>784.4</ele>
        <time>2025-08-07T14:05:23Z</time>
      </trkpt>
      <trkpt lat="45.88376" lon="2.87234">
        <ele>784.4</ele>
        <time>2025-08-07T14:05:24Z</time>
      </trkpt>
      <trkpt lat="45.88372" lon="2.87226">
        <ele>784.2</ele>
        <time>2025-08-07T14:05:25Z</time>
      </trkpt>
      <trkpt lat="45.88368" lon="2.87218">
        <ele>784</ele>
        <time>2025-08-07T14:05:26Z</time>
      </trkpt>
      <trkpt lat="45.88364" lon="2.8721">
        <ele>783.8</ele>
        <time>2025-08-07T14:05:27Z</time>
      </trkpt>
      <trkpt lat="45.88359" lon="2.87202">
        <ele>783.8</ele>
        <time>2025-08-07T14:05:28Z</time>
      </trkpt>
      <trkpt lat="45.88356" lon="2.87194">
        <ele>783.6</ele>
        <time>2025-08-07T14:05:29Z</time>
      </trkpt>
      <trkpt lat="45.88352" lon="2.87186">
        <ele>783.4</ele>
        <time>2025-08-07T14:05:30Z</time>
      </trkpt>
      <trkpt lat="45.88348" lon="2.87179">
        <ele>783.2</ele>
        <time>2025-08-07T14:05:31Z</time>
      </trkpt>
      <trkpt lat="45.88344" lon="2.87171">
        <ele>783</ele>
        <time>2025-08-07T14:05:32Z</time>
      </trkpt>
      <trkpt lat="45.88341" lon="2.87164">
        <ele>782.8</ele>
        <time>2025-08-07T14:05:33Z</time>
      </trkpt>
      <trkpt lat="45.88338" lon="2.87156">
        <ele>782.6</ele>
        <time>2025-08-07T14:05:34Z</time>
      </trkpt>
      <trkpt lat="45.88335" lon="2.87147">
        <ele>782.4</ele>
        <time>2025-08-07T14:05:35Z</time>
      </trkpt>
      <trkpt lat="45.8833" lon="2.87137">
        <ele>782</ele>
        <time>2025-08-07T14:05:36Z</time>
      </trkpt>
      <trkpt lat="45.88325" lon="2.87127">
        <ele>781.8</ele>
        <time>2025-08-07T14:05:37Z</time>
      </trkpt>
      <trkpt lat="45.8832" lon="2.87119">
        <ele>781.6</ele>
        <time>2025-08-07T14:05:38Z</time>
      </trkpt>
      <trkpt lat="45.88315" lon="2.87111">
        <ele>781.2</ele>
        <time>2025-08-07T14:05:39Z</time>
      </trkpt>
      <trkpt lat="45.8831" lon="2.87105">
        <ele>780.6</ele>
        <time>2025-08-07T14:05:40Z</time>
      </trkpt>
      <trkpt lat="45.88305" lon="2.87099">
        <ele>780.2</ele>
        <time>2025-08-07T14:05:41Z</time>
      </trkpt>
      <trkpt lat="45.883" lon="2.87094">
        <ele>779.8</ele>
        <time>2025-08-07T14:05:42Z</time>
      </trkpt>
      <trkpt lat="45.88295" lon="2.87087">
        <ele>779.2</ele>
        <time>2025-08-07T14:05:43Z</time>
      </trkpt>
      <trkpt lat="45.8829" lon="2.87079">
        <ele>778.6</ele>
        <time>2025-08-07T14:05:44Z</time>
      </trkpt>
      <trkpt lat="45.88286" lon="2.87071">
        <ele>778</ele>
        <time>2025-08-07T14:05:45Z</time>
      </trkpt>
      <trkpt lat="45.88281" lon="2.87063">
        <ele>777.2</ele>
        <time>2025-08-07T14:05:46Z</time>
      </trkpt>
      <trkpt lat="45.88276" lon="2.87055">
        <ele>776.4</ele>
        <time>2025-08-07T14:05:47Z</time>
      </trkpt>
      <trkpt lat="45.88271" lon="2.87046">
        <ele>775.4</ele>
        <time>2025-08-07T14:05:48Z</time>
      </trkpt>
      <trkpt lat="45.88266" lon="2.87037">
        <ele>774.6</ele>
        <time>2025-08-07T14:05:49Z</time>
      </trkpt>
      <trkpt lat="45.8826" lon="2.87028">
        <ele>773.8</ele>
        <time>2025-08-07T14:05:50Z</time>
      </trkpt>
      <trkpt lat="45.88254" lon="2.87017">
        <ele>773</ele>
        <time>2025-08-07T14:05:51Z</time>
      </trkpt>
      <trkpt lat="45.88248" lon="2.87007">
        <ele>772.2</ele>
        <time>2025-08-07T14:05:52Z</time>
      </trkpt>
      <trkpt lat="45.88243" lon="2.86998">
        <ele>771.6</ele>
        <time>2025-08-07T14:05:53Z</time>
      </trkpt>
      <trkpt lat="45.88239" lon="2.86989">
        <ele>770.8</ele>
        <time>2025-08-07T14:05:54Z</time>
      </trkpt>
      <trkpt lat="45.88236" lon="2.86981">
        <ele>770</ele>
        <time>2025-08-07T14:05:55Z</time>
      </trkpt>
      <trkpt lat="45.88232" lon="2.86972">
        <ele>769</ele>
        <time>2025-08-07T14:05:56Z</time>
      </trkpt>
      <trkpt lat="45.88229" lon="2.86964">
        <ele>768.2</ele>
        <time>2025-08-07T14:05:57Z</time>
      </trkpt>
      <trkpt lat="45.88225" lon="2.86957">
        <ele>767.6</ele>
        <time>2025-08-07T14:05:58Z</time>
      </trkpt>
      <trkpt lat="45.88221" lon="2.86948">
        <ele>767</ele>
        <time>2025-08-07T14:05:59Z</time>
      </trkpt>
      <trkpt lat="45.88218" lon="2.8694">
        <ele>766.4</ele>
        <time>2025-08-07T14:06:00Z</time>
      </trkpt>
      <trkpt lat="45.88216" lon="2.86934">
        <ele>765.8</ele>
        <time>2025-08-07T14:06:01Z</time>
      </trkpt>
      <trkpt lat="45.88213" lon="2.86927">
        <ele>765.4</ele>
        <time>2025-08-07T14:06:02Z</time>
      </trkpt>
      <trkpt lat="45.88209" lon="2.86921">
        <ele>765</ele>
        <time>2025-08-07T14:06:03Z</time>
      </trkpt>
      <trkpt lat="45.88204" lon="2.86915">
        <ele>764.6</ele>
        <time>2025-08-07T14:06:04Z</time>
      </trkpt>
      <trkpt lat="45.88202" lon="2.86914">
        <ele>764.4</ele>
        <time>2025-08-07T14:06:05Z</time>
      </trkpt>
      <trkpt lat="45.88199" lon="2.86914">
        <ele>764.2</ele>
        <time>2025-08-07T14:06:06Z</time>
      </trkpt>
      <trkpt lat="45.88195" lon="2.86915">
        <ele>764.2</ele>
        <time>2025-08-07T14:06:07Z</time>
      </trkpt>
      <trkpt lat="45.88192" lon="2.86916">
        <ele>764.2</ele>
        <time>2025-08-07T14:06:08Z</time>
      </trkpt>
      <trkpt lat="45.88188" lon="2.86919">
        <ele>764.4</ele>
        <time>2025-08-07T14:06:09Z</time>
      </trkpt>
      <trkpt lat="45.88184" lon="2.86922">
        <ele>764.6</ele>
        <time>2025-08-07T14:06:10Z</time>
      </trkpt>
      <trkpt lat="45.8818" lon="2.86925">
        <ele>764.6</ele>
        <time>2025-08-07T14:06:11Z</time>
      </trkpt>
      <trkpt lat="45.88176" lon="2.86929">
        <ele>764.8</ele>
        <time>2025-08-07T14:06:12Z</time>
      </trkpt>
      <trkpt lat="45.88171" lon="2.86932">
        <ele>764.8</ele>
        <time>2025-08-07T14:06:13Z</time>
      </trkpt>
      <trkpt lat="45.88166" lon="2.86936">
        <ele>765</ele>
        <time>2025-08-07T14:06:14Z</time>
      </trkpt>
      <trkpt lat="45.88163" lon="2.8694">
        <ele>765</ele>
        <time>2025-08-07T14:06:15Z</time>
      </trkpt>
      <trkpt lat="45.88159" lon="2.86944">
        <ele>765</ele>
        <time>2025-08-07T14:06:16Z</time>
      </trkpt>
      <trkpt lat="45.88156" lon="2.86947">
        <ele>765</ele>
        <time>2025-08-07T14:06:17Z</time>
      </trkpt>
      <trkpt lat="45.88153" lon="2.86948">
        <ele>765</ele>
        <time>2025-08-07T14:06:18Z</time>
      </trkpt>
      <trkpt lat="45.88149" lon="2.8695">
        <ele>764.8</ele>
        <time>2025-08-07T14:06:19Z</time>
      </trkpt>
      <trkpt lat="45.88147" lon="2.86952">
        <ele>764.8</ele>
        <time>2025-08-07T14:06:20Z</time>
      </trkpt>
      <trkpt lat="45.88145" lon="2.86952">
        <ele>764.8</ele>
        <time>2025-08-07T14:06:21Z</time>
      </trkpt>
      <trkpt lat="45.88145" lon="2.86952">
        <ele>764.6</ele>
        <time>2025-08-07T14:06:22Z</time>
      </trkpt>
      <trkpt lat="45.88145" lon="2.86952">
        <ele>764.6</ele>
        <time>2025-08-07T14:06:23Z</time>
      </trkpt>
      <trkpt lat="45.88145" lon="2.86952">
        <ele>764.6</ele>
        <time>2025-08-07T14:06:24Z</time>
      </trkpt>
      <trkpt lat="45.88145" lon="2.86952">
        <ele>764.6</ele>
        <time>2025-08-07T14:06:25Z</time>
      </trkpt>
      <trkpt lat="45.88145" lon="2.86952">
        <ele>764.4</ele>
        <time>2025-08-07T14:06:26Z</time>
      </trkpt>
      <trkpt lat="45.88142" lon="2.86953">
        <ele>764.2</ele>
        <time>2025-08-07T14:06:35Z</time>
      </trkpt>
      <trkpt lat="45.88141" lon="2.86954">
        <ele>764.2</ele>
        <time>2025-08-07T14:06:36Z</time>
      </trkpt>
      <trkpt lat="45.88139" lon="2.86956">
        <ele>764.2</ele>
        <time>2025-08-07T14:06:37Z</time>
      </trkpt>
      <trkpt lat="45.88136" lon="2.86958">
        <ele>764.2</ele>
        <time>2025-08-07T14:06:38Z</time>
      </trkpt>
      <trkpt lat="45.88132" lon="2.86961">
        <ele>764</ele>
        <time>2025-08-07T14:06:39Z</time>
      </trkpt>
      <trkpt lat="45.88128" lon="2.86964">
        <ele>763.6</ele>
        <time>2025-08-07T14:06:40Z</time>
      </trkpt>
      <trkpt lat="45.88123" lon="2.86968">
        <ele>763.2</ele>
        <time>2025-08-07T14:06:41Z</time>
      </trkpt>
      <trkpt lat="45.88117" lon="2.86971">
        <ele>762.6</ele>
        <time>2025-08-07T14:06:42Z</time>
      </trkpt>
      <trkpt lat="45.88112" lon="2.86975">
        <ele>761.8</ele>
        <time>2025-08-07T14:06:43Z</time>
      </trkpt>
      <trkpt lat="45.88108" lon="2.86979">
        <ele>761</ele>
        <time>2025-08-07T14:06:44Z</time>
      </trkpt>
      <trkpt lat="45.88102" lon="2.86983">
        <ele>760</ele>
        <time>2025-08-07T14:06:45Z</time>
      </trkpt>
      <trkpt lat="45.88097" lon="2.86987">
        <ele>759.2</ele>
        <time>2025-08-07T14:06:46Z</time>
      </trkpt>
      <trkpt lat="45.88092" lon="2.86991">
        <ele>758.2</ele>
        <time>2025-08-07T14:06:47Z</time>
      </trkpt>
      <trkpt lat="45.88087" lon="2.86995">
        <ele>757</ele>
        <time>2025-08-07T14:06:48Z</time>
      </trkpt>
      <trkpt lat="45.88083" lon="2.86997">
        <ele>756</ele>
        <time>2025-08-07T14:06:49Z</time>
      </trkpt>
      <trkpt lat="45.88078" lon="2.86999">
        <ele>755.2</ele>
        <time>2025-08-07T14:06:50Z</time>
      </trkpt>
      <trkpt lat="45.88075" lon="2.87">
        <ele>754.4</ele>
        <time>2025-08-07T14:06:51Z</time>
      </trkpt>
      <trkpt lat="45.88072" lon="2.86999">
        <ele>753.6</ele>
        <time>2025-08-07T14:06:52Z</time>
      </trkpt>
      <trkpt lat="45.8807" lon="2.86996">
        <ele>752.8</ele>
        <time>2025-08-07T14:06:53Z</time>
      </trkpt>
      <trkpt lat="45.88071" lon="2.86993">
        <ele>752.2</ele>
        <time>2025-08-07T14:06:54Z</time>
      </trkpt>
      <trkpt lat="45.88071" lon="2.86987">
        <ele>751.6</ele>
        <time>2025-08-07T14:06:55Z</time>
      </trkpt>
      <trkpt lat="45.88074" lon="2.8698">
        <ele>751</ele>
        <time>2025-08-07T14:06:56Z</time>
      </trkpt>
      <trkpt lat="45.88076" lon="2.86971">
        <ele>750.6</ele>
        <time>2025-08-07T14:06:57Z</time>
      </trkpt>
      <trkpt lat="45.8808" lon="2.86962">
        <ele>750.2</ele>
        <time>2025-08-07T14:06:58Z</time>
      </trkpt>
      <trkpt lat="45.88083" lon="2.86954">
        <ele>749.6</ele>
        <time>2025-08-07T14:06:59Z</time>
      </trkpt>
      <trkpt lat="45.88086" lon="2.86945">
        <ele>749.2</ele>
        <time>2025-08-07T14:07:00Z</time>
      </trkpt>
      <trkpt lat="45.88088" lon="2.86936">
        <ele>748.8</ele>
        <time>2025-08-07T14:07:01Z</time>
      </trkpt>
      <trkpt lat="45.88089" lon="2.86929">
        <ele>748.2</ele>
        <time>2025-08-07T14:07:02Z</time>
      </trkpt>
      <trkpt lat="45.88089" lon="2.86923">
        <ele>747.8</ele>
        <time>2025-08-07T14:07:03Z</time>
      </trkpt>
      <trkpt lat="45.88088" lon="2.86918">
        <ele>747.2</ele>
        <time>2025-08-07T14:07:04Z</time>
      </trkpt>
      <trkpt lat="45.88086" lon="2.86914">
        <ele>746.6</ele>
        <time>2025-08-07T14:07:05Z</time>
      </trkpt>
      <trkpt lat="45.88082" lon="2.86911">
        <ele>746.2</ele>
        <time>2025-08-07T14:07:06Z</time>
      </trkpt>
      <trkpt lat="45.88077" lon="2.86909">
        <ele>745.8</ele>
        <time>2025-08-07T14:07:07Z</time>
      </trkpt>
      <trkpt lat="45.88071" lon="2.86907">
        <ele>745.4</ele>
        <time>2025-08-07T14:07:08Z</time>
      </trkpt>
      <trkpt lat="45.88065" lon="2.86905">
        <ele>745</ele>
        <time>2025-08-07T14:07:09Z</time>
      </trkpt>
      <trkpt lat="45.8806" lon="2.86903">
        <ele>744.8</ele>
        <time>2025-08-07T14:07:10Z</time>
      </trkpt>
      <trkpt lat="45.88055" lon="2.869">
        <ele>744.8</ele>
        <time>2025-08-07T14:07:11Z</time>
      </trkpt>
      <trkpt lat="45.88051" lon="2.86898">
        <ele>744.8</ele>
        <time>2025-08-07T14:07:12Z</time>
      </trkpt>
      <trkpt lat="45.88048" lon="2.86897">
        <ele>744.6</ele>
        <time>2025-08-07T14:07:13Z</time>
      </trkpt>
      <trkpt lat="45.88046" lon="2.86897">
        <ele>744.6</ele>
        <time>2025-08-07T14:07:14Z</time>
      </trkpt>
      <trkpt lat="45.88045" lon="2.86897">
        <ele>744.4</ele>
        <time>2025-08-07T14:07:15Z</time>
      </trkpt>
      <trkpt lat="45.88045" lon="2.86897">
        <ele>744.4</ele>
        <time>2025-08-07T14:07:16Z</time>
      </trkpt>
      <trkpt lat="45.88045" lon="2.86897">
        <ele>744.4</ele>
        <time>2025-08-07T14:07:17Z</time>
      </trkpt>
      <trkpt lat="45.88045" lon="2.86897">
        <ele>744.2</ele>
        <time>2025-08-07T14:07:18Z</time>
      </trkpt>
      <trkpt lat="45.88045" lon="2.86897">
        <ele>744.2</ele>
        <time>2025-08-07T14:07:19Z</time>
      </trkpt>
      <trkpt lat="45.88045" lon="2.86897">
        <ele>744.2</ele>
        <time>2025-08-07T14:07:20Z</time>
      </trkpt>
      <trkpt lat="45.88046" lon="2.86899">
        <ele>744</ele>
        <time>2025-08-07T14:08:53Z</time>
      </trkpt>
      <trkpt lat="45.88045" lon="2.86899">
        <ele>744</ele>
        <time>2025-08-07T14:08:54Z</time>
      </trkpt>
      <trkpt lat="45.88045" lon="2.86899">
        <ele>744</ele>
        <time>2025-08-07T14:08:55Z</time>
      </trkpt>
      <trkpt lat="45.88046" lon="2.86898">
        <ele>744</ele>
        <time>2025-08-07T14:08:56Z</time>
      </trkpt>
      <trkpt lat="45.88048" lon="2.86897">
        <ele>744</ele>
        <time>2025-08-07T14:08:57Z</time>
      </trkpt>
      <trkpt lat="45.88049" lon="2.86896">
        <ele>744</ele>
        <time>2025-08-07T14:08:58Z</time>
      </trkpt>
      <trkpt lat="45.88052" lon="2.86897">
        <ele>744</ele>
        <time>2025-08-07T14:08:59Z</time>
      </trkpt>
      <trkpt lat="45.88054" lon="2.86899">
        <ele>744</ele>
        <time>2025-08-07T14:09:00Z</time>
      </trkpt>
      <trkpt lat="45.88057" lon="2.86901">
        <ele>744.2</ele>
        <time>2025-08-07T14:09:01Z</time>
      </trkpt>
      <trkpt lat="45.88059" lon="2.86903">
        <ele>744.2</ele>
        <time>2025-08-07T14:09:02Z</time>
      </trkpt>
      <trkpt lat="45.88062" lon="2.86904">
        <ele>744.2</ele>
        <time>2025-08-07T14:09:03Z</time>
      </trkpt>
      <trkpt lat="45.88065" lon="2.86904">
        <ele>744.4</ele>
        <time>2025-08-07T14:09:04Z</time>
      </trkpt>
      <trkpt lat="45.88069" lon="2.86904">
        <ele>744.4</ele>
        <time>2025-08-07T14:09:05Z</time>
      </trkpt>
      <trkpt lat="45.88073" lon="2.86905">
        <ele>744.6</ele>
        <time>2025-08-07T14:09:06Z</time>
      </trkpt>
      <trkpt lat="45.88076" lon="2.86908">
        <ele>744.8</ele>
        <time>2025-08-07T14:09:07Z</time>
      </trkpt>
      <trkpt lat="45.88079" lon="2.86911">
        <ele>745.2</ele>
        <time>2025-08-07T14:09:08Z</time>
      </trkpt>
      <trkpt lat="45.88082" lon="2.86915">
        <ele>745.6</ele>
        <time>2025-08-07T14:09:09Z</time>
      </trkpt>
      <trkpt lat="45.88085" lon="2.8692">
        <ele>746</ele>
        <time>2025-08-07T14:09:10Z</time>
      </trkpt>
      <trkpt lat="45.88087" lon="2.86925">
        <ele>746.4</ele>
        <time>2025-08-07T14:09:11Z</time>
      </trkpt>
      <trkpt lat="45.88087" lon="2.86929">
        <ele>746.8</ele>
        <time>2025-08-07T14:09:12Z</time>
      </trkpt>
      <trkpt lat="45.88087" lon="2.86933">
        <ele>747.2</ele>
        <time>2025-08-07T14:09:13Z</time>
      </trkpt>
      <trkpt lat="45.88085" lon="2.86938">
        <ele>747.6</ele>
        <time>2025-08-07T14:09:14Z</time>
      </trkpt>
      <trkpt lat="45.88083" lon="2.86945">
        <ele>747.8</ele>
        <time>2025-08-07T14:09:15Z</time>
      </trkpt>
      <trkpt lat="45.88079" lon="2.86952">
        <ele>748.2</ele>
        <time>2025-08-07T14:09:16Z</time>
      </trkpt>
      <trkpt lat="45.88077" lon="2.8696">
        <ele>748.4</ele>
        <time>2025-08-07T14:09:17Z</time>
      </trkpt>
      <trkpt lat="45.88075" lon="2.86969">
        <ele>748.8</ele>
        <time>2025-08-07T14:09:18Z</time>
      </trkpt>
      <trkpt lat="45.88074" lon="2.86977">
        <ele>749.2</ele>
        <time>2025-08-07T14:09:19Z</time>
      </trkpt>
      <trkpt lat="45.88076" lon="2.86983">
        <ele>749.8</ele>
        <time>2025-08-07T14:09:20Z</time>
      </trkpt>
      <trkpt lat="45.88078" lon="2.86988">
        <ele>750.4</ele>
        <time>2025-08-07T14:09:21Z</time>
      </trkpt>
      <trkpt lat="45.88081" lon="2.86992">
        <ele>751</ele>
        <time>2025-08-07T14:09:22Z</time>
      </trkpt>
      <trkpt lat="45.88084" lon="2.86994">
        <ele>751.6</ele>
        <time>2025-08-07T14:09:23Z</time>
      </trkpt>
      <trkpt lat="45.88088" lon="2.86996">
        <ele>752.2</ele>
        <time>2025-08-07T14:09:24Z</time>
      </trkpt>
      <trkpt lat="45.88091" lon="2.86996">
        <ele>752.8</ele>
        <time>2025-08-07T14:09:25Z</time>
      </trkpt>
      <trkpt lat="45.88095" lon="2.86994">
        <ele>753.4</ele>
        <time>2025-08-07T14:09:26Z</time>
      </trkpt>
      <trkpt lat="45.88098" lon="2.86992">
        <ele>754.2</ele>
        <time>2025-08-07T14:09:27Z</time>
      </trkpt>
      <trkpt lat="45.88101" lon="2.86989">
        <ele>754.8</ele>
        <time>2025-08-07T14:09:28Z</time>
      </trkpt>
      <trkpt lat="45.88104" lon="2.86987">
        <ele>755.4</ele>
        <time>2025-08-07T14:09:29Z</time>
      </trkpt>
      <trkpt lat="45.88107" lon="2.86985">
        <ele>756.2</ele>
        <time>2025-08-07T14:09:30Z</time>
      </trkpt>
      <trkpt lat="45.88109" lon="2.86982">
        <ele>756.6</ele>
        <time>2025-08-07T14:09:31Z</time>
      </trkpt>
      <trkpt lat="45.88111" lon="2.86981">
        <ele>757.2</ele>
        <time>2025-08-07T14:09:32Z</time>
      </trkpt>
      <trkpt lat="45.88114" lon="2.86979">
        <ele>757.8</ele>
        <time>2025-08-07T14:09:33Z</time>
      </trkpt>
      <trkpt lat="45.88116" lon="2.86977">
        <ele>758.4</ele>
        <time>2025-08-07T14:09:34Z</time>
      </trkpt>
      <trkpt lat="45.88119" lon="2.86974">
        <ele>759</ele>
        <time>2025-08-07T14:09:35Z</time>
      </trkpt>
      <trkpt lat="45.88122" lon="2.86972">
        <ele>759.4</ele>
        <time>2025-08-07T14:09:36Z</time>
      </trkpt>
      <trkpt lat="45.88125" lon="2.86969">
        <ele>760</ele>
        <time>2025-08-07T14:09:37Z</time>
      </trkpt>
      <trkpt lat="45.88128" lon="2.86966">
        <ele>760.6</ele>
        <time>2025-08-07T14:09:38Z</time>
      </trkpt>
      <trkpt lat="45.88131" lon="2.86964">
        <ele>761</ele>
        <time>2025-08-07T14:09:39Z</time>
      </trkpt>
      <trkpt lat="45.88134" lon="2.86961">
        <ele>761.4</ele>
        <time>2025-08-07T14:09:40Z</time>
      </trkpt>
      <trkpt lat="45.88136" lon="2.86959">
        <ele>761.8</ele>
        <time>2025-08-07T14:09:41Z</time>
      </trkpt>
      <trkpt lat="45.88139" lon="2.86957">
        <ele>762.2</ele>
        <time>2025-08-07T14:09:42Z</time>
      </trkpt>
      <trkpt lat="45.8814" lon="2.86955">
        <ele>762.4</ele>
        <time>2025-08-07T14:09:43Z</time>
      </trkpt>
      <trkpt lat="45.8814" lon="2.86954">
        <ele>762.6</ele>
        <time>2025-08-07T14:09:44Z</time>
      </trkpt>
      <trkpt lat="45.88141" lon="2.86954">
        <ele>762.6</ele>
        <time>2025-08-07T14:09:45Z</time>
      </trkpt>
      <trkpt lat="45.88141" lon="2.86953">
        <ele>762.8</ele>
        <time>2025-08-07T14:09:46Z</time>
      </trkpt>
      <trkpt lat="45.88146" lon="2.86955">
        <ele>763</ele>
        <time>2025-08-07T14:10:05Z</time>
      </trkpt>
      <trkpt lat="45.88146" lon="2.86955">
        <ele>763</ele>
        <time>2025-08-07T14:10:06Z</time>
      </trkpt>
      <trkpt lat="45.88146" lon="2.86955">
        <ele>763</ele>
        <time>2025-08-07T14:10:07Z</time>
      </trkpt>
      <trkpt lat="45.88146" lon="2.86955">
        <ele>763</ele>
        <time>2025-08-07T14:10:08Z</time>
      </trkpt>
      <trkpt lat="45.88146" lon="2.86955">
        <ele>763</ele>
        <time>2025-08-07T14:10:09Z</time>
      </trkpt>
      <trkpt lat="45.88146" lon="2.86955">
        <ele>763</ele>
        <time>2025-08-07T14:10:10Z</time>
      </trkpt>
      <trkpt lat="45.88151" lon="2.86953">
        <ele>763</ele>
        <time>2025-08-07T14:11:09Z</time>
      </trkpt>
      <trkpt lat="45.88152" lon="2.86952">
        <ele>763</ele>
        <time>2025-08-07T14:11:10Z</time>
      </trkpt>
      <trkpt lat="45.88153" lon="2.86951">
        <ele>763</ele>
        <time>2025-08-07T14:11:11Z</time>
      </trkpt>
      <trkpt lat="45.88154" lon="2.8695">
        <ele>763</ele>
        <time>2025-08-07T14:11:12Z</time>
      </trkpt>
      <trkpt lat="45.88154" lon="2.8695">
        <ele>763</ele>
        <time>2025-08-07T14:11:13Z</time>
      </trkpt>
      <trkpt lat="45.88154" lon="2.8695">
        <ele>762.8</ele>
        <time>2025-08-07T14:11:14Z</time>
      </trkpt>
      <trkpt lat="45.88154" lon="2.8695">
        <ele>762.6</ele>
        <time>2025-08-07T14:11:15Z</time>
      </trkpt>
      <trkpt lat="45.88154" lon="2.8695">
        <ele>762.6</ele>
        <time>2025-08-07T14:11:16Z</time>
      </trkpt>
      <trkpt lat="45.88154" lon="2.8695">
        <ele>762.4</ele>
        <time>2025-08-07T14:11:17Z</time>
      </trkpt>
      <trkpt lat="45.88158" lon="2.86948">
        <ele>762.6</ele>
        <time>2025-08-07T14:11:25Z</time>
      </trkpt>
      <trkpt lat="45.88159" lon="2.86946">
        <ele>762.6</ele>
        <time>2025-08-07T14:11:26Z</time>
      </trkpt>
      <trkpt lat="45.88162" lon="2.86943">
        <ele>762.4</ele>
        <time>2025-08-07T14:11:27Z</time>
      </trkpt>
      <trkpt lat="45.88165" lon="2.86941">
        <ele>762.4</ele>
        <time>2025-08-07T14:11:28Z</time>
      </trkpt>
      <trkpt lat="45.88168" lon="2.86937">
        <ele>762.4</ele>
        <time>2025-08-07T14:11:29Z</time>
      </trkpt>
      <trkpt lat="45.88172" lon="2.86934">
        <ele>762.2</ele>
        <time>2025-08-07T14:11:30Z</time>
      </trkpt>
      <trkpt lat="45.88176" lon="2.8693">
        <ele>762.2</ele>
        <time>2025-08-07T14:11:31Z</time>
      </trkpt>
      <trkpt lat="45.88181" lon="2.86926">
        <ele>762</ele>
        <time>2025-08-07T14:11:32Z</time>
      </trkpt>
      <trkpt lat="45.88184" lon="2.86922">
        <ele>761.8</ele>
        <time>2025-08-07T14:11:33Z</time>
      </trkpt>
      <trkpt lat="45.88188" lon="2.86918">
        <ele>761.6</ele>
        <time>2025-08-07T14:11:34Z</time>
      </trkpt>
      <trkpt lat="45.88192" lon="2.86914">
        <ele>761.4</ele>
        <time>2025-08-07T14:11:35Z</time>
      </trkpt>
      <trkpt lat="45.88194" lon="2.86911">
        <ele>761.2</ele>
        <time>2025-08-07T14:11:36Z</time>
      </trkpt>
      <trkpt lat="45.88196" lon="2.86908">
        <ele>761</ele>
        <time>2025-08-07T14:11:37Z</time>
      </trkpt>
      <trkpt lat="45.88198" lon="2.86905">
        <ele>760.8</ele>
        <time>2025-08-07T14:11:38Z</time>
      </trkpt>
      <trkpt lat="45.88199" lon="2.86902">
        <ele>760.6</ele>
        <time>2025-08-07T14:11:39Z</time>
      </trkpt>
      <trkpt lat="45.88199" lon="2.86897">
        <ele>760.4</ele>
        <time>2025-08-07T14:11:40Z</time>
      </trkpt>
      <trkpt lat="45.88198" lon="2.86893">
        <ele>760.2</ele>
        <time>2025-08-07T14:11:41Z</time>
      </trkpt>
      <trkpt lat="45.88196" lon="2.86888">
        <ele>759.8</ele>
        <time>2025-08-07T14:11:42Z</time>
      </trkpt>
      <trkpt lat="45.88194" lon="2.86883">
        <ele>759.4</ele>
        <time>2025-08-07T14:11:43Z</time>
      </trkpt>
      <trkpt lat="45.88192" lon="2.86877">
        <ele>759</ele>
        <time>2025-08-07T14:11:44Z</time>
      </trkpt>
      <trkpt lat="45.88189" lon="2.86872">
        <ele>758.6</ele>
        <time>2025-08-07T14:11:45Z</time>
      </trkpt>
      <trkpt lat="45.88186" lon="2.86866">
        <ele>758</ele>
        <time>2025-08-07T14:11:46Z</time>
      </trkpt>
      <trkpt lat="45.88183" lon="2.86861">
        <ele>757.6</ele>
        <time>2025-08-07T14:11:47Z</time>
      </trkpt>
      <trkpt lat="45.88179" lon="2.86854">
        <ele>757</ele>
        <time>2025-08-07T14:11:48Z</time>
      </trkpt>
      <trkpt lat="45.88176" lon="2.86847">
        <ele>756.4</ele>
        <time>2025-08-07T14:11:49Z</time>
      </trkpt>
      <trkpt lat="45.88173" lon="2.8684">
        <ele>755.8</ele>
        <time>2025-08-07T14:11:50Z</time>
      </trkpt>
      <trkpt lat="45.88169" lon="2.86834">
        <ele>755</ele>
        <time>2025-08-07T14:11:51Z</time>
      </trkpt>
      <trkpt lat="45.88166" lon="2.86828">
        <ele>754</ele>
        <time>2025-08-07T14:11:52Z</time>
      </trkpt>
      <trkpt lat="45.88162" lon="2.86822">
        <ele>753</ele>
        <time>2025-08-07T14:11:53Z</time>
      </trkpt>
      <trkpt lat="45.88158" lon="2.86815">
        <ele>752</ele>
        <time>2025-08-07T14:11:54Z</time>
      </trkpt>
      <trkpt lat="45.88155" lon="2.86807">
        <ele>751</ele>
        <time>2025-08-07T14:11:55Z</time>
      </trkpt>
      <trkpt lat="45.88153" lon="2.86798">
        <ele>750</ele>
        <time>2025-08-07T14:11:56Z</time>
      </trkpt>
      <trkpt lat="45.88151" lon="2.86791">
        <ele>749.2</ele>
        <time>2025-08-07T14:11:57Z</time>
      </trkpt>
      <trkpt lat="45.8815" lon="2.86782">
        <ele>748</ele>
        <time>2025-08-07T14:11:58Z</time>
      </trkpt>
      <trkpt lat="45.8815" lon="2.86774">
        <ele>747</ele>
        <time>2025-08-07T14:11:59Z</time>
      </trkpt>
      <trkpt lat="45.88151" lon="2.86766">
        <ele>746</ele>
        <time>2025-08-07T14:12:00Z</time>
      </trkpt>
      <trkpt lat="45.88153" lon="2.86757">
        <ele>744.8</ele>
        <time>2025-08-07T14:12:01Z</time>
      </trkpt>
      <trkpt lat="45.88155" lon="2.8675">
        <ele>744</ele>
        <time>2025-08-07T14:12:02Z</time>
      </trkpt>
      <trkpt lat="45.88156" lon="2.86743">
        <ele>743</ele>
        <time>2025-08-07T14:12:03Z</time>
      </trkpt>
      <trkpt lat="45.88157" lon="2.86737">
        <ele>742.2</ele>
        <time>2025-08-07T14:12:04Z</time>
      </trkpt>
      <trkpt lat="45.88156" lon="2.86732">
        <ele>741.6</ele>
        <time>2025-08-07T14:12:05Z</time>
      </trkpt>
      <trkpt lat="45.88154" lon="2.86727">
        <ele>741</ele>
        <time>2025-08-07T14:12:06Z</time>
      </trkpt>
      <trkpt lat="45.8815" lon="2.86722">
        <ele>740.6</ele>
        <time>2025-08-07T14:12:07Z</time>
      </trkpt>
      <trkpt lat="45.88145" lon="2.86718">
        <ele>740</ele>
        <time>2025-08-07T14:12:08Z</time>
      </trkpt>
      <trkpt lat="45.88139" lon="2.86713">
        <ele>739.8</ele>
        <time>2025-08-07T14:12:09Z</time>
      </trkpt>
      <trkpt lat="45.88134" lon="2.8671">
        <ele>739.4</ele>
        <time>2025-08-07T14:12:10Z</time>
      </trkpt>
      <trkpt lat="45.88128" lon="2.86707">
        <ele>739.2</ele>
        <time>2025-08-07T14:12:11Z</time>
      </trkpt>
      <trkpt lat="45.88122" lon="2.86705">
        <ele>739</ele>
        <time>2025-08-07T14:12:12Z</time>
      </trkpt>
      <trkpt lat="45.88117" lon="2.86703">
        <ele>739</ele>
        <time>2025-08-07T14:12:13Z</time>
      </trkpt>
      <trkpt lat="45.88112" lon="2.86703">
        <ele>738.8</ele>
        <time>2025-08-07T14:12:14Z</time>
      </trkpt>
      <trkpt lat="45.88108" lon="2.86703">
        <ele>738.8</ele>
        <time>2025-08-07T14:12:15Z</time>
      </trkpt>
      <trkpt lat="45.88103" lon="2.86705">
        <ele>739</ele>
        <time>2025-08-07T14:12:16Z</time>
      </trkpt>
      <trkpt lat="45.88098" lon="2.86707">
        <ele>739.2</ele>
        <time>2025-08-07T14:12:17Z</time>
      </trkpt>
      <trkpt lat="45.88093" lon="2.86709">
        <ele>739.4</ele>
        <time>2025-08-07T14:12:18Z</time>
      </trkpt>
      <trkpt lat="45.88088" lon="2.86711">
        <ele>739.6</ele>
        <time>2025-08-07T14:12:19Z</time>
      </trkpt>
      <trkpt lat="45.88084" lon="2.86712">
        <ele>739.8</ele>
        <time>2025-08-07T14:12:20Z</time>
      </trkpt>
      <trkpt lat="45.88081" lon="2.86712">
        <ele>740.4</ele>
        <time>2025-08-07T14:12:21Z</time>
      </trkpt>
      <trkpt lat="45.88078" lon="2.86712">
        <ele>740.8</ele>
        <time>2025-08-07T14:12:22Z</time>
      </trkpt>
      <trkpt lat="45.88075" lon="2.86712">
        <ele>741.4</ele>
        <time>2025-08-07T14:12:23Z</time>
      </trkpt>
      <trkpt lat="45.88072" lon="2.86712">
        <ele>742</ele>
        <time>2025-08-07T14:12:24Z</time>
      </trkpt>
      <trkpt lat="45.88069" lon="2.86712">
        <ele>742.4</ele>
        <time>2025-08-07T14:12:25Z</time>
      </trkpt>
      <trkpt lat="45.88066" lon="2.86712">
        <ele>743</ele>
        <time>2025-08-07T14:12:26Z</time>
      </trkpt>
      <trkpt lat="45.88062" lon="2.86713">
        <ele>743.4</ele>
        <time>2025-08-07T14:12:27Z</time>
      </trkpt>
      <trkpt lat="45.88058" lon="2.86714">
        <ele>744</ele>
        <time>2025-08-07T14:12:28Z</time>
      </trkpt>
      <trkpt lat="45.88054" lon="2.86716">
        <ele>744.4</ele>
        <time>2025-08-07T14:12:29Z</time>
      </trkpt>
      <trkpt lat="45.88051" lon="2.86719">
        <ele>744.8</ele>
        <time>2025-08-07T14:12:30Z</time>
      </trkpt>
      <trkpt lat="45.88049" lon="2.86724">
        <ele>745.2</ele>
        <time>2025-08-07T14:12:31Z</time>
      </trkpt>
      <trkpt lat="45.88047" lon="2.86729">
        <ele>745.6</ele>
        <time>2025-08-07T14:12:32Z</time>
      </trkpt>
      <trkpt lat="45.88047" lon="2.86734">
        <ele>745.8</ele>
        <time>2025-08-07T14:12:33Z</time>
      </trkpt>
      <trkpt lat="45.88047" lon="2.8674">
        <ele>746</ele>
        <time>2025-08-07T14:12:34Z</time>
      </trkpt>
      <trkpt lat="45.88046" lon="2.86746">
        <ele>746.4</ele>
        <time>2025-08-07T14:12:35Z</time>
      </trkpt>
      <trkpt lat="45.88045" lon="2.8675">
        <ele>746.8</ele>
        <time>2025-08-07T14:12:36Z</time>
      </trkpt>
      <trkpt lat="45.88044" lon="2.86753">
        <ele>747.2</ele>
        <time>2025-08-07T14:12:37Z</time>
      </trkpt>
      <trkpt lat="45.88043" lon="2.86754">
        <ele>747.6</ele>
        <time>2025-08-07T14:12:38Z</time>
      </trkpt>
      <trkpt lat="45.8804" lon="2.86757">
        <ele>747.8</ele>
        <time>2025-08-07T14:12:39Z</time>
      </trkpt>
      <trkpt lat="45.88037" lon="2.8676">
        <ele>748.4</ele>
        <time>2025-08-07T14:12:40Z</time>
      </trkpt>
      <trkpt lat="45.88034" lon="2.86761">
        <ele>748.8</ele>
        <time>2025-08-07T14:12:41Z</time>
      </trkpt>
      <trkpt lat="45.88031" lon="2.86762">
        <ele>749.2</ele>
        <time>2025-08-07T14:12:42Z</time>
      </trkpt>
      <trkpt lat="45.88027" lon="2.86763">
        <ele>749.6</ele>
        <time>2025-08-07T14:12:43Z</time>
      </trkpt>
      <trkpt lat="45.88024" lon="2.86764">
        <ele>750</ele>
        <time>2025-08-07T14:12:44Z</time>
      </trkpt>
      <trkpt lat="45.8802" lon="2.86764">
        <ele>750.4</ele>
        <time>2025-08-07T14:12:45Z</time>
      </trkpt>
      <trkpt lat="45.88017" lon="2.86762">
        <ele>751</ele>
        <time>2025-08-07T14:12:46Z</time>
      </trkpt>
      <trkpt lat="45.88016" lon="2.86761">
        <ele>751.4</ele>
        <time>2025-08-07T14:12:47Z</time>
      </trkpt>
      <trkpt lat="45.88014" lon="2.86761">
        <ele>751.8</ele>
        <time>2025-08-07T14:12:48Z</time>
      </trkpt>
      <trkpt lat="45.88011" lon="2.86761">
        <ele>752.2</ele>
        <time>2025-08-07T14:12:49Z</time>
      </trkpt>
      <trkpt lat="45.88009" lon="2.86759">
        <ele>752.6</ele>
        <time>2025-08-07T14:12:50Z</time>
      </trkpt>
      <trkpt lat="45.88006" lon="2.86757">
        <ele>753.2</ele>
        <time>2025-08-07T14:12:51Z</time>
      </trkpt>
      <trkpt lat="45.88003" lon="2.86756">
        <ele>753.6</ele>
        <time>2025-08-07T14:12:52Z</time>
      </trkpt>
      <trkpt lat="45.88" lon="2.86756">
        <ele>754</ele>
        <time>2025-08-07T14:12:53Z</time>
      </trkpt>
      <trkpt lat="45.87996" lon="2.86755">
        <ele>754.4</ele>
        <time>2025-08-07T14:12:54Z</time>
      </trkpt>
      <trkpt lat="45.87993" lon="2.86754">
        <ele>754.8</ele>
        <time>2025-08-07T14:12:55Z</time>
      </trkpt>
      <trkpt lat="45.87989" lon="2.86751">
        <ele>755.2</ele>
        <time>2025-08-07T14:12:56Z</time>
      </trkpt>
      <trkpt lat="45.87985" lon="2.86749">
        <ele>755.6</ele>
        <time>2025-08-07T14:12:57Z</time>
      </trkpt>
      <trkpt lat="45.87982" lon="2.86748">
        <ele>755.8</ele>
        <time>2025-08-07T14:12:58Z</time>
      </trkpt>
      <trkpt lat="45.87979" lon="2.86747">
        <ele>756.2</ele>
        <time>2025-08-07T14:12:59Z</time>
      </trkpt>
      <trkpt lat="45.87976" lon="2.86746">
        <ele>756.6</ele>
        <time>2025-08-07T14:13:00Z</time>
      </trkpt>
      <trkpt lat="45.87973" lon="2.86746">
        <ele>756.8</ele>
        <time>2025-08-07T14:13:01Z</time>
      </trkpt>
      <trkpt lat="45.8797" lon="2.86744">
        <ele>757.2</ele>
        <time>2025-08-07T14:13:02Z</time>
      </trkpt>
      <trkpt lat="45.87967" lon="2.86742">
        <ele>757.4</ele>
        <time>2025-08-07T14:13:03Z</time>
      </trkpt>
      <trkpt lat="45.87963" lon="2.86739">
        <ele>757.8</ele>
        <time>2025-08-07T14:13:04Z</time>
      </trkpt>
      <trkpt lat="45.87957" lon="2.86736">
        <ele>758</ele>
        <time>2025-08-07T14:13:05Z</time>
      </trkpt>
      <trkpt lat="45.87952" lon="2.86733">
        <ele>758.2</ele>
        <time>2025-08-07T14:13:06Z</time>
      </trkpt>
      <trkpt lat="45.87947" lon="2.8673">
        <ele>758.6</ele>
        <time>2025-08-07T14:13:07Z</time>
      </trkpt>
      <trkpt lat="45.87941" lon="2.86727">
        <ele>758.8</ele>
        <time>2025-08-07T14:13:08Z</time>
      </trkpt>
      <trkpt lat="45.87936" lon="2.86722">
        <ele>759</ele>
        <time>2025-08-07T14:13:09Z</time>
      </trkpt>
      <trkpt lat="45.87932" lon="2.86718">
        <ele>759.4</ele>
        <time>2025-08-07T14:13:10Z</time>
      </trkpt>
      <trkpt lat="45.87928" lon="2.86715">
        <ele>759.6</ele>
        <time>2025-08-07T14:13:11Z</time>
      </trkpt>
      <trkpt lat="45.87924" lon="2.86715">
        <ele>759.8</ele>
        <time>2025-08-07T14:13:12Z</time>
      </trkpt>
      <trkpt lat="45.87918" lon="2.86715">
        <ele>760</ele>
        <time>2025-08-07T14:13:13Z</time>
      </trkpt>
      <trkpt lat="45.87914" lon="2.86714">
        <ele>760.4</ele>
        <time>2025-08-07T14:13:14Z</time>
      </trkpt>
      <trkpt lat="45.87909" lon="2.86712">
        <ele>760.6</ele>
        <time>2025-08-07T14:13:15Z</time>
      </trkpt>
      <trkpt lat="45.87906" lon="2.8671">
        <ele>760.8</ele>
        <time>2025-08-07T14:13:16Z</time>
      </trkpt>
      <trkpt lat="45.87903" lon="2.86708">
        <ele>761.2</ele>
        <time>2025-08-07T14:13:17Z</time>
      </trkpt>
      <trkpt lat="45.879" lon="2.86706">
        <ele>761.4</ele>
        <time>2025-08-07T14:13:18Z</time>
      </trkpt>
      <trkpt lat="45.87897" lon="2.86704">
        <ele>761.8</ele>
        <time>2025-08-07T14:13:19Z</time>
      </trkpt>
      <trkpt lat="45.87893" lon="2.86702">
        <ele>762</ele>
        <time>2025-08-07T14:13:20Z</time>
      </trkpt>
      <trkpt lat="45.8789" lon="2.86702">
        <ele>762.4</ele>
        <time>2025-08-07T14:13:21Z</time>
      </trkpt>
      <trkpt lat="45.87887" lon="2.86701">
        <ele>762.8</ele>
        <time>2025-08-07T14:13:22Z</time>
      </trkpt>
      <trkpt lat="45.87883" lon="2.867">
        <ele>763</ele>
        <time>2025-08-07T14:13:23Z</time>
      </trkpt>
      <trkpt lat="45.87879" lon="2.86698">
        <ele>763.4</ele>
        <time>2025-08-07T14:13:24Z</time>
      </trkpt>
      <trkpt lat="45.87875" lon="2.86696">
        <ele>763.8</ele>
        <time>2025-08-07T14:13:25Z</time>
      </trkpt>
      <trkpt lat="45.87871" lon="2.86694">
        <ele>764.4</ele>
        <time>2025-08-07T14:13:26Z</time>
      </trkpt>
      <trkpt lat="45.87867" lon="2.86693">
        <ele>764.8</ele>
        <time>2025-08-07T14:13:27Z</time>
      </trkpt>
      <trkpt lat="45.87863" lon="2.86691">
        <ele>765.2</ele>
        <time>2025-08-07T14:13:28Z</time>
      </trkpt>
      <trkpt lat="45.87861" lon="2.86691">
        <ele>765.8</ele>
        <time>2025-08-07T14:13:29Z</time>
      </trkpt>
      <trkpt lat="45.87858" lon="2.8669">
        <ele>766.4</ele>
        <time>2025-08-07T14:13:30Z</time>
      </trkpt>
      <trkpt lat="45.87854" lon="2.86689">
        <ele>766.8</ele>
        <time>2025-08-07T14:13:31Z</time>
      </trkpt>
      <trkpt lat="45.8785" lon="2.86688">
        <ele>767.4</ele>
        <time>2025-08-07T14:13:32Z</time>
      </trkpt>
      <trkpt lat="45.87848" lon="2.86687">
        <ele>767.8</ele>
        <time>2025-08-07T14:13:33Z</time>
      </trkpt>
      <trkpt lat="45.87845" lon="2.86686">
        <ele>768.2</ele>
        <time>2025-08-07T14:13:34Z</time>
      </trkpt>
      <trkpt lat="45.87843" lon="2.86685">
        <ele>768.6</ele>
        <time>2025-08-07T14:13:35Z</time>
      </trkpt>
      <trkpt lat="45.8784" lon="2.86684">
        <ele>769</ele>
        <time>2025-08-07T14:13:36Z</time>
      </trkpt>
      <trkpt lat="45.87837" lon="2.86682">
        <ele>769.6</ele>
        <time>2025-08-07T14:13:37Z</time>
      </trkpt>
      <trkpt lat="45.87834" lon="2.86681">
        <ele>770</ele>
        <time>2025-08-07T14:13:38Z</time>
      </trkpt>
      <trkpt lat="45.87831" lon="2.86679">
        <ele>770.4</ele>
        <time>2025-08-07T14:13:39Z</time>
      </trkpt>
      <trkpt lat="45.87827" lon="2.86677">
        <ele>770.8</ele>
        <time>2025-08-07T14:13:40Z</time>
      </trkpt>
      <trkpt lat="45.87824" lon="2.86675">
        <ele>771.2</ele>
        <time>2025-08-07T14:13:41Z</time>
      </trkpt>
      <trkpt lat="45.87821" lon="2.86673">
        <ele>771.6</ele>
        <time>2025-08-07T14:13:42Z</time>
      </trkpt>
      <trkpt lat="45.87819" lon="2.86672">
        <ele>772</ele>
        <time>2025-08-07T14:13:43Z</time>
      </trkpt>
      <trkpt lat="45.87816" lon="2.8667">
        <ele>772.4</ele>
        <time>2025-08-07T14:13:44Z</time>
      </trkpt>
      <trkpt lat="45.87813" lon="2.86667">
        <ele>772.6</ele>
        <time>2025-08-07T14:13:45Z</time>
      </trkpt>
      <trkpt lat="45.8781" lon="2.86664">
        <ele>773</ele>
        <time>2025-08-07T14:13:46Z</time>
      </trkpt>
      <trkpt lat="45.87808" lon="2.86662">
        <ele>773.4</ele>
        <time>2025-08-07T14:13:47Z</time>
      </trkpt>
      <trkpt lat="45.87804" lon="2.86659">
        <ele>773.6</ele>
        <time>2025-08-07T14:13:48Z</time>
      </trkpt>
      <trkpt lat="45.87801" lon="2.86656">
        <ele>774</ele>
        <time>2025-08-07T14:13:49Z</time>
      </trkpt>
      <trkpt lat="45.87798" lon="2.86652">
        <ele>774.2</ele>
        <time>2025-08-07T14:13:50Z</time>
      </trkpt>
      <trkpt lat="45.87795" lon="2.86649">
        <ele>774.6</ele>
        <time>2025-08-07T14:13:51Z</time>
      </trkpt>
      <trkpt lat="45.87792" lon="2.86645">
        <ele>774.8</ele>
        <time>2025-08-07T14:13:52Z</time>
      </trkpt>
      <trkpt lat="45.87789" lon="2.86641">
        <ele>775.2</ele>
        <time>2025-08-07T14:13:53Z</time>
      </trkpt>
      <trkpt lat="45.87786" lon="2.86637">
        <ele>775.6</ele>
        <time>2025-08-07T14:13:54Z</time>
      </trkpt>
      <trkpt lat="45.87784" lon="2.86632">
        <ele>775.8</ele>
        <time>2025-08-07T14:13:55Z</time>
      </trkpt>
      <trkpt lat="45.87782" lon="2.86628">
        <ele>776.2</ele>
        <time>2025-08-07T14:13:56Z</time>
      </trkpt>
      <trkpt lat="45.8778" lon="2.86626">
        <ele>776.6</ele>
        <time>2025-08-07T14:13:57Z</time>
      </trkpt>
      <trkpt lat="45.87777" lon="2.86623">
        <ele>777</ele>
        <time>2025-08-07T14:13:58Z</time>
      </trkpt>
      <trkpt lat="45.87775" lon="2.8662">
        <ele>777.4</ele>
        <time>2025-08-07T14:13:59Z</time>
      </trkpt>
      <trkpt lat="45.87773" lon="2.86616">
        <ele>777.8</ele>
        <time>2025-08-07T14:14:00Z</time>
      </trkpt>
      <trkpt lat="45.87771" lon="2.86613">
        <ele>778.2</ele>
        <time>2025-08-07T14:14:01Z</time>
      </trkpt>
      <trkpt lat="45.87768" lon="2.8661">
        <ele>778.6</ele>
        <time>2025-08-07T14:14:02Z</time>
      </trkpt>
      <trkpt lat="45.87766" lon="2.86607">
        <ele>779</ele>
        <time>2025-08-07T14:14:03Z</time>
      </trkpt>
      <trkpt lat="45.87764" lon="2.86604">
        <ele>779.2</ele>
        <time>2025-08-07T14:14:04Z</time>
      </trkpt>
      <trkpt lat="45.87762" lon="2.86601">
        <ele>779.6</ele>
        <time>2025-08-07T14:14:05Z</time>
      </trkpt>
      <trkpt lat="45.8776" lon="2.86598">
        <ele>780</ele>
        <time>2025-08-07T14:14:06Z</time>
      </trkpt>
      <trkpt lat="45.87758" lon="2.86595">
        <ele>780.4</ele>
        <time>2025-08-07T14:14:07Z</time>
      </trkpt>
      <trkpt lat="45.87756" lon="2.86592">
        <ele>780.6</ele>
        <time>2025-08-07T14:14:08Z</time>
      </trkpt>
      <trkpt lat="45.87755" lon="2.86589">
        <ele>781</ele>
        <time>2025-08-07T14:14:09Z</time>
      </trkpt>
      <trkpt lat="45.87753" lon="2.86586">
        <ele>781.4</ele>
        <time>2025-08-07T14:14:10Z</time>
      </trkpt>
      <trkpt lat="45.87751" lon="2.86584">
        <ele>781.8</ele>
        <time>2025-08-07T14:14:11Z</time>
      </trkpt>
      <trkpt lat="45.87749" lon="2.86581">
        <ele>782.2</ele>
        <time>2025-08-07T14:14:12Z</time>
      </trkpt>
      <trkpt lat="45.87747" lon="2.86578">
        <ele>782.4</ele>
        <time>2025-08-07T14:14:13Z</time>
      </trkpt>
      <trkpt lat="45.87745" lon="2.86575">
        <ele>782.8</ele>
        <time>2025-08-07T14:14:14Z</time>
      </trkpt>
      <trkpt lat="45.87744" lon="2.86572">
        <ele>783.2</ele>
        <time>2025-08-07T14:14:15Z</time>
      </trkpt>
      <trkpt lat="45.87742" lon="2.86568">
        <ele>783.6</ele>
        <time>2025-08-07T14:14:16Z</time>
      </trkpt>
      <trkpt lat="45.8774" lon="2.86565">
        <ele>783.8</ele>
        <time>2025-08-07T14:14:17Z</time>
      </trkpt>
      <trkpt lat="45.87738" lon="2.86562">
        <ele>784.2</ele>
        <time>2025-08-07T14:14:18Z</time>
      </trkpt>
      <trkpt lat="45.87736" lon="2.8656">
        <ele>784.6</ele>
        <time>2025-08-07T14:14:19Z</time>
      </trkpt>
      <trkpt lat="45.87734" lon="2.86557">
        <ele>784.8</ele>
        <time>2025-08-07T14:14:20Z</time>
      </trkpt>
      <trkpt lat="45.87731" lon="2.86555">
        <ele>785.2</ele>
        <time>2025-08-07T14:14:21Z</time>
      </trkpt>
      <trkpt lat="45.87729" lon="2.86552">
        <ele>785.6</ele>
        <time>2025-08-07T14:14:22Z</time>
      </trkpt>
      <trkpt lat="45.87726" lon="2.8655">
        <ele>785.8</ele>
        <time>2025-08-07T14:14:23Z</time>
      </trkpt>
      <trkpt lat="45.87723" lon="2.86547">
        <ele>786.2</ele>
        <time>2025-08-07T14:14:24Z</time>
      </trkpt>
      <trkpt lat="45.87721" lon="2.86544">
        <ele>786.4</ele>
        <time>2025-08-07T14:14:25Z</time>
      </trkpt>
      <trkpt lat="45.87718" lon="2.86542">
        <ele>786.8</ele>
        <time>2025-08-07T14:14:26Z</time>
      </trkpt>
      <trkpt lat="45.87715" lon="2.8654">
        <ele>787.2</ele>
        <time>2025-08-07T14:14:27Z</time>
      </trkpt>
      <trkpt lat="45.87713" lon="2.86538">
        <ele>787.4</ele>
        <time>2025-08-07T14:14:28Z</time>
      </trkpt>
      <trkpt lat="45.8771" lon="2.86536">
        <ele>787.8</ele>
        <time>2025-08-07T14:14:29Z</time>
      </trkpt>
      <trkpt lat="45.87708" lon="2.86533">
        <ele>788</ele>
        <time>2025-08-07T14:14:30Z</time>
      </trkpt>
      <trkpt lat="45.87706" lon="2.8653">
        <ele>788.4</ele>
        <time>2025-08-07T14:14:31Z</time>
      </trkpt>
      <trkpt lat="45.87703" lon="2.86527">
        <ele>788.6</ele>
        <time>2025-08-07T14:14:32Z</time>
      </trkpt>
      <trkpt lat="45.87701" lon="2.86525">
        <ele>789</ele>
        <time>2025-08-07T14:14:33Z</time>
      </trkpt>
      <trkpt lat="45.87699" lon="2.86523">
        <ele>789.2</ele>
        <time>2025-08-07T14:14:34Z</time>
      </trkpt>
      <trkpt lat="45.87697" lon="2.86521">
        <ele>789.4</ele>
        <time>2025-08-07T14:14:35Z</time>
      </trkpt>
      <trkpt lat="45.87694" lon="2.86518">
        <ele>789.6</ele>
        <time>2025-08-07T14:14:36Z</time>
      </trkpt>
      <trkpt lat="45.87692" lon="2.86516">
        <ele>790</ele>
        <time>2025-08-07T14:14:37Z</time>
      </trkpt>
      <trkpt lat="45.8769" lon="2.86513">
        <ele>790.2</ele>
        <time>2025-08-07T14:14:38Z</time>
      </trkpt>
      <trkpt lat="45.87688" lon="2.86511">
        <ele>790.6</ele>
        <time>2025-08-07T14:14:39Z</time>
      </trkpt>
      <trkpt lat="45.87686" lon="2.86509">
        <ele>790.8</ele>
        <time>2025-08-07T14:14:40Z</time>
      </trkpt>
      <trkpt lat="45.87683" lon="2.86507">
        <ele>791.2</ele>
        <time>2025-08-07T14:14:41Z</time>
      </trkpt>
      <trkpt lat="45.87681" lon="2.86504">
        <ele>791.6</ele>
        <time>2025-08-07T14:14:42Z</time>
      </trkpt>
      <trkpt lat="45.87678" lon="2.86502">
        <ele>791.8</ele>
        <time>2025-08-07T14:14:43Z</time>
      </trkpt>
      <trkpt lat="45.87676" lon="2.86499">
        <ele>792.2</ele>
        <time>2025-08-07T14:14:44Z</time>
      </trkpt>
      <trkpt lat="45.87674" lon="2.86497">
        <ele>792.6</ele>
        <time>2025-08-07T14:14:45Z</time>
      </trkpt>
      <trkpt lat="45.87672" lon="2.86495">
        <ele>793</ele>
        <time>2025-08-07T14:14:46Z</time>
      </trkpt>
      <trkpt lat="45.8767" lon="2.86493">
        <ele>793.2</ele>
        <time>2025-08-07T14:14:47Z</time>
      </trkpt>
      <trkpt lat="45.87668" lon="2.86491">
        <ele>793.6</ele>
        <time>2025-08-07T14:14:48Z</time>
      </trkpt>
      <trkpt lat="45.87666" lon="2.86489">
        <ele>794</ele>
        <time>2025-08-07T14:14:49Z</time>
      </trkpt>
      <trkpt lat="45.87664" lon="2.86487">
        <ele>794.4</ele>
        <time>2025-08-07T14:14:50Z</time>
      </trkpt>
      <trkpt lat="45.87662" lon="2.86484">
        <ele>794.8</ele>
        <time>2025-08-07T14:14:51Z</time>
      </trkpt>
      <trkpt lat="45.87659" lon="2.86482">
        <ele>795.2</ele>
        <time>2025-08-07T14:14:52Z</time>
      </trkpt>
      <trkpt lat="45.87656" lon="2.8648">
        <ele>795.6</ele>
        <time>2025-08-07T14:14:53Z</time>
      </trkpt>
      <trkpt lat="45.87653" lon="2.86479">
        <ele>796</ele>
        <time>2025-08-07T14:14:54Z</time>
      </trkpt>
      <trkpt lat="45.87649" lon="2.86477">
        <ele>796.6</ele>
        <time>2025-08-07T14:14:55Z</time>
      </trkpt>
      <trkpt lat="45.87646" lon="2.86474">
        <ele>797</ele>
        <time>2025-08-07T14:14:56Z</time>
      </trkpt>
      <trkpt lat="45.87642" lon="2.86471">
        <ele>797.4</ele>
        <time>2025-08-07T14:14:57Z</time>
      </trkpt>
      <trkpt lat="45.87639" lon="2.86468">
        <ele>797.8</ele>
        <time>2025-08-07T14:14:58Z</time>
      </trkpt>
      <trkpt lat="45.87636" lon="2.86465">
        <ele>798.2</ele>
        <time>2025-08-07T14:14:59Z</time>
      </trkpt>
      <trkpt lat="45.87633" lon="2.86461">
        <ele>798.6</ele>
        <time>2025-08-07T14:15:00Z</time>
      </trkpt>
      <trkpt lat="45.8763" lon="2.86458">
        <ele>799.2</ele>
        <time>2025-08-07T14:15:01Z</time>
      </trkpt>
      <trkpt lat="45.87627" lon="2.86454">
        <ele>799.6</ele>
        <time>2025-08-07T14:15:02Z</time>
      </trkpt>
      <trkpt lat="45.87624" lon="2.86451">
        <ele>800.2</ele>
        <time>2025-08-07T14:15:03Z</time>
      </trkpt>
      <trkpt lat="45.87621" lon="2.86448">
        <ele>800.6</ele>
        <time>2025-08-07T14:15:04Z</time>
      </trkpt>
      <trkpt lat="45.87618" lon="2.86446">
        <ele>800.8</ele>
        <time>2025-08-07T14:15:05Z</time>
      </trkpt>
      <trkpt lat="45.87614" lon="2.86444">
        <ele>801.2</ele>
        <time>2025-08-07T14:15:06Z</time>
      </trkpt>
      <trkpt lat="45.8761" lon="2.86442">
        <ele>801.4</ele>
        <time>2025-08-07T14:15:07Z</time>
      </trkpt>
      <trkpt lat="45.87607" lon="2.8644">
        <ele>801.8</ele>
        <time>2025-08-07T14:15:08Z</time>
      </trkpt>
      <trkpt lat="45.87603" lon="2.86438">
        <ele>802</ele>
        <time>2025-08-07T14:15:09Z</time>
      </trkpt>
      <trkpt lat="45.87599" lon="2.86437">
        <ele>802.2</ele>
        <time>2025-08-07T14:15:10Z</time>
      </trkpt>
      <trkpt lat="45.87596" lon="2.86436">
        <ele>802.4</ele>
        <time>2025-08-07T14:15:11Z</time>
      </trkpt>
      <trkpt lat="45.87593" lon="2.86434">
        <ele>802.8</ele>
        <time>2025-08-07T14:15:12Z</time>
      </trkpt>
      <trkpt lat="45.87589" lon="2.86432">
        <ele>803</ele>
        <time>2025-08-07T14:15:13Z</time>
      </trkpt>
      <trkpt lat="45.87586" lon="2.8643">
        <ele>803.4</ele>
        <time>2025-08-07T14:15:14Z</time>
      </trkpt>
      <trkpt lat="45.87583" lon="2.86428">
        <ele>803.6</ele>
        <time>2025-08-07T14:15:15Z</time>
      </trkpt>
      <trkpt lat="45.8758" lon="2.86427">
        <ele>803.8</ele>
        <time>2025-08-07T14:15:16Z</time>
      </trkpt>
      <trkpt lat="45.87575" lon="2.86425">
        <ele>804.2</ele>
        <time>2025-08-07T14:15:17Z</time>
      </trkpt>
      <trkpt lat="45.87572" lon="2.86422">
        <ele>804.4</ele>
        <time>2025-08-07T14:15:18Z</time>
      </trkpt>
      <trkpt lat="45.87569" lon="2.86419">
        <ele>804.6</ele>
        <time>2025-08-07T14:15:19Z</time>
      </trkpt>
      <trkpt lat="45.87565" lon="2.86415">
        <ele>804.8</ele>
        <time>2025-08-07T14:15:20Z</time>
      </trkpt>
      <trkpt lat="45.87562" lon="2.86411">
        <ele>804.8</ele>
        <time>2025-08-07T14:15:21Z</time>
      </trkpt>
      <trkpt lat="45.87558" lon="2.86407">
        <ele>805</ele>
        <time>2025-08-07T14:15:22Z</time>
      </trkpt>
      <trkpt lat="45.87554" lon="2.86402">
        <ele>805.2</ele>
        <time>2025-08-07T14:15:23Z</time>
      </trkpt>
      <trkpt lat="45.87551" lon="2.86398">
        <ele>805.4</ele>
        <time>2025-08-07T14:15:24Z</time>
      </trkpt>
      <trkpt lat="45.87547" lon="2.86395">
        <ele>805.4</ele>
        <time>2025-08-07T14:15:25Z</time>
      </trkpt>
      <trkpt lat="45.87544" lon="2.86391">
        <ele>805.6</ele>
        <time>2025-08-07T14:15:26Z</time>
      </trkpt>
      <trkpt lat="45.87541" lon="2.86388">
        <ele>805.6</ele>
        <time>2025-08-07T14:15:27Z</time>
      </trkpt>
      <trkpt lat="45.87537" lon="2.86386">
        <ele>805.8</ele>
        <time>2025-08-07T14:15:28Z</time>
      </trkpt>
      <trkpt lat="45.87533" lon="2.86383">
        <ele>805.8</ele>
        <time>2025-08-07T14:15:29Z</time>
      </trkpt>
      <trkpt lat="45.8753" lon="2.86381">
        <ele>806</ele>
        <time>2025-08-07T14:15:30Z</time>
      </trkpt>
      <trkpt lat="45.87527" lon="2.86379">
        <ele>806.2</ele>
        <time>2025-08-07T14:15:31Z</time>
      </trkpt>
      <trkpt lat="45.87523" lon="2.86377">
        <ele>806.2</ele>
        <time>2025-08-07T14:15:32Z</time>
      </trkpt>
      <trkpt lat="45.8752" lon="2.86374">
        <ele>806.4</ele>
        <time>2025-08-07T14:15:33Z</time>
      </trkpt>
      <trkpt lat="45.87517" lon="2.86372">
        <ele>806.6</ele>
        <time>2025-08-07T14:15:34Z</time>
      </trkpt>
      <trkpt lat="45.87514" lon="2.8637">
        <ele>806.6</ele>
        <time>2025-08-07T14:15:35Z</time>
      </trkpt>
      <trkpt lat="45.87512" lon="2.86368">
        <ele>806.8</ele>
        <time>2025-08-07T14:15:36Z</time>
      </trkpt>
      <trkpt lat="45.87509" lon="2.86365">
        <ele>806.8</ele>
        <time>2025-08-07T14:15:37Z</time>
      </trkpt>
      <trkpt lat="45.87506" lon="2.86362">
        <ele>807</ele>
        <time>2025-08-07T14:15:38Z</time>
      </trkpt>
      <trkpt lat="45.87503" lon="2.86359">
        <ele>807.2</ele>
        <time>2025-08-07T14:15:39Z</time>
      </trkpt>
      <trkpt lat="45.875" lon="2.86356">
        <ele>807.4</ele>
        <time>2025-08-07T14:15:40Z</time>
      </trkpt>
      <trkpt lat="45.87497" lon="2.86353">
        <ele>807.6</ele>
        <time>2025-08-07T14:15:41Z</time>
      </trkpt>
      <trkpt lat="45.87494" lon="2.86351">
        <ele>807.8</ele>
        <time>2025-08-07T14:15:42Z</time>
      </trkpt>
      <trkpt lat="45.87491" lon="2.86349">
        <ele>807.8</ele>
        <time>2025-08-07T14:15:43Z</time>
      </trkpt>
      <trkpt lat="45.87488" lon="2.86347">
        <ele>808</ele>
        <time>2025-08-07T14:15:44Z</time>
      </trkpt>
      <trkpt lat="45.87485" lon="2.86344">
        <ele>808</ele>
        <time>2025-08-07T14:15:45Z</time>
      </trkpt>
      <trkpt lat="45.87483" lon="2.86341">
        <ele>808.2</ele>
        <time>2025-08-07T14:15:46Z</time>
      </trkpt>
      <trkpt lat="45.8748" lon="2.86338">
        <ele>808.4</ele>
        <time>2025-08-07T14:15:47Z</time>
      </trkpt>
      <trkpt lat="45.87477" lon="2.86335">
        <ele>808.4</ele>
        <time>2025-08-07T14:15:48Z</time>
      </trkpt>
      <trkpt lat="45.87475" lon="2.86331">
        <ele>808.6</ele>
        <time>2025-08-07T14:15:49Z</time>
      </trkpt>
      <trkpt lat="45.87472" lon="2.86328">
        <ele>808.8</ele>
        <time>2025-08-07T14:15:50Z</time>
      </trkpt>
      <trkpt lat="45.87471" lon="2.86325">
        <ele>808.8</ele>
        <time>2025-08-07T14:15:51Z</time>
      </trkpt>
      <trkpt lat="45.87468" lon="2.86322">
        <ele>809</ele>
        <time>2025-08-07T14:15:52Z</time>
      </trkpt>
      <trkpt lat="45.87467" lon="2.86319">
        <ele>809.2</ele>
        <time>2025-08-07T14:15:53Z</time>
      </trkpt>
      <trkpt lat="45.87465" lon="2.86316">
        <ele>809.4</ele>
        <time>2025-08-07T14:15:54Z</time>
      </trkpt>
      <trkpt lat="45.87463" lon="2.86314">
        <ele>809.6</ele>
        <time>2025-08-07T14:15:55Z</time>
      </trkpt>
      <trkpt lat="45.8746" lon="2.86311">
        <ele>809.8</ele>
        <time>2025-08-07T14:15:56Z</time>
      </trkpt>
      <trkpt lat="45.87458" lon="2.86308">
        <ele>810</ele>
        <time>2025-08-07T14:15:57Z</time>
      </trkpt>
      <trkpt lat="45.87457" lon="2.86304">
        <ele>810.2</ele>
        <time>2025-08-07T14:15:58Z</time>
      </trkpt>
      <trkpt lat="45.87454" lon="2.863">
        <ele>810.4</ele>
        <time>2025-08-07T14:15:59Z</time>
      </trkpt>
      <trkpt lat="45.87452" lon="2.86296">
        <ele>810.6</ele>
        <time>2025-08-07T14:16:00Z</time>
      </trkpt>
      <trkpt lat="45.8745" lon="2.86293">
        <ele>811</ele>
        <time>2025-08-07T14:16:01Z</time>
      </trkpt>
      <trkpt lat="45.87447" lon="2.86292">
        <ele>811.2</ele>
        <time>2025-08-07T14:16:02Z</time>
      </trkpt>
      <trkpt lat="45.87444" lon="2.86291">
        <ele>811.4</ele>
        <time>2025-08-07T14:16:03Z</time>
      </trkpt>
      <trkpt lat="45.87442" lon="2.86289">
        <ele>811.6</ele>
        <time>2025-08-07T14:16:04Z</time>
      </trkpt>
      <trkpt lat="45.87439" lon="2.86287">
        <ele>811.8</ele>
        <time>2025-08-07T14:16:05Z</time>
      </trkpt>
      <trkpt lat="45.87436" lon="2.86286">
        <ele>812</ele>
        <time>2025-08-07T14:16:06Z</time>
      </trkpt>
      <trkpt lat="45.87433" lon="2.86285">
        <ele>812.4</ele>
        <time>2025-08-07T14:16:07Z</time>
      </trkpt>
      <trkpt lat="45.8743" lon="2.86283">
        <ele>812.6</ele>
        <time>2025-08-07T14:16:08Z</time>
      </trkpt>
      <trkpt lat="45.87427" lon="2.86282">
        <ele>812.8</ele>
        <time>2025-08-07T14:16:09Z</time>
      </trkpt>
      <trkpt lat="45.87424" lon="2.86281">
        <ele>813</ele>
        <time>2025-08-07T14:16:10Z</time>
      </trkpt>
      <trkpt lat="45.87421" lon="2.8628">
        <ele>813.2</ele>
        <time>2025-08-07T14:16:11Z</time>
      </trkpt>
      <trkpt lat="45.87417" lon="2.8628">
        <ele>813.4</ele>
        <time>2025-08-07T14:16:12Z</time>
      </trkpt>
      <trkpt lat="45.87414" lon="2.86281">
        <ele>813.8</ele>
        <time>2025-08-07T14:16:13Z</time>
      </trkpt>
      <trkpt lat="45.87411" lon="2.86282">
        <ele>814</ele>
        <time>2025-08-07T14:16:14Z</time>
      </trkpt>
      <trkpt lat="45.87408" lon="2.86282">
        <ele>814.2</ele>
        <time>2025-08-07T14:16:15Z</time>
      </trkpt>
      <trkpt lat="45.87404" lon="2.86282">
        <ele>814.4</ele>
        <time>2025-08-07T14:16:16Z</time>
      </trkpt>
      <trkpt lat="45.87401" lon="2.86283">
        <ele>814.6</ele>
        <time>2025-08-07T14:16:17Z</time>
      </trkpt>
      <trkpt lat="45.87398" lon="2.86283">
        <ele>814.6</ele>
        <time>2025-08-07T14:16:18Z</time>
      </trkpt>
      <trkpt lat="45.87395" lon="2.86284">
        <ele>814.8</ele>
        <time>2025-08-07T14:16:19Z</time>
      </trkpt>
      <trkpt lat="45.87391" lon="2.86285">
        <ele>814.8</ele>
        <time>2025-08-07T14:16:20Z</time>
      </trkpt>
      <trkpt lat="45.87386" lon="2.86286">
        <ele>815</ele>
        <time>2025-08-07T14:16:21Z</time>
      </trkpt>
      <trkpt lat="45.87382" lon="2.86288">
        <ele>815</ele>
        <time>2025-08-07T14:16:22Z</time>
      </trkpt>
      <trkpt lat="45.87378" lon="2.86289">
        <ele>815</ele>
        <time>2025-08-07T14:16:23Z</time>
      </trkpt>
      <trkpt lat="45.87374" lon="2.8629">
        <ele>815.2</ele>
        <time>2025-08-07T14:16:24Z</time>
      </trkpt>
      <trkpt lat="45.8737" lon="2.86291">
        <ele>815.4</ele>
        <time>2025-08-07T14:16:25Z</time>
      </trkpt>
      <trkpt lat="45.87366" lon="2.86292">
        <ele>815.4</ele>
        <time>2025-08-07T14:16:26Z</time>
      </trkpt>
      <trkpt lat="45.87362" lon="2.86292">
        <ele>815.6</ele>
        <time>2025-08-07T14:16:27Z</time>
      </trkpt>
      <trkpt lat="45.87359" lon="2.86293">
        <ele>815.6</ele>
        <time>2025-08-07T14:16:28Z</time>
      </trkpt>
      <trkpt lat="45.87355" lon="2.86293">
        <ele>815.8</ele>
        <time>2025-08-07T14:16:29Z</time>
      </trkpt>
      <trkpt lat="45.87351" lon="2.86294">
        <ele>816</ele>
        <time>2025-08-07T14:16:30Z</time>
      </trkpt>
      <trkpt lat="45.87348" lon="2.86295">
        <ele>816</ele>
        <time>2025-08-07T14:16:31Z</time>
      </trkpt>
      <trkpt lat="45.87344" lon="2.86296">
        <ele>816.2</ele>
        <time>2025-08-07T14:16:32Z</time>
      </trkpt>
      <trkpt lat="45.87341" lon="2.86296">
        <ele>816.4</ele>
        <time>2025-08-07T14:16:33Z</time>
      </trkpt>
      <trkpt lat="45.87337" lon="2.86296">
        <ele>816.6</ele>
        <time>2025-08-07T14:16:34Z</time>
      </trkpt>
      <trkpt lat="45.87334" lon="2.86297">
        <ele>816.8</ele>
        <time>2025-08-07T14:16:35Z</time>
      </trkpt>
      <trkpt lat="45.8733" lon="2.86297">
        <ele>816.8</ele>
        <time>2025-08-07T14:16:36Z</time>
      </trkpt>
      <trkpt lat="45.87326" lon="2.86298">
        <ele>817</ele>
        <time>2025-08-07T14:16:37Z</time>
      </trkpt>
      <trkpt lat="45.87323" lon="2.86299">
        <ele>817.2</ele>
        <time>2025-08-07T14:16:38Z</time>
      </trkpt>
      <trkpt lat="45.8732" lon="2.86299">
        <ele>817.4</ele>
        <time>2025-08-07T14:16:39Z</time>
      </trkpt>
      <trkpt lat="45.87317" lon="2.863">
        <ele>817.6</ele>
        <time>2025-08-07T14:16:40Z</time>
      </trkpt>
      <trkpt lat="45.87313" lon="2.863">
        <ele>817.8</ele>
        <time>2025-08-07T14:16:41Z</time>
      </trkpt>
      <trkpt lat="45.87309" lon="2.86301">
        <ele>817.8</ele>
        <time>2025-08-07T14:16:42Z</time>
      </trkpt>
      <trkpt lat="45.87306" lon="2.86302">
        <ele>818</ele>
        <time>2025-08-07T14:16:43Z</time>
      </trkpt>
      <trkpt lat="45.87303" lon="2.86302">
        <ele>818.2</ele>
        <time>2025-08-07T14:16:44Z</time>
      </trkpt>
      <trkpt lat="45.87299" lon="2.86303">
        <ele>818.4</ele>
        <time>2025-08-07T14:16:45Z</time>
      </trkpt>
      <trkpt lat="45.87295" lon="2.86304">
        <ele>818.8</ele>
        <time>2025-08-07T14:16:46Z</time>
      </trkpt>
      <trkpt lat="45.87292" lon="2.86305">
        <ele>819</ele>
        <time>2025-08-07T14:16:47Z</time>
      </trkpt>
      <trkpt lat="45.87288" lon="2.86305">
        <ele>819.2</ele>
        <time>2025-08-07T14:16:48Z</time>
      </trkpt>
      <trkpt lat="45.87285" lon="2.86306">
        <ele>819.4</ele>
        <time>2025-08-07T14:16:49Z</time>
      </trkpt>
      <trkpt lat="45.87282" lon="2.86306">
        <ele>819.4</ele>
        <time>2025-08-07T14:16:50Z</time>
      </trkpt>
      <trkpt lat="45.8728" lon="2.86306">
        <ele>819.6</ele>
        <time>2025-08-07T14:16:51Z</time>
      </trkpt>
      <trkpt lat="45.87277" lon="2.86307">
        <ele>819.8</ele>
        <time>2025-08-07T14:16:52Z</time>
      </trkpt>
      <trkpt lat="45.87273" lon="2.86307">
        <ele>819.8</ele>
        <time>2025-08-07T14:16:53Z</time>
      </trkpt>
      <trkpt lat="45.8727" lon="2.86307">
        <ele>820</ele>
        <time>2025-08-07T14:16:54Z</time>
      </trkpt>
      <trkpt lat="45.87266" lon="2.86307">
        <ele>820</ele>
        <time>2025-08-07T14:16:55Z</time>
      </trkpt>
      <trkpt lat="45.87263" lon="2.86307">
        <ele>820</ele>
        <time>2025-08-07T14:16:56Z</time>
      </trkpt>
      <trkpt lat="45.87259" lon="2.86307">
        <ele>820</ele>
        <time>2025-08-07T14:16:57Z</time>
      </trkpt>
      <trkpt lat="45.87255" lon="2.86308">
        <ele>819.8</ele>
        <time>2025-08-07T14:16:58Z</time>
      </trkpt>
      <trkpt lat="45.87251" lon="2.8631">
        <ele>819.8</ele>
        <time>2025-08-07T14:16:59Z</time>
      </trkpt>
      <trkpt lat="45.87248" lon="2.86313">
        <ele>819.6</ele>
        <time>2025-08-07T14:17:00Z</time>
      </trkpt>
      <trkpt lat="45.87245" lon="2.86317">
        <ele>819.6</ele>
        <time>2025-08-07T14:17:01Z</time>
      </trkpt>
      <trkpt lat="45.87243" lon="2.86322">
        <ele>819.4</ele>
        <time>2025-08-07T14:17:02Z</time>
      </trkpt>
      <trkpt lat="45.8724" lon="2.86328">
        <ele>819.4</ele>
        <time>2025-08-07T14:17:03Z</time>
      </trkpt>
      <trkpt lat="45.87238" lon="2.86332">
        <ele>819.4</ele>
        <time>2025-08-07T14:17:04Z</time>
      </trkpt>
      <trkpt lat="45.87234" lon="2.86338">
        <ele>819.2</ele>
        <time>2025-08-07T14:17:05Z</time>
      </trkpt>
      <trkpt lat="45.87229" lon="2.86343">
        <ele>819.2</ele>
        <time>2025-08-07T14:17:06Z</time>
      </trkpt>
      <trkpt lat="45.87225" lon="2.86347">
        <ele>819.2</ele>
        <time>2025-08-07T14:17:07Z</time>
      </trkpt>
      <trkpt lat="45.8722" lon="2.8635">
        <ele>819</ele>
        <time>2025-08-07T14:17:08Z</time>
      </trkpt>
      <trkpt lat="45.87215" lon="2.86355">
        <ele>819</ele>
        <time>2025-08-07T14:17:09Z</time>
      </trkpt>
      <trkpt lat="45.87211" lon="2.86359">
        <ele>819</ele>
        <time>2025-08-07T14:17:10Z</time>
      </trkpt>
      <trkpt lat="45.87207" lon="2.86364">
        <ele>819</ele>
        <time>2025-08-07T14:17:11Z</time>
      </trkpt>
      <trkpt lat="45.87203" lon="2.86368">
        <ele>819</ele>
        <time>2025-08-07T14:17:12Z</time>
      </trkpt>
      <trkpt lat="45.87199" lon="2.86373">
        <ele>819</ele>
        <time>2025-08-07T14:17:13Z</time>
      </trkpt>
      <trkpt lat="45.87193" lon="2.86378">
        <ele>819</ele>
        <time>2025-08-07T14:17:14Z</time>
      </trkpt>
      <trkpt lat="45.87188" lon="2.86382">
        <ele>819</ele>
        <time>2025-08-07T14:17:15Z</time>
      </trkpt>
      <trkpt lat="45.87183" lon="2.86385">
        <ele>818.8</ele>
        <time>2025-08-07T14:17:16Z</time>
      </trkpt>
      <trkpt lat="45.87179" lon="2.86388">
        <ele>818.6</ele>
        <time>2025-08-07T14:17:17Z</time>
      </trkpt>
      <trkpt lat="45.87174" lon="2.86392">
        <ele>818.4</ele>
        <time>2025-08-07T14:17:18Z</time>
      </trkpt>
      <trkpt lat="45.8717" lon="2.86395">
        <ele>818</ele>
        <time>2025-08-07T14:17:19Z</time>
      </trkpt>
      <trkpt lat="45.87165" lon="2.86398">
        <ele>817.6</ele>
        <time>2025-08-07T14:17:20Z</time>
      </trkpt>
      <trkpt lat="45.87161" lon="2.86399">
        <ele>817.2</ele>
        <time>2025-08-07T14:17:21Z</time>
      </trkpt>
      <trkpt lat="45.87156" lon="2.864">
        <ele>816.8</ele>
        <time>2025-08-07T14:17:22Z</time>
      </trkpt>
      <trkpt lat="45.87152" lon="2.864">
        <ele>816.4</ele>
        <time>2025-08-07T14:17:23Z</time>
      </trkpt>
      <trkpt lat="45.87149" lon="2.864">
        <ele>815.8</ele>
        <time>2025-08-07T14:17:24Z</time>
      </trkpt>
      <trkpt lat="45.87145" lon="2.86398">
        <ele>815.4</ele>
        <time>2025-08-07T14:17:25Z</time>
      </trkpt>
      <trkpt lat="45.87143" lon="2.86397">
        <ele>814.8</ele>
        <time>2025-08-07T14:17:26Z</time>
      </trkpt>
      <trkpt lat="45.87141" lon="2.86395">
        <ele>814.2</ele>
        <time>2025-08-07T14:17:27Z</time>
      </trkpt>
      <trkpt lat="45.87138" lon="2.86394">
        <ele>813.8</ele>
        <time>2025-08-07T14:17:28Z</time>
      </trkpt>
      <trkpt lat="45.87136" lon="2.86393">
        <ele>813.4</ele>
        <time>2025-08-07T14:17:29Z</time>
      </trkpt>
      <trkpt lat="45.87134" lon="2.86392">
        <ele>812.8</ele>
        <time>2025-08-07T14:17:30Z</time>
      </trkpt>
      <trkpt lat="45.87132" lon="2.86392">
        <ele>812.4</ele>
        <time>2025-08-07T14:17:31Z</time>
      </trkpt>
      <trkpt lat="45.87129" lon="2.86392">
        <ele>811.8</ele>
        <time>2025-08-07T14:17:32Z</time>
      </trkpt>
      <trkpt lat="45.87127" lon="2.86393">
        <ele>811.4</ele>
        <time>2025-08-07T14:17:33Z</time>
      </trkpt>
      <trkpt lat="45.87124" lon="2.86395">
        <ele>811</ele>
        <time>2025-08-07T14:17:34Z</time>
      </trkpt>
      <trkpt lat="45.87121" lon="2.86398">
        <ele>810.6</ele>
        <time>2025-08-07T14:17:35Z</time>
      </trkpt>
      <trkpt lat="45.87118" lon="2.86402">
        <ele>810.2</ele>
        <time>2025-08-07T14:17:36Z</time>
      </trkpt>
      <trkpt lat="45.87114" lon="2.86407">
        <ele>809.6</ele>
        <time>2025-08-07T14:17:37Z</time>
      </trkpt>
      <trkpt lat="45.87109" lon="2.86412">
        <ele>809</ele>
        <time>2025-08-07T14:17:38Z</time>
      </trkpt>
      <trkpt lat="45.87104" lon="2.86417">
        <ele>808.4</ele>
        <time>2025-08-07T14:17:39Z</time>
      </trkpt>
      <trkpt lat="45.87099" lon="2.86423">
        <ele>807.8</ele>
        <time>2025-08-07T14:17:40Z</time>
      </trkpt>
      <trkpt lat="45.87093" lon="2.8643">
        <ele>807</ele>
        <time>2025-08-07T14:17:41Z</time>
      </trkpt>
      <trkpt lat="45.87087" lon="2.86436">
        <ele>806.4</ele>
        <time>2025-08-07T14:17:42Z</time>
      </trkpt>
      <trkpt lat="45.87081" lon="2.86442">
        <ele>805.8</ele>
        <time>2025-08-07T14:17:43Z</time>
      </trkpt>
      <trkpt lat="45.87076" lon="2.86446">
        <ele>805</ele>
        <time>2025-08-07T14:17:44Z</time>
      </trkpt>
      <trkpt lat="45.87069" lon="2.86452">
        <ele>804.4</ele>
        <time>2025-08-07T14:17:45Z</time>
      </trkpt>
      <trkpt lat="45.87062" lon="2.86457">
        <ele>803.6</ele>
        <time>2025-08-07T14:17:46Z</time>
      </trkpt>
      <trkpt lat="45.87056" lon="2.86461">
        <ele>803</ele>
        <time>2025-08-07T14:17:47Z</time>
      </trkpt>
      <trkpt lat="45.87049" lon="2.86465">
        <ele>802.4</ele>
        <time>2025-08-07T14:17:48Z</time>
      </trkpt>
      <trkpt lat="45.87042" lon="2.86468">
        <ele>801.6</ele>
        <time>2025-08-07T14:17:49Z</time>
      </trkpt>
      <trkpt lat="45.87036" lon="2.8647">
        <ele>800.8</ele>
        <time>2025-08-07T14:17:50Z</time>
      </trkpt>
      <trkpt lat="45.87031" lon="2.86472">
        <ele>800.2</ele>
        <time>2025-08-07T14:17:51Z</time>
      </trkpt>
      <trkpt lat="45.87026" lon="2.86473">
        <ele>799.4</ele>
        <time>2025-08-07T14:17:52Z</time>
      </trkpt>
      <trkpt lat="45.87021" lon="2.86474">
        <ele>798.6</ele>
        <time>2025-08-07T14:17:53Z</time>
      </trkpt>
      <trkpt lat="45.87017" lon="2.86475">
        <ele>797.8</ele>
        <time>2025-08-07T14:17:54Z</time>
      </trkpt>
      <trkpt lat="45.87013" lon="2.86476">
        <ele>797</ele>
        <time>2025-08-07T14:17:55Z</time>
      </trkpt>
      <trkpt lat="45.87009" lon="2.86477">
        <ele>796.4</ele>
        <time>2025-08-07T14:17:56Z</time>
      </trkpt>
      <trkpt lat="45.87005" lon="2.86478">
        <ele>795.6</ele>
        <time>2025-08-07T14:17:57Z</time>
      </trkpt>
      <trkpt lat="45.87001" lon="2.86479">
        <ele>794.8</ele>
        <time>2025-08-07T14:17:58Z</time>
      </trkpt>
      <trkpt lat="45.86997" lon="2.86479">
        <ele>794</ele>
        <time>2025-08-07T14:17:59Z</time>
      </trkpt>
      <trkpt lat="45.86991" lon="2.86479">
        <ele>793.2</ele>
        <time>2025-08-07T14:18:00Z</time>
      </trkpt>
      <trkpt lat="45.86984" lon="2.86479">
        <ele>792.4</ele>
        <time>2025-08-07T14:18:01Z</time>
      </trkpt>
      <trkpt lat="45.86977" lon="2.86477">
        <ele>791.8</ele>
        <time>2025-08-07T14:18:02Z</time>
      </trkpt>
      <trkpt lat="45.86971" lon="2.86476">
        <ele>791</ele>
        <time>2025-08-07T14:18:03Z</time>
      </trkpt>
      <trkpt lat="45.86964" lon="2.86475">
        <ele>790.2</ele>
        <time>2025-08-07T14:18:04Z</time>
      </trkpt>
      <trkpt lat="45.86957" lon="2.86473">
        <ele>789.6</ele>
        <time>2025-08-07T14:18:05Z</time>
      </trkpt>
      <trkpt lat="45.86951" lon="2.86472">
        <ele>789</ele>
        <time>2025-08-07T14:18:06Z</time>
      </trkpt>
      <trkpt lat="45.86946" lon="2.8647">
        <ele>788.4</ele>
        <time>2025-08-07T14:18:07Z</time>
      </trkpt>
      <trkpt lat="45.86941" lon="2.86468">
        <ele>787.8</ele>
        <time>2025-08-07T14:18:08Z</time>
      </trkpt>
      <trkpt lat="45.86936" lon="2.86468">
        <ele>787.2</ele>
        <time>2025-08-07T14:18:09Z</time>
      </trkpt>
      <trkpt lat="45.86931" lon="2.86467">
        <ele>786.6</ele>
        <time>2025-08-07T14:18:10Z</time>
      </trkpt>
      <trkpt lat="45.86925" lon="2.86467">
        <ele>785.8</ele>
        <time>2025-08-07T14:18:11Z</time>
      </trkpt>
      <trkpt lat="45.86919" lon="2.86468">
        <ele>785.4</ele>
        <time>2025-08-07T14:18:12Z</time>
      </trkpt>
      <trkpt lat="45.86913" lon="2.8647">
        <ele>784.8</ele>
        <time>2025-08-07T14:18:13Z</time>
      </trkpt>
      <trkpt lat="45.86909" lon="2.86473">
        <ele>784.6</ele>
        <time>2025-08-07T14:18:14Z</time>
      </trkpt>
      <trkpt lat="45.86904" lon="2.86477">
        <ele>784.2</ele>
        <time>2025-08-07T14:18:15Z</time>
      </trkpt>
      <trkpt lat="45.86901" lon="2.86482">
        <ele>784.2</ele>
        <time>2025-08-07T14:18:16Z</time>
      </trkpt>
      <trkpt lat="45.86898" lon="2.86488">
        <ele>784</ele>
        <time>2025-08-07T14:18:17Z</time>
      </trkpt>
      <trkpt lat="45.86896" lon="2.86495">
        <ele>784</ele>
        <time>2025-08-07T14:18:18Z</time>
      </trkpt>
      <trkpt lat="45.86894" lon="2.86502">
        <ele>784</ele>
        <time>2025-08-07T14:18:19Z</time>
      </trkpt>
      <trkpt lat="45.86892" lon="2.86509">
        <ele>784</ele>
        <time>2025-08-07T14:18:20Z</time>
      </trkpt>
      <trkpt lat="45.86891" lon="2.86516">
        <ele>784.2</ele>
        <time>2025-08-07T14:18:21Z</time>
      </trkpt>
      <trkpt lat="45.86889" lon="2.86522">
        <ele>784.4</ele>
        <time>2025-08-07T14:18:22Z</time>
      </trkpt>
      <trkpt lat="45.86888" lon="2.8653">
        <ele>784.6</ele>
        <time>2025-08-07T14:18:23Z</time>
      </trkpt>
      <trkpt lat="45.86887" lon="2.86537">
        <ele>784.8</ele>
        <time>2025-08-07T14:18:24Z</time>
      </trkpt>
      <trkpt lat="45.86886" lon="2.86544">
        <ele>785</ele>
        <time>2025-08-07T14:18:25Z</time>
      </trkpt>
      <trkpt lat="45.86884" lon="2.8655">
        <ele>785.2</ele>
        <time>2025-08-07T14:18:26Z</time>
      </trkpt>
      <trkpt lat="45.86883" lon="2.86556">
        <ele>785.4</ele>
        <time>2025-08-07T14:18:27Z</time>
      </trkpt>
      <trkpt lat="45.86882" lon="2.86563">
        <ele>785.8</ele>
        <time>2025-08-07T14:18:28Z</time>
      </trkpt>
      <trkpt lat="45.86882" lon="2.86569">
        <ele>786</ele>
        <time>2025-08-07T14:18:29Z</time>
      </trkpt>
      <trkpt lat="45.86881" lon="2.86576">
        <ele>786.2</ele>
        <time>2025-08-07T14:18:30Z</time>
      </trkpt>
      <trkpt lat="45.8688" lon="2.86582">
        <ele>786.4</ele>
        <time>2025-08-07T14:18:31Z</time>
      </trkpt>
      <trkpt lat="45.8688" lon="2.86589">
        <ele>786.6</ele>
        <time>2025-08-07T14:18:32Z</time>
      </trkpt>
      <trkpt lat="45.86879" lon="2.86595">
        <ele>786.8</ele>
        <time>2025-08-07T14:18:33Z</time>
      </trkpt>
      <trkpt lat="45.86879" lon="2.86601">
        <ele>786.8</ele>
        <time>2025-08-07T14:18:34Z</time>
      </trkpt>
      <trkpt lat="45.86879" lon="2.86606">
        <ele>786.8</ele>
        <time>2025-08-07T14:18:35Z</time>
      </trkpt>
      <trkpt lat="45.86879" lon="2.86613">
        <ele>786.8</ele>
        <time>2025-08-07T14:18:36Z</time>
      </trkpt>
      <trkpt lat="45.86879" lon="2.86621">
        <ele>786.8</ele>
        <time>2025-08-07T14:18:37Z</time>
      </trkpt>
      <trkpt lat="45.8688" lon="2.86628">
        <ele>786.8</ele>
        <time>2025-08-07T14:18:38Z</time>
      </trkpt>
      <trkpt lat="45.8688" lon="2.86635">
        <ele>786.8</ele>
        <time>2025-08-07T14:18:39Z</time>
      </trkpt>
      <trkpt lat="45.8688" lon="2.86643">
        <ele>786.8</ele>
        <time>2025-08-07T14:18:40Z</time>
      </trkpt>
      <trkpt lat="45.86882" lon="2.86651">
        <ele>786.6</ele>
        <time>2025-08-07T14:18:41Z</time>
      </trkpt>
      <trkpt lat="45.86883" lon="2.86658">
        <ele>786.6</ele>
        <time>2025-08-07T14:18:42Z</time>
      </trkpt>
      <trkpt lat="45.86886" lon="2.86665">
        <ele>786.4</ele>
        <time>2025-08-07T14:18:43Z</time>
      </trkpt>
      <trkpt lat="45.86889" lon="2.86672">
        <ele>786.4</ele>
        <time>2025-08-07T14:18:44Z</time>
      </trkpt>
      <trkpt lat="45.86892" lon="2.86679">
        <ele>786.4</ele>
        <time>2025-08-07T14:18:45Z</time>
      </trkpt>
      <trkpt lat="45.86894" lon="2.86687">
        <ele>786.2</ele>
        <time>2025-08-07T14:18:46Z</time>
      </trkpt>
      <trkpt lat="45.86896" lon="2.86696">
        <ele>786.2</ele>
        <time>2025-08-07T14:18:47Z</time>
      </trkpt>
      <trkpt lat="45.86899" lon="2.86706">
        <ele>786</ele>
        <time>2025-08-07T14:18:48Z</time>
      </trkpt>
      <trkpt lat="45.869" lon="2.86715">
        <ele>786</ele>
        <time>2025-08-07T14:18:49Z</time>
      </trkpt>
      <trkpt lat="45.86902" lon="2.86724">
        <ele>785.8</ele>
        <time>2025-08-07T14:18:50Z</time>
      </trkpt>
      <trkpt lat="45.86903" lon="2.86733">
        <ele>785.8</ele>
        <time>2025-08-07T14:18:51Z</time>
      </trkpt>
      <trkpt lat="45.86904" lon="2.86742">
        <ele>785.6</ele>
        <time>2025-08-07T14:18:52Z</time>
      </trkpt>
      <trkpt lat="45.86904" lon="2.86751">
        <ele>785.6</ele>
        <time>2025-08-07T14:18:53Z</time>
      </trkpt>
      <trkpt lat="45.86903" lon="2.8676">
        <ele>785.6</ele>
        <time>2025-08-07T14:18:54Z</time>
      </trkpt>
      <trkpt lat="45.86902" lon="2.86769">
        <ele>785.6</ele>
        <time>2025-08-07T14:18:55Z</time>
      </trkpt>
      <trkpt lat="45.869" lon="2.86776">
        <ele>785.8</ele>
        <time>2025-08-07T14:18:56Z</time>
      </trkpt>
      <trkpt lat="45.86899" lon="2.86783">
        <ele>785.8</ele>
        <time>2025-08-07T14:18:57Z</time>
      </trkpt>
      <trkpt lat="45.86897" lon="2.8679">
        <ele>786</ele>
        <time>2025-08-07T14:18:58Z</time>
      </trkpt>
      <trkpt lat="45.86896" lon="2.86795">
        <ele>786.2</ele>
        <time>2025-08-07T14:18:59Z</time>
      </trkpt>
      <trkpt lat="45.86895" lon="2.868">
        <ele>786.4</ele>
        <time>2025-08-07T14:19:00Z</time>
      </trkpt>
      <trkpt lat="45.86894" lon="2.86806">
        <ele>786.4</ele>
        <time>2025-08-07T14:19:01Z</time>
      </trkpt>
      <trkpt lat="45.86893" lon="2.86812">
        <ele>786.6</ele>
        <time>2025-08-07T14:19:02Z</time>
      </trkpt>
      <trkpt lat="45.86892" lon="2.8682">
        <ele>786.8</ele>
        <time>2025-08-07T14:19:03Z</time>
      </trkpt>
      <trkpt lat="45.86891" lon="2.86827">
        <ele>786.8</ele>
        <time>2025-08-07T14:19:04Z</time>
      </trkpt>
      <trkpt lat="45.8689" lon="2.86834">
        <ele>787</ele>
        <time>2025-08-07T14:19:05Z</time>
      </trkpt>
      <trkpt lat="45.86889" lon="2.86841">
        <ele>786.8</ele>
        <time>2025-08-07T14:19:06Z</time>
      </trkpt>
      <trkpt lat="45.86889" lon="2.86849">
        <ele>786.8</ele>
        <time>2025-08-07T14:19:07Z</time>
      </trkpt>
      <trkpt lat="45.86888" lon="2.86858">
        <ele>786.6</ele>
        <time>2025-08-07T14:19:08Z</time>
      </trkpt>
      <trkpt lat="45.86887" lon="2.86868">
        <ele>786.6</ele>
        <time>2025-08-07T14:19:09Z</time>
      </trkpt>
      <trkpt lat="45.86886" lon="2.86877">
        <ele>786.4</ele>
        <time>2025-08-07T14:19:10Z</time>
      </trkpt>
      <trkpt lat="45.86886" lon="2.86884">
        <ele>786.4</ele>
        <time>2025-08-07T14:19:11Z</time>
      </trkpt>
      <trkpt lat="45.86885" lon="2.86889">
        <ele>786.4</ele>
        <time>2025-08-07T14:19:12Z</time>
      </trkpt>
      <trkpt lat="45.86885" lon="2.86894">
        <ele>786.4</ele>
        <time>2025-08-07T14:19:13Z</time>
      </trkpt>
      <trkpt lat="45.86886" lon="2.86899">
        <ele>786.4</ele>
        <time>2025-08-07T14:19:14Z</time>
      </trkpt>
      <trkpt lat="45.86887" lon="2.86903">
        <ele>786.4</ele>
        <time>2025-08-07T14:19:15Z</time>
      </trkpt>
      <trkpt lat="45.86888" lon="2.86908">
        <ele>786.6</ele>
        <time>2025-08-07T14:19:16Z</time>
      </trkpt>
      <trkpt lat="45.86888" lon="2.86914">
        <ele>786.8</ele>
        <time>2025-08-07T14:19:17Z</time>
      </trkpt>
      <trkpt lat="45.86888" lon="2.8692">
        <ele>787</ele>
        <time>2025-08-07T14:19:18Z</time>
      </trkpt>
      <trkpt lat="45.86889" lon="2.86927">
        <ele>787.2</ele>
        <time>2025-08-07T14:19:19Z</time>
      </trkpt>
      <trkpt lat="45.8689" lon="2.86934">
        <ele>787.6</ele>
        <time>2025-08-07T14:19:20Z</time>
      </trkpt>
      <trkpt lat="45.8689" lon="2.86941">
        <ele>787.8</ele>
        <time>2025-08-07T14:19:21Z</time>
      </trkpt>
      <trkpt lat="45.86888" lon="2.86949">
        <ele>788</ele>
        <time>2025-08-07T14:19:22Z</time>
      </trkpt>
      <trkpt lat="45.86886" lon="2.86957">
        <ele>788.2</ele>
        <time>2025-08-07T14:19:23Z</time>
      </trkpt>
      <trkpt lat="45.86885" lon="2.86964">
        <ele>788.4</ele>
        <time>2025-08-07T14:19:24Z</time>
      </trkpt>
      <trkpt lat="45.86884" lon="2.86968">
        <ele>788.6</ele>
        <time>2025-08-07T14:19:25Z</time>
      </trkpt>
      <trkpt lat="45.86884" lon="2.86974">
        <ele>788.8</ele>
        <time>2025-08-07T14:19:26Z</time>
      </trkpt>
      <trkpt lat="45.86883" lon="2.86979">
        <ele>788.8</ele>
        <time>2025-08-07T14:19:27Z</time>
      </trkpt>
      <trkpt lat="45.86882" lon="2.86984">
        <ele>788.8</ele>
        <time>2025-08-07T14:19:28Z</time>
      </trkpt>
      <trkpt lat="45.86882" lon="2.86989">
        <ele>788.8</ele>
        <time>2025-08-07T14:19:29Z</time>
      </trkpt>
      <trkpt lat="45.86881" lon="2.86998">
        <ele>788.8</ele>
        <time>2025-08-07T14:19:30Z</time>
      </trkpt>
      <trkpt lat="45.8688" lon="2.87008">
        <ele>788.8</ele>
        <time>2025-08-07T14:19:31Z</time>
      </trkpt>
      <trkpt lat="45.8688" lon="2.87016">
        <ele>788.6</ele>
        <time>2025-08-07T14:19:32Z</time>
      </trkpt>
      <trkpt lat="45.8688" lon="2.87022">
        <ele>788.4</ele>
        <time>2025-08-07T14:19:33Z</time>
      </trkpt>
      <trkpt lat="45.8688" lon="2.87029">
        <ele>788.2</ele>
        <time>2025-08-07T14:19:34Z</time>
      </trkpt>
      <trkpt lat="45.86879" lon="2.87035">
        <ele>788</ele>
        <time>2025-08-07T14:19:35Z</time>
      </trkpt>
      <trkpt lat="45.86878" lon="2.87045">
        <ele>787.8</ele>
        <time>2025-08-07T14:19:36Z</time>
      </trkpt>
      <trkpt lat="45.86877" lon="2.87056">
        <ele>787.8</ele>
        <time>2025-08-07T14:19:37Z</time>
      </trkpt>
      <trkpt lat="45.86875" lon="2.87072">
        <ele>787.6</ele>
        <time>2025-08-07T14:19:38Z</time>
      </trkpt>
      <trkpt lat="45.86873" lon="2.87086">
        <ele>787.4</ele>
        <time>2025-08-07T14:19:39Z</time>
      </trkpt>
      <trkpt lat="45.86873" lon="2.87096">
        <ele>787.2</ele>
        <time>2025-08-07T14:19:40Z</time>
      </trkpt>
      <trkpt lat="45.86872" lon="2.87104">
        <ele>787</ele>
        <time>2025-08-07T14:19:41Z</time>
      </trkpt>
      <trkpt lat="45.86872" lon="2.8711">
        <ele>787</ele>
        <time>2025-08-07T14:19:42Z</time>
      </trkpt>
      <trkpt lat="45.8687" lon="2.87118">
        <ele>786.8</ele>
        <time>2025-08-07T14:19:43Z</time>
      </trkpt>
      <trkpt lat="45.86868" lon="2.87125">
        <ele>786.8</ele>
        <time>2025-08-07T14:19:44Z</time>
      </trkpt>
      <trkpt lat="45.86866" lon="2.87129">
        <ele>787</ele>
        <time>2025-08-07T14:19:45Z</time>
      </trkpt>
      <trkpt lat="45.86864" lon="2.8713">
        <ele>787</ele>
        <time>2025-08-07T14:19:46Z</time>
      </trkpt>
      <trkpt lat="45.86862" lon="2.87135">
        <ele>787.2</ele>
        <time>2025-08-07T14:19:47Z</time>
      </trkpt>
      <trkpt lat="45.86859" lon="2.87143">
        <ele>787.2</ele>
        <time>2025-08-07T14:19:48Z</time>
      </trkpt>
      <trkpt lat="45.86855" lon="2.87153">
        <ele>787.4</ele>
        <time>2025-08-07T14:19:49Z</time>
      </trkpt>
      <trkpt lat="45.86852" lon="2.87158">
        <ele>787.6</ele>
        <time>2025-08-07T14:19:50Z</time>
      </trkpt>
      <trkpt lat="45.86849" lon="2.87162">
        <ele>787.8</ele>
        <time>2025-08-07T14:19:51Z</time>
      </trkpt>
      <trkpt lat="45.86845" lon="2.87167">
        <ele>788.2</ele>
        <time>2025-08-07T14:19:52Z</time>
      </trkpt>
      <trkpt lat="45.86841" lon="2.87171">
        <ele>788.4</ele>
        <time>2025-08-07T14:19:53Z</time>
      </trkpt>
      <trkpt lat="45.86837" lon="2.87174">
        <ele>788.8</ele>
        <time>2025-08-07T14:19:54Z</time>
      </trkpt>
      <trkpt lat="45.86833" lon="2.87177">
        <ele>789.2</ele>
        <time>2025-08-07T14:19:55Z</time>
      </trkpt>
      <trkpt lat="45.86829" lon="2.87179">
        <ele>789.6</ele>
        <time>2025-08-07T14:19:56Z</time>
      </trkpt>
      <trkpt lat="45.86825" lon="2.87181">
        <ele>790.2</ele>
        <time>2025-08-07T14:19:57Z</time>
      </trkpt>
      <trkpt lat="45.86822" lon="2.87182">
        <ele>790.6</ele>
        <time>2025-08-07T14:19:58Z</time>
      </trkpt>
      <trkpt lat="45.86818" lon="2.87182">
        <ele>791</ele>
        <time>2025-08-07T14:19:59Z</time>
      </trkpt>
      <trkpt lat="45.86814" lon="2.8718">
        <ele>791.4</ele>
        <time>2025-08-07T14:20:00Z</time>
      </trkpt>
      <trkpt lat="45.86809" lon="2.87177">
        <ele>792</ele>
        <time>2025-08-07T14:20:01Z</time>
      </trkpt>
      <trkpt lat="45.86805" lon="2.87174">
        <ele>792.2</ele>
        <time>2025-08-07T14:20:02Z</time>
      </trkpt>
      <trkpt lat="45.86801" lon="2.87171">
        <ele>792.6</ele>
        <time>2025-08-07T14:20:03Z</time>
      </trkpt>
      <trkpt lat="45.86797" lon="2.87168">
        <ele>793</ele>
        <time>2025-08-07T14:20:04Z</time>
      </trkpt>
      <trkpt lat="45.86793" lon="2.87165">
        <ele>793.2</ele>
        <time>2025-08-07T14:20:05Z</time>
      </trkpt>
      <trkpt lat="45.86788" lon="2.87163">
        <ele>793.4</ele>
        <time>2025-08-07T14:20:06Z</time>
      </trkpt>
      <trkpt lat="45.86784" lon="2.87161">
        <ele>793.8</ele>
        <time>2025-08-07T14:20:07Z</time>
      </trkpt>
      <trkpt lat="45.86779" lon="2.87159">
        <ele>794</ele>
        <time>2025-08-07T14:20:08Z</time>
      </trkpt>
      <trkpt lat="45.86774" lon="2.87159">
        <ele>794.2</ele>
        <time>2025-08-07T14:20:09Z</time>
      </trkpt>
      <trkpt lat="45.86769" lon="2.87158">
        <ele>794.4</ele>
        <time>2025-08-07T14:20:10Z</time>
      </trkpt>
      <trkpt lat="45.86764" lon="2.87158">
        <ele>794.6</ele>
        <time>2025-08-07T14:20:11Z</time>
      </trkpt>
      <trkpt lat="45.86759" lon="2.87159">
        <ele>794.8</ele>
        <time>2025-08-07T14:20:12Z</time>
      </trkpt>
      <trkpt lat="45.86755" lon="2.8716">
        <ele>795</ele>
        <time>2025-08-07T14:20:13Z</time>
      </trkpt>
      <trkpt lat="45.8675" lon="2.8716">
        <ele>795.2</ele>
        <time>2025-08-07T14:20:14Z</time>
      </trkpt>
      <trkpt lat="45.86745" lon="2.87161">
        <ele>795.6</ele>
        <time>2025-08-07T14:20:15Z</time>
      </trkpt>
      <trkpt lat="45.86741" lon="2.87162">
        <ele>795.8</ele>
        <time>2025-08-07T14:20:16Z</time>
      </trkpt>
      <trkpt lat="45.86736" lon="2.87163">
        <ele>796.2</ele>
        <time>2025-08-07T14:20:17Z</time>
      </trkpt>
      <trkpt lat="45.86732" lon="2.87163">
        <ele>796.4</ele>
        <time>2025-08-07T14:20:18Z</time>
      </trkpt>
      <trkpt lat="45.86727" lon="2.87164">
        <ele>796.8</ele>
        <time>2025-08-07T14:20:19Z</time>
      </trkpt>
      <trkpt lat="45.86723" lon="2.87164">
        <ele>797.2</ele>
        <time>2025-08-07T14:20:20Z</time>
      </trkpt>
      <trkpt lat="45.86718" lon="2.87165">
        <ele>797.6</ele>
        <time>2025-08-07T14:20:21Z</time>
      </trkpt>
      <trkpt lat="45.86714" lon="2.87165">
        <ele>797.8</ele>
        <time>2025-08-07T14:20:22Z</time>
      </trkpt>
      <trkpt lat="45.86709" lon="2.87166">
        <ele>798.2</ele>
        <time>2025-08-07T14:20:23Z</time>
      </trkpt>
      <trkpt lat="45.86706" lon="2.87166">
        <ele>798.6</ele>
        <time>2025-08-07T14:20:24Z</time>
      </trkpt>
      <trkpt lat="45.86701" lon="2.87166">
        <ele>799</ele>
        <time>2025-08-07T14:20:25Z</time>
      </trkpt>
      <trkpt lat="45.86696" lon="2.87165">
        <ele>799.2</ele>
        <time>2025-08-07T14:20:26Z</time>
      </trkpt>
      <trkpt lat="45.86692" lon="2.87165">
        <ele>799.6</ele>
        <time>2025-08-07T14:20:27Z</time>
      </trkpt>
      <trkpt lat="45.86688" lon="2.87164">
        <ele>800</ele>
        <time>2025-08-07T14:20:28Z</time>
      </trkpt>
      <trkpt lat="45.86683" lon="2.87164">
        <ele>800.2</ele>
        <time>2025-08-07T14:20:29Z</time>
      </trkpt>
      <trkpt lat="45.86679" lon="2.87164">
        <ele>800.6</ele>
        <time>2025-08-07T14:20:30Z</time>
      </trkpt>
      <trkpt lat="45.86674" lon="2.87165">
        <ele>801</ele>
        <time>2025-08-07T14:20:31Z</time>
      </trkpt>
      <trkpt lat="45.86669" lon="2.87166">
        <ele>801.4</ele>
        <time>2025-08-07T14:20:32Z</time>
      </trkpt>
      <trkpt lat="45.86665" lon="2.87167">
        <ele>801.8</ele>
        <time>2025-08-07T14:20:33Z</time>
      </trkpt>
      <trkpt lat="45.86661" lon="2.87169">
        <ele>802.2</ele>
        <time>2025-08-07T14:20:34Z</time>
      </trkpt>
      <trkpt lat="45.86657" lon="2.87171">
        <ele>802.4</ele>
        <time>2025-08-07T14:20:35Z</time>
      </trkpt>
      <trkpt lat="45.86653" lon="2.87174">
        <ele>802.8</ele>
        <time>2025-08-07T14:20:36Z</time>
      </trkpt>
      <trkpt lat="45.8665" lon="2.87178">
        <ele>803.2</ele>
        <time>2025-08-07T14:20:37Z</time>
      </trkpt>
      <trkpt lat="45.86647" lon="2.87182">
        <ele>803.4</ele>
        <time>2025-08-07T14:20:38Z</time>
      </trkpt>
      <trkpt lat="45.86645" lon="2.87187">
        <ele>803.6</ele>
        <time>2025-08-07T14:20:39Z</time>
      </trkpt>
      <trkpt lat="45.86643" lon="2.87192">
        <ele>803.8</ele>
        <time>2025-08-07T14:20:40Z</time>
      </trkpt>
      <trkpt lat="45.86642" lon="2.87198">
        <ele>804.2</ele>
        <time>2025-08-07T14:20:41Z</time>
      </trkpt>
      <trkpt lat="45.86641" lon="2.87203">
        <ele>804.4</ele>
        <time>2025-08-07T14:20:42Z</time>
      </trkpt>
      <trkpt lat="45.8664" lon="2.87209">
        <ele>804.8</ele>
        <time>2025-08-07T14:20:43Z</time>
      </trkpt>
      <trkpt lat="45.8664" lon="2.87214">
        <ele>805.2</ele>
        <time>2025-08-07T14:20:44Z</time>
      </trkpt>
      <trkpt lat="45.86639" lon="2.87219">
        <ele>805.6</ele>
        <time>2025-08-07T14:20:45Z</time>
      </trkpt>
      <trkpt lat="45.8664" lon="2.87224">
        <ele>805.8</ele>
        <time>2025-08-07T14:20:46Z</time>
      </trkpt>
      <trkpt lat="45.8664" lon="2.8723">
        <ele>806.2</ele>
        <time>2025-08-07T14:20:47Z</time>
      </trkpt>
      <trkpt lat="45.8664" lon="2.87235">
        <ele>806.4</ele>
        <time>2025-08-07T14:20:48Z</time>
      </trkpt>
      <trkpt lat="45.86641" lon="2.8724">
        <ele>806.6</ele>
        <time>2025-08-07T14:20:49Z</time>
      </trkpt>
      <trkpt lat="45.86641" lon="2.87247">
        <ele>806.8</ele>
        <time>2025-08-07T14:20:50Z</time>
      </trkpt>
      <trkpt lat="45.86641" lon="2.87252">
        <ele>807</ele>
        <time>2025-08-07T14:20:51Z</time>
      </trkpt>
      <trkpt lat="45.86641" lon="2.87258">
        <ele>807</ele>
        <time>2025-08-07T14:20:52Z</time>
      </trkpt>
      <trkpt lat="45.86642" lon="2.87264">
        <ele>807.2</ele>
        <time>2025-08-07T14:20:53Z</time>
      </trkpt>
      <trkpt lat="45.86643" lon="2.8727">
        <ele>807.4</ele>
        <time>2025-08-07T14:20:54Z</time>
      </trkpt>
      <trkpt lat="45.86645" lon="2.87275">
        <ele>807.6</ele>
        <time>2025-08-07T14:20:55Z</time>
      </trkpt>
      <trkpt lat="45.86646" lon="2.8728">
        <ele>807.8</ele>
        <time>2025-08-07T14:20:56Z</time>
      </trkpt>
      <trkpt lat="45.86647" lon="2.87286">
        <ele>808</ele>
        <time>2025-08-07T14:20:57Z</time>
      </trkpt>
      <trkpt lat="45.86647" lon="2.87292">
        <ele>808.2</ele>
        <time>2025-08-07T14:20:58Z</time>
      </trkpt>
      <trkpt lat="45.86648" lon="2.87298">
        <ele>808.4</ele>
        <time>2025-08-07T14:20:59Z</time>
      </trkpt>
      <trkpt lat="45.86649" lon="2.87304">
        <ele>808.6</ele>
        <time>2025-08-07T14:21:00Z</time>
      </trkpt>
      <trkpt lat="45.86649" lon="2.87309">
        <ele>808.8</ele>
        <time>2025-08-07T14:21:01Z</time>
      </trkpt>
      <trkpt lat="45.86649" lon="2.87315">
        <ele>809</ele>
        <time>2025-08-07T14:21:02Z</time>
      </trkpt>
      <trkpt lat="45.86649" lon="2.87322">
        <ele>809.2</ele>
        <time>2025-08-07T14:21:03Z</time>
      </trkpt>
      <trkpt lat="45.86649" lon="2.87328">
        <ele>809.4</ele>
        <time>2025-08-07T14:21:04Z</time>
      </trkpt>
      <trkpt lat="45.86649" lon="2.87334">
        <ele>809.6</ele>
        <time>2025-08-07T14:21:05Z</time>
      </trkpt>
      <trkpt lat="45.8665" lon="2.8734">
        <ele>809.8</ele>
        <time>2025-08-07T14:21:06Z</time>
      </trkpt>
      <trkpt lat="45.8665" lon="2.87346">
        <ele>810</ele>
        <time>2025-08-07T14:21:07Z</time>
      </trkpt>
      <trkpt lat="45.86651" lon="2.87353">
        <ele>810</ele>
        <time>2025-08-07T14:21:08Z</time>
      </trkpt>
      <trkpt lat="45.86652" lon="2.8736">
        <ele>810.2</ele>
        <time>2025-08-07T14:21:09Z</time>
      </trkpt>
      <trkpt lat="45.86653" lon="2.87367">
        <ele>810.2</ele>
        <time>2025-08-07T14:21:10Z</time>
      </trkpt>
      <trkpt lat="45.86653" lon="2.87373">
        <ele>810.4</ele>
        <time>2025-08-07T14:21:11Z</time>
      </trkpt>
      <trkpt lat="45.86654" lon="2.87378">
        <ele>810.6</ele>
        <time>2025-08-07T14:21:12Z</time>
      </trkpt>
      <trkpt lat="45.86654" lon="2.87383">
        <ele>810.8</ele>
        <time>2025-08-07T14:21:13Z</time>
      </trkpt>
      <trkpt lat="45.86654" lon="2.87389">
        <ele>810.8</ele>
        <time>2025-08-07T14:21:14Z</time>
      </trkpt>
      <trkpt lat="45.86655" lon="2.87395">
        <ele>811</ele>
        <time>2025-08-07T14:21:15Z</time>
      </trkpt>
      <trkpt lat="45.86655" lon="2.87401">
        <ele>811.2</ele>
        <time>2025-08-07T14:21:16Z</time>
      </trkpt>
      <trkpt lat="45.86656" lon="2.87407">
        <ele>811.4</ele>
        <time>2025-08-07T14:21:17Z</time>
      </trkpt>
      <trkpt lat="45.86656" lon="2.87414">
        <ele>811.6</ele>
        <time>2025-08-07T14:21:18Z</time>
      </trkpt>
      <trkpt lat="45.86657" lon="2.8742">
        <ele>811.8</ele>
        <time>2025-08-07T14:21:19Z</time>
      </trkpt>
      <trkpt lat="45.86657" lon="2.87427">
        <ele>812</ele>
        <time>2025-08-07T14:21:20Z</time>
      </trkpt>
      <trkpt lat="45.86658" lon="2.87433">
        <ele>812.2</ele>
        <time>2025-08-07T14:21:21Z</time>
      </trkpt>
      <trkpt lat="45.86658" lon="2.8744">
        <ele>812.2</ele>
        <time>2025-08-07T14:21:22Z</time>
      </trkpt>
      <trkpt lat="45.8666" lon="2.87446">
        <ele>812.4</ele>
        <time>2025-08-07T14:21:23Z</time>
      </trkpt>
      <trkpt lat="45.8666" lon="2.87452">
        <ele>812.6</ele>
        <time>2025-08-07T14:21:24Z</time>
      </trkpt>
      <trkpt lat="45.86661" lon="2.87458">
        <ele>812.8</ele>
        <time>2025-08-07T14:21:25Z</time>
      </trkpt>
      <trkpt lat="45.86663" lon="2.87464">
        <ele>813</ele>
        <time>2025-08-07T14:21:26Z</time>
      </trkpt>
      <trkpt lat="45.86664" lon="2.8747">
        <ele>813.2</ele>
        <time>2025-08-07T14:21:27Z</time>
      </trkpt>
      <trkpt lat="45.86666" lon="2.87476">
        <ele>813.4</ele>
        <time>2025-08-07T14:21:28Z</time>
      </trkpt>
      <trkpt lat="45.86668" lon="2.87482">
        <ele>813.6</ele>
        <time>2025-08-07T14:21:29Z</time>
      </trkpt>
      <trkpt lat="45.86669" lon="2.87488">
        <ele>813.8</ele>
        <time>2025-08-07T14:21:30Z</time>
      </trkpt>
      <trkpt lat="45.8667" lon="2.87494">
        <ele>814</ele>
        <time>2025-08-07T14:21:31Z</time>
      </trkpt>
      <trkpt lat="45.86671" lon="2.87499">
        <ele>814.2</ele>
        <time>2025-08-07T14:21:32Z</time>
      </trkpt>
      <trkpt lat="45.86671" lon="2.87505">
        <ele>814.4</ele>
        <time>2025-08-07T14:21:33Z</time>
      </trkpt>
      <trkpt lat="45.86671" lon="2.8751">
        <ele>814.4</ele>
        <time>2025-08-07T14:21:34Z</time>
      </trkpt>
      <trkpt lat="45.86673" lon="2.87516">
        <ele>814.6</ele>
        <time>2025-08-07T14:21:35Z</time>
      </trkpt>
      <trkpt lat="45.86673" lon="2.8752">
        <ele>814.8</ele>
        <time>2025-08-07T14:21:36Z</time>
      </trkpt>
      <trkpt lat="45.86674" lon="2.87525">
        <ele>815</ele>
        <time>2025-08-07T14:21:37Z</time>
      </trkpt>
      <trkpt lat="45.86675" lon="2.87531">
        <ele>815.2</ele>
        <time>2025-08-07T14:21:38Z</time>
      </trkpt>
      <trkpt lat="45.86676" lon="2.87536">
        <ele>815.2</ele>
        <time>2025-08-07T14:21:39Z</time>
      </trkpt>
      <trkpt lat="45.86677" lon="2.8754">
        <ele>815.4</ele>
        <time>2025-08-07T14:21:40Z</time>
      </trkpt>
      <trkpt lat="45.86679" lon="2.87545">
        <ele>815.4</ele>
        <time>2025-08-07T14:21:41Z</time>
      </trkpt>
      <trkpt lat="45.8668" lon="2.87549">
        <ele>815.6</ele>
        <time>2025-08-07T14:21:42Z</time>
      </trkpt>
      <trkpt lat="45.8668" lon="2.87553">
        <ele>815.6</ele>
        <time>2025-08-07T14:21:43Z</time>
      </trkpt>
      <trkpt lat="45.86681" lon="2.87556">
        <ele>815.8</ele>
        <time>2025-08-07T14:21:44Z</time>
      </trkpt>
      <trkpt lat="45.86683" lon="2.8756">
        <ele>815.8</ele>
        <time>2025-08-07T14:21:45Z</time>
      </trkpt>
      <trkpt lat="45.86684" lon="2.87563">
        <ele>815.8</ele>
        <time>2025-08-07T14:21:46Z</time>
      </trkpt>
      <trkpt lat="45.86685" lon="2.87566">
        <ele>815.8</ele>
        <time>2025-08-07T14:21:47Z</time>
      </trkpt>
      <trkpt lat="45.86686" lon="2.87569">
        <ele>816</ele>
        <time>2025-08-07T14:21:48Z</time>
      </trkpt>
      <trkpt lat="45.86687" lon="2.87573">
        <ele>816</ele>
        <time>2025-08-07T14:21:49Z</time>
      </trkpt>
      <trkpt lat="45.86688" lon="2.87578">
        <ele>816</ele>
        <time>2025-08-07T14:21:50Z</time>
      </trkpt>
      <trkpt lat="45.86689" lon="2.87583">
        <ele>816</ele>
        <time>2025-08-07T14:21:51Z</time>
      </trkpt>
      <trkpt lat="45.8669" lon="2.87588">
        <ele>816</ele>
        <time>2025-08-07T14:21:52Z</time>
      </trkpt>
      <trkpt lat="45.8669" lon="2.87593">
        <ele>816</ele>
        <time>2025-08-07T14:21:53Z</time>
      </trkpt>
      <trkpt lat="45.8669" lon="2.87599">
        <ele>815.8</ele>
        <time>2025-08-07T14:21:54Z</time>
      </trkpt>
      <trkpt lat="45.86691" lon="2.87606">
        <ele>815.8</ele>
        <time>2025-08-07T14:21:55Z</time>
      </trkpt>
      <trkpt lat="45.86692" lon="2.87612">
        <ele>815.8</ele>
        <time>2025-08-07T14:21:56Z</time>
      </trkpt>
      <trkpt lat="45.86692" lon="2.8762">
        <ele>815.8</ele>
        <time>2025-08-07T14:21:57Z</time>
      </trkpt>
      <trkpt lat="45.86692" lon="2.87627">
        <ele>815.8</ele>
        <time>2025-08-07T14:21:58Z</time>
      </trkpt>
      <trkpt lat="45.86692" lon="2.87635">
        <ele>815.8</ele>
        <time>2025-08-07T14:21:59Z</time>
      </trkpt>
      <trkpt lat="45.86692" lon="2.87642">
        <ele>815.6</ele>
        <time>2025-08-07T14:22:00Z</time>
      </trkpt>
      <trkpt lat="45.86692" lon="2.8765">
        <ele>815.6</ele>
        <time>2025-08-07T14:22:01Z</time>
      </trkpt>
      <trkpt lat="45.86691" lon="2.87659">
        <ele>815.6</ele>
        <time>2025-08-07T14:22:02Z</time>
      </trkpt>
      <trkpt lat="45.86691" lon="2.87667">
        <ele>815.6</ele>
        <time>2025-08-07T14:22:03Z</time>
      </trkpt>
      <trkpt lat="45.8669" lon="2.87676">
        <ele>815.4</ele>
        <time>2025-08-07T14:22:04Z</time>
      </trkpt>
      <trkpt lat="45.8669" lon="2.87685">
        <ele>815.2</ele>
        <time>2025-08-07T14:22:05Z</time>
      </trkpt>
      <trkpt lat="45.86691" lon="2.87693">
        <ele>815.2</ele>
        <time>2025-08-07T14:22:06Z</time>
      </trkpt>
      <trkpt lat="45.86691" lon="2.87702">
        <ele>815</ele>
        <time>2025-08-07T14:22:07Z</time>
      </trkpt>
      <trkpt lat="45.86691" lon="2.87711">
        <ele>815</ele>
        <time>2025-08-07T14:22:08Z</time>
      </trkpt>
      <trkpt lat="45.86691" lon="2.87722">
        <ele>814.8</ele>
        <time>2025-08-07T14:22:09Z</time>
      </trkpt>
      <trkpt lat="45.86691" lon="2.87731">
        <ele>814.6</ele>
        <time>2025-08-07T14:22:10Z</time>
      </trkpt>
      <trkpt lat="45.8669" lon="2.87739">
        <ele>814.6</ele>
        <time>2025-08-07T14:22:11Z</time>
      </trkpt>
      <trkpt lat="45.8669" lon="2.87748">
        <ele>814.4</ele>
        <time>2025-08-07T14:22:12Z</time>
      </trkpt>
      <trkpt lat="45.8669" lon="2.87757">
        <ele>814.4</ele>
        <time>2025-08-07T14:22:13Z</time>
      </trkpt>
      <trkpt lat="45.86689" lon="2.87766">
        <ele>814.2</ele>
        <time>2025-08-07T14:22:14Z</time>
      </trkpt>
      <trkpt lat="45.86689" lon="2.87776">
        <ele>814.2</ele>
        <time>2025-08-07T14:22:15Z</time>
      </trkpt>
      <trkpt lat="45.86691" lon="2.87784">
        <ele>814</ele>
        <time>2025-08-07T14:22:16Z</time>
      </trkpt>
      <trkpt lat="45.86692" lon="2.87794">
        <ele>814</ele>
        <time>2025-08-07T14:22:17Z</time>
      </trkpt>
      <trkpt lat="45.86692" lon="2.87804">
        <ele>813.8</ele>
        <time>2025-08-07T14:22:18Z</time>
      </trkpt>
      <trkpt lat="45.86693" lon="2.87813">
        <ele>813.8</ele>
        <time>2025-08-07T14:22:19Z</time>
      </trkpt>
      <trkpt lat="45.86692" lon="2.87823">
        <ele>813.8</ele>
        <time>2025-08-07T14:22:20Z</time>
      </trkpt>
      <trkpt lat="45.86691" lon="2.87832">
        <ele>813.8</ele>
        <time>2025-08-07T14:22:21Z</time>
      </trkpt>
      <trkpt lat="45.86691" lon="2.87838">
        <ele>813.8</ele>
        <time>2025-08-07T14:22:22Z</time>
      </trkpt>
      <trkpt lat="45.86689" lon="2.87845">
        <ele>814</ele>
        <time>2025-08-07T14:22:23Z</time>
      </trkpt>
      <trkpt lat="45.86686" lon="2.87855">
        <ele>814</ele>
        <time>2025-08-07T14:22:24Z</time>
      </trkpt>
      <trkpt lat="45.86685" lon="2.87864">
        <ele>814.2</ele>
        <time>2025-08-07T14:22:25Z</time>
      </trkpt>
      <trkpt lat="45.86684" lon="2.87871">
        <ele>814.2</ele>
        <time>2025-08-07T14:22:26Z</time>
      </trkpt>
      <trkpt lat="45.86685" lon="2.87879">
        <ele>814.2</ele>
        <time>2025-08-07T14:22:27Z</time>
      </trkpt>
      <trkpt lat="45.86689" lon="2.87887">
        <ele>814.4</ele>
        <time>2025-08-07T14:22:28Z</time>
      </trkpt>
      <trkpt lat="45.8669" lon="2.87895">
        <ele>814.4</ele>
        <time>2025-08-07T14:22:29Z</time>
      </trkpt>
      <trkpt lat="45.86689" lon="2.87904">
        <ele>814.6</ele>
        <time>2025-08-07T14:22:30Z</time>
      </trkpt>
      <trkpt lat="45.86685" lon="2.87913">
        <ele>814.6</ele>
        <time>2025-08-07T14:22:31Z</time>
      </trkpt>
      <trkpt lat="45.86682" lon="2.87922">
        <ele>814.6</ele>
        <time>2025-08-07T14:22:32Z</time>
      </trkpt>
      <trkpt lat="45.86679" lon="2.8793">
        <ele>814.6</ele>
        <time>2025-08-07T14:22:33Z</time>
      </trkpt>
      <trkpt lat="45.86678" lon="2.87935">
        <ele>814.8</ele>
        <time>2025-08-07T14:22:34Z</time>
      </trkpt>
      <trkpt lat="45.86677" lon="2.87941">
        <ele>814.8</ele>
        <time>2025-08-07T14:22:35Z</time>
      </trkpt>
      <trkpt lat="45.86676" lon="2.87947">
        <ele>815</ele>
        <time>2025-08-07T14:22:36Z</time>
      </trkpt>
      <trkpt lat="45.86676" lon="2.87953">
        <ele>815.2</ele>
        <time>2025-08-07T14:22:37Z</time>
      </trkpt>
      <trkpt lat="45.86675" lon="2.87959">
        <ele>815.2</ele>
        <time>2025-08-07T14:22:38Z</time>
      </trkpt>
      <trkpt lat="45.86674" lon="2.87966">
        <ele>815.4</ele>
        <time>2025-08-07T14:22:39Z</time>
      </trkpt>
      <trkpt lat="45.86673" lon="2.87973">
        <ele>815.4</ele>
        <time>2025-08-07T14:22:40Z</time>
      </trkpt>
      <trkpt lat="45.86673" lon="2.87981">
        <ele>815.6</ele>
        <time>2025-08-07T14:22:41Z</time>
      </trkpt>
      <trkpt lat="45.8667" lon="2.87991">
        <ele>815.6</ele>
        <time>2025-08-07T14:22:42Z</time>
      </trkpt>
      <trkpt lat="45.86669" lon="2.87997">
        <ele>815.6</ele>
        <time>2025-08-07T14:22:43Z</time>
      </trkpt>
      <trkpt lat="45.86667" lon="2.88002">
        <ele>815.6</ele>
        <time>2025-08-07T14:22:44Z</time>
      </trkpt>
      <trkpt lat="45.86665" lon="2.88005">
        <ele>815.6</ele>
        <time>2025-08-07T14:22:45Z</time>
      </trkpt>
      <trkpt lat="45.86664" lon="2.88008">
        <ele>815.6</ele>
        <time>2025-08-07T14:22:46Z</time>
      </trkpt>
      <trkpt lat="45.86663" lon="2.88011">
        <ele>815.4</ele>
        <time>2025-08-07T14:22:47Z</time>
      </trkpt>
      <trkpt lat="45.86662" lon="2.88014">
        <ele>815.4</ele>
        <time>2025-08-07T14:22:48Z</time>
      </trkpt>
      <trkpt lat="45.8666" lon="2.88015">
        <ele>815.4</ele>
        <time>2025-08-07T14:22:49Z</time>
      </trkpt>
      <trkpt lat="45.8666" lon="2.88017">
        <ele>815.4</ele>
        <time>2025-08-07T14:22:50Z</time>
      </trkpt>
      <trkpt lat="45.86659" lon="2.88017">
        <ele>815.2</ele>
        <time>2025-08-07T14:22:51Z</time>
      </trkpt>
      <trkpt lat="45.86659" lon="2.88017">
        <ele>815.2</ele>
        <time>2025-08-07T14:22:52Z</time>
      </trkpt>
      <trkpt lat="45.86659" lon="2.88017">
        <ele>815.2</ele>
        <time>2025-08-07T14:22:53Z</time>
      </trkpt>
      <trkpt lat="45.86659" lon="2.88017">
        <ele>815.2</ele>
        <time>2025-08-07T14:22:54Z</time>
      </trkpt>
      <trkpt lat="45.86659" lon="2.88017">
        <ele>815.2</ele>
        <time>2025-08-07T14:22:55Z</time>
      </trkpt>
      <trkpt lat="45.86659" lon="2.88017">
        <ele>815.2</ele>
        <time>2025-08-07T14:22:56Z</time>
      </trkpt>
      <trkpt lat="45.86657" lon="2.88022">
        <ele>815.2</ele>
        <time>2025-08-07T14:23:11Z</time>
      </trkpt>
      <trkpt lat="45.86657" lon="2.88025">
        <ele>815.2</ele>
        <time>2025-08-07T14:23:12Z</time>
      </trkpt>
      <trkpt lat="45.86656" lon="2.88028">
        <ele>815.2</ele>
        <time>2025-08-07T14:23:13Z</time>
      </trkpt>
      <trkpt lat="45.86655" lon="2.88032">
        <ele>815.2</ele>
        <time>2025-08-07T14:23:14Z</time>
      </trkpt>
      <trkpt lat="45.86654" lon="2.88036">
        <ele>815.2</ele>
        <time>2025-08-07T14:23:15Z</time>
      </trkpt>
      <trkpt lat="45.86653" lon="2.8804">
        <ele>815.2</ele>
        <time>2025-08-07T14:23:16Z</time>
      </trkpt>
      <trkpt lat="45.86652" lon="2.88045">
        <ele>815.2</ele>
        <time>2025-08-07T14:23:17Z</time>
      </trkpt>
      <trkpt lat="45.86652" lon="2.88049">
        <ele>815.2</ele>
        <time>2025-08-07T14:23:18Z</time>
      </trkpt>
      <trkpt lat="45.86651" lon="2.88054">
        <ele>815</ele>
        <time>2025-08-07T14:23:19Z</time>
      </trkpt>
      <trkpt lat="45.86651" lon="2.8806">
        <ele>815</ele>
        <time>2025-08-07T14:23:20Z</time>
      </trkpt>
      <trkpt lat="45.86651" lon="2.88066">
        <ele>815</ele>
        <time>2025-08-07T14:23:21Z</time>
      </trkpt>
      <trkpt lat="45.86652" lon="2.88072">
        <ele>815</ele>
        <time>2025-08-07T14:23:22Z</time>
      </trkpt>
      <trkpt lat="45.86652" lon="2.88078">
        <ele>815</ele>
        <time>2025-08-07T14:23:23Z</time>
      </trkpt>
      <trkpt lat="45.86653" lon="2.88085">
        <ele>815</ele>
        <time>2025-08-07T14:23:24Z</time>
      </trkpt>
      <trkpt lat="45.86653" lon="2.88091">
        <ele>815</ele>
        <time>2025-08-07T14:23:25Z</time>
      </trkpt>
      <trkpt lat="45.86654" lon="2.88098">
        <ele>815.2</ele>
        <time>2025-08-07T14:23:26Z</time>
      </trkpt>
      <trkpt lat="45.86655" lon="2.88106">
        <ele>815.2</ele>
        <time>2025-08-07T14:23:27Z</time>
      </trkpt>
      <trkpt lat="45.86655" lon="2.88115">
        <ele>815.2</ele>
        <time>2025-08-07T14:23:28Z</time>
      </trkpt>
      <trkpt lat="45.86655" lon="2.88122">
        <ele>815.2</ele>
        <time>2025-08-07T14:23:29Z</time>
      </trkpt>
      <trkpt lat="45.86655" lon="2.8813">
        <ele>815.2</ele>
        <time>2025-08-07T14:23:30Z</time>
      </trkpt>
      <trkpt lat="45.86655" lon="2.88137">
        <ele>815</ele>
        <time>2025-08-07T14:23:31Z</time>
      </trkpt>
      <trkpt lat="45.86653" lon="2.88145">
        <ele>814.8</ele>
        <time>2025-08-07T14:23:32Z</time>
      </trkpt>
      <trkpt lat="45.86652" lon="2.88153">
        <ele>814.6</ele>
        <time>2025-08-07T14:23:33Z</time>
      </trkpt>
      <trkpt lat="45.86651" lon="2.88162">
        <ele>814.6</ele>
        <time>2025-08-07T14:23:34Z</time>
      </trkpt>
      <trkpt lat="45.86649" lon="2.8817">
        <ele>814.2</ele>
        <time>2025-08-07T14:23:35Z</time>
      </trkpt>
      <trkpt lat="45.86648" lon="2.88176">
        <ele>814</ele>
        <time>2025-08-07T14:23:36Z</time>
      </trkpt>
      <trkpt lat="45.86644" lon="2.88184">
        <ele>813.8</ele>
        <time>2025-08-07T14:23:37Z</time>
      </trkpt>
      <trkpt lat="45.86641" lon="2.88192">
        <ele>813.4</ele>
        <time>2025-08-07T14:23:38Z</time>
      </trkpt>
      <trkpt lat="45.86637" lon="2.88199">
        <ele>813</ele>
        <time>2025-08-07T14:23:39Z</time>
      </trkpt>
      <trkpt lat="45.86634" lon="2.88204">
        <ele>812.6</ele>
        <time>2025-08-07T14:23:40Z</time>
      </trkpt>
      <trkpt lat="45.8663" lon="2.88209">
        <ele>812.4</ele>
        <time>2025-08-07T14:23:41Z</time>
      </trkpt>
      <trkpt lat="45.86625" lon="2.88212">
        <ele>812</ele>
        <time>2025-08-07T14:23:42Z</time>
      </trkpt>
      <trkpt lat="45.86621" lon="2.88214">
        <ele>811.6</ele>
        <time>2025-08-07T14:23:43Z</time>
      </trkpt>
      <trkpt lat="45.86616" lon="2.88215">
        <ele>811.2</ele>
        <time>2025-08-07T14:23:44Z</time>
      </trkpt>
      <trkpt lat="45.86612" lon="2.88217">
        <ele>810.6</ele>
        <time>2025-08-07T14:23:45Z</time>
      </trkpt>
      <trkpt lat="45.86607" lon="2.8822">
        <ele>810.2</ele>
        <time>2025-08-07T14:23:46Z</time>
      </trkpt>
      <trkpt lat="45.86602" lon="2.88221">
        <ele>809.6</ele>
        <time>2025-08-07T14:23:47Z</time>
      </trkpt>
      <trkpt lat="45.86596" lon="2.88221">
        <ele>809</ele>
        <time>2025-08-07T14:23:48Z</time>
      </trkpt>
      <trkpt lat="45.8659" lon="2.88222">
        <ele>808.4</ele>
        <time>2025-08-07T14:23:49Z</time>
      </trkpt>
      <trkpt lat="45.86586" lon="2.88222">
        <ele>807.8</ele>
        <time>2025-08-07T14:23:50Z</time>
      </trkpt>
      <trkpt lat="45.86581" lon="2.88223">
        <ele>807.2</ele>
        <time>2025-08-07T14:23:51Z</time>
      </trkpt>
      <trkpt lat="45.86578" lon="2.88223">
        <ele>806.8</ele>
        <time>2025-08-07T14:23:52Z</time>
      </trkpt>
      <trkpt lat="45.86576" lon="2.88224">
        <ele>806.4</ele>
        <time>2025-08-07T14:23:53Z</time>
      </trkpt>
      <trkpt lat="45.86572" lon="2.88226">
        <ele>806</ele>
        <time>2025-08-07T14:23:54Z</time>
      </trkpt>
      <trkpt lat="45.8657" lon="2.88229">
        <ele>805.8</ele>
        <time>2025-08-07T14:23:55Z</time>
      </trkpt>
      <trkpt lat="45.86568" lon="2.88233">
        <ele>805.4</ele>
        <time>2025-08-07T14:23:56Z</time>
      </trkpt>
      <trkpt lat="45.86566" lon="2.88237">
        <ele>805</ele>
        <time>2025-08-07T14:23:57Z</time>
      </trkpt>
      <trkpt lat="45.86565" lon="2.88239">
        <ele>804.6</ele>
        <time>2025-08-07T14:23:58Z</time>
      </trkpt>
      <trkpt lat="45.86562" lon="2.88241">
        <ele>804.2</ele>
        <time>2025-08-07T14:23:59Z</time>
      </trkpt>
      <trkpt lat="45.8656" lon="2.88241">
        <ele>804</ele>
        <time>2025-08-07T14:24:00Z</time>
      </trkpt>
      <trkpt lat="45.86558" lon="2.88241">
        <ele>803.6</ele>
        <time>2025-08-07T14:24:01Z</time>
      </trkpt>
      <trkpt lat="45.86555" lon="2.8824">
        <ele>803.4</ele>
        <time>2025-08-07T14:24:02Z</time>
      </trkpt>
      <trkpt lat="45.86553" lon="2.88239">
        <ele>803.2</ele>
        <time>2025-08-07T14:24:03Z</time>
      </trkpt>
      <trkpt lat="45.86551" lon="2.88237">
        <ele>803</ele>
        <time>2025-08-07T14:24:04Z</time>
      </trkpt>
      <trkpt lat="45.86549" lon="2.88234">
        <ele>803</ele>
        <time>2025-08-07T14:24:05Z</time>
      </trkpt>
      <trkpt lat="45.86548" lon="2.88231">
        <ele>802.8</ele>
        <time>2025-08-07T14:24:06Z</time>
      </trkpt>
      <trkpt lat="45.86547" lon="2.88226">
        <ele>802.8</ele>
        <time>2025-08-07T14:24:07Z</time>
      </trkpt>
      <trkpt lat="45.86546" lon="2.88222">
        <ele>802.6</ele>
        <time>2025-08-07T14:24:08Z</time>
      </trkpt>
      <trkpt lat="45.86545" lon="2.88217">
        <ele>802.6</ele>
        <time>2025-08-07T14:24:09Z</time>
      </trkpt>
      <trkpt lat="45.86542" lon="2.88215">
        <ele>802.4</ele>
        <time>2025-08-07T14:24:10Z</time>
      </trkpt>
      <trkpt lat="45.8654" lon="2.88215">
        <ele>802.4</ele>
        <time>2025-08-07T14:24:11Z</time>
      </trkpt>
      <trkpt lat="45.86537" lon="2.88217">
        <ele>802.2</ele>
        <time>2025-08-07T14:24:12Z</time>
      </trkpt>
      <trkpt lat="45.86535" lon="2.88221">
        <ele>802</ele>
        <time>2025-08-07T14:24:13Z</time>
      </trkpt>
      <trkpt lat="45.86535" lon="2.88226">
        <ele>801.6</ele>
        <time>2025-08-07T14:24:14Z</time>
      </trkpt>
      <trkpt lat="45.86535" lon="2.88234">
        <ele>801.4</ele>
        <time>2025-08-07T14:24:15Z</time>
      </trkpt>
      <trkpt lat="45.86536" lon="2.88241">
        <ele>801.2</ele>
        <time>2025-08-07T14:24:16Z</time>
      </trkpt>
      <trkpt lat="45.86536" lon="2.88248">
        <ele>800.8</ele>
        <time>2025-08-07T14:24:17Z</time>
      </trkpt>
      <trkpt lat="45.86537" lon="2.88256">
        <ele>800.4</ele>
        <time>2025-08-07T14:24:18Z</time>
      </trkpt>
      <trkpt lat="45.86539" lon="2.88263">
        <ele>800</ele>
        <time>2025-08-07T14:24:19Z</time>
      </trkpt>
      <trkpt lat="45.86543" lon="2.88275">
        <ele>799.4</ele>
        <time>2025-08-07T14:24:20Z</time>
      </trkpt>
      <trkpt lat="45.86547" lon="2.88285">
        <ele>799</ele>
        <time>2025-08-07T14:24:21Z</time>
      </trkpt>
      <trkpt lat="45.86551" lon="2.88295">
        <ele>798.6</ele>
        <time>2025-08-07T14:24:22Z</time>
      </trkpt>
      <trkpt lat="45.86556" lon="2.88307">
        <ele>798.2</ele>
        <time>2025-08-07T14:24:23Z</time>
      </trkpt>
      <trkpt lat="45.86561" lon="2.88318">
        <ele>798</ele>
        <time>2025-08-07T14:24:24Z</time>
      </trkpt>
      <trkpt lat="45.86565" lon="2.88328">
        <ele>797.6</ele>
        <time>2025-08-07T14:24:25Z</time>
      </trkpt>
      <trkpt lat="45.86569" lon="2.88337">
        <ele>797.6</ele>
        <time>2025-08-07T14:24:26Z</time>
      </trkpt>
      <trkpt lat="45.86571" lon="2.88346">
        <ele>797.6</ele>
        <time>2025-08-07T14:24:27Z</time>
      </trkpt>
      <trkpt lat="45.86573" lon="2.88354">
        <ele>797.4</ele>
        <time>2025-08-07T14:24:28Z</time>
      </trkpt>
      <trkpt lat="45.86574" lon="2.88362">
        <ele>797.4</ele>
        <time>2025-08-07T14:24:29Z</time>
      </trkpt>
      <trkpt lat="45.86575" lon="2.8837">
        <ele>797.2</ele>
        <time>2025-08-07T14:24:30Z</time>
      </trkpt>
      <trkpt lat="45.86576" lon="2.88378">
        <ele>797.2</ele>
        <time>2025-08-07T14:24:31Z</time>
      </trkpt>
      <trkpt lat="45.86577" lon="2.88386">
        <ele>797.2</ele>
        <time>2025-08-07T14:24:32Z</time>
      </trkpt>
      <trkpt lat="45.86578" lon="2.88393">
        <ele>797</ele>
        <time>2025-08-07T14:24:33Z</time>
      </trkpt>
      <trkpt lat="45.86579" lon="2.884">
        <ele>797</ele>
        <time>2025-08-07T14:24:34Z</time>
      </trkpt>
      <trkpt lat="45.8658" lon="2.88408">
        <ele>797</ele>
        <time>2025-08-07T14:24:35Z</time>
      </trkpt>
      <trkpt lat="45.8658" lon="2.88418">
        <ele>796.8</ele>
        <time>2025-08-07T14:24:36Z</time>
      </trkpt>
      <trkpt lat="45.86578" lon="2.88428">
        <ele>796.6</ele>
        <time>2025-08-07T14:24:37Z</time>
      </trkpt>
      <trkpt lat="45.86577" lon="2.88438">
        <ele>796.4</ele>
        <time>2025-08-07T14:24:38Z</time>
      </trkpt>
      <trkpt lat="45.86574" lon="2.88449">
        <ele>796.2</ele>
        <time>2025-08-07T14:24:39Z</time>
      </trkpt>
      <trkpt lat="45.86573" lon="2.8846">
        <ele>796</ele>
        <time>2025-08-07T14:24:40Z</time>
      </trkpt>
      <trkpt lat="45.86571" lon="2.8847">
        <ele>795.8</ele>
        <time>2025-08-07T14:24:41Z</time>
      </trkpt>
      <trkpt lat="45.86568" lon="2.88481">
        <ele>795.6</ele>
        <time>2025-08-07T14:24:42Z</time>
      </trkpt>
      <trkpt lat="45.86562" lon="2.88498">
        <ele>795.2</ele>
        <time>2025-08-07T14:24:43Z</time>
      </trkpt>
      <trkpt lat="45.86557" lon="2.88513">
        <ele>794.8</ele>
        <time>2025-08-07T14:24:44Z</time>
      </trkpt>
      <trkpt lat="45.86553" lon="2.88525">
        <ele>794.4</ele>
        <time>2025-08-07T14:24:45Z</time>
      </trkpt>
      <trkpt lat="45.86549" lon="2.88534">
        <ele>794</ele>
        <time>2025-08-07T14:24:46Z</time>
      </trkpt>
      <trkpt lat="45.86544" lon="2.88543">
        <ele>793.6</ele>
        <time>2025-08-07T14:24:47Z</time>
      </trkpt>
      <trkpt lat="45.86537" lon="2.8855">
        <ele>793.2</ele>
        <time>2025-08-07T14:24:48Z</time>
      </trkpt>
      <trkpt lat="45.86529" lon="2.88555">
        <ele>792.8</ele>
        <time>2025-08-07T14:24:49Z</time>
      </trkpt>
      <trkpt lat="45.86522" lon="2.88559">
        <ele>792.4</ele>
        <time>2025-08-07T14:24:50Z</time>
      </trkpt>
      <trkpt lat="45.86513" lon="2.88563">
        <ele>792</ele>
        <time>2025-08-07T14:24:51Z</time>
      </trkpt>
      <trkpt lat="45.86506" lon="2.88568">
        <ele>791.4</ele>
        <time>2025-08-07T14:24:52Z</time>
      </trkpt>
      <trkpt lat="45.86498" lon="2.88572">
        <ele>791</ele>
        <time>2025-08-07T14:24:53Z</time>
      </trkpt>
      <trkpt lat="45.8649" lon="2.88576">
        <ele>790.6</ele>
        <time>2025-08-07T14:24:54Z</time>
      </trkpt>
      <trkpt lat="45.86482" lon="2.88579">
        <ele>790</ele>
        <time>2025-08-07T14:24:55Z</time>
      </trkpt>
      <trkpt lat="45.86472" lon="2.88584">
        <ele>789.4</ele>
        <time>2025-08-07T14:24:56Z</time>
      </trkpt>
      <trkpt lat="45.86463" lon="2.88587">
        <ele>788.8</ele>
        <time>2025-08-07T14:24:57Z</time>
      </trkpt>
      <trkpt lat="45.86453" lon="2.88592">
        <ele>787.8</ele>
        <time>2025-08-07T14:24:58Z</time>
      </trkpt>
      <trkpt lat="45.86445" lon="2.88597">
        <ele>787</ele>
        <time>2025-08-07T14:24:59Z</time>
      </trkpt>
      <trkpt lat="45.86437" lon="2.88603">
        <ele>786</ele>
        <time>2025-08-07T14:25:00Z</time>
      </trkpt>
      <trkpt lat="45.86429" lon="2.88608">
        <ele>785</ele>
        <time>2025-08-07T14:25:01Z</time>
      </trkpt>
      <trkpt lat="45.86422" lon="2.88614">
        <ele>784.2</ele>
        <time>2025-08-07T14:25:02Z</time>
      </trkpt>
      <trkpt lat="45.86413" lon="2.88623">
        <ele>783.4</ele>
        <time>2025-08-07T14:25:03Z</time>
      </trkpt>
      <trkpt lat="45.86405" lon="2.88632">
        <ele>782.6</ele>
        <time>2025-08-07T14:25:04Z</time>
      </trkpt>
      <trkpt lat="45.86399" lon="2.88641">
        <ele>782</ele>
        <time>2025-08-07T14:25:05Z</time>
      </trkpt>
      <trkpt lat="45.86392" lon="2.88651">
        <ele>781.4</ele>
        <time>2025-08-07T14:25:06Z</time>
      </trkpt>
      <trkpt lat="45.86386" lon="2.88661">
        <ele>781</ele>
        <time>2025-08-07T14:25:07Z</time>
      </trkpt>
      <trkpt lat="45.86379" lon="2.88669">
        <ele>780.6</ele>
        <time>2025-08-07T14:25:08Z</time>
      </trkpt>
      <trkpt lat="45.86372" lon="2.88678">
        <ele>780.2</ele>
        <time>2025-08-07T14:25:09Z</time>
      </trkpt>
      <trkpt lat="45.86367" lon="2.88683">
        <ele>779.8</ele>
        <time>2025-08-07T14:25:10Z</time>
      </trkpt>
      <trkpt lat="45.8636" lon="2.88691">
        <ele>779.4</ele>
        <time>2025-08-07T14:25:11Z</time>
      </trkpt>
      <trkpt lat="45.86354" lon="2.88697">
        <ele>779</ele>
        <time>2025-08-07T14:25:12Z</time>
      </trkpt>
      <trkpt lat="45.86349" lon="2.88703">
        <ele>778.6</ele>
        <time>2025-08-07T14:25:13Z</time>
      </trkpt>
      <trkpt lat="45.86344" lon="2.88709">
        <ele>778.4</ele>
        <time>2025-08-07T14:25:14Z</time>
      </trkpt>
      <trkpt lat="45.86338" lon="2.88715">
        <ele>778</ele>
        <time>2025-08-07T14:25:15Z</time>
      </trkpt>
      <trkpt lat="45.86332" lon="2.88722">
        <ele>777.8</ele>
        <time>2025-08-07T14:25:16Z</time>
      </trkpt>
      <trkpt lat="45.86331" lon="2.88724">
        <ele>777.6</ele>
        <time>2025-08-07T14:25:17Z</time>
      </trkpt>
      <trkpt lat="45.8633" lon="2.88725">
        <ele>777.4</ele>
        <time>2025-08-07T14:25:18Z</time>
      </trkpt>
      <trkpt lat="45.86329" lon="2.88726">
        <ele>777.2</ele>
        <time>2025-08-07T14:25:19Z</time>
      </trkpt>
      <trkpt lat="45.86328" lon="2.88727">
        <ele>777</ele>
        <time>2025-08-07T14:25:20Z</time>
      </trkpt>
      <trkpt lat="45.86327" lon="2.88728">
        <ele>777</ele>
        <time>2025-08-07T14:25:21Z</time>
      </trkpt>
      <trkpt lat="45.86326" lon="2.88729">
        <ele>776.8</ele>
        <time>2025-08-07T14:25:22Z</time>
      </trkpt>
      <trkpt lat="45.86324" lon="2.8873">
        <ele>776.6</ele>
        <time>2025-08-07T14:25:23Z</time>
      </trkpt>
      <trkpt lat="45.86323" lon="2.88732">
        <ele>776.4</ele>
        <time>2025-08-07T14:25:24Z</time>
      </trkpt>
      <trkpt lat="45.86322" lon="2.88733">
        <ele>776.2</ele>
        <time>2025-08-07T14:25:25Z</time>
      </trkpt>
      <trkpt lat="45.86321" lon="2.88734">
        <ele>775.8</ele>
        <time>2025-08-07T14:25:26Z</time>
      </trkpt>
      <trkpt lat="45.8632" lon="2.88735">
        <ele>775.4</ele>
        <time>2025-08-07T14:25:27Z</time>
      </trkpt>
      <trkpt lat="45.86319" lon="2.88736">
        <ele>775</ele>
        <time>2025-08-07T14:25:28Z</time>
      </trkpt>
      <trkpt lat="45.86315" lon="2.8874">
        <ele>774.4</ele>
        <time>2025-08-07T14:25:29Z</time>
      </trkpt>
      <trkpt lat="45.86311" lon="2.88743">
        <ele>774</ele>
        <time>2025-08-07T14:25:30Z</time>
      </trkpt>
      <trkpt lat="45.86306" lon="2.88747">
        <ele>773.4</ele>
        <time>2025-08-07T14:25:31Z</time>
      </trkpt>
      <trkpt lat="45.863" lon="2.88755">
        <ele>772.8</ele>
        <time>2025-08-07T14:25:32Z</time>
      </trkpt>
      <trkpt lat="45.86296" lon="2.88761">
        <ele>772.2</ele>
        <time>2025-08-07T14:25:33Z</time>
      </trkpt>
      <trkpt lat="45.8629" lon="2.88769">
        <ele>771.4</ele>
        <time>2025-08-07T14:25:34Z</time>
      </trkpt>
      <trkpt lat="45.86283" lon="2.88776">
        <ele>770.6</ele>
        <time>2025-08-07T14:25:35Z</time>
      </trkpt>
      <trkpt lat="45.86276" lon="2.88784">
        <ele>769.6</ele>
        <time>2025-08-07T14:25:36Z</time>
      </trkpt>
      <trkpt lat="45.86267" lon="2.88794">
        <ele>768.8</ele>
        <time>2025-08-07T14:25:37Z</time>
      </trkpt>
      <trkpt lat="45.8626" lon="2.888">
        <ele>767.8</ele>
        <time>2025-08-07T14:25:38Z</time>
      </trkpt>
      <trkpt lat="45.86252" lon="2.88807">
        <ele>766.8</ele>
        <time>2025-08-07T14:25:39Z</time>
      </trkpt>
      <trkpt lat="45.86244" lon="2.88815">
        <ele>766</ele>
        <time>2025-08-07T14:25:40Z</time>
      </trkpt>
      <trkpt lat="45.86235" lon="2.88822">
        <ele>765.2</ele>
        <time>2025-08-07T14:25:41Z</time>
      </trkpt>
      <trkpt lat="45.86228" lon="2.8883">
        <ele>764.4</ele>
        <time>2025-08-07T14:25:42Z</time>
      </trkpt>
      <trkpt lat="45.86221" lon="2.88838">
        <ele>763.8</ele>
        <time>2025-08-07T14:25:43Z</time>
      </trkpt>
      <trkpt lat="45.86214" lon="2.88846">
        <ele>763.2</ele>
        <time>2025-08-07T14:25:44Z</time>
      </trkpt>
      <trkpt lat="45.86207" lon="2.88856">
        <ele>762.4</ele>
        <time>2025-08-07T14:25:45Z</time>
      </trkpt>
      <trkpt lat="45.862" lon="2.88865">
        <ele>761.6</ele>
        <time>2025-08-07T14:25:46Z</time>
      </trkpt>
      <trkpt lat="45.86193" lon="2.88875">
        <ele>760.8</ele>
        <time>2025-08-07T14:25:47Z</time>
      </trkpt>
      <trkpt lat="45.86186" lon="2.88886">
        <ele>759.8</ele>
        <time>2025-08-07T14:25:48Z</time>
      </trkpt>
      <trkpt lat="45.86179" lon="2.88897">
        <ele>758.6</ele>
        <time>2025-08-07T14:25:49Z</time>
      </trkpt>
      <trkpt lat="45.86171" lon="2.8891">
        <ele>757.6</ele>
        <time>2025-08-07T14:25:50Z</time>
      </trkpt>
      <trkpt lat="45.86164" lon="2.88921">
        <ele>756.2</ele>
        <time>2025-08-07T14:25:51Z</time>
      </trkpt>
      <trkpt lat="45.86158" lon="2.88928">
        <ele>755</ele>
        <time>2025-08-07T14:25:52Z</time>
      </trkpt>
      <trkpt lat="45.86149" lon="2.88938">
        <ele>753.6</ele>
        <time>2025-08-07T14:25:53Z</time>
      </trkpt>
      <trkpt lat="45.86143" lon="2.88944">
        <ele>752.4</ele>
        <time>2025-08-07T14:25:54Z</time>
      </trkpt>
      <trkpt lat="45.86136" lon="2.88949">
        <ele>751.6</ele>
        <time>2025-08-07T14:25:55Z</time>
      </trkpt>
      <trkpt lat="45.86128" lon="2.88953">
        <ele>750.8</ele>
        <time>2025-08-07T14:25:56Z</time>
      </trkpt>
      <trkpt lat="45.8612" lon="2.88955">
        <ele>750.2</ele>
        <time>2025-08-07T14:25:57Z</time>
      </trkpt>
      <trkpt lat="45.86112" lon="2.88956">
        <ele>749.6</ele>
        <time>2025-08-07T14:25:58Z</time>
      </trkpt>
      <trkpt lat="45.86105" lon="2.88956">
        <ele>749.2</ele>
        <time>2025-08-07T14:25:59Z</time>
      </trkpt>
      <trkpt lat="45.86098" lon="2.88953">
        <ele>748.8</ele>
        <time>2025-08-07T14:26:00Z</time>
      </trkpt>
      <trkpt lat="45.86091" lon="2.8895">
        <ele>748.6</ele>
        <time>2025-08-07T14:26:01Z</time>
      </trkpt>
      <trkpt lat="45.86085" lon="2.88946">
        <ele>748.6</ele>
        <time>2025-08-07T14:26:02Z</time>
      </trkpt>
      <trkpt lat="45.8608" lon="2.88943">
        <ele>748.4</ele>
        <time>2025-08-07T14:26:03Z</time>
      </trkpt>
      <trkpt lat="45.86074" lon="2.8894">
        <ele>748.6</ele>
        <time>2025-08-07T14:26:04Z</time>
      </trkpt>
      <trkpt lat="45.86069" lon="2.88937">
        <ele>748.6</ele>
        <time>2025-08-07T14:26:05Z</time>
      </trkpt>
      <trkpt lat="45.86063" lon="2.88934">
        <ele>748.8</ele>
        <time>2025-08-07T14:26:06Z</time>
      </trkpt>
      <trkpt lat="45.86058" lon="2.88932">
        <ele>749</ele>
        <time>2025-08-07T14:26:07Z</time>
      </trkpt>
      <trkpt lat="45.86052" lon="2.88932">
        <ele>749.2</ele>
        <time>2025-08-07T14:26:08Z</time>
      </trkpt>
      <trkpt lat="45.86047" lon="2.88932">
        <ele>749.4</ele>
        <time>2025-08-07T14:26:09Z</time>
      </trkpt>
      <trkpt lat="45.86043" lon="2.88933">
        <ele>749.6</ele>
        <time>2025-08-07T14:26:10Z</time>
      </trkpt>
      <trkpt lat="45.86039" lon="2.88933">
        <ele>750</ele>
        <time>2025-08-07T14:26:11Z</time>
      </trkpt>
      <trkpt lat="45.86035" lon="2.88933">
        <ele>750.2</ele>
        <time>2025-08-07T14:26:12Z</time>
      </trkpt>
      <trkpt lat="45.86031" lon="2.88934">
        <ele>750.6</ele>
        <time>2025-08-07T14:26:13Z</time>
      </trkpt>
      <trkpt lat="45.86027" lon="2.88934">
        <ele>750.8</ele>
        <time>2025-08-07T14:26:14Z</time>
      </trkpt>
      <trkpt lat="45.86022" lon="2.88935">
        <ele>751.2</ele>
        <time>2025-08-07T14:26:15Z</time>
      </trkpt>
      <trkpt lat="45.86018" lon="2.88936">
        <ele>751.6</ele>
        <time>2025-08-07T14:26:16Z</time>
      </trkpt>
      <trkpt lat="45.86014" lon="2.88937">
        <ele>752</ele>
        <time>2025-08-07T14:26:17Z</time>
      </trkpt>
      <trkpt lat="45.8601" lon="2.88937">
        <ele>752.2</ele>
        <time>2025-08-07T14:26:18Z</time>
      </trkpt>
      <trkpt lat="45.86006" lon="2.88937">
        <ele>752.6</ele>
        <time>2025-08-07T14:26:19Z</time>
      </trkpt>
      <trkpt lat="45.86002" lon="2.88937">
        <ele>753</ele>
        <time>2025-08-07T14:26:20Z</time>
      </trkpt>
      <trkpt lat="45.85998" lon="2.88937">
        <ele>753.4</ele>
        <time>2025-08-07T14:26:21Z</time>
      </trkpt>
      <trkpt lat="45.85994" lon="2.88937">
        <ele>753.6</ele>
        <time>2025-08-07T14:26:22Z</time>
      </trkpt>
      <trkpt lat="45.8599" lon="2.88938">
        <ele>754</ele>
        <time>2025-08-07T14:26:23Z</time>
      </trkpt>
      <trkpt lat="45.85986" lon="2.88938">
        <ele>754.2</ele>
        <time>2025-08-07T14:26:24Z</time>
      </trkpt>
      <trkpt lat="45.85982" lon="2.88938">
        <ele>754.6</ele>
        <time>2025-08-07T14:26:25Z</time>
      </trkpt>
      <trkpt lat="45.85979" lon="2.88938">
        <ele>754.8</ele>
        <time>2025-08-07T14:26:26Z</time>
      </trkpt>
      <trkpt lat="45.85975" lon="2.88937">
        <ele>755.2</ele>
        <time>2025-08-07T14:26:27Z</time>
      </trkpt>
      <trkpt lat="45.85971" lon="2.88935">
        <ele>755.4</ele>
        <time>2025-08-07T14:26:28Z</time>
      </trkpt>
      <trkpt lat="45.85967" lon="2.88934">
        <ele>755.8</ele>
        <time>2025-08-07T14:26:29Z</time>
      </trkpt>
      <trkpt lat="45.85964" lon="2.88933">
        <ele>756</ele>
        <time>2025-08-07T14:26:30Z</time>
      </trkpt>
      <trkpt lat="45.85961" lon="2.88932">
        <ele>756.4</ele>
        <time>2025-08-07T14:26:31Z</time>
      </trkpt>
      <trkpt lat="45.85957" lon="2.88932">
        <ele>756.6</ele>
        <time>2025-08-07T14:26:32Z</time>
      </trkpt>
      <trkpt lat="45.85954" lon="2.88933">
        <ele>757</ele>
        <time>2025-08-07T14:26:33Z</time>
      </trkpt>
      <trkpt lat="45.8595" lon="2.88933">
        <ele>757.2</ele>
        <time>2025-08-07T14:26:34Z</time>
      </trkpt>
      <trkpt lat="45.85947" lon="2.88933">
        <ele>757.6</ele>
        <time>2025-08-07T14:26:35Z</time>
      </trkpt>
      <trkpt lat="45.85943" lon="2.88934">
        <ele>757.8</ele>
        <time>2025-08-07T14:26:36Z</time>
      </trkpt>
      <trkpt lat="45.8594" lon="2.88935">
        <ele>758</ele>
        <time>2025-08-07T14:26:37Z</time>
      </trkpt>
      <trkpt lat="45.85936" lon="2.88937">
        <ele>758.2</ele>
        <time>2025-08-07T14:26:38Z</time>
      </trkpt>
      <trkpt lat="45.85932" lon="2.88939">
        <ele>758.6</ele>
        <time>2025-08-07T14:26:39Z</time>
      </trkpt>
      <trkpt lat="45.85929" lon="2.88941">
        <ele>758.8</ele>
        <time>2025-08-07T14:26:40Z</time>
      </trkpt>
      <trkpt lat="45.85926" lon="2.88943">
        <ele>759</ele>
        <time>2025-08-07T14:26:41Z</time>
      </trkpt>
      <trkpt lat="45.85922" lon="2.88946">
        <ele>759.2</ele>
        <time>2025-08-07T14:26:42Z</time>
      </trkpt>
      <trkpt lat="45.85919" lon="2.88948">
        <ele>759.4</ele>
        <time>2025-08-07T14:26:43Z</time>
      </trkpt>
      <trkpt lat="45.85914" lon="2.88951">
        <ele>759.6</ele>
        <time>2025-08-07T14:26:44Z</time>
      </trkpt>
      <trkpt lat="45.85911" lon="2.88953">
        <ele>759.6</ele>
        <time>2025-08-07T14:26:45Z</time>
      </trkpt>
      <trkpt lat="45.85908" lon="2.88955">
        <ele>759.8</ele>
        <time>2025-08-07T14:26:46Z</time>
      </trkpt>
      <trkpt lat="45.85905" lon="2.88956">
        <ele>760</ele>
        <time>2025-08-07T14:26:47Z</time>
      </trkpt>
      <trkpt lat="45.85902" lon="2.88958">
        <ele>760</ele>
        <time>2025-08-07T14:26:48Z</time>
      </trkpt>
      <trkpt lat="45.85898" lon="2.88961">
        <ele>760.2</ele>
        <time>2025-08-07T14:26:49Z</time>
      </trkpt>
      <trkpt lat="45.85894" lon="2.88964">
        <ele>760.6</ele>
        <time>2025-08-07T14:26:50Z</time>
      </trkpt>
      <trkpt lat="45.8589" lon="2.88965">
        <ele>760.6</ele>
        <time>2025-08-07T14:26:51Z</time>
      </trkpt>
      <trkpt lat="45.85887" lon="2.88968">
        <ele>760.8</ele>
        <time>2025-08-07T14:26:52Z</time>
      </trkpt>
      <trkpt lat="45.85884" lon="2.88971">
        <ele>760.8</ele>
        <time>2025-08-07T14:26:53Z</time>
      </trkpt>
      <trkpt lat="45.85883" lon="2.88973">
        <ele>761</ele>
        <time>2025-08-07T14:26:54Z</time>
      </trkpt>
      <trkpt lat="45.8588" lon="2.88975">
        <ele>761.2</ele>
        <time>2025-08-07T14:26:55Z</time>
      </trkpt>
      <trkpt lat="45.85877" lon="2.88978">
        <ele>761.4</ele>
        <time>2025-08-07T14:26:56Z</time>
      </trkpt>
      <trkpt lat="45.85874" lon="2.88981">
        <ele>761.6</ele>
        <time>2025-08-07T14:26:57Z</time>
      </trkpt>
      <trkpt lat="45.85871" lon="2.88985">
        <ele>761.8</ele>
        <time>2025-08-07T14:26:58Z</time>
      </trkpt>
      <trkpt lat="45.85868" lon="2.88989">
        <ele>762</ele>
        <time>2025-08-07T14:26:59Z</time>
      </trkpt>
      <trkpt lat="45.85864" lon="2.88993">
        <ele>762.2</ele>
        <time>2025-08-07T14:27:00Z</time>
      </trkpt>
      <trkpt lat="45.85861" lon="2.88995">
        <ele>762.4</ele>
        <time>2025-08-07T14:27:01Z</time>
      </trkpt>
      <trkpt lat="45.85858" lon="2.88998">
        <ele>762.6</ele>
        <time>2025-08-07T14:27:02Z</time>
      </trkpt>
      <trkpt lat="45.85855" lon="2.89">
        <ele>762.8</ele>
        <time>2025-08-07T14:27:03Z</time>
      </trkpt>
      <trkpt lat="45.85853" lon="2.89002">
        <ele>763</ele>
        <time>2025-08-07T14:27:04Z</time>
      </trkpt>
      <trkpt lat="45.85851" lon="2.89004">
        <ele>763.2</ele>
        <time>2025-08-07T14:27:05Z</time>
      </trkpt>
      <trkpt lat="45.85848" lon="2.89006">
        <ele>763.6</ele>
        <time>2025-08-07T14:27:06Z</time>
      </trkpt>
      <trkpt lat="45.85846" lon="2.89008">
        <ele>763.8</ele>
        <time>2025-08-07T14:27:07Z</time>
      </trkpt>
      <trkpt lat="45.85844" lon="2.8901">
        <ele>764</ele>
        <time>2025-08-07T14:27:08Z</time>
      </trkpt>
      <trkpt lat="45.85841" lon="2.89011">
        <ele>764.2</ele>
        <time>2025-08-07T14:27:09Z</time>
      </trkpt>
      <trkpt lat="45.85839" lon="2.89013">
        <ele>764.4</ele>
        <time>2025-08-07T14:27:10Z</time>
      </trkpt>
      <trkpt lat="45.85836" lon="2.89013">
        <ele>764.6</ele>
        <time>2025-08-07T14:27:11Z</time>
      </trkpt>
      <trkpt lat="45.85834" lon="2.89014">
        <ele>765</ele>
        <time>2025-08-07T14:27:12Z</time>
      </trkpt>
      <trkpt lat="45.85832" lon="2.89015">
        <ele>765.2</ele>
        <time>2025-08-07T14:27:13Z</time>
      </trkpt>
      <trkpt lat="45.85829" lon="2.89016">
        <ele>765.4</ele>
        <time>2025-08-07T14:27:14Z</time>
      </trkpt>
      <trkpt lat="45.85826" lon="2.89017">
        <ele>765.8</ele>
        <time>2025-08-07T14:27:15Z</time>
      </trkpt>
      <trkpt lat="45.85824" lon="2.89019">
        <ele>766</ele>
        <time>2025-08-07T14:27:16Z</time>
      </trkpt>
      <trkpt lat="45.8582" lon="2.89021">
        <ele>766.4</ele>
        <time>2025-08-07T14:27:17Z</time>
      </trkpt>
      <trkpt lat="45.85817" lon="2.89022">
        <ele>766.6</ele>
        <time>2025-08-07T14:27:18Z</time>
      </trkpt>
      <trkpt lat="45.85814" lon="2.89023">
        <ele>766.8</ele>
        <time>2025-08-07T14:27:19Z</time>
      </trkpt>
      <trkpt lat="45.85811" lon="2.89024">
        <ele>767.2</ele>
        <time>2025-08-07T14:27:20Z</time>
      </trkpt>
      <trkpt lat="45.85808" lon="2.89024">
        <ele>767.4</ele>
        <time>2025-08-07T14:27:21Z</time>
      </trkpt>
      <trkpt lat="45.85804" lon="2.89025">
        <ele>767.8</ele>
        <time>2025-08-07T14:27:22Z</time>
      </trkpt>
      <trkpt lat="45.85799" lon="2.89025">
        <ele>768</ele>
        <time>2025-08-07T14:27:23Z</time>
      </trkpt>
      <trkpt lat="45.85793" lon="2.89025">
        <ele>768.4</ele>
        <time>2025-08-07T14:27:24Z</time>
      </trkpt>
      <trkpt lat="45.85789" lon="2.89025">
        <ele>768.6</ele>
        <time>2025-08-07T14:27:25Z</time>
      </trkpt>
      <trkpt lat="45.85786" lon="2.89026">
        <ele>769</ele>
        <time>2025-08-07T14:27:26Z</time>
      </trkpt>
      <trkpt lat="45.85784" lon="2.89026">
        <ele>769.2</ele>
        <time>2025-08-07T14:27:27Z</time>
      </trkpt>
      <trkpt lat="45.85782" lon="2.89026">
        <ele>769.6</ele>
        <time>2025-08-07T14:27:28Z</time>
      </trkpt>
      <trkpt lat="45.8578" lon="2.89026">
        <ele>769.8</ele>
        <time>2025-08-07T14:27:29Z</time>
      </trkpt>
      <trkpt lat="45.85777" lon="2.89027">
        <ele>770</ele>
        <time>2025-08-07T14:27:30Z</time>
      </trkpt>
      <trkpt lat="45.85773" lon="2.89029">
        <ele>770.4</ele>
        <time>2025-08-07T14:27:31Z</time>
      </trkpt>
      <trkpt lat="45.8577" lon="2.89029">
        <ele>770.6</ele>
        <time>2025-08-07T14:27:32Z</time>
      </trkpt>
      <trkpt lat="45.85768" lon="2.8903">
        <ele>771</ele>
        <time>2025-08-07T14:27:33Z</time>
      </trkpt>
      <trkpt lat="45.85766" lon="2.8903">
        <ele>771.2</ele>
        <time>2025-08-07T14:27:34Z</time>
      </trkpt>
      <trkpt lat="45.85764" lon="2.8903">
        <ele>771.6</ele>
        <time>2025-08-07T14:27:35Z</time>
      </trkpt>
      <trkpt lat="45.85763" lon="2.89031">
        <ele>771.8</ele>
        <time>2025-08-07T14:27:36Z</time>
      </trkpt>
      <trkpt lat="45.8576" lon="2.89032">
        <ele>772.2</ele>
        <time>2025-08-07T14:27:37Z</time>
      </trkpt>
      <trkpt lat="45.85757" lon="2.89033">
        <ele>772.6</ele>
        <time>2025-08-07T14:27:38Z</time>
      </trkpt>
      <trkpt lat="45.85754" lon="2.89034">
        <ele>772.8</ele>
        <time>2025-08-07T14:27:39Z</time>
      </trkpt>
      <trkpt lat="45.85752" lon="2.89035">
        <ele>773.2</ele>
        <time>2025-08-07T14:27:40Z</time>
      </trkpt>
      <trkpt lat="45.8575" lon="2.89036">
        <ele>773.4</ele>
        <time>2025-08-07T14:27:41Z</time>
      </trkpt>
      <trkpt lat="45.85747" lon="2.89038">
        <ele>773.8</ele>
        <time>2025-08-07T14:27:42Z</time>
      </trkpt>
      <trkpt lat="45.85745" lon="2.89039">
        <ele>774</ele>
        <time>2025-08-07T14:27:43Z</time>
      </trkpt>
      <trkpt lat="45.85742" lon="2.8904">
        <ele>774.4</ele>
        <time>2025-08-07T14:27:44Z</time>
      </trkpt>
      <trkpt lat="45.85738" lon="2.89041">
        <ele>774.6</ele>
        <time>2025-08-07T14:27:45Z</time>
      </trkpt>
      <trkpt lat="45.85734" lon="2.89043">
        <ele>774.8</ele>
        <time>2025-08-07T14:27:46Z</time>
      </trkpt>
      <trkpt lat="45.85731" lon="2.89045">
        <ele>775.2</ele>
        <time>2025-08-07T14:27:47Z</time>
      </trkpt>
      <trkpt lat="45.85728" lon="2.89047">
        <ele>775.4</ele>
        <time>2025-08-07T14:27:48Z</time>
      </trkpt>
      <trkpt lat="45.85724" lon="2.89048">
        <ele>775.8</ele>
        <time>2025-08-07T14:27:49Z</time>
      </trkpt>
      <trkpt lat="45.85721" lon="2.8905">
        <ele>776</ele>
        <time>2025-08-07T14:27:50Z</time>
      </trkpt>
      <trkpt lat="45.85717" lon="2.89051">
        <ele>776.4</ele>
        <time>2025-08-07T14:27:51Z</time>
      </trkpt>
      <trkpt lat="45.85713" lon="2.89053">
        <ele>776.8</ele>
        <time>2025-08-07T14:27:52Z</time>
      </trkpt>
      <trkpt lat="45.85709" lon="2.89055">
        <ele>777</ele>
        <time>2025-08-07T14:27:53Z</time>
      </trkpt>
      <trkpt lat="45.85705" lon="2.89057">
        <ele>777.4</ele>
        <time>2025-08-07T14:27:54Z</time>
      </trkpt>
      <trkpt lat="45.85703" lon="2.89058">
        <ele>777.8</ele>
        <time>2025-08-07T14:27:55Z</time>
      </trkpt>
      <trkpt lat="45.85699" lon="2.8906">
        <ele>778</ele>
        <time>2025-08-07T14:27:56Z</time>
      </trkpt>
      <trkpt lat="45.85695" lon="2.89062">
        <ele>778.4</ele>
        <time>2025-08-07T14:27:57Z</time>
      </trkpt>
      <trkpt lat="45.85691" lon="2.89065">
        <ele>778.8</ele>
        <time>2025-08-07T14:27:58Z</time>
      </trkpt>
      <trkpt lat="45.85687" lon="2.89068">
        <ele>779.2</ele>
        <time>2025-08-07T14:27:59Z</time>
      </trkpt>
      <trkpt lat="45.85683" lon="2.8907">
        <ele>779.6</ele>
        <time>2025-08-07T14:28:00Z</time>
      </trkpt>
      <trkpt lat="45.8568" lon="2.89072">
        <ele>779.8</ele>
        <time>2025-08-07T14:28:01Z</time>
      </trkpt>
      <trkpt lat="45.85677" lon="2.89073">
        <ele>780.2</ele>
        <time>2025-08-07T14:28:02Z</time>
      </trkpt>
      <trkpt lat="45.85674" lon="2.89075">
        <ele>780.6</ele>
        <time>2025-08-07T14:28:03Z</time>
      </trkpt>
      <trkpt lat="45.85671" lon="2.89075">
        <ele>781</ele>
        <time>2025-08-07T14:28:04Z</time>
      </trkpt>
      <trkpt lat="45.85668" lon="2.89077">
        <ele>781.4</ele>
        <time>2025-08-07T14:28:05Z</time>
      </trkpt>
      <trkpt lat="45.85665" lon="2.8908">
        <ele>781.8</ele>
        <time>2025-08-07T14:28:06Z</time>
      </trkpt>
      <trkpt lat="45.85661" lon="2.89082">
        <ele>782.2</ele>
        <time>2025-08-07T14:28:07Z</time>
      </trkpt>
      <trkpt lat="45.85658" lon="2.89085">
        <ele>782.6</ele>
        <time>2025-08-07T14:28:08Z</time>
      </trkpt>
      <trkpt lat="45.85655" lon="2.89087">
        <ele>782.8</ele>
        <time>2025-08-07T14:28:09Z</time>
      </trkpt>
      <trkpt lat="45.85652" lon="2.89089">
        <ele>783.2</ele>
        <time>2025-08-07T14:28:10Z</time>
      </trkpt>
      <trkpt lat="45.85649" lon="2.89092">
        <ele>783.6</ele>
        <time>2025-08-07T14:28:11Z</time>
      </trkpt>
      <trkpt lat="45.85646" lon="2.89094">
        <ele>783.8</ele>
        <time>2025-08-07T14:28:12Z</time>
      </trkpt>
      <trkpt lat="45.85642" lon="2.89096">
        <ele>784.2</ele>
        <time>2025-08-07T14:28:13Z</time>
      </trkpt>
      <trkpt lat="45.85639" lon="2.89098">
        <ele>784.6</ele>
        <time>2025-08-07T14:28:14Z</time>
      </trkpt>
      <trkpt lat="45.85636" lon="2.89099">
        <ele>785</ele>
        <time>2025-08-07T14:28:15Z</time>
      </trkpt>
      <trkpt lat="45.85633" lon="2.89101">
        <ele>785.4</ele>
        <time>2025-08-07T14:28:16Z</time>
      </trkpt>
      <trkpt lat="45.85631" lon="2.89103">
        <ele>785.8</ele>
        <time>2025-08-07T14:28:17Z</time>
      </trkpt>
      <trkpt lat="45.85627" lon="2.89105">
        <ele>786.4</ele>
        <time>2025-08-07T14:28:18Z</time>
      </trkpt>
      <trkpt lat="45.85622" lon="2.89108">
        <ele>786.6</ele>
        <time>2025-08-07T14:28:19Z</time>
      </trkpt>
      <trkpt lat="45.85617" lon="2.89112">
        <ele>787</ele>
        <time>2025-08-07T14:28:20Z</time>
      </trkpt>
      <trkpt lat="45.85612" lon="2.89115">
        <ele>787.4</ele>
        <time>2025-08-07T14:28:21Z</time>
      </trkpt>
      <trkpt lat="45.85608" lon="2.8912">
        <ele>787.6</ele>
        <time>2025-08-07T14:28:22Z</time>
      </trkpt>
      <trkpt lat="45.85604" lon="2.89125">
        <ele>788</ele>
        <time>2025-08-07T14:28:23Z</time>
      </trkpt>
      <trkpt lat="45.856" lon="2.8913">
        <ele>788.2</ele>
        <time>2025-08-07T14:28:24Z</time>
      </trkpt>
      <trkpt lat="45.85595" lon="2.89134">
        <ele>788.4</ele>
        <time>2025-08-07T14:28:25Z</time>
      </trkpt>
      <trkpt lat="45.8559" lon="2.89138">
        <ele>788.8</ele>
        <time>2025-08-07T14:28:26Z</time>
      </trkpt>
      <trkpt lat="45.85586" lon="2.89141">
        <ele>789</ele>
        <time>2025-08-07T14:28:27Z</time>
      </trkpt>
      <trkpt lat="45.85581" lon="2.89144">
        <ele>789.2</ele>
        <time>2025-08-07T14:28:28Z</time>
      </trkpt>
      <trkpt lat="45.85576" lon="2.89147">
        <ele>789.2</ele>
        <time>2025-08-07T14:28:29Z</time>
      </trkpt>
      <trkpt lat="45.85572" lon="2.89148">
        <ele>789.4</ele>
        <time>2025-08-07T14:28:30Z</time>
      </trkpt>
      <trkpt lat="45.85567" lon="2.89149">
        <ele>789.4</ele>
        <time>2025-08-07T14:28:31Z</time>
      </trkpt>
      <trkpt lat="45.85562" lon="2.8915">
        <ele>789.6</ele>
        <time>2025-08-07T14:28:32Z</time>
      </trkpt>
      <trkpt lat="45.85557" lon="2.89151">
        <ele>789.6</ele>
        <time>2025-08-07T14:28:33Z</time>
      </trkpt>
      <trkpt lat="45.85553" lon="2.89152">
        <ele>789.8</ele>
        <time>2025-08-07T14:28:34Z</time>
      </trkpt>
      <trkpt lat="45.85549" lon="2.89153">
        <ele>789.8</ele>
        <time>2025-08-07T14:28:35Z</time>
      </trkpt>
      <trkpt lat="45.85545" lon="2.89154">
        <ele>790</ele>
        <time>2025-08-07T14:28:36Z</time>
      </trkpt>
      <trkpt lat="45.85541" lon="2.89155">
        <ele>790</ele>
        <time>2025-08-07T14:28:37Z</time>
      </trkpt>
      <trkpt lat="45.85536" lon="2.89156">
        <ele>790.2</ele>
        <time>2025-08-07T14:28:38Z</time>
      </trkpt>
      <trkpt lat="45.85533" lon="2.89158">
        <ele>790.4</ele>
        <time>2025-08-07T14:28:39Z</time>
      </trkpt>
      <trkpt lat="45.85529" lon="2.89159">
        <ele>790.4</ele>
        <time>2025-08-07T14:28:40Z</time>
      </trkpt>
      <trkpt lat="45.85525" lon="2.8916">
        <ele>790.6</ele>
        <time>2025-08-07T14:28:41Z</time>
      </trkpt>
      <trkpt lat="45.85521" lon="2.89162">
        <ele>790.6</ele>
        <time>2025-08-07T14:28:42Z</time>
      </trkpt>
      <trkpt lat="45.85517" lon="2.89164">
        <ele>790.6</ele>
        <time>2025-08-07T14:28:43Z</time>
      </trkpt>
      <trkpt lat="45.85513" lon="2.89166">
        <ele>790.8</ele>
        <time>2025-08-07T14:28:44Z</time>
      </trkpt>
      <trkpt lat="45.85509" lon="2.89168">
        <ele>790.8</ele>
        <time>2025-08-07T14:28:45Z</time>
      </trkpt>
      <trkpt lat="45.85505" lon="2.8917">
        <ele>790.8</ele>
        <time>2025-08-07T14:28:46Z</time>
      </trkpt>
      <trkpt lat="45.85501" lon="2.89172">
        <ele>791</ele>
        <time>2025-08-07T14:28:47Z</time>
      </trkpt>
      <trkpt lat="45.85497" lon="2.89174">
        <ele>791</ele>
        <time>2025-08-07T14:28:48Z</time>
      </trkpt>
      <trkpt lat="45.85493" lon="2.89177">
        <ele>791</ele>
        <time>2025-08-07T14:28:49Z</time>
      </trkpt>
      <trkpt lat="45.85489" lon="2.89179">
        <ele>791</ele>
        <time>2025-08-07T14:28:50Z</time>
      </trkpt>
      <trkpt lat="45.85485" lon="2.89181">
        <ele>791</ele>
        <time>2025-08-07T14:28:51Z</time>
      </trkpt>
      <trkpt lat="45.85481" lon="2.89184">
        <ele>791</ele>
        <time>2025-08-07T14:28:52Z</time>
      </trkpt>
      <trkpt lat="45.85476" lon="2.89186">
        <ele>791.2</ele>
        <time>2025-08-07T14:28:53Z</time>
      </trkpt>
      <trkpt lat="45.85472" lon="2.89188">
        <ele>791.2</ele>
        <time>2025-08-07T14:28:54Z</time>
      </trkpt>
      <trkpt lat="45.85467" lon="2.89191">
        <ele>791.2</ele>
        <time>2025-08-07T14:28:55Z</time>
      </trkpt>
      <trkpt lat="45.85463" lon="2.89194">
        <ele>791.2</ele>
        <time>2025-08-07T14:28:56Z</time>
      </trkpt>
      <trkpt lat="45.85459" lon="2.89197">
        <ele>791.2</ele>
        <time>2025-08-07T14:28:57Z</time>
      </trkpt>
      <trkpt lat="45.85454" lon="2.892">
        <ele>791.2</ele>
        <time>2025-08-07T14:28:58Z</time>
      </trkpt>
      <trkpt lat="45.85451" lon="2.89203">
        <ele>791.4</ele>
        <time>2025-08-07T14:28:59Z</time>
      </trkpt>
      <trkpt lat="45.85447" lon="2.89205">
        <ele>791.2</ele>
        <time>2025-08-07T14:29:00Z</time>
      </trkpt>
      <trkpt lat="45.85443" lon="2.89208">
        <ele>791.2</ele>
        <time>2025-08-07T14:29:01Z</time>
      </trkpt>
      <trkpt lat="45.85439" lon="2.89212">
        <ele>791.4</ele>
        <time>2025-08-07T14:29:02Z</time>
      </trkpt>
      <trkpt lat="45.85435" lon="2.89215">
        <ele>791.4</ele>
        <time>2025-08-07T14:29:03Z</time>
      </trkpt>
      <trkpt lat="45.85432" lon="2.89219">
        <ele>791.6</ele>
        <time>2025-08-07T14:29:04Z</time>
      </trkpt>
      <trkpt lat="45.85428" lon="2.89222">
        <ele>791.6</ele>
        <time>2025-08-07T14:29:05Z</time>
      </trkpt>
      <trkpt lat="45.85424" lon="2.89225">
        <ele>791.6</ele>
        <time>2025-08-07T14:29:06Z</time>
      </trkpt>
      <trkpt lat="45.8542" lon="2.89228">
        <ele>791.6</ele>
        <time>2025-08-07T14:29:07Z</time>
      </trkpt>
      <trkpt lat="45.85416" lon="2.89231">
        <ele>791.8</ele>
        <time>2025-08-07T14:29:08Z</time>
      </trkpt>
      <trkpt lat="45.85411" lon="2.89234">
        <ele>791.8</ele>
        <time>2025-08-07T14:29:09Z</time>
      </trkpt>
      <trkpt lat="45.85407" lon="2.89237">
        <ele>792</ele>
        <time>2025-08-07T14:29:10Z</time>
      </trkpt>
      <trkpt lat="45.85403" lon="2.8924">
        <ele>792</ele>
        <time>2025-08-07T14:29:11Z</time>
      </trkpt>
      <trkpt lat="45.85399" lon="2.89242">
        <ele>792</ele>
        <time>2025-08-07T14:29:12Z</time>
      </trkpt>
      <trkpt lat="45.85394" lon="2.89244">
        <ele>792.2</ele>
        <time>2025-08-07T14:29:13Z</time>
      </trkpt>
      <trkpt lat="45.8539" lon="2.89245">
        <ele>792.2</ele>
        <time>2025-08-07T14:29:14Z</time>
      </trkpt>
      <trkpt lat="45.85385" lon="2.89245">
        <ele>792.4</ele>
        <time>2025-08-07T14:29:15Z</time>
      </trkpt>
      <trkpt lat="45.85381" lon="2.89245">
        <ele>792.4</ele>
        <time>2025-08-07T14:29:16Z</time>
      </trkpt>
      <trkpt lat="45.85377" lon="2.89245">
        <ele>792.6</ele>
        <time>2025-08-07T14:29:17Z</time>
      </trkpt>
      <trkpt lat="45.85373" lon="2.89245">
        <ele>792.8</ele>
        <time>2025-08-07T14:29:18Z</time>
      </trkpt>
      <trkpt lat="45.8537" lon="2.89245">
        <ele>793</ele>
        <time>2025-08-07T14:29:19Z</time>
      </trkpt>
      <trkpt lat="45.85367" lon="2.89245">
        <ele>793.2</ele>
        <time>2025-08-07T14:29:20Z</time>
      </trkpt>
      <trkpt lat="45.85364" lon="2.89245">
        <ele>793.4</ele>
        <time>2025-08-07T14:29:21Z</time>
      </trkpt>
      <trkpt lat="45.8536" lon="2.89245">
        <ele>793.4</ele>
        <time>2025-08-07T14:29:22Z</time>
      </trkpt>
      <trkpt lat="45.85356" lon="2.89244">
        <ele>793.6</ele>
        <time>2025-08-07T14:29:23Z</time>
      </trkpt>
      <trkpt lat="45.85353" lon="2.89244">
        <ele>793.8</ele>
        <time>2025-08-07T14:29:24Z</time>
      </trkpt>
      <trkpt lat="45.85349" lon="2.89243">
        <ele>794</ele>
        <time>2025-08-07T14:29:25Z</time>
      </trkpt>
      <trkpt lat="45.85345" lon="2.89243">
        <ele>794.2</ele>
        <time>2025-08-07T14:29:26Z</time>
      </trkpt>
      <trkpt lat="45.8534" lon="2.89242">
        <ele>794.4</ele>
        <time>2025-08-07T14:29:27Z</time>
      </trkpt>
      <trkpt lat="45.85336" lon="2.89242">
        <ele>794.8</ele>
        <time>2025-08-07T14:29:28Z</time>
      </trkpt>
      <trkpt lat="45.85332" lon="2.89242">
        <ele>795</ele>
        <time>2025-08-07T14:29:29Z</time>
      </trkpt>
      <trkpt lat="45.85328" lon="2.8924">
        <ele>795.2</ele>
        <time>2025-08-07T14:29:30Z</time>
      </trkpt>
      <trkpt lat="45.85324" lon="2.8924">
        <ele>795.4</ele>
        <time>2025-08-07T14:29:31Z</time>
      </trkpt>
      <trkpt lat="45.85321" lon="2.8924">
        <ele>795.6</ele>
        <time>2025-08-07T14:29:32Z</time>
      </trkpt>
      <trkpt lat="45.85317" lon="2.89239">
        <ele>796</ele>
        <time>2025-08-07T14:29:33Z</time>
      </trkpt>
      <trkpt lat="45.85313" lon="2.89237">
        <ele>796.2</ele>
        <time>2025-08-07T14:29:34Z</time>
      </trkpt>
      <trkpt lat="45.85308" lon="2.89236">
        <ele>796.4</ele>
        <time>2025-08-07T14:29:35Z</time>
      </trkpt>
      <trkpt lat="45.85305" lon="2.89235">
        <ele>796.6</ele>
        <time>2025-08-07T14:29:36Z</time>
      </trkpt>
      <trkpt lat="45.85301" lon="2.89235">
        <ele>797</ele>
        <time>2025-08-07T14:29:37Z</time>
      </trkpt>
      <trkpt lat="45.85297" lon="2.89234">
        <ele>797.2</ele>
        <time>2025-08-07T14:29:38Z</time>
      </trkpt>
      <trkpt lat="45.85294" lon="2.89233">
        <ele>797.6</ele>
        <time>2025-08-07T14:29:39Z</time>
      </trkpt>
      <trkpt lat="45.85289" lon="2.89233">
        <ele>797.8</ele>
        <time>2025-08-07T14:29:40Z</time>
      </trkpt>
      <trkpt lat="45.85286" lon="2.89233">
        <ele>798.2</ele>
        <time>2025-08-07T14:29:41Z</time>
      </trkpt>
      <trkpt lat="45.85282" lon="2.89233">
        <ele>798.6</ele>
        <time>2025-08-07T14:29:42Z</time>
      </trkpt>
      <trkpt lat="45.85279" lon="2.89232">
        <ele>798.8</ele>
        <time>2025-08-07T14:29:43Z</time>
      </trkpt>
      <trkpt lat="45.85275" lon="2.89232">
        <ele>799.2</ele>
        <time>2025-08-07T14:29:44Z</time>
      </trkpt>
      <trkpt lat="45.85272" lon="2.89231">
        <ele>799.6</ele>
        <time>2025-08-07T14:29:45Z</time>
      </trkpt>
      <trkpt lat="45.85268" lon="2.8923">
        <ele>799.8</ele>
        <time>2025-08-07T14:29:46Z</time>
      </trkpt>
      <trkpt lat="45.85265" lon="2.8923">
        <ele>800</ele>
        <time>2025-08-07T14:29:47Z</time>
      </trkpt>
      <trkpt lat="45.85261" lon="2.8923">
        <ele>800.2</ele>
        <time>2025-08-07T14:29:48Z</time>
      </trkpt>
      <trkpt lat="45.85258" lon="2.8923">
        <ele>800.6</ele>
        <time>2025-08-07T14:29:49Z</time>
      </trkpt>
      <trkpt lat="45.85255" lon="2.8923">
        <ele>800.8</ele>
        <time>2025-08-07T14:29:50Z</time>
      </trkpt>
      <trkpt lat="45.85251" lon="2.8923">
        <ele>801</ele>
        <time>2025-08-07T14:29:51Z</time>
      </trkpt>
      <trkpt lat="45.85248" lon="2.8923">
        <ele>801.2</ele>
        <time>2025-08-07T14:29:52Z</time>
      </trkpt>
      <trkpt lat="45.85245" lon="2.89231">
        <ele>801.6</ele>
        <time>2025-08-07T14:29:53Z</time>
      </trkpt>
      <trkpt lat="45.85242" lon="2.89231">
        <ele>801.8</ele>
        <time>2025-08-07T14:29:54Z</time>
      </trkpt>
      <trkpt lat="45.85239" lon="2.89231">
        <ele>802.2</ele>
        <time>2025-08-07T14:29:55Z</time>
      </trkpt>
      <trkpt lat="45.85235" lon="2.89231">
        <ele>802.4</ele>
        <time>2025-08-07T14:29:56Z</time>
      </trkpt>
      <trkpt lat="45.85233" lon="2.89231">
        <ele>802.8</ele>
        <time>2025-08-07T14:29:57Z</time>
      </trkpt>
      <trkpt lat="45.8523" lon="2.89232">
        <ele>803</ele>
        <time>2025-08-07T14:29:58Z</time>
      </trkpt>
      <trkpt lat="45.85227" lon="2.89233">
        <ele>803.4</ele>
        <time>2025-08-07T14:29:59Z</time>
      </trkpt>
      <trkpt lat="45.85225" lon="2.89234">
        <ele>803.6</ele>
        <time>2025-08-07T14:30:00Z</time>
      </trkpt>
      <trkpt lat="45.85221" lon="2.89235">
        <ele>804</ele>
        <time>2025-08-07T14:30:01Z</time>
      </trkpt>
      <trkpt lat="45.85218" lon="2.89236">
        <ele>804.2</ele>
        <time>2025-08-07T14:30:02Z</time>
      </trkpt>
      <trkpt lat="45.85214" lon="2.89238">
        <ele>804.6</ele>
        <time>2025-08-07T14:30:03Z</time>
      </trkpt>
      <trkpt lat="45.8521" lon="2.89239">
        <ele>804.8</ele>
        <time>2025-08-07T14:30:04Z</time>
      </trkpt>
      <trkpt lat="45.85206" lon="2.89241">
        <ele>805</ele>
        <time>2025-08-07T14:30:05Z</time>
      </trkpt>
      <trkpt lat="45.85203" lon="2.89243">
        <ele>805.4</ele>
        <time>2025-08-07T14:30:06Z</time>
      </trkpt>
      <trkpt lat="45.852" lon="2.89245">
        <ele>805.6</ele>
        <time>2025-08-07T14:30:07Z</time>
      </trkpt>
      <trkpt lat="45.85195" lon="2.89247">
        <ele>805.8</ele>
        <time>2025-08-07T14:30:08Z</time>
      </trkpt>
      <trkpt lat="45.85191" lon="2.89249">
        <ele>806.2</ele>
        <time>2025-08-07T14:30:09Z</time>
      </trkpt>
      <trkpt lat="45.85186" lon="2.8925">
        <ele>806.4</ele>
        <time>2025-08-07T14:30:10Z</time>
      </trkpt>
      <trkpt lat="45.85182" lon="2.89251">
        <ele>806.6</ele>
        <time>2025-08-07T14:30:11Z</time>
      </trkpt>
      <trkpt lat="45.85177" lon="2.89252">
        <ele>806.8</ele>
        <time>2025-08-07T14:30:12Z</time>
      </trkpt>
      <trkpt lat="45.85173" lon="2.89252">
        <ele>807</ele>
        <time>2025-08-07T14:30:13Z</time>
      </trkpt>
      <trkpt lat="45.85169" lon="2.89253">
        <ele>807.2</ele>
        <time>2025-08-07T14:30:14Z</time>
      </trkpt>
      <trkpt lat="45.85165" lon="2.89253">
        <ele>807.2</ele>
        <time>2025-08-07T14:30:15Z</time>
      </trkpt>
      <trkpt lat="45.85161" lon="2.89253">
        <ele>807.4</ele>
        <time>2025-08-07T14:30:16Z</time>
      </trkpt>
      <trkpt lat="45.85157" lon="2.89254">
        <ele>807.6</ele>
        <time>2025-08-07T14:30:17Z</time>
      </trkpt>
      <trkpt lat="45.85153" lon="2.89255">
        <ele>807.6</ele>
        <time>2025-08-07T14:30:18Z</time>
      </trkpt>
      <trkpt lat="45.8515" lon="2.89256">
        <ele>807.8</ele>
        <time>2025-08-07T14:30:19Z</time>
      </trkpt>
      <trkpt lat="45.85147" lon="2.89258">
        <ele>808</ele>
        <time>2025-08-07T14:30:20Z</time>
      </trkpt>
      <trkpt lat="45.85144" lon="2.89259">
        <ele>808</ele>
        <time>2025-08-07T14:30:21Z</time>
      </trkpt>
      <trkpt lat="45.85142" lon="2.89261">
        <ele>808.2</ele>
        <time>2025-08-07T14:30:22Z</time>
      </trkpt>
      <trkpt lat="45.85139" lon="2.89262">
        <ele>808.2</ele>
        <time>2025-08-07T14:30:23Z</time>
      </trkpt>
      <trkpt lat="45.85137" lon="2.89263">
        <ele>808.2</ele>
        <time>2025-08-07T14:30:24Z</time>
      </trkpt>
      <trkpt lat="45.85135" lon="2.89263">
        <ele>808.2</ele>
        <time>2025-08-07T14:30:25Z</time>
      </trkpt>
      <trkpt lat="45.85133" lon="2.89263">
        <ele>808.2</ele>
        <time>2025-08-07T14:30:26Z</time>
      </trkpt>
      <trkpt lat="45.85132" lon="2.89264">
        <ele>808.2</ele>
        <time>2025-08-07T14:30:27Z</time>
      </trkpt>
      <trkpt lat="45.85131" lon="2.89267">
        <ele>808.4</ele>
        <time>2025-08-07T14:30:28Z</time>
      </trkpt>
      <trkpt lat="45.85129" lon="2.8927">
        <ele>808.4</ele>
        <time>2025-08-07T14:30:29Z</time>
      </trkpt>
      <trkpt lat="45.85127" lon="2.89274">
        <ele>808.6</ele>
        <time>2025-08-07T14:30:30Z</time>
      </trkpt>
      <trkpt lat="45.85124" lon="2.89276">
        <ele>808.8</ele>
        <time>2025-08-07T14:30:31Z</time>
      </trkpt>
      <trkpt lat="45.85121" lon="2.89279">
        <ele>808.8</ele>
        <time>2025-08-07T14:30:32Z</time>
      </trkpt>
      <trkpt lat="45.85118" lon="2.89282">
        <ele>809</ele>
        <time>2025-08-07T14:30:33Z</time>
      </trkpt>
      <trkpt lat="45.85115" lon="2.89284">
        <ele>809.2</ele>
        <time>2025-08-07T14:30:34Z</time>
      </trkpt>
      <trkpt lat="45.85112" lon="2.89288">
        <ele>809.2</ele>
        <time>2025-08-07T14:30:35Z</time>
      </trkpt>
      <trkpt lat="45.85109" lon="2.89291">
        <ele>809.4</ele>
        <time>2025-08-07T14:30:36Z</time>
      </trkpt>
      <trkpt lat="45.85105" lon="2.89293">
        <ele>809.6</ele>
        <time>2025-08-07T14:30:37Z</time>
      </trkpt>
      <trkpt lat="45.85103" lon="2.89296">
        <ele>809.8</ele>
        <time>2025-08-07T14:30:38Z</time>
      </trkpt>
      <trkpt lat="45.851" lon="2.89299">
        <ele>809.8</ele>
        <time>2025-08-07T14:30:39Z</time>
      </trkpt>
      <trkpt lat="45.85097" lon="2.89301">
        <ele>810</ele>
        <time>2025-08-07T14:30:40Z</time>
      </trkpt>
      <trkpt lat="45.85094" lon="2.89304">
        <ele>810</ele>
        <time>2025-08-07T14:30:41Z</time>
      </trkpt>
      <trkpt lat="45.85091" lon="2.89307">
        <ele>810.2</ele>
        <time>2025-08-07T14:30:42Z</time>
      </trkpt>
      <trkpt lat="45.85088" lon="2.8931">
        <ele>810.2</ele>
        <time>2025-08-07T14:30:43Z</time>
      </trkpt>
      <trkpt lat="45.85085" lon="2.89314">
        <ele>810.4</ele>
        <time>2025-08-07T14:30:44Z</time>
      </trkpt>
      <trkpt lat="45.85081" lon="2.89316">
        <ele>810.6</ele>
        <time>2025-08-07T14:30:45Z</time>
      </trkpt>
      <trkpt lat="45.85077" lon="2.89319">
        <ele>810.6</ele>
        <time>2025-08-07T14:30:46Z</time>
      </trkpt>
      <trkpt lat="45.85073" lon="2.89322">
        <ele>810.6</ele>
        <time>2025-08-07T14:30:47Z</time>
      </trkpt>
      <trkpt lat="45.85071" lon="2.89325">
        <ele>810.6</ele>
        <time>2025-08-07T14:30:48Z</time>
      </trkpt>
      <trkpt lat="45.85068" lon="2.89329">
        <ele>810.6</ele>
        <time>2025-08-07T14:30:49Z</time>
      </trkpt>
      <trkpt lat="45.85065" lon="2.89332">
        <ele>810.6</ele>
        <time>2025-08-07T14:30:50Z</time>
      </trkpt>
      <trkpt lat="45.85062" lon="2.89335">
        <ele>810.6</ele>
        <time>2025-08-07T14:30:51Z</time>
      </trkpt>
      <trkpt lat="45.85059" lon="2.89338">
        <ele>810.4</ele>
        <time>2025-08-07T14:30:52Z</time>
      </trkpt>
      <trkpt lat="45.85058" lon="2.89339">
        <ele>810.4</ele>
        <time>2025-08-07T14:30:53Z</time>
      </trkpt>
      <trkpt lat="45.85058" lon="2.8934">
        <ele>810.4</ele>
        <time>2025-08-07T14:30:54Z</time>
      </trkpt>
      <trkpt lat="45.85057" lon="2.89338">
        <ele>810.4</ele>
        <time>2025-08-07T14:30:55Z</time>
      </trkpt>
      <trkpt lat="45.85056" lon="2.89335">
        <ele>810.4</ele>
        <time>2025-08-07T14:30:56Z</time>
      </trkpt>
      <trkpt lat="45.85054" lon="2.89332">
        <ele>810.2</ele>
        <time>2025-08-07T14:30:57Z</time>
      </trkpt>
      <trkpt lat="45.85052" lon="2.89328">
        <ele>810.2</ele>
        <time>2025-08-07T14:30:58Z</time>
      </trkpt>
      <trkpt lat="45.85051" lon="2.89325">
        <ele>810.2</ele>
        <time>2025-08-07T14:30:59Z</time>
      </trkpt>
      <trkpt lat="45.8505" lon="2.89322">
        <ele>810.2</ele>
        <time>2025-08-07T14:31:00Z</time>
      </trkpt>
      <trkpt lat="45.85049" lon="2.89318">
        <ele>810.2</ele>
        <time>2025-08-07T14:31:01Z</time>
      </trkpt>
      <trkpt lat="45.85048" lon="2.89315">
        <ele>810.2</ele>
        <time>2025-08-07T14:31:02Z</time>
      </trkpt>
      <trkpt lat="45.85047" lon="2.89311">
        <ele>810.2</ele>
        <time>2025-08-07T14:31:03Z</time>
      </trkpt>
      <trkpt lat="45.85045" lon="2.89307">
        <ele>810.2</ele>
        <time>2025-08-07T14:31:04Z</time>
      </trkpt>
      <trkpt lat="45.85045" lon="2.89305">
        <ele>810.2</ele>
        <time>2025-08-07T14:31:05Z</time>
      </trkpt>
      <trkpt lat="45.85044" lon="2.89303">
        <ele>810.2</ele>
        <time>2025-08-07T14:31:06Z</time>
      </trkpt>
      <trkpt lat="45.85043" lon="2.89301">
        <ele>810.2</ele>
        <time>2025-08-07T14:31:07Z</time>
      </trkpt>
      <trkpt lat="45.85042" lon="2.893">
        <ele>810.2</ele>
        <time>2025-08-07T14:31:08Z</time>
      </trkpt>
      <trkpt lat="45.85042" lon="2.89299">
        <ele>810.2</ele>
        <time>2025-08-07T14:31:09Z</time>
      </trkpt>
      <trkpt lat="45.85041" lon="2.89296">
        <ele>810.4</ele>
        <time>2025-08-07T14:31:10Z</time>
      </trkpt>
      <trkpt lat="45.8504" lon="2.89292">
        <ele>810.4</ele>
        <time>2025-08-07T14:31:11Z</time>
      </trkpt>
      <trkpt lat="45.8504" lon="2.89288">
        <ele>810.4</ele>
        <time>2025-08-07T14:31:12Z</time>
      </trkpt>
      <trkpt lat="45.8504" lon="2.89285">
        <ele>810.4</ele>
        <time>2025-08-07T14:31:13Z</time>
      </trkpt>
      <trkpt lat="45.8504" lon="2.89282">
        <ele>810.6</ele>
        <time>2025-08-07T14:31:14Z</time>
      </trkpt>
      <trkpt lat="45.85039" lon="2.8928">
        <ele>810.8</ele>
        <time>2025-08-07T14:31:15Z</time>
      </trkpt>
      <trkpt lat="45.85038" lon="2.8928">
        <ele>811</ele>
        <time>2025-08-07T14:31:16Z</time>
      </trkpt>
      <trkpt lat="45.85037" lon="2.89281">
        <ele>811</ele>
        <time>2025-08-07T14:31:17Z</time>
      </trkpt>
      <trkpt lat="45.85038" lon="2.89283">
        <ele>811</ele>
        <time>2025-08-07T14:31:18Z</time>
      </trkpt>
      <trkpt lat="45.85039" lon="2.89286">
        <ele>811</ele>
        <time>2025-08-07T14:31:19Z</time>
      </trkpt>
      <trkpt lat="45.8504" lon="2.89289">
        <ele>811</ele>
        <time>2025-08-07T14:31:20Z</time>
      </trkpt>
      <trkpt lat="45.85041" lon="2.89292">
        <ele>810.8</ele>
        <time>2025-08-07T14:31:21Z</time>
      </trkpt>
      <trkpt lat="45.85041" lon="2.89294">
        <ele>810.8</ele>
        <time>2025-08-07T14:31:22Z</time>
      </trkpt>
      <trkpt lat="45.85041" lon="2.89296">
        <ele>810.8</ele>
        <time>2025-08-07T14:31:23Z</time>
      </trkpt>
      <trkpt lat="45.8504" lon="2.89298">
        <ele>810.8</ele>
        <time>2025-08-07T14:31:24Z</time>
      </trkpt>
      <trkpt lat="45.85037" lon="2.89299">
        <ele>810.8</ele>
        <time>2025-08-07T14:31:25Z</time>
      </trkpt>
      <trkpt lat="45.85035" lon="2.89301">
        <ele>810.8</ele>
        <time>2025-08-07T14:31:26Z</time>
      </trkpt>
      <trkpt lat="45.85033" lon="2.89303">
        <ele>810.8</ele>
        <time>2025-08-07T14:31:27Z</time>
      </trkpt>
      <trkpt lat="45.85031" lon="2.89304">
        <ele>810.8</ele>
        <time>2025-08-07T14:31:28Z</time>
      </trkpt>
      <trkpt lat="45.85029" lon="2.89305">
        <ele>810.8</ele>
        <time>2025-08-07T14:31:29Z</time>
      </trkpt>
      <trkpt lat="45.85028" lon="2.89307">
        <ele>810.8</ele>
        <time>2025-08-07T14:31:30Z</time>
      </trkpt>
      <trkpt lat="45.85028" lon="2.8931">
        <ele>810.8</ele>
        <time>2025-08-07T14:31:31Z</time>
      </trkpt>
      <trkpt lat="45.85028" lon="2.89312">
        <ele>810.8</ele>
        <time>2025-08-07T14:31:32Z</time>
      </trkpt>
      <trkpt lat="45.85029" lon="2.89312">
        <ele>810.8</ele>
        <time>2025-08-07T14:31:33Z</time>
      </trkpt>
      <trkpt lat="45.85029" lon="2.89312">
        <ele>810.8</ele>
        <time>2025-08-07T14:31:34Z</time>
      </trkpt>
      <trkpt lat="45.85029" lon="2.89312">
        <ele>810.8</ele>
        <time>2025-08-07T14:31:35Z</time>
      </trkpt>
      <trkpt lat="45.85029" lon="2.89312">
        <ele>810.8</ele>
        <time>2025-08-07T14:31:36Z</time>
      </trkpt>
      <trkpt lat="45.85029" lon="2.89312">
        <ele>810.8</ele>
        <time>2025-08-07T14:31:37Z</time>
      </trkpt>
      <trkpt lat="45.85029" lon="2.89312">
        <ele>810.8</ele>
        <time>2025-08-07T14:31:38Z</time>
      </trkpt>
      <trkpt lat="45.85028" lon="2.89312">
        <ele>810.8</ele>
        <time>2025-08-07T14:31:39Z</time>
      </trkpt>
      <trkpt lat="45.85028" lon="2.89313">
        <ele>810.8</ele>
        <time>2025-08-07T14:31:40Z</time>
      </trkpt>
      <trkpt lat="45.85028" lon="2.89313">
        <ele>810.8</ele>
        <time>2025-08-07T14:31:41Z</time>
      </trkpt>
      <trkpt lat="45.85028" lon="2.89313">
        <ele>810.8</ele>
        <time>2025-08-07T14:31:42Z</time>
      </trkpt>
      <trkpt lat="45.85028" lon="2.89313">
        <ele>810.8</ele>
        <time>2025-08-07T14:31:43Z</time>
      </trkpt>
      <trkpt lat="45.85031" lon="2.89317">
        <ele>810.8</ele>
        <time>2025-08-07T14:36:56Z</time>
      </trkpt>
      <trkpt lat="45.85031" lon="2.89318">
        <ele>810.8</ele>
        <time>2025-08-07T14:36:57Z</time>
      </trkpt>
      <trkpt lat="45.85032" lon="2.89318">
        <ele>810.8</ele>
        <time>2025-08-07T14:36:58Z</time>
      </trkpt>
      <trkpt lat="45.85032" lon="2.89318">
        <ele>810.8</ele>
        <time>2025-08-07T14:36:59Z</time>
      </trkpt>
      <trkpt lat="45.85032" lon="2.89318">
        <ele>810.8</ele>
        <time>2025-08-07T14:37:00Z</time>
      </trkpt>
      <trkpt lat="45.85032" lon="2.89318">
        <ele>810.8</ele>
        <time>2025-08-07T14:37:01Z</time>
      </trkpt>
      <trkpt lat="45.85032" lon="2.89318">
        <ele>810.8</ele>
        <time>2025-08-07T14:37:02Z</time>
      </trkpt>
      <trkpt lat="45.85032" lon="2.8932">
        <ele>810.6</ele>
        <time>2025-08-07T14:37:08Z</time>
      </trkpt>
      <trkpt lat="45.85033" lon="2.89322">
        <ele>810.6</ele>
        <time>2025-08-07T14:37:09Z</time>
      </trkpt>
      <trkpt lat="45.85032" lon="2.89324">
        <ele>810.6</ele>
        <time>2025-08-07T14:37:10Z</time>
      </trkpt>
      <trkpt lat="45.85029" lon="2.89326">
        <ele>810.8</ele>
        <time>2025-08-07T14:37:11Z</time>
      </trkpt>
      <trkpt lat="45.85026" lon="2.89326">
        <ele>810.8</ele>
        <time>2025-08-07T14:37:12Z</time>
      </trkpt>
      <trkpt lat="45.85024" lon="2.89326">
        <ele>811</ele>
        <time>2025-08-07T14:37:13Z</time>
      </trkpt>
      <trkpt lat="45.85021" lon="2.89326">
        <ele>811</ele>
        <time>2025-08-07T14:37:14Z</time>
      </trkpt>
      <trkpt lat="45.85018" lon="2.89327">
        <ele>811</ele>
        <time>2025-08-07T14:37:15Z</time>
      </trkpt>
      <trkpt lat="45.85015" lon="2.89328">
        <ele>811.2</ele>
        <time>2025-08-07T14:37:16Z</time>
      </trkpt>
      <trkpt lat="45.85011" lon="2.89329">
        <ele>811.2</ele>
        <time>2025-08-07T14:37:17Z</time>
      </trkpt>
      <trkpt lat="45.85007" lon="2.8933">
        <ele>811.2</ele>
        <time>2025-08-07T14:37:18Z</time>
      </trkpt>
      <trkpt lat="45.85002" lon="2.89332">
        <ele>811.2</ele>
        <time>2025-08-07T14:37:19Z</time>
      </trkpt>
      <trkpt lat="45.84998" lon="2.89333">
        <ele>811.2</ele>
        <time>2025-08-07T14:37:20Z</time>
      </trkpt>
      <trkpt lat="45.84993" lon="2.89335">
        <ele>811.2</ele>
        <time>2025-08-07T14:37:21Z</time>
      </trkpt>
      <trkpt lat="45.84989" lon="2.89338">
        <ele>811.2</ele>
        <time>2025-08-07T14:37:22Z</time>
      </trkpt>
      <trkpt lat="45.84984" lon="2.89341">
        <ele>811.4</ele>
        <time>2025-08-07T14:37:23Z</time>
      </trkpt>
      <trkpt lat="45.84981" lon="2.89343">
        <ele>811.4</ele>
        <time>2025-08-07T14:37:24Z</time>
      </trkpt>
      <trkpt lat="45.84976" lon="2.89345">
        <ele>811.6</ele>
        <time>2025-08-07T14:37:25Z</time>
      </trkpt>
      <trkpt lat="45.8497" lon="2.89348">
        <ele>811.6</ele>
        <time>2025-08-07T14:37:26Z</time>
      </trkpt>
      <trkpt lat="45.84965" lon="2.8935">
        <ele>811.6</ele>
        <time>2025-08-07T14:37:27Z</time>
      </trkpt>
      <trkpt lat="45.8496" lon="2.89353">
        <ele>811.8</ele>
        <time>2025-08-07T14:37:28Z</time>
      </trkpt>
      <trkpt lat="45.84955" lon="2.89355">
        <ele>811.8</ele>
        <time>2025-08-07T14:37:29Z</time>
      </trkpt>
      <trkpt lat="45.84949" lon="2.89358">
        <ele>811.8</ele>
        <time>2025-08-07T14:37:30Z</time>
      </trkpt>
      <trkpt lat="45.84944" lon="2.8936">
        <ele>812</ele>
        <time>2025-08-07T14:37:31Z</time>
      </trkpt>
      <trkpt lat="45.8494" lon="2.89362">
        <ele>812</ele>
        <time>2025-08-07T14:37:32Z</time>
      </trkpt>
      <trkpt lat="45.84934" lon="2.89364">
        <ele>812</ele>
        <time>2025-08-07T14:37:33Z</time>
      </trkpt>
      <trkpt lat="45.8493" lon="2.89365">
        <ele>812</ele>
        <time>2025-08-07T14:37:34Z</time>
      </trkpt>
      <trkpt lat="45.84925" lon="2.89367">
        <ele>812.2</ele>
        <time>2025-08-07T14:37:35Z</time>
      </trkpt>
      <trkpt lat="45.8492" lon="2.89369">
        <ele>812.2</ele>
        <time>2025-08-07T14:37:36Z</time>
      </trkpt>
      <trkpt lat="45.84917" lon="2.89369">
        <ele>812.4</ele>
        <time>2025-08-07T14:37:37Z</time>
      </trkpt>
      <trkpt lat="45.84913" lon="2.8937">
        <ele>812.4</ele>
        <time>2025-08-07T14:37:38Z</time>
      </trkpt>
      <trkpt lat="45.84908" lon="2.89371">
        <ele>812.6</ele>
        <time>2025-08-07T14:37:39Z</time>
      </trkpt>
      <trkpt lat="45.84904" lon="2.89374">
        <ele>812.6</ele>
        <time>2025-08-07T14:37:40Z</time>
      </trkpt>
      <trkpt lat="45.849" lon="2.89377">
        <ele>812.6</ele>
        <time>2025-08-07T14:37:41Z</time>
      </trkpt>
      <trkpt lat="45.84897" lon="2.89379">
        <ele>812.8</ele>
        <time>2025-08-07T14:37:42Z</time>
      </trkpt>
      <trkpt lat="45.84894" lon="2.89383">
        <ele>812.8</ele>
        <time>2025-08-07T14:37:43Z</time>
      </trkpt>
      <trkpt lat="45.84891" lon="2.89388">
        <ele>812.8</ele>
        <time>2025-08-07T14:37:44Z</time>
      </trkpt>
      <trkpt lat="45.84889" lon="2.89393">
        <ele>812.6</ele>
        <time>2025-08-07T14:37:45Z</time>
      </trkpt>
      <trkpt lat="45.84887" lon="2.89399">
        <ele>812.6</ele>
        <time>2025-08-07T14:37:46Z</time>
      </trkpt>
      <trkpt lat="45.84886" lon="2.89406">
        <ele>812.6</ele>
        <time>2025-08-07T14:37:47Z</time>
      </trkpt>
      <trkpt lat="45.84885" lon="2.89413">
        <ele>812.4</ele>
        <time>2025-08-07T14:37:48Z</time>
      </trkpt>
      <trkpt lat="45.84883" lon="2.89423">
        <ele>812.4</ele>
        <time>2025-08-07T14:37:49Z</time>
      </trkpt>
      <trkpt lat="45.84881" lon="2.89431">
        <ele>812.2</ele>
        <time>2025-08-07T14:37:50Z</time>
      </trkpt>
      <trkpt lat="45.84879" lon="2.89438">
        <ele>812.2</ele>
        <time>2025-08-07T14:37:51Z</time>
      </trkpt>
      <trkpt lat="45.84877" lon="2.89446">
        <ele>812</ele>
        <time>2025-08-07T14:37:52Z</time>
      </trkpt>
      <trkpt lat="45.84874" lon="2.89453">
        <ele>811.8</ele>
        <time>2025-08-07T14:37:53Z</time>
      </trkpt>
      <trkpt lat="45.8487" lon="2.89464">
        <ele>811.8</ele>
        <time>2025-08-07T14:37:54Z</time>
      </trkpt>
      <trkpt lat="45.84868" lon="2.89472">
        <ele>811.6</ele>
        <time>2025-08-07T14:37:55Z</time>
      </trkpt>
      <trkpt lat="45.84866" lon="2.89479">
        <ele>811.6</ele>
        <time>2025-08-07T14:37:56Z</time>
      </trkpt>
      <trkpt lat="45.84864" lon="2.89486">
        <ele>811.4</ele>
        <time>2025-08-07T14:37:57Z</time>
      </trkpt>
      <trkpt lat="45.84862" lon="2.89494">
        <ele>811.4</ele>
        <time>2025-08-07T14:37:58Z</time>
      </trkpt>
      <trkpt lat="45.8486" lon="2.89501">
        <ele>811.2</ele>
        <time>2025-08-07T14:37:59Z</time>
      </trkpt>
      <trkpt lat="45.84858" lon="2.89509">
        <ele>811.2</ele>
        <time>2025-08-07T14:38:00Z</time>
      </trkpt>
      <trkpt lat="45.84856" lon="2.89517">
        <ele>811</ele>
        <time>2025-08-07T14:38:01Z</time>
      </trkpt>
      <trkpt lat="45.84854" lon="2.89523">
        <ele>811</ele>
        <time>2025-08-07T14:38:02Z</time>
      </trkpt>
      <trkpt lat="45.84852" lon="2.89531">
        <ele>810.8</ele>
        <time>2025-08-07T14:38:03Z</time>
      </trkpt>
      <trkpt lat="45.84849" lon="2.89539">
        <ele>810.6</ele>
        <time>2025-08-07T14:38:04Z</time>
      </trkpt>
      <trkpt lat="45.84847" lon="2.89547">
        <ele>810.4</ele>
        <time>2025-08-07T14:38:05Z</time>
      </trkpt>
      <trkpt lat="45.84844" lon="2.89556">
        <ele>810.2</ele>
        <time>2025-08-07T14:38:06Z</time>
      </trkpt>
      <trkpt lat="45.84842" lon="2.89566">
        <ele>809.8</ele>
        <time>2025-08-07T14:38:07Z</time>
      </trkpt>
      <trkpt lat="45.84839" lon="2.89578">
        <ele>809.4</ele>
        <time>2025-08-07T14:38:08Z</time>
      </trkpt>
      <trkpt lat="45.84836" lon="2.89588">
        <ele>809.2</ele>
        <time>2025-08-07T14:38:09Z</time>
      </trkpt>
      <trkpt lat="45.84833" lon="2.89599">
        <ele>808.8</ele>
        <time>2025-08-07T14:38:10Z</time>
      </trkpt>
      <trkpt lat="45.8483" lon="2.8961">
        <ele>808.2</ele>
        <time>2025-08-07T14:38:11Z</time>
      </trkpt>
      <trkpt lat="45.84827" lon="2.8962">
        <ele>807.6</ele>
        <time>2025-08-07T14:38:12Z</time>
      </trkpt>
      <trkpt lat="45.84824" lon="2.89632">
        <ele>807</ele>
        <time>2025-08-07T14:38:13Z</time>
      </trkpt>
      <trkpt lat="45.84823" lon="2.89648">
        <ele>806.6</ele>
        <time>2025-08-07T14:38:14Z</time>
      </trkpt>
      <trkpt lat="45.84824" lon="2.89659">
        <ele>806</ele>
        <time>2025-08-07T14:38:15Z</time>
      </trkpt>
      <trkpt lat="45.84824" lon="2.89673">
        <ele>805.4</ele>
        <time>2025-08-07T14:38:16Z</time>
      </trkpt>
      <trkpt lat="45.84826" lon="2.89688">
        <ele>804.8</ele>
        <time>2025-08-07T14:38:17Z</time>
      </trkpt>
      <trkpt lat="45.84828" lon="2.89701">
        <ele>804.4</ele>
        <time>2025-08-07T14:38:18Z</time>
      </trkpt>
      <trkpt lat="45.84829" lon="2.89713">
        <ele>804.2</ele>
        <time>2025-08-07T14:38:19Z</time>
      </trkpt>
      <trkpt lat="45.8483" lon="2.89723">
        <ele>803.8</ele>
        <time>2025-08-07T14:38:20Z</time>
      </trkpt>
      <trkpt lat="45.84832" lon="2.89735">
        <ele>803.6</ele>
        <time>2025-08-07T14:38:21Z</time>
      </trkpt>
      <trkpt lat="45.84833" lon="2.89747">
        <ele>803.6</ele>
        <time>2025-08-07T14:38:22Z</time>
      </trkpt>
      <trkpt lat="45.84832" lon="2.89756">
        <ele>803.6</ele>
        <time>2025-08-07T14:38:23Z</time>
      </trkpt>
      <trkpt lat="45.8483" lon="2.89763">
        <ele>803.4</ele>
        <time>2025-08-07T14:38:24Z</time>
      </trkpt>
      <trkpt lat="45.84827" lon="2.89768">
        <ele>803.2</ele>
        <time>2025-08-07T14:38:25Z</time>
      </trkpt>
      <trkpt lat="45.84823" lon="2.89773">
        <ele>803</ele>
        <time>2025-08-07T14:38:26Z</time>
      </trkpt>
      <trkpt lat="45.84816" lon="2.89777">
        <ele>803</ele>
        <time>2025-08-07T14:38:27Z</time>
      </trkpt>
      <trkpt lat="45.84809" lon="2.8978">
        <ele>802.8</ele>
        <time>2025-08-07T14:38:28Z</time>
      </trkpt>
      <trkpt lat="45.84803" lon="2.89783">
        <ele>802.8</ele>
        <time>2025-08-07T14:38:29Z</time>
      </trkpt>
      <trkpt lat="45.84796" lon="2.89785">
        <ele>802.8</ele>
        <time>2025-08-07T14:38:30Z</time>
      </trkpt>
      <trkpt lat="45.8479" lon="2.89787">
        <ele>802.8</ele>
        <time>2025-08-07T14:38:31Z</time>
      </trkpt>
      <trkpt lat="45.84784" lon="2.89789">
        <ele>802.8</ele>
        <time>2025-08-07T14:38:32Z</time>
      </trkpt>
      <trkpt lat="45.84777" lon="2.89793">
        <ele>802.8</ele>
        <time>2025-08-07T14:38:33Z</time>
      </trkpt>
      <trkpt lat="45.84772" lon="2.89797">
        <ele>802.8</ele>
        <time>2025-08-07T14:38:34Z</time>
      </trkpt>
      <trkpt lat="45.84766" lon="2.89801">
        <ele>802.8</ele>
        <time>2025-08-07T14:38:35Z</time>
      </trkpt>
      <trkpt lat="45.8476" lon="2.89806">
        <ele>802.8</ele>
        <time>2025-08-07T14:38:36Z</time>
      </trkpt>
      <trkpt lat="45.84755" lon="2.89811">
        <ele>803</ele>
        <time>2025-08-07T14:38:37Z</time>
      </trkpt>
      <trkpt lat="45.8475" lon="2.89816">
        <ele>803</ele>
        <time>2025-08-07T14:38:38Z</time>
      </trkpt>
      <trkpt lat="45.84746" lon="2.89822">
        <ele>803.2</ele>
        <time>2025-08-07T14:38:39Z</time>
      </trkpt>
      <trkpt lat="45.84742" lon="2.89827">
        <ele>803.2</ele>
        <time>2025-08-07T14:38:40Z</time>
      </trkpt>
      <trkpt lat="45.84738" lon="2.89833">
        <ele>803.2</ele>
        <time>2025-08-07T14:38:41Z</time>
      </trkpt>
      <trkpt lat="45.84734" lon="2.89839">
        <ele>803.4</ele>
        <time>2025-08-07T14:38:42Z</time>
      </trkpt>
      <trkpt lat="45.84731" lon="2.89845">
        <ele>803.4</ele>
        <time>2025-08-07T14:38:43Z</time>
      </trkpt>
      <trkpt lat="45.84728" lon="2.89851">
        <ele>803.6</ele>
        <time>2025-08-07T14:38:44Z</time>
      </trkpt>
      <trkpt lat="45.84725" lon="2.89857">
        <ele>803.6</ele>
        <time>2025-08-07T14:38:45Z</time>
      </trkpt>
      <trkpt lat="45.84721" lon="2.89864">
        <ele>803.8</ele>
        <time>2025-08-07T14:38:46Z</time>
      </trkpt>
      <trkpt lat="45.84718" lon="2.8987">
        <ele>804</ele>
        <time>2025-08-07T14:38:47Z</time>
      </trkpt>
      <trkpt lat="45.84715" lon="2.89875">
        <ele>804.2</ele>
        <time>2025-08-07T14:38:48Z</time>
      </trkpt>
      <trkpt lat="45.84712" lon="2.89881">
        <ele>804.6</ele>
        <time>2025-08-07T14:38:49Z</time>
      </trkpt>
      <trkpt lat="45.8471" lon="2.89885">
        <ele>804.8</ele>
        <time>2025-08-07T14:38:50Z</time>
      </trkpt>
      <trkpt lat="45.84708" lon="2.89889">
        <ele>805.2</ele>
        <time>2025-08-07T14:38:51Z</time>
      </trkpt>
      <trkpt lat="45.84705" lon="2.89892">
        <ele>805.4</ele>
        <time>2025-08-07T14:38:52Z</time>
      </trkpt>
      <trkpt lat="45.84702" lon="2.89893">
        <ele>805.6</ele>
        <time>2025-08-07T14:38:53Z</time>
      </trkpt>
      <trkpt lat="45.847" lon="2.89894">
        <ele>805.8</ele>
        <time>2025-08-07T14:38:54Z</time>
      </trkpt>
      <trkpt lat="45.84698" lon="2.89893">
        <ele>805.8</ele>
        <time>2025-08-07T14:38:55Z</time>
      </trkpt>
      <trkpt lat="45.84693" lon="2.8989">
        <ele>805.8</ele>
        <time>2025-08-07T14:38:56Z</time>
      </trkpt>
      <trkpt lat="45.8469" lon="2.89887">
        <ele>805.8</ele>
        <time>2025-08-07T14:38:57Z</time>
      </trkpt>
      <trkpt lat="45.84685" lon="2.89883">
        <ele>805.6</ele>
        <time>2025-08-07T14:38:58Z</time>
      </trkpt>
      <trkpt lat="45.84682" lon="2.8988">
        <ele>805.4</ele>
        <time>2025-08-07T14:38:59Z</time>
      </trkpt>
      <trkpt lat="45.84678" lon="2.89877">
        <ele>805.2</ele>
        <time>2025-08-07T14:39:00Z</time>
      </trkpt>
      <trkpt lat="45.84672" lon="2.8987">
        <ele>805.2</ele>
        <time>2025-08-07T14:39:01Z</time>
      </trkpt>
      <trkpt lat="45.84665" lon="2.89863">
        <ele>805</ele>
        <time>2025-08-07T14:39:02Z</time>
      </trkpt>
      <trkpt lat="45.84661" lon="2.89859">
        <ele>804.8</ele>
        <time>2025-08-07T14:39:03Z</time>
      </trkpt>
      <trkpt lat="45.84657" lon="2.89856">
        <ele>804.6</ele>
        <time>2025-08-07T14:39:04Z</time>
      </trkpt>
      <trkpt lat="45.84653" lon="2.89854">
        <ele>804.4</ele>
        <time>2025-08-07T14:39:05Z</time>
      </trkpt>
      <trkpt lat="45.84646" lon="2.89854">
        <ele>804.4</ele>
        <time>2025-08-07T14:39:06Z</time>
      </trkpt>
      <trkpt lat="45.84641" lon="2.89853">
        <ele>804.4</ele>
        <time>2025-08-07T14:39:07Z</time>
      </trkpt>
      <trkpt lat="45.84636" lon="2.89854">
        <ele>804.6</ele>
        <time>2025-08-07T14:39:08Z</time>
      </trkpt>
      <trkpt lat="45.84631" lon="2.89853">
        <ele>804.8</ele>
        <time>2025-08-07T14:39:09Z</time>
      </trkpt>
      <trkpt lat="45.84627" lon="2.89854">
        <ele>805</ele>
        <time>2025-08-07T14:39:10Z</time>
      </trkpt>
      <trkpt lat="45.84622" lon="2.89855">
        <ele>805.2</ele>
        <time>2025-08-07T14:39:11Z</time>
      </trkpt>
      <trkpt lat="45.84619" lon="2.89856">
        <ele>805.6</ele>
        <time>2025-08-07T14:39:12Z</time>
      </trkpt>
      <trkpt lat="45.84615" lon="2.89856">
        <ele>805.6</ele>
        <time>2025-08-07T14:39:13Z</time>
      </trkpt>
      <trkpt lat="45.84611" lon="2.89854">
        <ele>805.8</ele>
        <time>2025-08-07T14:39:14Z</time>
      </trkpt>
      <trkpt lat="45.84608" lon="2.89852">
        <ele>806</ele>
        <time>2025-08-07T14:39:15Z</time>
      </trkpt>
      <trkpt lat="45.84604" lon="2.89848">
        <ele>806.2</ele>
        <time>2025-08-07T14:39:16Z</time>
      </trkpt>
      <trkpt lat="45.84599" lon="2.89844">
        <ele>806.4</ele>
        <time>2025-08-07T14:39:17Z</time>
      </trkpt>
      <trkpt lat="45.84595" lon="2.89841">
        <ele>806.4</ele>
        <time>2025-08-07T14:39:18Z</time>
      </trkpt>
      <trkpt lat="45.84589" lon="2.89837">
        <ele>806.2</ele>
        <time>2025-08-07T14:39:19Z</time>
      </trkpt>
      <trkpt lat="45.84583" lon="2.89834">
        <ele>806</ele>
        <time>2025-08-07T14:39:20Z</time>
      </trkpt>
      <trkpt lat="45.84576" lon="2.89831">
        <ele>806</ele>
        <time>2025-08-07T14:39:21Z</time>
      </trkpt>
      <trkpt lat="45.84571" lon="2.89828">
        <ele>805.8</ele>
        <time>2025-08-07T14:39:22Z</time>
      </trkpt>
      <trkpt lat="45.84567" lon="2.89826">
        <ele>805.8</ele>
        <time>2025-08-07T14:39:23Z</time>
      </trkpt>
      <trkpt lat="45.84563" lon="2.89823">
        <ele>805.8</ele>
        <time>2025-08-07T14:39:24Z</time>
      </trkpt>
      <trkpt lat="45.84559" lon="2.89818">
        <ele>806</ele>
        <time>2025-08-07T14:39:25Z</time>
      </trkpt>
      <trkpt lat="45.84557" lon="2.89815">
        <ele>806.2</ele>
        <time>2025-08-07T14:39:26Z</time>
      </trkpt>
      <trkpt lat="45.84556" lon="2.89812">
        <ele>806.2</ele>
        <time>2025-08-07T14:39:27Z</time>
      </trkpt>
      <trkpt lat="45.84554" lon="2.89808">
        <ele>806</ele>
        <time>2025-08-07T14:39:28Z</time>
      </trkpt>
      <trkpt lat="45.84553" lon="2.89802">
        <ele>806</ele>
        <time>2025-08-07T14:39:29Z</time>
      </trkpt>
      <trkpt lat="45.84553" lon="2.89796">
        <ele>805.8</ele>
        <time>2025-08-07T14:39:30Z</time>
      </trkpt>
      <trkpt lat="45.84551" lon="2.89786">
        <ele>805.6</ele>
        <time>2025-08-07T14:39:31Z</time>
      </trkpt>
      <trkpt lat="45.84549" lon="2.89774">
        <ele>805.6</ele>
        <time>2025-08-07T14:39:32Z</time>
      </trkpt>
      <trkpt lat="45.84546" lon="2.8976">
        <ele>805.6</ele>
        <time>2025-08-07T14:39:33Z</time>
      </trkpt>
      <trkpt lat="45.8454" lon="2.89748">
        <ele>805.4</ele>
        <time>2025-08-07T14:39:34Z</time>
      </trkpt>
      <trkpt lat="45.84538" lon="2.89743">
        <ele>805.4</ele>
        <time>2025-08-07T14:39:35Z</time>
      </trkpt>
      <trkpt lat="45.84537" lon="2.89739">
        <ele>805.4</ele>
        <time>2025-08-07T14:39:36Z</time>
      </trkpt>
      <trkpt lat="45.84536" lon="2.89738">
        <ele>805.6</ele>
        <time>2025-08-07T14:39:37Z</time>
      </trkpt>
      <trkpt lat="45.84534" lon="2.89733">
        <ele>805.6</ele>
        <time>2025-08-07T14:39:38Z</time>
      </trkpt>
      <trkpt lat="45.84531" lon="2.89731">
        <ele>805.8</ele>
        <time>2025-08-07T14:39:39Z</time>
      </trkpt>
      <trkpt lat="45.84527" lon="2.89727">
        <ele>806</ele>
        <time>2025-08-07T14:39:40Z</time>
      </trkpt>
      <trkpt lat="45.84526" lon="2.89724">
        <ele>806.2</ele>
        <time>2025-08-07T14:39:41Z</time>
      </trkpt>
      <trkpt lat="45.84523" lon="2.8972">
        <ele>806.4</ele>
        <time>2025-08-07T14:39:42Z</time>
      </trkpt>
      <trkpt lat="45.8452" lon="2.89716">
        <ele>806.4</ele>
        <time>2025-08-07T14:39:43Z</time>
      </trkpt>
      <trkpt lat="45.84517" lon="2.89712">
        <ele>806.6</ele>
        <time>2025-08-07T14:39:44Z</time>
      </trkpt>
      <trkpt lat="45.84515" lon="2.89709">
        <ele>806.6</ele>
        <time>2025-08-07T14:39:45Z</time>
      </trkpt>
      <trkpt lat="45.84513" lon="2.89705">
        <ele>806.6</ele>
        <time>2025-08-07T14:39:46Z</time>
      </trkpt>
      <trkpt lat="45.84511" lon="2.89702">
        <ele>806.6</ele>
        <time>2025-08-07T14:39:47Z</time>
      </trkpt>
      <trkpt lat="45.84509" lon="2.897">
        <ele>806.6</ele>
        <time>2025-08-07T14:39:48Z</time>
      </trkpt>
      <trkpt lat="45.84507" lon="2.89697">
        <ele>806.6</ele>
        <time>2025-08-07T14:39:49Z</time>
      </trkpt>
      <trkpt lat="45.84504" lon="2.89694">
        <ele>806.8</ele>
        <time>2025-08-07T14:39:50Z</time>
      </trkpt>
      <trkpt lat="45.84501" lon="2.89691">
        <ele>807</ele>
        <time>2025-08-07T14:39:51Z</time>
      </trkpt>
      <trkpt lat="45.84499" lon="2.8969">
        <ele>807.2</ele>
        <time>2025-08-07T14:39:52Z</time>
      </trkpt>
      <trkpt lat="45.84497" lon="2.89689">
        <ele>807.2</ele>
        <time>2025-08-07T14:39:53Z</time>
      </trkpt>
      <trkpt lat="45.84493" lon="2.89689">
        <ele>807.4</ele>
        <time>2025-08-07T14:39:54Z</time>
      </trkpt>
      <trkpt lat="45.84489" lon="2.89687">
        <ele>807.6</ele>
        <time>2025-08-07T14:39:55Z</time>
      </trkpt>
      <trkpt lat="45.84484" lon="2.89682">
        <ele>807.8</ele>
        <time>2025-08-07T14:39:56Z</time>
      </trkpt>
      <trkpt lat="45.8448" lon="2.89677">
        <ele>808</ele>
        <time>2025-08-07T14:39:57Z</time>
      </trkpt>
      <trkpt lat="45.84476" lon="2.89673">
        <ele>808.2</ele>
        <time>2025-08-07T14:39:58Z</time>
      </trkpt>
      <trkpt lat="45.84472" lon="2.89669">
        <ele>808.4</ele>
        <time>2025-08-07T14:39:59Z</time>
      </trkpt>
      <trkpt lat="45.84469" lon="2.89667">
        <ele>808.6</ele>
        <time>2025-08-07T14:40:00Z</time>
      </trkpt>
      <trkpt lat="45.84464" lon="2.89665">
        <ele>808.8</ele>
        <time>2025-08-07T14:40:01Z</time>
      </trkpt>
      <trkpt lat="45.8446" lon="2.8966">
        <ele>809.2</ele>
        <time>2025-08-07T14:40:02Z</time>
      </trkpt>
      <trkpt lat="45.84456" lon="2.89659">
        <ele>809.4</ele>
        <time>2025-08-07T14:40:03Z</time>
      </trkpt>
      <trkpt lat="45.84454" lon="2.89657">
        <ele>809.8</ele>
        <time>2025-08-07T14:40:04Z</time>
      </trkpt>
      <trkpt lat="45.84451" lon="2.89656">
        <ele>810.2</ele>
        <time>2025-08-07T14:40:05Z</time>
      </trkpt>
      <trkpt lat="45.84448" lon="2.89654">
        <ele>810.6</ele>
        <time>2025-08-07T14:40:06Z</time>
      </trkpt>
      <trkpt lat="45.84445" lon="2.89652">
        <ele>811.2</ele>
        <time>2025-08-07T14:40:07Z</time>
      </trkpt>
      <trkpt lat="45.84442" lon="2.89649">
        <ele>811.8</ele>
        <time>2025-08-07T14:40:08Z</time>
      </trkpt>
      <trkpt lat="45.84437" lon="2.89647">
        <ele>812.4</ele>
        <time>2025-08-07T14:40:09Z</time>
      </trkpt>
      <trkpt lat="45.8443" lon="2.89644">
        <ele>813</ele>
        <time>2025-08-07T14:40:10Z</time>
      </trkpt>
      <trkpt lat="45.84423" lon="2.8964">
        <ele>813.6</ele>
        <time>2025-08-07T14:40:11Z</time>
      </trkpt>
      <trkpt lat="45.84419" lon="2.8964">
        <ele>814.2</ele>
        <time>2025-08-07T14:40:12Z</time>
      </trkpt>
      <trkpt lat="45.84415" lon="2.89638">
        <ele>814.8</ele>
        <time>2025-08-07T14:40:13Z</time>
      </trkpt>
      <trkpt lat="45.84412" lon="2.89635">
        <ele>815.2</ele>
        <time>2025-08-07T14:40:14Z</time>
      </trkpt>
      <trkpt lat="45.84409" lon="2.89632">
        <ele>815.6</ele>
        <time>2025-08-07T14:40:15Z</time>
      </trkpt>
      <trkpt lat="45.84407" lon="2.89631">
        <ele>815.8</ele>
        <time>2025-08-07T14:40:16Z</time>
      </trkpt>
      <trkpt lat="45.84407" lon="2.89631">
        <ele>815.8</ele>
        <time>2025-08-07T14:40:17Z</time>
      </trkpt>
      <trkpt lat="45.84406" lon="2.89631">
        <ele>816</ele>
        <time>2025-08-07T14:40:18Z</time>
      </trkpt>
      <trkpt lat="45.84403" lon="2.89633">
        <ele>816</ele>
        <time>2025-08-07T14:40:19Z</time>
      </trkpt>
      <trkpt lat="45.844" lon="2.89636">
        <ele>816.2</ele>
        <time>2025-08-07T14:40:20Z</time>
      </trkpt>
      <trkpt lat="45.84398" lon="2.89638">
        <ele>816.2</ele>
        <time>2025-08-07T14:40:21Z</time>
      </trkpt>
      <trkpt lat="45.84397" lon="2.8964">
        <ele>816.4</ele>
        <time>2025-08-07T14:40:22Z</time>
      </trkpt>
      <trkpt lat="45.84395" lon="2.89641">
        <ele>816.4</ele>
        <time>2025-08-07T14:40:23Z</time>
      </trkpt>
      <trkpt lat="45.84395" lon="2.89641">
        <ele>816.4</ele>
        <time>2025-08-07T14:40:24Z</time>
      </trkpt>
      <trkpt lat="45.84391" lon="2.89644">
        <ele>816.4</ele>
        <time>2025-08-07T14:40:49Z</time>
      </trkpt>
      <trkpt lat="45.84391" lon="2.89645">
        <ele>816.4</ele>
        <time>2025-08-07T14:40:50Z</time>
      </trkpt>
      <trkpt lat="45.8439" lon="2.89646">
        <ele>816.4</ele>
        <time>2025-08-07T14:40:51Z</time>
      </trkpt>
      <trkpt lat="45.84388" lon="2.89648">
        <ele>816.4</ele>
        <time>2025-08-07T14:40:52Z</time>
      </trkpt>
      <trkpt lat="45.84386" lon="2.89649">
        <ele>816.4</ele>
        <time>2025-08-07T14:40:53Z</time>
      </trkpt>
      <trkpt lat="45.84385" lon="2.89651">
        <ele>816.6</ele>
        <time>2025-08-07T14:40:54Z</time>
      </trkpt>
      <trkpt lat="45.84383" lon="2.89654">
        <ele>816.6</ele>
        <time>2025-08-07T14:40:55Z</time>
      </trkpt>
      <trkpt lat="45.84381" lon="2.89655">
        <ele>816.8</ele>
        <time>2025-08-07T14:40:56Z</time>
      </trkpt>
      <trkpt lat="45.84379" lon="2.89657">
        <ele>816.8</ele>
        <time>2025-08-07T14:40:57Z</time>
      </trkpt>
      <trkpt lat="45.84377" lon="2.8966">
        <ele>817</ele>
        <time>2025-08-07T14:40:58Z</time>
      </trkpt>
      <trkpt lat="45.84374" lon="2.89663">
        <ele>816.8</ele>
        <time>2025-08-07T14:40:59Z</time>
      </trkpt>
      <trkpt lat="45.84371" lon="2.89666">
        <ele>816.8</ele>
        <time>2025-08-07T14:41:00Z</time>
      </trkpt>
      <trkpt lat="45.84369" lon="2.8967">
        <ele>817</ele>
        <time>2025-08-07T14:41:01Z</time>
      </trkpt>
      <trkpt lat="45.84365" lon="2.89674">
        <ele>817</ele>
        <time>2025-08-07T14:41:02Z</time>
      </trkpt>
      <trkpt lat="45.84363" lon="2.89678">
        <ele>817.2</ele>
        <time>2025-08-07T14:41:03Z</time>
      </trkpt>
      <trkpt lat="45.84362" lon="2.89683">
        <ele>817.2</ele>
        <time>2025-08-07T14:41:04Z</time>
      </trkpt>
      <trkpt lat="45.84362" lon="2.89687">
        <ele>817.4</ele>
        <time>2025-08-07T14:41:05Z</time>
      </trkpt>
      <trkpt lat="45.84361" lon="2.89691">
        <ele>817.4</ele>
        <time>2025-08-07T14:41:06Z</time>
      </trkpt>
      <trkpt lat="45.8436" lon="2.89694">
        <ele>817.4</ele>
        <time>2025-08-07T14:41:07Z</time>
      </trkpt>
      <trkpt lat="45.84359" lon="2.89698">
        <ele>817.4</ele>
        <time>2025-08-07T14:41:08Z</time>
      </trkpt>
      <trkpt lat="45.84359" lon="2.897">
        <ele>817.4</ele>
        <time>2025-08-07T14:41:09Z</time>
      </trkpt>
      <trkpt lat="45.84358" lon="2.89704">
        <ele>817.4</ele>
        <time>2025-08-07T14:41:10Z</time>
      </trkpt>
      <trkpt lat="45.84355" lon="2.89712">
        <ele>817.4</ele>
        <time>2025-08-07T14:41:11Z</time>
      </trkpt>
      <trkpt lat="45.84355" lon="2.89716">
        <ele>817.4</ele>
        <time>2025-08-07T14:41:12Z</time>
      </trkpt>
      <trkpt lat="45.84356" lon="2.89721">
        <ele>817.4</ele>
        <time>2025-08-07T14:41:13Z</time>
      </trkpt>
      <trkpt lat="45.84357" lon="2.89726">
        <ele>817.4</ele>
        <time>2025-08-07T14:41:14Z</time>
      </trkpt>
      <trkpt lat="45.84359" lon="2.8973">
        <ele>817.4</ele>
        <time>2025-08-07T14:41:15Z</time>
      </trkpt>
      <trkpt lat="45.84361" lon="2.89734">
        <ele>817.4</ele>
        <time>2025-08-07T14:41:16Z</time>
      </trkpt>
      <trkpt lat="45.84363" lon="2.89738">
        <ele>817.4</ele>
        <time>2025-08-07T14:41:17Z</time>
      </trkpt>
      <trkpt lat="45.84365" lon="2.89744">
        <ele>817.6</ele>
        <time>2025-08-07T14:41:18Z</time>
      </trkpt>
      <trkpt lat="45.84367" lon="2.8975">
        <ele>817.6</ele>
        <time>2025-08-07T14:41:19Z</time>
      </trkpt>
      <trkpt lat="45.8437" lon="2.89756">
        <ele>817.6</ele>
        <time>2025-08-07T14:41:20Z</time>
      </trkpt>
      <trkpt lat="45.84372" lon="2.89763">
        <ele>817.6</ele>
        <time>2025-08-07T14:41:21Z</time>
      </trkpt>
      <trkpt lat="45.84373" lon="2.89769">
        <ele>817.8</ele>
        <time>2025-08-07T14:41:22Z</time>
      </trkpt>
      <trkpt lat="45.84375" lon="2.89775">
        <ele>817.8</ele>
        <time>2025-08-07T14:41:23Z</time>
      </trkpt>
      <trkpt lat="45.84378" lon="2.89782">
        <ele>818</ele>
        <time>2025-08-07T14:41:24Z</time>
      </trkpt>
      <trkpt lat="45.8438" lon="2.89788">
        <ele>818</ele>
        <time>2025-08-07T14:41:25Z</time>
      </trkpt>
      <trkpt lat="45.84382" lon="2.89793">
        <ele>818</ele>
        <time>2025-08-07T14:41:26Z</time>
      </trkpt>
      <trkpt lat="45.84384" lon="2.89799">
        <ele>818.2</ele>
        <time>2025-08-07T14:41:27Z</time>
      </trkpt>
      <trkpt lat="45.84384" lon="2.89806">
        <ele>818.2</ele>
        <time>2025-08-07T14:41:28Z</time>
      </trkpt>
      <trkpt lat="45.84386" lon="2.89812">
        <ele>818.2</ele>
        <time>2025-08-07T14:41:29Z</time>
      </trkpt>
      <trkpt lat="45.84388" lon="2.89817">
        <ele>818.2</ele>
        <time>2025-08-07T14:41:30Z</time>
      </trkpt>
      <trkpt lat="45.8439" lon="2.89823">
        <ele>818.4</ele>
        <time>2025-08-07T14:41:31Z</time>
      </trkpt>
      <trkpt lat="45.84392" lon="2.8983">
        <ele>818.4</ele>
        <time>2025-08-07T14:41:32Z</time>
      </trkpt>
      <trkpt lat="45.84394" lon="2.89835">
        <ele>818.6</ele>
        <time>2025-08-07T14:41:33Z</time>
      </trkpt>
      <trkpt lat="45.84396" lon="2.89841">
        <ele>818.6</ele>
        <time>2025-08-07T14:41:34Z</time>
      </trkpt>
      <trkpt lat="45.84398" lon="2.89847">
        <ele>818.8</ele>
        <time>2025-08-07T14:41:35Z</time>
      </trkpt>
      <trkpt lat="45.844" lon="2.89853">
        <ele>819</ele>
        <time>2025-08-07T14:41:36Z</time>
      </trkpt>
      <trkpt lat="45.84402" lon="2.8986">
        <ele>819.2</ele>
        <time>2025-08-07T14:41:37Z</time>
      </trkpt>
      <trkpt lat="45.84405" lon="2.89864">
        <ele>819.4</ele>
        <time>2025-08-07T14:41:38Z</time>
      </trkpt>
      <trkpt lat="45.84408" lon="2.89869">
        <ele>819.6</ele>
        <time>2025-08-07T14:41:39Z</time>
      </trkpt>
      <trkpt lat="45.84409" lon="2.89873">
        <ele>819.8</ele>
        <time>2025-08-07T14:41:40Z</time>
      </trkpt>
      <trkpt lat="45.84411" lon="2.89878">
        <ele>820</ele>
        <time>2025-08-07T14:41:41Z</time>
      </trkpt>
      <trkpt lat="45.84414" lon="2.89884">
        <ele>820</ele>
        <time>2025-08-07T14:41:42Z</time>
      </trkpt>
      <trkpt lat="45.84417" lon="2.89889">
        <ele>820.2</ele>
        <time>2025-08-07T14:41:43Z</time>
      </trkpt>
      <trkpt lat="45.8442" lon="2.89894">
        <ele>820.2</ele>
        <time>2025-08-07T14:41:44Z</time>
      </trkpt>
      <trkpt lat="45.84424" lon="2.89899">
        <ele>820.2</ele>
        <time>2025-08-07T14:41:45Z</time>
      </trkpt>
      <trkpt lat="45.84429" lon="2.89906">
        <ele>820.2</ele>
        <time>2025-08-07T14:41:46Z</time>
      </trkpt>
      <trkpt lat="45.84432" lon="2.89912">
        <ele>820</ele>
        <time>2025-08-07T14:41:47Z</time>
      </trkpt>
      <trkpt lat="45.84436" lon="2.89918">
        <ele>819.8</ele>
        <time>2025-08-07T14:41:48Z</time>
      </trkpt>
      <trkpt lat="45.8444" lon="2.89923">
        <ele>819.4</ele>
        <time>2025-08-07T14:41:49Z</time>
      </trkpt>
      <trkpt lat="45.84443" lon="2.8993">
        <ele>819.2</ele>
        <time>2025-08-07T14:41:50Z</time>
      </trkpt>
      <trkpt lat="45.84449" lon="2.89939">
        <ele>819</ele>
        <time>2025-08-07T14:41:51Z</time>
      </trkpt>
      <trkpt lat="45.84452" lon="2.89946">
        <ele>818.8</ele>
        <time>2025-08-07T14:41:52Z</time>
      </trkpt>
      <trkpt lat="45.84455" lon="2.89954">
        <ele>818.6</ele>
        <time>2025-08-07T14:41:53Z</time>
      </trkpt>
      <trkpt lat="45.84458" lon="2.89961">
        <ele>818.6</ele>
        <time>2025-08-07T14:41:54Z</time>
      </trkpt>
      <trkpt lat="45.84461" lon="2.89969">
        <ele>818.4</ele>
        <time>2025-08-07T14:41:55Z</time>
      </trkpt>
      <trkpt lat="45.84465" lon="2.89975">
        <ele>818.4</ele>
        <time>2025-08-07T14:41:56Z</time>
      </trkpt>
      <trkpt lat="45.84468" lon="2.89981">
        <ele>818.4</ele>
        <time>2025-08-07T14:41:57Z</time>
      </trkpt>
      <trkpt lat="45.84471" lon="2.89987">
        <ele>818.4</ele>
        <time>2025-08-07T14:41:58Z</time>
      </trkpt>
      <trkpt lat="45.84474" lon="2.89993">
        <ele>818.4</ele>
        <time>2025-08-07T14:41:59Z</time>
      </trkpt>
      <trkpt lat="45.84478" lon="2.9">
        <ele>818.4</ele>
        <time>2025-08-07T14:42:00Z</time>
      </trkpt>
      <trkpt lat="45.84482" lon="2.90007">
        <ele>818.2</ele>
        <time>2025-08-07T14:42:01Z</time>
      </trkpt>
      <trkpt lat="45.84485" lon="2.90013">
        <ele>818.2</ele>
        <time>2025-08-07T14:42:02Z</time>
      </trkpt>
      <trkpt lat="45.84489" lon="2.9002">
        <ele>818.2</ele>
        <time>2025-08-07T14:42:03Z</time>
      </trkpt>
      <trkpt lat="45.84492" lon="2.90026">
        <ele>818.2</ele>
        <time>2025-08-07T14:42:04Z</time>
      </trkpt>
      <trkpt lat="45.84496" lon="2.90033">
        <ele>818.2</ele>
        <time>2025-08-07T14:42:05Z</time>
      </trkpt>
      <trkpt lat="45.845" lon="2.9004">
        <ele>818.2</ele>
        <time>2025-08-07T14:42:06Z</time>
      </trkpt>
      <trkpt lat="45.84504" lon="2.90047">
        <ele>818</ele>
        <time>2025-08-07T14:42:07Z</time>
      </trkpt>
      <trkpt lat="45.84506" lon="2.90055">
        <ele>818</ele>
        <time>2025-08-07T14:42:08Z</time>
      </trkpt>
      <trkpt lat="45.84509" lon="2.90061">
        <ele>818</ele>
        <time>2025-08-07T14:42:09Z</time>
      </trkpt>
      <trkpt lat="45.84511" lon="2.90067">
        <ele>818</ele>
        <time>2025-08-07T14:42:10Z</time>
      </trkpt>
      <trkpt lat="45.84514" lon="2.90073">
        <ele>818.2</ele>
        <time>2025-08-07T14:42:11Z</time>
      </trkpt>
      <trkpt lat="45.84516" lon="2.90077">
        <ele>818.2</ele>
        <time>2025-08-07T14:42:12Z</time>
      </trkpt>
      <trkpt lat="45.8452" lon="2.90082">
        <ele>818.2</ele>
        <time>2025-08-07T14:42:13Z</time>
      </trkpt>
      <trkpt lat="45.84523" lon="2.90087">
        <ele>818.4</ele>
        <time>2025-08-07T14:42:14Z</time>
      </trkpt>
      <trkpt lat="45.84528" lon="2.90094">
        <ele>818.4</ele>
        <time>2025-08-07T14:42:15Z</time>
      </trkpt>
      <trkpt lat="45.84532" lon="2.90102">
        <ele>818.4</ele>
        <time>2025-08-07T14:42:16Z</time>
      </trkpt>
      <trkpt lat="45.84536" lon="2.90108">
        <ele>818.6</ele>
        <time>2025-08-07T14:42:17Z</time>
      </trkpt>
      <trkpt lat="45.84541" lon="2.90114">
        <ele>818.8</ele>
        <time>2025-08-07T14:42:18Z</time>
      </trkpt>
      <trkpt lat="45.84544" lon="2.9012">
        <ele>819</ele>
        <time>2025-08-07T14:42:19Z</time>
      </trkpt>
      <trkpt lat="45.84547" lon="2.90125">
        <ele>819.2</ele>
        <time>2025-08-07T14:42:20Z</time>
      </trkpt>
      <trkpt lat="45.84548" lon="2.90131">
        <ele>819.2</ele>
        <time>2025-08-07T14:42:21Z</time>
      </trkpt>
      <trkpt lat="45.8455" lon="2.90135">
        <ele>819.4</ele>
        <time>2025-08-07T14:42:22Z</time>
      </trkpt>
      <trkpt lat="45.8455" lon="2.9014">
        <ele>819.4</ele>
        <time>2025-08-07T14:42:23Z</time>
      </trkpt>
      <trkpt lat="45.84551" lon="2.90143">
        <ele>819.4</ele>
        <time>2025-08-07T14:42:24Z</time>
      </trkpt>
      <trkpt lat="45.84552" lon="2.90146">
        <ele>819.4</ele>
        <time>2025-08-07T14:42:25Z</time>
      </trkpt>
      <trkpt lat="45.84551" lon="2.90149">
        <ele>819.4</ele>
        <time>2025-08-07T14:42:26Z</time>
      </trkpt>
      <trkpt lat="45.84551" lon="2.90151">
        <ele>819.4</ele>
        <time>2025-08-07T14:42:27Z</time>
      </trkpt>
      <trkpt lat="45.84549" lon="2.90153">
        <ele>819.2</ele>
        <time>2025-08-07T14:42:28Z</time>
      </trkpt>
      <trkpt lat="45.84549" lon="2.90156">
        <ele>819.2</ele>
        <time>2025-08-07T14:42:29Z</time>
      </trkpt>
      <trkpt lat="45.8455" lon="2.90158">
        <ele>819.4</ele>
        <time>2025-08-07T14:42:30Z</time>
      </trkpt>
      <trkpt lat="45.84549" lon="2.9016">
        <ele>819.4</ele>
        <time>2025-08-07T14:42:31Z</time>
      </trkpt>
      <trkpt lat="45.84551" lon="2.90162">
        <ele>819.4</ele>
        <time>2025-08-07T14:42:32Z</time>
      </trkpt>
      <trkpt lat="45.84555" lon="2.90165">
        <ele>819.4</ele>
        <time>2025-08-07T14:42:33Z</time>
      </trkpt>
      <trkpt lat="45.84562" lon="2.90168">
        <ele>819.6</ele>
        <time>2025-08-07T14:42:34Z</time>
      </trkpt>
      <trkpt lat="45.84567" lon="2.90171">
        <ele>819.8</ele>
        <time>2025-08-07T14:42:35Z</time>
      </trkpt>
      <trkpt lat="45.8457" lon="2.90175">
        <ele>820.2</ele>
        <time>2025-08-07T14:42:36Z</time>
      </trkpt>
      <trkpt lat="45.84573" lon="2.90179">
        <ele>820.6</ele>
        <time>2025-08-07T14:42:37Z</time>
      </trkpt>
      <trkpt lat="45.84575" lon="2.90184">
        <ele>821</ele>
        <time>2025-08-07T14:42:38Z</time>
      </trkpt>
      <trkpt lat="45.84576" lon="2.90189">
        <ele>821.4</ele>
        <time>2025-08-07T14:42:39Z</time>
      </trkpt>
      <trkpt lat="45.84578" lon="2.90195">
        <ele>821.8</ele>
        <time>2025-08-07T14:42:40Z</time>
      </trkpt>
      <trkpt lat="45.84579" lon="2.90201">
        <ele>822.2</ele>
        <time>2025-08-07T14:42:41Z</time>
      </trkpt>
      <trkpt lat="45.8458" lon="2.90208">
        <ele>822.6</ele>
        <time>2025-08-07T14:42:42Z</time>
      </trkpt>
      <trkpt lat="45.84581" lon="2.90214">
        <ele>822.8</ele>
        <time>2025-08-07T14:42:43Z</time>
      </trkpt>
      <trkpt lat="45.84582" lon="2.9022">
        <ele>823.2</ele>
        <time>2025-08-07T14:42:44Z</time>
      </trkpt>
      <trkpt lat="45.84584" lon="2.90226">
        <ele>823.2</ele>
        <time>2025-08-07T14:42:45Z</time>
      </trkpt>
      <trkpt lat="45.84586" lon="2.90231">
        <ele>823.4</ele>
        <time>2025-08-07T14:42:46Z</time>
      </trkpt>
      <trkpt lat="45.84587" lon="2.90236">
        <ele>823.6</ele>
        <time>2025-08-07T14:42:47Z</time>
      </trkpt>
      <trkpt lat="45.84589" lon="2.90242">
        <ele>823.6</ele>
        <time>2025-08-07T14:42:48Z</time>
      </trkpt>
      <trkpt lat="45.8459" lon="2.90248">
        <ele>823.8</ele>
        <time>2025-08-07T14:42:49Z</time>
      </trkpt>
      <trkpt lat="45.84592" lon="2.90254">
        <ele>824</ele>
        <time>2025-08-07T14:42:50Z</time>
      </trkpt>
      <trkpt lat="45.84594" lon="2.90259">
        <ele>824.2</ele>
        <time>2025-08-07T14:42:51Z</time>
      </trkpt>
      <trkpt lat="45.84596" lon="2.90265">
        <ele>824.4</ele>
        <time>2025-08-07T14:42:52Z</time>
      </trkpt>
      <trkpt lat="45.84598" lon="2.9027">
        <ele>824.4</ele>
        <time>2025-08-07T14:42:53Z</time>
      </trkpt>
      <trkpt lat="45.84599" lon="2.90275">
        <ele>824.6</ele>
        <time>2025-08-07T14:42:54Z</time>
      </trkpt>
      <trkpt lat="45.84599" lon="2.9028">
        <ele>824.6</ele>
        <time>2025-08-07T14:42:55Z</time>
      </trkpt>
      <trkpt lat="45.84601" lon="2.90284">
        <ele>824.8</ele>
        <time>2025-08-07T14:42:56Z</time>
      </trkpt>
      <trkpt lat="45.84602" lon="2.90288">
        <ele>825</ele>
        <time>2025-08-07T14:42:57Z</time>
      </trkpt>
      <trkpt lat="45.84604" lon="2.90293">
        <ele>825.2</ele>
        <time>2025-08-07T14:42:58Z</time>
      </trkpt>
      <trkpt lat="45.84607" lon="2.90298">
        <ele>825.2</ele>
        <time>2025-08-07T14:42:59Z</time>
      </trkpt>
      <trkpt lat="45.84609" lon="2.90303">
        <ele>825.4</ele>
        <time>2025-08-07T14:43:00Z</time>
      </trkpt>
      <trkpt lat="45.84611" lon="2.90308">
        <ele>825.4</ele>
        <time>2025-08-07T14:43:01Z</time>
      </trkpt>
      <trkpt lat="45.84612" lon="2.90314">
        <ele>825.6</ele>
        <time>2025-08-07T14:43:02Z</time>
      </trkpt>
      <trkpt lat="45.84615" lon="2.9032">
        <ele>825.8</ele>
        <time>2025-08-07T14:43:03Z</time>
      </trkpt>
      <trkpt lat="45.84618" lon="2.90325">
        <ele>825.8</ele>
        <time>2025-08-07T14:43:04Z</time>
      </trkpt>
      <trkpt lat="45.8462" lon="2.90332">
        <ele>826</ele>
        <time>2025-08-07T14:43:05Z</time>
      </trkpt>
      <trkpt lat="45.84622" lon="2.90338">
        <ele>826.2</ele>
        <time>2025-08-07T14:43:06Z</time>
      </trkpt>
      <trkpt lat="45.84623" lon="2.90345">
        <ele>826.2</ele>
        <time>2025-08-07T14:43:07Z</time>
      </trkpt>
      <trkpt lat="45.84624" lon="2.90353">
        <ele>826.4</ele>
        <time>2025-08-07T14:43:08Z</time>
      </trkpt>
      <trkpt lat="45.84625" lon="2.9036">
        <ele>826.6</ele>
        <time>2025-08-07T14:43:09Z</time>
      </trkpt>
      <trkpt lat="45.84627" lon="2.90366">
        <ele>826.8</ele>
        <time>2025-08-07T14:43:10Z</time>
      </trkpt>
      <trkpt lat="45.84629" lon="2.90372">
        <ele>826.8</ele>
        <time>2025-08-07T14:43:11Z</time>
      </trkpt>
      <trkpt lat="45.8463" lon="2.90378">
        <ele>827</ele>
        <time>2025-08-07T14:43:12Z</time>
      </trkpt>
      <trkpt lat="45.84631" lon="2.90383">
        <ele>827.2</ele>
        <time>2025-08-07T14:43:13Z</time>
      </trkpt>
      <trkpt lat="45.84632" lon="2.90388">
        <ele>827.4</ele>
        <time>2025-08-07T14:43:14Z</time>
      </trkpt>
      <trkpt lat="45.84632" lon="2.90394">
        <ele>827.6</ele>
        <time>2025-08-07T14:43:15Z</time>
      </trkpt>
      <trkpt lat="45.84632" lon="2.904">
        <ele>828</ele>
        <time>2025-08-07T14:43:16Z</time>
      </trkpt>
      <trkpt lat="45.84632" lon="2.90406">
        <ele>828.2</ele>
        <time>2025-08-07T14:43:17Z</time>
      </trkpt>
      <trkpt lat="45.84633" lon="2.90411">
        <ele>828.4</ele>
        <time>2025-08-07T14:43:18Z</time>
      </trkpt>
      <trkpt lat="45.84634" lon="2.90415">
        <ele>828.6</ele>
        <time>2025-08-07T14:43:19Z</time>
      </trkpt>
      <trkpt lat="45.84635" lon="2.90421">
        <ele>828.8</ele>
        <time>2025-08-07T14:43:20Z</time>
      </trkpt>
      <trkpt lat="45.84635" lon="2.90426">
        <ele>829</ele>
        <time>2025-08-07T14:43:21Z</time>
      </trkpt>
      <trkpt lat="45.84636" lon="2.90432">
        <ele>829.2</ele>
        <time>2025-08-07T14:43:22Z</time>
      </trkpt>
      <trkpt lat="45.84636" lon="2.90438">
        <ele>829.4</ele>
        <time>2025-08-07T14:43:23Z</time>
      </trkpt>
      <trkpt lat="45.84637" lon="2.90443">
        <ele>829.6</ele>
        <time>2025-08-07T14:43:24Z</time>
      </trkpt>
      <trkpt lat="45.84638" lon="2.90447">
        <ele>829.8</ele>
        <time>2025-08-07T14:43:25Z</time>
      </trkpt>
      <trkpt lat="45.84639" lon="2.90452">
        <ele>830</ele>
        <time>2025-08-07T14:43:26Z</time>
      </trkpt>
      <trkpt lat="45.84639" lon="2.90457">
        <ele>830.4</ele>
        <time>2025-08-07T14:43:27Z</time>
      </trkpt>
      <trkpt lat="45.84639" lon="2.90463">
        <ele>830.4</ele>
        <time>2025-08-07T14:43:28Z</time>
      </trkpt>
      <trkpt lat="45.84639" lon="2.90468">
        <ele>830.6</ele>
        <time>2025-08-07T14:43:29Z</time>
      </trkpt>
      <trkpt lat="45.84639" lon="2.90474">
        <ele>830.8</ele>
        <time>2025-08-07T14:43:30Z</time>
      </trkpt>
      <trkpt lat="45.84639" lon="2.9048">
        <ele>831</ele>
        <time>2025-08-07T14:43:31Z</time>
      </trkpt>
      <trkpt lat="45.84639" lon="2.90485">
        <ele>831.2</ele>
        <time>2025-08-07T14:43:32Z</time>
      </trkpt>
      <trkpt lat="45.84639" lon="2.9049">
        <ele>831.4</ele>
        <time>2025-08-07T14:43:33Z</time>
      </trkpt>
      <trkpt lat="45.84639" lon="2.90496">
        <ele>831.6</ele>
        <time>2025-08-07T14:43:34Z</time>
      </trkpt>
      <trkpt lat="45.84638" lon="2.90502">
        <ele>831.8</ele>
        <time>2025-08-07T14:43:35Z</time>
      </trkpt>
      <trkpt lat="45.84638" lon="2.90507">
        <ele>831.8</ele>
        <time>2025-08-07T14:43:36Z</time>
      </trkpt>
      <trkpt lat="45.84637" lon="2.90512">
        <ele>832.2</ele>
        <time>2025-08-07T14:43:37Z</time>
      </trkpt>
      <trkpt lat="45.84636" lon="2.90518">
        <ele>832.4</ele>
        <time>2025-08-07T14:43:38Z</time>
      </trkpt>
      <trkpt lat="45.84634" lon="2.90523">
        <ele>832.6</ele>
        <time>2025-08-07T14:43:39Z</time>
      </trkpt>
      <trkpt lat="45.84633" lon="2.90529">
        <ele>833</ele>
        <time>2025-08-07T14:43:40Z</time>
      </trkpt>
      <trkpt lat="45.84632" lon="2.90534">
        <ele>833.2</ele>
        <time>2025-08-07T14:43:41Z</time>
      </trkpt>
      <trkpt lat="45.84631" lon="2.90538">
        <ele>833.6</ele>
        <time>2025-08-07T14:43:42Z</time>
      </trkpt>
      <trkpt lat="45.8463" lon="2.90543">
        <ele>834</ele>
        <time>2025-08-07T14:43:43Z</time>
      </trkpt>
      <trkpt lat="45.84629" lon="2.90548">
        <ele>834.4</ele>
        <time>2025-08-07T14:43:44Z</time>
      </trkpt>
      <trkpt lat="45.84628" lon="2.90552">
        <ele>834.8</ele>
        <time>2025-08-07T14:43:45Z</time>
      </trkpt>
      <trkpt lat="45.84625" lon="2.90557">
        <ele>835.2</ele>
        <time>2025-08-07T14:43:46Z</time>
      </trkpt>
      <trkpt lat="45.84624" lon="2.90561">
        <ele>835.6</ele>
        <time>2025-08-07T14:43:47Z</time>
      </trkpt>
      <trkpt lat="45.84622" lon="2.90565">
        <ele>836</ele>
        <time>2025-08-07T14:43:48Z</time>
      </trkpt>
      <trkpt lat="45.84621" lon="2.90569">
        <ele>836.4</ele>
        <time>2025-08-07T14:43:49Z</time>
      </trkpt>
      <trkpt lat="45.84619" lon="2.90573">
        <ele>836.8</ele>
        <time>2025-08-07T14:43:50Z</time>
      </trkpt>
      <trkpt lat="45.84618" lon="2.90578">
        <ele>837.2</ele>
        <time>2025-08-07T14:43:51Z</time>
      </trkpt>
      <trkpt lat="45.84617" lon="2.90583">
        <ele>837.6</ele>
        <time>2025-08-07T14:43:52Z</time>
      </trkpt>
      <trkpt lat="45.84616" lon="2.90587">
        <ele>838</ele>
        <time>2025-08-07T14:43:53Z</time>
      </trkpt>
      <trkpt lat="45.84616" lon="2.90592">
        <ele>838.2</ele>
        <time>2025-08-07T14:43:54Z</time>
      </trkpt>
      <trkpt lat="45.84615" lon="2.90597">
        <ele>838.6</ele>
        <time>2025-08-07T14:43:55Z</time>
      </trkpt>
      <trkpt lat="45.84615" lon="2.90603">
        <ele>838.8</ele>
        <time>2025-08-07T14:43:56Z</time>
      </trkpt>
      <trkpt lat="45.84615" lon="2.90608">
        <ele>839</ele>
        <time>2025-08-07T14:43:57Z</time>
      </trkpt>
      <trkpt lat="45.84615" lon="2.90614">
        <ele>839.2</ele>
        <time>2025-08-07T14:43:58Z</time>
      </trkpt>
      <trkpt lat="45.84615" lon="2.9062">
        <ele>839.4</ele>
        <time>2025-08-07T14:43:59Z</time>
      </trkpt>
      <trkpt lat="45.84615" lon="2.90626">
        <ele>839.4</ele>
        <time>2025-08-07T14:44:00Z</time>
      </trkpt>
      <trkpt lat="45.84616" lon="2.90633">
        <ele>839.6</ele>
        <time>2025-08-07T14:44:01Z</time>
      </trkpt>
      <trkpt lat="45.84618" lon="2.90639">
        <ele>839.6</ele>
        <time>2025-08-07T14:44:02Z</time>
      </trkpt>
      <trkpt lat="45.84619" lon="2.90645">
        <ele>839.8</ele>
        <time>2025-08-07T14:44:03Z</time>
      </trkpt>
      <trkpt lat="45.84621" lon="2.90651">
        <ele>840</ele>
        <time>2025-08-07T14:44:04Z</time>
      </trkpt>
      <trkpt lat="45.84622" lon="2.90656">
        <ele>840</ele>
        <time>2025-08-07T14:44:05Z</time>
      </trkpt>
      <trkpt lat="45.84624" lon="2.90662">
        <ele>840.2</ele>
        <time>2025-08-07T14:44:06Z</time>
      </trkpt>
      <trkpt lat="45.84625" lon="2.90666">
        <ele>840.4</ele>
        <time>2025-08-07T14:44:07Z</time>
      </trkpt>
      <trkpt lat="45.84626" lon="2.90671">
        <ele>840.6</ele>
        <time>2025-08-07T14:44:08Z</time>
      </trkpt>
      <trkpt lat="45.84626" lon="2.90677">
        <ele>841</ele>
        <time>2025-08-07T14:44:09Z</time>
      </trkpt>
      <trkpt lat="45.84627" lon="2.90682">
        <ele>841.4</ele>
        <time>2025-08-07T14:44:10Z</time>
      </trkpt>
      <trkpt lat="45.84627" lon="2.90688">
        <ele>841.8</ele>
        <time>2025-08-07T14:44:11Z</time>
      </trkpt>
      <trkpt lat="45.84627" lon="2.90694">
        <ele>842.2</ele>
        <time>2025-08-07T14:44:12Z</time>
      </trkpt>
      <trkpt lat="45.84627" lon="2.90699">
        <ele>842.8</ele>
        <time>2025-08-07T14:44:13Z</time>
      </trkpt>
      <trkpt lat="45.84626" lon="2.90705">
        <ele>843.2</ele>
        <time>2025-08-07T14:44:14Z</time>
      </trkpt>
      <trkpt lat="45.84625" lon="2.9071">
        <ele>843.8</ele>
        <time>2025-08-07T14:44:15Z</time>
      </trkpt>
      <trkpt lat="45.84625" lon="2.90715">
        <ele>844.2</ele>
        <time>2025-08-07T14:44:16Z</time>
      </trkpt>
      <trkpt lat="45.84624" lon="2.9072">
        <ele>844.6</ele>
        <time>2025-08-07T14:44:17Z</time>
      </trkpt>
      <trkpt lat="45.84623" lon="2.90725">
        <ele>845</ele>
        <time>2025-08-07T14:44:18Z</time>
      </trkpt>
      <trkpt lat="45.84622" lon="2.90731">
        <ele>845.4</ele>
        <time>2025-08-07T14:44:19Z</time>
      </trkpt>
      <trkpt lat="45.84621" lon="2.90736">
        <ele>845.6</ele>
        <time>2025-08-07T14:44:20Z</time>
      </trkpt>
      <trkpt lat="45.84621" lon="2.90742">
        <ele>846</ele>
        <time>2025-08-07T14:44:21Z</time>
      </trkpt>
      <trkpt lat="45.8462" lon="2.90748">
        <ele>846.2</ele>
        <time>2025-08-07T14:44:22Z</time>
      </trkpt>
      <trkpt lat="45.8462" lon="2.90754">
        <ele>846.4</ele>
        <time>2025-08-07T14:44:23Z</time>
      </trkpt>
      <trkpt lat="45.8462" lon="2.90761">
        <ele>846.6</ele>
        <time>2025-08-07T14:44:24Z</time>
      </trkpt>
      <trkpt lat="45.8462" lon="2.90768">
        <ele>846.6</ele>
        <time>2025-08-07T14:44:25Z</time>
      </trkpt>
      <trkpt lat="45.8462" lon="2.90776">
        <ele>846.8</ele>
        <time>2025-08-07T14:44:26Z</time>
      </trkpt>
      <trkpt lat="45.84621" lon="2.90785">
        <ele>846.8</ele>
        <time>2025-08-07T14:44:27Z</time>
      </trkpt>
      <trkpt lat="45.84622" lon="2.90793">
        <ele>847</ele>
        <time>2025-08-07T14:44:28Z</time>
      </trkpt>
      <trkpt lat="45.84624" lon="2.90802">
        <ele>847.2</ele>
        <time>2025-08-07T14:44:29Z</time>
      </trkpt>
      <trkpt lat="45.84627" lon="2.90811">
        <ele>847.2</ele>
        <time>2025-08-07T14:44:30Z</time>
      </trkpt>
      <trkpt lat="45.84629" lon="2.9082">
        <ele>847.2</ele>
        <time>2025-08-07T14:44:31Z</time>
      </trkpt>
      <trkpt lat="45.84631" lon="2.90828">
        <ele>847.4</ele>
        <time>2025-08-07T14:44:32Z</time>
      </trkpt>
      <trkpt lat="45.84633" lon="2.90836">
        <ele>847.6</ele>
        <time>2025-08-07T14:44:33Z</time>
      </trkpt>
      <trkpt lat="45.84635" lon="2.90844">
        <ele>847.6</ele>
        <time>2025-08-07T14:44:34Z</time>
      </trkpt>
      <trkpt lat="45.84638" lon="2.90851">
        <ele>847.8</ele>
        <time>2025-08-07T14:44:35Z</time>
      </trkpt>
      <trkpt lat="45.8464" lon="2.90858">
        <ele>847.8</ele>
        <time>2025-08-07T14:44:36Z</time>
      </trkpt>
      <trkpt lat="45.84642" lon="2.90865">
        <ele>848</ele>
        <time>2025-08-07T14:44:37Z</time>
      </trkpt>
      <trkpt lat="45.84643" lon="2.90872">
        <ele>848.2</ele>
        <time>2025-08-07T14:44:38Z</time>
      </trkpt>
      <trkpt lat="45.84644" lon="2.9088">
        <ele>848.2</ele>
        <time>2025-08-07T14:44:39Z</time>
      </trkpt>
      <trkpt lat="45.84644" lon="2.90888">
        <ele>848.4</ele>
        <time>2025-08-07T14:44:40Z</time>
      </trkpt>
      <trkpt lat="45.84644" lon="2.90895">
        <ele>848.6</ele>
        <time>2025-08-07T14:44:41Z</time>
      </trkpt>
      <trkpt lat="45.84645" lon="2.90903">
        <ele>848.8</ele>
        <time>2025-08-07T14:44:42Z</time>
      </trkpt>
      <trkpt lat="45.84645" lon="2.9091">
        <ele>849</ele>
        <time>2025-08-07T14:44:43Z</time>
      </trkpt>
      <trkpt lat="45.84645" lon="2.90918">
        <ele>849</ele>
        <time>2025-08-07T14:44:44Z</time>
      </trkpt>
      <trkpt lat="45.84644" lon="2.90926">
        <ele>849.2</ele>
        <time>2025-08-07T14:44:45Z</time>
      </trkpt>
      <trkpt lat="45.84644" lon="2.90934">
        <ele>849.2</ele>
        <time>2025-08-07T14:44:46Z</time>
      </trkpt>
      <trkpt lat="45.84644" lon="2.90941">
        <ele>849.2</ele>
        <time>2025-08-07T14:44:47Z</time>
      </trkpt>
      <trkpt lat="45.84643" lon="2.90949">
        <ele>849.4</ele>
        <time>2025-08-07T14:44:48Z</time>
      </trkpt>
      <trkpt lat="45.84643" lon="2.90956">
        <ele>849.4</ele>
        <time>2025-08-07T14:44:49Z</time>
      </trkpt>
      <trkpt lat="45.84642" lon="2.90963">
        <ele>849.4</ele>
        <time>2025-08-07T14:44:50Z</time>
      </trkpt>
      <trkpt lat="45.84642" lon="2.90971">
        <ele>849.4</ele>
        <time>2025-08-07T14:44:51Z</time>
      </trkpt>
      <trkpt lat="45.84642" lon="2.90979">
        <ele>849.6</ele>
        <time>2025-08-07T14:44:52Z</time>
      </trkpt>
      <trkpt lat="45.84641" lon="2.90987">
        <ele>849.6</ele>
        <time>2025-08-07T14:44:53Z</time>
      </trkpt>
      <trkpt lat="45.84641" lon="2.90994">
        <ele>849.6</ele>
        <time>2025-08-07T14:44:54Z</time>
      </trkpt>
      <trkpt lat="45.8464" lon="2.91002">
        <ele>849.6</ele>
        <time>2025-08-07T14:44:55Z</time>
      </trkpt>
      <trkpt lat="45.84639" lon="2.91009">
        <ele>849.8</ele>
        <time>2025-08-07T14:44:56Z</time>
      </trkpt>
      <trkpt lat="45.84638" lon="2.91016">
        <ele>849.8</ele>
        <time>2025-08-07T14:44:57Z</time>
      </trkpt>
      <trkpt lat="45.84636" lon="2.91022">
        <ele>849.8</ele>
        <time>2025-08-07T14:44:58Z</time>
      </trkpt>
      <trkpt lat="45.84635" lon="2.91025">
        <ele>849.8</ele>
        <time>2025-08-07T14:44:59Z</time>
      </trkpt>
      <trkpt lat="45.84632" lon="2.91027">
        <ele>850</ele>
        <time>2025-08-07T14:45:00Z</time>
      </trkpt>
      <trkpt lat="45.84629" lon="2.91027">
        <ele>850</ele>
        <time>2025-08-07T14:45:01Z</time>
      </trkpt>
      <trkpt lat="45.84625" lon="2.91027">
        <ele>850</ele>
        <time>2025-08-07T14:45:02Z</time>
      </trkpt>
      <trkpt lat="45.84622" lon="2.91027">
        <ele>850</ele>
        <time>2025-08-07T14:45:03Z</time>
      </trkpt>
      <trkpt lat="45.84617" lon="2.91027">
        <ele>850.2</ele>
        <time>2025-08-07T14:45:04Z</time>
      </trkpt>
      <trkpt lat="45.84613" lon="2.91027">
        <ele>850.2</ele>
        <time>2025-08-07T14:45:05Z</time>
      </trkpt>
      <trkpt lat="45.84607" lon="2.91027">
        <ele>850</ele>
        <time>2025-08-07T14:45:06Z</time>
      </trkpt>
      <trkpt lat="45.84602" lon="2.91028">
        <ele>850</ele>
        <time>2025-08-07T14:45:07Z</time>
      </trkpt>
      <trkpt lat="45.84596" lon="2.91029">
        <ele>850</ele>
        <time>2025-08-07T14:45:08Z</time>
      </trkpt>
      <trkpt lat="45.8459" lon="2.91029">
        <ele>850</ele>
        <time>2025-08-07T14:45:09Z</time>
      </trkpt>
      <trkpt lat="45.84585" lon="2.9103">
        <ele>850</ele>
        <time>2025-08-07T14:45:10Z</time>
      </trkpt>
      <trkpt lat="45.84579" lon="2.91031">
        <ele>850.2</ele>
        <time>2025-08-07T14:45:11Z</time>
      </trkpt>
      <trkpt lat="45.84573" lon="2.91032">
        <ele>850.2</ele>
        <time>2025-08-07T14:45:12Z</time>
      </trkpt>
      <trkpt lat="45.84568" lon="2.91032">
        <ele>850.2</ele>
        <time>2025-08-07T14:45:13Z</time>
      </trkpt>
      <trkpt lat="45.84563" lon="2.91033">
        <ele>850.2</ele>
        <time>2025-08-07T14:45:14Z</time>
      </trkpt>
      <trkpt lat="45.84557" lon="2.91035">
        <ele>850.2</ele>
        <time>2025-08-07T14:45:15Z</time>
      </trkpt>
      <trkpt lat="45.84552" lon="2.91037">
        <ele>850.2</ele>
        <time>2025-08-07T14:45:16Z</time>
      </trkpt>
      <trkpt lat="45.84546" lon="2.91039">
        <ele>850.2</ele>
        <time>2025-08-07T14:45:17Z</time>
      </trkpt>
      <trkpt lat="45.84541" lon="2.91041">
        <ele>850</ele>
        <time>2025-08-07T14:45:18Z</time>
      </trkpt>
      <trkpt lat="45.84534" lon="2.91044">
        <ele>850</ele>
        <time>2025-08-07T14:45:19Z</time>
      </trkpt>
      <trkpt lat="45.84529" lon="2.91047">
        <ele>849.8</ele>
        <time>2025-08-07T14:45:20Z</time>
      </trkpt>
      <trkpt lat="45.84523" lon="2.9105">
        <ele>849.6</ele>
        <time>2025-08-07T14:45:21Z</time>
      </trkpt>
      <trkpt lat="45.84517" lon="2.91053">
        <ele>849.4</ele>
        <time>2025-08-07T14:45:22Z</time>
      </trkpt>
      <trkpt lat="45.84511" lon="2.91055">
        <ele>849.2</ele>
        <time>2025-08-07T14:45:23Z</time>
      </trkpt>
      <trkpt lat="45.84505" lon="2.91057">
        <ele>849</ele>
        <time>2025-08-07T14:45:24Z</time>
      </trkpt>
      <trkpt lat="45.84499" lon="2.91059">
        <ele>848.8</ele>
        <time>2025-08-07T14:45:25Z</time>
      </trkpt>
      <trkpt lat="45.84494" lon="2.91061">
        <ele>848.8</ele>
        <time>2025-08-07T14:45:26Z</time>
      </trkpt>
      <trkpt lat="45.84489" lon="2.91063">
        <ele>848.6</ele>
        <time>2025-08-07T14:45:27Z</time>
      </trkpt>
      <trkpt lat="45.84484" lon="2.91064">
        <ele>848.6</ele>
        <time>2025-08-07T14:45:28Z</time>
      </trkpt>
      <trkpt lat="45.8448" lon="2.91066">
        <ele>848.4</ele>
        <time>2025-08-07T14:45:29Z</time>
      </trkpt>
      <trkpt lat="45.84477" lon="2.91066">
        <ele>848.4</ele>
        <time>2025-08-07T14:45:30Z</time>
      </trkpt>
      <trkpt lat="45.84476" lon="2.91066">
        <ele>848.2</ele>
        <time>2025-08-07T14:45:31Z</time>
      </trkpt>
      <trkpt lat="45.84475" lon="2.91066">
        <ele>848.2</ele>
        <time>2025-08-07T14:45:32Z</time>
      </trkpt>
      <trkpt lat="45.84473" lon="2.91066">
        <ele>848</ele>
        <time>2025-08-07T14:45:33Z</time>
      </trkpt>
      <trkpt lat="45.84472" lon="2.91067">
        <ele>848</ele>
        <time>2025-08-07T14:45:34Z</time>
      </trkpt>
      <trkpt lat="45.84475" lon="2.91069">
        <ele>847.8</ele>
        <time>2025-08-07T14:45:44Z</time>
      </trkpt>
      <trkpt lat="45.84476" lon="2.91068">
        <ele>847.8</ele>
        <time>2025-08-07T14:45:45Z</time>
      </trkpt>
      <trkpt lat="45.84477" lon="2.91068">
        <ele>847.8</ele>
        <time>2025-08-07T14:45:46Z</time>
      </trkpt>
      <trkpt lat="45.84478" lon="2.91069">
        <ele>848</ele>
        <time>2025-08-07T14:45:47Z</time>
      </trkpt>
      <trkpt lat="45.84479" lon="2.91071">
        <ele>848</ele>
        <time>2025-08-07T14:45:48Z</time>
      </trkpt>
      <trkpt lat="45.84479" lon="2.91074">
        <ele>848</ele>
        <time>2025-08-07T14:45:49Z</time>
      </trkpt>
      <trkpt lat="45.84479" lon="2.91077">
        <ele>848.2</ele>
        <time>2025-08-07T14:45:50Z</time>
      </trkpt>
      <trkpt lat="45.84478" lon="2.91079">
        <ele>848.2</ele>
        <time>2025-08-07T14:45:51Z</time>
      </trkpt>
      <trkpt lat="45.84477" lon="2.91082">
        <ele>848.4</ele>
        <time>2025-08-07T14:45:52Z</time>
      </trkpt>
      <trkpt lat="45.84476" lon="2.91084">
        <ele>848.6</ele>
        <time>2025-08-07T14:45:53Z</time>
      </trkpt>
      <trkpt lat="45.84476" lon="2.91085">
        <ele>848.6</ele>
        <time>2025-08-07T14:45:54Z</time>
      </trkpt>
      <trkpt lat="45.84475" lon="2.91086">
        <ele>848.8</ele>
        <time>2025-08-07T14:45:55Z</time>
      </trkpt>
      <trkpt lat="45.84475" lon="2.91087">
        <ele>848.8</ele>
        <time>2025-08-07T14:45:56Z</time>
      </trkpt>
      <trkpt lat="45.84474" lon="2.91089">
        <ele>849</ele>
        <time>2025-08-07T14:45:57Z</time>
      </trkpt>
      <trkpt lat="45.84474" lon="2.9109">
        <ele>849</ele>
        <time>2025-08-07T14:45:58Z</time>
      </trkpt>
      <trkpt lat="45.84473" lon="2.91092">
        <ele>849</ele>
        <time>2025-08-07T14:45:59Z</time>
      </trkpt>
      <trkpt lat="45.84473" lon="2.91092">
        <ele>849</ele>
        <time>2025-08-07T14:46:00Z</time>
      </trkpt>
      <trkpt lat="45.84473" lon="2.91092">
        <ele>849</ele>
        <time>2025-08-07T14:46:01Z</time>
      </trkpt>
      <trkpt lat="45.84472" lon="2.91093">
        <ele>849</ele>
        <time>2025-08-07T14:46:02Z</time>
      </trkpt>
      <trkpt lat="45.84472" lon="2.91094">
        <ele>849</ele>
        <time>2025-08-07T14:46:03Z</time>
      </trkpt>
      <trkpt lat="45.8447" lon="2.91096">
        <ele>849</ele>
        <time>2025-08-07T14:46:04Z</time>
      </trkpt>
      <trkpt lat="45.8447" lon="2.91097">
        <ele>849</ele>
        <time>2025-08-07T14:46:05Z</time>
      </trkpt>
      <trkpt lat="45.8447" lon="2.91098">
        <ele>849</ele>
        <time>2025-08-07T14:46:06Z</time>
      </trkpt>
      <trkpt lat="45.8447" lon="2.91098">
        <ele>849</ele>
        <time>2025-08-07T14:46:07Z</time>
      </trkpt>
      <trkpt lat="45.8447" lon="2.91098">
        <ele>849</ele>
        <time>2025-08-07T14:46:08Z</time>
      </trkpt>
      <trkpt lat="45.8447" lon="2.91098">
        <ele>849</ele>
        <time>2025-08-07T14:46:09Z</time>
      </trkpt>
      <trkpt lat="45.8447" lon="2.91098">
        <ele>849</ele>
        <time>2025-08-07T14:46:10Z</time>
      </trkpt>
      <trkpt lat="45.8447" lon="2.91098">
        <ele>849</ele>
        <time>2025-08-07T14:46:11Z</time>
      </trkpt>
      <trkpt lat="45.84469" lon="2.91102">
        <ele>849</ele>
        <time>2025-08-07T14:46:32Z</time>
      </trkpt>
      <trkpt lat="45.84467" lon="2.91105">
        <ele>849</ele>
        <time>2025-08-07T14:46:33Z</time>
      </trkpt>
      <trkpt lat="45.84466" lon="2.91108">
        <ele>849</ele>
        <time>2025-08-07T14:46:34Z</time>
      </trkpt>
      <trkpt lat="45.84463" lon="2.91113">
        <ele>849</ele>
        <time>2025-08-07T14:46:35Z</time>
      </trkpt>
      <trkpt lat="45.8446" lon="2.91117">
        <ele>849</ele>
        <time>2025-08-07T14:46:36Z</time>
      </trkpt>
      <trkpt lat="45.84458" lon="2.9112">
        <ele>849</ele>
        <time>2025-08-07T14:46:37Z</time>
      </trkpt>
      <trkpt lat="45.84456" lon="2.91124">
        <ele>849</ele>
        <time>2025-08-07T14:46:38Z</time>
      </trkpt>
      <trkpt lat="45.84454" lon="2.91127">
        <ele>849</ele>
        <time>2025-08-07T14:46:39Z</time>
      </trkpt>
      <trkpt lat="45.84453" lon="2.91132">
        <ele>849.2</ele>
        <time>2025-08-07T14:46:40Z</time>
      </trkpt>
      <trkpt lat="45.84451" lon="2.91137">
        <ele>849.2</ele>
        <time>2025-08-07T14:46:41Z</time>
      </trkpt>
      <trkpt lat="45.84448" lon="2.91141">
        <ele>849.2</ele>
        <time>2025-08-07T14:46:42Z</time>
      </trkpt>
      <trkpt lat="45.84446" lon="2.91145">
        <ele>849.4</ele>
        <time>2025-08-07T14:46:43Z</time>
      </trkpt>
      <trkpt lat="45.84443" lon="2.91149">
        <ele>849.4</ele>
        <time>2025-08-07T14:46:44Z</time>
      </trkpt>
      <trkpt lat="45.8444" lon="2.91153">
        <ele>849.4</ele>
        <time>2025-08-07T14:46:45Z</time>
      </trkpt>
      <trkpt lat="45.84437" lon="2.91157">
        <ele>849.6</ele>
        <time>2025-08-07T14:46:46Z</time>
      </trkpt>
      <trkpt lat="45.84434" lon="2.91161">
        <ele>849.4</ele>
        <time>2025-08-07T14:46:47Z</time>
      </trkpt>
      <trkpt lat="45.8443" lon="2.91165">
        <ele>849.4</ele>
        <time>2025-08-07T14:46:48Z</time>
      </trkpt>
      <trkpt lat="45.84426" lon="2.91169">
        <ele>849.4</ele>
        <time>2025-08-07T14:46:49Z</time>
      </trkpt>
      <trkpt lat="45.84422" lon="2.91173">
        <ele>849.4</ele>
        <time>2025-08-07T14:46:50Z</time>
      </trkpt>
      <trkpt lat="45.84419" lon="2.91177">
        <ele>849.2</ele>
        <time>2025-08-07T14:46:51Z</time>
      </trkpt>
      <trkpt lat="45.84416" lon="2.9118">
        <ele>849.2</ele>
        <time>2025-08-07T14:46:52Z</time>
      </trkpt>
      <trkpt lat="45.84412" lon="2.91184">
        <ele>849.2</ele>
        <time>2025-08-07T14:46:53Z</time>
      </trkpt>
      <trkpt lat="45.84409" lon="2.91188">
        <ele>849.2</ele>
        <time>2025-08-07T14:46:54Z</time>
      </trkpt>
      <trkpt lat="45.84406" lon="2.91191">
        <ele>849.2</ele>
        <time>2025-08-07T14:46:55Z</time>
      </trkpt>
      <trkpt lat="45.84404" lon="2.91195">
        <ele>849</ele>
        <time>2025-08-07T14:46:56Z</time>
      </trkpt>
      <trkpt lat="45.84401" lon="2.91198">
        <ele>849</ele>
        <time>2025-08-07T14:46:57Z</time>
      </trkpt>
      <trkpt lat="45.84398" lon="2.91201">
        <ele>848.8</ele>
        <time>2025-08-07T14:46:58Z</time>
      </trkpt>
      <trkpt lat="45.84396" lon="2.91203">
        <ele>848.8</ele>
        <time>2025-08-07T14:46:59Z</time>
      </trkpt>
      <trkpt lat="45.84394" lon="2.91207">
        <ele>848.8</ele>
        <time>2025-08-07T14:47:00Z</time>
      </trkpt>
      <trkpt lat="45.84392" lon="2.91211">
        <ele>848.8</ele>
        <time>2025-08-07T14:47:01Z</time>
      </trkpt>
      <trkpt lat="45.8439" lon="2.91214">
        <ele>848.8</ele>
        <time>2025-08-07T14:47:02Z</time>
      </trkpt>
      <trkpt lat="45.84387" lon="2.91218">
        <ele>848.8</ele>
        <time>2025-08-07T14:47:03Z</time>
      </trkpt>
      <trkpt lat="45.84386" lon="2.91221">
        <ele>848.8</ele>
        <time>2025-08-07T14:47:04Z</time>
      </trkpt>
      <trkpt lat="45.84385" lon="2.91225">
        <ele>848.6</ele>
        <time>2025-08-07T14:47:05Z</time>
      </trkpt>
      <trkpt lat="45.84384" lon="2.91228">
        <ele>848.6</ele>
        <time>2025-08-07T14:47:06Z</time>
      </trkpt>
      <trkpt lat="45.84383" lon="2.91232">
        <ele>848.6</ele>
        <time>2025-08-07T14:47:07Z</time>
      </trkpt>
      <trkpt lat="45.84382" lon="2.91235">
        <ele>848.6</ele>
        <time>2025-08-07T14:47:08Z</time>
      </trkpt>
      <trkpt lat="45.84382" lon="2.91238">
        <ele>848.6</ele>
        <time>2025-08-07T14:47:09Z</time>
      </trkpt>
      <trkpt lat="45.84382" lon="2.91241">
        <ele>848.6</ele>
        <time>2025-08-07T14:47:10Z</time>
      </trkpt>
      <trkpt lat="45.84382" lon="2.91244">
        <ele>848.6</ele>
        <time>2025-08-07T14:47:11Z</time>
      </trkpt>
      <trkpt lat="45.84382" lon="2.91248">
        <ele>848.4</ele>
        <time>2025-08-07T14:47:12Z</time>
      </trkpt>
      <trkpt lat="45.8438" lon="2.91254">
        <ele>848.4</ele>
        <time>2025-08-07T14:47:13Z</time>
      </trkpt>
      <trkpt lat="45.84379" lon="2.9126">
        <ele>848.4</ele>
        <time>2025-08-07T14:47:14Z</time>
      </trkpt>
      <trkpt lat="45.84377" lon="2.91263">
        <ele>848.4</ele>
        <time>2025-08-07T14:47:15Z</time>
      </trkpt>
      <trkpt lat="45.84374" lon="2.91265">
        <ele>848.4</ele>
        <time>2025-08-07T14:47:16Z</time>
      </trkpt>
      <trkpt lat="45.84371" lon="2.91267">
        <ele>848.2</ele>
        <time>2025-08-07T14:47:17Z</time>
      </trkpt>
      <trkpt lat="45.84368" lon="2.91268">
        <ele>848.2</ele>
        <time>2025-08-07T14:47:18Z</time>
      </trkpt>
      <trkpt lat="45.84364" lon="2.91267">
        <ele>848.2</ele>
        <time>2025-08-07T14:47:19Z</time>
      </trkpt>
      <trkpt lat="45.84363" lon="2.91267">
        <ele>848</ele>
        <time>2025-08-07T14:47:20Z</time>
      </trkpt>
      <trkpt lat="45.8436" lon="2.91267">
        <ele>848</ele>
        <time>2025-08-07T14:47:21Z</time>
      </trkpt>
      <trkpt lat="45.84357" lon="2.91266">
        <ele>847.8</ele>
        <time>2025-08-07T14:47:22Z</time>
      </trkpt>
      <trkpt lat="45.84355" lon="2.91266">
        <ele>847.8</ele>
        <time>2025-08-07T14:47:23Z</time>
      </trkpt>
      <trkpt lat="45.84353" lon="2.91266">
        <ele>847.8</ele>
        <time>2025-08-07T14:47:24Z</time>
      </trkpt>
      <trkpt lat="45.8435" lon="2.91265">
        <ele>847.6</ele>
        <time>2025-08-07T14:47:25Z</time>
      </trkpt>
      <trkpt lat="45.84347" lon="2.91264">
        <ele>847.6</ele>
        <time>2025-08-07T14:47:26Z</time>
      </trkpt>
      <trkpt lat="45.84345" lon="2.91263">
        <ele>847.6</ele>
        <time>2025-08-07T14:47:27Z</time>
      </trkpt>
      <trkpt lat="45.84343" lon="2.91263">
        <ele>847.6</ele>
        <time>2025-08-07T14:47:28Z</time>
      </trkpt>
      <trkpt lat="45.84341" lon="2.91262">
        <ele>847.6</ele>
        <time>2025-08-07T14:47:29Z</time>
      </trkpt>
      <trkpt lat="45.84339" lon="2.91262">
        <ele>847.4</ele>
        <time>2025-08-07T14:47:30Z</time>
      </trkpt>
      <trkpt lat="45.84336" lon="2.91262">
        <ele>847.4</ele>
        <time>2025-08-07T14:47:31Z</time>
      </trkpt>
      <trkpt lat="45.84334" lon="2.91263">
        <ele>847.4</ele>
        <time>2025-08-07T14:47:32Z</time>
      </trkpt>
      <trkpt lat="45.84332" lon="2.91264">
        <ele>847.4</ele>
        <time>2025-08-07T14:47:33Z</time>
      </trkpt>
      <trkpt lat="45.84329" lon="2.91266">
        <ele>847.4</ele>
        <time>2025-08-07T14:47:34Z</time>
      </trkpt>
      <trkpt lat="45.84327" lon="2.91266">
        <ele>847.4</ele>
        <time>2025-08-07T14:47:35Z</time>
      </trkpt>
      <trkpt lat="45.84324" lon="2.91267">
        <ele>847.4</ele>
        <time>2025-08-07T14:47:36Z</time>
      </trkpt>
      <trkpt lat="45.84322" lon="2.91268">
        <ele>847.4</ele>
        <time>2025-08-07T14:47:37Z</time>
      </trkpt>
      <trkpt lat="45.8432" lon="2.9127">
        <ele>847.4</ele>
        <time>2025-08-07T14:47:38Z</time>
      </trkpt>
      <trkpt lat="45.84317" lon="2.91273">
        <ele>847.2</ele>
        <time>2025-08-07T14:47:39Z</time>
      </trkpt>
      <trkpt lat="45.84314" lon="2.91276">
        <ele>847.2</ele>
        <time>2025-08-07T14:47:40Z</time>
      </trkpt>
      <trkpt lat="45.84311" lon="2.91278">
        <ele>847.2</ele>
        <time>2025-08-07T14:47:41Z</time>
      </trkpt>
      <trkpt lat="45.84309" lon="2.91281">
        <ele>847.2</ele>
        <time>2025-08-07T14:47:42Z</time>
      </trkpt>
      <trkpt lat="45.84307" lon="2.91284">
        <ele>847.2</ele>
        <time>2025-08-07T14:47:43Z</time>
      </trkpt>
      <trkpt lat="45.84304" lon="2.91287">
        <ele>847.2</ele>
        <time>2025-08-07T14:47:44Z</time>
      </trkpt>
      <trkpt lat="45.84301" lon="2.91291">
        <ele>847</ele>
        <time>2025-08-07T14:47:45Z</time>
      </trkpt>
      <trkpt lat="45.84297" lon="2.91295">
        <ele>847</ele>
        <time>2025-08-07T14:47:46Z</time>
      </trkpt>
      <trkpt lat="45.84294" lon="2.91299">
        <ele>846.8</ele>
        <time>2025-08-07T14:47:47Z</time>
      </trkpt>
      <trkpt lat="45.84292" lon="2.91304">
        <ele>846.8</ele>
        <time>2025-08-07T14:47:48Z</time>
      </trkpt>
      <trkpt lat="45.84289" lon="2.91308">
        <ele>846.8</ele>
        <time>2025-08-07T14:47:49Z</time>
      </trkpt>
      <trkpt lat="45.84286" lon="2.91311">
        <ele>846.6</ele>
        <time>2025-08-07T14:47:50Z</time>
      </trkpt>
      <trkpt lat="45.84284" lon="2.91315">
        <ele>846.6</ele>
        <time>2025-08-07T14:47:51Z</time>
      </trkpt>
      <trkpt lat="45.84281" lon="2.91318">
        <ele>846.4</ele>
        <time>2025-08-07T14:47:52Z</time>
      </trkpt>
      <trkpt lat="45.84278" lon="2.91322">
        <ele>846.4</ele>
        <time>2025-08-07T14:47:53Z</time>
      </trkpt>
      <trkpt lat="45.84275" lon="2.91326">
        <ele>846.2</ele>
        <time>2025-08-07T14:47:54Z</time>
      </trkpt>
      <trkpt lat="45.84271" lon="2.9133">
        <ele>846</ele>
        <time>2025-08-07T14:47:55Z</time>
      </trkpt>
      <trkpt lat="45.84268" lon="2.91335">
        <ele>846</ele>
        <time>2025-08-07T14:47:56Z</time>
      </trkpt>
      <trkpt lat="45.84265" lon="2.9134">
        <ele>845.8</ele>
        <time>2025-08-07T14:47:57Z</time>
      </trkpt>
      <trkpt lat="45.8426" lon="2.91346">
        <ele>845.8</ele>
        <time>2025-08-07T14:47:58Z</time>
      </trkpt>
      <trkpt lat="45.84256" lon="2.9135">
        <ele>845.6</ele>
        <time>2025-08-07T14:47:59Z</time>
      </trkpt>
      <trkpt lat="45.84253" lon="2.91354">
        <ele>845.4</ele>
        <time>2025-08-07T14:48:00Z</time>
      </trkpt>
      <trkpt lat="45.8425" lon="2.91358">
        <ele>845.4</ele>
        <time>2025-08-07T14:48:01Z</time>
      </trkpt>
      <trkpt lat="45.84247" lon="2.91361">
        <ele>845.2</ele>
        <time>2025-08-07T14:48:02Z</time>
      </trkpt>
      <trkpt lat="45.84244" lon="2.91366">
        <ele>845</ele>
        <time>2025-08-07T14:48:03Z</time>
      </trkpt>
      <trkpt lat="45.84241" lon="2.91373">
        <ele>844.8</ele>
        <time>2025-08-07T14:48:04Z</time>
      </trkpt>
      <trkpt lat="45.84238" lon="2.91378">
        <ele>844.6</ele>
        <time>2025-08-07T14:48:05Z</time>
      </trkpt>
      <trkpt lat="45.84235" lon="2.91383">
        <ele>844.6</ele>
        <time>2025-08-07T14:48:06Z</time>
      </trkpt>
      <trkpt lat="45.84232" lon="2.91388">
        <ele>844.4</ele>
        <time>2025-08-07T14:48:07Z</time>
      </trkpt>
      <trkpt lat="45.84229" lon="2.91392">
        <ele>844.4</ele>
        <time>2025-08-07T14:48:08Z</time>
      </trkpt>
      <trkpt lat="45.84225" lon="2.91395">
        <ele>844.2</ele>
        <time>2025-08-07T14:48:09Z</time>
      </trkpt>
      <trkpt lat="45.84222" lon="2.91398">
        <ele>844.2</ele>
        <time>2025-08-07T14:48:10Z</time>
      </trkpt>
      <trkpt lat="45.84219" lon="2.91401">
        <ele>844</ele>
        <time>2025-08-07T14:48:11Z</time>
      </trkpt>
      <trkpt lat="45.84216" lon="2.91403">
        <ele>843.8</ele>
        <time>2025-08-07T14:48:12Z</time>
      </trkpt>
      <trkpt lat="45.84213" lon="2.91405">
        <ele>843.4</ele>
        <time>2025-08-07T14:48:13Z</time>
      </trkpt>
      <trkpt lat="45.8421" lon="2.91406">
        <ele>843.2</ele>
        <time>2025-08-07T14:48:14Z</time>
      </trkpt>
      <trkpt lat="45.84208" lon="2.91408">
        <ele>842.8</ele>
        <time>2025-08-07T14:48:15Z</time>
      </trkpt>
      <trkpt lat="45.84206" lon="2.91409">
        <ele>842.4</ele>
        <time>2025-08-07T14:48:16Z</time>
      </trkpt>
      <trkpt lat="45.84205" lon="2.91411">
        <ele>842</ele>
        <time>2025-08-07T14:48:17Z</time>
      </trkpt>
      <trkpt lat="45.84203" lon="2.91412">
        <ele>841.8</ele>
        <time>2025-08-07T14:48:18Z</time>
      </trkpt>
      <trkpt lat="45.842" lon="2.91414">
        <ele>841.4</ele>
        <time>2025-08-07T14:48:19Z</time>
      </trkpt>
      <trkpt lat="45.84198" lon="2.91415">
        <ele>841.2</ele>
        <time>2025-08-07T14:48:20Z</time>
      </trkpt>
      <trkpt lat="45.84194" lon="2.91416">
        <ele>840.8</ele>
        <time>2025-08-07T14:48:21Z</time>
      </trkpt>
      <trkpt lat="45.84191" lon="2.91418">
        <ele>840.6</ele>
        <time>2025-08-07T14:48:22Z</time>
      </trkpt>
      <trkpt lat="45.84186" lon="2.91418">
        <ele>840.4</ele>
        <time>2025-08-07T14:48:23Z</time>
      </trkpt>
      <trkpt lat="45.84183" lon="2.91418">
        <ele>840.2</ele>
        <time>2025-08-07T14:48:24Z</time>
      </trkpt>
      <trkpt lat="45.84178" lon="2.91418">
        <ele>840</ele>
        <time>2025-08-07T14:48:25Z</time>
      </trkpt>
      <trkpt lat="45.84174" lon="2.91416">
        <ele>839.8</ele>
        <time>2025-08-07T14:48:26Z</time>
      </trkpt>
      <trkpt lat="45.8417" lon="2.9141">
        <ele>839.6</ele>
        <time>2025-08-07T14:48:27Z</time>
      </trkpt>
      <trkpt lat="45.8417" lon="2.91405">
        <ele>839.6</ele>
        <time>2025-08-07T14:48:28Z</time>
      </trkpt>
      <trkpt lat="45.84169" lon="2.91402">
        <ele>839.4</ele>
        <time>2025-08-07T14:48:29Z</time>
      </trkpt>
      <trkpt lat="45.84168" lon="2.91401">
        <ele>839.4</ele>
        <time>2025-08-07T14:48:30Z</time>
      </trkpt>
      <trkpt lat="45.84168" lon="2.91399">
        <ele>839.4</ele>
        <time>2025-08-07T14:48:31Z</time>
      </trkpt>
      <trkpt lat="45.84167" lon="2.91398">
        <ele>839.2</ele>
        <time>2025-08-07T14:48:32Z</time>
      </trkpt>
      <trkpt lat="45.84167" lon="2.91398">
        <ele>839.2</ele>
        <time>2025-08-07T14:48:33Z</time>
      </trkpt>
      <trkpt lat="45.84167" lon="2.91398">
        <ele>839.2</ele>
        <time>2025-08-07T14:48:34Z</time>
      </trkpt>
      <trkpt lat="45.84167" lon="2.91398">
        <ele>839.2</ele>
        <time>2025-08-07T14:48:35Z</time>
      </trkpt>
      <trkpt lat="45.84165" lon="2.91395">
        <ele>839</ele>
        <time>2025-08-07T14:48:36Z</time>
      </trkpt>
      <trkpt lat="45.84164" lon="2.91392">
        <ele>839</ele>
        <time>2025-08-07T14:48:37Z</time>
      </trkpt>
      <trkpt lat="45.84163" lon="2.91389">
        <ele>838.8</ele>
        <time>2025-08-07T14:48:38Z</time>
      </trkpt>
      <trkpt lat="45.84162" lon="2.91386">
        <ele>838.8</ele>
        <time>2025-08-07T14:48:39Z</time>
      </trkpt>
      <trkpt lat="45.84159" lon="2.91383">
        <ele>838.6</ele>
        <time>2025-08-07T14:48:40Z</time>
      </trkpt>
      <trkpt lat="45.84156" lon="2.9138">
        <ele>838.4</ele>
        <time>2025-08-07T14:48:41Z</time>
      </trkpt>
      <trkpt lat="45.84155" lon="2.91377">
        <ele>838.2</ele>
        <time>2025-08-07T14:48:42Z</time>
      </trkpt>
      <trkpt lat="45.84155" lon="2.91374">
        <ele>838.2</ele>
        <time>2025-08-07T14:48:43Z</time>
      </trkpt>
      <trkpt lat="45.84155" lon="2.91369">
        <ele>838</ele>
        <time>2025-08-07T14:48:44Z</time>
      </trkpt>
      <trkpt lat="45.84154" lon="2.91362">
        <ele>837.8</ele>
        <time>2025-08-07T14:48:45Z</time>
      </trkpt>
      <trkpt lat="45.84153" lon="2.91358">
        <ele>837.8</ele>
        <time>2025-08-07T14:48:46Z</time>
      </trkpt>
      <trkpt lat="45.84153" lon="2.91354">
        <ele>837.6</ele>
        <time>2025-08-07T14:48:47Z</time>
      </trkpt>
      <trkpt lat="45.84151" lon="2.91352">
        <ele>837.6</ele>
        <time>2025-08-07T14:48:48Z</time>
      </trkpt>
      <trkpt lat="45.84148" lon="2.91348">
        <ele>837.4</ele>
        <time>2025-08-07T14:48:49Z</time>
      </trkpt>
      <trkpt lat="45.84147" lon="2.91345">
        <ele>837.2</ele>
        <time>2025-08-07T14:48:50Z</time>
      </trkpt>
      <trkpt lat="45.84144" lon="2.91338">
        <ele>837.2</ele>
        <time>2025-08-07T14:48:51Z</time>
      </trkpt>
      <trkpt lat="45.84142" lon="2.91331">
        <ele>837</ele>
        <time>2025-08-07T14:48:52Z</time>
      </trkpt>
      <trkpt lat="45.84142" lon="2.91327">
        <ele>836.8</ele>
        <time>2025-08-07T14:48:53Z</time>
      </trkpt>
      <trkpt lat="45.84142" lon="2.91324">
        <ele>836.8</ele>
        <time>2025-08-07T14:48:54Z</time>
      </trkpt>
      <trkpt lat="45.8414" lon="2.91322">
        <ele>836.8</ele>
        <time>2025-08-07T14:48:55Z</time>
      </trkpt>
      <trkpt lat="45.8414" lon="2.91321">
        <ele>836.6</ele>
        <time>2025-08-07T14:48:56Z</time>
      </trkpt>
      <trkpt lat="45.8414" lon="2.9132">
        <ele>836.6</ele>
        <time>2025-08-07T14:48:57Z</time>
      </trkpt>
      <trkpt lat="45.84139" lon="2.91318">
        <ele>836.6</ele>
        <time>2025-08-07T14:48:58Z</time>
      </trkpt>
      <trkpt lat="45.84138" lon="2.91314">
        <ele>836.6</ele>
        <time>2025-08-07T14:48:59Z</time>
      </trkpt>
      <trkpt lat="45.84136" lon="2.9131">
        <ele>836.6</ele>
        <time>2025-08-07T14:49:00Z</time>
      </trkpt>
      <trkpt lat="45.84136" lon="2.91307">
        <ele>836.4</ele>
        <time>2025-08-07T14:49:01Z</time>
      </trkpt>
      <trkpt lat="45.84136" lon="2.91304">
        <ele>836.4</ele>
        <time>2025-08-07T14:49:02Z</time>
      </trkpt>
      <trkpt lat="45.84135" lon="2.91302">
        <ele>836.4</ele>
        <time>2025-08-07T14:49:03Z</time>
      </trkpt>
      <trkpt lat="45.84134" lon="2.91301">
        <ele>836.4</ele>
        <time>2025-08-07T14:49:04Z</time>
      </trkpt>
      <trkpt lat="45.84134" lon="2.91299">
        <ele>836.4</ele>
        <time>2025-08-07T14:49:05Z</time>
      </trkpt>
      <trkpt lat="45.84134" lon="2.91298">
        <ele>836.2</ele>
        <time>2025-08-07T14:49:06Z</time>
      </trkpt>
      <trkpt lat="45.84132" lon="2.91297">
        <ele>836.2</ele>
        <time>2025-08-07T14:49:07Z</time>
      </trkpt>
      <trkpt lat="45.84131" lon="2.91296">
        <ele>836.2</ele>
        <time>2025-08-07T14:49:08Z</time>
      </trkpt>
      <trkpt lat="45.8413" lon="2.91294">
        <ele>836.2</ele>
        <time>2025-08-07T14:49:09Z</time>
      </trkpt>
      <trkpt lat="45.84129" lon="2.91292">
        <ele>836.2</ele>
        <time>2025-08-07T14:49:10Z</time>
      </trkpt>
      <trkpt lat="45.84128" lon="2.9129">
        <ele>836.2</ele>
        <time>2025-08-07T14:49:11Z</time>
      </trkpt>
      <trkpt lat="45.84127" lon="2.91288">
        <ele>836.2</ele>
        <time>2025-08-07T14:49:12Z</time>
      </trkpt>
      <trkpt lat="45.84126" lon="2.91285">
        <ele>836</ele>
        <time>2025-08-07T14:49:13Z</time>
      </trkpt>
      <trkpt lat="45.84124" lon="2.91282">
        <ele>836</ele>
        <time>2025-08-07T14:49:14Z</time>
      </trkpt>
      <trkpt lat="45.84123" lon="2.91278">
        <ele>836</ele>
        <time>2025-08-07T14:49:15Z</time>
      </trkpt>
      <trkpt lat="45.84121" lon="2.91275">
        <ele>835.8</ele>
        <time>2025-08-07T14:49:16Z</time>
      </trkpt>
      <trkpt lat="45.84119" lon="2.91272">
        <ele>835.8</ele>
        <time>2025-08-07T14:49:17Z</time>
      </trkpt>
      <trkpt lat="45.84117" lon="2.91267">
        <ele>835.6</ele>
        <time>2025-08-07T14:49:18Z</time>
      </trkpt>
      <trkpt lat="45.84115" lon="2.91263">
        <ele>835.4</ele>
        <time>2025-08-07T14:49:19Z</time>
      </trkpt>
      <trkpt lat="45.84113" lon="2.91258">
        <ele>835.2</ele>
        <time>2025-08-07T14:49:20Z</time>
      </trkpt>
      <trkpt lat="45.84112" lon="2.91253">
        <ele>835</ele>
        <time>2025-08-07T14:49:21Z</time>
      </trkpt>
      <trkpt lat="45.84111" lon="2.9125">
        <ele>834.8</ele>
        <time>2025-08-07T14:49:22Z</time>
      </trkpt>
      <trkpt lat="45.8411" lon="2.91245">
        <ele>834.6</ele>
        <time>2025-08-07T14:49:23Z</time>
      </trkpt>
      <trkpt lat="45.84109" lon="2.91239">
        <ele>834.4</ele>
        <time>2025-08-07T14:49:24Z</time>
      </trkpt>
      <trkpt lat="45.84108" lon="2.91232">
        <ele>834.2</ele>
        <time>2025-08-07T14:49:25Z</time>
      </trkpt>
      <trkpt lat="45.84108" lon="2.91227">
        <ele>834</ele>
        <time>2025-08-07T14:49:26Z</time>
      </trkpt>
      <trkpt lat="45.84107" lon="2.91223">
        <ele>833.8</ele>
        <time>2025-08-07T14:49:27Z</time>
      </trkpt>
      <trkpt lat="45.84107" lon="2.91219">
        <ele>833.6</ele>
        <time>2025-08-07T14:49:28Z</time>
      </trkpt>
      <trkpt lat="45.84108" lon="2.91214">
        <ele>833.4</ele>
        <time>2025-08-07T14:49:29Z</time>
      </trkpt>
      <trkpt lat="45.84108" lon="2.91211">
        <ele>833.2</ele>
        <time>2025-08-07T14:49:30Z</time>
      </trkpt>
      <trkpt lat="45.84107" lon="2.91203">
        <ele>832.8</ele>
        <time>2025-08-07T14:49:31Z</time>
      </trkpt>
      <trkpt lat="45.84106" lon="2.91196">
        <ele>832.6</ele>
        <time>2025-08-07T14:49:32Z</time>
      </trkpt>
      <trkpt lat="45.84105" lon="2.91188">
        <ele>832.2</ele>
        <time>2025-08-07T14:49:33Z</time>
      </trkpt>
      <trkpt lat="45.84105" lon="2.91187">
        <ele>832</ele>
        <time>2025-08-07T14:49:34Z</time>
      </trkpt>
      <trkpt lat="45.84104" lon="2.91187">
        <ele>831.8</ele>
        <time>2025-08-07T14:49:35Z</time>
      </trkpt>
      <trkpt lat="45.84102" lon="2.91187">
        <ele>831.4</ele>
        <time>2025-08-07T14:49:36Z</time>
      </trkpt>
      <trkpt lat="45.841" lon="2.91187">
        <ele>831.2</ele>
        <time>2025-08-07T14:49:37Z</time>
      </trkpt>
      <trkpt lat="45.84099" lon="2.91188">
        <ele>831</ele>
        <time>2025-08-07T14:49:38Z</time>
      </trkpt>
      <trkpt lat="45.84096" lon="2.91189">
        <ele>831</ele>
        <time>2025-08-07T14:49:39Z</time>
      </trkpt>
      <trkpt lat="45.84094" lon="2.91189">
        <ele>831</ele>
        <time>2025-08-07T14:49:40Z</time>
      </trkpt>
      <trkpt lat="45.84091" lon="2.91189">
        <ele>831.2</ele>
        <time>2025-08-07T14:49:41Z</time>
      </trkpt>
      <trkpt lat="45.84088" lon="2.91187">
        <ele>831.2</ele>
        <time>2025-08-07T14:49:42Z</time>
      </trkpt>
      <trkpt lat="45.84084" lon="2.91184">
        <ele>831.4</ele>
        <time>2025-08-07T14:49:43Z</time>
      </trkpt>
      <trkpt lat="45.84079" lon="2.91179">
        <ele>831.8</ele>
        <time>2025-08-07T14:49:44Z</time>
      </trkpt>
      <trkpt lat="45.84072" lon="2.91174">
        <ele>832</ele>
        <time>2025-08-07T14:49:45Z</time>
      </trkpt>
      <trkpt lat="45.84066" lon="2.9117">
        <ele>832.2</ele>
        <time>2025-08-07T14:49:46Z</time>
      </trkpt>
      <trkpt lat="45.8406" lon="2.91167">
        <ele>832.6</ele>
        <time>2025-08-07T14:49:47Z</time>
      </trkpt>
      <trkpt lat="45.84054" lon="2.91163">
        <ele>833</ele>
        <time>2025-08-07T14:49:48Z</time>
      </trkpt>
      <trkpt lat="45.84048" lon="2.9116">
        <ele>833.2</ele>
        <time>2025-08-07T14:49:49Z</time>
      </trkpt>
      <trkpt lat="45.84043" lon="2.91159">
        <ele>833.4</ele>
        <time>2025-08-07T14:49:50Z</time>
      </trkpt>
      <trkpt lat="45.84039" lon="2.91157">
        <ele>833.8</ele>
        <time>2025-08-07T14:49:51Z</time>
      </trkpt>
      <trkpt lat="45.84036" lon="2.91158">
        <ele>834</ele>
        <time>2025-08-07T14:49:52Z</time>
      </trkpt>
      <trkpt lat="45.84033" lon="2.91158">
        <ele>834.4</ele>
        <time>2025-08-07T14:49:53Z</time>
      </trkpt>
      <trkpt lat="45.84031" lon="2.91159">
        <ele>834.6</ele>
        <time>2025-08-07T14:49:54Z</time>
      </trkpt>
      <trkpt lat="45.84029" lon="2.91162">
        <ele>835</ele>
        <time>2025-08-07T14:49:55Z</time>
      </trkpt>
      <trkpt lat="45.84029" lon="2.91165">
        <ele>835.2</ele>
        <time>2025-08-07T14:49:56Z</time>
      </trkpt>
      <trkpt lat="45.8403" lon="2.91169">
        <ele>835.6</ele>
        <time>2025-08-07T14:49:57Z</time>
      </trkpt>
      <trkpt lat="45.8403" lon="2.91174">
        <ele>835.8</ele>
        <time>2025-08-07T14:49:58Z</time>
      </trkpt>
      <trkpt lat="45.84031" lon="2.91179">
        <ele>836.2</ele>
        <time>2025-08-07T14:49:59Z</time>
      </trkpt>
      <trkpt lat="45.84031" lon="2.91184">
        <ele>836.4</ele>
        <time>2025-08-07T14:50:00Z</time>
      </trkpt>
      <trkpt lat="45.84032" lon="2.9119">
        <ele>836.6</ele>
        <time>2025-08-07T14:50:01Z</time>
      </trkpt>
      <trkpt lat="45.84033" lon="2.91195">
        <ele>837</ele>
        <time>2025-08-07T14:50:02Z</time>
      </trkpt>
      <trkpt lat="45.84034" lon="2.91201">
        <ele>837.4</ele>
        <time>2025-08-07T14:50:03Z</time>
      </trkpt>
      <trkpt lat="45.84035" lon="2.91207">
        <ele>837.8</ele>
        <time>2025-08-07T14:50:04Z</time>
      </trkpt>
      <trkpt lat="45.84035" lon="2.91214">
        <ele>838.4</ele>
        <time>2025-08-07T14:50:05Z</time>
      </trkpt>
      <trkpt lat="45.84035" lon="2.9122">
        <ele>838.8</ele>
        <time>2025-08-07T14:50:06Z</time>
      </trkpt>
      <trkpt lat="45.84035" lon="2.91227">
        <ele>839</ele>
        <time>2025-08-07T14:50:07Z</time>
      </trkpt>
      <trkpt lat="45.84035" lon="2.91233">
        <ele>839.4</ele>
        <time>2025-08-07T14:50:08Z</time>
      </trkpt>
      <trkpt lat="45.84035" lon="2.91238">
        <ele>839.6</ele>
        <time>2025-08-07T14:50:09Z</time>
      </trkpt>
      <trkpt lat="45.84035" lon="2.91244">
        <ele>839.8</ele>
        <time>2025-08-07T14:50:10Z</time>
      </trkpt>
      <trkpt lat="45.84035" lon="2.9125">
        <ele>840.2</ele>
        <time>2025-08-07T14:50:11Z</time>
      </trkpt>
      <trkpt lat="45.84035" lon="2.91256">
        <ele>840.6</ele>
        <time>2025-08-07T14:50:12Z</time>
      </trkpt>
      <trkpt lat="45.84034" lon="2.91261">
        <ele>840.8</ele>
        <time>2025-08-07T14:50:13Z</time>
      </trkpt>
      <trkpt lat="45.84034" lon="2.91265">
        <ele>841.2</ele>
        <time>2025-08-07T14:50:14Z</time>
      </trkpt>
      <trkpt lat="45.84033" lon="2.91268">
        <ele>841.4</ele>
        <time>2025-08-07T14:50:15Z</time>
      </trkpt>
      <trkpt lat="45.84033" lon="2.91271">
        <ele>841.6</ele>
        <time>2025-08-07T14:50:16Z</time>
      </trkpt>
      <trkpt lat="45.84033" lon="2.91274">
        <ele>841.8</ele>
        <time>2025-08-07T14:50:17Z</time>
      </trkpt>
      <trkpt lat="45.84032" lon="2.91276">
        <ele>842.2</ele>
        <time>2025-08-07T14:50:18Z</time>
      </trkpt>
      <trkpt lat="45.84032" lon="2.91278">
        <ele>842.4</ele>
        <time>2025-08-07T14:50:19Z</time>
      </trkpt>
      <trkpt lat="45.84032" lon="2.91279">
        <ele>842.6</ele>
        <time>2025-08-07T14:50:20Z</time>
      </trkpt>
      <trkpt lat="45.84032" lon="2.91279">
        <ele>842.6</ele>
        <time>2025-08-07T14:50:21Z</time>
      </trkpt>
      <trkpt lat="45.84031" lon="2.91283">
        <ele>843.2</ele>
        <time>2025-08-07T14:50:29Z</time>
      </trkpt>
      <trkpt lat="45.8403" lon="2.91284">
        <ele>843.2</ele>
        <time>2025-08-07T14:50:30Z</time>
      </trkpt>
      <trkpt lat="45.8403" lon="2.91287">
        <ele>843.2</ele>
        <time>2025-08-07T14:50:31Z</time>
      </trkpt>
      <trkpt lat="45.84029" lon="2.9129">
        <ele>843.4</ele>
        <time>2025-08-07T14:50:32Z</time>
      </trkpt>
      <trkpt lat="45.84028" lon="2.91294">
        <ele>843.6</ele>
        <time>2025-08-07T14:50:33Z</time>
      </trkpt>
      <trkpt lat="45.84027" lon="2.91298">
        <ele>843.8</ele>
        <time>2025-08-07T14:50:34Z</time>
      </trkpt>
      <trkpt lat="45.84026" lon="2.91302">
        <ele>844.2</ele>
        <time>2025-08-07T14:50:35Z</time>
      </trkpt>
      <trkpt lat="45.84025" lon="2.91306">
        <ele>844.4</ele>
        <time>2025-08-07T14:50:36Z</time>
      </trkpt>
      <trkpt lat="45.84025" lon="2.91311">
        <ele>844.8</ele>
        <time>2025-08-07T14:50:37Z</time>
      </trkpt>
      <trkpt lat="45.84024" lon="2.91315">
        <ele>845</ele>
        <time>2025-08-07T14:50:38Z</time>
      </trkpt>
      <trkpt lat="45.84023" lon="2.9132">
        <ele>845.4</ele>
        <time>2025-08-07T14:50:39Z</time>
      </trkpt>
      <trkpt lat="45.84023" lon="2.91324">
        <ele>845.8</ele>
        <time>2025-08-07T14:50:40Z</time>
      </trkpt>
      <trkpt lat="45.84022" lon="2.91329">
        <ele>846</ele>
        <time>2025-08-07T14:50:41Z</time>
      </trkpt>
      <trkpt lat="45.84021" lon="2.91335">
        <ele>846.4</ele>
        <time>2025-08-07T14:50:42Z</time>
      </trkpt>
      <trkpt lat="45.84021" lon="2.9134">
        <ele>846.8</ele>
        <time>2025-08-07T14:50:43Z</time>
      </trkpt>
      <trkpt lat="45.8402" lon="2.91346">
        <ele>847.2</ele>
        <time>2025-08-07T14:50:44Z</time>
      </trkpt>
      <trkpt lat="45.84019" lon="2.91352">
        <ele>847.6</ele>
        <time>2025-08-07T14:50:45Z</time>
      </trkpt>
      <trkpt lat="45.84019" lon="2.91357">
        <ele>847.8</ele>
        <time>2025-08-07T14:50:46Z</time>
      </trkpt>
      <trkpt lat="45.84018" lon="2.91364">
        <ele>848.4</ele>
        <time>2025-08-07T14:50:47Z</time>
      </trkpt>
      <trkpt lat="45.84016" lon="2.9137">
        <ele>848.8</ele>
        <time>2025-08-07T14:50:48Z</time>
      </trkpt>
      <trkpt lat="45.84014" lon="2.91375">
        <ele>849.2</ele>
        <time>2025-08-07T14:50:49Z</time>
      </trkpt>
      <trkpt lat="45.84012" lon="2.91379">
        <ele>849.6</ele>
        <time>2025-08-07T14:50:50Z</time>
      </trkpt>
      <trkpt lat="45.8401" lon="2.91384">
        <ele>850</ele>
        <time>2025-08-07T14:50:51Z</time>
      </trkpt>
      <trkpt lat="45.84009" lon="2.91389">
        <ele>850.4</ele>
        <time>2025-08-07T14:50:52Z</time>
      </trkpt>
      <trkpt lat="45.84008" lon="2.91395">
        <ele>850.8</ele>
        <time>2025-08-07T14:50:53Z</time>
      </trkpt>
      <trkpt lat="45.84007" lon="2.914">
        <ele>851.2</ele>
        <time>2025-08-07T14:50:54Z</time>
      </trkpt>
      <trkpt lat="45.84005" lon="2.91406">
        <ele>851.6</ele>
        <time>2025-08-07T14:50:55Z</time>
      </trkpt>
      <trkpt lat="45.84003" lon="2.91413">
        <ele>852.2</ele>
        <time>2025-08-07T14:50:56Z</time>
      </trkpt>
      <trkpt lat="45.84" lon="2.9142">
        <ele>852.6</ele>
        <time>2025-08-07T14:50:57Z</time>
      </trkpt>
      <trkpt lat="45.83997" lon="2.91426">
        <ele>853.2</ele>
        <time>2025-08-07T14:50:58Z</time>
      </trkpt>
      <trkpt lat="45.83994" lon="2.91431">
        <ele>853.6</ele>
        <time>2025-08-07T14:50:59Z</time>
      </trkpt>
      <trkpt lat="45.83991" lon="2.91435">
        <ele>854</ele>
        <time>2025-08-07T14:51:00Z</time>
      </trkpt>
      <trkpt lat="45.83988" lon="2.91439">
        <ele>854.4</ele>
        <time>2025-08-07T14:51:01Z</time>
      </trkpt>
      <trkpt lat="45.83986" lon="2.91444">
        <ele>854.8</ele>
        <time>2025-08-07T14:51:02Z</time>
      </trkpt>
      <trkpt lat="45.83983" lon="2.91449">
        <ele>855.2</ele>
        <time>2025-08-07T14:51:03Z</time>
      </trkpt>
      <trkpt lat="45.83979" lon="2.91452">
        <ele>855.6</ele>
        <time>2025-08-07T14:51:04Z</time>
      </trkpt>
      <trkpt lat="45.83976" lon="2.91456">
        <ele>856</ele>
        <time>2025-08-07T14:51:05Z</time>
      </trkpt>
      <trkpt lat="45.83971" lon="2.9146">
        <ele>856.4</ele>
        <time>2025-08-07T14:51:06Z</time>
      </trkpt>
      <trkpt lat="45.83965" lon="2.91464">
        <ele>856.8</ele>
        <time>2025-08-07T14:51:07Z</time>
      </trkpt>
      <trkpt lat="45.83961" lon="2.91467">
        <ele>857.2</ele>
        <time>2025-08-07T14:51:08Z</time>
      </trkpt>
      <trkpt lat="45.83956" lon="2.91471">
        <ele>857.4</ele>
        <time>2025-08-07T14:51:09Z</time>
      </trkpt>
      <trkpt lat="45.83951" lon="2.91475">
        <ele>857.8</ele>
        <time>2025-08-07T14:51:10Z</time>
      </trkpt>
      <trkpt lat="45.83947" lon="2.91479">
        <ele>858</ele>
        <time>2025-08-07T14:51:11Z</time>
      </trkpt>
      <trkpt lat="45.83943" lon="2.91483">
        <ele>858.4</ele>
        <time>2025-08-07T14:51:12Z</time>
      </trkpt>
      <trkpt lat="45.83938" lon="2.91488">
        <ele>858.6</ele>
        <time>2025-08-07T14:51:13Z</time>
      </trkpt>
      <trkpt lat="45.83934" lon="2.91493">
        <ele>859</ele>
        <time>2025-08-07T14:51:14Z</time>
      </trkpt>
      <trkpt lat="45.8393" lon="2.91498">
        <ele>859.4</ele>
        <time>2025-08-07T14:51:15Z</time>
      </trkpt>
      <trkpt lat="45.83926" lon="2.91503">
        <ele>859.6</ele>
        <time>2025-08-07T14:51:16Z</time>
      </trkpt>
      <trkpt lat="45.83923" lon="2.91508">
        <ele>860</ele>
        <time>2025-08-07T14:51:17Z</time>
      </trkpt>
      <trkpt lat="45.83919" lon="2.91513">
        <ele>860.6</ele>
        <time>2025-08-07T14:51:18Z</time>
      </trkpt>
      <trkpt lat="45.83915" lon="2.91517">
        <ele>861</ele>
        <time>2025-08-07T14:51:19Z</time>
      </trkpt>
      <trkpt lat="45.83911" lon="2.91523">
        <ele>861.6</ele>
        <time>2025-08-07T14:51:20Z</time>
      </trkpt>
      <trkpt lat="45.83908" lon="2.91528">
        <ele>861.8</ele>
        <time>2025-08-07T14:51:21Z</time>
      </trkpt>
      <trkpt lat="45.83905" lon="2.91533">
        <ele>862.2</ele>
        <time>2025-08-07T14:51:22Z</time>
      </trkpt>
      <trkpt lat="45.83901" lon="2.91537">
        <ele>862.6</ele>
        <time>2025-08-07T14:51:23Z</time>
      </trkpt>
      <trkpt lat="45.83897" lon="2.91542">
        <ele>862.8</ele>
        <time>2025-08-07T14:51:24Z</time>
      </trkpt>
      <trkpt lat="45.83893" lon="2.91546">
        <ele>863</ele>
        <time>2025-08-07T14:51:25Z</time>
      </trkpt>
      <trkpt lat="45.83888" lon="2.91549">
        <ele>863.2</ele>
        <time>2025-08-07T14:51:26Z</time>
      </trkpt>
      <trkpt lat="45.83883" lon="2.91551">
        <ele>863.4</ele>
        <time>2025-08-07T14:51:27Z</time>
      </trkpt>
      <trkpt lat="45.83877" lon="2.91552">
        <ele>863.6</ele>
        <time>2025-08-07T14:51:28Z</time>
      </trkpt>
      <trkpt lat="45.83873" lon="2.91554">
        <ele>863.8</ele>
        <time>2025-08-07T14:51:29Z</time>
      </trkpt>
      <trkpt lat="45.83867" lon="2.91556">
        <ele>864</ele>
        <time>2025-08-07T14:51:30Z</time>
      </trkpt>
      <trkpt lat="45.83862" lon="2.91559">
        <ele>864.2</ele>
        <time>2025-08-07T14:51:31Z</time>
      </trkpt>
      <trkpt lat="45.83857" lon="2.91562">
        <ele>864.2</ele>
        <time>2025-08-07T14:51:32Z</time>
      </trkpt>
      <trkpt lat="45.83852" lon="2.91566">
        <ele>864.4</ele>
        <time>2025-08-07T14:51:33Z</time>
      </trkpt>
      <trkpt lat="45.83847" lon="2.91571">
        <ele>864.6</ele>
        <time>2025-08-07T14:51:34Z</time>
      </trkpt>
      <trkpt lat="45.83843" lon="2.91575">
        <ele>864.8</ele>
        <time>2025-08-07T14:51:35Z</time>
      </trkpt>
      <trkpt lat="45.83839" lon="2.91579">
        <ele>865</ele>
        <time>2025-08-07T14:51:36Z</time>
      </trkpt>
      <trkpt lat="45.83834" lon="2.91583">
        <ele>865.2</ele>
        <time>2025-08-07T14:51:37Z</time>
      </trkpt>
      <trkpt lat="45.8383" lon="2.91587">
        <ele>865.6</ele>
        <time>2025-08-07T14:51:38Z</time>
      </trkpt>
      <trkpt lat="45.83825" lon="2.9159">
        <ele>865.8</ele>
        <time>2025-08-07T14:51:39Z</time>
      </trkpt>
      <trkpt lat="45.83822" lon="2.91594">
        <ele>866</ele>
        <time>2025-08-07T14:51:40Z</time>
      </trkpt>
      <trkpt lat="45.83819" lon="2.91597">
        <ele>866.4</ele>
        <time>2025-08-07T14:51:41Z</time>
      </trkpt>
      <trkpt lat="45.83815" lon="2.91599">
        <ele>866.6</ele>
        <time>2025-08-07T14:51:42Z</time>
      </trkpt>
      <trkpt lat="45.83813" lon="2.91602">
        <ele>866.8</ele>
        <time>2025-08-07T14:51:43Z</time>
      </trkpt>
      <trkpt lat="45.8381" lon="2.91604">
        <ele>867.2</ele>
        <time>2025-08-07T14:51:44Z</time>
      </trkpt>
      <trkpt lat="45.83807" lon="2.91607">
        <ele>867.4</ele>
        <time>2025-08-07T14:51:45Z</time>
      </trkpt>
      <trkpt lat="45.83804" lon="2.9161">
        <ele>867.8</ele>
        <time>2025-08-07T14:51:46Z</time>
      </trkpt>
      <trkpt lat="45.83801" lon="2.91613">
        <ele>868</ele>
        <time>2025-08-07T14:51:47Z</time>
      </trkpt>
      <trkpt lat="45.83798" lon="2.91617">
        <ele>868.2</ele>
        <time>2025-08-07T14:51:48Z</time>
      </trkpt>
      <trkpt lat="45.83795" lon="2.91621">
        <ele>868.4</ele>
        <time>2025-08-07T14:51:49Z</time>
      </trkpt>
      <trkpt lat="45.83792" lon="2.91626">
        <ele>868.6</ele>
        <time>2025-08-07T14:51:50Z</time>
      </trkpt>
      <trkpt lat="45.83789" lon="2.91631">
        <ele>868.8</ele>
        <time>2025-08-07T14:51:51Z</time>
      </trkpt>
      <trkpt lat="45.83787" lon="2.91636">
        <ele>869</ele>
        <time>2025-08-07T14:51:52Z</time>
      </trkpt>
      <trkpt lat="45.83784" lon="2.91642">
        <ele>869</ele>
        <time>2025-08-07T14:51:53Z</time>
      </trkpt>
      <trkpt lat="45.83782" lon="2.91647">
        <ele>869.2</ele>
        <time>2025-08-07T14:51:54Z</time>
      </trkpt>
      <trkpt lat="45.8378" lon="2.91653">
        <ele>869.4</ele>
        <time>2025-08-07T14:51:55Z</time>
      </trkpt>
      <trkpt lat="45.83778" lon="2.91658">
        <ele>869.4</ele>
        <time>2025-08-07T14:51:56Z</time>
      </trkpt>
      <trkpt lat="45.83775" lon="2.91664">
        <ele>869.6</ele>
        <time>2025-08-07T14:51:57Z</time>
      </trkpt>
      <trkpt lat="45.83773" lon="2.91669">
        <ele>869.8</ele>
        <time>2025-08-07T14:51:58Z</time>
      </trkpt>
      <trkpt lat="45.8377" lon="2.91675">
        <ele>870</ele>
        <time>2025-08-07T14:51:59Z</time>
      </trkpt>
      <trkpt lat="45.83768" lon="2.91681">
        <ele>870</ele>
        <time>2025-08-07T14:52:00Z</time>
      </trkpt>
      <trkpt lat="45.83765" lon="2.91686">
        <ele>870.2</ele>
        <time>2025-08-07T14:52:01Z</time>
      </trkpt>
      <trkpt lat="45.83763" lon="2.91692">
        <ele>870.4</ele>
        <time>2025-08-07T14:52:02Z</time>
      </trkpt>
      <trkpt lat="45.8376" lon="2.91697">
        <ele>870.6</ele>
        <time>2025-08-07T14:52:03Z</time>
      </trkpt>
      <trkpt lat="45.83758" lon="2.91702">
        <ele>870.8</ele>
        <time>2025-08-07T14:52:04Z</time>
      </trkpt>
      <trkpt lat="45.83755" lon="2.91708">
        <ele>871</ele>
        <time>2025-08-07T14:52:05Z</time>
      </trkpt>
      <trkpt lat="45.83753" lon="2.91713">
        <ele>871.2</ele>
        <time>2025-08-07T14:52:06Z</time>
      </trkpt>
      <trkpt lat="45.83751" lon="2.91718">
        <ele>871.4</ele>
        <time>2025-08-07T14:52:07Z</time>
      </trkpt>
      <trkpt lat="45.83748" lon="2.91723">
        <ele>871.6</ele>
        <time>2025-08-07T14:52:08Z</time>
      </trkpt>
      <trkpt lat="45.83746" lon="2.91728">
        <ele>871.8</ele>
        <time>2025-08-07T14:52:09Z</time>
      </trkpt>
      <trkpt lat="45.83743" lon="2.91733">
        <ele>872</ele>
        <time>2025-08-07T14:52:10Z</time>
      </trkpt>
      <trkpt lat="45.83741" lon="2.91738">
        <ele>872.2</ele>
        <time>2025-08-07T14:52:11Z</time>
      </trkpt>
      <trkpt lat="45.83738" lon="2.91743">
        <ele>872.2</ele>
        <time>2025-08-07T14:52:12Z</time>
      </trkpt>
      <trkpt lat="45.83736" lon="2.91749">
        <ele>872.4</ele>
        <time>2025-08-07T14:52:13Z</time>
      </trkpt>
      <trkpt lat="45.83733" lon="2.91754">
        <ele>872.6</ele>
        <time>2025-08-07T14:52:14Z</time>
      </trkpt>
      <trkpt lat="45.8373" lon="2.9176">
        <ele>872.8</ele>
        <time>2025-08-07T14:52:15Z</time>
      </trkpt>
      <trkpt lat="45.83728" lon="2.91765">
        <ele>872.8</ele>
        <time>2025-08-07T14:52:16Z</time>
      </trkpt>
      <trkpt lat="45.83725" lon="2.9177">
        <ele>873</ele>
        <time>2025-08-07T14:52:17Z</time>
      </trkpt>
      <trkpt lat="45.83723" lon="2.91775">
        <ele>873.2</ele>
        <time>2025-08-07T14:52:18Z</time>
      </trkpt>
      <trkpt lat="45.83721" lon="2.9178">
        <ele>873.4</ele>
        <time>2025-08-07T14:52:19Z</time>
      </trkpt>
      <trkpt lat="45.83718" lon="2.91786">
        <ele>873.6</ele>
        <time>2025-08-07T14:52:20Z</time>
      </trkpt>
      <trkpt lat="45.83715" lon="2.91791">
        <ele>873.6</ele>
        <time>2025-08-07T14:52:21Z</time>
      </trkpt>
      <trkpt lat="45.83712" lon="2.91796">
        <ele>873.6</ele>
        <time>2025-08-07T14:52:22Z</time>
      </trkpt>
      <trkpt lat="45.83709" lon="2.91803">
        <ele>873.8</ele>
        <time>2025-08-07T14:52:23Z</time>
      </trkpt>
      <trkpt lat="45.83706" lon="2.91809">
        <ele>873.8</ele>
        <time>2025-08-07T14:52:24Z</time>
      </trkpt>
      <trkpt lat="45.83703" lon="2.91815">
        <ele>873.8</ele>
        <time>2025-08-07T14:52:25Z</time>
      </trkpt>
      <trkpt lat="45.83699" lon="2.91821">
        <ele>873.8</ele>
        <time>2025-08-07T14:52:26Z</time>
      </trkpt>
      <trkpt lat="45.83696" lon="2.91828">
        <ele>873.8</ele>
        <time>2025-08-07T14:52:27Z</time>
      </trkpt>
      <trkpt lat="45.83692" lon="2.91834">
        <ele>873.8</ele>
        <time>2025-08-07T14:52:28Z</time>
      </trkpt>
      <trkpt lat="45.83689" lon="2.91841">
        <ele>873.6</ele>
        <time>2025-08-07T14:52:29Z</time>
      </trkpt>
      <trkpt lat="45.83685" lon="2.91848">
        <ele>873.6</ele>
        <time>2025-08-07T14:52:30Z</time>
      </trkpt>
      <trkpt lat="45.83682" lon="2.91855">
        <ele>873.6</ele>
        <time>2025-08-07T14:52:31Z</time>
      </trkpt>
      <trkpt lat="45.83679" lon="2.91862">
        <ele>873.4</ele>
        <time>2025-08-07T14:52:32Z</time>
      </trkpt>
      <trkpt lat="45.83675" lon="2.91869">
        <ele>873.2</ele>
        <time>2025-08-07T14:52:33Z</time>
      </trkpt>
      <trkpt lat="45.83672" lon="2.91876">
        <ele>873.2</ele>
        <time>2025-08-07T14:52:34Z</time>
      </trkpt>
      <trkpt lat="45.83669" lon="2.91882">
        <ele>873</ele>
        <time>2025-08-07T14:52:35Z</time>
      </trkpt>
      <trkpt lat="45.83665" lon="2.91889">
        <ele>873</ele>
        <time>2025-08-07T14:52:36Z</time>
      </trkpt>
      <trkpt lat="45.83662" lon="2.91896">
        <ele>872.8</ele>
        <time>2025-08-07T14:52:37Z</time>
      </trkpt>
      <trkpt lat="45.83658" lon="2.91903">
        <ele>872.8</ele>
        <time>2025-08-07T14:52:38Z</time>
      </trkpt>
      <trkpt lat="45.83655" lon="2.91909">
        <ele>872.6</ele>
        <time>2025-08-07T14:52:39Z</time>
      </trkpt>
      <trkpt lat="45.83653" lon="2.91916">
        <ele>872.6</ele>
        <time>2025-08-07T14:52:40Z</time>
      </trkpt>
      <trkpt lat="45.8365" lon="2.91922">
        <ele>872.4</ele>
        <time>2025-08-07T14:52:41Z</time>
      </trkpt>
      <trkpt lat="45.83647" lon="2.91929">
        <ele>872.2</ele>
        <time>2025-08-07T14:52:42Z</time>
      </trkpt>
      <trkpt lat="45.83643" lon="2.91935">
        <ele>872</ele>
        <time>2025-08-07T14:52:43Z</time>
      </trkpt>
      <trkpt lat="45.8364" lon="2.91942">
        <ele>871.8</ele>
        <time>2025-08-07T14:52:44Z</time>
      </trkpt>
      <trkpt lat="45.83637" lon="2.91949">
        <ele>871.6</ele>
        <time>2025-08-07T14:52:45Z</time>
      </trkpt>
      <trkpt lat="45.83634" lon="2.91956">
        <ele>871.4</ele>
        <time>2025-08-07T14:52:46Z</time>
      </trkpt>
      <trkpt lat="45.83631" lon="2.91962">
        <ele>871.2</ele>
        <time>2025-08-07T14:52:47Z</time>
      </trkpt>
      <trkpt lat="45.83628" lon="2.91969">
        <ele>871</ele>
        <time>2025-08-07T14:52:48Z</time>
      </trkpt>
      <trkpt lat="45.83624" lon="2.91975">
        <ele>870.8</ele>
        <time>2025-08-07T14:52:49Z</time>
      </trkpt>
      <trkpt lat="45.83621" lon="2.91982">
        <ele>870.4</ele>
        <time>2025-08-07T14:52:50Z</time>
      </trkpt>
      <trkpt lat="45.83618" lon="2.91989">
        <ele>870</ele>
        <time>2025-08-07T14:52:51Z</time>
      </trkpt>
      <trkpt lat="45.83615" lon="2.91997">
        <ele>869.6</ele>
        <time>2025-08-07T14:52:52Z</time>
      </trkpt>
      <trkpt lat="45.83611" lon="2.92004">
        <ele>869</ele>
        <time>2025-08-07T14:52:53Z</time>
      </trkpt>
      <trkpt lat="45.83607" lon="2.92012">
        <ele>868.4</ele>
        <time>2025-08-07T14:52:54Z</time>
      </trkpt>
      <trkpt lat="45.83602" lon="2.92019">
        <ele>867.6</ele>
        <time>2025-08-07T14:52:55Z</time>
      </trkpt>
      <trkpt lat="45.83598" lon="2.92027">
        <ele>867</ele>
        <time>2025-08-07T14:52:56Z</time>
      </trkpt>
      <trkpt lat="45.83594" lon="2.92036">
        <ele>865.8</ele>
        <time>2025-08-07T14:52:57Z</time>
      </trkpt>
      <trkpt lat="45.83591" lon="2.92043">
        <ele>865</ele>
        <time>2025-08-07T14:52:58Z</time>
      </trkpt>
      <trkpt lat="45.83587" lon="2.9205">
        <ele>863.8</ele>
        <time>2025-08-07T14:52:59Z</time>
      </trkpt>
      <trkpt lat="45.83584" lon="2.92059">
        <ele>862.8</ele>
        <time>2025-08-07T14:53:00Z</time>
      </trkpt>
      <trkpt lat="45.8358" lon="2.9207">
        <ele>862</ele>
        <time>2025-08-07T14:53:01Z</time>
      </trkpt>
      <trkpt lat="45.83577" lon="2.92083">
        <ele>861.4</ele>
        <time>2025-08-07T14:53:02Z</time>
      </trkpt>
      <trkpt lat="45.83574" lon="2.92096">
        <ele>861</ele>
        <time>2025-08-07T14:53:03Z</time>
      </trkpt>
      <trkpt lat="45.83571" lon="2.92106">
        <ele>860.8</ele>
        <time>2025-08-07T14:53:04Z</time>
      </trkpt>
      <trkpt lat="45.83566" lon="2.92116">
        <ele>860.4</ele>
        <time>2025-08-07T14:53:05Z</time>
      </trkpt>
      <trkpt lat="45.83561" lon="2.92125">
        <ele>860.2</ele>
        <time>2025-08-07T14:53:06Z</time>
      </trkpt>
      <trkpt lat="45.83557" lon="2.92132">
        <ele>860</ele>
        <time>2025-08-07T14:53:07Z</time>
      </trkpt>
      <trkpt lat="45.83551" lon="2.92139">
        <ele>860</ele>
        <time>2025-08-07T14:53:08Z</time>
      </trkpt>
      <trkpt lat="45.83546" lon="2.92146">
        <ele>860</ele>
        <time>2025-08-07T14:53:09Z</time>
      </trkpt>
      <trkpt lat="45.83542" lon="2.92153">
        <ele>860.2</ele>
        <time>2025-08-07T14:53:10Z</time>
      </trkpt>
      <trkpt lat="45.83538" lon="2.92159">
        <ele>860.4</ele>
        <time>2025-08-07T14:53:11Z</time>
      </trkpt>
      <trkpt lat="45.83534" lon="2.92164">
        <ele>860.4</ele>
        <time>2025-08-07T14:53:12Z</time>
      </trkpt>
      <trkpt lat="45.83529" lon="2.92167">
        <ele>860.6</ele>
        <time>2025-08-07T14:53:13Z</time>
      </trkpt>
      <trkpt lat="45.83524" lon="2.92167">
        <ele>860.6</ele>
        <time>2025-08-07T14:53:14Z</time>
      </trkpt>
      <trkpt lat="45.83519" lon="2.92166">
        <ele>860.8</ele>
        <time>2025-08-07T14:53:15Z</time>
      </trkpt>
      <trkpt lat="45.83514" lon="2.92164">
        <ele>860.8</ele>
        <time>2025-08-07T14:53:16Z</time>
      </trkpt>
      <trkpt lat="45.83509" lon="2.92163">
        <ele>860.8</ele>
        <time>2025-08-07T14:53:17Z</time>
      </trkpt>
      <trkpt lat="45.83503" lon="2.92161">
        <ele>860.8</ele>
        <time>2025-08-07T14:53:18Z</time>
      </trkpt>
      <trkpt lat="45.83497" lon="2.9216">
        <ele>860.8</ele>
        <time>2025-08-07T14:53:19Z</time>
      </trkpt>
      <trkpt lat="45.83492" lon="2.92161">
        <ele>860.8</ele>
        <time>2025-08-07T14:53:20Z</time>
      </trkpt>
      <trkpt lat="45.83487" lon="2.92162">
        <ele>860.8</ele>
        <time>2025-08-07T14:53:21Z</time>
      </trkpt>
      <trkpt lat="45.83481" lon="2.92164">
        <ele>860.8</ele>
        <time>2025-08-07T14:53:22Z</time>
      </trkpt>
      <trkpt lat="45.83476" lon="2.92164">
        <ele>860.8</ele>
        <time>2025-08-07T14:53:23Z</time>
      </trkpt>
      <trkpt lat="45.83471" lon="2.92162">
        <ele>860.8</ele>
        <time>2025-08-07T14:53:24Z</time>
      </trkpt>
      <trkpt lat="45.83465" lon="2.92161">
        <ele>861</ele>
        <time>2025-08-07T14:53:25Z</time>
      </trkpt>
      <trkpt lat="45.8346" lon="2.9216">
        <ele>861</ele>
        <time>2025-08-07T14:53:26Z</time>
      </trkpt>
      <trkpt lat="45.83454" lon="2.92159">
        <ele>861</ele>
        <time>2025-08-07T14:53:27Z</time>
      </trkpt>
      <trkpt lat="45.83447" lon="2.9216">
        <ele>861</ele>
        <time>2025-08-07T14:53:28Z</time>
      </trkpt>
      <trkpt lat="45.83441" lon="2.92161">
        <ele>861</ele>
        <time>2025-08-07T14:53:29Z</time>
      </trkpt>
      <trkpt lat="45.83436" lon="2.92162">
        <ele>861</ele>
        <time>2025-08-07T14:53:30Z</time>
      </trkpt>
      <trkpt lat="45.83431" lon="2.92162">
        <ele>860.8</ele>
        <time>2025-08-07T14:53:31Z</time>
      </trkpt>
      <trkpt lat="45.83426" lon="2.92162">
        <ele>860.8</ele>
        <time>2025-08-07T14:53:32Z</time>
      </trkpt>
      <trkpt lat="45.8342" lon="2.92161">
        <ele>860.8</ele>
        <time>2025-08-07T14:53:33Z</time>
      </trkpt>
      <trkpt lat="45.83415" lon="2.92161">
        <ele>861</ele>
        <time>2025-08-07T14:53:34Z</time>
      </trkpt>
      <trkpt lat="45.83409" lon="2.9216">
        <ele>861</ele>
        <time>2025-08-07T14:53:35Z</time>
      </trkpt>
      <trkpt lat="45.83404" lon="2.9216">
        <ele>861</ele>
        <time>2025-08-07T14:53:36Z</time>
      </trkpt>
      <trkpt lat="45.83398" lon="2.9216">
        <ele>861</ele>
        <time>2025-08-07T14:53:37Z</time>
      </trkpt>
      <trkpt lat="45.83392" lon="2.9216">
        <ele>861</ele>
        <time>2025-08-07T14:53:38Z</time>
      </trkpt>
      <trkpt lat="45.83386" lon="2.9216">
        <ele>861</ele>
        <time>2025-08-07T14:53:39Z</time>
      </trkpt>
      <trkpt lat="45.8338" lon="2.9216">
        <ele>861.2</ele>
        <time>2025-08-07T14:53:40Z</time>
      </trkpt>
      <trkpt lat="45.83374" lon="2.9216">
        <ele>861</ele>
        <time>2025-08-07T14:53:41Z</time>
      </trkpt>
      <trkpt lat="45.83368" lon="2.92159">
        <ele>861</ele>
        <time>2025-08-07T14:53:42Z</time>
      </trkpt>
      <trkpt lat="45.83362" lon="2.92158">
        <ele>861</ele>
        <time>2025-08-07T14:53:43Z</time>
      </trkpt>
      <trkpt lat="45.83356" lon="2.92157">
        <ele>861</ele>
        <time>2025-08-07T14:53:44Z</time>
      </trkpt>
      <trkpt lat="45.8335" lon="2.92156">
        <ele>861.2</ele>
        <time>2025-08-07T14:53:45Z</time>
      </trkpt>
      <trkpt lat="45.83344" lon="2.92154">
        <ele>861.2</ele>
        <time>2025-08-07T14:53:46Z</time>
      </trkpt>
      <trkpt lat="45.83337" lon="2.92153">
        <ele>861.2</ele>
        <time>2025-08-07T14:53:47Z</time>
      </trkpt>
      <trkpt lat="45.83331" lon="2.92153">
        <ele>861.2</ele>
        <time>2025-08-07T14:53:48Z</time>
      </trkpt>
      <trkpt lat="45.83325" lon="2.92154">
        <ele>861.4</ele>
        <time>2025-08-07T14:53:49Z</time>
      </trkpt>
      <trkpt lat="45.83319" lon="2.92154">
        <ele>861.6</ele>
        <time>2025-08-07T14:53:50Z</time>
      </trkpt>
      <trkpt lat="45.83313" lon="2.92155">
        <ele>861.6</ele>
        <time>2025-08-07T14:53:51Z</time>
      </trkpt>
      <trkpt lat="45.83308" lon="2.92157">
        <ele>861.8</ele>
        <time>2025-08-07T14:53:52Z</time>
      </trkpt>
      <trkpt lat="45.83302" lon="2.92159">
        <ele>861.8</ele>
        <time>2025-08-07T14:53:53Z</time>
      </trkpt>
      <trkpt lat="45.83296" lon="2.92163">
        <ele>862</ele>
        <time>2025-08-07T14:53:54Z</time>
      </trkpt>
      <trkpt lat="45.83291" lon="2.92167">
        <ele>862.4</ele>
        <time>2025-08-07T14:53:55Z</time>
      </trkpt>
      <trkpt lat="45.83287" lon="2.92173">
        <ele>862.4</ele>
        <time>2025-08-07T14:53:56Z</time>
      </trkpt>
      <trkpt lat="45.83283" lon="2.92179">
        <ele>862.6</ele>
        <time>2025-08-07T14:53:57Z</time>
      </trkpt>
      <trkpt lat="45.83279" lon="2.92186">
        <ele>862.8</ele>
        <time>2025-08-07T14:53:58Z</time>
      </trkpt>
      <trkpt lat="45.83275" lon="2.92192">
        <ele>862.8</ele>
        <time>2025-08-07T14:53:59Z</time>
      </trkpt>
      <trkpt lat="45.83272" lon="2.922">
        <ele>863</ele>
        <time>2025-08-07T14:54:00Z</time>
      </trkpt>
      <trkpt lat="45.83269" lon="2.92207">
        <ele>863</ele>
        <time>2025-08-07T14:54:01Z</time>
      </trkpt>
      <trkpt lat="45.83266" lon="2.92214">
        <ele>863</ele>
        <time>2025-08-07T14:54:02Z</time>
      </trkpt>
      <trkpt lat="45.83264" lon="2.92222">
        <ele>863</ele>
        <time>2025-08-07T14:54:03Z</time>
      </trkpt>
      <trkpt lat="45.83261" lon="2.9223">
        <ele>863.2</ele>
        <time>2025-08-07T14:54:04Z</time>
      </trkpt>
      <trkpt lat="45.83258" lon="2.92238">
        <ele>863.2</ele>
        <time>2025-08-07T14:54:05Z</time>
      </trkpt>
      <trkpt lat="45.83255" lon="2.92245">
        <ele>863.2</ele>
        <time>2025-08-07T14:54:06Z</time>
      </trkpt>
      <trkpt lat="45.83252" lon="2.92253">
        <ele>863.2</ele>
        <time>2025-08-07T14:54:07Z</time>
      </trkpt>
      <trkpt lat="45.83249" lon="2.92261">
        <ele>863.2</ele>
        <time>2025-08-07T14:54:08Z</time>
      </trkpt>
      <trkpt lat="45.83246" lon="2.92269">
        <ele>863.2</ele>
        <time>2025-08-07T14:54:09Z</time>
      </trkpt>
      <trkpt lat="45.83243" lon="2.92276">
        <ele>863.2</ele>
        <time>2025-08-07T14:54:10Z</time>
      </trkpt>
      <trkpt lat="45.8324" lon="2.92283">
        <ele>863.2</ele>
        <time>2025-08-07T14:54:11Z</time>
      </trkpt>
      <trkpt lat="45.83237" lon="2.92291">
        <ele>863.2</ele>
        <time>2025-08-07T14:54:12Z</time>
      </trkpt>
      <trkpt lat="45.83234" lon="2.92298">
        <ele>863</ele>
        <time>2025-08-07T14:54:13Z</time>
      </trkpt>
      <trkpt lat="45.8323" lon="2.92304">
        <ele>862.8</ele>
        <time>2025-08-07T14:54:14Z</time>
      </trkpt>
      <trkpt lat="45.83227" lon="2.92311">
        <ele>862.8</ele>
        <time>2025-08-07T14:54:15Z</time>
      </trkpt>
      <trkpt lat="45.83222" lon="2.92316">
        <ele>862.6</ele>
        <time>2025-08-07T14:54:16Z</time>
      </trkpt>
      <trkpt lat="45.83218" lon="2.92322">
        <ele>862.6</ele>
        <time>2025-08-07T14:54:17Z</time>
      </trkpt>
      <trkpt lat="45.83214" lon="2.92326">
        <ele>862.6</ele>
        <time>2025-08-07T14:54:18Z</time>
      </trkpt>
      <trkpt lat="45.8321" lon="2.92331">
        <ele>862.6</ele>
        <time>2025-08-07T14:54:19Z</time>
      </trkpt>
      <trkpt lat="45.83206" lon="2.92336">
        <ele>862.6</ele>
        <time>2025-08-07T14:54:20Z</time>
      </trkpt>
      <trkpt lat="45.83201" lon="2.92341">
        <ele>862.6</ele>
        <time>2025-08-07T14:54:21Z</time>
      </trkpt>
      <trkpt lat="45.83197" lon="2.92346">
        <ele>862.8</ele>
        <time>2025-08-07T14:54:22Z</time>
      </trkpt>
      <trkpt lat="45.83193" lon="2.9235">
        <ele>862.8</ele>
        <time>2025-08-07T14:54:23Z</time>
      </trkpt>
      <trkpt lat="45.83188" lon="2.92355">
        <ele>863</ele>
        <time>2025-08-07T14:54:24Z</time>
      </trkpt>
      <trkpt lat="45.83184" lon="2.9236">
        <ele>863.2</ele>
        <time>2025-08-07T14:54:25Z</time>
      </trkpt>
      <trkpt lat="45.8318" lon="2.92365">
        <ele>863.4</ele>
        <time>2025-08-07T14:54:26Z</time>
      </trkpt>
      <trkpt lat="45.83176" lon="2.9237">
        <ele>863.8</ele>
        <time>2025-08-07T14:54:27Z</time>
      </trkpt>
      <trkpt lat="45.83172" lon="2.92375">
        <ele>864</ele>
        <time>2025-08-07T14:54:28Z</time>
      </trkpt>
      <trkpt lat="45.83168" lon="2.9238">
        <ele>864.2</ele>
        <time>2025-08-07T14:54:29Z</time>
      </trkpt>
      <trkpt lat="45.83164" lon="2.92385">
        <ele>864.6</ele>
        <time>2025-08-07T14:54:30Z</time>
      </trkpt>
      <trkpt lat="45.83161" lon="2.92391">
        <ele>864.8</ele>
        <time>2025-08-07T14:54:31Z</time>
      </trkpt>
      <trkpt lat="45.83156" lon="2.92396">
        <ele>865.2</ele>
        <time>2025-08-07T14:54:32Z</time>
      </trkpt>
      <trkpt lat="45.83153" lon="2.92401">
        <ele>865.4</ele>
        <time>2025-08-07T14:54:33Z</time>
      </trkpt>
      <trkpt lat="45.83149" lon="2.92406">
        <ele>865.8</ele>
        <time>2025-08-07T14:54:34Z</time>
      </trkpt>
      <trkpt lat="45.83145" lon="2.92412">
        <ele>866</ele>
        <time>2025-08-07T14:54:35Z</time>
      </trkpt>
      <trkpt lat="45.83142" lon="2.92417">
        <ele>866.2</ele>
        <time>2025-08-07T14:54:36Z</time>
      </trkpt>
      <trkpt lat="45.83138" lon="2.92422">
        <ele>866.6</ele>
        <time>2025-08-07T14:54:37Z</time>
      </trkpt>
      <trkpt lat="45.83134" lon="2.92428">
        <ele>866.8</ele>
        <time>2025-08-07T14:54:38Z</time>
      </trkpt>
      <trkpt lat="45.83131" lon="2.92433">
        <ele>867</ele>
        <time>2025-08-07T14:54:39Z</time>
      </trkpt>
      <trkpt lat="45.83127" lon="2.92439">
        <ele>867.2</ele>
        <time>2025-08-07T14:54:40Z</time>
      </trkpt>
      <trkpt lat="45.83124" lon="2.92445">
        <ele>867.4</ele>
        <time>2025-08-07T14:54:41Z</time>
      </trkpt>
      <trkpt lat="45.83121" lon="2.92451">
        <ele>867.6</ele>
        <time>2025-08-07T14:54:42Z</time>
      </trkpt>
      <trkpt lat="45.83119" lon="2.92457">
        <ele>868</ele>
        <time>2025-08-07T14:54:43Z</time>
      </trkpt>
      <trkpt lat="45.83116" lon="2.92463">
        <ele>868.2</ele>
        <time>2025-08-07T14:54:44Z</time>
      </trkpt>
      <trkpt lat="45.83114" lon="2.92469">
        <ele>868.6</ele>
        <time>2025-08-07T14:54:45Z</time>
      </trkpt>
      <trkpt lat="45.83111" lon="2.92475">
        <ele>869</ele>
        <time>2025-08-07T14:54:46Z</time>
      </trkpt>
      <trkpt lat="45.83109" lon="2.92481">
        <ele>869.2</ele>
        <time>2025-08-07T14:54:47Z</time>
      </trkpt>
      <trkpt lat="45.83106" lon="2.92486">
        <ele>869.6</ele>
        <time>2025-08-07T14:54:48Z</time>
      </trkpt>
      <trkpt lat="45.83104" lon="2.92491">
        <ele>869.8</ele>
        <time>2025-08-07T14:54:49Z</time>
      </trkpt>
      <trkpt lat="45.83102" lon="2.92497">
        <ele>870.2</ele>
        <time>2025-08-07T14:54:50Z</time>
      </trkpt>
      <trkpt lat="45.83099" lon="2.92502">
        <ele>870.4</ele>
        <time>2025-08-07T14:54:51Z</time>
      </trkpt>
      <trkpt lat="45.83097" lon="2.92507">
        <ele>870.8</ele>
        <time>2025-08-07T14:54:52Z</time>
      </trkpt>
      <trkpt lat="45.83095" lon="2.92512">
        <ele>871</ele>
        <time>2025-08-07T14:54:53Z</time>
      </trkpt>
      <trkpt lat="45.83092" lon="2.92517">
        <ele>871.4</ele>
        <time>2025-08-07T14:54:54Z</time>
      </trkpt>
      <trkpt lat="45.83089" lon="2.92522">
        <ele>871.8</ele>
        <time>2025-08-07T14:54:55Z</time>
      </trkpt>
      <trkpt lat="45.83086" lon="2.92526">
        <ele>872</ele>
        <time>2025-08-07T14:54:56Z</time>
      </trkpt>
      <trkpt lat="45.83083" lon="2.9253">
        <ele>872.2</ele>
        <time>2025-08-07T14:54:57Z</time>
      </trkpt>
      <trkpt lat="45.8308" lon="2.92534">
        <ele>872.6</ele>
        <time>2025-08-07T14:54:58Z</time>
      </trkpt>
      <trkpt lat="45.83078" lon="2.92538">
        <ele>872.8</ele>
        <time>2025-08-07T14:54:59Z</time>
      </trkpt>
      <trkpt lat="45.83075" lon="2.92541">
        <ele>873</ele>
        <time>2025-08-07T14:55:00Z</time>
      </trkpt>
      <trkpt lat="45.83073" lon="2.92544">
        <ele>873.4</ele>
        <time>2025-08-07T14:55:01Z</time>
      </trkpt>
      <trkpt lat="45.8307" lon="2.92548">
        <ele>873.6</ele>
        <time>2025-08-07T14:55:02Z</time>
      </trkpt>
      <trkpt lat="45.83068" lon="2.92552">
        <ele>874</ele>
        <time>2025-08-07T14:55:03Z</time>
      </trkpt>
      <trkpt lat="45.83066" lon="2.92556">
        <ele>874.4</ele>
        <time>2025-08-07T14:55:04Z</time>
      </trkpt>
      <trkpt lat="45.83063" lon="2.92561">
        <ele>874.8</ele>
        <time>2025-08-07T14:55:05Z</time>
      </trkpt>
      <trkpt lat="45.83061" lon="2.92565">
        <ele>875.2</ele>
        <time>2025-08-07T14:55:06Z</time>
      </trkpt>
      <trkpt lat="45.83059" lon="2.92569">
        <ele>875.6</ele>
        <time>2025-08-07T14:55:07Z</time>
      </trkpt>
      <trkpt lat="45.83058" lon="2.92572">
        <ele>876</ele>
        <time>2025-08-07T14:55:08Z</time>
      </trkpt>
      <trkpt lat="45.83056" lon="2.92576">
        <ele>876.6</ele>
        <time>2025-08-07T14:55:09Z</time>
      </trkpt>
      <trkpt lat="45.83054" lon="2.92579">
        <ele>877</ele>
        <time>2025-08-07T14:55:10Z</time>
      </trkpt>
      <trkpt lat="45.83052" lon="2.92581">
        <ele>877.6</ele>
        <time>2025-08-07T14:55:11Z</time>
      </trkpt>
      <trkpt lat="45.8305" lon="2.92584">
        <ele>878.2</ele>
        <time>2025-08-07T14:55:12Z</time>
      </trkpt>
      <trkpt lat="45.83048" lon="2.92587">
        <ele>878.8</ele>
        <time>2025-08-07T14:55:13Z</time>
      </trkpt>
      <trkpt lat="45.83046" lon="2.9259">
        <ele>879.4</ele>
        <time>2025-08-07T14:55:14Z</time>
      </trkpt>
      <trkpt lat="45.83043" lon="2.92593">
        <ele>880</ele>
        <time>2025-08-07T14:55:15Z</time>
      </trkpt>
      <trkpt lat="45.83041" lon="2.92596">
        <ele>880.4</ele>
        <time>2025-08-07T14:55:16Z</time>
      </trkpt>
      <trkpt lat="45.83039" lon="2.92599">
        <ele>881</ele>
        <time>2025-08-07T14:55:17Z</time>
      </trkpt>
      <trkpt lat="45.83037" lon="2.92602">
        <ele>881.4</ele>
        <time>2025-08-07T14:55:18Z</time>
      </trkpt>
      <trkpt lat="45.83035" lon="2.92605">
        <ele>882</ele>
        <time>2025-08-07T14:55:19Z</time>
      </trkpt>
      <trkpt lat="45.83033" lon="2.9261">
        <ele>882.4</ele>
        <time>2025-08-07T14:55:20Z</time>
      </trkpt>
      <trkpt lat="45.8303" lon="2.92616">
        <ele>882.8</ele>
        <time>2025-08-07T14:55:21Z</time>
      </trkpt>
      <trkpt lat="45.83029" lon="2.92622">
        <ele>883.2</ele>
        <time>2025-08-07T14:55:22Z</time>
      </trkpt>
      <trkpt lat="45.83027" lon="2.92628">
        <ele>883.4</ele>
        <time>2025-08-07T14:55:23Z</time>
      </trkpt>
      <trkpt lat="45.83025" lon="2.92635">
        <ele>883.8</ele>
        <time>2025-08-07T14:55:24Z</time>
      </trkpt>
      <trkpt lat="45.83024" lon="2.92641">
        <ele>884.2</ele>
        <time>2025-08-07T14:55:25Z</time>
      </trkpt>
      <trkpt lat="45.83023" lon="2.92648">
        <ele>884.4</ele>
        <time>2025-08-07T14:55:26Z</time>
      </trkpt>
      <trkpt lat="45.83022" lon="2.92654">
        <ele>884.6</ele>
        <time>2025-08-07T14:55:27Z</time>
      </trkpt>
      <trkpt lat="45.8302" lon="2.92661">
        <ele>885</ele>
        <time>2025-08-07T14:55:28Z</time>
      </trkpt>
      <trkpt lat="45.83018" lon="2.92667">
        <ele>885.2</ele>
        <time>2025-08-07T14:55:29Z</time>
      </trkpt>
      <trkpt lat="45.83017" lon="2.92674">
        <ele>885.6</ele>
        <time>2025-08-07T14:55:30Z</time>
      </trkpt>
      <trkpt lat="45.83015" lon="2.9268">
        <ele>885.8</ele>
        <time>2025-08-07T14:55:31Z</time>
      </trkpt>
      <trkpt lat="45.83013" lon="2.92686">
        <ele>886.2</ele>
        <time>2025-08-07T14:55:32Z</time>
      </trkpt>
      <trkpt lat="45.83011" lon="2.92692">
        <ele>886.4</ele>
        <time>2025-08-07T14:55:33Z</time>
      </trkpt>
      <trkpt lat="45.83008" lon="2.92698">
        <ele>886.8</ele>
        <time>2025-08-07T14:55:34Z</time>
      </trkpt>
      <trkpt lat="45.83006" lon="2.92705">
        <ele>887</ele>
        <time>2025-08-07T14:55:35Z</time>
      </trkpt>
      <trkpt lat="45.83003" lon="2.92712">
        <ele>887.2</ele>
        <time>2025-08-07T14:55:36Z</time>
      </trkpt>
      <trkpt lat="45.83001" lon="2.92718">
        <ele>887.6</ele>
        <time>2025-08-07T14:55:37Z</time>
      </trkpt>
      <trkpt lat="45.82999" lon="2.92723">
        <ele>887.8</ele>
        <time>2025-08-07T14:55:38Z</time>
      </trkpt>
      <trkpt lat="45.82997" lon="2.9273">
        <ele>888</ele>
        <time>2025-08-07T14:55:39Z</time>
      </trkpt>
      <trkpt lat="45.82995" lon="2.92736">
        <ele>888.2</ele>
        <time>2025-08-07T14:55:40Z</time>
      </trkpt>
      <trkpt lat="45.82992" lon="2.92742">
        <ele>888.4</ele>
        <time>2025-08-07T14:55:41Z</time>
      </trkpt>
      <trkpt lat="45.8299" lon="2.92749">
        <ele>888.6</ele>
        <time>2025-08-07T14:55:42Z</time>
      </trkpt>
      <trkpt lat="45.82987" lon="2.92756">
        <ele>888.8</ele>
        <time>2025-08-07T14:55:43Z</time>
      </trkpt>
      <trkpt lat="45.82985" lon="2.92763">
        <ele>889</ele>
        <time>2025-08-07T14:55:44Z</time>
      </trkpt>
      <trkpt lat="45.82982" lon="2.9277">
        <ele>889</ele>
        <time>2025-08-07T14:55:45Z</time>
      </trkpt>
      <trkpt lat="45.82979" lon="2.92777">
        <ele>889.2</ele>
        <time>2025-08-07T14:55:46Z</time>
      </trkpt>
      <trkpt lat="45.82975" lon="2.92785">
        <ele>889.4</ele>
        <time>2025-08-07T14:55:47Z</time>
      </trkpt>
      <trkpt lat="45.82972" lon="2.92792">
        <ele>889.6</ele>
        <time>2025-08-07T14:55:48Z</time>
      </trkpt>
      <trkpt lat="45.82969" lon="2.92799">
        <ele>889.6</ele>
        <time>2025-08-07T14:55:49Z</time>
      </trkpt>
      <trkpt lat="45.82966" lon="2.92805">
        <ele>889.8</ele>
        <time>2025-08-07T14:55:50Z</time>
      </trkpt>
      <trkpt lat="45.82964" lon="2.92811">
        <ele>889.8</ele>
        <time>2025-08-07T14:55:51Z</time>
      </trkpt>
      <trkpt lat="45.82961" lon="2.92817">
        <ele>890</ele>
        <time>2025-08-07T14:55:52Z</time>
      </trkpt>
      <trkpt lat="45.82958" lon="2.92822">
        <ele>890</ele>
        <time>2025-08-07T14:55:53Z</time>
      </trkpt>
      <trkpt lat="45.82956" lon="2.92828">
        <ele>890</ele>
        <time>2025-08-07T14:55:54Z</time>
      </trkpt>
      <trkpt lat="45.82954" lon="2.92833">
        <ele>890</ele>
        <time>2025-08-07T14:55:55Z</time>
      </trkpt>
      <trkpt lat="45.82952" lon="2.92838">
        <ele>890</ele>
        <time>2025-08-07T14:55:56Z</time>
      </trkpt>
      <trkpt lat="45.82951" lon="2.92842">
        <ele>890</ele>
        <time>2025-08-07T14:55:57Z</time>
      </trkpt>
      <trkpt lat="45.82952" lon="2.92846">
        <ele>890</ele>
        <time>2025-08-07T14:55:58Z</time>
      </trkpt>
      <trkpt lat="45.82954" lon="2.92849">
        <ele>889.8</ele>
        <time>2025-08-07T14:55:59Z</time>
      </trkpt>
      <trkpt lat="45.82957" lon="2.92852">
        <ele>890</ele>
        <time>2025-08-07T14:56:00Z</time>
      </trkpt>
      <trkpt lat="45.82961" lon="2.92855">
        <ele>890</ele>
        <time>2025-08-07T14:56:01Z</time>
      </trkpt>
      <trkpt lat="45.82965" lon="2.92858">
        <ele>890</ele>
        <time>2025-08-07T14:56:02Z</time>
      </trkpt>
      <trkpt lat="45.82969" lon="2.92862">
        <ele>890</ele>
        <time>2025-08-07T14:56:03Z</time>
      </trkpt>
      <trkpt lat="45.82973" lon="2.92865">
        <ele>890.2</ele>
        <time>2025-08-07T14:56:04Z</time>
      </trkpt>
      <trkpt lat="45.82977" lon="2.92869">
        <ele>890.2</ele>
        <time>2025-08-07T14:56:05Z</time>
      </trkpt>
      <trkpt lat="45.82981" lon="2.92872">
        <ele>890.4</ele>
        <time>2025-08-07T14:56:06Z</time>
      </trkpt>
      <trkpt lat="45.82984" lon="2.92877">
        <ele>890.4</ele>
        <time>2025-08-07T14:56:07Z</time>
      </trkpt>
      <trkpt lat="45.82989" lon="2.92881">
        <ele>890.4</ele>
        <time>2025-08-07T14:56:08Z</time>
      </trkpt>
      <trkpt lat="45.82992" lon="2.92886">
        <ele>890.6</ele>
        <time>2025-08-07T14:56:09Z</time>
      </trkpt>
      <trkpt lat="45.82996" lon="2.9289">
        <ele>890.6</ele>
        <time>2025-08-07T14:56:10Z</time>
      </trkpt>
      <trkpt lat="45.83" lon="2.92895">
        <ele>890.8</ele>
        <time>2025-08-07T14:56:11Z</time>
      </trkpt>
      <trkpt lat="45.83004" lon="2.929">
        <ele>890.8</ele>
        <time>2025-08-07T14:56:12Z</time>
      </trkpt>
      <trkpt lat="45.83008" lon="2.92905">
        <ele>891</ele>
        <time>2025-08-07T14:56:13Z</time>
      </trkpt>
      <trkpt lat="45.83012" lon="2.92909">
        <ele>891</ele>
        <time>2025-08-07T14:56:14Z</time>
      </trkpt>
      <trkpt lat="45.83016" lon="2.92914">
        <ele>891.2</ele>
        <time>2025-08-07T14:56:15Z</time>
      </trkpt>
      <trkpt lat="45.83019" lon="2.92919">
        <ele>891.2</ele>
        <time>2025-08-07T14:56:16Z</time>
      </trkpt>
      <trkpt lat="45.83023" lon="2.92923">
        <ele>891.4</ele>
        <time>2025-08-07T14:56:17Z</time>
      </trkpt>
      <trkpt lat="45.83027" lon="2.92928">
        <ele>891.4</ele>
        <time>2025-08-07T14:56:18Z</time>
      </trkpt>
      <trkpt lat="45.83031" lon="2.92932">
        <ele>891.6</ele>
        <time>2025-08-07T14:56:19Z</time>
      </trkpt>
      <trkpt lat="45.83034" lon="2.92936">
        <ele>891.6</ele>
        <time>2025-08-07T14:56:20Z</time>
      </trkpt>
      <trkpt lat="45.83038" lon="2.9294">
        <ele>891.8</ele>
        <time>2025-08-07T14:56:21Z</time>
      </trkpt>
      <trkpt lat="45.83041" lon="2.92944">
        <ele>892</ele>
        <time>2025-08-07T14:56:22Z</time>
      </trkpt>
      <trkpt lat="45.83045" lon="2.92949">
        <ele>892</ele>
        <time>2025-08-07T14:56:23Z</time>
      </trkpt>
      <trkpt lat="45.83048" lon="2.92953">
        <ele>892.2</ele>
        <time>2025-08-07T14:56:24Z</time>
      </trkpt>
      <trkpt lat="45.83051" lon="2.92957">
        <ele>892.4</ele>
        <time>2025-08-07T14:56:25Z</time>
      </trkpt>
      <trkpt lat="45.83055" lon="2.92962">
        <ele>892.6</ele>
        <time>2025-08-07T14:56:26Z</time>
      </trkpt>
      <trkpt lat="45.83058" lon="2.92966">
        <ele>892.8</ele>
        <time>2025-08-07T14:56:27Z</time>
      </trkpt>
      <trkpt lat="45.83062" lon="2.92969">
        <ele>893</ele>
        <time>2025-08-07T14:56:28Z</time>
      </trkpt>
      <trkpt lat="45.83066" lon="2.92973">
        <ele>893.2</ele>
        <time>2025-08-07T14:56:29Z</time>
      </trkpt>
      <trkpt lat="45.83069" lon="2.92977">
        <ele>893.4</ele>
        <time>2025-08-07T14:56:30Z</time>
      </trkpt>
      <trkpt lat="45.83072" lon="2.92981">
        <ele>893.6</ele>
        <time>2025-08-07T14:56:31Z</time>
      </trkpt>
      <trkpt lat="45.83076" lon="2.92986">
        <ele>893.6</ele>
        <time>2025-08-07T14:56:32Z</time>
      </trkpt>
      <trkpt lat="45.8308" lon="2.9299">
        <ele>893.8</ele>
        <time>2025-08-07T14:56:33Z</time>
      </trkpt>
      <trkpt lat="45.83083" lon="2.92994">
        <ele>894</ele>
        <time>2025-08-07T14:56:34Z</time>
      </trkpt>
      <trkpt lat="45.83087" lon="2.92998">
        <ele>894.2</ele>
        <time>2025-08-07T14:56:35Z</time>
      </trkpt>
      <trkpt lat="45.8309" lon="2.93003">
        <ele>894.2</ele>
        <time>2025-08-07T14:56:36Z</time>
      </trkpt>
      <trkpt lat="45.83094" lon="2.93007">
        <ele>894.4</ele>
        <time>2025-08-07T14:56:37Z</time>
      </trkpt>
      <trkpt lat="45.83097" lon="2.93011">
        <ele>894.6</ele>
        <time>2025-08-07T14:56:38Z</time>
      </trkpt>
      <trkpt lat="45.83101" lon="2.93016">
        <ele>894.6</ele>
        <time>2025-08-07T14:56:39Z</time>
      </trkpt>
      <trkpt lat="45.83103" lon="2.93021">
        <ele>894.8</ele>
        <time>2025-08-07T14:56:40Z</time>
      </trkpt>
      <trkpt lat="45.83106" lon="2.93027">
        <ele>895</ele>
        <time>2025-08-07T14:56:41Z</time>
      </trkpt>
      <trkpt lat="45.83108" lon="2.93032">
        <ele>895.2</ele>
        <time>2025-08-07T14:56:42Z</time>
      </trkpt>
      <trkpt lat="45.83111" lon="2.93038">
        <ele>895.4</ele>
        <time>2025-08-07T14:56:43Z</time>
      </trkpt>
      <trkpt lat="45.83113" lon="2.93043">
        <ele>895.6</ele>
        <time>2025-08-07T14:56:44Z</time>
      </trkpt>
      <trkpt lat="45.83115" lon="2.93049">
        <ele>895.8</ele>
        <time>2025-08-07T14:56:45Z</time>
      </trkpt>
      <trkpt lat="45.83116" lon="2.93055">
        <ele>896</ele>
        <time>2025-08-07T14:56:46Z</time>
      </trkpt>
      <trkpt lat="45.83118" lon="2.93061">
        <ele>896.2</ele>
        <time>2025-08-07T14:56:47Z</time>
      </trkpt>
      <trkpt lat="45.83121" lon="2.93066">
        <ele>896.2</ele>
        <time>2025-08-07T14:56:48Z</time>
      </trkpt>
      <trkpt lat="45.83122" lon="2.93071">
        <ele>896.4</ele>
        <time>2025-08-07T14:56:49Z</time>
      </trkpt>
      <trkpt lat="45.83124" lon="2.93077">
        <ele>896.6</ele>
        <time>2025-08-07T14:56:50Z</time>
      </trkpt>
      <trkpt lat="45.83126" lon="2.93082">
        <ele>896.8</ele>
        <time>2025-08-07T14:56:51Z</time>
      </trkpt>
      <trkpt lat="45.83127" lon="2.93087">
        <ele>897</ele>
        <time>2025-08-07T14:56:52Z</time>
      </trkpt>
      <trkpt lat="45.83129" lon="2.93092">
        <ele>897.2</ele>
        <time>2025-08-07T14:56:53Z</time>
      </trkpt>
      <trkpt lat="45.83131" lon="2.93097">
        <ele>897.2</ele>
        <time>2025-08-07T14:56:54Z</time>
      </trkpt>
      <trkpt lat="45.83133" lon="2.93102">
        <ele>897.4</ele>
        <time>2025-08-07T14:56:55Z</time>
      </trkpt>
      <trkpt lat="45.83134" lon="2.93107">
        <ele>897.6</ele>
        <time>2025-08-07T14:56:56Z</time>
      </trkpt>
      <trkpt lat="45.83136" lon="2.93112">
        <ele>897.8</ele>
        <time>2025-08-07T14:56:57Z</time>
      </trkpt>
      <trkpt lat="45.83137" lon="2.93117">
        <ele>898</ele>
        <time>2025-08-07T14:56:58Z</time>
      </trkpt>
      <trkpt lat="45.83139" lon="2.93122">
        <ele>898.2</ele>
        <time>2025-08-07T14:56:59Z</time>
      </trkpt>
      <trkpt lat="45.83141" lon="2.93127">
        <ele>898.4</ele>
        <time>2025-08-07T14:57:00Z</time>
      </trkpt>
      <trkpt lat="45.83142" lon="2.93131">
        <ele>898.6</ele>
        <time>2025-08-07T14:57:01Z</time>
      </trkpt>
      <trkpt lat="45.83144" lon="2.93135">
        <ele>898.8</ele>
        <time>2025-08-07T14:57:02Z</time>
      </trkpt>
      <trkpt lat="45.83146" lon="2.9314">
        <ele>899</ele>
        <time>2025-08-07T14:57:03Z</time>
      </trkpt>
      <trkpt lat="45.83147" lon="2.93144">
        <ele>899</ele>
        <time>2025-08-07T14:57:04Z</time>
      </trkpt>
      <trkpt lat="45.83149" lon="2.93148">
        <ele>899.2</ele>
        <time>2025-08-07T14:57:05Z</time>
      </trkpt>
      <trkpt lat="45.8315" lon="2.93152">
        <ele>899.4</ele>
        <time>2025-08-07T14:57:06Z</time>
      </trkpt>
      <trkpt lat="45.83152" lon="2.93156">
        <ele>899.6</ele>
        <time>2025-08-07T14:57:07Z</time>
      </trkpt>
      <trkpt lat="45.83154" lon="2.93161">
        <ele>900</ele>
        <time>2025-08-07T14:57:08Z</time>
      </trkpt>
      <trkpt lat="45.83156" lon="2.93165">
        <ele>900.2</ele>
        <time>2025-08-07T14:57:09Z</time>
      </trkpt>
      <trkpt lat="45.83157" lon="2.93169">
        <ele>900.4</ele>
        <time>2025-08-07T14:57:10Z</time>
      </trkpt>
      <trkpt lat="45.83159" lon="2.93173">
        <ele>900.6</ele>
        <time>2025-08-07T14:57:11Z</time>
      </trkpt>
      <trkpt lat="45.8316" lon="2.93178">
        <ele>900.8</ele>
        <time>2025-08-07T14:57:12Z</time>
      </trkpt>
      <trkpt lat="45.83161" lon="2.93183">
        <ele>901.2</ele>
        <time>2025-08-07T14:57:13Z</time>
      </trkpt>
      <trkpt lat="45.83162" lon="2.93188">
        <ele>901.4</ele>
        <time>2025-08-07T14:57:14Z</time>
      </trkpt>
      <trkpt lat="45.83163" lon="2.93192">
        <ele>901.6</ele>
        <time>2025-08-07T14:57:15Z</time>
      </trkpt>
      <trkpt lat="45.83163" lon="2.93197">
        <ele>902</ele>
        <time>2025-08-07T14:57:16Z</time>
      </trkpt>
      <trkpt lat="45.83164" lon="2.93202">
        <ele>902.2</ele>
        <time>2025-08-07T14:57:17Z</time>
      </trkpt>
      <trkpt lat="45.83164" lon="2.93207">
        <ele>902.4</ele>
        <time>2025-08-07T14:57:18Z</time>
      </trkpt>
      <trkpt lat="45.83164" lon="2.93211">
        <ele>902.8</ele>
        <time>2025-08-07T14:57:19Z</time>
      </trkpt>
      <trkpt lat="45.83164" lon="2.93215">
        <ele>903</ele>
        <time>2025-08-07T14:57:20Z</time>
      </trkpt>
      <trkpt lat="45.83165" lon="2.93219">
        <ele>903.4</ele>
        <time>2025-08-07T14:57:21Z</time>
      </trkpt>
      <trkpt lat="45.83165" lon="2.93222">
        <ele>903.6</ele>
        <time>2025-08-07T14:57:22Z</time>
      </trkpt>
      <trkpt lat="45.83166" lon="2.93225">
        <ele>903.8</ele>
        <time>2025-08-07T14:57:23Z</time>
      </trkpt>
      <trkpt lat="45.83166" lon="2.93226">
        <ele>904</ele>
        <time>2025-08-07T14:57:24Z</time>
      </trkpt>
      <trkpt lat="45.83167" lon="2.93227">
        <ele>904.2</ele>
        <time>2025-08-07T14:57:25Z</time>
      </trkpt>
      <trkpt lat="45.83168" lon="2.93228">
        <ele>904.4</ele>
        <time>2025-08-07T14:57:26Z</time>
      </trkpt>
      <trkpt lat="45.83168" lon="2.9323">
        <ele>904.6</ele>
        <time>2025-08-07T14:57:27Z</time>
      </trkpt>
      <trkpt lat="45.83169" lon="2.93231">
        <ele>904.8</ele>
        <time>2025-08-07T14:57:28Z</time>
      </trkpt>
      <trkpt lat="45.8317" lon="2.93233">
        <ele>905</ele>
        <time>2025-08-07T14:57:29Z</time>
      </trkpt>
      <trkpt lat="45.8317" lon="2.93233">
        <ele>905.2</ele>
        <time>2025-08-07T14:57:30Z</time>
      </trkpt>
      <trkpt lat="45.83169" lon="2.93238">
        <ele>906</ele>
        <time>2025-08-07T14:57:35Z</time>
      </trkpt>
      <trkpt lat="45.83169" lon="2.93239">
        <ele>906</ele>
        <time>2025-08-07T14:57:36Z</time>
      </trkpt>
      <trkpt lat="45.83169" lon="2.93239">
        <ele>906.2</ele>
        <time>2025-08-07T14:57:37Z</time>
      </trkpt>
      <trkpt lat="45.83168" lon="2.93241">
        <ele>906.4</ele>
        <time>2025-08-07T14:57:38Z</time>
      </trkpt>
      <trkpt lat="45.83168" lon="2.93243">
        <ele>906.4</ele>
        <time>2025-08-07T14:57:39Z</time>
      </trkpt>
      <trkpt lat="45.83168" lon="2.93246">
        <ele>906.6</ele>
        <time>2025-08-07T14:57:40Z</time>
      </trkpt>
      <trkpt lat="45.83168" lon="2.93246">
        <ele>906.6</ele>
        <time>2025-08-07T14:57:41Z</time>
      </trkpt>
      <trkpt lat="45.83168" lon="2.93246">
        <ele>906.8</ele>
        <time>2025-08-07T14:57:42Z</time>
      </trkpt>
      <trkpt lat="45.83168" lon="2.93247">
        <ele>907</ele>
        <time>2025-08-07T14:57:43Z</time>
      </trkpt>
      <trkpt lat="45.83167" lon="2.93249">
        <ele>907.2</ele>
        <time>2025-08-07T14:57:44Z</time>
      </trkpt>
      <trkpt lat="45.83167" lon="2.93249">
        <ele>907.4</ele>
        <time>2025-08-07T14:57:45Z</time>
      </trkpt>
      <trkpt lat="45.83167" lon="2.9325">
        <ele>907.6</ele>
        <time>2025-08-07T14:57:46Z</time>
      </trkpt>
      <trkpt lat="45.83167" lon="2.93251">
        <ele>907.8</ele>
        <time>2025-08-07T14:57:47Z</time>
      </trkpt>
      <trkpt lat="45.83167" lon="2.93251">
        <ele>907.8</ele>
        <time>2025-08-07T14:57:48Z</time>
      </trkpt>
      <trkpt lat="45.83167" lon="2.93251">
        <ele>908</ele>
        <time>2025-08-07T14:57:49Z</time>
      </trkpt>
      <trkpt lat="45.83167" lon="2.93251">
        <ele>908</ele>
        <time>2025-08-07T14:57:50Z</time>
      </trkpt>
      <trkpt lat="45.83167" lon="2.93251">
        <ele>908</ele>
        <time>2025-08-07T14:57:51Z</time>
      </trkpt>
      <trkpt lat="45.83167" lon="2.93251">
        <ele>908</ele>
        <time>2025-08-07T14:57:52Z</time>
      </trkpt>
      <trkpt lat="45.83167" lon="2.93251">
        <ele>908</ele>
        <time>2025-08-07T14:57:53Z</time>
      </trkpt>
      <trkpt lat="45.83167" lon="2.93253">
        <ele>907.8</ele>
        <time>2025-08-07T14:57:58Z</time>
      </trkpt>
      <trkpt lat="45.83167" lon="2.93253">
        <ele>907.8</ele>
        <time>2025-08-07T14:57:59Z</time>
      </trkpt>
      <trkpt lat="45.83168" lon="2.93252">
        <ele>907.6</ele>
        <time>2025-08-07T14:58:00Z</time>
      </trkpt>
      <trkpt lat="45.83169" lon="2.93251">
        <ele>907.6</ele>
        <time>2025-08-07T14:58:01Z</time>
      </trkpt>
      <trkpt lat="45.8317" lon="2.9325">
        <ele>907.4</ele>
        <time>2025-08-07T14:58:02Z</time>
      </trkpt>
      <trkpt lat="45.83171" lon="2.93249">
        <ele>907.2</ele>
        <time>2025-08-07T14:58:03Z</time>
      </trkpt>
      <trkpt lat="45.83172" lon="2.93247">
        <ele>907</ele>
        <time>2025-08-07T14:58:04Z</time>
      </trkpt>
      <trkpt lat="45.83173" lon="2.93245">
        <ele>906.8</ele>
        <time>2025-08-07T14:58:05Z</time>
      </trkpt>
      <trkpt lat="45.83174" lon="2.93242">
        <ele>906.4</ele>
        <time>2025-08-07T14:58:06Z</time>
      </trkpt>
      <trkpt lat="45.83176" lon="2.93239">
        <ele>906.2</ele>
        <time>2025-08-07T14:58:07Z</time>
      </trkpt>
      <trkpt lat="45.83176" lon="2.93234">
        <ele>906</ele>
        <time>2025-08-07T14:58:08Z</time>
      </trkpt>
      <trkpt lat="45.83176" lon="2.93231">
        <ele>905.6</ele>
        <time>2025-08-07T14:58:09Z</time>
      </trkpt>
      <trkpt lat="45.83174" lon="2.93228">
        <ele>905.4</ele>
        <time>2025-08-07T14:58:10Z</time>
      </trkpt>
      <trkpt lat="45.83172" lon="2.93225">
        <ele>905.2</ele>
        <time>2025-08-07T14:58:11Z</time>
      </trkpt>
      <trkpt lat="45.8317" lon="2.93224">
        <ele>905</ele>
        <time>2025-08-07T14:58:12Z</time>
      </trkpt>
      <trkpt lat="45.83167" lon="2.93224">
        <ele>905</ele>
        <time>2025-08-07T14:58:13Z</time>
      </trkpt>
      <trkpt lat="45.83165" lon="2.93224">
        <ele>904.8</ele>
        <time>2025-08-07T14:58:14Z</time>
      </trkpt>
      <trkpt lat="45.83163" lon="2.93227">
        <ele>904.8</ele>
        <time>2025-08-07T14:58:15Z</time>
      </trkpt>
      <trkpt lat="45.83161" lon="2.93229">
        <ele>904.8</ele>
        <time>2025-08-07T14:58:16Z</time>
      </trkpt>
      <trkpt lat="45.8316" lon="2.93231">
        <ele>905</ele>
        <time>2025-08-07T14:58:17Z</time>
      </trkpt>
      <trkpt lat="45.83158" lon="2.93232">
        <ele>905</ele>
        <time>2025-08-07T14:58:18Z</time>
      </trkpt>
      <trkpt lat="45.83157" lon="2.93233">
        <ele>905</ele>
        <time>2025-08-07T14:58:19Z</time>
      </trkpt>
      <trkpt lat="45.83156" lon="2.93234">
        <ele>905</ele>
        <time>2025-08-07T14:58:20Z</time>
      </trkpt>
      <trkpt lat="45.83155" lon="2.93233">
        <ele>905.2</ele>
        <time>2025-08-07T14:58:21Z</time>
      </trkpt>
      <trkpt lat="45.83155" lon="2.93233">
        <ele>905.2</ele>
        <time>2025-08-07T14:58:22Z</time>
      </trkpt>
      <trkpt lat="45.83155" lon="2.93233">
        <ele>905.2</ele>
        <time>2025-08-07T14:58:23Z</time>
      </trkpt>
      <trkpt lat="45.83155" lon="2.93233">
        <ele>905.2</ele>
        <time>2025-08-07T14:58:24Z</time>
      </trkpt>
      <trkpt lat="45.83155" lon="2.93233">
        <ele>905.2</ele>
        <time>2025-08-07T14:58:25Z</time>
      </trkpt>
      <trkpt lat="45.83155" lon="2.93233">
        <ele>905.2</ele>
        <time>2025-08-07T14:58:26Z</time>
      </trkpt>
      <trkpt lat="45.83153" lon="2.93235">
        <ele>905.4</ele>
        <time>2025-08-07T15:00:16Z</time>
      </trkpt>
      <trkpt lat="45.83152" lon="2.93236">
        <ele>905.4</ele>
        <time>2025-08-07T15:00:17Z</time>
      </trkpt>
      <trkpt lat="45.83151" lon="2.93237">
        <ele>905.4</ele>
        <time>2025-08-07T15:00:18Z</time>
      </trkpt>
      <trkpt lat="45.83151" lon="2.93239">
        <ele>905.4</ele>
        <time>2025-08-07T15:00:19Z</time>
      </trkpt>
      <trkpt lat="45.83149" lon="2.9324">
        <ele>905.4</ele>
        <time>2025-08-07T15:00:20Z</time>
      </trkpt>
      <trkpt lat="45.83149" lon="2.9324">
        <ele>905.6</ele>
        <time>2025-08-07T15:00:21Z</time>
      </trkpt>
      <trkpt lat="45.83148" lon="2.93243">
        <ele>905.6</ele>
        <time>2025-08-07T15:00:22Z</time>
      </trkpt>
      <trkpt lat="45.83146" lon="2.93246">
        <ele>905.6</ele>
        <time>2025-08-07T15:00:23Z</time>
      </trkpt>
      <trkpt lat="45.83145" lon="2.93248">
        <ele>905.8</ele>
        <time>2025-08-07T15:00:24Z</time>
      </trkpt>
      <trkpt lat="45.83143" lon="2.9325">
        <ele>906</ele>
        <time>2025-08-07T15:00:25Z</time>
      </trkpt>
      <trkpt lat="45.83141" lon="2.93253">
        <ele>906</ele>
        <time>2025-08-07T15:00:26Z</time>
      </trkpt>
      <trkpt lat="45.83139" lon="2.93257">
        <ele>906.2</ele>
        <time>2025-08-07T15:00:27Z</time>
      </trkpt>
      <trkpt lat="45.83136" lon="2.93261">
        <ele>906.4</ele>
        <time>2025-08-07T15:00:28Z</time>
      </trkpt>
      <trkpt lat="45.83134" lon="2.93262">
        <ele>906.6</ele>
        <time>2025-08-07T15:00:29Z</time>
      </trkpt>
      <trkpt lat="45.83132" lon="2.93264">
        <ele>906.8</ele>
        <time>2025-08-07T15:00:30Z</time>
      </trkpt>
      <trkpt lat="45.83129" lon="2.93265">
        <ele>906.8</ele>
        <time>2025-08-07T15:00:31Z</time>
      </trkpt>
      <trkpt lat="45.83127" lon="2.93267">
        <ele>907</ele>
        <time>2025-08-07T15:00:32Z</time>
      </trkpt>
      <trkpt lat="45.83125" lon="2.93268">
        <ele>907.2</ele>
        <time>2025-08-07T15:00:33Z</time>
      </trkpt>
      <trkpt lat="45.83123" lon="2.9327">
        <ele>907.4</ele>
        <time>2025-08-07T15:00:34Z</time>
      </trkpt>
      <trkpt lat="45.83119" lon="2.93272">
        <ele>907.6</ele>
        <time>2025-08-07T15:00:35Z</time>
      </trkpt>
      <trkpt lat="45.83116" lon="2.93274">
        <ele>907.6</ele>
        <time>2025-08-07T15:00:36Z</time>
      </trkpt>
      <trkpt lat="45.83113" lon="2.93276">
        <ele>907.8</ele>
        <time>2025-08-07T15:00:37Z</time>
      </trkpt>
      <trkpt lat="45.83109" lon="2.93279">
        <ele>908</ele>
        <time>2025-08-07T15:00:38Z</time>
      </trkpt>
      <trkpt lat="45.83107" lon="2.93281">
        <ele>908</ele>
        <time>2025-08-07T15:00:39Z</time>
      </trkpt>
      <trkpt lat="45.83106" lon="2.93281">
        <ele>908.2</ele>
        <time>2025-08-07T15:00:40Z</time>
      </trkpt>
      <trkpt lat="45.83104" lon="2.93282">
        <ele>908.2</ele>
        <time>2025-08-07T15:00:41Z</time>
      </trkpt>
      <trkpt lat="45.83101" lon="2.93283">
        <ele>908.2</ele>
        <time>2025-08-07T15:00:42Z</time>
      </trkpt>
      <trkpt lat="45.83101" lon="2.93284">
        <ele>908.4</ele>
        <time>2025-08-07T15:00:43Z</time>
      </trkpt>
      <trkpt lat="45.831" lon="2.93285">
        <ele>908.4</ele>
        <time>2025-08-07T15:00:44Z</time>
      </trkpt>
      <trkpt lat="45.83099" lon="2.93287">
        <ele>908.4</ele>
        <time>2025-08-07T15:00:45Z</time>
      </trkpt>
      <trkpt lat="45.83098" lon="2.9329">
        <ele>908.4</ele>
        <time>2025-08-07T15:00:46Z</time>
      </trkpt>
      <trkpt lat="45.83095" lon="2.93293">
        <ele>908.4</ele>
        <time>2025-08-07T15:00:47Z</time>
      </trkpt>
      <trkpt lat="45.83094" lon="2.93297">
        <ele>908.4</ele>
        <time>2025-08-07T15:00:48Z</time>
      </trkpt>
      <trkpt lat="45.83091" lon="2.933">
        <ele>908.4</ele>
        <time>2025-08-07T15:00:49Z</time>
      </trkpt>
      <trkpt lat="45.83088" lon="2.93303">
        <ele>908.6</ele>
        <time>2025-08-07T15:00:50Z</time>
      </trkpt>
      <trkpt lat="45.83086" lon="2.93306">
        <ele>908.6</ele>
        <time>2025-08-07T15:00:51Z</time>
      </trkpt>
      <trkpt lat="45.83084" lon="2.93309">
        <ele>908.6</ele>
        <time>2025-08-07T15:00:52Z</time>
      </trkpt>
      <trkpt lat="45.83082" lon="2.93312">
        <ele>908.6</ele>
        <time>2025-08-07T15:00:53Z</time>
      </trkpt>
      <trkpt lat="45.8308" lon="2.93315">
        <ele>908.6</ele>
        <time>2025-08-07T15:00:54Z</time>
      </trkpt>
      <trkpt lat="45.83078" lon="2.93317">
        <ele>908.6</ele>
        <time>2025-08-07T15:00:55Z</time>
      </trkpt>
      <trkpt lat="45.83077" lon="2.93318">
        <ele>908.6</ele>
        <time>2025-08-07T15:00:56Z</time>
      </trkpt>
      <trkpt lat="45.83075" lon="2.93321">
        <ele>908.6</ele>
        <time>2025-08-07T15:00:57Z</time>
      </trkpt>
      <trkpt lat="45.83074" lon="2.93324">
        <ele>908.6</ele>
        <time>2025-08-07T15:00:58Z</time>
      </trkpt>
      <trkpt lat="45.83073" lon="2.93326">
        <ele>908.8</ele>
        <time>2025-08-07T15:00:59Z</time>
      </trkpt>
      <trkpt lat="45.83073" lon="2.93327">
        <ele>908.8</ele>
        <time>2025-08-07T15:01:00Z</time>
      </trkpt>
      <trkpt lat="45.83072" lon="2.93328">
        <ele>908.8</ele>
        <time>2025-08-07T15:01:01Z</time>
      </trkpt>
      <trkpt lat="45.83072" lon="2.93331">
        <ele>908.8</ele>
        <time>2025-08-07T15:01:02Z</time>
      </trkpt>
      <trkpt lat="45.83072" lon="2.93333">
        <ele>908.8</ele>
        <time>2025-08-07T15:01:03Z</time>
      </trkpt>
      <trkpt lat="45.83072" lon="2.93335">
        <ele>908.8</ele>
        <time>2025-08-07T15:01:04Z</time>
      </trkpt>
      <trkpt lat="45.83072" lon="2.93337">
        <ele>908.8</ele>
        <time>2025-08-07T15:01:05Z</time>
      </trkpt>
      <trkpt lat="45.83072" lon="2.93339">
        <ele>908.8</ele>
        <time>2025-08-07T15:01:06Z</time>
      </trkpt>
      <trkpt lat="45.83071" lon="2.93343">
        <ele>909</ele>
        <time>2025-08-07T15:01:07Z</time>
      </trkpt>
      <trkpt lat="45.8307" lon="2.93345">
        <ele>909</ele>
        <time>2025-08-07T15:01:08Z</time>
      </trkpt>
      <trkpt lat="45.8307" lon="2.93347">
        <ele>909</ele>
        <time>2025-08-07T15:01:09Z</time>
      </trkpt>
      <trkpt lat="45.8307" lon="2.93347">
        <ele>909</ele>
        <time>2025-08-07T15:01:10Z</time>
      </trkpt>
      <trkpt lat="45.8307" lon="2.93348">
        <ele>909</ele>
        <time>2025-08-07T15:01:11Z</time>
      </trkpt>
      <trkpt lat="45.8307" lon="2.93351">
        <ele>909.2</ele>
        <time>2025-08-07T15:01:12Z</time>
      </trkpt>
      <trkpt lat="45.8307" lon="2.93353">
        <ele>909.2</ele>
        <time>2025-08-07T15:01:13Z</time>
      </trkpt>
      <trkpt lat="45.83071" lon="2.93355">
        <ele>909.2</ele>
        <time>2025-08-07T15:01:14Z</time>
      </trkpt>
      <trkpt lat="45.83071" lon="2.93356">
        <ele>909.2</ele>
        <time>2025-08-07T15:01:15Z</time>
      </trkpt>
      <trkpt lat="45.83071" lon="2.93356">
        <ele>909.2</ele>
        <time>2025-08-07T15:01:16Z</time>
      </trkpt>
      <trkpt lat="45.83072" lon="2.93358">
        <ele>909.2</ele>
        <time>2025-08-07T15:01:17Z</time>
      </trkpt>
      <trkpt lat="45.83072" lon="2.9336">
        <ele>909.4</ele>
        <time>2025-08-07T15:01:18Z</time>
      </trkpt>
      <trkpt lat="45.83072" lon="2.93361">
        <ele>909.4</ele>
        <time>2025-08-07T15:01:19Z</time>
      </trkpt>
      <trkpt lat="45.83072" lon="2.93362">
        <ele>909.4</ele>
        <time>2025-08-07T15:01:20Z</time>
      </trkpt>
      <trkpt lat="45.83072" lon="2.93362">
        <ele>909.4</ele>
        <time>2025-08-07T15:01:21Z</time>
      </trkpt>
      <trkpt lat="45.83071" lon="2.93369">
        <ele>909.6</ele>
        <time>2025-08-07T15:01:29Z</time>
      </trkpt>
      <trkpt lat="45.8307" lon="2.93371">
        <ele>909.6</ele>
        <time>2025-08-07T15:01:30Z</time>
      </trkpt>
      <trkpt lat="45.8307" lon="2.93375">
        <ele>909.6</ele>
        <time>2025-08-07T15:01:31Z</time>
      </trkpt>
      <trkpt lat="45.8307" lon="2.93378">
        <ele>909.8</ele>
        <time>2025-08-07T15:01:32Z</time>
      </trkpt>
      <trkpt lat="45.8307" lon="2.9338">
        <ele>909.8</ele>
        <time>2025-08-07T15:01:33Z</time>
      </trkpt>
      <trkpt lat="45.8307" lon="2.93385">
        <ele>910</ele>
        <time>2025-08-07T15:01:34Z</time>
      </trkpt>
      <trkpt lat="45.8307" lon="2.9339">
        <ele>910.2</ele>
        <time>2025-08-07T15:01:35Z</time>
      </trkpt>
      <trkpt lat="45.83072" lon="2.93392">
        <ele>910.6</ele>
        <time>2025-08-07T15:01:36Z</time>
      </trkpt>
      <trkpt lat="45.83073" lon="2.93396">
        <ele>910.8</ele>
        <time>2025-08-07T15:01:37Z</time>
      </trkpt>
      <trkpt lat="45.83074" lon="2.934">
        <ele>911</ele>
        <time>2025-08-07T15:01:38Z</time>
      </trkpt>
      <trkpt lat="45.83075" lon="2.93404">
        <ele>911.4</ele>
        <time>2025-08-07T15:01:39Z</time>
      </trkpt>
      <trkpt lat="45.83075" lon="2.93407">
        <ele>911.8</ele>
        <time>2025-08-07T15:01:40Z</time>
      </trkpt>
      <trkpt lat="45.83075" lon="2.93409">
        <ele>912.2</ele>
        <time>2025-08-07T15:01:41Z</time>
      </trkpt>
      <trkpt lat="45.83075" lon="2.93412">
        <ele>912.6</ele>
        <time>2025-08-07T15:01:42Z</time>
      </trkpt>
      <trkpt lat="45.83075" lon="2.93415">
        <ele>913</ele>
        <time>2025-08-07T15:01:43Z</time>
      </trkpt>
      <trkpt lat="45.83075" lon="2.9342">
        <ele>913.4</ele>
        <time>2025-08-07T15:01:44Z</time>
      </trkpt>
      <trkpt lat="45.83074" lon="2.93425">
        <ele>914</ele>
        <time>2025-08-07T15:01:45Z</time>
      </trkpt>
      <trkpt lat="45.83074" lon="2.93429">
        <ele>914.4</ele>
        <time>2025-08-07T15:01:46Z</time>
      </trkpt>
      <trkpt lat="45.83074" lon="2.93434">
        <ele>915</ele>
        <time>2025-08-07T15:01:47Z</time>
      </trkpt>
      <trkpt lat="45.83073" lon="2.93438">
        <ele>915.4</ele>
        <time>2025-08-07T15:01:48Z</time>
      </trkpt>
      <trkpt lat="45.83073" lon="2.93442">
        <ele>916</ele>
        <time>2025-08-07T15:01:49Z</time>
      </trkpt>
      <trkpt lat="45.83073" lon="2.9345">
        <ele>916.4</ele>
        <time>2025-08-07T15:01:50Z</time>
      </trkpt>
      <trkpt lat="45.83074" lon="2.93454">
        <ele>916.8</ele>
        <time>2025-08-07T15:01:51Z</time>
      </trkpt>
      <trkpt lat="45.83075" lon="2.93459">
        <ele>917.2</ele>
        <time>2025-08-07T15:01:52Z</time>
      </trkpt>
      <trkpt lat="45.83076" lon="2.93464">
        <ele>917.6</ele>
        <time>2025-08-07T15:01:53Z</time>
      </trkpt>
      <trkpt lat="45.83076" lon="2.93468">
        <ele>918</ele>
        <time>2025-08-07T15:01:54Z</time>
      </trkpt>
      <trkpt lat="45.83076" lon="2.93471">
        <ele>918.4</ele>
        <time>2025-08-07T15:01:55Z</time>
      </trkpt>
      <trkpt lat="45.83078" lon="2.93476">
        <ele>918.8</ele>
        <time>2025-08-07T15:01:56Z</time>
      </trkpt>
      <trkpt lat="45.83078" lon="2.93481">
        <ele>919.2</ele>
        <time>2025-08-07T15:01:57Z</time>
      </trkpt>
      <trkpt lat="45.83078" lon="2.93482">
        <ele>919.6</ele>
        <time>2025-08-07T15:01:58Z</time>
      </trkpt>
      <trkpt lat="45.83078" lon="2.93482">
        <ele>920</ele>
        <time>2025-08-07T15:01:59Z</time>
      </trkpt>
      <trkpt lat="45.83078" lon="2.93482">
        <ele>920.4</ele>
        <time>2025-08-07T15:02:00Z</time>
      </trkpt>
      <trkpt lat="45.83077" lon="2.93484">
        <ele>920.8</ele>
        <time>2025-08-07T15:02:01Z</time>
      </trkpt>
      <trkpt lat="45.83077" lon="2.93488">
        <ele>921.2</ele>
        <time>2025-08-07T15:02:02Z</time>
      </trkpt>
      <trkpt lat="45.83076" lon="2.93494">
        <ele>921.6</ele>
        <time>2025-08-07T15:02:03Z</time>
      </trkpt>
      <trkpt lat="45.83076" lon="2.93499">
        <ele>922</ele>
        <time>2025-08-07T15:02:04Z</time>
      </trkpt>
      <trkpt lat="45.83075" lon="2.93502">
        <ele>922.4</ele>
        <time>2025-08-07T15:02:05Z</time>
      </trkpt>
      <trkpt lat="45.83076" lon="2.93503">
        <ele>922.6</ele>
        <time>2025-08-07T15:02:06Z</time>
      </trkpt>
      <trkpt lat="45.83076" lon="2.93503">
        <ele>923</ele>
        <time>2025-08-07T15:02:07Z</time>
      </trkpt>
      <trkpt lat="45.83075" lon="2.93505">
        <ele>923.2</ele>
        <time>2025-08-07T15:02:08Z</time>
      </trkpt>
      <trkpt lat="45.83073" lon="2.93509">
        <ele>923.6</ele>
        <time>2025-08-07T15:02:09Z</time>
      </trkpt>
      <trkpt lat="45.83073" lon="2.93512">
        <ele>923.8</ele>
        <time>2025-08-07T15:02:10Z</time>
      </trkpt>
      <trkpt lat="45.83073" lon="2.93514">
        <ele>924</ele>
        <time>2025-08-07T15:02:11Z</time>
      </trkpt>
      <trkpt lat="45.83073" lon="2.93516">
        <ele>924.2</ele>
        <time>2025-08-07T15:02:12Z</time>
      </trkpt>
      <trkpt lat="45.83072" lon="2.93519">
        <ele>924.4</ele>
        <time>2025-08-07T15:02:13Z</time>
      </trkpt>
      <trkpt lat="45.83072" lon="2.93519">
        <ele>924.8</ele>
        <time>2025-08-07T15:02:14Z</time>
      </trkpt>
      <trkpt lat="45.83072" lon="2.93521">
        <ele>925</ele>
        <time>2025-08-07T15:02:15Z</time>
      </trkpt>
      <trkpt lat="45.83073" lon="2.93524">
        <ele>925.4</ele>
        <time>2025-08-07T15:02:16Z</time>
      </trkpt>
      <trkpt lat="45.83073" lon="2.93525">
        <ele>925.6</ele>
        <time>2025-08-07T15:02:17Z</time>
      </trkpt>
      <trkpt lat="45.83073" lon="2.93525">
        <ele>925.8</ele>
        <time>2025-08-07T15:02:18Z</time>
      </trkpt>
      <trkpt lat="45.83073" lon="2.93527">
        <ele>926.2</ele>
        <time>2025-08-07T15:02:19Z</time>
      </trkpt>
      <trkpt lat="45.83073" lon="2.9353">
        <ele>926.4</ele>
        <time>2025-08-07T15:02:20Z</time>
      </trkpt>
      <trkpt lat="45.83073" lon="2.93535">
        <ele>926.6</ele>
        <time>2025-08-07T15:02:21Z</time>
      </trkpt>
      <trkpt lat="45.83073" lon="2.93537">
        <ele>926.8</ele>
        <time>2025-08-07T15:02:22Z</time>
      </trkpt>
      <trkpt lat="45.83073" lon="2.93538">
        <ele>927</ele>
        <time>2025-08-07T15:02:23Z</time>
      </trkpt>
      <trkpt lat="45.83072" lon="2.93542">
        <ele>927.2</ele>
        <time>2025-08-07T15:02:24Z</time>
      </trkpt>
      <trkpt lat="45.83072" lon="2.93548">
        <ele>927.4</ele>
        <time>2025-08-07T15:02:25Z</time>
      </trkpt>
      <trkpt lat="45.83072" lon="2.93549">
        <ele>927.4</ele>
        <time>2025-08-07T15:02:26Z</time>
      </trkpt>
      <trkpt lat="45.83073" lon="2.93552">
        <ele>927.6</ele>
        <time>2025-08-07T15:02:27Z</time>
      </trkpt>
      <trkpt lat="45.83072" lon="2.93555">
        <ele>927.8</ele>
        <time>2025-08-07T15:02:28Z</time>
      </trkpt>
      <trkpt lat="45.83072" lon="2.93558">
        <ele>927.8</ele>
        <time>2025-08-07T15:02:29Z</time>
      </trkpt>
      <trkpt lat="45.83072" lon="2.93559">
        <ele>928</ele>
        <time>2025-08-07T15:02:30Z</time>
      </trkpt>
      <trkpt lat="45.83072" lon="2.93559">
        <ele>928.2</ele>
        <time>2025-08-07T15:02:31Z</time>
      </trkpt>
      <trkpt lat="45.83071" lon="2.9356">
        <ele>928.2</ele>
        <time>2025-08-07T15:02:32Z</time>
      </trkpt>
      <trkpt lat="45.83072" lon="2.93564">
        <ele>928.4</ele>
        <time>2025-08-07T15:02:33Z</time>
      </trkpt>
      <trkpt lat="45.83072" lon="2.93568">
        <ele>928.4</ele>
        <time>2025-08-07T15:02:34Z</time>
      </trkpt>
      <trkpt lat="45.8307" lon="2.93574">
        <ele>928.6</ele>
        <time>2025-08-07T15:02:35Z</time>
      </trkpt>
      <trkpt lat="45.83069" lon="2.93579">
        <ele>928.8</ele>
        <time>2025-08-07T15:02:36Z</time>
      </trkpt>
      <trkpt lat="45.83067" lon="2.93591">
        <ele>929</ele>
        <time>2025-08-07T15:02:37Z</time>
      </trkpt>
      <trkpt lat="45.83067" lon="2.93597">
        <ele>929</ele>
        <time>2025-08-07T15:02:38Z</time>
      </trkpt>
      <trkpt lat="45.83067" lon="2.93606">
        <ele>929.2</ele>
        <time>2025-08-07T15:02:39Z</time>
      </trkpt>
      <trkpt lat="45.83066" lon="2.93611">
        <ele>929.4</ele>
        <time>2025-08-07T15:02:40Z</time>
      </trkpt>
      <trkpt lat="45.83066" lon="2.9362">
        <ele>929.4</ele>
        <time>2025-08-07T15:02:41Z</time>
      </trkpt>
      <trkpt lat="45.83067" lon="2.93628">
        <ele>929.6</ele>
        <time>2025-08-07T15:02:42Z</time>
      </trkpt>
      <trkpt lat="45.83068" lon="2.93634">
        <ele>929.8</ele>
        <time>2025-08-07T15:02:43Z</time>
      </trkpt>
      <trkpt lat="45.8307" lon="2.93639">
        <ele>930</ele>
        <time>2025-08-07T15:02:44Z</time>
      </trkpt>
      <trkpt lat="45.83071" lon="2.93644">
        <ele>930</ele>
        <time>2025-08-07T15:02:45Z</time>
      </trkpt>
      <trkpt lat="45.83072" lon="2.93652">
        <ele>930.2</ele>
        <time>2025-08-07T15:02:46Z</time>
      </trkpt>
      <trkpt lat="45.83074" lon="2.93657">
        <ele>930.4</ele>
        <time>2025-08-07T15:02:47Z</time>
      </trkpt>
      <trkpt lat="45.83075" lon="2.93662">
        <ele>930.4</ele>
        <time>2025-08-07T15:02:48Z</time>
      </trkpt>
      <trkpt lat="45.83076" lon="2.93668">
        <ele>930.6</ele>
        <time>2025-08-07T15:02:49Z</time>
      </trkpt>
      <trkpt lat="45.83078" lon="2.93673">
        <ele>930.6</ele>
        <time>2025-08-07T15:02:50Z</time>
      </trkpt>
      <trkpt lat="45.83079" lon="2.93681">
        <ele>930.8</ele>
        <time>2025-08-07T15:02:51Z</time>
      </trkpt>
      <trkpt lat="45.8308" lon="2.93687">
        <ele>930.8</ele>
        <time>2025-08-07T15:02:52Z</time>
      </trkpt>
      <trkpt lat="45.83082" lon="2.93693">
        <ele>931</ele>
        <time>2025-08-07T15:02:53Z</time>
      </trkpt>
      <trkpt lat="45.83084" lon="2.93698">
        <ele>931</ele>
        <time>2025-08-07T15:02:54Z</time>
      </trkpt>
      <trkpt lat="45.83087" lon="2.93703">
        <ele>931.2</ele>
        <time>2025-08-07T15:02:55Z</time>
      </trkpt>
      <trkpt lat="45.83089" lon="2.93707">
        <ele>931.2</ele>
        <time>2025-08-07T15:02:56Z</time>
      </trkpt>
      <trkpt lat="45.83091" lon="2.93711">
        <ele>931.4</ele>
        <time>2025-08-07T15:02:57Z</time>
      </trkpt>
      <trkpt lat="45.83092" lon="2.93715">
        <ele>931.4</ele>
        <time>2025-08-07T15:02:58Z</time>
      </trkpt>
      <trkpt lat="45.83093" lon="2.93719">
        <ele>931.6</ele>
        <time>2025-08-07T15:02:59Z</time>
      </trkpt>
      <trkpt lat="45.83095" lon="2.93723">
        <ele>931.6</ele>
        <time>2025-08-07T15:03:00Z</time>
      </trkpt>
      <trkpt lat="45.83096" lon="2.93727">
        <ele>931.8</ele>
        <time>2025-08-07T15:03:01Z</time>
      </trkpt>
      <trkpt lat="45.83097" lon="2.9373">
        <ele>931.8</ele>
        <time>2025-08-07T15:03:02Z</time>
      </trkpt>
      <trkpt lat="45.83099" lon="2.93736">
        <ele>932</ele>
        <time>2025-08-07T15:03:03Z</time>
      </trkpt>
      <trkpt lat="45.831" lon="2.9374">
        <ele>932</ele>
        <time>2025-08-07T15:03:04Z</time>
      </trkpt>
      <trkpt lat="45.83102" lon="2.93743">
        <ele>932.2</ele>
        <time>2025-08-07T15:03:05Z</time>
      </trkpt>
      <trkpt lat="45.83103" lon="2.93747">
        <ele>932.4</ele>
        <time>2025-08-07T15:03:06Z</time>
      </trkpt>
      <trkpt lat="45.83105" lon="2.93751">
        <ele>932.4</ele>
        <time>2025-08-07T15:03:07Z</time>
      </trkpt>
      <trkpt lat="45.83106" lon="2.93754">
        <ele>932.6</ele>
        <time>2025-08-07T15:03:08Z</time>
      </trkpt>
      <trkpt lat="45.83108" lon="2.93757">
        <ele>932.8</ele>
        <time>2025-08-07T15:03:09Z</time>
      </trkpt>
      <trkpt lat="45.8311" lon="2.9376">
        <ele>932.8</ele>
        <time>2025-08-07T15:03:10Z</time>
      </trkpt>
      <trkpt lat="45.83111" lon="2.93762">
        <ele>933</ele>
        <time>2025-08-07T15:03:11Z</time>
      </trkpt>
      <trkpt lat="45.83112" lon="2.93764">
        <ele>933</ele>
        <time>2025-08-07T15:03:12Z</time>
      </trkpt>
      <trkpt lat="45.83112" lon="2.93767">
        <ele>933.2</ele>
        <time>2025-08-07T15:03:13Z</time>
      </trkpt>
      <trkpt lat="45.83114" lon="2.9377">
        <ele>933.2</ele>
        <time>2025-08-07T15:03:14Z</time>
      </trkpt>
      <trkpt lat="45.83115" lon="2.93773">
        <ele>933.4</ele>
        <time>2025-08-07T15:03:15Z</time>
      </trkpt>
      <trkpt lat="45.83115" lon="2.93777">
        <ele>933.4</ele>
        <time>2025-08-07T15:03:16Z</time>
      </trkpt>
      <trkpt lat="45.83116" lon="2.93781">
        <ele>933.6</ele>
        <time>2025-08-07T15:03:17Z</time>
      </trkpt>
      <trkpt lat="45.83117" lon="2.93785">
        <ele>933.6</ele>
        <time>2025-08-07T15:03:18Z</time>
      </trkpt>
      <trkpt lat="45.83118" lon="2.93788">
        <ele>933.6</ele>
        <time>2025-08-07T15:03:19Z</time>
      </trkpt>
      <trkpt lat="45.83119" lon="2.93792">
        <ele>933.8</ele>
        <time>2025-08-07T15:03:20Z</time>
      </trkpt>
      <trkpt lat="45.83121" lon="2.93796">
        <ele>933.8</ele>
        <time>2025-08-07T15:03:21Z</time>
      </trkpt>
      <trkpt lat="45.83122" lon="2.938">
        <ele>934</ele>
        <time>2025-08-07T15:03:22Z</time>
      </trkpt>
      <trkpt lat="45.83124" lon="2.93803">
        <ele>934</ele>
        <time>2025-08-07T15:03:23Z</time>
      </trkpt>
      <trkpt lat="45.83126" lon="2.93806">
        <ele>934.2</ele>
        <time>2025-08-07T15:03:24Z</time>
      </trkpt>
      <trkpt lat="45.83128" lon="2.93809">
        <ele>934.2</ele>
        <time>2025-08-07T15:03:25Z</time>
      </trkpt>
      <trkpt lat="45.83129" lon="2.93812">
        <ele>934.2</ele>
        <time>2025-08-07T15:03:26Z</time>
      </trkpt>
      <trkpt lat="45.83131" lon="2.93816">
        <ele>934.4</ele>
        <time>2025-08-07T15:03:27Z</time>
      </trkpt>
      <trkpt lat="45.83132" lon="2.93819">
        <ele>934.4</ele>
        <time>2025-08-07T15:03:28Z</time>
      </trkpt>
      <trkpt lat="45.83134" lon="2.93823">
        <ele>934.4</ele>
        <time>2025-08-07T15:03:29Z</time>
      </trkpt>
      <trkpt lat="45.83136" lon="2.93827">
        <ele>934.6</ele>
        <time>2025-08-07T15:03:30Z</time>
      </trkpt>
      <trkpt lat="45.83137" lon="2.93831">
        <ele>934.6</ele>
        <time>2025-08-07T15:03:31Z</time>
      </trkpt>
      <trkpt lat="45.83138" lon="2.93835">
        <ele>934.6</ele>
        <time>2025-08-07T15:03:32Z</time>
      </trkpt>
      <trkpt lat="45.83139" lon="2.93839">
        <ele>934.8</ele>
        <time>2025-08-07T15:03:33Z</time>
      </trkpt>
      <trkpt lat="45.83141" lon="2.93843">
        <ele>934.8</ele>
        <time>2025-08-07T15:03:34Z</time>
      </trkpt>
      <trkpt lat="45.83143" lon="2.93846">
        <ele>934.8</ele>
        <time>2025-08-07T15:03:35Z</time>
      </trkpt>
      <trkpt lat="45.83144" lon="2.9385">
        <ele>934.8</ele>
        <time>2025-08-07T15:03:36Z</time>
      </trkpt>
      <trkpt lat="45.83146" lon="2.93853">
        <ele>935</ele>
        <time>2025-08-07T15:03:37Z</time>
      </trkpt>
      <trkpt lat="45.83148" lon="2.93855">
        <ele>935</ele>
        <time>2025-08-07T15:03:38Z</time>
      </trkpt>
      <trkpt lat="45.83149" lon="2.93857">
        <ele>935</ele>
        <time>2025-08-07T15:03:39Z</time>
      </trkpt>
      <trkpt lat="45.83151" lon="2.9386">
        <ele>935.2</ele>
        <time>2025-08-07T15:03:40Z</time>
      </trkpt>
      <trkpt lat="45.83152" lon="2.93862">
        <ele>935.2</ele>
        <time>2025-08-07T15:03:41Z</time>
      </trkpt>
      <trkpt lat="45.83154" lon="2.93864">
        <ele>935.4</ele>
        <time>2025-08-07T15:03:42Z</time>
      </trkpt>
      <trkpt lat="45.83155" lon="2.93867">
        <ele>935.4</ele>
        <time>2025-08-07T15:03:43Z</time>
      </trkpt>
      <trkpt lat="45.83157" lon="2.9387">
        <ele>935.6</ele>
        <time>2025-08-07T15:03:44Z</time>
      </trkpt>
      <trkpt lat="45.83157" lon="2.93873">
        <ele>935.6</ele>
        <time>2025-08-07T15:03:45Z</time>
      </trkpt>
      <trkpt lat="45.83158" lon="2.93877">
        <ele>935.8</ele>
        <time>2025-08-07T15:03:46Z</time>
      </trkpt>
      <trkpt lat="45.8316" lon="2.93881">
        <ele>935.8</ele>
        <time>2025-08-07T15:03:47Z</time>
      </trkpt>
      <trkpt lat="45.83161" lon="2.93886">
        <ele>935.8</ele>
        <time>2025-08-07T15:03:48Z</time>
      </trkpt>
      <trkpt lat="45.83162" lon="2.93889">
        <ele>936</ele>
        <time>2025-08-07T15:03:49Z</time>
      </trkpt>
      <trkpt lat="45.83163" lon="2.93892">
        <ele>936.2</ele>
        <time>2025-08-07T15:03:50Z</time>
      </trkpt>
      <trkpt lat="45.83165" lon="2.93895">
        <ele>936.2</ele>
        <time>2025-08-07T15:03:51Z</time>
      </trkpt>
      <trkpt lat="45.83165" lon="2.93898">
        <ele>936.4</ele>
        <time>2025-08-07T15:03:52Z</time>
      </trkpt>
      <trkpt lat="45.83165" lon="2.939">
        <ele>936.4</ele>
        <time>2025-08-07T15:03:53Z</time>
      </trkpt>
      <trkpt lat="45.83165" lon="2.93902">
        <ele>936.6</ele>
        <time>2025-08-07T15:03:54Z</time>
      </trkpt>
      <trkpt lat="45.83164" lon="2.93903">
        <ele>936.6</ele>
        <time>2025-08-07T15:03:55Z</time>
      </trkpt>
      <trkpt lat="45.83164" lon="2.93904">
        <ele>936.8</ele>
        <time>2025-08-07T15:03:56Z</time>
      </trkpt>
      <trkpt lat="45.83162" lon="2.93904">
        <ele>936.8</ele>
        <time>2025-08-07T15:03:57Z</time>
      </trkpt>
      <trkpt lat="45.83159" lon="2.93904">
        <ele>937</ele>
        <time>2025-08-07T15:03:58Z</time>
      </trkpt>
      <trkpt lat="45.83155" lon="2.93903">
        <ele>937</ele>
        <time>2025-08-07T15:03:59Z</time>
      </trkpt>
      <trkpt lat="45.83151" lon="2.93903">
        <ele>937.2</ele>
        <time>2025-08-07T15:04:00Z</time>
      </trkpt>
      <trkpt lat="45.83147" lon="2.93903">
        <ele>937.2</ele>
        <time>2025-08-07T15:04:01Z</time>
      </trkpt>
      <trkpt lat="45.83143" lon="2.93903">
        <ele>937.4</ele>
        <time>2025-08-07T15:04:02Z</time>
      </trkpt>
      <trkpt lat="45.8314" lon="2.93903">
        <ele>937.6</ele>
        <time>2025-08-07T15:04:03Z</time>
      </trkpt>
      <trkpt lat="45.83136" lon="2.93903">
        <ele>937.6</ele>
        <time>2025-08-07T15:04:04Z</time>
      </trkpt>
      <trkpt lat="45.83133" lon="2.93903">
        <ele>937.6</ele>
        <time>2025-08-07T15:04:05Z</time>
      </trkpt>
      <trkpt lat="45.83131" lon="2.93903">
        <ele>937.8</ele>
        <time>2025-08-07T15:04:06Z</time>
      </trkpt>
      <trkpt lat="45.8313" lon="2.93903">
        <ele>937.8</ele>
        <time>2025-08-07T15:04:07Z</time>
      </trkpt>
      <trkpt lat="45.83128" lon="2.93904">
        <ele>938</ele>
        <time>2025-08-07T15:04:08Z</time>
      </trkpt>
      <trkpt lat="45.83128" lon="2.93904">
        <ele>938</ele>
        <time>2025-08-07T15:04:09Z</time>
      </trkpt>
      <trkpt lat="45.83128" lon="2.93904">
        <ele>938</ele>
        <time>2025-08-07T15:04:10Z</time>
      </trkpt>
      <trkpt lat="45.83128" lon="2.93904">
        <ele>938</ele>
        <time>2025-08-07T15:04:11Z</time>
      </trkpt>
      <trkpt lat="45.83129" lon="2.93904">
        <ele>938</ele>
        <time>2025-08-07T15:04:12Z</time>
      </trkpt>
      <trkpt lat="45.83131" lon="2.93904">
        <ele>938</ele>
        <time>2025-08-07T15:04:13Z</time>
      </trkpt>
      <trkpt lat="45.83132" lon="2.93904">
        <ele>938</ele>
        <time>2025-08-07T15:04:14Z</time>
      </trkpt>
      <trkpt lat="45.83135" lon="2.93903">
        <ele>937.8</ele>
        <time>2025-08-07T15:04:15Z</time>
      </trkpt>
      <trkpt lat="45.83138" lon="2.93902">
        <ele>937.8</ele>
        <time>2025-08-07T15:04:16Z</time>
      </trkpt>
      <trkpt lat="45.83142" lon="2.93902">
        <ele>937.6</ele>
        <time>2025-08-07T15:04:17Z</time>
      </trkpt>
      <trkpt lat="45.83146" lon="2.93901">
        <ele>937.6</ele>
        <time>2025-08-07T15:04:18Z</time>
      </trkpt>
      <trkpt lat="45.83149" lon="2.939">
        <ele>937.4</ele>
        <time>2025-08-07T15:04:19Z</time>
      </trkpt>
      <trkpt lat="45.83153" lon="2.939">
        <ele>937.2</ele>
        <time>2025-08-07T15:04:20Z</time>
      </trkpt>
      <trkpt lat="45.83157" lon="2.93901">
        <ele>937.2</ele>
        <time>2025-08-07T15:04:21Z</time>
      </trkpt>
      <trkpt lat="45.8316" lon="2.93901">
        <ele>937</ele>
        <time>2025-08-07T15:04:22Z</time>
      </trkpt>
      <trkpt lat="45.83163" lon="2.93904">
        <ele>937</ele>
        <time>2025-08-07T15:04:23Z</time>
      </trkpt>
      <trkpt lat="45.83166" lon="2.93906">
        <ele>937</ele>
        <time>2025-08-07T15:04:24Z</time>
      </trkpt>
      <trkpt lat="45.83169" lon="2.93909">
        <ele>937.2</ele>
        <time>2025-08-07T15:04:25Z</time>
      </trkpt>
      <trkpt lat="45.83171" lon="2.93912">
        <ele>937.2</ele>
        <time>2025-08-07T15:04:26Z</time>
      </trkpt>
      <trkpt lat="45.83173" lon="2.93916">
        <ele>937.2</ele>
        <time>2025-08-07T15:04:27Z</time>
      </trkpt>
      <trkpt lat="45.83175" lon="2.9392">
        <ele>937.4</ele>
        <time>2025-08-07T15:04:28Z</time>
      </trkpt>
      <trkpt lat="45.83177" lon="2.93924">
        <ele>937.6</ele>
        <time>2025-08-07T15:04:29Z</time>
      </trkpt>
      <trkpt lat="45.83179" lon="2.93927">
        <ele>937.8</ele>
        <time>2025-08-07T15:04:30Z</time>
      </trkpt>
      <trkpt lat="45.83181" lon="2.9393">
        <ele>938</ele>
        <time>2025-08-07T15:04:31Z</time>
      </trkpt>
      <trkpt lat="45.83183" lon="2.93933">
        <ele>938.2</ele>
        <time>2025-08-07T15:04:32Z</time>
      </trkpt>
      <trkpt lat="45.83185" lon="2.93936">
        <ele>938.4</ele>
        <time>2025-08-07T15:04:33Z</time>
      </trkpt>
      <trkpt lat="45.83188" lon="2.93938">
        <ele>938.6</ele>
        <time>2025-08-07T15:04:34Z</time>
      </trkpt>
      <trkpt lat="45.8319" lon="2.9394">
        <ele>938.8</ele>
        <time>2025-08-07T15:04:35Z</time>
      </trkpt>
      <trkpt lat="45.83193" lon="2.93942">
        <ele>938.8</ele>
        <time>2025-08-07T15:04:36Z</time>
      </trkpt>
      <trkpt lat="45.83195" lon="2.93946">
        <ele>939</ele>
        <time>2025-08-07T15:04:37Z</time>
      </trkpt>
      <trkpt lat="45.83197" lon="2.93951">
        <ele>939.2</ele>
        <time>2025-08-07T15:04:38Z</time>
      </trkpt>
      <trkpt lat="45.832" lon="2.93957">
        <ele>939.2</ele>
        <time>2025-08-07T15:04:39Z</time>
      </trkpt>
      <trkpt lat="45.83203" lon="2.93963">
        <ele>939.4</ele>
        <time>2025-08-07T15:04:40Z</time>
      </trkpt>
      <trkpt lat="45.83205" lon="2.93967">
        <ele>939.6</ele>
        <time>2025-08-07T15:04:41Z</time>
      </trkpt>
      <trkpt lat="45.83208" lon="2.93971">
        <ele>939.6</ele>
        <time>2025-08-07T15:04:42Z</time>
      </trkpt>
      <trkpt lat="45.83211" lon="2.93975">
        <ele>939.8</ele>
        <time>2025-08-07T15:04:43Z</time>
      </trkpt>
      <trkpt lat="45.83214" lon="2.93979">
        <ele>940</ele>
        <time>2025-08-07T15:04:44Z</time>
      </trkpt>
      <trkpt lat="45.83218" lon="2.93984">
        <ele>940</ele>
        <time>2025-08-07T15:04:45Z</time>
      </trkpt>
      <trkpt lat="45.83221" lon="2.93988">
        <ele>940.2</ele>
        <time>2025-08-07T15:04:46Z</time>
      </trkpt>
      <trkpt lat="45.83223" lon="2.93993">
        <ele>940.4</ele>
        <time>2025-08-07T15:04:47Z</time>
      </trkpt>
      <trkpt lat="45.83225" lon="2.93998">
        <ele>940.4</ele>
        <time>2025-08-07T15:04:48Z</time>
      </trkpt>
      <trkpt lat="45.83227" lon="2.94003">
        <ele>940.6</ele>
        <time>2025-08-07T15:04:49Z</time>
      </trkpt>
      <trkpt lat="45.83229" lon="2.94008">
        <ele>940.8</ele>
        <time>2025-08-07T15:04:50Z</time>
      </trkpt>
      <trkpt lat="45.83231" lon="2.94013">
        <ele>940.8</ele>
        <time>2025-08-07T15:04:51Z</time>
      </trkpt>
      <trkpt lat="45.83232" lon="2.94019">
        <ele>941</ele>
        <time>2025-08-07T15:04:52Z</time>
      </trkpt>
      <trkpt lat="45.83233" lon="2.94024">
        <ele>941.2</ele>
        <time>2025-08-07T15:04:53Z</time>
      </trkpt>
      <trkpt lat="45.83231" lon="2.9403">
        <ele>941.4</ele>
        <time>2025-08-07T15:04:54Z</time>
      </trkpt>
      <trkpt lat="45.83229" lon="2.94035">
        <ele>941.6</ele>
        <time>2025-08-07T15:04:55Z</time>
      </trkpt>
      <trkpt lat="45.83226" lon="2.94039">
        <ele>941.8</ele>
        <time>2025-08-07T15:04:56Z</time>
      </trkpt>
      <trkpt lat="45.83224" lon="2.94042">
        <ele>941.8</ele>
        <time>2025-08-07T15:04:57Z</time>
      </trkpt>
      <trkpt lat="45.8322" lon="2.94046">
        <ele>942</ele>
        <time>2025-08-07T15:04:58Z</time>
      </trkpt>
      <trkpt lat="45.83217" lon="2.94049">
        <ele>942.2</ele>
        <time>2025-08-07T15:04:59Z</time>
      </trkpt>
      <trkpt lat="45.83215" lon="2.94052">
        <ele>942.2</ele>
        <time>2025-08-07T15:05:00Z</time>
      </trkpt>
      <trkpt lat="45.83212" lon="2.94056">
        <ele>942.4</ele>
        <time>2025-08-07T15:05:01Z</time>
      </trkpt>
      <trkpt lat="45.83209" lon="2.9406">
        <ele>942.6</ele>
        <time>2025-08-07T15:05:02Z</time>
      </trkpt>
      <trkpt lat="45.83206" lon="2.94063">
        <ele>942.6</ele>
        <time>2025-08-07T15:05:03Z</time>
      </trkpt>
      <trkpt lat="45.83204" lon="2.94066">
        <ele>942.8</ele>
        <time>2025-08-07T15:05:04Z</time>
      </trkpt>
      <trkpt lat="45.83201" lon="2.9407">
        <ele>942.8</ele>
        <time>2025-08-07T15:05:05Z</time>
      </trkpt>
      <trkpt lat="45.83198" lon="2.94073">
        <ele>943</ele>
        <time>2025-08-07T15:05:06Z</time>
      </trkpt>
      <trkpt lat="45.83196" lon="2.94076">
        <ele>943</ele>
        <time>2025-08-07T15:05:07Z</time>
      </trkpt>
      <trkpt lat="45.83193" lon="2.94079">
        <ele>943.2</ele>
        <time>2025-08-07T15:05:08Z</time>
      </trkpt>
      <trkpt lat="45.8319" lon="2.94082">
        <ele>943.4</ele>
        <time>2025-08-07T15:05:09Z</time>
      </trkpt>
      <trkpt lat="45.83187" lon="2.94085">
        <ele>943.4</ele>
        <time>2025-08-07T15:05:10Z</time>
      </trkpt>
      <trkpt lat="45.83185" lon="2.94088">
        <ele>943.6</ele>
        <time>2025-08-07T15:05:11Z</time>
      </trkpt>
      <trkpt lat="45.83182" lon="2.94091">
        <ele>943.8</ele>
        <time>2025-08-07T15:05:12Z</time>
      </trkpt>
      <trkpt lat="45.8318" lon="2.94094">
        <ele>943.8</ele>
        <time>2025-08-07T15:05:13Z</time>
      </trkpt>
      <trkpt lat="45.83177" lon="2.94097">
        <ele>944</ele>
        <time>2025-08-07T15:05:14Z</time>
      </trkpt>
      <trkpt lat="45.83174" lon="2.941">
        <ele>944</ele>
        <time>2025-08-07T15:05:15Z</time>
      </trkpt>
      <trkpt lat="45.83172" lon="2.94104">
        <ele>944.2</ele>
        <time>2025-08-07T15:05:16Z</time>
      </trkpt>
      <trkpt lat="45.83169" lon="2.94107">
        <ele>944.4</ele>
        <time>2025-08-07T15:05:17Z</time>
      </trkpt>
      <trkpt lat="45.83167" lon="2.94111">
        <ele>944.4</ele>
        <time>2025-08-07T15:05:18Z</time>
      </trkpt>
      <trkpt lat="45.83164" lon="2.94114">
        <ele>944.6</ele>
        <time>2025-08-07T15:05:19Z</time>
      </trkpt>
      <trkpt lat="45.83161" lon="2.94117">
        <ele>944.6</ele>
        <time>2025-08-07T15:05:20Z</time>
      </trkpt>
      <trkpt lat="45.83159" lon="2.94121">
        <ele>944.8</ele>
        <time>2025-08-07T15:05:21Z</time>
      </trkpt>
      <trkpt lat="45.83156" lon="2.94124">
        <ele>944.8</ele>
        <time>2025-08-07T15:05:22Z</time>
      </trkpt>
      <trkpt lat="45.83154" lon="2.94127">
        <ele>945</ele>
        <time>2025-08-07T15:05:23Z</time>
      </trkpt>
      <trkpt lat="45.83151" lon="2.9413">
        <ele>945</ele>
        <time>2025-08-07T15:05:24Z</time>
      </trkpt>
      <trkpt lat="45.83149" lon="2.94133">
        <ele>945.2</ele>
        <time>2025-08-07T15:05:25Z</time>
      </trkpt>
      <trkpt lat="45.83146" lon="2.94137">
        <ele>945.4</ele>
        <time>2025-08-07T15:05:26Z</time>
      </trkpt>
      <trkpt lat="45.83144" lon="2.9414">
        <ele>945.4</ele>
        <time>2025-08-07T15:05:27Z</time>
      </trkpt>
      <trkpt lat="45.83141" lon="2.94143">
        <ele>945.4</ele>
        <time>2025-08-07T15:05:28Z</time>
      </trkpt>
      <trkpt lat="45.83139" lon="2.94147">
        <ele>945.6</ele>
        <time>2025-08-07T15:05:29Z</time>
      </trkpt>
      <trkpt lat="45.83136" lon="2.9415">
        <ele>945.6</ele>
        <time>2025-08-07T15:05:30Z</time>
      </trkpt>
      <trkpt lat="45.83133" lon="2.94154">
        <ele>945.8</ele>
        <time>2025-08-07T15:05:31Z</time>
      </trkpt>
      <trkpt lat="45.83132" lon="2.94156">
        <ele>945.8</ele>
        <time>2025-08-07T15:05:32Z</time>
      </trkpt>
      <trkpt lat="45.83129" lon="2.9416">
        <ele>946</ele>
        <time>2025-08-07T15:05:33Z</time>
      </trkpt>
      <trkpt lat="45.83127" lon="2.94164">
        <ele>946</ele>
        <time>2025-08-07T15:05:34Z</time>
      </trkpt>
      <trkpt lat="45.83125" lon="2.94166">
        <ele>946.2</ele>
        <time>2025-08-07T15:05:35Z</time>
      </trkpt>
      <trkpt lat="45.83122" lon="2.9417">
        <ele>946.4</ele>
        <time>2025-08-07T15:05:36Z</time>
      </trkpt>
      <trkpt lat="45.8312" lon="2.94173">
        <ele>946.4</ele>
        <time>2025-08-07T15:05:37Z</time>
      </trkpt>
      <trkpt lat="45.83118" lon="2.94176">
        <ele>946.6</ele>
        <time>2025-08-07T15:05:38Z</time>
      </trkpt>
      <trkpt lat="45.83115" lon="2.9418">
        <ele>946.8</ele>
        <time>2025-08-07T15:05:39Z</time>
      </trkpt>
      <trkpt lat="45.83113" lon="2.94183">
        <ele>946.8</ele>
        <time>2025-08-07T15:05:40Z</time>
      </trkpt>
      <trkpt lat="45.83111" lon="2.94186">
        <ele>947</ele>
        <time>2025-08-07T15:05:41Z</time>
      </trkpt>
      <trkpt lat="45.83109" lon="2.9419">
        <ele>947</ele>
        <time>2025-08-07T15:05:42Z</time>
      </trkpt>
      <trkpt lat="45.83106" lon="2.94193">
        <ele>947.2</ele>
        <time>2025-08-07T15:05:43Z</time>
      </trkpt>
      <trkpt lat="45.83103" lon="2.94197">
        <ele>947.2</ele>
        <time>2025-08-07T15:05:44Z</time>
      </trkpt>
      <trkpt lat="45.83101" lon="2.942">
        <ele>947.4</ele>
        <time>2025-08-07T15:05:45Z</time>
      </trkpt>
      <trkpt lat="45.83098" lon="2.94203">
        <ele>947.6</ele>
        <time>2025-08-07T15:05:46Z</time>
      </trkpt>
      <trkpt lat="45.83096" lon="2.94206">
        <ele>947.6</ele>
        <time>2025-08-07T15:05:47Z</time>
      </trkpt>
      <trkpt lat="45.83093" lon="2.9421">
        <ele>947.6</ele>
        <time>2025-08-07T15:05:48Z</time>
      </trkpt>
      <trkpt lat="45.83091" lon="2.94213">
        <ele>947.8</ele>
        <time>2025-08-07T15:05:49Z</time>
      </trkpt>
      <trkpt lat="45.83088" lon="2.94216">
        <ele>947.8</ele>
        <time>2025-08-07T15:05:50Z</time>
      </trkpt>
      <trkpt lat="45.83086" lon="2.94219">
        <ele>948</ele>
        <time>2025-08-07T15:05:51Z</time>
      </trkpt>
      <trkpt lat="45.83083" lon="2.94223">
        <ele>948</ele>
        <time>2025-08-07T15:05:52Z</time>
      </trkpt>
      <trkpt lat="45.83081" lon="2.94226">
        <ele>948.2</ele>
        <time>2025-08-07T15:05:53Z</time>
      </trkpt>
      <trkpt lat="45.83078" lon="2.94229">
        <ele>948.2</ele>
        <time>2025-08-07T15:05:54Z</time>
      </trkpt>
      <trkpt lat="45.83075" lon="2.94232">
        <ele>948.4</ele>
        <time>2025-08-07T15:05:55Z</time>
      </trkpt>
      <trkpt lat="45.83073" lon="2.94235">
        <ele>948.4</ele>
        <time>2025-08-07T15:05:56Z</time>
      </trkpt>
      <trkpt lat="45.8307" lon="2.94238">
        <ele>948.6</ele>
        <time>2025-08-07T15:05:57Z</time>
      </trkpt>
      <trkpt lat="45.83068" lon="2.94241">
        <ele>948.8</ele>
        <time>2025-08-07T15:05:58Z</time>
      </trkpt>
      <trkpt lat="45.83065" lon="2.94245">
        <ele>948.8</ele>
        <time>2025-08-07T15:05:59Z</time>
      </trkpt>
      <trkpt lat="45.83062" lon="2.94248">
        <ele>949</ele>
        <time>2025-08-07T15:06:00Z</time>
      </trkpt>
      <trkpt lat="45.83059" lon="2.94251">
        <ele>949</ele>
        <time>2025-08-07T15:06:01Z</time>
      </trkpt>
      <trkpt lat="45.83057" lon="2.94254">
        <ele>949.2</ele>
        <time>2025-08-07T15:06:02Z</time>
      </trkpt>
      <trkpt lat="45.83054" lon="2.94257">
        <ele>949.4</ele>
        <time>2025-08-07T15:06:03Z</time>
      </trkpt>
      <trkpt lat="45.83052" lon="2.9426">
        <ele>949.4</ele>
        <time>2025-08-07T15:06:04Z</time>
      </trkpt>
      <trkpt lat="45.83049" lon="2.94263">
        <ele>949.6</ele>
        <time>2025-08-07T15:06:05Z</time>
      </trkpt>
      <trkpt lat="45.83046" lon="2.94266">
        <ele>949.6</ele>
        <time>2025-08-07T15:06:06Z</time>
      </trkpt>
      <trkpt lat="45.83043" lon="2.94269">
        <ele>949.8</ele>
        <time>2025-08-07T15:06:07Z</time>
      </trkpt>
      <trkpt lat="45.83041" lon="2.94271">
        <ele>950</ele>
        <time>2025-08-07T15:06:08Z</time>
      </trkpt>
      <trkpt lat="45.83038" lon="2.94274">
        <ele>950</ele>
        <time>2025-08-07T15:06:09Z</time>
      </trkpt>
      <trkpt lat="45.83035" lon="2.94276">
        <ele>950.2</ele>
        <time>2025-08-07T15:06:10Z</time>
      </trkpt>
      <trkpt lat="45.83032" lon="2.94279">
        <ele>950.4</ele>
        <time>2025-08-07T15:06:11Z</time>
      </trkpt>
      <trkpt lat="45.83029" lon="2.94281">
        <ele>950.4</ele>
        <time>2025-08-07T15:06:12Z</time>
      </trkpt>
      <trkpt lat="45.83025" lon="2.94284">
        <ele>950.6</ele>
        <time>2025-08-07T15:06:13Z</time>
      </trkpt>
      <trkpt lat="45.83023" lon="2.94286">
        <ele>950.6</ele>
        <time>2025-08-07T15:06:14Z</time>
      </trkpt>
      <trkpt lat="45.83021" lon="2.94288">
        <ele>950.8</ele>
        <time>2025-08-07T15:06:15Z</time>
      </trkpt>
      <trkpt lat="45.83019" lon="2.94289">
        <ele>951</ele>
        <time>2025-08-07T15:06:16Z</time>
      </trkpt>
      <trkpt lat="45.83017" lon="2.94289">
        <ele>951</ele>
        <time>2025-08-07T15:06:17Z</time>
      </trkpt>
      <trkpt lat="45.83015" lon="2.9429">
        <ele>951.2</ele>
        <time>2025-08-07T15:06:18Z</time>
      </trkpt>
      <trkpt lat="45.83013" lon="2.94292">
        <ele>951.4</ele>
        <time>2025-08-07T15:06:19Z</time>
      </trkpt>
      <trkpt lat="45.8301" lon="2.94293">
        <ele>951.4</ele>
        <time>2025-08-07T15:06:20Z</time>
      </trkpt>
      <trkpt lat="45.83008" lon="2.94295">
        <ele>951.6</ele>
        <time>2025-08-07T15:06:21Z</time>
      </trkpt>
      <trkpt lat="45.83005" lon="2.94297">
        <ele>951.8</ele>
        <time>2025-08-07T15:06:22Z</time>
      </trkpt>
      <trkpt lat="45.83001" lon="2.94299">
        <ele>951.8</ele>
        <time>2025-08-07T15:06:23Z</time>
      </trkpt>
      <trkpt lat="45.82998" lon="2.94301">
        <ele>952</ele>
        <time>2025-08-07T15:06:24Z</time>
      </trkpt>
      <trkpt lat="45.82996" lon="2.94302">
        <ele>952.2</ele>
        <time>2025-08-07T15:06:25Z</time>
      </trkpt>
      <trkpt lat="45.82994" lon="2.94303">
        <ele>952.4</ele>
        <time>2025-08-07T15:06:26Z</time>
      </trkpt>
      <trkpt lat="45.82992" lon="2.94305">
        <ele>952.4</ele>
        <time>2025-08-07T15:06:27Z</time>
      </trkpt>
      <trkpt lat="45.82988" lon="2.94307">
        <ele>952.6</ele>
        <time>2025-08-07T15:06:28Z</time>
      </trkpt>
      <trkpt lat="45.82984" lon="2.9431">
        <ele>952.6</ele>
        <time>2025-08-07T15:06:29Z</time>
      </trkpt>
      <trkpt lat="45.8298" lon="2.94312">
        <ele>952.8</ele>
        <time>2025-08-07T15:06:30Z</time>
      </trkpt>
      <trkpt lat="45.82976" lon="2.94314">
        <ele>952.8</ele>
        <time>2025-08-07T15:06:31Z</time>
      </trkpt>
      <trkpt lat="45.82973" lon="2.94317">
        <ele>953</ele>
        <time>2025-08-07T15:06:32Z</time>
      </trkpt>
      <trkpt lat="45.8297" lon="2.94319">
        <ele>953</ele>
        <time>2025-08-07T15:06:33Z</time>
      </trkpt>
      <trkpt lat="45.82966" lon="2.94322">
        <ele>953.2</ele>
        <time>2025-08-07T15:06:34Z</time>
      </trkpt>
      <trkpt lat="45.82963" lon="2.94325">
        <ele>953.2</ele>
        <time>2025-08-07T15:06:35Z</time>
      </trkpt>
      <trkpt lat="45.82961" lon="2.94327">
        <ele>953.4</ele>
        <time>2025-08-07T15:06:36Z</time>
      </trkpt>
      <trkpt lat="45.82959" lon="2.94328">
        <ele>953.4</ele>
        <time>2025-08-07T15:06:37Z</time>
      </trkpt>
      <trkpt lat="45.82956" lon="2.9433">
        <ele>953.6</ele>
        <time>2025-08-07T15:06:38Z</time>
      </trkpt>
      <trkpt lat="45.82953" lon="2.94332">
        <ele>953.8</ele>
        <time>2025-08-07T15:06:39Z</time>
      </trkpt>
      <trkpt lat="45.8295" lon="2.94334">
        <ele>954</ele>
        <time>2025-08-07T15:06:40Z</time>
      </trkpt>
      <trkpt lat="45.82946" lon="2.94337">
        <ele>954</ele>
        <time>2025-08-07T15:06:41Z</time>
      </trkpt>
      <trkpt lat="45.82942" lon="2.9434">
        <ele>954.2</ele>
        <time>2025-08-07T15:06:42Z</time>
      </trkpt>
      <trkpt lat="45.82939" lon="2.94343">
        <ele>954.4</ele>
        <time>2025-08-07T15:06:43Z</time>
      </trkpt>
      <trkpt lat="45.82936" lon="2.94345">
        <ele>954.4</ele>
        <time>2025-08-07T15:06:44Z</time>
      </trkpt>
      <trkpt lat="45.82934" lon="2.94347">
        <ele>954.6</ele>
        <time>2025-08-07T15:06:45Z</time>
      </trkpt>
      <trkpt lat="45.82931" lon="2.94349">
        <ele>954.8</ele>
        <time>2025-08-07T15:06:46Z</time>
      </trkpt>
      <trkpt lat="45.82928" lon="2.94351">
        <ele>955</ele>
        <time>2025-08-07T15:06:47Z</time>
      </trkpt>
      <trkpt lat="45.82925" lon="2.94351">
        <ele>955.2</ele>
        <time>2025-08-07T15:06:48Z</time>
      </trkpt>
      <trkpt lat="45.82923" lon="2.94352">
        <ele>955.4</ele>
        <time>2025-08-07T15:06:49Z</time>
      </trkpt>
      <trkpt lat="45.82921" lon="2.94354">
        <ele>955.6</ele>
        <time>2025-08-07T15:06:50Z</time>
      </trkpt>
      <trkpt lat="45.82918" lon="2.94355">
        <ele>955.8</ele>
        <time>2025-08-07T15:06:51Z</time>
      </trkpt>
      <trkpt lat="45.82916" lon="2.94357">
        <ele>956</ele>
        <time>2025-08-07T15:06:52Z</time>
      </trkpt>
      <trkpt lat="45.82914" lon="2.94358">
        <ele>956.2</ele>
        <time>2025-08-07T15:06:53Z</time>
      </trkpt>
      <trkpt lat="45.82911" lon="2.9436">
        <ele>956.4</ele>
        <time>2025-08-07T15:06:54Z</time>
      </trkpt>
      <trkpt lat="45.82909" lon="2.94361">
        <ele>956.6</ele>
        <time>2025-08-07T15:06:55Z</time>
      </trkpt>
      <trkpt lat="45.82906" lon="2.94362">
        <ele>956.8</ele>
        <time>2025-08-07T15:06:56Z</time>
      </trkpt>
      <trkpt lat="45.82903" lon="2.94364">
        <ele>957</ele>
        <time>2025-08-07T15:06:57Z</time>
      </trkpt>
      <trkpt lat="45.82901" lon="2.94365">
        <ele>957.2</ele>
        <time>2025-08-07T15:06:58Z</time>
      </trkpt>
      <trkpt lat="45.82898" lon="2.94366">
        <ele>957.2</ele>
        <time>2025-08-07T15:06:59Z</time>
      </trkpt>
      <trkpt lat="45.82896" lon="2.94367">
        <ele>957.4</ele>
        <time>2025-08-07T15:07:00Z</time>
      </trkpt>
      <trkpt lat="45.82893" lon="2.94368">
        <ele>957.6</ele>
        <time>2025-08-07T15:07:01Z</time>
      </trkpt>
      <trkpt lat="45.8289" lon="2.94369">
        <ele>957.8</ele>
        <time>2025-08-07T15:07:02Z</time>
      </trkpt>
      <trkpt lat="45.82887" lon="2.9437">
        <ele>957.8</ele>
        <time>2025-08-07T15:07:03Z</time>
      </trkpt>
      <trkpt lat="45.82885" lon="2.94372">
        <ele>958</ele>
        <time>2025-08-07T15:07:04Z</time>
      </trkpt>
      <trkpt lat="45.82882" lon="2.94373">
        <ele>958.2</ele>
        <time>2025-08-07T15:07:05Z</time>
      </trkpt>
      <trkpt lat="45.8288" lon="2.94373">
        <ele>958.4</ele>
        <time>2025-08-07T15:07:06Z</time>
      </trkpt>
      <trkpt lat="45.82878" lon="2.94375">
        <ele>958.6</ele>
        <time>2025-08-07T15:07:07Z</time>
      </trkpt>
      <trkpt lat="45.82875" lon="2.94376">
        <ele>958.6</ele>
        <time>2025-08-07T15:07:08Z</time>
      </trkpt>
      <trkpt lat="45.82871" lon="2.94377">
        <ele>958.8</ele>
        <time>2025-08-07T15:07:09Z</time>
      </trkpt>
      <trkpt lat="45.82868" lon="2.94379">
        <ele>959</ele>
        <time>2025-08-07T15:07:10Z</time>
      </trkpt>
      <trkpt lat="45.82865" lon="2.94379">
        <ele>959.2</ele>
        <time>2025-08-07T15:07:11Z</time>
      </trkpt>
      <trkpt lat="45.82862" lon="2.9438">
        <ele>959.4</ele>
        <time>2025-08-07T15:07:12Z</time>
      </trkpt>
      <trkpt lat="45.82859" lon="2.94381">
        <ele>959.6</ele>
        <time>2025-08-07T15:07:13Z</time>
      </trkpt>
      <trkpt lat="45.82856" lon="2.94382">
        <ele>959.8</ele>
        <time>2025-08-07T15:07:14Z</time>
      </trkpt>
      <trkpt lat="45.82853" lon="2.94383">
        <ele>960</ele>
        <time>2025-08-07T15:07:15Z</time>
      </trkpt>
      <trkpt lat="45.82851" lon="2.94383">
        <ele>960</ele>
        <time>2025-08-07T15:07:16Z</time>
      </trkpt>
      <trkpt lat="45.82847" lon="2.94384">
        <ele>960.2</ele>
        <time>2025-08-07T15:07:17Z</time>
      </trkpt>
      <trkpt lat="45.82845" lon="2.94384">
        <ele>960.4</ele>
        <time>2025-08-07T15:07:18Z</time>
      </trkpt>
      <trkpt lat="45.82842" lon="2.94384">
        <ele>960.6</ele>
        <time>2025-08-07T15:07:19Z</time>
      </trkpt>
      <trkpt lat="45.82839" lon="2.94383">
        <ele>960.6</ele>
        <time>2025-08-07T15:07:20Z</time>
      </trkpt>
      <trkpt lat="45.82836" lon="2.94383">
        <ele>960.8</ele>
        <time>2025-08-07T15:07:21Z</time>
      </trkpt>
      <trkpt lat="45.82833" lon="2.94383">
        <ele>961</ele>
        <time>2025-08-07T15:07:22Z</time>
      </trkpt>
      <trkpt lat="45.8283" lon="2.94382">
        <ele>961.2</ele>
        <time>2025-08-07T15:07:23Z</time>
      </trkpt>
      <trkpt lat="45.82827" lon="2.94383">
        <ele>961.4</ele>
        <time>2025-08-07T15:07:24Z</time>
      </trkpt>
      <trkpt lat="45.82824" lon="2.94383">
        <ele>961.4</ele>
        <time>2025-08-07T15:07:25Z</time>
      </trkpt>
      <trkpt lat="45.82823" lon="2.94384">
        <ele>961.6</ele>
        <time>2025-08-07T15:07:26Z</time>
      </trkpt>
      <trkpt lat="45.8282" lon="2.94384">
        <ele>961.8</ele>
        <time>2025-08-07T15:07:27Z</time>
      </trkpt>
      <trkpt lat="45.82817" lon="2.94385">
        <ele>962</ele>
        <time>2025-08-07T15:07:28Z</time>
      </trkpt>
      <trkpt lat="45.82814" lon="2.94386">
        <ele>962.2</ele>
        <time>2025-08-07T15:07:29Z</time>
      </trkpt>
      <trkpt lat="45.82811" lon="2.94388">
        <ele>962.2</ele>
        <time>2025-08-07T15:07:30Z</time>
      </trkpt>
      <trkpt lat="45.82809" lon="2.9439">
        <ele>962.4</ele>
        <time>2025-08-07T15:07:31Z</time>
      </trkpt>
      <trkpt lat="45.82806" lon="2.94392">
        <ele>962.6</ele>
        <time>2025-08-07T15:07:32Z</time>
      </trkpt>
      <trkpt lat="45.82803" lon="2.94394">
        <ele>962.6</ele>
        <time>2025-08-07T15:07:33Z</time>
      </trkpt>
      <trkpt lat="45.82801" lon="2.94396">
        <ele>962.8</ele>
        <time>2025-08-07T15:07:34Z</time>
      </trkpt>
      <trkpt lat="45.82798" lon="2.94398">
        <ele>963</ele>
        <time>2025-08-07T15:07:35Z</time>
      </trkpt>
      <trkpt lat="45.82795" lon="2.944">
        <ele>963</ele>
        <time>2025-08-07T15:07:36Z</time>
      </trkpt>
      <trkpt lat="45.82793" lon="2.94401">
        <ele>963.2</ele>
        <time>2025-08-07T15:07:37Z</time>
      </trkpt>
      <trkpt lat="45.8279" lon="2.94403">
        <ele>963.4</ele>
        <time>2025-08-07T15:07:38Z</time>
      </trkpt>
      <trkpt lat="45.82788" lon="2.94405">
        <ele>963.6</ele>
        <time>2025-08-07T15:07:39Z</time>
      </trkpt>
      <trkpt lat="45.82786" lon="2.94406">
        <ele>963.6</ele>
        <time>2025-08-07T15:07:40Z</time>
      </trkpt>
      <trkpt lat="45.82783" lon="2.94408">
        <ele>963.8</ele>
        <time>2025-08-07T15:07:41Z</time>
      </trkpt>
      <trkpt lat="45.82781" lon="2.94409">
        <ele>964</ele>
        <time>2025-08-07T15:07:42Z</time>
      </trkpt>
      <trkpt lat="45.82778" lon="2.9441">
        <ele>964</ele>
        <time>2025-08-07T15:07:43Z</time>
      </trkpt>
      <trkpt lat="45.82776" lon="2.94411">
        <ele>964.2</ele>
        <time>2025-08-07T15:07:44Z</time>
      </trkpt>
      <trkpt lat="45.82773" lon="2.94412">
        <ele>964.4</ele>
        <time>2025-08-07T15:07:45Z</time>
      </trkpt>
      <trkpt lat="45.8277" lon="2.94414">
        <ele>964.4</ele>
        <time>2025-08-07T15:07:46Z</time>
      </trkpt>
      <trkpt lat="45.82768" lon="2.94415">
        <ele>964.6</ele>
        <time>2025-08-07T15:07:47Z</time>
      </trkpt>
      <trkpt lat="45.82765" lon="2.94416">
        <ele>964.8</ele>
        <time>2025-08-07T15:07:48Z</time>
      </trkpt>
      <trkpt lat="45.82762" lon="2.94418">
        <ele>965</ele>
        <time>2025-08-07T15:07:49Z</time>
      </trkpt>
      <trkpt lat="45.82759" lon="2.94419">
        <ele>965</ele>
        <time>2025-08-07T15:07:50Z</time>
      </trkpt>
      <trkpt lat="45.82756" lon="2.9442">
        <ele>965.2</ele>
        <time>2025-08-07T15:07:51Z</time>
      </trkpt>
      <trkpt lat="45.82754" lon="2.94421">
        <ele>965.4</ele>
        <time>2025-08-07T15:07:52Z</time>
      </trkpt>
      <trkpt lat="45.82751" lon="2.94422">
        <ele>965.6</ele>
        <time>2025-08-07T15:07:53Z</time>
      </trkpt>
      <trkpt lat="45.82748" lon="2.94423">
        <ele>965.6</ele>
        <time>2025-08-07T15:07:54Z</time>
      </trkpt>
      <trkpt lat="45.82745" lon="2.94424">
        <ele>965.8</ele>
        <time>2025-08-07T15:07:55Z</time>
      </trkpt>
      <trkpt lat="45.82742" lon="2.94425">
        <ele>966</ele>
        <time>2025-08-07T15:07:56Z</time>
      </trkpt>
      <trkpt lat="45.8274" lon="2.94426">
        <ele>966.2</ele>
        <time>2025-08-07T15:07:57Z</time>
      </trkpt>
      <trkpt lat="45.82737" lon="2.94427">
        <ele>966.4</ele>
        <time>2025-08-07T15:07:58Z</time>
      </trkpt>
      <trkpt lat="45.82735" lon="2.94429">
        <ele>966.6</ele>
        <time>2025-08-07T15:07:59Z</time>
      </trkpt>
      <trkpt lat="45.82733" lon="2.9443">
        <ele>966.6</ele>
        <time>2025-08-07T15:08:00Z</time>
      </trkpt>
      <trkpt lat="45.82731" lon="2.94432">
        <ele>966.8</ele>
        <time>2025-08-07T15:08:01Z</time>
      </trkpt>
      <trkpt lat="45.82728" lon="2.94433">
        <ele>967</ele>
        <time>2025-08-07T15:08:02Z</time>
      </trkpt>
      <trkpt lat="45.82725" lon="2.94434">
        <ele>967.2</ele>
        <time>2025-08-07T15:08:03Z</time>
      </trkpt>
      <trkpt lat="45.82723" lon="2.94435">
        <ele>967.4</ele>
        <time>2025-08-07T15:08:04Z</time>
      </trkpt>
      <trkpt lat="45.8272" lon="2.94436">
        <ele>967.6</ele>
        <time>2025-08-07T15:08:05Z</time>
      </trkpt>
      <trkpt lat="45.82718" lon="2.94437">
        <ele>967.8</ele>
        <time>2025-08-07T15:08:06Z</time>
      </trkpt>
      <trkpt lat="45.82714" lon="2.94437">
        <ele>968</ele>
        <time>2025-08-07T15:08:07Z</time>
      </trkpt>
      <trkpt lat="45.82711" lon="2.94437">
        <ele>968.4</ele>
        <time>2025-08-07T15:08:08Z</time>
      </trkpt>
      <trkpt lat="45.82708" lon="2.94438">
        <ele>968.6</ele>
        <time>2025-08-07T15:08:09Z</time>
      </trkpt>
      <trkpt lat="45.82705" lon="2.94439">
        <ele>968.8</ele>
        <time>2025-08-07T15:08:10Z</time>
      </trkpt>
      <trkpt lat="45.82702" lon="2.94439">
        <ele>969</ele>
        <time>2025-08-07T15:08:11Z</time>
      </trkpt>
      <trkpt lat="45.82699" lon="2.94439">
        <ele>969.2</ele>
        <time>2025-08-07T15:08:12Z</time>
      </trkpt>
      <trkpt lat="45.82696" lon="2.94439">
        <ele>969.4</ele>
        <time>2025-08-07T15:08:13Z</time>
      </trkpt>
      <trkpt lat="45.82692" lon="2.9444">
        <ele>969.4</ele>
        <time>2025-08-07T15:08:14Z</time>
      </trkpt>
      <trkpt lat="45.8269" lon="2.9444">
        <ele>969.6</ele>
        <time>2025-08-07T15:08:15Z</time>
      </trkpt>
      <trkpt lat="45.82687" lon="2.9444">
        <ele>969.8</ele>
        <time>2025-08-07T15:08:16Z</time>
      </trkpt>
      <trkpt lat="45.82684" lon="2.9444">
        <ele>970</ele>
        <time>2025-08-07T15:08:17Z</time>
      </trkpt>
      <trkpt lat="45.82681" lon="2.9444">
        <ele>970.2</ele>
        <time>2025-08-07T15:08:18Z</time>
      </trkpt>
      <trkpt lat="45.82678" lon="2.9444">
        <ele>970.4</ele>
        <time>2025-08-07T15:08:19Z</time>
      </trkpt>
      <trkpt lat="45.82675" lon="2.9444">
        <ele>970.6</ele>
        <time>2025-08-07T15:08:20Z</time>
      </trkpt>
      <trkpt lat="45.82672" lon="2.9444">
        <ele>970.8</ele>
        <time>2025-08-07T15:08:21Z</time>
      </trkpt>
      <trkpt lat="45.82669" lon="2.9444">
        <ele>971</ele>
        <time>2025-08-07T15:08:22Z</time>
      </trkpt>
      <trkpt lat="45.82666" lon="2.94441">
        <ele>971</ele>
        <time>2025-08-07T15:08:23Z</time>
      </trkpt>
      <trkpt lat="45.82663" lon="2.94441">
        <ele>971.2</ele>
        <time>2025-08-07T15:08:24Z</time>
      </trkpt>
      <trkpt lat="45.8266" lon="2.94441">
        <ele>971.4</ele>
        <time>2025-08-07T15:08:25Z</time>
      </trkpt>
      <trkpt lat="45.82657" lon="2.94441">
        <ele>971.4</ele>
        <time>2025-08-07T15:08:26Z</time>
      </trkpt>
      <trkpt lat="45.82654" lon="2.94442">
        <ele>971.4</ele>
        <time>2025-08-07T15:08:27Z</time>
      </trkpt>
      <trkpt lat="45.82651" lon="2.94442">
        <ele>971.6</ele>
        <time>2025-08-07T15:08:28Z</time>
      </trkpt>
      <trkpt lat="45.82647" lon="2.94443">
        <ele>971.6</ele>
        <time>2025-08-07T15:08:29Z</time>
      </trkpt>
      <trkpt lat="45.82645" lon="2.94443">
        <ele>971.8</ele>
        <time>2025-08-07T15:08:30Z</time>
      </trkpt>
      <trkpt lat="45.82642" lon="2.94443">
        <ele>972</ele>
        <time>2025-08-07T15:08:31Z</time>
      </trkpt>
      <trkpt lat="45.82639" lon="2.94443">
        <ele>972</ele>
        <time>2025-08-07T15:08:32Z</time>
      </trkpt>
      <trkpt lat="45.82636" lon="2.94443">
        <ele>972.4</ele>
        <time>2025-08-07T15:08:33Z</time>
      </trkpt>
      <trkpt lat="45.82633" lon="2.94444">
        <ele>972.6</ele>
        <time>2025-08-07T15:08:34Z</time>
      </trkpt>
      <trkpt lat="45.8263" lon="2.94444">
        <ele>972.6</ele>
        <time>2025-08-07T15:08:35Z</time>
      </trkpt>
      <trkpt lat="45.82627" lon="2.94445">
        <ele>972.6</ele>
        <time>2025-08-07T15:08:36Z</time>
      </trkpt>
      <trkpt lat="45.82624" lon="2.94445">
        <ele>972.6</ele>
        <time>2025-08-07T15:08:37Z</time>
      </trkpt>
      <trkpt lat="45.82621" lon="2.94445">
        <ele>972.8</ele>
        <time>2025-08-07T15:08:38Z</time>
      </trkpt>
      <trkpt lat="45.82617" lon="2.94446">
        <ele>972.8</ele>
        <time>2025-08-07T15:08:39Z</time>
      </trkpt>
      <trkpt lat="45.82615" lon="2.94446">
        <ele>973</ele>
        <time>2025-08-07T15:08:40Z</time>
      </trkpt>
      <trkpt lat="45.82612" lon="2.94447">
        <ele>973.2</ele>
        <time>2025-08-07T15:08:41Z</time>
      </trkpt>
      <trkpt lat="45.82609" lon="2.94448">
        <ele>973.4</ele>
        <time>2025-08-07T15:08:42Z</time>
      </trkpt>
      <trkpt lat="45.82607" lon="2.94449">
        <ele>973.4</ele>
        <time>2025-08-07T15:08:43Z</time>
      </trkpt>
      <trkpt lat="45.82604" lon="2.9445">
        <ele>973.6</ele>
        <time>2025-08-07T15:08:44Z</time>
      </trkpt>
      <trkpt lat="45.82602" lon="2.94451">
        <ele>973.8</ele>
        <time>2025-08-07T15:08:45Z</time>
      </trkpt>
      <trkpt lat="45.82599" lon="2.94453">
        <ele>973.8</ele>
        <time>2025-08-07T15:08:46Z</time>
      </trkpt>
      <trkpt lat="45.82597" lon="2.94454">
        <ele>974</ele>
        <time>2025-08-07T15:08:47Z</time>
      </trkpt>
      <trkpt lat="45.82594" lon="2.94454">
        <ele>974.2</ele>
        <time>2025-08-07T15:08:48Z</time>
      </trkpt>
      <trkpt lat="45.82591" lon="2.94454">
        <ele>974.2</ele>
        <time>2025-08-07T15:08:49Z</time>
      </trkpt>
      <trkpt lat="45.82588" lon="2.94455">
        <ele>974.4</ele>
        <time>2025-08-07T15:08:50Z</time>
      </trkpt>
      <trkpt lat="45.82585" lon="2.94455">
        <ele>974.4</ele>
        <time>2025-08-07T15:08:51Z</time>
      </trkpt>
      <trkpt lat="45.82583" lon="2.94456">
        <ele>974.6</ele>
        <time>2025-08-07T15:08:52Z</time>
      </trkpt>
      <trkpt lat="45.82581" lon="2.94456">
        <ele>974.6</ele>
        <time>2025-08-07T15:08:53Z</time>
      </trkpt>
      <trkpt lat="45.82581" lon="2.94456">
        <ele>974.8</ele>
        <time>2025-08-07T15:08:54Z</time>
      </trkpt>
      <trkpt lat="45.82579" lon="2.94458">
        <ele>975</ele>
        <time>2025-08-07T15:08:55Z</time>
      </trkpt>
      <trkpt lat="45.82577" lon="2.9446">
        <ele>975.2</ele>
        <time>2025-08-07T15:08:56Z</time>
      </trkpt>
      <trkpt lat="45.82575" lon="2.94462">
        <ele>975.4</ele>
        <time>2025-08-07T15:08:57Z</time>
      </trkpt>
      <trkpt lat="45.82572" lon="2.94462">
        <ele>975.6</ele>
        <time>2025-08-07T15:08:58Z</time>
      </trkpt>
      <trkpt lat="45.8257" lon="2.94463">
        <ele>975.6</ele>
        <time>2025-08-07T15:08:59Z</time>
      </trkpt>
      <trkpt lat="45.82567" lon="2.94464">
        <ele>975.8</ele>
        <time>2025-08-07T15:09:00Z</time>
      </trkpt>
      <trkpt lat="45.82564" lon="2.94464">
        <ele>976</ele>
        <time>2025-08-07T15:09:01Z</time>
      </trkpt>
      <trkpt lat="45.8256" lon="2.94464">
        <ele>976</ele>
        <time>2025-08-07T15:09:02Z</time>
      </trkpt>
      <trkpt lat="45.82558" lon="2.94464">
        <ele>976.2</ele>
        <time>2025-08-07T15:09:03Z</time>
      </trkpt>
      <trkpt lat="45.82555" lon="2.94465">
        <ele>976.4</ele>
        <time>2025-08-07T15:09:04Z</time>
      </trkpt>
      <trkpt lat="45.82552" lon="2.94465">
        <ele>976.4</ele>
        <time>2025-08-07T15:09:05Z</time>
      </trkpt>
      <trkpt lat="45.82549" lon="2.94466">
        <ele>976.6</ele>
        <time>2025-08-07T15:09:06Z</time>
      </trkpt>
      <trkpt lat="45.82546" lon="2.94466">
        <ele>976.8</ele>
        <time>2025-08-07T15:09:07Z</time>
      </trkpt>
      <trkpt lat="45.82542" lon="2.94466">
        <ele>976.8</ele>
        <time>2025-08-07T15:09:08Z</time>
      </trkpt>
      <trkpt lat="45.82539" lon="2.94466">
        <ele>977</ele>
        <time>2025-08-07T15:09:09Z</time>
      </trkpt>
      <trkpt lat="45.82536" lon="2.94466">
        <ele>977</ele>
        <time>2025-08-07T15:09:10Z</time>
      </trkpt>
      <trkpt lat="45.82533" lon="2.94466">
        <ele>977</ele>
        <time>2025-08-07T15:09:11Z</time>
      </trkpt>
      <trkpt lat="45.8253" lon="2.94465">
        <ele>977.2</ele>
        <time>2025-08-07T15:09:12Z</time>
      </trkpt>
      <trkpt lat="45.82528" lon="2.94465">
        <ele>977.2</ele>
        <time>2025-08-07T15:09:13Z</time>
      </trkpt>
      <trkpt lat="45.82525" lon="2.94466">
        <ele>977.4</ele>
        <time>2025-08-07T15:09:14Z</time>
      </trkpt>
      <trkpt lat="45.82522" lon="2.94466">
        <ele>977.4</ele>
        <time>2025-08-07T15:09:15Z</time>
      </trkpt>
      <trkpt lat="45.82519" lon="2.94466">
        <ele>977.4</ele>
        <time>2025-08-07T15:09:16Z</time>
      </trkpt>
      <trkpt lat="45.82516" lon="2.94466">
        <ele>977.4</ele>
        <time>2025-08-07T15:09:17Z</time>
      </trkpt>
      <trkpt lat="45.82512" lon="2.94467">
        <ele>977.6</ele>
        <time>2025-08-07T15:09:18Z</time>
      </trkpt>
      <trkpt lat="45.8251" lon="2.94469">
        <ele>977.6</ele>
        <time>2025-08-07T15:09:19Z</time>
      </trkpt>
      <trkpt lat="45.82507" lon="2.9447">
        <ele>977.6</ele>
        <time>2025-08-07T15:09:20Z</time>
      </trkpt>
      <trkpt lat="45.82504" lon="2.94471">
        <ele>977.6</ele>
        <time>2025-08-07T15:09:21Z</time>
      </trkpt>
      <trkpt lat="45.82501" lon="2.94472">
        <ele>977.8</ele>
        <time>2025-08-07T15:09:22Z</time>
      </trkpt>
      <trkpt lat="45.82498" lon="2.94473">
        <ele>977.8</ele>
        <time>2025-08-07T15:09:23Z</time>
      </trkpt>
      <trkpt lat="45.82495" lon="2.94474">
        <ele>977.8</ele>
        <time>2025-08-07T15:09:24Z</time>
      </trkpt>
      <trkpt lat="45.82492" lon="2.94474">
        <ele>977.8</ele>
        <time>2025-08-07T15:09:25Z</time>
      </trkpt>
      <trkpt lat="45.82489" lon="2.94475">
        <ele>978</ele>
        <time>2025-08-07T15:09:26Z</time>
      </trkpt>
      <trkpt lat="45.82486" lon="2.94476">
        <ele>978</ele>
        <time>2025-08-07T15:09:27Z</time>
      </trkpt>
      <trkpt lat="45.82483" lon="2.94476">
        <ele>978.2</ele>
        <time>2025-08-07T15:09:28Z</time>
      </trkpt>
      <trkpt lat="45.82479" lon="2.94476">
        <ele>978.2</ele>
        <time>2025-08-07T15:09:29Z</time>
      </trkpt>
      <trkpt lat="45.82476" lon="2.94477">
        <ele>978.4</ele>
        <time>2025-08-07T15:09:30Z</time>
      </trkpt>
      <trkpt lat="45.82473" lon="2.94478">
        <ele>978.4</ele>
        <time>2025-08-07T15:09:31Z</time>
      </trkpt>
      <trkpt lat="45.82469" lon="2.9448">
        <ele>978.4</ele>
        <time>2025-08-07T15:09:32Z</time>
      </trkpt>
      <trkpt lat="45.82466" lon="2.94481">
        <ele>978.6</ele>
        <time>2025-08-07T15:09:33Z</time>
      </trkpt>
      <trkpt lat="45.82463" lon="2.94482">
        <ele>978.6</ele>
        <time>2025-08-07T15:09:34Z</time>
      </trkpt>
      <trkpt lat="45.82459" lon="2.94484">
        <ele>978.6</ele>
        <time>2025-08-07T15:09:35Z</time>
      </trkpt>
      <trkpt lat="45.82456" lon="2.94486">
        <ele>978.8</ele>
        <time>2025-08-07T15:09:36Z</time>
      </trkpt>
      <trkpt lat="45.82452" lon="2.94488">
        <ele>978.8</ele>
        <time>2025-08-07T15:09:37Z</time>
      </trkpt>
      <trkpt lat="45.82449" lon="2.94489">
        <ele>979</ele>
        <time>2025-08-07T15:09:38Z</time>
      </trkpt>
      <trkpt lat="45.82446" lon="2.94491">
        <ele>979.2</ele>
        <time>2025-08-07T15:09:39Z</time>
      </trkpt>
      <trkpt lat="45.82443" lon="2.94493">
        <ele>979.2</ele>
        <time>2025-08-07T15:09:40Z</time>
      </trkpt>
      <trkpt lat="45.82439" lon="2.94494">
        <ele>979.2</ele>
        <time>2025-08-07T15:09:41Z</time>
      </trkpt>
      <trkpt lat="45.82436" lon="2.94496">
        <ele>979.4</ele>
        <time>2025-08-07T15:09:42Z</time>
      </trkpt>
      <trkpt lat="45.82432" lon="2.94497">
        <ele>979.4</ele>
        <time>2025-08-07T15:09:43Z</time>
      </trkpt>
      <trkpt lat="45.82429" lon="2.94499">
        <ele>979.4</ele>
        <time>2025-08-07T15:09:44Z</time>
      </trkpt>
      <trkpt lat="45.82425" lon="2.94501">
        <ele>979.6</ele>
        <time>2025-08-07T15:09:45Z</time>
      </trkpt>
      <trkpt lat="45.82422" lon="2.94502">
        <ele>979.6</ele>
        <time>2025-08-07T15:09:46Z</time>
      </trkpt>
      <trkpt lat="45.82419" lon="2.94504">
        <ele>979.6</ele>
        <time>2025-08-07T15:09:47Z</time>
      </trkpt>
      <trkpt lat="45.82415" lon="2.94506">
        <ele>979.8</ele>
        <time>2025-08-07T15:09:48Z</time>
      </trkpt>
      <trkpt lat="45.82411" lon="2.94507">
        <ele>979.8</ele>
        <time>2025-08-07T15:09:49Z</time>
      </trkpt>
      <trkpt lat="45.82407" lon="2.94509">
        <ele>979.8</ele>
        <time>2025-08-07T15:09:50Z</time>
      </trkpt>
      <trkpt lat="45.82403" lon="2.94511">
        <ele>979.8</ele>
        <time>2025-08-07T15:09:51Z</time>
      </trkpt>
      <trkpt lat="45.824" lon="2.94513">
        <ele>980</ele>
        <time>2025-08-07T15:09:52Z</time>
      </trkpt>
      <trkpt lat="45.82397" lon="2.94514">
        <ele>980</ele>
        <time>2025-08-07T15:09:53Z</time>
      </trkpt>
      <trkpt lat="45.82393" lon="2.94515">
        <ele>980</ele>
        <time>2025-08-07T15:09:54Z</time>
      </trkpt>
      <trkpt lat="45.8239" lon="2.94516">
        <ele>980</ele>
        <time>2025-08-07T15:09:55Z</time>
      </trkpt>
      <trkpt lat="45.82386" lon="2.94518">
        <ele>980</ele>
        <time>2025-08-07T15:09:56Z</time>
      </trkpt>
      <trkpt lat="45.82382" lon="2.9452">
        <ele>980.2</ele>
        <time>2025-08-07T15:09:57Z</time>
      </trkpt>
      <trkpt lat="45.82379" lon="2.94522">
        <ele>980.2</ele>
        <time>2025-08-07T15:09:58Z</time>
      </trkpt>
      <trkpt lat="45.82374" lon="2.94524">
        <ele>980</ele>
        <time>2025-08-07T15:09:59Z</time>
      </trkpt>
      <trkpt lat="45.82369" lon="2.94526">
        <ele>980</ele>
        <time>2025-08-07T15:10:00Z</time>
      </trkpt>
      <trkpt lat="45.82365" lon="2.94529">
        <ele>980</ele>
        <time>2025-08-07T15:10:01Z</time>
      </trkpt>
      <trkpt lat="45.8236" lon="2.94533">
        <ele>980</ele>
        <time>2025-08-07T15:10:02Z</time>
      </trkpt>
      <trkpt lat="45.82356" lon="2.94535">
        <ele>979.8</ele>
        <time>2025-08-07T15:10:03Z</time>
      </trkpt>
      <trkpt lat="45.8235" lon="2.94538">
        <ele>979.8</ele>
        <time>2025-08-07T15:10:04Z</time>
      </trkpt>
      <trkpt lat="45.82345" lon="2.94541">
        <ele>979.8</ele>
        <time>2025-08-07T15:10:05Z</time>
      </trkpt>
      <trkpt lat="45.82341" lon="2.94544">
        <ele>979.8</ele>
        <time>2025-08-07T15:10:06Z</time>
      </trkpt>
      <trkpt lat="45.82336" lon="2.94547">
        <ele>979.8</ele>
        <time>2025-08-07T15:10:07Z</time>
      </trkpt>
      <trkpt lat="45.82331" lon="2.9455">
        <ele>979.6</ele>
        <time>2025-08-07T15:10:08Z</time>
      </trkpt>
      <trkpt lat="45.82326" lon="2.94553">
        <ele>979.6</ele>
        <time>2025-08-07T15:10:09Z</time>
      </trkpt>
      <trkpt lat="45.82321" lon="2.94557">
        <ele>979.6</ele>
        <time>2025-08-07T15:10:10Z</time>
      </trkpt>
      <trkpt lat="45.82316" lon="2.9456">
        <ele>979.6</ele>
        <time>2025-08-07T15:10:11Z</time>
      </trkpt>
      <trkpt lat="45.82311" lon="2.94563">
        <ele>979.6</ele>
        <time>2025-08-07T15:10:12Z</time>
      </trkpt>
      <trkpt lat="45.82307" lon="2.94566">
        <ele>979.6</ele>
        <time>2025-08-07T15:10:13Z</time>
      </trkpt>
      <trkpt lat="45.82302" lon="2.94569">
        <ele>979.4</ele>
        <time>2025-08-07T15:10:14Z</time>
      </trkpt>
      <trkpt lat="45.82297" lon="2.94572">
        <ele>979.4</ele>
        <time>2025-08-07T15:10:15Z</time>
      </trkpt>
      <trkpt lat="45.82292" lon="2.94575">
        <ele>979.4</ele>
        <time>2025-08-07T15:10:16Z</time>
      </trkpt>
      <trkpt lat="45.82288" lon="2.94578">
        <ele>979.2</ele>
        <time>2025-08-07T15:10:17Z</time>
      </trkpt>
      <trkpt lat="45.82284" lon="2.94582">
        <ele>979.2</ele>
        <time>2025-08-07T15:10:18Z</time>
      </trkpt>
      <trkpt lat="45.8228" lon="2.94585">
        <ele>979.2</ele>
        <time>2025-08-07T15:10:19Z</time>
      </trkpt>
      <trkpt lat="45.82277" lon="2.94588">
        <ele>979.2</ele>
        <time>2025-08-07T15:10:20Z</time>
      </trkpt>
      <trkpt lat="45.82273" lon="2.94591">
        <ele>979</ele>
        <time>2025-08-07T15:10:21Z</time>
      </trkpt>
      <trkpt lat="45.82269" lon="2.94594">
        <ele>979</ele>
        <time>2025-08-07T15:10:22Z</time>
      </trkpt>
      <trkpt lat="45.82265" lon="2.94597">
        <ele>979</ele>
        <time>2025-08-07T15:10:23Z</time>
      </trkpt>
      <trkpt lat="45.8226" lon="2.946">
        <ele>979.2</ele>
        <time>2025-08-07T15:10:24Z</time>
      </trkpt>
      <trkpt lat="45.82255" lon="2.94603">
        <ele>979</ele>
        <time>2025-08-07T15:10:25Z</time>
      </trkpt>
      <trkpt lat="45.8225" lon="2.94607">
        <ele>979</ele>
        <time>2025-08-07T15:10:26Z</time>
      </trkpt>
      <trkpt lat="45.82245" lon="2.9461">
        <ele>978.8</ele>
        <time>2025-08-07T15:10:27Z</time>
      </trkpt>
      <trkpt lat="45.8224" lon="2.94614">
        <ele>978.8</ele>
        <time>2025-08-07T15:10:28Z</time>
      </trkpt>
      <trkpt lat="45.82235" lon="2.94618">
        <ele>978.6</ele>
        <time>2025-08-07T15:10:29Z</time>
      </trkpt>
      <trkpt lat="45.8223" lon="2.94623">
        <ele>978.6</ele>
        <time>2025-08-07T15:10:30Z</time>
      </trkpt>
      <trkpt lat="45.82224" lon="2.94627">
        <ele>978.4</ele>
        <time>2025-08-07T15:10:31Z</time>
      </trkpt>
      <trkpt lat="45.82219" lon="2.94632">
        <ele>978.2</ele>
        <time>2025-08-07T15:10:32Z</time>
      </trkpt>
      <trkpt lat="45.82213" lon="2.94636">
        <ele>978</ele>
        <time>2025-08-07T15:10:33Z</time>
      </trkpt>
      <trkpt lat="45.82208" lon="2.94641">
        <ele>978</ele>
        <time>2025-08-07T15:10:34Z</time>
      </trkpt>
      <trkpt lat="45.82202" lon="2.94646">
        <ele>977.8</ele>
        <time>2025-08-07T15:10:35Z</time>
      </trkpt>
      <trkpt lat="45.82196" lon="2.94651">
        <ele>977.6</ele>
        <time>2025-08-07T15:10:36Z</time>
      </trkpt>
      <trkpt lat="45.82191" lon="2.94657">
        <ele>977.4</ele>
        <time>2025-08-07T15:10:37Z</time>
      </trkpt>
      <trkpt lat="45.82186" lon="2.94663">
        <ele>977.2</ele>
        <time>2025-08-07T15:10:38Z</time>
      </trkpt>
      <trkpt lat="45.8218" lon="2.94669">
        <ele>976.8</ele>
        <time>2025-08-07T15:10:39Z</time>
      </trkpt>
      <trkpt lat="45.82174" lon="2.94674">
        <ele>976.6</ele>
        <time>2025-08-07T15:10:40Z</time>
      </trkpt>
      <trkpt lat="45.82168" lon="2.9468">
        <ele>976.2</ele>
        <time>2025-08-07T15:10:41Z</time>
      </trkpt>
      <trkpt lat="45.82162" lon="2.94685">
        <ele>975.8</ele>
        <time>2025-08-07T15:10:42Z</time>
      </trkpt>
      <trkpt lat="45.82155" lon="2.94691">
        <ele>975.4</ele>
        <time>2025-08-07T15:10:43Z</time>
      </trkpt>
      <trkpt lat="45.82149" lon="2.94696">
        <ele>975</ele>
        <time>2025-08-07T15:10:44Z</time>
      </trkpt>
      <trkpt lat="45.82142" lon="2.94702">
        <ele>974.6</ele>
        <time>2025-08-07T15:10:45Z</time>
      </trkpt>
      <trkpt lat="45.82136" lon="2.94708">
        <ele>974.2</ele>
        <time>2025-08-07T15:10:46Z</time>
      </trkpt>
      <trkpt lat="45.82129" lon="2.94714">
        <ele>973.8</ele>
        <time>2025-08-07T15:10:47Z</time>
      </trkpt>
      <trkpt lat="45.82122" lon="2.9472">
        <ele>973.6</ele>
        <time>2025-08-07T15:10:48Z</time>
      </trkpt>
      <trkpt lat="45.82115" lon="2.94726">
        <ele>973.2</ele>
        <time>2025-08-07T15:10:49Z</time>
      </trkpt>
      <trkpt lat="45.82109" lon="2.94733">
        <ele>972.8</ele>
        <time>2025-08-07T15:10:50Z</time>
      </trkpt>
      <trkpt lat="45.82102" lon="2.94739">
        <ele>972.4</ele>
        <time>2025-08-07T15:10:51Z</time>
      </trkpt>
      <trkpt lat="45.82096" lon="2.94746">
        <ele>972.2</ele>
        <time>2025-08-07T15:10:52Z</time>
      </trkpt>
      <trkpt lat="45.8209" lon="2.94753">
        <ele>971.8</ele>
        <time>2025-08-07T15:10:53Z</time>
      </trkpt>
      <trkpt lat="45.82084" lon="2.94761">
        <ele>971.4</ele>
        <time>2025-08-07T15:10:54Z</time>
      </trkpt>
      <trkpt lat="45.82078" lon="2.94769">
        <ele>971.2</ele>
        <time>2025-08-07T15:10:55Z</time>
      </trkpt>
      <trkpt lat="45.82073" lon="2.94778">
        <ele>970.8</ele>
        <time>2025-08-07T15:10:56Z</time>
      </trkpt>
      <trkpt lat="45.82068" lon="2.94787">
        <ele>970.6</ele>
        <time>2025-08-07T15:10:57Z</time>
      </trkpt>
      <trkpt lat="45.82064" lon="2.94796">
        <ele>970.2</ele>
        <time>2025-08-07T15:10:58Z</time>
      </trkpt>
      <trkpt lat="45.82059" lon="2.94805">
        <ele>969.8</ele>
        <time>2025-08-07T15:10:59Z</time>
      </trkpt>
      <trkpt lat="45.82054" lon="2.94815">
        <ele>969.4</ele>
        <time>2025-08-07T15:11:00Z</time>
      </trkpt>
      <trkpt lat="45.82049" lon="2.94824">
        <ele>969</ele>
        <time>2025-08-07T15:11:01Z</time>
      </trkpt>
      <trkpt lat="45.82044" lon="2.94834">
        <ele>968.6</ele>
        <time>2025-08-07T15:11:02Z</time>
      </trkpt>
      <trkpt lat="45.8204" lon="2.94844">
        <ele>968.2</ele>
        <time>2025-08-07T15:11:03Z</time>
      </trkpt>
      <trkpt lat="45.82035" lon="2.94853">
        <ele>967.4</ele>
        <time>2025-08-07T15:11:04Z</time>
      </trkpt>
      <trkpt lat="45.82028" lon="2.94863">
        <ele>966.6</ele>
        <time>2025-08-07T15:11:05Z</time>
      </trkpt>
      <trkpt lat="45.82022" lon="2.94873">
        <ele>966</ele>
        <time>2025-08-07T15:11:06Z</time>
      </trkpt>
      <trkpt lat="45.82016" lon="2.94884">
        <ele>965.4</ele>
        <time>2025-08-07T15:11:07Z</time>
      </trkpt>
      <trkpt lat="45.8201" lon="2.94894">
        <ele>964.8</ele>
        <time>2025-08-07T15:11:08Z</time>
      </trkpt>
      <trkpt lat="45.82003" lon="2.94904">
        <ele>964.2</ele>
        <time>2025-08-07T15:11:09Z</time>
      </trkpt>
      <trkpt lat="45.81995" lon="2.94915">
        <ele>963.4</ele>
        <time>2025-08-07T15:11:10Z</time>
      </trkpt>
      <trkpt lat="45.81989" lon="2.94925">
        <ele>963</ele>
        <time>2025-08-07T15:11:11Z</time>
      </trkpt>
      <trkpt lat="45.81982" lon="2.94936">
        <ele>962.4</ele>
        <time>2025-08-07T15:11:12Z</time>
      </trkpt>
      <trkpt lat="45.81975" lon="2.94947">
        <ele>961.8</ele>
        <time>2025-08-07T15:11:13Z</time>
      </trkpt>
      <trkpt lat="45.81968" lon="2.94957">
        <ele>961</ele>
        <time>2025-08-07T15:11:14Z</time>
      </trkpt>
      <trkpt lat="45.81961" lon="2.94966">
        <ele>960.4</ele>
        <time>2025-08-07T15:11:15Z</time>
      </trkpt>
      <trkpt lat="45.81953" lon="2.94973">
        <ele>959.8</ele>
        <time>2025-08-07T15:11:16Z</time>
      </trkpt>
      <trkpt lat="45.81944" lon="2.94979">
        <ele>959.4</ele>
        <time>2025-08-07T15:11:17Z</time>
      </trkpt>
      <trkpt lat="45.81933" lon="2.94984">
        <ele>959</ele>
        <time>2025-08-07T15:11:18Z</time>
      </trkpt>
      <trkpt lat="45.81923" lon="2.94989">
        <ele>958.4</ele>
        <time>2025-08-07T15:11:19Z</time>
      </trkpt>
      <trkpt lat="45.81914" lon="2.94995">
        <ele>958</ele>
        <time>2025-08-07T15:11:20Z</time>
      </trkpt>
      <trkpt lat="45.81905" lon="2.95002">
        <ele>957.6</ele>
        <time>2025-08-07T15:11:21Z</time>
      </trkpt>
      <trkpt lat="45.81897" lon="2.95008">
        <ele>957.2</ele>
        <time>2025-08-07T15:11:22Z</time>
      </trkpt>
      <trkpt lat="45.8189" lon="2.95014">
        <ele>956.8</ele>
        <time>2025-08-07T15:11:23Z</time>
      </trkpt>
      <trkpt lat="45.81883" lon="2.95019">
        <ele>956.4</ele>
        <time>2025-08-07T15:11:24Z</time>
      </trkpt>
      <trkpt lat="45.81875" lon="2.95023">
        <ele>956</ele>
        <time>2025-08-07T15:11:25Z</time>
      </trkpt>
      <trkpt lat="45.81866" lon="2.95027">
        <ele>955.6</ele>
        <time>2025-08-07T15:11:26Z</time>
      </trkpt>
      <trkpt lat="45.81858" lon="2.95032">
        <ele>955.4</ele>
        <time>2025-08-07T15:11:27Z</time>
      </trkpt>
      <trkpt lat="45.8185" lon="2.95036">
        <ele>955.2</ele>
        <time>2025-08-07T15:11:28Z</time>
      </trkpt>
      <trkpt lat="45.81843" lon="2.95041">
        <ele>955</ele>
        <time>2025-08-07T15:11:29Z</time>
      </trkpt>
      <trkpt lat="45.81836" lon="2.95045">
        <ele>954.6</ele>
        <time>2025-08-07T15:11:30Z</time>
      </trkpt>
      <trkpt lat="45.81828" lon="2.9505">
        <ele>954.6</ele>
        <time>2025-08-07T15:11:31Z</time>
      </trkpt>
      <trkpt lat="45.81821" lon="2.95054">
        <ele>954.4</ele>
        <time>2025-08-07T15:11:32Z</time>
      </trkpt>
      <trkpt lat="45.81814" lon="2.95059">
        <ele>954.2</ele>
        <time>2025-08-07T15:11:33Z</time>
      </trkpt>
      <trkpt lat="45.81807" lon="2.95063">
        <ele>954</ele>
        <time>2025-08-07T15:11:34Z</time>
      </trkpt>
      <trkpt lat="45.818" lon="2.95067">
        <ele>953.8</ele>
        <time>2025-08-07T15:11:35Z</time>
      </trkpt>
      <trkpt lat="45.81794" lon="2.95071">
        <ele>953.6</ele>
        <time>2025-08-07T15:11:36Z</time>
      </trkpt>
      <trkpt lat="45.81787" lon="2.95075">
        <ele>953.2</ele>
        <time>2025-08-07T15:11:37Z</time>
      </trkpt>
      <trkpt lat="45.8178" lon="2.95078">
        <ele>953</ele>
        <time>2025-08-07T15:11:38Z</time>
      </trkpt>
      <trkpt lat="45.81773" lon="2.95082">
        <ele>952.8</ele>
        <time>2025-08-07T15:11:39Z</time>
      </trkpt>
      <trkpt lat="45.81767" lon="2.95085">
        <ele>952.8</ele>
        <time>2025-08-07T15:11:40Z</time>
      </trkpt>
      <trkpt lat="45.81761" lon="2.9509">
        <ele>952.6</ele>
        <time>2025-08-07T15:11:41Z</time>
      </trkpt>
      <trkpt lat="45.81755" lon="2.95093">
        <ele>952.2</ele>
        <time>2025-08-07T15:11:42Z</time>
      </trkpt>
      <trkpt lat="45.8175" lon="2.95097">
        <ele>952.2</ele>
        <time>2025-08-07T15:11:43Z</time>
      </trkpt>
      <trkpt lat="45.81744" lon="2.951">
        <ele>952</ele>
        <time>2025-08-07T15:11:44Z</time>
      </trkpt>
      <trkpt lat="45.81738" lon="2.95103">
        <ele>951.8</ele>
        <time>2025-08-07T15:11:45Z</time>
      </trkpt>
      <trkpt lat="45.81732" lon="2.95108">
        <ele>951.6</ele>
        <time>2025-08-07T15:11:46Z</time>
      </trkpt>
      <trkpt lat="45.81726" lon="2.95112">
        <ele>951.6</ele>
        <time>2025-08-07T15:11:47Z</time>
      </trkpt>
      <trkpt lat="45.81721" lon="2.95117">
        <ele>951.4</ele>
        <time>2025-08-07T15:11:48Z</time>
      </trkpt>
      <trkpt lat="45.81716" lon="2.95122">
        <ele>951.2</ele>
        <time>2025-08-07T15:11:49Z</time>
      </trkpt>
      <trkpt lat="45.81711" lon="2.95127">
        <ele>951</ele>
        <time>2025-08-07T15:11:50Z</time>
      </trkpt>
      <trkpt lat="45.81706" lon="2.95132">
        <ele>950.8</ele>
        <time>2025-08-07T15:11:51Z</time>
      </trkpt>
      <trkpt lat="45.81701" lon="2.95137">
        <ele>950.8</ele>
        <time>2025-08-07T15:11:52Z</time>
      </trkpt>
      <trkpt lat="45.81696" lon="2.95142">
        <ele>950.4</ele>
        <time>2025-08-07T15:11:53Z</time>
      </trkpt>
      <trkpt lat="45.81691" lon="2.95147">
        <ele>950.4</ele>
        <time>2025-08-07T15:11:54Z</time>
      </trkpt>
      <trkpt lat="45.81686" lon="2.95152">
        <ele>950</ele>
        <time>2025-08-07T15:11:55Z</time>
      </trkpt>
      <trkpt lat="45.81682" lon="2.95157">
        <ele>950</ele>
        <time>2025-08-07T15:11:56Z</time>
      </trkpt>
      <trkpt lat="45.81677" lon="2.95162">
        <ele>949.8</ele>
        <time>2025-08-07T15:11:57Z</time>
      </trkpt>
      <trkpt lat="45.81672" lon="2.95168">
        <ele>949.6</ele>
        <time>2025-08-07T15:11:58Z</time>
      </trkpt>
      <trkpt lat="45.81668" lon="2.95173">
        <ele>949.4</ele>
        <time>2025-08-07T15:11:59Z</time>
      </trkpt>
      <trkpt lat="45.81663" lon="2.95178">
        <ele>949.2</ele>
        <time>2025-08-07T15:12:00Z</time>
      </trkpt>
      <trkpt lat="45.81658" lon="2.95184">
        <ele>949</ele>
        <time>2025-08-07T15:12:01Z</time>
      </trkpt>
      <trkpt lat="45.81652" lon="2.9519">
        <ele>948.8</ele>
        <time>2025-08-07T15:12:02Z</time>
      </trkpt>
      <trkpt lat="45.81647" lon="2.95196">
        <ele>948.6</ele>
        <time>2025-08-07T15:12:03Z</time>
      </trkpt>
      <trkpt lat="45.81641" lon="2.95201">
        <ele>948.6</ele>
        <time>2025-08-07T15:12:04Z</time>
      </trkpt>
      <trkpt lat="45.81636" lon="2.95206">
        <ele>948.4</ele>
        <time>2025-08-07T15:12:05Z</time>
      </trkpt>
      <trkpt lat="45.81629" lon="2.95212">
        <ele>948.2</ele>
        <time>2025-08-07T15:12:06Z</time>
      </trkpt>
      <trkpt lat="45.81625" lon="2.95218">
        <ele>948</ele>
        <time>2025-08-07T15:12:07Z</time>
      </trkpt>
      <trkpt lat="45.8162" lon="2.95224">
        <ele>947.8</ele>
        <time>2025-08-07T15:12:08Z</time>
      </trkpt>
      <trkpt lat="45.81616" lon="2.9523">
        <ele>947.6</ele>
        <time>2025-08-07T15:12:09Z</time>
      </trkpt>
      <trkpt lat="45.81611" lon="2.95236">
        <ele>947.4</ele>
        <time>2025-08-07T15:12:10Z</time>
      </trkpt>
      <trkpt lat="45.81606" lon="2.95241">
        <ele>947.2</ele>
        <time>2025-08-07T15:12:11Z</time>
      </trkpt>
      <trkpt lat="45.81601" lon="2.95245">
        <ele>947</ele>
        <time>2025-08-07T15:12:12Z</time>
      </trkpt>
      <trkpt lat="45.81597" lon="2.95249">
        <ele>946.8</ele>
        <time>2025-08-07T15:12:13Z</time>
      </trkpt>
      <trkpt lat="45.81592" lon="2.95252">
        <ele>946.4</ele>
        <time>2025-08-07T15:12:14Z</time>
      </trkpt>
      <trkpt lat="45.81587" lon="2.95255">
        <ele>946.2</ele>
        <time>2025-08-07T15:12:15Z</time>
      </trkpt>
      <trkpt lat="45.81581" lon="2.95259">
        <ele>946</ele>
        <time>2025-08-07T15:12:16Z</time>
      </trkpt>
      <trkpt lat="45.81574" lon="2.95264">
        <ele>945.8</ele>
        <time>2025-08-07T15:12:17Z</time>
      </trkpt>
      <trkpt lat="45.81568" lon="2.95268">
        <ele>945.4</ele>
        <time>2025-08-07T15:12:18Z</time>
      </trkpt>
      <trkpt lat="45.81562" lon="2.95272">
        <ele>945.2</ele>
        <time>2025-08-07T15:12:19Z</time>
      </trkpt>
      <trkpt lat="45.81557" lon="2.95277">
        <ele>945</ele>
        <time>2025-08-07T15:12:20Z</time>
      </trkpt>
      <trkpt lat="45.81551" lon="2.95282">
        <ele>944.8</ele>
        <time>2025-08-07T15:12:21Z</time>
      </trkpt>
      <trkpt lat="45.81546" lon="2.95286">
        <ele>944.6</ele>
        <time>2025-08-07T15:12:22Z</time>
      </trkpt>
      <trkpt lat="45.81539" lon="2.95291">
        <ele>944.4</ele>
        <time>2025-08-07T15:12:23Z</time>
      </trkpt>
      <trkpt lat="45.81533" lon="2.95296">
        <ele>944.2</ele>
        <time>2025-08-07T15:12:24Z</time>
      </trkpt>
      <trkpt lat="45.81526" lon="2.95301">
        <ele>944</ele>
        <time>2025-08-07T15:12:25Z</time>
      </trkpt>
      <trkpt lat="45.81521" lon="2.95305">
        <ele>943.8</ele>
        <time>2025-08-07T15:12:26Z</time>
      </trkpt>
      <trkpt lat="45.81514" lon="2.95309">
        <ele>943.8</ele>
        <time>2025-08-07T15:12:27Z</time>
      </trkpt>
      <trkpt lat="45.81508" lon="2.95313">
        <ele>943.8</ele>
        <time>2025-08-07T15:12:28Z</time>
      </trkpt>
      <trkpt lat="45.81502" lon="2.95318">
        <ele>943.8</ele>
        <time>2025-08-07T15:12:29Z</time>
      </trkpt>
      <trkpt lat="45.81494" lon="2.95323">
        <ele>943.6</ele>
        <time>2025-08-07T15:12:30Z</time>
      </trkpt>
      <trkpt lat="45.81488" lon="2.95328">
        <ele>943.4</ele>
        <time>2025-08-07T15:12:31Z</time>
      </trkpt>
      <trkpt lat="45.81481" lon="2.95332">
        <ele>943.4</ele>
        <time>2025-08-07T15:12:32Z</time>
      </trkpt>
      <trkpt lat="45.81475" lon="2.95336">
        <ele>943.2</ele>
        <time>2025-08-07T15:12:33Z</time>
      </trkpt>
      <trkpt lat="45.81468" lon="2.9534">
        <ele>943</ele>
        <time>2025-08-07T15:12:34Z</time>
      </trkpt>
      <trkpt lat="45.81461" lon="2.95346">
        <ele>942.6</ele>
        <time>2025-08-07T15:12:35Z</time>
      </trkpt>
      <trkpt lat="45.81455" lon="2.95353">
        <ele>942.4</ele>
        <time>2025-08-07T15:12:36Z</time>
      </trkpt>
      <trkpt lat="45.81452" lon="2.9536">
        <ele>942.4</ele>
        <time>2025-08-07T15:12:37Z</time>
      </trkpt>
      <trkpt lat="45.8145" lon="2.9537">
        <ele>942.2</ele>
        <time>2025-08-07T15:12:38Z</time>
      </trkpt>
      <trkpt lat="45.8145" lon="2.95378">
        <ele>942</ele>
        <time>2025-08-07T15:12:39Z</time>
      </trkpt>
      <trkpt lat="45.8145" lon="2.95388">
        <ele>941.8</ele>
        <time>2025-08-07T15:12:40Z</time>
      </trkpt>
      <trkpt lat="45.81449" lon="2.95397">
        <ele>941.4</ele>
        <time>2025-08-07T15:12:41Z</time>
      </trkpt>
      <trkpt lat="45.81448" lon="2.95405">
        <ele>941.4</ele>
        <time>2025-08-07T15:12:42Z</time>
      </trkpt>
      <trkpt lat="45.81447" lon="2.95413">
        <ele>941.2</ele>
        <time>2025-08-07T15:12:43Z</time>
      </trkpt>
      <trkpt lat="45.81445" lon="2.9542">
        <ele>941.2</ele>
        <time>2025-08-07T15:12:44Z</time>
      </trkpt>
      <trkpt lat="45.81444" lon="2.95427">
        <ele>941.2</ele>
        <time>2025-08-07T15:12:45Z</time>
      </trkpt>
      <trkpt lat="45.81441" lon="2.95434">
        <ele>941</ele>
        <time>2025-08-07T15:12:46Z</time>
      </trkpt>
      <trkpt lat="45.81439" lon="2.95441">
        <ele>941</ele>
        <time>2025-08-07T15:12:47Z</time>
      </trkpt>
      <trkpt lat="45.81436" lon="2.95448">
        <ele>941</ele>
        <time>2025-08-07T15:12:48Z</time>
      </trkpt>
      <trkpt lat="45.81434" lon="2.95455">
        <ele>941</ele>
        <time>2025-08-07T15:12:49Z</time>
      </trkpt>
      <trkpt lat="45.81432" lon="2.95463">
        <ele>941</ele>
        <time>2025-08-07T15:12:50Z</time>
      </trkpt>
      <trkpt lat="45.8143" lon="2.95469">
        <ele>941</ele>
        <time>2025-08-07T15:12:51Z</time>
      </trkpt>
      <trkpt lat="45.81428" lon="2.95476">
        <ele>941</ele>
        <time>2025-08-07T15:12:52Z</time>
      </trkpt>
      <trkpt lat="45.81426" lon="2.95483">
        <ele>941</ele>
        <time>2025-08-07T15:12:53Z</time>
      </trkpt>
      <trkpt lat="45.81423" lon="2.9549">
        <ele>941</ele>
        <time>2025-08-07T15:12:54Z</time>
      </trkpt>
      <trkpt lat="45.81421" lon="2.95497">
        <ele>941</ele>
        <time>2025-08-07T15:12:55Z</time>
      </trkpt>
      <trkpt lat="45.81418" lon="2.95504">
        <ele>941</ele>
        <time>2025-08-07T15:12:56Z</time>
      </trkpt>
      <trkpt lat="45.81416" lon="2.95512">
        <ele>941</ele>
        <time>2025-08-07T15:12:57Z</time>
      </trkpt>
      <trkpt lat="45.81414" lon="2.9552">
        <ele>941</ele>
        <time>2025-08-07T15:12:58Z</time>
      </trkpt>
      <trkpt lat="45.81413" lon="2.95528">
        <ele>941.2</ele>
        <time>2025-08-07T15:12:59Z</time>
      </trkpt>
      <trkpt lat="45.81411" lon="2.95535">
        <ele>941.2</ele>
        <time>2025-08-07T15:13:00Z</time>
      </trkpt>
      <trkpt lat="45.8141" lon="2.95543">
        <ele>941.2</ele>
        <time>2025-08-07T15:13:01Z</time>
      </trkpt>
      <trkpt lat="45.8141" lon="2.9555">
        <ele>941.2</ele>
        <time>2025-08-07T15:13:02Z</time>
      </trkpt>
      <trkpt lat="45.8141" lon="2.95558">
        <ele>941</ele>
        <time>2025-08-07T15:13:03Z</time>
      </trkpt>
      <trkpt lat="45.8141" lon="2.95565">
        <ele>941</ele>
        <time>2025-08-07T15:13:04Z</time>
      </trkpt>
      <trkpt lat="45.8141" lon="2.95571">
        <ele>941.2</ele>
        <time>2025-08-07T15:13:05Z</time>
      </trkpt>
      <trkpt lat="45.81409" lon="2.95579">
        <ele>941.2</ele>
        <time>2025-08-07T15:13:06Z</time>
      </trkpt>
      <trkpt lat="45.8141" lon="2.95586">
        <ele>941.2</ele>
        <time>2025-08-07T15:13:07Z</time>
      </trkpt>
      <trkpt lat="45.8141" lon="2.95593">
        <ele>941.2</ele>
        <time>2025-08-07T15:13:08Z</time>
      </trkpt>
      <trkpt lat="45.81412" lon="2.956">
        <ele>941.2</ele>
        <time>2025-08-07T15:13:09Z</time>
      </trkpt>
      <trkpt lat="45.81412" lon="2.95608">
        <ele>941.2</ele>
        <time>2025-08-07T15:13:10Z</time>
      </trkpt>
      <trkpt lat="45.81413" lon="2.95616">
        <ele>941.2</ele>
        <time>2025-08-07T15:13:11Z</time>
      </trkpt>
      <trkpt lat="45.81414" lon="2.95624">
        <ele>941.2</ele>
        <time>2025-08-07T15:13:12Z</time>
      </trkpt>
      <trkpt lat="45.81415" lon="2.95632">
        <ele>941.2</ele>
        <time>2025-08-07T15:13:13Z</time>
      </trkpt>
      <trkpt lat="45.81416" lon="2.9564">
        <ele>941.2</ele>
        <time>2025-08-07T15:13:14Z</time>
      </trkpt>
      <trkpt lat="45.81416" lon="2.95647">
        <ele>941.2</ele>
        <time>2025-08-07T15:13:15Z</time>
      </trkpt>
      <trkpt lat="45.81415" lon="2.95655">
        <ele>941.2</ele>
        <time>2025-08-07T15:13:16Z</time>
      </trkpt>
      <trkpt lat="45.81415" lon="2.95662">
        <ele>941.2</ele>
        <time>2025-08-07T15:13:17Z</time>
      </trkpt>
      <trkpt lat="45.81416" lon="2.95668">
        <ele>941.2</ele>
        <time>2025-08-07T15:13:18Z</time>
      </trkpt>
      <trkpt lat="45.81417" lon="2.95675">
        <ele>941.2</ele>
        <time>2025-08-07T15:13:19Z</time>
      </trkpt>
      <trkpt lat="45.81418" lon="2.95683">
        <ele>941.2</ele>
        <time>2025-08-07T15:13:20Z</time>
      </trkpt>
      <trkpt lat="45.81418" lon="2.9569">
        <ele>941.2</ele>
        <time>2025-08-07T15:13:21Z</time>
      </trkpt>
      <trkpt lat="45.81418" lon="2.95697">
        <ele>941.2</ele>
        <time>2025-08-07T15:13:22Z</time>
      </trkpt>
      <trkpt lat="45.81419" lon="2.95704">
        <ele>941.2</ele>
        <time>2025-08-07T15:13:23Z</time>
      </trkpt>
      <trkpt lat="45.81419" lon="2.95712">
        <ele>941.2</ele>
        <time>2025-08-07T15:13:24Z</time>
      </trkpt>
      <trkpt lat="45.81419" lon="2.95719">
        <ele>941.2</ele>
        <time>2025-08-07T15:13:25Z</time>
      </trkpt>
      <trkpt lat="45.81418" lon="2.95727">
        <ele>941.2</ele>
        <time>2025-08-07T15:13:26Z</time>
      </trkpt>
      <trkpt lat="45.81418" lon="2.95735">
        <ele>941.2</ele>
        <time>2025-08-07T15:13:27Z</time>
      </trkpt>
      <trkpt lat="45.81418" lon="2.95742">
        <ele>941.2</ele>
        <time>2025-08-07T15:13:28Z</time>
      </trkpt>
      <trkpt lat="45.8142" lon="2.95747">
        <ele>941.2</ele>
        <time>2025-08-07T15:13:29Z</time>
      </trkpt>
      <trkpt lat="45.81421" lon="2.95752">
        <ele>941.4</ele>
        <time>2025-08-07T15:13:30Z</time>
      </trkpt>
      <trkpt lat="45.81422" lon="2.95757">
        <ele>941.4</ele>
        <time>2025-08-07T15:13:31Z</time>
      </trkpt>
      <trkpt lat="45.81424" lon="2.95762">
        <ele>941.4</ele>
        <time>2025-08-07T15:13:32Z</time>
      </trkpt>
      <trkpt lat="45.81425" lon="2.95766">
        <ele>941.4</ele>
        <time>2025-08-07T15:13:33Z</time>
      </trkpt>
      <trkpt lat="45.81426" lon="2.9577">
        <ele>941.6</ele>
        <time>2025-08-07T15:13:34Z</time>
      </trkpt>
      <trkpt lat="45.81427" lon="2.95774">
        <ele>941.6</ele>
        <time>2025-08-07T15:13:35Z</time>
      </trkpt>
      <trkpt lat="45.81427" lon="2.95777">
        <ele>941.6</ele>
        <time>2025-08-07T15:13:36Z</time>
      </trkpt>
      <trkpt lat="45.81427" lon="2.9578">
        <ele>941.6</ele>
        <time>2025-08-07T15:13:37Z</time>
      </trkpt>
      <trkpt lat="45.81428" lon="2.95784">
        <ele>941.6</ele>
        <time>2025-08-07T15:13:38Z</time>
      </trkpt>
      <trkpt lat="45.8143" lon="2.95788">
        <ele>941.6</ele>
        <time>2025-08-07T15:13:39Z</time>
      </trkpt>
      <trkpt lat="45.81432" lon="2.95793">
        <ele>941.6</ele>
        <time>2025-08-07T15:13:40Z</time>
      </trkpt>
      <trkpt lat="45.81434" lon="2.95798">
        <ele>941.6</ele>
        <time>2025-08-07T15:13:41Z</time>
      </trkpt>
      <trkpt lat="45.81434" lon="2.95803">
        <ele>941.6</ele>
        <time>2025-08-07T15:13:42Z</time>
      </trkpt>
      <trkpt lat="45.81431" lon="2.95807">
        <ele>941.8</ele>
        <time>2025-08-07T15:13:43Z</time>
      </trkpt>
      <trkpt lat="45.8143" lon="2.95811">
        <ele>942</ele>
        <time>2025-08-07T15:13:44Z</time>
      </trkpt>
      <trkpt lat="45.8143" lon="2.95815">
        <ele>942</ele>
        <time>2025-08-07T15:13:45Z</time>
      </trkpt>
      <trkpt lat="45.81433" lon="2.95818">
        <ele>942.2</ele>
        <time>2025-08-07T15:13:46Z</time>
      </trkpt>
      <trkpt lat="45.81436" lon="2.95821">
        <ele>942.2</ele>
        <time>2025-08-07T15:13:47Z</time>
      </trkpt>
      <trkpt lat="45.81438" lon="2.95824">
        <ele>942.2</ele>
        <time>2025-08-07T15:13:48Z</time>
      </trkpt>
      <trkpt lat="45.8144" lon="2.95826">
        <ele>942.4</ele>
        <time>2025-08-07T15:13:49Z</time>
      </trkpt>
      <trkpt lat="45.81443" lon="2.95825">
        <ele>942.4</ele>
        <time>2025-08-07T15:13:50Z</time>
      </trkpt>
      <trkpt lat="45.81445" lon="2.95824">
        <ele>942.4</ele>
        <time>2025-08-07T15:13:51Z</time>
      </trkpt>
      <trkpt lat="45.81445" lon="2.95822">
        <ele>942.4</ele>
        <time>2025-08-07T15:13:52Z</time>
      </trkpt>
      <trkpt lat="45.81443" lon="2.95821">
        <ele>942.2</ele>
        <time>2025-08-07T15:13:53Z</time>
      </trkpt>
      <trkpt lat="45.8144" lon="2.9582">
        <ele>942.2</ele>
        <time>2025-08-07T15:13:54Z</time>
      </trkpt>
      <trkpt lat="45.81438" lon="2.95818">
        <ele>942.2</ele>
        <time>2025-08-07T15:13:55Z</time>
      </trkpt>
      <trkpt lat="45.81437" lon="2.95817">
        <ele>942.2</ele>
        <time>2025-08-07T15:13:56Z</time>
      </trkpt>
      <trkpt lat="45.81434" lon="2.95817">
        <ele>942.4</ele>
        <time>2025-08-07T15:13:57Z</time>
      </trkpt>
      <trkpt lat="45.8143" lon="2.95817">
        <ele>942.4</ele>
        <time>2025-08-07T15:13:58Z</time>
      </trkpt>
      <trkpt lat="45.81427" lon="2.95819">
        <ele>942.4</ele>
        <time>2025-08-07T15:13:59Z</time>
      </trkpt>
      <trkpt lat="45.81424" lon="2.95822">
        <ele>942.4</ele>
        <time>2025-08-07T15:14:00Z</time>
      </trkpt>
      <trkpt lat="45.81422" lon="2.95824">
        <ele>942.4</ele>
        <time>2025-08-07T15:14:01Z</time>
      </trkpt>
      <trkpt lat="45.81423" lon="2.95826">
        <ele>942.4</ele>
        <time>2025-08-07T15:14:02Z</time>
      </trkpt>
      <trkpt lat="45.81427" lon="2.9583">
        <ele>942.6</ele>
        <time>2025-08-07T15:14:03Z</time>
      </trkpt>
      <trkpt lat="45.8143" lon="2.95833">
        <ele>942.6</ele>
        <time>2025-08-07T15:14:04Z</time>
      </trkpt>
      <trkpt lat="45.81432" lon="2.95837">
        <ele>942.8</ele>
        <time>2025-08-07T15:14:05Z</time>
      </trkpt>
      <trkpt lat="45.81433" lon="2.95842">
        <ele>942.8</ele>
        <time>2025-08-07T15:14:06Z</time>
      </trkpt>
      <trkpt lat="45.81432" lon="2.95847">
        <ele>943</ele>
        <time>2025-08-07T15:14:07Z</time>
      </trkpt>
      <trkpt lat="45.81432" lon="2.95852">
        <ele>943</ele>
        <time>2025-08-07T15:14:08Z</time>
      </trkpt>
      <trkpt lat="45.81432" lon="2.95857">
        <ele>943.2</ele>
        <time>2025-08-07T15:14:09Z</time>
      </trkpt>
      <trkpt lat="45.81431" lon="2.95862">
        <ele>943.4</ele>
        <time>2025-08-07T15:14:10Z</time>
      </trkpt>
      <trkpt lat="45.81432" lon="2.95866">
        <ele>943.6</ele>
        <time>2025-08-07T15:14:11Z</time>
      </trkpt>
      <trkpt lat="45.81432" lon="2.9587">
        <ele>943.8</ele>
        <time>2025-08-07T15:14:12Z</time>
      </trkpt>
      <trkpt lat="45.81431" lon="2.95874">
        <ele>944</ele>
        <time>2025-08-07T15:14:13Z</time>
      </trkpt>
      <trkpt lat="45.8143" lon="2.95879">
        <ele>944.2</ele>
        <time>2025-08-07T15:14:14Z</time>
      </trkpt>
      <trkpt lat="45.8143" lon="2.95883">
        <ele>944.4</ele>
        <time>2025-08-07T15:14:15Z</time>
      </trkpt>
      <trkpt lat="45.81431" lon="2.95888">
        <ele>944.4</ele>
        <time>2025-08-07T15:14:16Z</time>
      </trkpt>
      <trkpt lat="45.81431" lon="2.95892">
        <ele>944.6</ele>
        <time>2025-08-07T15:14:17Z</time>
      </trkpt>
      <trkpt lat="45.8143" lon="2.95897">
        <ele>944.8</ele>
        <time>2025-08-07T15:14:18Z</time>
      </trkpt>
      <trkpt lat="45.81429" lon="2.95903">
        <ele>945</ele>
        <time>2025-08-07T15:14:19Z</time>
      </trkpt>
      <trkpt lat="45.81429" lon="2.95909">
        <ele>945</ele>
        <time>2025-08-07T15:14:20Z</time>
      </trkpt>
      <trkpt lat="45.81429" lon="2.95916">
        <ele>945.2</ele>
        <time>2025-08-07T15:14:21Z</time>
      </trkpt>
      <trkpt lat="45.81429" lon="2.95922">
        <ele>945.2</ele>
        <time>2025-08-07T15:14:22Z</time>
      </trkpt>
      <trkpt lat="45.81431" lon="2.95925">
        <ele>945.2</ele>
        <time>2025-08-07T15:14:23Z</time>
      </trkpt>
      <trkpt lat="45.81432" lon="2.95926">
        <ele>945.2</ele>
        <time>2025-08-07T15:14:24Z</time>
      </trkpt>
      <trkpt lat="45.81433" lon="2.95928">
        <ele>945.2</ele>
        <time>2025-08-07T15:14:25Z</time>
      </trkpt>
      <trkpt lat="45.81434" lon="2.95931">
        <ele>945.4</ele>
        <time>2025-08-07T15:14:26Z</time>
      </trkpt>
      <trkpt lat="45.81434" lon="2.95934">
        <ele>945.4</ele>
        <time>2025-08-07T15:14:27Z</time>
      </trkpt>
      <trkpt lat="45.81435" lon="2.95936">
        <ele>945.4</ele>
        <time>2025-08-07T15:14:28Z</time>
      </trkpt>
      <trkpt lat="45.81437" lon="2.95937">
        <ele>945.4</ele>
        <time>2025-08-07T15:14:29Z</time>
      </trkpt>
      <trkpt lat="45.81437" lon="2.95939">
        <ele>945.4</ele>
        <time>2025-08-07T15:14:30Z</time>
      </trkpt>
      <trkpt lat="45.81432" lon="2.95941">
        <ele>945.4</ele>
        <time>2025-08-07T15:14:31Z</time>
      </trkpt>
      <trkpt lat="45.81432" lon="2.95942">
        <ele>945.4</ele>
        <time>2025-08-07T15:14:32Z</time>
      </trkpt>
      <trkpt lat="45.81433" lon="2.95943">
        <ele>945.6</ele>
        <time>2025-08-07T15:14:33Z</time>
      </trkpt>
      <trkpt lat="45.81435" lon="2.95945">
        <ele>945.6</ele>
        <time>2025-08-07T15:14:34Z</time>
      </trkpt>
      <trkpt lat="45.81435" lon="2.95949">
        <ele>945.6</ele>
        <time>2025-08-07T15:14:35Z</time>
      </trkpt>
      <trkpt lat="45.81435" lon="2.95952">
        <ele>945.8</ele>
        <time>2025-08-07T15:14:36Z</time>
      </trkpt>
      <trkpt lat="45.81434" lon="2.95958">
        <ele>945.8</ele>
        <time>2025-08-07T15:14:37Z</time>
      </trkpt>
      <trkpt lat="45.81433" lon="2.95962">
        <ele>945.8</ele>
        <time>2025-08-07T15:14:38Z</time>
      </trkpt>
      <trkpt lat="45.81432" lon="2.95971">
        <ele>945.8</ele>
        <time>2025-08-07T15:14:39Z</time>
      </trkpt>
      <trkpt lat="45.81432" lon="2.95972">
        <ele>946</ele>
        <time>2025-08-07T15:14:40Z</time>
      </trkpt>
      <trkpt lat="45.81432" lon="2.95973">
        <ele>946</ele>
        <time>2025-08-07T15:14:41Z</time>
      </trkpt>
      <trkpt lat="45.81431" lon="2.95975">
        <ele>946</ele>
        <time>2025-08-07T15:14:42Z</time>
      </trkpt>
      <trkpt lat="45.81431" lon="2.95976">
        <ele>946.2</ele>
        <time>2025-08-07T15:14:43Z</time>
      </trkpt>
      <trkpt lat="45.81431" lon="2.95977">
        <ele>946.2</ele>
        <time>2025-08-07T15:14:44Z</time>
      </trkpt>
      <trkpt lat="45.81431" lon="2.95979">
        <ele>946.2</ele>
        <time>2025-08-07T15:14:45Z</time>
      </trkpt>
      <trkpt lat="45.8143" lon="2.9598">
        <ele>946.4</ele>
        <time>2025-08-07T15:14:46Z</time>
      </trkpt>
      <trkpt lat="45.81428" lon="2.95982">
        <ele>946.4</ele>
        <time>2025-08-07T15:14:47Z</time>
      </trkpt>
      <trkpt lat="45.81426" lon="2.95986">
        <ele>946.4</ele>
        <time>2025-08-07T15:14:48Z</time>
      </trkpt>
      <trkpt lat="45.81424" lon="2.95989">
        <ele>946.4</ele>
        <time>2025-08-07T15:14:49Z</time>
      </trkpt>
      <trkpt lat="45.81423" lon="2.95994">
        <ele>946.6</ele>
        <time>2025-08-07T15:14:50Z</time>
      </trkpt>
      <trkpt lat="45.81424" lon="2.95999">
        <ele>946.6</ele>
        <time>2025-08-07T15:14:51Z</time>
      </trkpt>
      <trkpt lat="45.81424" lon="2.96002">
        <ele>946.8</ele>
        <time>2025-08-07T15:14:52Z</time>
      </trkpt>
      <trkpt lat="45.81426" lon="2.96008">
        <ele>946.8</ele>
        <time>2025-08-07T15:14:53Z</time>
      </trkpt>
      <trkpt lat="45.81428" lon="2.96013">
        <ele>947</ele>
        <time>2025-08-07T15:14:54Z</time>
      </trkpt>
      <trkpt lat="45.8143" lon="2.96019">
        <ele>947</ele>
        <time>2025-08-07T15:14:55Z</time>
      </trkpt>
      <trkpt lat="45.81432" lon="2.96025">
        <ele>947.2</ele>
        <time>2025-08-07T15:14:56Z</time>
      </trkpt>
      <trkpt lat="45.81436" lon="2.96032">
        <ele>947.2</ele>
        <time>2025-08-07T15:14:57Z</time>
      </trkpt>
      <trkpt lat="45.8144" lon="2.96039">
        <ele>947.4</ele>
        <time>2025-08-07T15:14:58Z</time>
      </trkpt>
      <trkpt lat="45.81441" lon="2.96047">
        <ele>947.4</ele>
        <time>2025-08-07T15:14:59Z</time>
      </trkpt>
      <trkpt lat="45.81443" lon="2.96054">
        <ele>947.6</ele>
        <time>2025-08-07T15:15:00Z</time>
      </trkpt>
      <trkpt lat="45.81445" lon="2.96061">
        <ele>947.6</ele>
        <time>2025-08-07T15:15:01Z</time>
      </trkpt>
      <trkpt lat="45.81447" lon="2.96066">
        <ele>947.8</ele>
        <time>2025-08-07T15:15:02Z</time>
      </trkpt>
      <trkpt lat="45.8145" lon="2.9607">
        <ele>947.8</ele>
        <time>2025-08-07T15:15:03Z</time>
      </trkpt>
      <trkpt lat="45.81452" lon="2.96075">
        <ele>947.8</ele>
        <time>2025-08-07T15:15:04Z</time>
      </trkpt>
      <trkpt lat="45.81455" lon="2.96078">
        <ele>947.8</ele>
        <time>2025-08-07T15:15:05Z</time>
      </trkpt>
      <trkpt lat="45.81457" lon="2.96079">
        <ele>947.8</ele>
        <time>2025-08-07T15:15:06Z</time>
      </trkpt>
      <trkpt lat="45.8146" lon="2.96081">
        <ele>947.8</ele>
        <time>2025-08-07T15:15:07Z</time>
      </trkpt>
      <trkpt lat="45.81461" lon="2.96084">
        <ele>948</ele>
        <time>2025-08-07T15:15:08Z</time>
      </trkpt>
      <trkpt lat="45.81461" lon="2.96089">
        <ele>948</ele>
        <time>2025-08-07T15:15:09Z</time>
      </trkpt>
      <trkpt lat="45.81463" lon="2.96093">
        <ele>948</ele>
        <time>2025-08-07T15:15:10Z</time>
      </trkpt>
      <trkpt lat="45.81464" lon="2.96098">
        <ele>948.2</ele>
        <time>2025-08-07T15:15:11Z</time>
      </trkpt>
      <trkpt lat="45.81466" lon="2.96102">
        <ele>948.4</ele>
        <time>2025-08-07T15:15:12Z</time>
      </trkpt>
      <trkpt lat="45.81468" lon="2.96105">
        <ele>948.4</ele>
        <time>2025-08-07T15:15:13Z</time>
      </trkpt>
      <trkpt lat="45.81469" lon="2.96107">
        <ele>948.6</ele>
        <time>2025-08-07T15:15:14Z</time>
      </trkpt>
      <trkpt lat="45.8147" lon="2.96111">
        <ele>948.8</ele>
        <time>2025-08-07T15:15:15Z</time>
      </trkpt>
      <trkpt lat="45.81472" lon="2.96116">
        <ele>948.8</ele>
        <time>2025-08-07T15:15:16Z</time>
      </trkpt>
      <trkpt lat="45.81473" lon="2.9612">
        <ele>948.8</ele>
        <time>2025-08-07T15:15:17Z</time>
      </trkpt>
      <trkpt lat="45.81474" lon="2.96123">
        <ele>948.8</ele>
        <time>2025-08-07T15:15:18Z</time>
      </trkpt>
      <trkpt lat="45.81476" lon="2.96127">
        <ele>948.8</ele>
        <time>2025-08-07T15:15:19Z</time>
      </trkpt>
      <trkpt lat="45.81478" lon="2.96132">
        <ele>948.8</ele>
        <time>2025-08-07T15:15:20Z</time>
      </trkpt>
      <trkpt lat="45.8148" lon="2.96137">
        <ele>948.6</ele>
        <time>2025-08-07T15:15:21Z</time>
      </trkpt>
      <trkpt lat="45.81481" lon="2.96144">
        <ele>948.4</ele>
        <time>2025-08-07T15:15:22Z</time>
      </trkpt>
      <trkpt lat="45.81484" lon="2.96154">
        <ele>948.2</ele>
        <time>2025-08-07T15:15:23Z</time>
      </trkpt>
      <trkpt lat="45.8149" lon="2.96162">
        <ele>948.2</ele>
        <time>2025-08-07T15:15:24Z</time>
      </trkpt>
      <trkpt lat="45.81493" lon="2.96168">
        <ele>948</ele>
        <time>2025-08-07T15:15:25Z</time>
      </trkpt>
      <trkpt lat="45.81496" lon="2.96175">
        <ele>947.8</ele>
        <time>2025-08-07T15:15:26Z</time>
      </trkpt>
      <trkpt lat="45.81499" lon="2.96182">
        <ele>947.6</ele>
        <time>2025-08-07T15:15:27Z</time>
      </trkpt>
      <trkpt lat="45.81502" lon="2.96193">
        <ele>947.6</ele>
        <time>2025-08-07T15:15:28Z</time>
      </trkpt>
      <trkpt lat="45.81506" lon="2.96204">
        <ele>947.4</ele>
        <time>2025-08-07T15:15:29Z</time>
      </trkpt>
      <trkpt lat="45.8151" lon="2.96214">
        <ele>947.4</ele>
        <time>2025-08-07T15:15:30Z</time>
      </trkpt>
      <trkpt lat="45.81514" lon="2.96221">
        <ele>947.4</ele>
        <time>2025-08-07T15:15:31Z</time>
      </trkpt>
      <trkpt lat="45.81518" lon="2.96227">
        <ele>947.4</ele>
        <time>2025-08-07T15:15:32Z</time>
      </trkpt>
      <trkpt lat="45.81523" lon="2.96233">
        <ele>947.4</ele>
        <time>2025-08-07T15:15:33Z</time>
      </trkpt>
      <trkpt lat="45.81526" lon="2.96239">
        <ele>947.4</ele>
        <time>2025-08-07T15:15:34Z</time>
      </trkpt>
      <trkpt lat="45.81528" lon="2.96243">
        <ele>947.6</ele>
        <time>2025-08-07T15:15:35Z</time>
      </trkpt>
      <trkpt lat="45.8153" lon="2.96247">
        <ele>947.6</ele>
        <time>2025-08-07T15:15:36Z</time>
      </trkpt>
      <trkpt lat="45.81533" lon="2.9625">
        <ele>947.6</ele>
        <time>2025-08-07T15:15:37Z</time>
      </trkpt>
      <trkpt lat="45.81536" lon="2.96253">
        <ele>947.6</ele>
        <time>2025-08-07T15:15:38Z</time>
      </trkpt>
      <trkpt lat="45.81543" lon="2.96261">
        <ele>947.6</ele>
        <time>2025-08-07T15:15:39Z</time>
      </trkpt>
      <trkpt lat="45.81546" lon="2.96269">
        <ele>947.6</ele>
        <time>2025-08-07T15:15:40Z</time>
      </trkpt>
      <trkpt lat="45.81549" lon="2.96277">
        <ele>947.6</ele>
        <time>2025-08-07T15:15:41Z</time>
      </trkpt>
      <trkpt lat="45.81552" lon="2.96283">
        <ele>947.6</ele>
        <time>2025-08-07T15:15:42Z</time>
      </trkpt>
      <trkpt lat="45.81555" lon="2.9629">
        <ele>947.6</ele>
        <time>2025-08-07T15:15:43Z</time>
      </trkpt>
      <trkpt lat="45.81558" lon="2.96294">
        <ele>947.6</ele>
        <time>2025-08-07T15:15:44Z</time>
      </trkpt>
      <trkpt lat="45.8156" lon="2.96299">
        <ele>947.6</ele>
        <time>2025-08-07T15:15:45Z</time>
      </trkpt>
      <trkpt lat="45.81563" lon="2.96305">
        <ele>947.6</ele>
        <time>2025-08-07T15:15:46Z</time>
      </trkpt>
      <trkpt lat="45.81566" lon="2.96312">
        <ele>947.6</ele>
        <time>2025-08-07T15:15:47Z</time>
      </trkpt>
      <trkpt lat="45.81571" lon="2.96321">
        <ele>947.8</ele>
        <time>2025-08-07T15:15:48Z</time>
      </trkpt>
      <trkpt lat="45.81576" lon="2.96329">
        <ele>947.8</ele>
        <time>2025-08-07T15:15:49Z</time>
      </trkpt>
      <trkpt lat="45.8158" lon="2.96336">
        <ele>947.8</ele>
        <time>2025-08-07T15:15:50Z</time>
      </trkpt>
      <trkpt lat="45.81582" lon="2.96342">
        <ele>947.8</ele>
        <time>2025-08-07T15:15:51Z</time>
      </trkpt>
      <trkpt lat="45.81584" lon="2.96349">
        <ele>947.8</ele>
        <time>2025-08-07T15:15:52Z</time>
      </trkpt>
      <trkpt lat="45.81587" lon="2.96359">
        <ele>947.8</ele>
        <time>2025-08-07T15:15:53Z</time>
      </trkpt>
      <trkpt lat="45.81594" lon="2.9637">
        <ele>947.8</ele>
        <time>2025-08-07T15:15:54Z</time>
      </trkpt>
      <trkpt lat="45.81597" lon="2.96381">
        <ele>947.8</ele>
        <time>2025-08-07T15:15:55Z</time>
      </trkpt>
      <trkpt lat="45.816" lon="2.96392">
        <ele>947.8</ele>
        <time>2025-08-07T15:15:56Z</time>
      </trkpt>
      <trkpt lat="45.81603" lon="2.964">
        <ele>947.8</ele>
        <time>2025-08-07T15:15:57Z</time>
      </trkpt>
      <trkpt lat="45.81605" lon="2.96404">
        <ele>947.8</ele>
        <time>2025-08-07T15:15:58Z</time>
      </trkpt>
      <trkpt lat="45.81608" lon="2.96406">
        <ele>947.8</ele>
        <time>2025-08-07T15:15:59Z</time>
      </trkpt>
      <trkpt lat="45.81611" lon="2.96413">
        <ele>947.8</ele>
        <time>2025-08-07T15:16:00Z</time>
      </trkpt>
      <trkpt lat="45.81614" lon="2.9642">
        <ele>947.8</ele>
        <time>2025-08-07T15:16:01Z</time>
      </trkpt>
      <trkpt lat="45.81618" lon="2.96427">
        <ele>947.6</ele>
        <time>2025-08-07T15:16:02Z</time>
      </trkpt>
      <trkpt lat="45.81622" lon="2.96434">
        <ele>947.6</ele>
        <time>2025-08-07T15:16:03Z</time>
      </trkpt>
      <trkpt lat="45.81627" lon="2.96442">
        <ele>947.4</ele>
        <time>2025-08-07T15:16:04Z</time>
      </trkpt>
      <trkpt lat="45.81629" lon="2.96448">
        <ele>947.4</ele>
        <time>2025-08-07T15:16:05Z</time>
      </trkpt>
      <trkpt lat="45.81631" lon="2.96454">
        <ele>947.2</ele>
        <time>2025-08-07T15:16:06Z</time>
      </trkpt>
      <trkpt lat="45.81634" lon="2.96462">
        <ele>947</ele>
        <time>2025-08-07T15:16:07Z</time>
      </trkpt>
      <trkpt lat="45.81636" lon="2.9647">
        <ele>947</ele>
        <time>2025-08-07T15:16:08Z</time>
      </trkpt>
      <trkpt lat="45.81639" lon="2.96477">
        <ele>947</ele>
        <time>2025-08-07T15:16:09Z</time>
      </trkpt>
      <trkpt lat="45.81642" lon="2.96483">
        <ele>947</ele>
        <time>2025-08-07T15:16:10Z</time>
      </trkpt>
      <trkpt lat="45.81645" lon="2.96489">
        <ele>946.8</ele>
        <time>2025-08-07T15:16:11Z</time>
      </trkpt>
      <trkpt lat="45.81646" lon="2.96494">
        <ele>946.8</ele>
        <time>2025-08-07T15:16:12Z</time>
      </trkpt>
      <trkpt lat="45.81651" lon="2.96499">
        <ele>947</ele>
        <time>2025-08-07T15:16:13Z</time>
      </trkpt>
      <trkpt lat="45.81655" lon="2.96507">
        <ele>947</ele>
        <time>2025-08-07T15:16:14Z</time>
      </trkpt>
      <trkpt lat="45.81659" lon="2.96514">
        <ele>947</ele>
        <time>2025-08-07T15:16:15Z</time>
      </trkpt>
      <trkpt lat="45.81663" lon="2.9652">
        <ele>947</ele>
        <time>2025-08-07T15:16:16Z</time>
      </trkpt>
      <trkpt lat="45.81667" lon="2.96528">
        <ele>947.2</ele>
        <time>2025-08-07T15:16:17Z</time>
      </trkpt>
      <trkpt lat="45.8167" lon="2.96535">
        <ele>947.2</ele>
        <time>2025-08-07T15:16:18Z</time>
      </trkpt>
      <trkpt lat="45.81675" lon="2.96538">
        <ele>947.2</ele>
        <time>2025-08-07T15:16:19Z</time>
      </trkpt>
      <trkpt lat="45.81679" lon="2.96535">
        <ele>947.2</ele>
        <time>2025-08-07T15:16:20Z</time>
      </trkpt>
      <trkpt lat="45.81682" lon="2.96531">
        <ele>947.2</ele>
        <time>2025-08-07T15:16:21Z</time>
      </trkpt>
      <trkpt lat="45.81687" lon="2.96525">
        <ele>947</ele>
        <time>2025-08-07T15:16:22Z</time>
      </trkpt>
      <trkpt lat="45.81693" lon="2.96517">
        <ele>947</ele>
        <time>2025-08-07T15:16:23Z</time>
      </trkpt>
      <trkpt lat="45.81697" lon="2.96512">
        <ele>946.8</ele>
        <time>2025-08-07T15:16:24Z</time>
      </trkpt>
      <trkpt lat="45.81698" lon="2.96508">
        <ele>946.6</ele>
        <time>2025-08-07T15:16:25Z</time>
      </trkpt>
      <trkpt lat="45.81697" lon="2.96507">
        <ele>946.6</ele>
        <time>2025-08-07T15:16:26Z</time>
      </trkpt>
      <trkpt lat="45.81696" lon="2.96506">
        <ele>946.4</ele>
        <time>2025-08-07T15:16:27Z</time>
      </trkpt>
      <trkpt lat="45.81696" lon="2.96505">
        <ele>946.2</ele>
        <time>2025-08-07T15:16:28Z</time>
      </trkpt>
      <trkpt lat="45.81696" lon="2.96505">
        <ele>946.2</ele>
        <time>2025-08-07T15:16:29Z</time>
      </trkpt>
      <trkpt lat="45.81698" lon="2.96503">
        <ele>946</ele>
        <time>2025-08-07T15:16:30Z</time>
      </trkpt>
      <trkpt lat="45.81698" lon="2.96502">
        <ele>946</ele>
        <time>2025-08-07T15:16:31Z</time>
      </trkpt>
      <trkpt lat="45.81698" lon="2.96502">
        <ele>946</ele>
        <time>2025-08-07T15:16:32Z</time>
      </trkpt>
      <trkpt lat="45.81698" lon="2.96501">
        <ele>946</ele>
        <time>2025-08-07T15:16:33Z</time>
      </trkpt>
      <trkpt lat="45.81698" lon="2.96501">
        <ele>946</ele>
        <time>2025-08-07T15:16:34Z</time>
      </trkpt>
      <trkpt lat="45.81698" lon="2.96501">
        <ele>946</ele>
        <time>2025-08-07T15:16:35Z</time>
      </trkpt>
      <trkpt lat="45.81697" lon="2.96501">
        <ele>946</ele>
        <time>2025-08-07T15:16:36Z</time>
      </trkpt>
      <trkpt lat="45.81697" lon="2.96501">
        <ele>946</ele>
        <time>2025-08-07T15:16:37Z</time>
      </trkpt>
      <trkpt lat="45.81697" lon="2.96501">
        <ele>946</ele>
        <time>2025-08-07T15:16:38Z</time>
      </trkpt>
      <trkpt lat="45.81697" lon="2.96501">
        <ele>945.8</ele>
        <time>2025-08-07T15:16:39Z</time>
      </trkpt>
      <trkpt lat="45.81697" lon="2.96501">
        <ele>945.8</ele>
        <time>2025-08-07T15:16:40Z</time>
      </trkpt>
      <trkpt lat="45.81697" lon="2.96501">
        <ele>945.8</ele>
        <time>2025-08-07T15:16:41Z</time>
      </trkpt>
      <trkpt lat="45.81697" lon="2.96501">
        <ele>945.8</ele>
        <time>2025-08-07T15:16:42Z</time>
      </trkpt>
      <trkpt lat="45.81697" lon="2.96501">
        <ele>945.8</ele>
        <time>2025-08-07T15:16:43Z</time>
      </trkpt>
      <trkpt lat="45.81697" lon="2.96501">
        <ele>945.8</ele>
        <time>2025-08-07T15:16:44Z</time>
      </trkpt>
      <trkpt lat="45.81696" lon="2.96501">
        <ele>945.8</ele>
        <time>2025-08-07T15:16:45Z</time>
      </trkpt>
      <trkpt lat="45.81696" lon="2.96501">
        <ele>946</ele>
        <time>2025-08-07T15:16:46Z</time>
      </trkpt>
      <trkpt lat="45.81694" lon="2.96501">
        <ele>946</ele>
        <time>2025-08-07T15:16:47Z</time>
      </trkpt>
      <trkpt lat="45.81693" lon="2.96501">
        <ele>946</ele>
        <time>2025-08-07T15:16:48Z</time>
      </trkpt>
      <trkpt lat="45.81692" lon="2.96502">
        <ele>946</ele>
        <time>2025-08-07T15:16:49Z</time>
      </trkpt>
      <trkpt lat="45.8169" lon="2.96503">
        <ele>946</ele>
        <time>2025-08-07T15:16:50Z</time>
      </trkpt>
      <trkpt lat="45.8169" lon="2.96504">
        <ele>946.2</ele>
        <time>2025-08-07T15:16:51Z</time>
      </trkpt>
      <trkpt lat="45.81688" lon="2.96507">
        <ele>946.2</ele>
        <time>2025-08-07T15:16:52Z</time>
      </trkpt>
      <trkpt lat="45.81688" lon="2.96509">
        <ele>946.4</ele>
        <time>2025-08-07T15:16:53Z</time>
      </trkpt>
      <trkpt lat="45.81688" lon="2.96512">
        <ele>946.4</ele>
        <time>2025-08-07T15:16:54Z</time>
      </trkpt>
      <trkpt lat="45.81684" lon="2.96515">
        <ele>946.6</ele>
        <time>2025-08-07T15:16:55Z</time>
      </trkpt>
      <trkpt lat="45.81681" lon="2.96518">
        <ele>946.6</ele>
        <time>2025-08-07T15:16:56Z</time>
      </trkpt>
      <trkpt lat="45.81679" lon="2.96521">
        <ele>946.8</ele>
        <time>2025-08-07T15:16:57Z</time>
      </trkpt>
      <trkpt lat="45.81676" lon="2.96523">
        <ele>947</ele>
        <time>2025-08-07T15:16:58Z</time>
      </trkpt>
      <trkpt lat="45.81674" lon="2.96526">
        <ele>947</ele>
        <time>2025-08-07T15:16:59Z</time>
      </trkpt>
      <trkpt lat="45.81674" lon="2.9653">
        <ele>947.2</ele>
        <time>2025-08-07T15:17:00Z</time>
      </trkpt>
      <trkpt lat="45.81674" lon="2.96536">
        <ele>947.4</ele>
        <time>2025-08-07T15:17:01Z</time>
      </trkpt>
      <trkpt lat="45.81674" lon="2.96542">
        <ele>947.4</ele>
        <time>2025-08-07T15:17:02Z</time>
      </trkpt>
      <trkpt lat="45.81675" lon="2.96546">
        <ele>947.4</ele>
        <time>2025-08-07T15:17:03Z</time>
      </trkpt>
      <trkpt lat="45.81676" lon="2.96548">
        <ele>947.6</ele>
        <time>2025-08-07T15:17:04Z</time>
      </trkpt>
      <trkpt lat="45.81679" lon="2.96552">
        <ele>947.6</ele>
        <time>2025-08-07T15:17:05Z</time>
      </trkpt>
      <trkpt lat="45.81681" lon="2.96557">
        <ele>947.6</ele>
        <time>2025-08-07T15:17:06Z</time>
      </trkpt>
      <trkpt lat="45.81683" lon="2.96563">
        <ele>947.8</ele>
        <time>2025-08-07T15:17:07Z</time>
      </trkpt>
      <trkpt lat="45.81684" lon="2.96569">
        <ele>947.8</ele>
        <time>2025-08-07T15:17:08Z</time>
      </trkpt>
      <trkpt lat="45.81686" lon="2.96577">
        <ele>947.8</ele>
        <time>2025-08-07T15:17:09Z</time>
      </trkpt>
      <trkpt lat="45.81687" lon="2.96584">
        <ele>948</ele>
        <time>2025-08-07T15:17:10Z</time>
      </trkpt>
      <trkpt lat="45.81689" lon="2.9659">
        <ele>948.2</ele>
        <time>2025-08-07T15:17:11Z</time>
      </trkpt>
      <trkpt lat="45.81691" lon="2.96594">
        <ele>948.2</ele>
        <time>2025-08-07T15:17:12Z</time>
      </trkpt>
      <trkpt lat="45.81695" lon="2.96597">
        <ele>948.4</ele>
        <time>2025-08-07T15:17:13Z</time>
      </trkpt>
      <trkpt lat="45.81698" lon="2.96602">
        <ele>948.6</ele>
        <time>2025-08-07T15:17:14Z</time>
      </trkpt>
      <trkpt lat="45.81702" lon="2.96607">
        <ele>948.6</ele>
        <time>2025-08-07T15:17:15Z</time>
      </trkpt>
      <trkpt lat="45.81705" lon="2.96613">
        <ele>948.6</ele>
        <time>2025-08-07T15:17:16Z</time>
      </trkpt>
      <trkpt lat="45.81705" lon="2.96623">
        <ele>948.8</ele>
        <time>2025-08-07T15:17:17Z</time>
      </trkpt>
      <trkpt lat="45.81709" lon="2.96633">
        <ele>948.8</ele>
        <time>2025-08-07T15:17:18Z</time>
      </trkpt>
      <trkpt lat="45.81713" lon="2.96643">
        <ele>948.8</ele>
        <time>2025-08-07T15:17:19Z</time>
      </trkpt>
      <trkpt lat="45.81716" lon="2.96649">
        <ele>948.8</ele>
        <time>2025-08-07T15:17:20Z</time>
      </trkpt>
      <trkpt lat="45.81719" lon="2.96652">
        <ele>948.8</ele>
        <time>2025-08-07T15:17:21Z</time>
      </trkpt>
      <trkpt lat="45.8172" lon="2.96655">
        <ele>949</ele>
        <time>2025-08-07T15:17:22Z</time>
      </trkpt>
      <trkpt lat="45.81722" lon="2.96656">
        <ele>949</ele>
        <time>2025-08-07T15:17:23Z</time>
      </trkpt>
      <trkpt lat="45.81723" lon="2.96656">
        <ele>949</ele>
        <time>2025-08-07T15:17:24Z</time>
      </trkpt>
      <trkpt lat="45.81726" lon="2.96657">
        <ele>949.2</ele>
        <time>2025-08-07T15:17:25Z</time>
      </trkpt>
      <trkpt lat="45.81728" lon="2.96657">
        <ele>949.2</ele>
        <time>2025-08-07T15:17:26Z</time>
      </trkpt>
      <trkpt lat="45.81728" lon="2.96657">
        <ele>949.4</ele>
        <time>2025-08-07T15:17:27Z</time>
      </trkpt>
      <trkpt lat="45.81729" lon="2.96657">
        <ele>949.4</ele>
        <time>2025-08-07T15:17:28Z</time>
      </trkpt>
      <trkpt lat="45.81731" lon="2.96656">
        <ele>949.4</ele>
        <time>2025-08-07T15:17:29Z</time>
      </trkpt>
      <trkpt lat="45.81733" lon="2.96653">
        <ele>949.4</ele>
        <time>2025-08-07T15:17:30Z</time>
      </trkpt>
      <trkpt lat="45.81737" lon="2.96649">
        <ele>949.4</ele>
        <time>2025-08-07T15:17:31Z</time>
      </trkpt>
      <trkpt lat="45.81741" lon="2.96645">
        <ele>949.6</ele>
        <time>2025-08-07T15:17:32Z</time>
      </trkpt>
      <trkpt lat="45.81744" lon="2.9664">
        <ele>949.6</ele>
        <time>2025-08-07T15:17:33Z</time>
      </trkpt>
      <trkpt lat="45.81748" lon="2.96636">
        <ele>949.6</ele>
        <time>2025-08-07T15:17:34Z</time>
      </trkpt>
      <trkpt lat="45.81751" lon="2.96632">
        <ele>949.6</ele>
        <time>2025-08-07T15:17:35Z</time>
      </trkpt>
      <trkpt lat="45.81755" lon="2.96628">
        <ele>949.8</ele>
        <time>2025-08-07T15:17:36Z</time>
      </trkpt>
      <trkpt lat="45.81759" lon="2.96624">
        <ele>949.8</ele>
        <time>2025-08-07T15:17:37Z</time>
      </trkpt>
      <trkpt lat="45.81762" lon="2.96621">
        <ele>949.8</ele>
        <time>2025-08-07T15:17:38Z</time>
      </trkpt>
      <trkpt lat="45.81765" lon="2.96617">
        <ele>950</ele>
        <time>2025-08-07T15:17:39Z</time>
      </trkpt>
      <trkpt lat="45.81768" lon="2.96613">
        <ele>950</ele>
        <time>2025-08-07T15:17:40Z</time>
      </trkpt>
      <trkpt lat="45.8177" lon="2.9661">
        <ele>950.2</ele>
        <time>2025-08-07T15:17:41Z</time>
      </trkpt>
      <trkpt lat="45.81771" lon="2.96607">
        <ele>950.2</ele>
        <time>2025-08-07T15:17:42Z</time>
      </trkpt>
      <trkpt lat="45.81774" lon="2.96602">
        <ele>950.4</ele>
        <time>2025-08-07T15:17:43Z</time>
      </trkpt>
      <trkpt lat="45.81777" lon="2.96595">
        <ele>950.4</ele>
        <time>2025-08-07T15:17:44Z</time>
      </trkpt>
      <trkpt lat="45.81779" lon="2.96592">
        <ele>950.6</ele>
        <time>2025-08-07T15:17:45Z</time>
      </trkpt>
      <trkpt lat="45.81782" lon="2.96589">
        <ele>950.6</ele>
        <time>2025-08-07T15:17:46Z</time>
      </trkpt>
      <trkpt lat="45.81786" lon="2.96584">
        <ele>950.8</ele>
        <time>2025-08-07T15:17:47Z</time>
      </trkpt>
      <trkpt lat="45.8179" lon="2.96579">
        <ele>950.8</ele>
        <time>2025-08-07T15:17:48Z</time>
      </trkpt>
      <trkpt lat="45.81795" lon="2.96575">
        <ele>951</ele>
        <time>2025-08-07T15:17:49Z</time>
      </trkpt>
      <trkpt lat="45.81801" lon="2.96571">
        <ele>951</ele>
        <time>2025-08-07T15:17:50Z</time>
      </trkpt>
      <trkpt lat="45.81804" lon="2.96568">
        <ele>951</ele>
        <time>2025-08-07T15:17:51Z</time>
      </trkpt>
      <trkpt lat="45.81806" lon="2.96561">
        <ele>951</ele>
        <time>2025-08-07T15:17:52Z</time>
      </trkpt>
      <trkpt lat="45.81811" lon="2.96555">
        <ele>951</ele>
        <time>2025-08-07T15:17:53Z</time>
      </trkpt>
      <trkpt lat="45.81814" lon="2.96551">
        <ele>951</ele>
        <time>2025-08-07T15:17:54Z</time>
      </trkpt>
      <trkpt lat="45.81817" lon="2.96547">
        <ele>950.8</ele>
        <time>2025-08-07T15:17:55Z</time>
      </trkpt>
      <trkpt lat="45.81821" lon="2.96541">
        <ele>950.8</ele>
        <time>2025-08-07T15:17:56Z</time>
      </trkpt>
      <trkpt lat="45.81826" lon="2.96536">
        <ele>950.6</ele>
        <time>2025-08-07T15:17:57Z</time>
      </trkpt>
      <trkpt lat="45.81829" lon="2.96533">
        <ele>950.6</ele>
        <time>2025-08-07T15:17:58Z</time>
      </trkpt>
      <trkpt lat="45.81833" lon="2.96527">
        <ele>950.4</ele>
        <time>2025-08-07T15:17:59Z</time>
      </trkpt>
      <trkpt lat="45.81838" lon="2.96525">
        <ele>950.4</ele>
        <time>2025-08-07T15:18:00Z</time>
      </trkpt>
      <trkpt lat="45.81843" lon="2.96524">
        <ele>950.2</ele>
        <time>2025-08-07T15:18:01Z</time>
      </trkpt>
      <trkpt lat="45.81849" lon="2.96521">
        <ele>950.2</ele>
        <time>2025-08-07T15:18:02Z</time>
      </trkpt>
      <trkpt lat="45.81852" lon="2.96518">
        <ele>950</ele>
        <time>2025-08-07T15:18:03Z</time>
      </trkpt>
      <trkpt lat="45.8185" lon="2.96514">
        <ele>950</ele>
        <time>2025-08-07T15:18:04Z</time>
      </trkpt>
      <trkpt lat="45.81849" lon="2.9651">
        <ele>949.8</ele>
        <time>2025-08-07T15:18:05Z</time>
      </trkpt>
      <trkpt lat="45.81848" lon="2.96506">
        <ele>949.8</ele>
        <time>2025-08-07T15:18:06Z</time>
      </trkpt>
      <trkpt lat="45.81846" lon="2.96502">
        <ele>949.6</ele>
        <time>2025-08-07T15:18:07Z</time>
      </trkpt>
      <trkpt lat="45.81846" lon="2.96499">
        <ele>949.4</ele>
        <time>2025-08-07T15:18:08Z</time>
      </trkpt>
      <trkpt lat="45.81846" lon="2.96499">
        <ele>949.4</ele>
        <time>2025-08-07T15:18:09Z</time>
      </trkpt>
      <trkpt lat="45.81846" lon="2.96501">
        <ele>949.2</ele>
        <time>2025-08-07T15:18:10Z</time>
      </trkpt>
      <trkpt lat="45.81847" lon="2.96501">
        <ele>949.2</ele>
        <time>2025-08-07T15:18:11Z</time>
      </trkpt>
      <trkpt lat="45.81847" lon="2.96501">
        <ele>949.2</ele>
        <time>2025-08-07T15:18:12Z</time>
      </trkpt>
      <trkpt lat="45.81847" lon="2.96501">
        <ele>949.2</ele>
        <time>2025-08-07T15:18:13Z</time>
      </trkpt>
      <trkpt lat="45.81847" lon="2.96501">
        <ele>949</ele>
        <time>2025-08-07T15:18:14Z</time>
      </trkpt>
      <trkpt lat="45.81846" lon="2.96501">
        <ele>949</ele>
        <time>2025-08-07T15:18:15Z</time>
      </trkpt>
      <trkpt lat="45.81846" lon="2.96501">
        <ele>949</ele>
        <time>2025-08-07T15:18:16Z</time>
      </trkpt>
      <trkpt lat="45.81846" lon="2.96502">
        <ele>949</ele>
        <time>2025-08-07T15:18:24Z</time>
      </trkpt>
      <trkpt lat="45.81846" lon="2.96503">
        <ele>949.2</ele>
        <time>2025-08-07T15:18:25Z</time>
      </trkpt>
      <trkpt lat="45.81844" lon="2.96503">
        <ele>949.2</ele>
        <time>2025-08-07T15:18:26Z</time>
      </trkpt>
      <trkpt lat="45.81844" lon="2.96503">
        <ele>949.2</ele>
        <time>2025-08-07T15:18:27Z</time>
      </trkpt>
      <trkpt lat="45.81844" lon="2.96503">
        <ele>949.2</ele>
        <time>2025-08-07T15:18:28Z</time>
      </trkpt>
      <trkpt lat="45.81844" lon="2.96503">
        <ele>949.2</ele>
        <time>2025-08-07T15:18:29Z</time>
      </trkpt>
      <trkpt lat="45.81844" lon="2.96503">
        <ele>949.2</ele>
        <time>2025-08-07T15:18:30Z</time>
      </trkpt>
      <trkpt lat="45.81844" lon="2.96503">
        <ele>949.2</ele>
        <time>2025-08-07T15:18:31Z</time>
      </trkpt>
      <trkpt lat="45.81844" lon="2.96503">
        <ele>949.2</ele>
        <time>2025-08-07T15:18:32Z</time>
      </trkpt>
      <trkpt lat="45.81844" lon="2.96503">
        <ele>949.2</ele>
        <time>2025-08-07T15:18:33Z</time>
      </trkpt>
      <trkpt lat="45.81844" lon="2.96502">
        <ele>949.2</ele>
        <time>2025-08-07T15:18:34Z</time>
      </trkpt>
      <trkpt lat="45.81844" lon="2.96502">
        <ele>949.4</ele>
        <time>2025-08-07T15:18:35Z</time>
      </trkpt>
      <trkpt lat="45.81844" lon="2.96502">
        <ele>949.4</ele>
        <time>2025-08-07T15:18:36Z</time>
      </trkpt>
      <trkpt lat="45.81844" lon="2.96502">
        <ele>949.4</ele>
        <time>2025-08-07T15:18:37Z</time>
      </trkpt>
      <trkpt lat="45.81844" lon="2.96502">
        <ele>949.6</ele>
        <time>2025-08-07T15:18:38Z</time>
      </trkpt>
      <trkpt lat="45.81847" lon="2.96504">
        <ele>949.8</ele>
        <time>2025-08-07T15:18:45Z</time>
      </trkpt>
      <trkpt lat="45.81851" lon="2.96504">
        <ele>949.8</ele>
        <time>2025-08-07T15:18:46Z</time>
      </trkpt>
      <trkpt lat="45.81857" lon="2.96503">
        <ele>949.8</ele>
        <time>2025-08-07T15:18:47Z</time>
      </trkpt>
      <trkpt lat="45.81864" lon="2.96501">
        <ele>949.6</ele>
        <time>2025-08-07T15:18:48Z</time>
      </trkpt>
      <trkpt lat="45.8187" lon="2.96499">
        <ele>949.6</ele>
        <time>2025-08-07T15:18:49Z</time>
      </trkpt>
      <trkpt lat="45.81876" lon="2.96497">
        <ele>949.4</ele>
        <time>2025-08-07T15:18:50Z</time>
      </trkpt>
      <trkpt lat="45.81881" lon="2.96496">
        <ele>949.2</ele>
        <time>2025-08-07T15:18:51Z</time>
      </trkpt>
      <trkpt lat="45.81885" lon="2.96496">
        <ele>949.2</ele>
        <time>2025-08-07T15:18:52Z</time>
      </trkpt>
      <trkpt lat="45.8189" lon="2.96495">
        <ele>949.2</ele>
        <time>2025-08-07T15:18:53Z</time>
      </trkpt>
      <trkpt lat="45.81893" lon="2.96494">
        <ele>949</ele>
        <time>2025-08-07T15:18:54Z</time>
      </trkpt>
      <trkpt lat="45.81896" lon="2.96494">
        <ele>949</ele>
        <time>2025-08-07T15:18:55Z</time>
      </trkpt>
      <trkpt lat="45.819" lon="2.96494">
        <ele>949</ele>
        <time>2025-08-07T15:18:56Z</time>
      </trkpt>
      <trkpt lat="45.81904" lon="2.96495">
        <ele>949</ele>
        <time>2025-08-07T15:18:57Z</time>
      </trkpt>
      <trkpt lat="45.81909" lon="2.96494">
        <ele>948.8</ele>
        <time>2025-08-07T15:18:58Z</time>
      </trkpt>
      <trkpt lat="45.81915" lon="2.96492">
        <ele>949</ele>
        <time>2025-08-07T15:18:59Z</time>
      </trkpt>
      <trkpt lat="45.8192" lon="2.9649">
        <ele>949</ele>
        <time>2025-08-07T15:19:00Z</time>
      </trkpt>
      <trkpt lat="45.81925" lon="2.96487">
        <ele>949</ele>
        <time>2025-08-07T15:19:01Z</time>
      </trkpt>
      <trkpt lat="45.81933" lon="2.96482">
        <ele>949</ele>
        <time>2025-08-07T15:19:02Z</time>
      </trkpt>
      <trkpt lat="45.81939" lon="2.96479">
        <ele>949</ele>
        <time>2025-08-07T15:19:03Z</time>
      </trkpt>
      <trkpt lat="45.81947" lon="2.96477">
        <ele>949</ele>
        <time>2025-08-07T15:19:04Z</time>
      </trkpt>
      <trkpt lat="45.81952" lon="2.96477">
        <ele>949</ele>
        <time>2025-08-07T15:19:05Z</time>
      </trkpt>
      <trkpt lat="45.81962" lon="2.96474">
        <ele>949</ele>
        <time>2025-08-07T15:19:06Z</time>
      </trkpt>
      <trkpt lat="45.8197" lon="2.9647">
        <ele>949</ele>
        <time>2025-08-07T15:19:07Z</time>
      </trkpt>
      <trkpt lat="45.81976" lon="2.96466">
        <ele>949.2</ele>
        <time>2025-08-07T15:19:08Z</time>
      </trkpt>
      <trkpt lat="45.81981" lon="2.96462">
        <ele>949.2</ele>
        <time>2025-08-07T15:19:09Z</time>
      </trkpt>
      <trkpt lat="45.81986" lon="2.96459">
        <ele>949.2</ele>
        <time>2025-08-07T15:19:10Z</time>
      </trkpt>
      <trkpt lat="45.8199" lon="2.96454">
        <ele>949.2</ele>
        <time>2025-08-07T15:19:11Z</time>
      </trkpt>
      <trkpt lat="45.81996" lon="2.96449">
        <ele>949.2</ele>
        <time>2025-08-07T15:19:12Z</time>
      </trkpt>
      <trkpt lat="45.82002" lon="2.96447">
        <ele>949.2</ele>
        <time>2025-08-07T15:19:13Z</time>
      </trkpt>
      <trkpt lat="45.82005" lon="2.96446">
        <ele>949.2</ele>
        <time>2025-08-07T15:19:14Z</time>
      </trkpt>
      <trkpt lat="45.82012" lon="2.96446">
        <ele>949.4</ele>
        <time>2025-08-07T15:19:15Z</time>
      </trkpt>
      <trkpt lat="45.82017" lon="2.96444">
        <ele>949.4</ele>
        <time>2025-08-07T15:19:16Z</time>
      </trkpt>
      <trkpt lat="45.82021" lon="2.96441">
        <ele>949.4</ele>
        <time>2025-08-07T15:19:17Z</time>
      </trkpt>
      <trkpt lat="45.82025" lon="2.96439">
        <ele>949.4</ele>
        <time>2025-08-07T15:19:18Z</time>
      </trkpt>
      <trkpt lat="45.82029" lon="2.96436">
        <ele>949.4</ele>
        <time>2025-08-07T15:19:19Z</time>
      </trkpt>
      <trkpt lat="45.82036" lon="2.9643">
        <ele>949.4</ele>
        <time>2025-08-07T15:19:20Z</time>
      </trkpt>
      <trkpt lat="45.82043" lon="2.96426">
        <ele>949.4</ele>
        <time>2025-08-07T15:19:21Z</time>
      </trkpt>
      <trkpt lat="45.8205" lon="2.96423">
        <ele>949.4</ele>
        <time>2025-08-07T15:19:22Z</time>
      </trkpt>
      <trkpt lat="45.82054" lon="2.96423">
        <ele>949.4</ele>
        <time>2025-08-07T15:19:23Z</time>
      </trkpt>
      <trkpt lat="45.82058" lon="2.96423">
        <ele>949.4</ele>
        <time>2025-08-07T15:19:24Z</time>
      </trkpt>
      <trkpt lat="45.82062" lon="2.96422">
        <ele>949.4</ele>
        <time>2025-08-07T15:19:25Z</time>
      </trkpt>
      <trkpt lat="45.82064" lon="2.96421">
        <ele>949.4</ele>
        <time>2025-08-07T15:19:26Z</time>
      </trkpt>
      <trkpt lat="45.82064" lon="2.96422">
        <ele>949.4</ele>
        <time>2025-08-07T15:19:27Z</time>
      </trkpt>
      <trkpt lat="45.82064" lon="2.96422">
        <ele>949.6</ele>
        <time>2025-08-07T15:19:28Z</time>
      </trkpt>
      <trkpt lat="45.82065" lon="2.96422">
        <ele>949.6</ele>
        <time>2025-08-07T15:19:29Z</time>
      </trkpt>
      <trkpt lat="45.82065" lon="2.96424">
        <ele>949.8</ele>
        <time>2025-08-07T15:19:30Z</time>
      </trkpt>
      <trkpt lat="45.82065" lon="2.96426">
        <ele>949.8</ele>
        <time>2025-08-07T15:19:31Z</time>
      </trkpt>
      <trkpt lat="45.82065" lon="2.96428">
        <ele>950</ele>
        <time>2025-08-07T15:19:32Z</time>
      </trkpt>
      <trkpt lat="45.82065" lon="2.96431">
        <ele>950</ele>
        <time>2025-08-07T15:19:33Z</time>
      </trkpt>
      <trkpt lat="45.82066" lon="2.96436">
        <ele>950.2</ele>
        <time>2025-08-07T15:19:34Z</time>
      </trkpt>
      <trkpt lat="45.82066" lon="2.96441">
        <ele>950.2</ele>
        <time>2025-08-07T15:19:35Z</time>
      </trkpt>
      <trkpt lat="45.82066" lon="2.96445">
        <ele>950.4</ele>
        <time>2025-08-07T15:19:36Z</time>
      </trkpt>
      <trkpt lat="45.82066" lon="2.96449">
        <ele>950.4</ele>
        <time>2025-08-07T15:19:37Z</time>
      </trkpt>
      <trkpt lat="45.82065" lon="2.96454">
        <ele>950.6</ele>
        <time>2025-08-07T15:19:38Z</time>
      </trkpt>
      <trkpt lat="45.82066" lon="2.96459">
        <ele>950.8</ele>
        <time>2025-08-07T15:19:39Z</time>
      </trkpt>
      <trkpt lat="45.82066" lon="2.96464">
        <ele>951</ele>
        <time>2025-08-07T15:19:40Z</time>
      </trkpt>
      <trkpt lat="45.82066" lon="2.96471">
        <ele>951.2</ele>
        <time>2025-08-07T15:19:41Z</time>
      </trkpt>
      <trkpt lat="45.82067" lon="2.96477">
        <ele>951.2</ele>
        <time>2025-08-07T15:19:42Z</time>
      </trkpt>
      <trkpt lat="45.82069" lon="2.96485">
        <ele>951.4</ele>
        <time>2025-08-07T15:19:43Z</time>
      </trkpt>
      <trkpt lat="45.82069" lon="2.96491">
        <ele>951.6</ele>
        <time>2025-08-07T15:19:44Z</time>
      </trkpt>
      <trkpt lat="45.82069" lon="2.96497">
        <ele>951.6</ele>
        <time>2025-08-07T15:19:45Z</time>
      </trkpt>
      <trkpt lat="45.82068" lon="2.96503">
        <ele>951.8</ele>
        <time>2025-08-07T15:19:46Z</time>
      </trkpt>
      <trkpt lat="45.82068" lon="2.96508">
        <ele>952</ele>
        <time>2025-08-07T15:19:47Z</time>
      </trkpt>
      <trkpt lat="45.82066" lon="2.96512">
        <ele>952</ele>
        <time>2025-08-07T15:19:48Z</time>
      </trkpt>
      <trkpt lat="45.82066" lon="2.96516">
        <ele>952.2</ele>
        <time>2025-08-07T15:19:49Z</time>
      </trkpt>
      <trkpt lat="45.82065" lon="2.96522">
        <ele>952.4</ele>
        <time>2025-08-07T15:19:50Z</time>
      </trkpt>
      <trkpt lat="45.82065" lon="2.96529">
        <ele>952.6</ele>
        <time>2025-08-07T15:19:51Z</time>
      </trkpt>
      <trkpt lat="45.82065" lon="2.96538">
        <ele>952.8</ele>
        <time>2025-08-07T15:19:52Z</time>
      </trkpt>
      <trkpt lat="45.82065" lon="2.96544">
        <ele>952.8</ele>
        <time>2025-08-07T15:19:53Z</time>
      </trkpt>
      <trkpt lat="45.82064" lon="2.9655">
        <ele>953</ele>
        <time>2025-08-07T15:19:54Z</time>
      </trkpt>
      <trkpt lat="45.82062" lon="2.96555">
        <ele>953.2</ele>
        <time>2025-08-07T15:19:55Z</time>
      </trkpt>
      <trkpt lat="45.82062" lon="2.96561">
        <ele>953.6</ele>
        <time>2025-08-07T15:19:56Z</time>
      </trkpt>
      <trkpt lat="45.82063" lon="2.96565">
        <ele>953.8</ele>
        <time>2025-08-07T15:19:57Z</time>
      </trkpt>
      <trkpt lat="45.82063" lon="2.96571">
        <ele>954</ele>
        <time>2025-08-07T15:19:58Z</time>
      </trkpt>
      <trkpt lat="45.82063" lon="2.96579">
        <ele>954.2</ele>
        <time>2025-08-07T15:19:59Z</time>
      </trkpt>
      <trkpt lat="45.82059" lon="2.96589">
        <ele>954.4</ele>
        <time>2025-08-07T15:20:00Z</time>
      </trkpt>
      <trkpt lat="45.82056" lon="2.96596">
        <ele>954.6</ele>
        <time>2025-08-07T15:20:01Z</time>
      </trkpt>
      <trkpt lat="45.82058" lon="2.96598">
        <ele>954.8</ele>
        <time>2025-08-07T15:20:02Z</time>
      </trkpt>
      <trkpt lat="45.8206" lon="2.96599">
        <ele>955</ele>
        <time>2025-08-07T15:20:03Z</time>
      </trkpt>
      <trkpt lat="45.8206" lon="2.96603">
        <ele>955.2</ele>
        <time>2025-08-07T15:20:04Z</time>
      </trkpt>
      <trkpt lat="45.82056" lon="2.96608">
        <ele>955.6</ele>
        <time>2025-08-07T15:20:05Z</time>
      </trkpt>
      <trkpt lat="45.82054" lon="2.96613">
        <ele>955.8</ele>
        <time>2025-08-07T15:20:06Z</time>
      </trkpt>
      <trkpt lat="45.82054" lon="2.96616">
        <ele>956</ele>
        <time>2025-08-07T15:20:07Z</time>
      </trkpt>
      <trkpt lat="45.82054" lon="2.96619">
        <ele>956.2</ele>
        <time>2025-08-07T15:20:08Z</time>
      </trkpt>
      <trkpt lat="45.82054" lon="2.9662">
        <ele>956.6</ele>
        <time>2025-08-07T15:20:09Z</time>
      </trkpt>
      <trkpt lat="45.82054" lon="2.9662">
        <ele>956.8</ele>
        <time>2025-08-07T15:20:10Z</time>
      </trkpt>
      <trkpt lat="45.82053" lon="2.96621">
        <ele>957.2</ele>
        <time>2025-08-07T15:20:11Z</time>
      </trkpt>
      <trkpt lat="45.82054" lon="2.96623">
        <ele>957.4</ele>
        <time>2025-08-07T15:20:12Z</time>
      </trkpt>
      <trkpt lat="45.82054" lon="2.96623">
        <ele>957.8</ele>
        <time>2025-08-07T15:20:13Z</time>
      </trkpt>
      <trkpt lat="45.82053" lon="2.96625">
        <ele>958.2</ele>
        <time>2025-08-07T15:20:14Z</time>
      </trkpt>
      <trkpt lat="45.82053" lon="2.96627">
        <ele>958.4</ele>
        <time>2025-08-07T15:20:15Z</time>
      </trkpt>
      <trkpt lat="45.82052" lon="2.9663">
        <ele>958.8</ele>
        <time>2025-08-07T15:20:16Z</time>
      </trkpt>
      <trkpt lat="45.82051" lon="2.96633">
        <ele>959</ele>
        <time>2025-08-07T15:20:17Z</time>
      </trkpt>
      <trkpt lat="45.82051" lon="2.96638">
        <ele>959.4</ele>
        <time>2025-08-07T15:20:18Z</time>
      </trkpt>
      <trkpt lat="45.82051" lon="2.96643">
        <ele>959.8</ele>
        <time>2025-08-07T15:20:19Z</time>
      </trkpt>
      <trkpt lat="45.8205" lon="2.96647">
        <ele>960</ele>
        <time>2025-08-07T15:20:20Z</time>
      </trkpt>
      <trkpt lat="45.8205" lon="2.96651">
        <ele>960.2</ele>
        <time>2025-08-07T15:20:21Z</time>
      </trkpt>
      <trkpt lat="45.8205" lon="2.96656">
        <ele>960.4</ele>
        <time>2025-08-07T15:20:22Z</time>
      </trkpt>
      <trkpt lat="45.8205" lon="2.9666">
        <ele>960.6</ele>
        <time>2025-08-07T15:20:23Z</time>
      </trkpt>
      <trkpt lat="45.8205" lon="2.96666">
        <ele>960.8</ele>
        <time>2025-08-07T15:20:24Z</time>
      </trkpt>
      <trkpt lat="45.82051" lon="2.96671">
        <ele>961</ele>
        <time>2025-08-07T15:20:25Z</time>
      </trkpt>
      <trkpt lat="45.82051" lon="2.96681">
        <ele>961.2</ele>
        <time>2025-08-07T15:20:26Z</time>
      </trkpt>
      <trkpt lat="45.82051" lon="2.96689">
        <ele>961.4</ele>
        <time>2025-08-07T15:20:27Z</time>
      </trkpt>
      <trkpt lat="45.82051" lon="2.96694">
        <ele>961.6</ele>
        <time>2025-08-07T15:20:28Z</time>
      </trkpt>
      <trkpt lat="45.82053" lon="2.96698">
        <ele>961.8</ele>
        <time>2025-08-07T15:20:29Z</time>
      </trkpt>
      <trkpt lat="45.82055" lon="2.96702">
        <ele>962</ele>
        <time>2025-08-07T15:20:30Z</time>
      </trkpt>
      <trkpt lat="45.82057" lon="2.96705">
        <ele>962.2</ele>
        <time>2025-08-07T15:20:31Z</time>
      </trkpt>
      <trkpt lat="45.82058" lon="2.9671">
        <ele>962.4</ele>
        <time>2025-08-07T15:20:32Z</time>
      </trkpt>
      <trkpt lat="45.82055" lon="2.96715">
        <ele>962.6</ele>
        <time>2025-08-07T15:20:33Z</time>
      </trkpt>
      <trkpt lat="45.82055" lon="2.96719">
        <ele>963</ele>
        <time>2025-08-07T15:20:34Z</time>
      </trkpt>
      <trkpt lat="45.82055" lon="2.96723">
        <ele>963.2</ele>
        <time>2025-08-07T15:20:35Z</time>
      </trkpt>
      <trkpt lat="45.82055" lon="2.96729">
        <ele>963.4</ele>
        <time>2025-08-07T15:20:36Z</time>
      </trkpt>
      <trkpt lat="45.82056" lon="2.96735">
        <ele>963.6</ele>
        <time>2025-08-07T15:20:37Z</time>
      </trkpt>
      <trkpt lat="45.82055" lon="2.96742">
        <ele>963.8</ele>
        <time>2025-08-07T15:20:38Z</time>
      </trkpt>
      <trkpt lat="45.82055" lon="2.96748">
        <ele>964</ele>
        <time>2025-08-07T15:20:39Z</time>
      </trkpt>
      <trkpt lat="45.82056" lon="2.96755">
        <ele>964.2</ele>
        <time>2025-08-07T15:20:40Z</time>
      </trkpt>
      <trkpt lat="45.82059" lon="2.96761">
        <ele>964.4</ele>
        <time>2025-08-07T15:20:41Z</time>
      </trkpt>
      <trkpt lat="45.8206" lon="2.96765">
        <ele>964.4</ele>
        <time>2025-08-07T15:20:42Z</time>
      </trkpt>
      <trkpt lat="45.8206" lon="2.9677">
        <ele>964.6</ele>
        <time>2025-08-07T15:20:43Z</time>
      </trkpt>
      <trkpt lat="45.8206" lon="2.96788">
        <ele>964.6</ele>
        <time>2025-08-07T15:20:44Z</time>
      </trkpt>
      <trkpt lat="45.82059" lon="2.96796">
        <ele>964.8</ele>
        <time>2025-08-07T15:20:45Z</time>
      </trkpt>
      <trkpt lat="45.82059" lon="2.96803">
        <ele>964.8</ele>
        <time>2025-08-07T15:20:46Z</time>
      </trkpt>
      <trkpt lat="45.82058" lon="2.96808">
        <ele>964.8</ele>
        <time>2025-08-07T15:20:47Z</time>
      </trkpt>
      <trkpt lat="45.82058" lon="2.96814">
        <ele>964.8</ele>
        <time>2025-08-07T15:20:48Z</time>
      </trkpt>
      <trkpt lat="45.82059" lon="2.96821">
        <ele>964.8</ele>
        <time>2025-08-07T15:20:49Z</time>
      </trkpt>
      <trkpt lat="45.82069" lon="2.96832">
        <ele>964.8</ele>
        <time>2025-08-07T15:20:50Z</time>
      </trkpt>
      <trkpt lat="45.82072" lon="2.96842">
        <ele>964.8</ele>
        <time>2025-08-07T15:20:51Z</time>
      </trkpt>
      <trkpt lat="45.82072" lon="2.96849">
        <ele>964.6</ele>
        <time>2025-08-07T15:20:52Z</time>
      </trkpt>
      <trkpt lat="45.82072" lon="2.96854">
        <ele>964.6</ele>
        <time>2025-08-07T15:20:53Z</time>
      </trkpt>
      <trkpt lat="45.8207" lon="2.96858">
        <ele>964.6</ele>
        <time>2025-08-07T15:20:54Z</time>
      </trkpt>
      <trkpt lat="45.82068" lon="2.9686">
        <ele>964.4</ele>
        <time>2025-08-07T15:20:55Z</time>
      </trkpt>
      <trkpt lat="45.82069" lon="2.96864">
        <ele>964.2</ele>
        <time>2025-08-07T15:20:56Z</time>
      </trkpt>
      <trkpt lat="45.82068" lon="2.9687">
        <ele>964</ele>
        <time>2025-08-07T15:20:57Z</time>
      </trkpt>
      <trkpt lat="45.82066" lon="2.96878">
        <ele>963.8</ele>
        <time>2025-08-07T15:20:58Z</time>
      </trkpt>
      <trkpt lat="45.82066" lon="2.96887">
        <ele>963.6</ele>
        <time>2025-08-07T15:20:59Z</time>
      </trkpt>
      <trkpt lat="45.82067" lon="2.96897">
        <ele>963.4</ele>
        <time>2025-08-07T15:21:00Z</time>
      </trkpt>
      <trkpt lat="45.82066" lon="2.96908">
        <ele>963</ele>
        <time>2025-08-07T15:21:01Z</time>
      </trkpt>
      <trkpt lat="45.82064" lon="2.96918">
        <ele>962.8</ele>
        <time>2025-08-07T15:21:02Z</time>
      </trkpt>
      <trkpt lat="45.82063" lon="2.96927">
        <ele>962.4</ele>
        <time>2025-08-07T15:21:03Z</time>
      </trkpt>
      <trkpt lat="45.82062" lon="2.96937">
        <ele>962</ele>
        <time>2025-08-07T15:21:04Z</time>
      </trkpt>
      <trkpt lat="45.82064" lon="2.96946">
        <ele>961.6</ele>
        <time>2025-08-07T15:21:05Z</time>
      </trkpt>
      <trkpt lat="45.82069" lon="2.96955">
        <ele>961.2</ele>
        <time>2025-08-07T15:21:06Z</time>
      </trkpt>
      <trkpt lat="45.82071" lon="2.96964">
        <ele>960.8</ele>
        <time>2025-08-07T15:21:07Z</time>
      </trkpt>
      <trkpt lat="45.8207" lon="2.96974">
        <ele>960.4</ele>
        <time>2025-08-07T15:21:08Z</time>
      </trkpt>
      <trkpt lat="45.82068" lon="2.96983">
        <ele>959.8</ele>
        <time>2025-08-07T15:21:09Z</time>
      </trkpt>
      <trkpt lat="45.82066" lon="2.96993">
        <ele>959.4</ele>
        <time>2025-08-07T15:21:10Z</time>
      </trkpt>
      <trkpt lat="45.82066" lon="2.97002">
        <ele>958.8</ele>
        <time>2025-08-07T15:21:11Z</time>
      </trkpt>
      <trkpt lat="45.82065" lon="2.97012">
        <ele>958.4</ele>
        <time>2025-08-07T15:21:12Z</time>
      </trkpt>
      <trkpt lat="45.82064" lon="2.97022">
        <ele>958</ele>
        <time>2025-08-07T15:21:13Z</time>
      </trkpt>
      <trkpt lat="45.82062" lon="2.97036">
        <ele>957.4</ele>
        <time>2025-08-07T15:21:14Z</time>
      </trkpt>
      <trkpt lat="45.82061" lon="2.97051">
        <ele>957.2</ele>
        <time>2025-08-07T15:21:15Z</time>
      </trkpt>
      <trkpt lat="45.8206" lon="2.97066">
        <ele>956.8</ele>
        <time>2025-08-07T15:21:16Z</time>
      </trkpt>
      <trkpt lat="45.82061" lon="2.97081">
        <ele>956.4</ele>
        <time>2025-08-07T15:21:17Z</time>
      </trkpt>
      <trkpt lat="45.82066" lon="2.97091">
        <ele>956</ele>
        <time>2025-08-07T15:21:18Z</time>
      </trkpt>
      <trkpt lat="45.82074" lon="2.97103">
        <ele>955.6</ele>
        <time>2025-08-07T15:21:19Z</time>
      </trkpt>
      <trkpt lat="45.82076" lon="2.97115">
        <ele>955.2</ele>
        <time>2025-08-07T15:21:20Z</time>
      </trkpt>
      <trkpt lat="45.82076" lon="2.97124">
        <ele>954.8</ele>
        <time>2025-08-07T15:21:21Z</time>
      </trkpt>
      <trkpt lat="45.82073" lon="2.9714">
        <ele>954.4</ele>
        <time>2025-08-07T15:21:22Z</time>
      </trkpt>
      <trkpt lat="45.82072" lon="2.97158">
        <ele>954</ele>
        <time>2025-08-07T15:21:23Z</time>
      </trkpt>
      <trkpt lat="45.82074" lon="2.97175">
        <ele>953.6</ele>
        <time>2025-08-07T15:21:24Z</time>
      </trkpt>
      <trkpt lat="45.82074" lon="2.97184">
        <ele>953.2</ele>
        <time>2025-08-07T15:21:25Z</time>
      </trkpt>
      <trkpt lat="45.82075" lon="2.97193">
        <ele>953</ele>
        <time>2025-08-07T15:21:26Z</time>
      </trkpt>
      <trkpt lat="45.82074" lon="2.972">
        <ele>952.4</ele>
        <time>2025-08-07T15:21:27Z</time>
      </trkpt>
      <trkpt lat="45.82075" lon="2.97207">
        <ele>952</ele>
        <time>2025-08-07T15:21:28Z</time>
      </trkpt>
      <trkpt lat="45.82075" lon="2.97215">
        <ele>951.8</ele>
        <time>2025-08-07T15:21:29Z</time>
      </trkpt>
      <trkpt lat="45.82075" lon="2.97224">
        <ele>951.4</ele>
        <time>2025-08-07T15:21:30Z</time>
      </trkpt>
      <trkpt lat="45.82078" lon="2.97231">
        <ele>951</ele>
        <time>2025-08-07T15:21:31Z</time>
      </trkpt>
      <trkpt lat="45.82082" lon="2.97239">
        <ele>950.6</ele>
        <time>2025-08-07T15:21:32Z</time>
      </trkpt>
      <trkpt lat="45.82085" lon="2.97247">
        <ele>950.2</ele>
        <time>2025-08-07T15:21:33Z</time>
      </trkpt>
      <trkpt lat="45.82088" lon="2.97258">
        <ele>949.8</ele>
        <time>2025-08-07T15:21:34Z</time>
      </trkpt>
      <trkpt lat="45.8209" lon="2.97268">
        <ele>949.6</ele>
        <time>2025-08-07T15:21:35Z</time>
      </trkpt>
      <trkpt lat="45.82092" lon="2.9728">
        <ele>949.2</ele>
        <time>2025-08-07T15:21:36Z</time>
      </trkpt>
      <trkpt lat="45.82094" lon="2.97291">
        <ele>948.8</ele>
        <time>2025-08-07T15:21:37Z</time>
      </trkpt>
      <trkpt lat="45.82097" lon="2.97301">
        <ele>948.4</ele>
        <time>2025-08-07T15:21:38Z</time>
      </trkpt>
      <trkpt lat="45.821" lon="2.97311">
        <ele>948</ele>
        <time>2025-08-07T15:21:39Z</time>
      </trkpt>
      <trkpt lat="45.82102" lon="2.97322">
        <ele>947.8</ele>
        <time>2025-08-07T15:21:40Z</time>
      </trkpt>
      <trkpt lat="45.82103" lon="2.97332">
        <ele>947.4</ele>
        <time>2025-08-07T15:21:41Z</time>
      </trkpt>
      <trkpt lat="45.82105" lon="2.97341">
        <ele>947</ele>
        <time>2025-08-07T15:21:42Z</time>
      </trkpt>
      <trkpt lat="45.82107" lon="2.97352">
        <ele>946.6</ele>
        <time>2025-08-07T15:21:43Z</time>
      </trkpt>
      <trkpt lat="45.8211" lon="2.97364">
        <ele>946.4</ele>
        <time>2025-08-07T15:21:44Z</time>
      </trkpt>
      <trkpt lat="45.82113" lon="2.97378">
        <ele>946</ele>
        <time>2025-08-07T15:21:45Z</time>
      </trkpt>
      <trkpt lat="45.82115" lon="2.97386">
        <ele>945.6</ele>
        <time>2025-08-07T15:21:46Z</time>
      </trkpt>
      <trkpt lat="45.82116" lon="2.97392">
        <ele>945.2</ele>
        <time>2025-08-07T15:21:47Z</time>
      </trkpt>
      <trkpt lat="45.82119" lon="2.97398">
        <ele>945</ele>
        <time>2025-08-07T15:21:48Z</time>
      </trkpt>
      <trkpt lat="45.82121" lon="2.97404">
        <ele>944.6</ele>
        <time>2025-08-07T15:21:49Z</time>
      </trkpt>
      <trkpt lat="45.82123" lon="2.97411">
        <ele>944.2</ele>
        <time>2025-08-07T15:21:50Z</time>
      </trkpt>
      <trkpt lat="45.82124" lon="2.9742">
        <ele>943.8</ele>
        <time>2025-08-07T15:21:51Z</time>
      </trkpt>
      <trkpt lat="45.82126" lon="2.9743">
        <ele>943.6</ele>
        <time>2025-08-07T15:21:52Z</time>
      </trkpt>
      <trkpt lat="45.82128" lon="2.9744">
        <ele>943</ele>
        <time>2025-08-07T15:21:53Z</time>
      </trkpt>
      <trkpt lat="45.82131" lon="2.9745">
        <ele>942.6</ele>
        <time>2025-08-07T15:21:54Z</time>
      </trkpt>
      <trkpt lat="45.82134" lon="2.97459">
        <ele>942</ele>
        <time>2025-08-07T15:21:55Z</time>
      </trkpt>
      <trkpt lat="45.82138" lon="2.97465">
        <ele>941.6</ele>
        <time>2025-08-07T15:21:56Z</time>
      </trkpt>
      <trkpt lat="45.82143" lon="2.97469">
        <ele>941.2</ele>
        <time>2025-08-07T15:21:57Z</time>
      </trkpt>
      <trkpt lat="45.82146" lon="2.97473">
        <ele>940.8</ele>
        <time>2025-08-07T15:21:58Z</time>
      </trkpt>
      <trkpt lat="45.8215" lon="2.97478">
        <ele>940.4</ele>
        <time>2025-08-07T15:21:59Z</time>
      </trkpt>
      <trkpt lat="45.82152" lon="2.97484">
        <ele>939.8</ele>
        <time>2025-08-07T15:22:00Z</time>
      </trkpt>
      <trkpt lat="45.82155" lon="2.97491">
        <ele>939.2</ele>
        <time>2025-08-07T15:22:01Z</time>
      </trkpt>
      <trkpt lat="45.82157" lon="2.97498">
        <ele>938.6</ele>
        <time>2025-08-07T15:22:02Z</time>
      </trkpt>
      <trkpt lat="45.8216" lon="2.97505">
        <ele>937.8</ele>
        <time>2025-08-07T15:22:03Z</time>
      </trkpt>
      <trkpt lat="45.82166" lon="2.9751">
        <ele>937.2</ele>
        <time>2025-08-07T15:22:04Z</time>
      </trkpt>
      <trkpt lat="45.82171" lon="2.97512">
        <ele>936.6</ele>
        <time>2025-08-07T15:22:05Z</time>
      </trkpt>
      <trkpt lat="45.82174" lon="2.97514">
        <ele>936</ele>
        <time>2025-08-07T15:22:06Z</time>
      </trkpt>
      <trkpt lat="45.82176" lon="2.97515">
        <ele>935.4</ele>
        <time>2025-08-07T15:22:07Z</time>
      </trkpt>
      <trkpt lat="45.8218" lon="2.97518">
        <ele>934.8</ele>
        <time>2025-08-07T15:22:08Z</time>
      </trkpt>
      <trkpt lat="45.82185" lon="2.97523">
        <ele>934.2</ele>
        <time>2025-08-07T15:22:09Z</time>
      </trkpt>
      <trkpt lat="45.82189" lon="2.97528">
        <ele>933.4</ele>
        <time>2025-08-07T15:22:10Z</time>
      </trkpt>
      <trkpt lat="45.82205" lon="2.97539">
        <ele>932.6</ele>
        <time>2025-08-07T15:22:11Z</time>
      </trkpt>
      <trkpt lat="45.82213" lon="2.97547">
        <ele>932</ele>
        <time>2025-08-07T15:22:12Z</time>
      </trkpt>
      <trkpt lat="45.82217" lon="2.97554">
        <ele>931.2</ele>
        <time>2025-08-07T15:22:13Z</time>
      </trkpt>
      <trkpt lat="45.82222" lon="2.97564">
        <ele>930.6</ele>
        <time>2025-08-07T15:22:14Z</time>
      </trkpt>
      <trkpt lat="45.8223" lon="2.97576">
        <ele>930</ele>
        <time>2025-08-07T15:22:15Z</time>
      </trkpt>
      <trkpt lat="45.82234" lon="2.97586">
        <ele>929.4</ele>
        <time>2025-08-07T15:22:16Z</time>
      </trkpt>
      <trkpt lat="45.82238" lon="2.97593">
        <ele>928.8</ele>
        <time>2025-08-07T15:22:17Z</time>
      </trkpt>
      <trkpt lat="45.82239" lon="2.97599">
        <ele>928</ele>
        <time>2025-08-07T15:22:18Z</time>
      </trkpt>
      <trkpt lat="45.8224" lon="2.97606">
        <ele>927.4</ele>
        <time>2025-08-07T15:22:19Z</time>
      </trkpt>
      <trkpt lat="45.82245" lon="2.97611">
        <ele>927</ele>
        <time>2025-08-07T15:22:20Z</time>
      </trkpt>
      <trkpt lat="45.82251" lon="2.97616">
        <ele>926.6</ele>
        <time>2025-08-07T15:22:21Z</time>
      </trkpt>
      <trkpt lat="45.82259" lon="2.97624">
        <ele>926.2</ele>
        <time>2025-08-07T15:22:22Z</time>
      </trkpt>
      <trkpt lat="45.82264" lon="2.97637">
        <ele>925.8</ele>
        <time>2025-08-07T15:22:23Z</time>
      </trkpt>
      <trkpt lat="45.82268" lon="2.97647">
        <ele>925.2</ele>
        <time>2025-08-07T15:22:24Z</time>
      </trkpt>
      <trkpt lat="45.82269" lon="2.97655">
        <ele>924.8</ele>
        <time>2025-08-07T15:22:25Z</time>
      </trkpt>
      <trkpt lat="45.82269" lon="2.97664">
        <ele>924.4</ele>
        <time>2025-08-07T15:22:26Z</time>
      </trkpt>
      <trkpt lat="45.82274" lon="2.97673">
        <ele>924</ele>
        <time>2025-08-07T15:22:27Z</time>
      </trkpt>
      <trkpt lat="45.82281" lon="2.97683">
        <ele>923.8</ele>
        <time>2025-08-07T15:22:28Z</time>
      </trkpt>
      <trkpt lat="45.82286" lon="2.9769">
        <ele>923.6</ele>
        <time>2025-08-07T15:22:29Z</time>
      </trkpt>
      <trkpt lat="45.82289" lon="2.97696">
        <ele>923.4</ele>
        <time>2025-08-07T15:22:30Z</time>
      </trkpt>
      <trkpt lat="45.8229" lon="2.97701">
        <ele>923.2</ele>
        <time>2025-08-07T15:22:31Z</time>
      </trkpt>
      <trkpt lat="45.8229" lon="2.97704">
        <ele>923.2</ele>
        <time>2025-08-07T15:22:32Z</time>
      </trkpt>
      <trkpt lat="45.82289" lon="2.97707">
        <ele>923</ele>
        <time>2025-08-07T15:22:33Z</time>
      </trkpt>
      <trkpt lat="45.82288" lon="2.97709">
        <ele>922.8</ele>
        <time>2025-08-07T15:22:34Z</time>
      </trkpt>
      <trkpt lat="45.82287" lon="2.97711">
        <ele>922.6</ele>
        <time>2025-08-07T15:22:35Z</time>
      </trkpt>
      <trkpt lat="45.82288" lon="2.97713">
        <ele>922.4</ele>
        <time>2025-08-07T15:22:36Z</time>
      </trkpt>
      <trkpt lat="45.82291" lon="2.97712">
        <ele>922.2</ele>
        <time>2025-08-07T15:22:37Z</time>
      </trkpt>
      <trkpt lat="45.82293" lon="2.97712">
        <ele>922</ele>
        <time>2025-08-07T15:22:38Z</time>
      </trkpt>
      <trkpt lat="45.82293" lon="2.97712">
        <ele>921.8</ele>
        <time>2025-08-07T15:22:39Z</time>
      </trkpt>
      <trkpt lat="45.82294" lon="2.97712">
        <ele>921.6</ele>
        <time>2025-08-07T15:22:40Z</time>
      </trkpt>
      <trkpt lat="45.82294" lon="2.97712">
        <ele>921.2</ele>
        <time>2025-08-07T15:22:41Z</time>
      </trkpt>
      <trkpt lat="45.82294" lon="2.97712">
        <ele>921</ele>
        <time>2025-08-07T15:22:42Z</time>
      </trkpt>
      <trkpt lat="45.82294" lon="2.97712">
        <ele>920.6</ele>
        <time>2025-08-07T15:22:43Z</time>
      </trkpt>
      <trkpt lat="45.82296" lon="2.97714">
        <ele>920.2</ele>
        <time>2025-08-07T15:22:44Z</time>
      </trkpt>
      <trkpt lat="45.82298" lon="2.97717">
        <ele>920</ele>
        <time>2025-08-07T15:22:45Z</time>
      </trkpt>
      <trkpt lat="45.82302" lon="2.9772">
        <ele>919.6</ele>
        <time>2025-08-07T15:22:46Z</time>
      </trkpt>
      <trkpt lat="45.82305" lon="2.97722">
        <ele>919.4</ele>
        <time>2025-08-07T15:22:47Z</time>
      </trkpt>
      <trkpt lat="45.82308" lon="2.97723">
        <ele>919</ele>
        <time>2025-08-07T15:22:48Z</time>
      </trkpt>
      <trkpt lat="45.82309" lon="2.97726">
        <ele>918.8</ele>
        <time>2025-08-07T15:22:49Z</time>
      </trkpt>
      <trkpt lat="45.82312" lon="2.97729">
        <ele>918.4</ele>
        <time>2025-08-07T15:22:50Z</time>
      </trkpt>
      <trkpt lat="45.82313" lon="2.97732">
        <ele>917.8</ele>
        <time>2025-08-07T15:22:51Z</time>
      </trkpt>
      <trkpt lat="45.82317" lon="2.97736">
        <ele>917.4</ele>
        <time>2025-08-07T15:22:52Z</time>
      </trkpt>
      <trkpt lat="45.82321" lon="2.9774">
        <ele>916.8</ele>
        <time>2025-08-07T15:22:53Z</time>
      </trkpt>
      <trkpt lat="45.82325" lon="2.97747">
        <ele>916.2</ele>
        <time>2025-08-07T15:22:54Z</time>
      </trkpt>
      <trkpt lat="45.82331" lon="2.9775">
        <ele>915.6</ele>
        <time>2025-08-07T15:22:55Z</time>
      </trkpt>
      <trkpt lat="45.82341" lon="2.97751">
        <ele>915</ele>
        <time>2025-08-07T15:22:56Z</time>
      </trkpt>
      <trkpt lat="45.82351" lon="2.97751">
        <ele>914.4</ele>
        <time>2025-08-07T15:22:57Z</time>
      </trkpt>
      <trkpt lat="45.82355" lon="2.97751">
        <ele>913.8</ele>
        <time>2025-08-07T15:22:58Z</time>
      </trkpt>
      <trkpt lat="45.8236" lon="2.97752">
        <ele>913.4</ele>
        <time>2025-08-07T15:22:59Z</time>
      </trkpt>
      <trkpt lat="45.82365" lon="2.97753">
        <ele>912.6</ele>
        <time>2025-08-07T15:23:00Z</time>
      </trkpt>
      <trkpt lat="45.82371" lon="2.97755">
        <ele>912</ele>
        <time>2025-08-07T15:23:01Z</time>
      </trkpt>
      <trkpt lat="45.82376" lon="2.97757">
        <ele>911.4</ele>
        <time>2025-08-07T15:23:02Z</time>
      </trkpt>
      <trkpt lat="45.8238" lon="2.9776">
        <ele>910.8</ele>
        <time>2025-08-07T15:23:03Z</time>
      </trkpt>
      <trkpt lat="45.82384" lon="2.97764">
        <ele>910.2</ele>
        <time>2025-08-07T15:23:04Z</time>
      </trkpt>
      <trkpt lat="45.82389" lon="2.97769">
        <ele>909.6</ele>
        <time>2025-08-07T15:23:05Z</time>
      </trkpt>
      <trkpt lat="45.82392" lon="2.97774">
        <ele>909.2</ele>
        <time>2025-08-07T15:23:06Z</time>
      </trkpt>
      <trkpt lat="45.82395" lon="2.97779">
        <ele>908.6</ele>
        <time>2025-08-07T15:23:07Z</time>
      </trkpt>
      <trkpt lat="45.82399" lon="2.97783">
        <ele>908</ele>
        <time>2025-08-07T15:23:08Z</time>
      </trkpt>
      <trkpt lat="45.82403" lon="2.97789">
        <ele>907.6</ele>
        <time>2025-08-07T15:23:09Z</time>
      </trkpt>
      <trkpt lat="45.82406" lon="2.97796">
        <ele>907</ele>
        <time>2025-08-07T15:23:10Z</time>
      </trkpt>
      <trkpt lat="45.82407" lon="2.97803">
        <ele>906.6</ele>
        <time>2025-08-07T15:23:11Z</time>
      </trkpt>
      <trkpt lat="45.82409" lon="2.97809">
        <ele>906</ele>
        <time>2025-08-07T15:23:12Z</time>
      </trkpt>
      <trkpt lat="45.82411" lon="2.97813">
        <ele>905.6</ele>
        <time>2025-08-07T15:23:13Z</time>
      </trkpt>
      <trkpt lat="45.82422" lon="2.97816">
        <ele>905</ele>
        <time>2025-08-07T15:23:14Z</time>
      </trkpt>
      <trkpt lat="45.82429" lon="2.97823">
        <ele>904.6</ele>
        <time>2025-08-07T15:23:15Z</time>
      </trkpt>
      <trkpt lat="45.82434" lon="2.9783">
        <ele>904</ele>
        <time>2025-08-07T15:23:16Z</time>
      </trkpt>
      <trkpt lat="45.82438" lon="2.97834">
        <ele>903.4</ele>
        <time>2025-08-07T15:23:17Z</time>
      </trkpt>
      <trkpt lat="45.82442" lon="2.97841">
        <ele>902.8</ele>
        <time>2025-08-07T15:23:18Z</time>
      </trkpt>
      <trkpt lat="45.82445" lon="2.97846">
        <ele>902.4</ele>
        <time>2025-08-07T15:23:19Z</time>
      </trkpt>
      <trkpt lat="45.82449" lon="2.97853">
        <ele>901.8</ele>
        <time>2025-08-07T15:23:20Z</time>
      </trkpt>
      <trkpt lat="45.82452" lon="2.97858">
        <ele>901.4</ele>
        <time>2025-08-07T15:23:21Z</time>
      </trkpt>
      <trkpt lat="45.8246" lon="2.97864">
        <ele>900.8</ele>
        <time>2025-08-07T15:23:22Z</time>
      </trkpt>
      <trkpt lat="45.82464" lon="2.97869">
        <ele>900.2</ele>
        <time>2025-08-07T15:23:23Z</time>
      </trkpt>
      <trkpt lat="45.82468" lon="2.97872">
        <ele>899.8</ele>
        <time>2025-08-07T15:23:24Z</time>
      </trkpt>
      <trkpt lat="45.8247" lon="2.97874">
        <ele>899.2</ele>
        <time>2025-08-07T15:23:25Z</time>
      </trkpt>
      <trkpt lat="45.82471" lon="2.97876">
        <ele>898.6</ele>
        <time>2025-08-07T15:23:26Z</time>
      </trkpt>
      <trkpt lat="45.82473" lon="2.97877">
        <ele>898.2</ele>
        <time>2025-08-07T15:23:27Z</time>
      </trkpt>
      <trkpt lat="45.82474" lon="2.97877">
        <ele>897.6</ele>
        <time>2025-08-07T15:23:28Z</time>
      </trkpt>
      <trkpt lat="45.82476" lon="2.97877">
        <ele>897</ele>
        <time>2025-08-07T15:23:29Z</time>
      </trkpt>
      <trkpt lat="45.82479" lon="2.97877">
        <ele>896.6</ele>
        <time>2025-08-07T15:23:30Z</time>
      </trkpt>
      <trkpt lat="45.82482" lon="2.97879">
        <ele>896.2</ele>
        <time>2025-08-07T15:23:31Z</time>
      </trkpt>
      <trkpt lat="45.82485" lon="2.9788">
        <ele>895.8</ele>
        <time>2025-08-07T15:23:32Z</time>
      </trkpt>
      <trkpt lat="45.82488" lon="2.97881">
        <ele>895.4</ele>
        <time>2025-08-07T15:23:33Z</time>
      </trkpt>
      <trkpt lat="45.82492" lon="2.97882">
        <ele>895.2</ele>
        <time>2025-08-07T15:23:34Z</time>
      </trkpt>
      <trkpt lat="45.82496" lon="2.97885">
        <ele>894.8</ele>
        <time>2025-08-07T15:23:35Z</time>
      </trkpt>
      <trkpt lat="45.82499" lon="2.97888">
        <ele>894.6</ele>
        <time>2025-08-07T15:23:36Z</time>
      </trkpt>
      <trkpt lat="45.82502" lon="2.97892">
        <ele>894.4</ele>
        <time>2025-08-07T15:23:37Z</time>
      </trkpt>
      <trkpt lat="45.82503" lon="2.97895">
        <ele>894</ele>
        <time>2025-08-07T15:23:38Z</time>
      </trkpt>
      <trkpt lat="45.82506" lon="2.97898">
        <ele>893.8</ele>
        <time>2025-08-07T15:23:39Z</time>
      </trkpt>
      <trkpt lat="45.8251" lon="2.97901">
        <ele>893.4</ele>
        <time>2025-08-07T15:23:40Z</time>
      </trkpt>
      <trkpt lat="45.82517" lon="2.97902">
        <ele>893.2</ele>
        <time>2025-08-07T15:23:41Z</time>
      </trkpt>
      <trkpt lat="45.82522" lon="2.97904">
        <ele>893</ele>
        <time>2025-08-07T15:23:42Z</time>
      </trkpt>
      <trkpt lat="45.82526" lon="2.97906">
        <ele>892.6</ele>
        <time>2025-08-07T15:23:43Z</time>
      </trkpt>
      <trkpt lat="45.82533" lon="2.97909">
        <ele>892.4</ele>
        <time>2025-08-07T15:23:44Z</time>
      </trkpt>
      <trkpt lat="45.82538" lon="2.97911">
        <ele>892.2</ele>
        <time>2025-08-07T15:23:45Z</time>
      </trkpt>
      <trkpt lat="45.82542" lon="2.97915">
        <ele>892</ele>
        <time>2025-08-07T15:23:46Z</time>
      </trkpt>
      <trkpt lat="45.82546" lon="2.97918">
        <ele>891.8</ele>
        <time>2025-08-07T15:23:47Z</time>
      </trkpt>
      <trkpt lat="45.82548" lon="2.97921">
        <ele>891.6</ele>
        <time>2025-08-07T15:23:48Z</time>
      </trkpt>
      <trkpt lat="45.8255" lon="2.97924">
        <ele>891.4</ele>
        <time>2025-08-07T15:23:49Z</time>
      </trkpt>
      <trkpt lat="45.82556" lon="2.9793">
        <ele>891.2</ele>
        <time>2025-08-07T15:23:50Z</time>
      </trkpt>
      <trkpt lat="45.82558" lon="2.97935">
        <ele>891</ele>
        <time>2025-08-07T15:23:51Z</time>
      </trkpt>
      <trkpt lat="45.8256" lon="2.97943">
        <ele>890.8</ele>
        <time>2025-08-07T15:23:52Z</time>
      </trkpt>
      <trkpt lat="45.82563" lon="2.97954">
        <ele>890.6</ele>
        <time>2025-08-07T15:23:53Z</time>
      </trkpt>
      <trkpt lat="45.82564" lon="2.97963">
        <ele>890.2</ele>
        <time>2025-08-07T15:23:54Z</time>
      </trkpt>
      <trkpt lat="45.82567" lon="2.97972">
        <ele>889.8</ele>
        <time>2025-08-07T15:23:55Z</time>
      </trkpt>
      <trkpt lat="45.82569" lon="2.97984">
        <ele>889.6</ele>
        <time>2025-08-07T15:23:56Z</time>
      </trkpt>
      <trkpt lat="45.82573" lon="2.97995">
        <ele>889.2</ele>
        <time>2025-08-07T15:23:57Z</time>
      </trkpt>
      <trkpt lat="45.8258" lon="2.98006">
        <ele>888.8</ele>
        <time>2025-08-07T15:23:58Z</time>
      </trkpt>
      <trkpt lat="45.82586" lon="2.98016">
        <ele>888.6</ele>
        <time>2025-08-07T15:23:59Z</time>
      </trkpt>
      <trkpt lat="45.82589" lon="2.98022">
        <ele>888.4</ele>
        <time>2025-08-07T15:24:00Z</time>
      </trkpt>
      <trkpt lat="45.82592" lon="2.9803">
        <ele>888</ele>
        <time>2025-08-07T15:24:01Z</time>
      </trkpt>
      <trkpt lat="45.82601" lon="2.98044">
        <ele>887.8</ele>
        <time>2025-08-07T15:24:02Z</time>
      </trkpt>
      <trkpt lat="45.82605" lon="2.98051">
        <ele>887.4</ele>
        <time>2025-08-07T15:24:03Z</time>
      </trkpt>
      <trkpt lat="45.82607" lon="2.98058">
        <ele>887</ele>
        <time>2025-08-07T15:24:04Z</time>
      </trkpt>
      <trkpt lat="45.8261" lon="2.98063">
        <ele>886.8</ele>
        <time>2025-08-07T15:24:05Z</time>
      </trkpt>
      <trkpt lat="45.82614" lon="2.98067">
        <ele>886.4</ele>
        <time>2025-08-07T15:24:06Z</time>
      </trkpt>
      <trkpt lat="45.82617" lon="2.98072">
        <ele>886</ele>
        <time>2025-08-07T15:24:07Z</time>
      </trkpt>
      <trkpt lat="45.8262" lon="2.98078">
        <ele>885.8</ele>
        <time>2025-08-07T15:24:08Z</time>
      </trkpt>
      <trkpt lat="45.82623" lon="2.9809">
        <ele>885.4</ele>
        <time>2025-08-07T15:24:09Z</time>
      </trkpt>
      <trkpt lat="45.82625" lon="2.98102">
        <ele>885</ele>
        <time>2025-08-07T15:24:10Z</time>
      </trkpt>
      <trkpt lat="45.82626" lon="2.98111">
        <ele>884.6</ele>
        <time>2025-08-07T15:24:11Z</time>
      </trkpt>
      <trkpt lat="45.82629" lon="2.98122">
        <ele>884.4</ele>
        <time>2025-08-07T15:24:12Z</time>
      </trkpt>
      <trkpt lat="45.82631" lon="2.98134">
        <ele>884.2</ele>
        <time>2025-08-07T15:24:13Z</time>
      </trkpt>
      <trkpt lat="45.82632" lon="2.98145">
        <ele>883.8</ele>
        <time>2025-08-07T15:24:14Z</time>
      </trkpt>
      <trkpt lat="45.82639" lon="2.98153">
        <ele>883.6</ele>
        <time>2025-08-07T15:24:15Z</time>
      </trkpt>
      <trkpt lat="45.82644" lon="2.98161">
        <ele>883.2</ele>
        <time>2025-08-07T15:24:16Z</time>
      </trkpt>
      <trkpt lat="45.82646" lon="2.9817">
        <ele>883</ele>
        <time>2025-08-07T15:24:17Z</time>
      </trkpt>
      <trkpt lat="45.82649" lon="2.98179">
        <ele>882.6</ele>
        <time>2025-08-07T15:24:18Z</time>
      </trkpt>
      <trkpt lat="45.82652" lon="2.98187">
        <ele>882.2</ele>
        <time>2025-08-07T15:24:19Z</time>
      </trkpt>
      <trkpt lat="45.82654" lon="2.98195">
        <ele>882</ele>
        <time>2025-08-07T15:24:20Z</time>
      </trkpt>
      <trkpt lat="45.82658" lon="2.98202">
        <ele>881.6</ele>
        <time>2025-08-07T15:24:21Z</time>
      </trkpt>
      <trkpt lat="45.82661" lon="2.98206">
        <ele>881.4</ele>
        <time>2025-08-07T15:24:22Z</time>
      </trkpt>
      <trkpt lat="45.82665" lon="2.98212">
        <ele>881.2</ele>
        <time>2025-08-07T15:24:23Z</time>
      </trkpt>
      <trkpt lat="45.82669" lon="2.98218">
        <ele>880.8</ele>
        <time>2025-08-07T15:24:24Z</time>
      </trkpt>
      <trkpt lat="45.82674" lon="2.98224">
        <ele>880.6</ele>
        <time>2025-08-07T15:24:25Z</time>
      </trkpt>
      <trkpt lat="45.82676" lon="2.98231">
        <ele>880.2</ele>
        <time>2025-08-07T15:24:26Z</time>
      </trkpt>
      <trkpt lat="45.82678" lon="2.98238">
        <ele>880</ele>
        <time>2025-08-07T15:24:27Z</time>
      </trkpt>
      <trkpt lat="45.8268" lon="2.98245">
        <ele>879.8</ele>
        <time>2025-08-07T15:24:28Z</time>
      </trkpt>
      <trkpt lat="45.82683" lon="2.98259">
        <ele>879.6</ele>
        <time>2025-08-07T15:24:29Z</time>
      </trkpt>
      <trkpt lat="45.82684" lon="2.98272">
        <ele>879.4</ele>
        <time>2025-08-07T15:24:30Z</time>
      </trkpt>
      <trkpt lat="45.82686" lon="2.9828">
        <ele>879.2</ele>
        <time>2025-08-07T15:24:31Z</time>
      </trkpt>
      <trkpt lat="45.82693" lon="2.98287">
        <ele>879</ele>
        <time>2025-08-07T15:24:32Z</time>
      </trkpt>
      <trkpt lat="45.82699" lon="2.98297">
        <ele>878.8</ele>
        <time>2025-08-07T15:24:33Z</time>
      </trkpt>
      <trkpt lat="45.82703" lon="2.98306">
        <ele>878.6</ele>
        <time>2025-08-07T15:24:34Z</time>
      </trkpt>
      <trkpt lat="45.82704" lon="2.98316">
        <ele>878.4</ele>
        <time>2025-08-07T15:24:35Z</time>
      </trkpt>
      <trkpt lat="45.82707" lon="2.98326">
        <ele>878.2</ele>
        <time>2025-08-07T15:24:36Z</time>
      </trkpt>
      <trkpt lat="45.82711" lon="2.98334">
        <ele>878</ele>
        <time>2025-08-07T15:24:37Z</time>
      </trkpt>
      <trkpt lat="45.82715" lon="2.9834">
        <ele>877.8</ele>
        <time>2025-08-07T15:24:38Z</time>
      </trkpt>
      <trkpt lat="45.8272" lon="2.98344">
        <ele>877.6</ele>
        <time>2025-08-07T15:24:39Z</time>
      </trkpt>
      <trkpt lat="45.82725" lon="2.98347">
        <ele>877.6</ele>
        <time>2025-08-07T15:24:40Z</time>
      </trkpt>
      <trkpt lat="45.82729" lon="2.98349">
        <ele>877.4</ele>
        <time>2025-08-07T15:24:41Z</time>
      </trkpt>
      <trkpt lat="45.82733" lon="2.9835">
        <ele>877.2</ele>
        <time>2025-08-07T15:24:42Z</time>
      </trkpt>
      <trkpt lat="45.82737" lon="2.9835">
        <ele>877.2</ele>
        <time>2025-08-07T15:24:43Z</time>
      </trkpt>
      <trkpt lat="45.82742" lon="2.9835">
        <ele>877</ele>
        <time>2025-08-07T15:24:44Z</time>
      </trkpt>
      <trkpt lat="45.82746" lon="2.98349">
        <ele>876.8</ele>
        <time>2025-08-07T15:24:45Z</time>
      </trkpt>
      <trkpt lat="45.8275" lon="2.98348">
        <ele>876.6</ele>
        <time>2025-08-07T15:24:46Z</time>
      </trkpt>
      <trkpt lat="45.82756" lon="2.98345">
        <ele>876.6</ele>
        <time>2025-08-07T15:24:47Z</time>
      </trkpt>
      <trkpt lat="45.82761" lon="2.98341">
        <ele>876.4</ele>
        <time>2025-08-07T15:24:48Z</time>
      </trkpt>
      <trkpt lat="45.82764" lon="2.98339">
        <ele>876.2</ele>
        <time>2025-08-07T15:24:49Z</time>
      </trkpt>
      <trkpt lat="45.82768" lon="2.98337">
        <ele>876.2</ele>
        <time>2025-08-07T15:24:50Z</time>
      </trkpt>
      <trkpt lat="45.82772" lon="2.98333">
        <ele>876</ele>
        <time>2025-08-07T15:24:51Z</time>
      </trkpt>
      <trkpt lat="45.82775" lon="2.98328">
        <ele>875.8</ele>
        <time>2025-08-07T15:24:52Z</time>
      </trkpt>
      <trkpt lat="45.82781" lon="2.98322">
        <ele>875.8</ele>
        <time>2025-08-07T15:24:53Z</time>
      </trkpt>
      <trkpt lat="45.82785" lon="2.98317">
        <ele>875.6</ele>
        <time>2025-08-07T15:24:54Z</time>
      </trkpt>
      <trkpt lat="45.82789" lon="2.98314">
        <ele>875.6</ele>
        <time>2025-08-07T15:24:55Z</time>
      </trkpt>
      <trkpt lat="45.82793" lon="2.98312">
        <ele>875.4</ele>
        <time>2025-08-07T15:24:56Z</time>
      </trkpt>
      <trkpt lat="45.82797" lon="2.98311">
        <ele>875.4</ele>
        <time>2025-08-07T15:24:57Z</time>
      </trkpt>
      <trkpt lat="45.82802" lon="2.9831">
        <ele>875.2</ele>
        <time>2025-08-07T15:24:58Z</time>
      </trkpt>
      <trkpt lat="45.82809" lon="2.98307">
        <ele>875.2</ele>
        <time>2025-08-07T15:24:59Z</time>
      </trkpt>
      <trkpt lat="45.82813" lon="2.98306">
        <ele>875.2</ele>
        <time>2025-08-07T15:25:00Z</time>
      </trkpt>
      <trkpt lat="45.82816" lon="2.98304">
        <ele>875.2</ele>
        <time>2025-08-07T15:25:01Z</time>
      </trkpt>
      <trkpt lat="45.82819" lon="2.98304">
        <ele>875</ele>
        <time>2025-08-07T15:25:02Z</time>
      </trkpt>
      <trkpt lat="45.82822" lon="2.98302">
        <ele>875</ele>
        <time>2025-08-07T15:25:03Z</time>
      </trkpt>
      <trkpt lat="45.82824" lon="2.98299">
        <ele>875</ele>
        <time>2025-08-07T15:25:04Z</time>
      </trkpt>
      <trkpt lat="45.8283" lon="2.98295">
        <ele>875</ele>
        <time>2025-08-07T15:25:05Z</time>
      </trkpt>
      <trkpt lat="45.82834" lon="2.98292">
        <ele>875</ele>
        <time>2025-08-07T15:25:06Z</time>
      </trkpt>
      <trkpt lat="45.8284" lon="2.98288">
        <ele>875</ele>
        <time>2025-08-07T15:25:07Z</time>
      </trkpt>
      <trkpt lat="45.82846" lon="2.98284">
        <ele>874.8</ele>
        <time>2025-08-07T15:25:08Z</time>
      </trkpt>
      <trkpt lat="45.82851" lon="2.98281">
        <ele>874.8</ele>
        <time>2025-08-07T15:25:09Z</time>
      </trkpt>
      <trkpt lat="45.82858" lon="2.98278">
        <ele>874.8</ele>
        <time>2025-08-07T15:25:10Z</time>
      </trkpt>
      <trkpt lat="45.82863" lon="2.98275">
        <ele>874.8</ele>
        <time>2025-08-07T15:25:11Z</time>
      </trkpt>
      <trkpt lat="45.82866" lon="2.98272">
        <ele>874.8</ele>
        <time>2025-08-07T15:25:12Z</time>
      </trkpt>
      <trkpt lat="45.8287" lon="2.98268">
        <ele>874.8</ele>
        <time>2025-08-07T15:25:13Z</time>
      </trkpt>
      <trkpt lat="45.82875" lon="2.98264">
        <ele>874.8</ele>
        <time>2025-08-07T15:25:14Z</time>
      </trkpt>
      <trkpt lat="45.82878" lon="2.98262">
        <ele>874.8</ele>
        <time>2025-08-07T15:25:15Z</time>
      </trkpt>
      <trkpt lat="45.82882" lon="2.9826">
        <ele>874.8</ele>
        <time>2025-08-07T15:25:16Z</time>
      </trkpt>
      <trkpt lat="45.82885" lon="2.98258">
        <ele>874.8</ele>
        <time>2025-08-07T15:25:17Z</time>
      </trkpt>
      <trkpt lat="45.82888" lon="2.98256">
        <ele>874.8</ele>
        <time>2025-08-07T15:25:18Z</time>
      </trkpt>
      <trkpt lat="45.82892" lon="2.98253">
        <ele>874.8</ele>
        <time>2025-08-07T15:25:19Z</time>
      </trkpt>
      <trkpt lat="45.82896" lon="2.98249">
        <ele>874.8</ele>
        <time>2025-08-07T15:25:20Z</time>
      </trkpt>
      <trkpt lat="45.82902" lon="2.98244">
        <ele>875</ele>
        <time>2025-08-07T15:25:21Z</time>
      </trkpt>
      <trkpt lat="45.82909" lon="2.98236">
        <ele>875</ele>
        <time>2025-08-07T15:25:22Z</time>
      </trkpt>
      <trkpt lat="45.82914" lon="2.9823">
        <ele>875</ele>
        <time>2025-08-07T15:25:23Z</time>
      </trkpt>
      <trkpt lat="45.82917" lon="2.98225">
        <ele>875</ele>
        <time>2025-08-07T15:25:24Z</time>
      </trkpt>
      <trkpt lat="45.8292" lon="2.98219">
        <ele>875</ele>
        <time>2025-08-07T15:25:25Z</time>
      </trkpt>
      <trkpt lat="45.82923" lon="2.98215">
        <ele>875</ele>
        <time>2025-08-07T15:25:26Z</time>
      </trkpt>
      <trkpt lat="45.82925" lon="2.98212">
        <ele>875.2</ele>
        <time>2025-08-07T15:25:27Z</time>
      </trkpt>
      <trkpt lat="45.82929" lon="2.98209">
        <ele>875.2</ele>
        <time>2025-08-07T15:25:28Z</time>
      </trkpt>
      <trkpt lat="45.82934" lon="2.98206">
        <ele>875.2</ele>
        <time>2025-08-07T15:25:29Z</time>
      </trkpt>
      <trkpt lat="45.82939" lon="2.98203">
        <ele>875.4</ele>
        <time>2025-08-07T15:25:30Z</time>
      </trkpt>
      <trkpt lat="45.82944" lon="2.98199">
        <ele>875.4</ele>
        <time>2025-08-07T15:25:31Z</time>
      </trkpt>
      <trkpt lat="45.82949" lon="2.98193">
        <ele>875.4</ele>
        <time>2025-08-07T15:25:32Z</time>
      </trkpt>
      <trkpt lat="45.82955" lon="2.98187">
        <ele>875.6</ele>
        <time>2025-08-07T15:25:33Z</time>
      </trkpt>
      <trkpt lat="45.82961" lon="2.98181">
        <ele>875.6</ele>
        <time>2025-08-07T15:25:34Z</time>
      </trkpt>
      <trkpt lat="45.82968" lon="2.98175">
        <ele>875.6</ele>
        <time>2025-08-07T15:25:35Z</time>
      </trkpt>
      <trkpt lat="45.82972" lon="2.98169">
        <ele>875.8</ele>
        <time>2025-08-07T15:25:36Z</time>
      </trkpt>
      <trkpt lat="45.82975" lon="2.98165">
        <ele>875.8</ele>
        <time>2025-08-07T15:25:37Z</time>
      </trkpt>
      <trkpt lat="45.82977" lon="2.9816">
        <ele>876</ele>
        <time>2025-08-07T15:25:38Z</time>
      </trkpt>
      <trkpt lat="45.82978" lon="2.98156">
        <ele>876</ele>
        <time>2025-08-07T15:25:39Z</time>
      </trkpt>
      <trkpt lat="45.82979" lon="2.98152">
        <ele>876</ele>
        <time>2025-08-07T15:25:40Z</time>
      </trkpt>
      <trkpt lat="45.82983" lon="2.98148">
        <ele>876.2</ele>
        <time>2025-08-07T15:25:41Z</time>
      </trkpt>
      <trkpt lat="45.82986" lon="2.98144">
        <ele>876.4</ele>
        <time>2025-08-07T15:25:42Z</time>
      </trkpt>
      <trkpt lat="45.82988" lon="2.9814">
        <ele>876.4</ele>
        <time>2025-08-07T15:25:43Z</time>
      </trkpt>
      <trkpt lat="45.82991" lon="2.98136">
        <ele>876.6</ele>
        <time>2025-08-07T15:25:44Z</time>
      </trkpt>
      <trkpt lat="45.82994" lon="2.98132">
        <ele>876.6</ele>
        <time>2025-08-07T15:25:45Z</time>
      </trkpt>
      <trkpt lat="45.82996" lon="2.98128">
        <ele>876.8</ele>
        <time>2025-08-07T15:25:46Z</time>
      </trkpt>
      <trkpt lat="45.82999" lon="2.98122">
        <ele>876.8</ele>
        <time>2025-08-07T15:25:47Z</time>
      </trkpt>
      <trkpt lat="45.83001" lon="2.98117">
        <ele>877</ele>
        <time>2025-08-07T15:25:48Z</time>
      </trkpt>
      <trkpt lat="45.83004" lon="2.98113">
        <ele>877</ele>
        <time>2025-08-07T15:25:49Z</time>
      </trkpt>
      <trkpt lat="45.83007" lon="2.98108">
        <ele>877.2</ele>
        <time>2025-08-07T15:25:50Z</time>
      </trkpt>
      <trkpt lat="45.8301" lon="2.98104">
        <ele>877.4</ele>
        <time>2025-08-07T15:25:51Z</time>
      </trkpt>
      <trkpt lat="45.83013" lon="2.98099">
        <ele>877.4</ele>
        <time>2025-08-07T15:25:52Z</time>
      </trkpt>
      <trkpt lat="45.83016" lon="2.98094">
        <ele>877.4</ele>
        <time>2025-08-07T15:25:53Z</time>
      </trkpt>
      <trkpt lat="45.8302" lon="2.98089">
        <ele>877.6</ele>
        <time>2025-08-07T15:25:54Z</time>
      </trkpt>
      <trkpt lat="45.83023" lon="2.98084">
        <ele>877.8</ele>
        <time>2025-08-07T15:25:55Z</time>
      </trkpt>
      <trkpt lat="45.83028" lon="2.98079">
        <ele>877.8</ele>
        <time>2025-08-07T15:25:56Z</time>
      </trkpt>
      <trkpt lat="45.83033" lon="2.98074">
        <ele>878</ele>
        <time>2025-08-07T15:25:57Z</time>
      </trkpt>
      <trkpt lat="45.83039" lon="2.98068">
        <ele>878.2</ele>
        <time>2025-08-07T15:25:58Z</time>
      </trkpt>
      <trkpt lat="45.83044" lon="2.98063">
        <ele>878.2</ele>
        <time>2025-08-07T15:25:59Z</time>
      </trkpt>
      <trkpt lat="45.83046" lon="2.98058">
        <ele>878.4</ele>
        <time>2025-08-07T15:26:00Z</time>
      </trkpt>
      <trkpt lat="45.83049" lon="2.98053">
        <ele>878.6</ele>
        <time>2025-08-07T15:26:01Z</time>
      </trkpt>
      <trkpt lat="45.83051" lon="2.98048">
        <ele>878.8</ele>
        <time>2025-08-07T15:26:02Z</time>
      </trkpt>
      <trkpt lat="45.83052" lon="2.98043">
        <ele>879</ele>
        <time>2025-08-07T15:26:03Z</time>
      </trkpt>
      <trkpt lat="45.83054" lon="2.98037">
        <ele>879</ele>
        <time>2025-08-07T15:26:04Z</time>
      </trkpt>
      <trkpt lat="45.83055" lon="2.98032">
        <ele>879.2</ele>
        <time>2025-08-07T15:26:05Z</time>
      </trkpt>
      <trkpt lat="45.83057" lon="2.98027">
        <ele>879.4</ele>
        <time>2025-08-07T15:26:06Z</time>
      </trkpt>
      <trkpt lat="45.83059" lon="2.98023">
        <ele>879.6</ele>
        <time>2025-08-07T15:26:07Z</time>
      </trkpt>
      <trkpt lat="45.83061" lon="2.98018">
        <ele>879.6</ele>
        <time>2025-08-07T15:26:08Z</time>
      </trkpt>
      <trkpt lat="45.83063" lon="2.98013">
        <ele>879.8</ele>
        <time>2025-08-07T15:26:09Z</time>
      </trkpt>
      <trkpt lat="45.83066" lon="2.98007">
        <ele>880</ele>
        <time>2025-08-07T15:26:10Z</time>
      </trkpt>
      <trkpt lat="45.83067" lon="2.98002">
        <ele>880.2</ele>
        <time>2025-08-07T15:26:11Z</time>
      </trkpt>
      <trkpt lat="45.83068" lon="2.97997">
        <ele>880.2</ele>
        <time>2025-08-07T15:26:12Z</time>
      </trkpt>
      <trkpt lat="45.83069" lon="2.97991">
        <ele>880.4</ele>
        <time>2025-08-07T15:26:13Z</time>
      </trkpt>
      <trkpt lat="45.8307" lon="2.97987">
        <ele>880.6</ele>
        <time>2025-08-07T15:26:14Z</time>
      </trkpt>
      <trkpt lat="45.8307" lon="2.97982">
        <ele>880.6</ele>
        <time>2025-08-07T15:26:15Z</time>
      </trkpt>
      <trkpt lat="45.83071" lon="2.97969">
        <ele>880.8</ele>
        <time>2025-08-07T15:26:16Z</time>
      </trkpt>
      <trkpt lat="45.83073" lon="2.97961">
        <ele>881</ele>
        <time>2025-08-07T15:26:17Z</time>
      </trkpt>
      <trkpt lat="45.83075" lon="2.9795">
        <ele>881.2</ele>
        <time>2025-08-07T15:26:18Z</time>
      </trkpt>
      <trkpt lat="45.83078" lon="2.97944">
        <ele>881.4</ele>
        <time>2025-08-07T15:26:19Z</time>
      </trkpt>
      <trkpt lat="45.83078" lon="2.97942">
        <ele>881.6</ele>
        <time>2025-08-07T15:26:20Z</time>
      </trkpt>
      <trkpt lat="45.83081" lon="2.97939">
        <ele>881.8</ele>
        <time>2025-08-07T15:26:21Z</time>
      </trkpt>
      <trkpt lat="45.83086" lon="2.97934">
        <ele>882</ele>
        <time>2025-08-07T15:26:22Z</time>
      </trkpt>
      <trkpt lat="45.83085" lon="2.97928">
        <ele>882.2</ele>
        <time>2025-08-07T15:26:23Z</time>
      </trkpt>
      <trkpt lat="45.83083" lon="2.97923">
        <ele>882.4</ele>
        <time>2025-08-07T15:26:24Z</time>
      </trkpt>
      <trkpt lat="45.83082" lon="2.97915">
        <ele>882.6</ele>
        <time>2025-08-07T15:26:25Z</time>
      </trkpt>
      <trkpt lat="45.8308" lon="2.97907">
        <ele>882.8</ele>
        <time>2025-08-07T15:26:26Z</time>
      </trkpt>
      <trkpt lat="45.83081" lon="2.97899">
        <ele>882.8</ele>
        <time>2025-08-07T15:26:27Z</time>
      </trkpt>
      <trkpt lat="45.83079" lon="2.97893">
        <ele>883</ele>
        <time>2025-08-07T15:26:28Z</time>
      </trkpt>
      <trkpt lat="45.83079" lon="2.97888">
        <ele>883.2</ele>
        <time>2025-08-07T15:26:29Z</time>
      </trkpt>
      <trkpt lat="45.83082" lon="2.97881">
        <ele>883.4</ele>
        <time>2025-08-07T15:26:30Z</time>
      </trkpt>
      <trkpt lat="45.83086" lon="2.9787">
        <ele>883.6</ele>
        <time>2025-08-07T15:26:31Z</time>
      </trkpt>
      <trkpt lat="45.83089" lon="2.97864">
        <ele>883.6</ele>
        <time>2025-08-07T15:26:32Z</time>
      </trkpt>
      <trkpt lat="45.83089" lon="2.97858">
        <ele>883.8</ele>
        <time>2025-08-07T15:26:33Z</time>
      </trkpt>
      <trkpt lat="45.8309" lon="2.97851">
        <ele>884</ele>
        <time>2025-08-07T15:26:34Z</time>
      </trkpt>
      <trkpt lat="45.83091" lon="2.97846">
        <ele>884</ele>
        <time>2025-08-07T15:26:35Z</time>
      </trkpt>
      <trkpt lat="45.83091" lon="2.97842">
        <ele>884.2</ele>
        <time>2025-08-07T15:26:36Z</time>
      </trkpt>
      <trkpt lat="45.83091" lon="2.97839">
        <ele>884.4</ele>
        <time>2025-08-07T15:26:37Z</time>
      </trkpt>
      <trkpt lat="45.83092" lon="2.97833">
        <ele>884.4</ele>
        <time>2025-08-07T15:26:38Z</time>
      </trkpt>
      <trkpt lat="45.83098" lon="2.97826">
        <ele>884.6</ele>
        <time>2025-08-07T15:26:39Z</time>
      </trkpt>
      <trkpt lat="45.831" lon="2.97818">
        <ele>884.8</ele>
        <time>2025-08-07T15:26:40Z</time>
      </trkpt>
      <trkpt lat="45.83103" lon="2.9781">
        <ele>884.8</ele>
        <time>2025-08-07T15:26:41Z</time>
      </trkpt>
      <trkpt lat="45.83105" lon="2.97804">
        <ele>885</ele>
        <time>2025-08-07T15:26:42Z</time>
      </trkpt>
      <trkpt lat="45.83106" lon="2.97796">
        <ele>885.2</ele>
        <time>2025-08-07T15:26:43Z</time>
      </trkpt>
      <trkpt lat="45.83107" lon="2.97789">
        <ele>885.4</ele>
        <time>2025-08-07T15:26:44Z</time>
      </trkpt>
      <trkpt lat="45.83106" lon="2.97783">
        <ele>885.6</ele>
        <time>2025-08-07T15:26:45Z</time>
      </trkpt>
      <trkpt lat="45.83104" lon="2.97777">
        <ele>885.8</ele>
        <time>2025-08-07T15:26:46Z</time>
      </trkpt>
      <trkpt lat="45.83103" lon="2.97772">
        <ele>886</ele>
        <time>2025-08-07T15:26:47Z</time>
      </trkpt>
      <trkpt lat="45.83103" lon="2.97764">
        <ele>886.2</ele>
        <time>2025-08-07T15:26:48Z</time>
      </trkpt>
      <trkpt lat="45.83104" lon="2.97757">
        <ele>886.4</ele>
        <time>2025-08-07T15:26:49Z</time>
      </trkpt>
      <trkpt lat="45.83103" lon="2.97752">
        <ele>886.6</ele>
        <time>2025-08-07T15:26:50Z</time>
      </trkpt>
      <trkpt lat="45.83102" lon="2.97745">
        <ele>886.8</ele>
        <time>2025-08-07T15:26:51Z</time>
      </trkpt>
      <trkpt lat="45.83103" lon="2.97737">
        <ele>887</ele>
        <time>2025-08-07T15:26:52Z</time>
      </trkpt>
      <trkpt lat="45.83102" lon="2.97731">
        <ele>887.2</ele>
        <time>2025-08-07T15:26:53Z</time>
      </trkpt>
      <trkpt lat="45.83102" lon="2.97727">
        <ele>887.4</ele>
        <time>2025-08-07T15:26:54Z</time>
      </trkpt>
      <trkpt lat="45.83102" lon="2.97723">
        <ele>887.6</ele>
        <time>2025-08-07T15:26:55Z</time>
      </trkpt>
      <trkpt lat="45.83102" lon="2.97718">
        <ele>887.6</ele>
        <time>2025-08-07T15:26:56Z</time>
      </trkpt>
      <trkpt lat="45.83102" lon="2.97713">
        <ele>887.8</ele>
        <time>2025-08-07T15:26:57Z</time>
      </trkpt>
      <trkpt lat="45.83102" lon="2.9771">
        <ele>888</ele>
        <time>2025-08-07T15:26:58Z</time>
      </trkpt>
      <trkpt lat="45.83103" lon="2.97707">
        <ele>888.2</ele>
        <time>2025-08-07T15:26:59Z</time>
      </trkpt>
      <trkpt lat="45.83103" lon="2.97705">
        <ele>888.4</ele>
        <time>2025-08-07T15:27:00Z</time>
      </trkpt>
      <trkpt lat="45.83103" lon="2.97702">
        <ele>888.4</ele>
        <time>2025-08-07T15:27:01Z</time>
      </trkpt>
      <trkpt lat="45.83104" lon="2.977">
        <ele>888.6</ele>
        <time>2025-08-07T15:27:02Z</time>
      </trkpt>
      <trkpt lat="45.83104" lon="2.97698">
        <ele>888.8</ele>
        <time>2025-08-07T15:27:03Z</time>
      </trkpt>
      <trkpt lat="45.83105" lon="2.97696">
        <ele>888.8</ele>
        <time>2025-08-07T15:27:04Z</time>
      </trkpt>
      <trkpt lat="45.83106" lon="2.97694">
        <ele>889</ele>
        <time>2025-08-07T15:27:05Z</time>
      </trkpt>
      <trkpt lat="45.83106" lon="2.97692">
        <ele>889</ele>
        <time>2025-08-07T15:27:06Z</time>
      </trkpt>
      <trkpt lat="45.83106" lon="2.97692">
        <ele>889</ele>
        <time>2025-08-07T15:27:07Z</time>
      </trkpt>
      <trkpt lat="45.83106" lon="2.97692">
        <ele>889</ele>
        <time>2025-08-07T15:27:08Z</time>
      </trkpt>
      <trkpt lat="45.83106" lon="2.97692">
        <ele>889</ele>
        <time>2025-08-07T15:27:09Z</time>
      </trkpt>
      <trkpt lat="45.83107" lon="2.97691">
        <ele>889</ele>
        <time>2025-08-07T15:27:10Z</time>
      </trkpt>
      <trkpt lat="45.83107" lon="2.97691">
        <ele>888.8</ele>
        <time>2025-08-07T15:27:11Z</time>
      </trkpt>
      <trkpt lat="45.83107" lon="2.97691">
        <ele>888.8</ele>
        <time>2025-08-07T15:27:12Z</time>
      </trkpt>
      <trkpt lat="45.83107" lon="2.97691">
        <ele>888.8</ele>
        <time>2025-08-07T15:27:13Z</time>
      </trkpt>
      <trkpt lat="45.83107" lon="2.97693">
        <ele>888.6</ele>
        <time>2025-08-07T15:27:28Z</time>
      </trkpt>
      <trkpt lat="45.83107" lon="2.97695">
        <ele>888.6</ele>
        <time>2025-08-07T15:27:29Z</time>
      </trkpt>
      <trkpt lat="45.83107" lon="2.97698">
        <ele>888.6</ele>
        <time>2025-08-07T15:27:30Z</time>
      </trkpt>
      <trkpt lat="45.83107" lon="2.977">
        <ele>888.4</ele>
        <time>2025-08-07T15:27:31Z</time>
      </trkpt>
      <trkpt lat="45.83107" lon="2.97703">
        <ele>888.2</ele>
        <time>2025-08-07T15:27:32Z</time>
      </trkpt>
      <trkpt lat="45.83107" lon="2.97708">
        <ele>888.2</ele>
        <time>2025-08-07T15:27:33Z</time>
      </trkpt>
      <trkpt lat="45.83107" lon="2.97712">
        <ele>888</ele>
        <time>2025-08-07T15:27:34Z</time>
      </trkpt>
      <trkpt lat="45.83107" lon="2.97716">
        <ele>888</ele>
        <time>2025-08-07T15:27:35Z</time>
      </trkpt>
      <trkpt lat="45.83107" lon="2.97719">
        <ele>887.8</ele>
        <time>2025-08-07T15:27:36Z</time>
      </trkpt>
      <trkpt lat="45.83107" lon="2.97722">
        <ele>887.6</ele>
        <time>2025-08-07T15:27:37Z</time>
      </trkpt>
      <trkpt lat="45.83107" lon="2.97725">
        <ele>887.4</ele>
        <time>2025-08-07T15:27:38Z</time>
      </trkpt>
      <trkpt lat="45.83106" lon="2.97727">
        <ele>887</ele>
        <time>2025-08-07T15:27:39Z</time>
      </trkpt>
      <trkpt lat="45.83106" lon="2.97728">
        <ele>886.8</ele>
        <time>2025-08-07T15:27:40Z</time>
      </trkpt>
      <trkpt lat="45.83106" lon="2.97728">
        <ele>886.6</ele>
        <time>2025-08-07T15:27:41Z</time>
      </trkpt>
      <trkpt lat="45.83106" lon="2.97728">
        <ele>886.4</ele>
        <time>2025-08-07T15:27:42Z</time>
      </trkpt>
      <trkpt lat="45.83106" lon="2.97728">
        <ele>886.4</ele>
        <time>2025-08-07T15:27:43Z</time>
      </trkpt>
      <trkpt lat="45.83106" lon="2.97728">
        <ele>886.4</ele>
        <time>2025-08-07T15:27:44Z</time>
      </trkpt>
      <trkpt lat="45.83106" lon="2.97731">
        <ele>886.2</ele>
        <time>2025-08-07T15:27:45Z</time>
      </trkpt>
      <trkpt lat="45.83106" lon="2.97731">
        <ele>886.2</ele>
        <time>2025-08-07T15:27:46Z</time>
      </trkpt>
      <trkpt lat="45.83106" lon="2.97732">
        <ele>886.2</ele>
        <time>2025-08-07T15:27:47Z</time>
      </trkpt>
      <trkpt lat="45.83107" lon="2.97732">
        <ele>886.4</ele>
        <time>2025-08-07T15:27:48Z</time>
      </trkpt>
      <trkpt lat="45.83108" lon="2.97731">
        <ele>886.4</ele>
        <time>2025-08-07T15:27:49Z</time>
      </trkpt>
      <trkpt lat="45.83111" lon="2.9773">
        <ele>886.4</ele>
        <time>2025-08-07T15:27:50Z</time>
      </trkpt>
      <trkpt lat="45.83113" lon="2.97728">
        <ele>886.6</ele>
        <time>2025-08-07T15:27:51Z</time>
      </trkpt>
      <trkpt lat="45.83116" lon="2.97727">
        <ele>886.6</ele>
        <time>2025-08-07T15:27:52Z</time>
      </trkpt>
      <trkpt lat="45.83118" lon="2.97724">
        <ele>886.6</ele>
        <time>2025-08-07T15:27:53Z</time>
      </trkpt>
      <trkpt lat="45.8312" lon="2.97721">
        <ele>886.8</ele>
        <time>2025-08-07T15:27:54Z</time>
      </trkpt>
      <trkpt lat="45.83122" lon="2.97718">
        <ele>886.8</ele>
        <time>2025-08-07T15:27:55Z</time>
      </trkpt>
      <trkpt lat="45.83126" lon="2.97715">
        <ele>887</ele>
        <time>2025-08-07T15:27:56Z</time>
      </trkpt>
      <trkpt lat="45.83128" lon="2.97712">
        <ele>887</ele>
        <time>2025-08-07T15:27:57Z</time>
      </trkpt>
      <trkpt lat="45.8313" lon="2.9771">
        <ele>887.2</ele>
        <time>2025-08-07T15:27:58Z</time>
      </trkpt>
      <trkpt lat="45.83133" lon="2.97707">
        <ele>887.2</ele>
        <time>2025-08-07T15:27:59Z</time>
      </trkpt>
      <trkpt lat="45.83136" lon="2.97704">
        <ele>887.2</ele>
        <time>2025-08-07T15:28:00Z</time>
      </trkpt>
      <trkpt lat="45.83138" lon="2.97699">
        <ele>887.4</ele>
        <time>2025-08-07T15:28:01Z</time>
      </trkpt>
      <trkpt lat="45.83139" lon="2.97695">
        <ele>887.4</ele>
        <time>2025-08-07T15:28:02Z</time>
      </trkpt>
      <trkpt lat="45.83141" lon="2.97691">
        <ele>887.6</ele>
        <time>2025-08-07T15:28:03Z</time>
      </trkpt>
      <trkpt lat="45.83141" lon="2.97685">
        <ele>887.8</ele>
        <time>2025-08-07T15:28:04Z</time>
      </trkpt>
      <trkpt lat="45.83142" lon="2.97681">
        <ele>888</ele>
        <time>2025-08-07T15:28:05Z</time>
      </trkpt>
      <trkpt lat="45.83145" lon="2.97676">
        <ele>888.2</ele>
        <time>2025-08-07T15:28:06Z</time>
      </trkpt>
      <trkpt lat="45.83147" lon="2.97672">
        <ele>888.4</ele>
        <time>2025-08-07T15:28:07Z</time>
      </trkpt>
      <trkpt lat="45.83149" lon="2.97668">
        <ele>888.6</ele>
        <time>2025-08-07T15:28:08Z</time>
      </trkpt>
      <trkpt lat="45.8315" lon="2.97663">
        <ele>888.8</ele>
        <time>2025-08-07T15:28:09Z</time>
      </trkpt>
      <trkpt lat="45.83152" lon="2.97659">
        <ele>888.8</ele>
        <time>2025-08-07T15:28:10Z</time>
      </trkpt>
      <trkpt lat="45.83153" lon="2.97655">
        <ele>889</ele>
        <time>2025-08-07T15:28:11Z</time>
      </trkpt>
      <trkpt lat="45.83154" lon="2.97651">
        <ele>889.2</ele>
        <time>2025-08-07T15:28:12Z</time>
      </trkpt>
      <trkpt lat="45.83154" lon="2.97647">
        <ele>889.4</ele>
        <time>2025-08-07T15:28:13Z</time>
      </trkpt>
      <trkpt lat="45.83155" lon="2.97644">
        <ele>889.4</ele>
        <time>2025-08-07T15:28:14Z</time>
      </trkpt>
      <trkpt lat="45.83157" lon="2.97642">
        <ele>889.6</ele>
        <time>2025-08-07T15:28:15Z</time>
      </trkpt>
      <trkpt lat="45.83157" lon="2.97639">
        <ele>889.8</ele>
        <time>2025-08-07T15:28:16Z</time>
      </trkpt>
      <trkpt lat="45.83158" lon="2.97637">
        <ele>889.8</ele>
        <time>2025-08-07T15:28:17Z</time>
      </trkpt>
      <trkpt lat="45.8316" lon="2.97635">
        <ele>890</ele>
        <time>2025-08-07T15:28:18Z</time>
      </trkpt>
      <trkpt lat="45.8316" lon="2.97633">
        <ele>890.2</ele>
        <time>2025-08-07T15:28:19Z</time>
      </trkpt>
      <trkpt lat="45.8316" lon="2.9763">
        <ele>890.4</ele>
        <time>2025-08-07T15:28:20Z</time>
      </trkpt>
      <trkpt lat="45.83158" lon="2.97626">
        <ele>890.6</ele>
        <time>2025-08-07T15:28:21Z</time>
      </trkpt>
      <trkpt lat="45.83157" lon="2.97621">
        <ele>890.6</ele>
        <time>2025-08-07T15:28:22Z</time>
      </trkpt>
      <trkpt lat="45.83156" lon="2.97616">
        <ele>890.8</ele>
        <time>2025-08-07T15:28:23Z</time>
      </trkpt>
      <trkpt lat="45.83155" lon="2.97611">
        <ele>891</ele>
        <time>2025-08-07T15:28:24Z</time>
      </trkpt>
      <trkpt lat="45.83155" lon="2.97606">
        <ele>891.2</ele>
        <time>2025-08-07T15:28:25Z</time>
      </trkpt>
      <trkpt lat="45.83156" lon="2.97602">
        <ele>891.4</ele>
        <time>2025-08-07T15:28:26Z</time>
      </trkpt>
      <trkpt lat="45.83156" lon="2.97598">
        <ele>891.6</ele>
        <time>2025-08-07T15:28:27Z</time>
      </trkpt>
      <trkpt lat="45.83155" lon="2.97594">
        <ele>891.8</ele>
        <time>2025-08-07T15:28:28Z</time>
      </trkpt>
      <trkpt lat="45.83155" lon="2.9759">
        <ele>892</ele>
        <time>2025-08-07T15:28:29Z</time>
      </trkpt>
      <trkpt lat="45.83154" lon="2.97587">
        <ele>892.2</ele>
        <time>2025-08-07T15:28:30Z</time>
      </trkpt>
      <trkpt lat="45.83155" lon="2.97584">
        <ele>892.4</ele>
        <time>2025-08-07T15:28:31Z</time>
      </trkpt>
      <trkpt lat="45.83155" lon="2.97583">
        <ele>892.6</ele>
        <time>2025-08-07T15:28:32Z</time>
      </trkpt>
      <trkpt lat="45.83156" lon="2.9758">
        <ele>892.8</ele>
        <time>2025-08-07T15:28:33Z</time>
      </trkpt>
      <trkpt lat="45.83159" lon="2.97574">
        <ele>893</ele>
        <time>2025-08-07T15:28:34Z</time>
      </trkpt>
      <trkpt lat="45.83161" lon="2.97569">
        <ele>893.2</ele>
        <time>2025-08-07T15:28:35Z</time>
      </trkpt>
      <trkpt lat="45.83162" lon="2.97565">
        <ele>893.4</ele>
        <time>2025-08-07T15:28:36Z</time>
      </trkpt>
      <trkpt lat="45.83162" lon="2.97561">
        <ele>893.6</ele>
        <time>2025-08-07T15:28:37Z</time>
      </trkpt>
      <trkpt lat="45.83162" lon="2.97558">
        <ele>893.8</ele>
        <time>2025-08-07T15:28:38Z</time>
      </trkpt>
      <trkpt lat="45.83162" lon="2.97555">
        <ele>894</ele>
        <time>2025-08-07T15:28:39Z</time>
      </trkpt>
      <trkpt lat="45.83162" lon="2.97552">
        <ele>894.2</ele>
        <time>2025-08-07T15:28:40Z</time>
      </trkpt>
      <trkpt lat="45.83162" lon="2.97547">
        <ele>894.4</ele>
        <time>2025-08-07T15:28:41Z</time>
      </trkpt>
      <trkpt lat="45.83163" lon="2.97539">
        <ele>894.6</ele>
        <time>2025-08-07T15:28:42Z</time>
      </trkpt>
      <trkpt lat="45.83165" lon="2.97531">
        <ele>894.8</ele>
        <time>2025-08-07T15:28:43Z</time>
      </trkpt>
      <trkpt lat="45.83165" lon="2.97523">
        <ele>895.2</ele>
        <time>2025-08-07T15:28:44Z</time>
      </trkpt>
      <trkpt lat="45.83166" lon="2.97517">
        <ele>895.4</ele>
        <time>2025-08-07T15:28:45Z</time>
      </trkpt>
      <trkpt lat="45.83166" lon="2.97512">
        <ele>895.6</ele>
        <time>2025-08-07T15:28:46Z</time>
      </trkpt>
      <trkpt lat="45.83167" lon="2.97507">
        <ele>895.8</ele>
        <time>2025-08-07T15:28:47Z</time>
      </trkpt>
      <trkpt lat="45.83168" lon="2.97504">
        <ele>896</ele>
        <time>2025-08-07T15:28:48Z</time>
      </trkpt>
      <trkpt lat="45.83168" lon="2.975">
        <ele>896.2</ele>
        <time>2025-08-07T15:28:49Z</time>
      </trkpt>
      <trkpt lat="45.83168" lon="2.975">
        <ele>896.4</ele>
        <time>2025-08-07T15:28:50Z</time>
      </trkpt>
      <trkpt lat="45.83168" lon="2.97498">
        <ele>896.6</ele>
        <time>2025-08-07T15:28:51Z</time>
      </trkpt>
      <trkpt lat="45.83167" lon="2.97495">
        <ele>896.8</ele>
        <time>2025-08-07T15:28:52Z</time>
      </trkpt>
      <trkpt lat="45.83168" lon="2.97493">
        <ele>897</ele>
        <time>2025-08-07T15:28:53Z</time>
      </trkpt>
      <trkpt lat="45.83168" lon="2.97489">
        <ele>897.2</ele>
        <time>2025-08-07T15:28:54Z</time>
      </trkpt>
      <trkpt lat="45.8317" lon="2.97483">
        <ele>897.4</ele>
        <time>2025-08-07T15:28:55Z</time>
      </trkpt>
      <trkpt lat="45.83172" lon="2.97478">
        <ele>897.6</ele>
        <time>2025-08-07T15:28:56Z</time>
      </trkpt>
      <trkpt lat="45.83173" lon="2.97475">
        <ele>897.8</ele>
        <time>2025-08-07T15:28:57Z</time>
      </trkpt>
      <trkpt lat="45.83175" lon="2.9747">
        <ele>898</ele>
        <time>2025-08-07T15:28:58Z</time>
      </trkpt>
      <trkpt lat="45.83176" lon="2.97466">
        <ele>898.2</ele>
        <time>2025-08-07T15:28:59Z</time>
      </trkpt>
      <trkpt lat="45.83176" lon="2.97459">
        <ele>898.2</ele>
        <time>2025-08-07T15:29:00Z</time>
      </trkpt>
      <trkpt lat="45.83177" lon="2.97453">
        <ele>898.4</ele>
        <time>2025-08-07T15:29:01Z</time>
      </trkpt>
      <trkpt lat="45.83178" lon="2.97447">
        <ele>898.6</ele>
        <time>2025-08-07T15:29:02Z</time>
      </trkpt>
      <trkpt lat="45.83179" lon="2.97442">
        <ele>898.8</ele>
        <time>2025-08-07T15:29:03Z</time>
      </trkpt>
      <trkpt lat="45.83181" lon="2.97438">
        <ele>899</ele>
        <time>2025-08-07T15:29:04Z</time>
      </trkpt>
      <trkpt lat="45.83181" lon="2.97434">
        <ele>899.2</ele>
        <time>2025-08-07T15:29:05Z</time>
      </trkpt>
      <trkpt lat="45.83182" lon="2.9743">
        <ele>899.2</ele>
        <time>2025-08-07T15:29:06Z</time>
      </trkpt>
      <trkpt lat="45.83183" lon="2.97429">
        <ele>899.4</ele>
        <time>2025-08-07T15:29:07Z</time>
      </trkpt>
      <trkpt lat="45.83181" lon="2.97427">
        <ele>899.6</ele>
        <time>2025-08-07T15:29:08Z</time>
      </trkpt>
      <trkpt lat="45.8318" lon="2.97425">
        <ele>899.8</ele>
        <time>2025-08-07T15:29:09Z</time>
      </trkpt>
      <trkpt lat="45.83178" lon="2.97424">
        <ele>900</ele>
        <time>2025-08-07T15:29:10Z</time>
      </trkpt>
      <trkpt lat="45.83177" lon="2.97423">
        <ele>900.2</ele>
        <time>2025-08-07T15:29:11Z</time>
      </trkpt>
      <trkpt lat="45.83176" lon="2.97421">
        <ele>900.2</ele>
        <time>2025-08-07T15:29:12Z</time>
      </trkpt>
      <trkpt lat="45.83176" lon="2.97418">
        <ele>900.4</ele>
        <time>2025-08-07T15:29:13Z</time>
      </trkpt>
      <trkpt lat="45.83176" lon="2.97413">
        <ele>900.4</ele>
        <time>2025-08-07T15:29:14Z</time>
      </trkpt>
      <trkpt lat="45.83176" lon="2.97408">
        <ele>900.6</ele>
        <time>2025-08-07T15:29:15Z</time>
      </trkpt>
      <trkpt lat="45.83178" lon="2.974">
        <ele>900.6</ele>
        <time>2025-08-07T15:29:16Z</time>
      </trkpt>
      <trkpt lat="45.83178" lon="2.97394">
        <ele>900.8</ele>
        <time>2025-08-07T15:29:17Z</time>
      </trkpt>
      <trkpt lat="45.83178" lon="2.97391">
        <ele>901</ele>
        <time>2025-08-07T15:29:18Z</time>
      </trkpt>
      <trkpt lat="45.83179" lon="2.97387">
        <ele>901</ele>
        <time>2025-08-07T15:29:19Z</time>
      </trkpt>
      <trkpt lat="45.83181" lon="2.97381">
        <ele>901.2</ele>
        <time>2025-08-07T15:29:20Z</time>
      </trkpt>
      <trkpt lat="45.83184" lon="2.97374">
        <ele>901.4</ele>
        <time>2025-08-07T15:29:21Z</time>
      </trkpt>
      <trkpt lat="45.83186" lon="2.9737">
        <ele>901.6</ele>
        <time>2025-08-07T15:29:22Z</time>
      </trkpt>
      <trkpt lat="45.83185" lon="2.97367">
        <ele>901.6</ele>
        <time>2025-08-07T15:29:23Z</time>
      </trkpt>
      <trkpt lat="45.83184" lon="2.97365">
        <ele>901.8</ele>
        <time>2025-08-07T15:29:24Z</time>
      </trkpt>
      <trkpt lat="45.83183" lon="2.97363">
        <ele>902</ele>
        <time>2025-08-07T15:29:25Z</time>
      </trkpt>
      <trkpt lat="45.83183" lon="2.97359">
        <ele>902.2</ele>
        <time>2025-08-07T15:29:26Z</time>
      </trkpt>
      <trkpt lat="45.83185" lon="2.97352">
        <ele>902.4</ele>
        <time>2025-08-07T15:29:27Z</time>
      </trkpt>
      <trkpt lat="45.83188" lon="2.97347">
        <ele>902.8</ele>
        <time>2025-08-07T15:29:28Z</time>
      </trkpt>
      <trkpt lat="45.83191" lon="2.97341">
        <ele>903</ele>
        <time>2025-08-07T15:29:29Z</time>
      </trkpt>
      <trkpt lat="45.83195" lon="2.97335">
        <ele>903.2</ele>
        <time>2025-08-07T15:29:30Z</time>
      </trkpt>
      <trkpt lat="45.83197" lon="2.97328">
        <ele>903.4</ele>
        <time>2025-08-07T15:29:31Z</time>
      </trkpt>
      <trkpt lat="45.83199" lon="2.97322">
        <ele>903.6</ele>
        <time>2025-08-07T15:29:32Z</time>
      </trkpt>
      <trkpt lat="45.83202" lon="2.97315">
        <ele>903.8</ele>
        <time>2025-08-07T15:29:33Z</time>
      </trkpt>
      <trkpt lat="45.83204" lon="2.9731">
        <ele>904</ele>
        <time>2025-08-07T15:29:34Z</time>
      </trkpt>
      <trkpt lat="45.83206" lon="2.97307">
        <ele>904.2</ele>
        <time>2025-08-07T15:29:35Z</time>
      </trkpt>
      <trkpt lat="45.83206" lon="2.97303">
        <ele>904.4</ele>
        <time>2025-08-07T15:29:36Z</time>
      </trkpt>
      <trkpt lat="45.83208" lon="2.973">
        <ele>904.6</ele>
        <time>2025-08-07T15:29:37Z</time>
      </trkpt>
      <trkpt lat="45.83211" lon="2.97295">
        <ele>904.8</ele>
        <time>2025-08-07T15:29:38Z</time>
      </trkpt>
      <trkpt lat="45.83216" lon="2.97288">
        <ele>905</ele>
        <time>2025-08-07T15:29:39Z</time>
      </trkpt>
      <trkpt lat="45.83216" lon="2.97281">
        <ele>905.2</ele>
        <time>2025-08-07T15:29:40Z</time>
      </trkpt>
      <trkpt lat="45.83215" lon="2.97274">
        <ele>905.2</ele>
        <time>2025-08-07T15:29:41Z</time>
      </trkpt>
      <trkpt lat="45.83212" lon="2.97266">
        <ele>905.4</ele>
        <time>2025-08-07T15:29:42Z</time>
      </trkpt>
      <trkpt lat="45.83208" lon="2.97261">
        <ele>905.6</ele>
        <time>2025-08-07T15:29:43Z</time>
      </trkpt>
      <trkpt lat="45.83207" lon="2.97256">
        <ele>905.8</ele>
        <time>2025-08-07T15:29:44Z</time>
      </trkpt>
      <trkpt lat="45.83206" lon="2.97249">
        <ele>906</ele>
        <time>2025-08-07T15:29:45Z</time>
      </trkpt>
      <trkpt lat="45.83207" lon="2.97243">
        <ele>906.2</ele>
        <time>2025-08-07T15:29:46Z</time>
      </trkpt>
      <trkpt lat="45.83208" lon="2.97237">
        <ele>906.2</ele>
        <time>2025-08-07T15:29:47Z</time>
      </trkpt>
      <trkpt lat="45.83206" lon="2.97233">
        <ele>906.4</ele>
        <time>2025-08-07T15:29:48Z</time>
      </trkpt>
      <trkpt lat="45.83203" lon="2.97229">
        <ele>906.6</ele>
        <time>2025-08-07T15:29:49Z</time>
      </trkpt>
      <trkpt lat="45.83198" lon="2.97224">
        <ele>906.8</ele>
        <time>2025-08-07T15:29:50Z</time>
      </trkpt>
      <trkpt lat="45.83196" lon="2.97217">
        <ele>907</ele>
        <time>2025-08-07T15:29:51Z</time>
      </trkpt>
      <trkpt lat="45.83198" lon="2.97211">
        <ele>907.4</ele>
        <time>2025-08-07T15:29:52Z</time>
      </trkpt>
      <trkpt lat="45.83199" lon="2.97206">
        <ele>907.6</ele>
        <time>2025-08-07T15:29:53Z</time>
      </trkpt>
      <trkpt lat="45.83202" lon="2.97201">
        <ele>907.8</ele>
        <time>2025-08-07T15:29:54Z</time>
      </trkpt>
      <trkpt lat="45.83204" lon="2.97197">
        <ele>908.2</ele>
        <time>2025-08-07T15:29:55Z</time>
      </trkpt>
      <trkpt lat="45.83202" lon="2.9719">
        <ele>908.4</ele>
        <time>2025-08-07T15:29:56Z</time>
      </trkpt>
      <trkpt lat="45.832" lon="2.97183">
        <ele>908.8</ele>
        <time>2025-08-07T15:29:57Z</time>
      </trkpt>
      <trkpt lat="45.832" lon="2.9718">
        <ele>909</ele>
        <time>2025-08-07T15:29:58Z</time>
      </trkpt>
      <trkpt lat="45.832" lon="2.97176">
        <ele>909.2</ele>
        <time>2025-08-07T15:29:59Z</time>
      </trkpt>
      <trkpt lat="45.83198" lon="2.97173">
        <ele>909.4</ele>
        <time>2025-08-07T15:30:00Z</time>
      </trkpt>
      <trkpt lat="45.83195" lon="2.97169">
        <ele>909.6</ele>
        <time>2025-08-07T15:30:01Z</time>
      </trkpt>
      <trkpt lat="45.83193" lon="2.97163">
        <ele>909.8</ele>
        <time>2025-08-07T15:30:02Z</time>
      </trkpt>
      <trkpt lat="45.83192" lon="2.97155">
        <ele>910</ele>
        <time>2025-08-07T15:30:03Z</time>
      </trkpt>
      <trkpt lat="45.83194" lon="2.97146">
        <ele>910.2</ele>
        <time>2025-08-07T15:30:04Z</time>
      </trkpt>
      <trkpt lat="45.83194" lon="2.9714">
        <ele>910.4</ele>
        <time>2025-08-07T15:30:05Z</time>
      </trkpt>
      <trkpt lat="45.83194" lon="2.97134">
        <ele>910.6</ele>
        <time>2025-08-07T15:30:06Z</time>
      </trkpt>
      <trkpt lat="45.83192" lon="2.9713">
        <ele>910.8</ele>
        <time>2025-08-07T15:30:07Z</time>
      </trkpt>
      <trkpt lat="45.8319" lon="2.97125">
        <ele>911</ele>
        <time>2025-08-07T15:30:08Z</time>
      </trkpt>
      <trkpt lat="45.83188" lon="2.97121">
        <ele>911.2</ele>
        <time>2025-08-07T15:30:09Z</time>
      </trkpt>
      <trkpt lat="45.83186" lon="2.97117">
        <ele>911.4</ele>
        <time>2025-08-07T15:30:10Z</time>
      </trkpt>
      <trkpt lat="45.83183" lon="2.97113">
        <ele>911.6</ele>
        <time>2025-08-07T15:30:11Z</time>
      </trkpt>
      <trkpt lat="45.8318" lon="2.97108">
        <ele>911.8</ele>
        <time>2025-08-07T15:30:12Z</time>
      </trkpt>
      <trkpt lat="45.83181" lon="2.97103">
        <ele>912.2</ele>
        <time>2025-08-07T15:30:13Z</time>
      </trkpt>
      <trkpt lat="45.83181" lon="2.97095">
        <ele>912.4</ele>
        <time>2025-08-07T15:30:14Z</time>
      </trkpt>
      <trkpt lat="45.83182" lon="2.97084">
        <ele>912.6</ele>
        <time>2025-08-07T15:30:15Z</time>
      </trkpt>
      <trkpt lat="45.83185" lon="2.97076">
        <ele>912.8</ele>
        <time>2025-08-07T15:30:16Z</time>
      </trkpt>
      <trkpt lat="45.83186" lon="2.97067">
        <ele>913</ele>
        <time>2025-08-07T15:30:17Z</time>
      </trkpt>
      <trkpt lat="45.83185" lon="2.97058">
        <ele>913.2</ele>
        <time>2025-08-07T15:30:18Z</time>
      </trkpt>
      <trkpt lat="45.83182" lon="2.9705">
        <ele>913.4</ele>
        <time>2025-08-07T15:30:19Z</time>
      </trkpt>
      <trkpt lat="45.83178" lon="2.97044">
        <ele>913.6</ele>
        <time>2025-08-07T15:30:20Z</time>
      </trkpt>
      <trkpt lat="45.83175" lon="2.97038">
        <ele>914</ele>
        <time>2025-08-07T15:30:21Z</time>
      </trkpt>
      <trkpt lat="45.83173" lon="2.97032">
        <ele>914.2</ele>
        <time>2025-08-07T15:30:22Z</time>
      </trkpt>
      <trkpt lat="45.83174" lon="2.97027">
        <ele>914.4</ele>
        <time>2025-08-07T15:30:23Z</time>
      </trkpt>
      <trkpt lat="45.83175" lon="2.97023">
        <ele>914.6</ele>
        <time>2025-08-07T15:30:24Z</time>
      </trkpt>
      <trkpt lat="45.83175" lon="2.97019">
        <ele>914.8</ele>
        <time>2025-08-07T15:30:25Z</time>
      </trkpt>
      <trkpt lat="45.83173" lon="2.97015">
        <ele>915.2</ele>
        <time>2025-08-07T15:30:26Z</time>
      </trkpt>
      <trkpt lat="45.83172" lon="2.97011">
        <ele>915.4</ele>
        <time>2025-08-07T15:30:27Z</time>
      </trkpt>
      <trkpt lat="45.83171" lon="2.97006">
        <ele>915.6</ele>
        <time>2025-08-07T15:30:28Z</time>
      </trkpt>
      <trkpt lat="45.8317" lon="2.97001">
        <ele>915.8</ele>
        <time>2025-08-07T15:30:29Z</time>
      </trkpt>
      <trkpt lat="45.83168" lon="2.96995">
        <ele>916</ele>
        <time>2025-08-07T15:30:30Z</time>
      </trkpt>
      <trkpt lat="45.83166" lon="2.96989">
        <ele>916</ele>
        <time>2025-08-07T15:30:31Z</time>
      </trkpt>
      <trkpt lat="45.83164" lon="2.96984">
        <ele>916.2</ele>
        <time>2025-08-07T15:30:32Z</time>
      </trkpt>
      <trkpt lat="45.83162" lon="2.96978">
        <ele>916.4</ele>
        <time>2025-08-07T15:30:33Z</time>
      </trkpt>
      <trkpt lat="45.83163" lon="2.96971">
        <ele>916.6</ele>
        <time>2025-08-07T15:30:34Z</time>
      </trkpt>
      <trkpt lat="45.83163" lon="2.96965">
        <ele>917</ele>
        <time>2025-08-07T15:30:35Z</time>
      </trkpt>
      <trkpt lat="45.83162" lon="2.9696">
        <ele>917.2</ele>
        <time>2025-08-07T15:30:36Z</time>
      </trkpt>
      <trkpt lat="45.8316" lon="2.96956">
        <ele>917.4</ele>
        <time>2025-08-07T15:30:37Z</time>
      </trkpt>
      <trkpt lat="45.83158" lon="2.96951">
        <ele>917.6</ele>
        <time>2025-08-07T15:30:38Z</time>
      </trkpt>
      <trkpt lat="45.83156" lon="2.96946">
        <ele>917.8</ele>
        <time>2025-08-07T15:30:39Z</time>
      </trkpt>
      <trkpt lat="45.83155" lon="2.96938">
        <ele>918</ele>
        <time>2025-08-07T15:30:40Z</time>
      </trkpt>
      <trkpt lat="45.83154" lon="2.96932">
        <ele>918.2</ele>
        <time>2025-08-07T15:30:41Z</time>
      </trkpt>
      <trkpt lat="45.83152" lon="2.96925">
        <ele>918.6</ele>
        <time>2025-08-07T15:30:42Z</time>
      </trkpt>
      <trkpt lat="45.83151" lon="2.96918">
        <ele>918.8</ele>
        <time>2025-08-07T15:30:43Z</time>
      </trkpt>
      <trkpt lat="45.83151" lon="2.96913">
        <ele>919</ele>
        <time>2025-08-07T15:30:44Z</time>
      </trkpt>
      <trkpt lat="45.83151" lon="2.96909">
        <ele>919.4</ele>
        <time>2025-08-07T15:30:45Z</time>
      </trkpt>
      <trkpt lat="45.8315" lon="2.96902">
        <ele>919.6</ele>
        <time>2025-08-07T15:30:46Z</time>
      </trkpt>
      <trkpt lat="45.8315" lon="2.96894">
        <ele>920</ele>
        <time>2025-08-07T15:30:47Z</time>
      </trkpt>
      <trkpt lat="45.8315" lon="2.96889">
        <ele>920.2</ele>
        <time>2025-08-07T15:30:48Z</time>
      </trkpt>
      <trkpt lat="45.83152" lon="2.96885">
        <ele>920.6</ele>
        <time>2025-08-07T15:30:49Z</time>
      </trkpt>
      <trkpt lat="45.83155" lon="2.96882">
        <ele>921</ele>
        <time>2025-08-07T15:30:50Z</time>
      </trkpt>
      <trkpt lat="45.83159" lon="2.96878">
        <ele>921.2</ele>
        <time>2025-08-07T15:30:51Z</time>
      </trkpt>
      <trkpt lat="45.83164" lon="2.96871">
        <ele>921.6</ele>
        <time>2025-08-07T15:30:52Z</time>
      </trkpt>
      <trkpt lat="45.83167" lon="2.96863">
        <ele>921.8</ele>
        <time>2025-08-07T15:30:53Z</time>
      </trkpt>
      <trkpt lat="45.83171" lon="2.96855">
        <ele>922.2</ele>
        <time>2025-08-07T15:30:54Z</time>
      </trkpt>
      <trkpt lat="45.83169" lon="2.96848">
        <ele>922.4</ele>
        <time>2025-08-07T15:30:55Z</time>
      </trkpt>
      <trkpt lat="45.83165" lon="2.9684">
        <ele>922.8</ele>
        <time>2025-08-07T15:30:56Z</time>
      </trkpt>
      <trkpt lat="45.83164" lon="2.96833">
        <ele>923</ele>
        <time>2025-08-07T15:30:57Z</time>
      </trkpt>
      <trkpt lat="45.83163" lon="2.96827">
        <ele>923.2</ele>
        <time>2025-08-07T15:30:58Z</time>
      </trkpt>
      <trkpt lat="45.83165" lon="2.96817">
        <ele>923.6</ele>
        <time>2025-08-07T15:30:59Z</time>
      </trkpt>
      <trkpt lat="45.83166" lon="2.9681">
        <ele>923.8</ele>
        <time>2025-08-07T15:31:00Z</time>
      </trkpt>
      <trkpt lat="45.83164" lon="2.96806">
        <ele>924</ele>
        <time>2025-08-07T15:31:01Z</time>
      </trkpt>
      <trkpt lat="45.83159" lon="2.96803">
        <ele>924.4</ele>
        <time>2025-08-07T15:31:02Z</time>
      </trkpt>
      <trkpt lat="45.83156" lon="2.96798">
        <ele>924.6</ele>
        <time>2025-08-07T15:31:03Z</time>
      </trkpt>
      <trkpt lat="45.83155" lon="2.96791">
        <ele>924.8</ele>
        <time>2025-08-07T15:31:04Z</time>
      </trkpt>
      <trkpt lat="45.83155" lon="2.96783">
        <ele>925</ele>
        <time>2025-08-07T15:31:05Z</time>
      </trkpt>
      <trkpt lat="45.83155" lon="2.96777">
        <ele>925.2</ele>
        <time>2025-08-07T15:31:06Z</time>
      </trkpt>
      <trkpt lat="45.83156" lon="2.96772">
        <ele>925.4</ele>
        <time>2025-08-07T15:31:07Z</time>
      </trkpt>
      <trkpt lat="45.83157" lon="2.96768">
        <ele>925.6</ele>
        <time>2025-08-07T15:31:08Z</time>
      </trkpt>
      <trkpt lat="45.83159" lon="2.96764">
        <ele>925.8</ele>
        <time>2025-08-07T15:31:09Z</time>
      </trkpt>
      <trkpt lat="45.8316" lon="2.96761">
        <ele>926</ele>
        <time>2025-08-07T15:31:10Z</time>
      </trkpt>
      <trkpt lat="45.83159" lon="2.96757">
        <ele>926.2</ele>
        <time>2025-08-07T15:31:11Z</time>
      </trkpt>
      <trkpt lat="45.83159" lon="2.96753">
        <ele>926.6</ele>
        <time>2025-08-07T15:31:12Z</time>
      </trkpt>
      <trkpt lat="45.83158" lon="2.9675">
        <ele>926.8</ele>
        <time>2025-08-07T15:31:13Z</time>
      </trkpt>
      <trkpt lat="45.83158" lon="2.96746">
        <ele>927</ele>
        <time>2025-08-07T15:31:14Z</time>
      </trkpt>
      <trkpt lat="45.83156" lon="2.96742">
        <ele>927.2</ele>
        <time>2025-08-07T15:31:15Z</time>
      </trkpt>
      <trkpt lat="45.83154" lon="2.96738">
        <ele>927.4</ele>
        <time>2025-08-07T15:31:16Z</time>
      </trkpt>
      <trkpt lat="45.83154" lon="2.96733">
        <ele>927.8</ele>
        <time>2025-08-07T15:31:17Z</time>
      </trkpt>
      <trkpt lat="45.83154" lon="2.96729">
        <ele>928</ele>
        <time>2025-08-07T15:31:18Z</time>
      </trkpt>
      <trkpt lat="45.83154" lon="2.96725">
        <ele>928.4</ele>
        <time>2025-08-07T15:31:19Z</time>
      </trkpt>
      <trkpt lat="45.83154" lon="2.9672">
        <ele>928.6</ele>
        <time>2025-08-07T15:31:20Z</time>
      </trkpt>
      <trkpt lat="45.83154" lon="2.96715">
        <ele>928.8</ele>
        <time>2025-08-07T15:31:21Z</time>
      </trkpt>
      <trkpt lat="45.83155" lon="2.9671">
        <ele>929</ele>
        <time>2025-08-07T15:31:22Z</time>
      </trkpt>
      <trkpt lat="45.83155" lon="2.96707">
        <ele>929.2</ele>
        <time>2025-08-07T15:31:23Z</time>
      </trkpt>
      <trkpt lat="45.83155" lon="2.96704">
        <ele>929.4</ele>
        <time>2025-08-07T15:31:24Z</time>
      </trkpt>
      <trkpt lat="45.83155" lon="2.96703">
        <ele>929.6</ele>
        <time>2025-08-07T15:31:25Z</time>
      </trkpt>
      <trkpt lat="45.83155" lon="2.96702">
        <ele>929.8</ele>
        <time>2025-08-07T15:31:26Z</time>
      </trkpt>
      <trkpt lat="45.83155" lon="2.96699">
        <ele>929.8</ele>
        <time>2025-08-07T15:31:27Z</time>
      </trkpt>
      <trkpt lat="45.83155" lon="2.96695">
        <ele>930</ele>
        <time>2025-08-07T15:31:28Z</time>
      </trkpt>
      <trkpt lat="45.83156" lon="2.96692">
        <ele>930.2</ele>
        <time>2025-08-07T15:31:29Z</time>
      </trkpt>
      <trkpt lat="45.83157" lon="2.96689">
        <ele>930.2</ele>
        <time>2025-08-07T15:31:30Z</time>
      </trkpt>
      <trkpt lat="45.83158" lon="2.96686">
        <ele>930.4</ele>
        <time>2025-08-07T15:31:31Z</time>
      </trkpt>
      <trkpt lat="45.83158" lon="2.96684">
        <ele>930.4</ele>
        <time>2025-08-07T15:31:32Z</time>
      </trkpt>
      <trkpt lat="45.83158" lon="2.96683">
        <ele>930.6</ele>
        <time>2025-08-07T15:31:33Z</time>
      </trkpt>
      <trkpt lat="45.83158" lon="2.96682">
        <ele>930.6</ele>
        <time>2025-08-07T15:31:34Z</time>
      </trkpt>
      <trkpt lat="45.83158" lon="2.96682">
        <ele>930.6</ele>
        <time>2025-08-07T15:31:35Z</time>
      </trkpt>
      <trkpt lat="45.83158" lon="2.96682">
        <ele>930.8</ele>
        <time>2025-08-07T15:31:36Z</time>
      </trkpt>
      <trkpt lat="45.83156" lon="2.9668">
        <ele>930.8</ele>
        <time>2025-08-07T15:31:37Z</time>
      </trkpt>
      <trkpt lat="45.83153" lon="2.96679">
        <ele>930.8</ele>
        <time>2025-08-07T15:31:38Z</time>
      </trkpt>
      <trkpt lat="45.83152" lon="2.96679">
        <ele>930.8</ele>
        <time>2025-08-07T15:31:39Z</time>
      </trkpt>
      <trkpt lat="45.83152" lon="2.96679">
        <ele>930.8</ele>
        <time>2025-08-07T15:31:40Z</time>
      </trkpt>
      <trkpt lat="45.83154" lon="2.96671">
        <ele>930.8</ele>
        <time>2025-08-07T15:32:13Z</time>
      </trkpt>
      <trkpt lat="45.83154" lon="2.96668">
        <ele>930.8</ele>
        <time>2025-08-07T15:32:14Z</time>
      </trkpt>
      <trkpt lat="45.83154" lon="2.96666">
        <ele>931</ele>
        <time>2025-08-07T15:32:15Z</time>
      </trkpt>
      <trkpt lat="45.83155" lon="2.96662">
        <ele>931</ele>
        <time>2025-08-07T15:32:16Z</time>
      </trkpt>
      <trkpt lat="45.83155" lon="2.96659">
        <ele>931.2</ele>
        <time>2025-08-07T15:32:17Z</time>
      </trkpt>
      <trkpt lat="45.83155" lon="2.96655">
        <ele>931.2</ele>
        <time>2025-08-07T15:32:18Z</time>
      </trkpt>
      <trkpt lat="45.83157" lon="2.96652">
        <ele>931.4</ele>
        <time>2025-08-07T15:32:19Z</time>
      </trkpt>
      <trkpt lat="45.83158" lon="2.96649">
        <ele>931.6</ele>
        <time>2025-08-07T15:32:20Z</time>
      </trkpt>
      <trkpt lat="45.83158" lon="2.96646">
        <ele>931.6</ele>
        <time>2025-08-07T15:32:21Z</time>
      </trkpt>
      <trkpt lat="45.83158" lon="2.96643">
        <ele>931.8</ele>
        <time>2025-08-07T15:32:22Z</time>
      </trkpt>
      <trkpt lat="45.83158" lon="2.9664">
        <ele>932</ele>
        <time>2025-08-07T15:32:23Z</time>
      </trkpt>
      <trkpt lat="45.8316" lon="2.96636">
        <ele>932.2</ele>
        <time>2025-08-07T15:32:24Z</time>
      </trkpt>
      <trkpt lat="45.83162" lon="2.96632">
        <ele>932.4</ele>
        <time>2025-08-07T15:32:25Z</time>
      </trkpt>
      <trkpt lat="45.83164" lon="2.96627">
        <ele>932.6</ele>
        <time>2025-08-07T15:32:26Z</time>
      </trkpt>
      <trkpt lat="45.83165" lon="2.96623">
        <ele>932.6</ele>
        <time>2025-08-07T15:32:27Z</time>
      </trkpt>
      <trkpt lat="45.83165" lon="2.96619">
        <ele>932.8</ele>
        <time>2025-08-07T15:32:28Z</time>
      </trkpt>
      <trkpt lat="45.83165" lon="2.96614">
        <ele>933</ele>
        <time>2025-08-07T15:32:29Z</time>
      </trkpt>
      <trkpt lat="45.83164" lon="2.96609">
        <ele>933.2</ele>
        <time>2025-08-07T15:32:30Z</time>
      </trkpt>
      <trkpt lat="45.83165" lon="2.96603">
        <ele>933.4</ele>
        <time>2025-08-07T15:32:31Z</time>
      </trkpt>
      <trkpt lat="45.83164" lon="2.96595">
        <ele>933.6</ele>
        <time>2025-08-07T15:32:32Z</time>
      </trkpt>
      <trkpt lat="45.83165" lon="2.9659">
        <ele>933.8</ele>
        <time>2025-08-07T15:32:33Z</time>
      </trkpt>
      <trkpt lat="45.83164" lon="2.96584">
        <ele>933.8</ele>
        <time>2025-08-07T15:32:34Z</time>
      </trkpt>
      <trkpt lat="45.83163" lon="2.96577">
        <ele>934</ele>
        <time>2025-08-07T15:32:35Z</time>
      </trkpt>
      <trkpt lat="45.83164" lon="2.96572">
        <ele>934.2</ele>
        <time>2025-08-07T15:32:36Z</time>
      </trkpt>
      <trkpt lat="45.83166" lon="2.96566">
        <ele>934.2</ele>
        <time>2025-08-07T15:32:37Z</time>
      </trkpt>
      <trkpt lat="45.83169" lon="2.96562">
        <ele>934.4</ele>
        <time>2025-08-07T15:32:38Z</time>
      </trkpt>
      <trkpt lat="45.8317" lon="2.96556">
        <ele>934.6</ele>
        <time>2025-08-07T15:32:39Z</time>
      </trkpt>
      <trkpt lat="45.8317" lon="2.96553">
        <ele>934.6</ele>
        <time>2025-08-07T15:32:40Z</time>
      </trkpt>
      <trkpt lat="45.8317" lon="2.96549">
        <ele>934.8</ele>
        <time>2025-08-07T15:32:41Z</time>
      </trkpt>
      <trkpt lat="45.83172" lon="2.96546">
        <ele>935</ele>
        <time>2025-08-07T15:32:42Z</time>
      </trkpt>
      <trkpt lat="45.83173" lon="2.96544">
        <ele>935.2</ele>
        <time>2025-08-07T15:32:43Z</time>
      </trkpt>
      <trkpt lat="45.83172" lon="2.9654">
        <ele>935.4</ele>
        <time>2025-08-07T15:32:44Z</time>
      </trkpt>
      <trkpt lat="45.83172" lon="2.96535">
        <ele>935.4</ele>
        <time>2025-08-07T15:32:45Z</time>
      </trkpt>
      <trkpt lat="45.8317" lon="2.96533">
        <ele>935.6</ele>
        <time>2025-08-07T15:32:46Z</time>
      </trkpt>
      <trkpt lat="45.83171" lon="2.9653">
        <ele>935.8</ele>
        <time>2025-08-07T15:32:47Z</time>
      </trkpt>
      <trkpt lat="45.83173" lon="2.96527">
        <ele>936</ele>
        <time>2025-08-07T15:32:48Z</time>
      </trkpt>
      <trkpt lat="45.83172" lon="2.96523">
        <ele>936.2</ele>
        <time>2025-08-07T15:32:49Z</time>
      </trkpt>
      <trkpt lat="45.83171" lon="2.96519">
        <ele>936.4</ele>
        <time>2025-08-07T15:32:50Z</time>
      </trkpt>
      <trkpt lat="45.83172" lon="2.96512">
        <ele>936.6</ele>
        <time>2025-08-07T15:32:51Z</time>
      </trkpt>
      <trkpt lat="45.83171" lon="2.96506">
        <ele>936.8</ele>
        <time>2025-08-07T15:32:52Z</time>
      </trkpt>
      <trkpt lat="45.8317" lon="2.96502">
        <ele>937</ele>
        <time>2025-08-07T15:32:53Z</time>
      </trkpt>
      <trkpt lat="45.83168" lon="2.96498">
        <ele>937.2</ele>
        <time>2025-08-07T15:32:54Z</time>
      </trkpt>
      <trkpt lat="45.8317" lon="2.96495">
        <ele>937.4</ele>
        <time>2025-08-07T15:32:55Z</time>
      </trkpt>
      <trkpt lat="45.83173" lon="2.96492">
        <ele>937.6</ele>
        <time>2025-08-07T15:32:56Z</time>
      </trkpt>
      <trkpt lat="45.83174" lon="2.96488">
        <ele>937.8</ele>
        <time>2025-08-07T15:32:57Z</time>
      </trkpt>
      <trkpt lat="45.83174" lon="2.96484">
        <ele>938</ele>
        <time>2025-08-07T15:32:58Z</time>
      </trkpt>
      <trkpt lat="45.83174" lon="2.96478">
        <ele>938</ele>
        <time>2025-08-07T15:32:59Z</time>
      </trkpt>
      <trkpt lat="45.83174" lon="2.96473">
        <ele>938.2</ele>
        <time>2025-08-07T15:33:00Z</time>
      </trkpt>
      <trkpt lat="45.83176" lon="2.96467">
        <ele>938.4</ele>
        <time>2025-08-07T15:33:01Z</time>
      </trkpt>
      <trkpt lat="45.83176" lon="2.96456">
        <ele>938.8</ele>
        <time>2025-08-07T15:33:02Z</time>
      </trkpt>
      <trkpt lat="45.83179" lon="2.96451">
        <ele>939</ele>
        <time>2025-08-07T15:33:03Z</time>
      </trkpt>
      <trkpt lat="45.83179" lon="2.9645">
        <ele>939.2</ele>
        <time>2025-08-07T15:33:04Z</time>
      </trkpt>
      <trkpt lat="45.83178" lon="2.96448">
        <ele>939.4</ele>
        <time>2025-08-07T15:33:05Z</time>
      </trkpt>
      <trkpt lat="45.83176" lon="2.96444">
        <ele>939.4</ele>
        <time>2025-08-07T15:33:06Z</time>
      </trkpt>
      <trkpt lat="45.83176" lon="2.96441">
        <ele>939.6</ele>
        <time>2025-08-07T15:33:07Z</time>
      </trkpt>
      <trkpt lat="45.83176" lon="2.96438">
        <ele>939.8</ele>
        <time>2025-08-07T15:33:08Z</time>
      </trkpt>
      <trkpt lat="45.83175" lon="2.96435">
        <ele>940</ele>
        <time>2025-08-07T15:33:09Z</time>
      </trkpt>
      <trkpt lat="45.83175" lon="2.96433">
        <ele>940</ele>
        <time>2025-08-07T15:33:10Z</time>
      </trkpt>
      <trkpt lat="45.83175" lon="2.96432">
        <ele>940.2</ele>
        <time>2025-08-07T15:33:11Z</time>
      </trkpt>
      <trkpt lat="45.83176" lon="2.96429">
        <ele>940.4</ele>
        <time>2025-08-07T15:33:12Z</time>
      </trkpt>
      <trkpt lat="45.83177" lon="2.96426">
        <ele>940.6</ele>
        <time>2025-08-07T15:33:13Z</time>
      </trkpt>
      <trkpt lat="45.83175" lon="2.96424">
        <ele>940.8</ele>
        <time>2025-08-07T15:33:14Z</time>
      </trkpt>
      <trkpt lat="45.83173" lon="2.96419">
        <ele>941</ele>
        <time>2025-08-07T15:33:15Z</time>
      </trkpt>
      <trkpt lat="45.83173" lon="2.9641">
        <ele>941</ele>
        <time>2025-08-07T15:33:16Z</time>
      </trkpt>
      <trkpt lat="45.83174" lon="2.96401">
        <ele>941.2</ele>
        <time>2025-08-07T15:33:17Z</time>
      </trkpt>
      <trkpt lat="45.83175" lon="2.9639">
        <ele>941.4</ele>
        <time>2025-08-07T15:33:18Z</time>
      </trkpt>
      <trkpt lat="45.83173" lon="2.96381">
        <ele>941.6</ele>
        <time>2025-08-07T15:33:19Z</time>
      </trkpt>
      <trkpt lat="45.83173" lon="2.96377">
        <ele>941.8</ele>
        <time>2025-08-07T15:33:20Z</time>
      </trkpt>
      <trkpt lat="45.83176" lon="2.96373">
        <ele>942</ele>
        <time>2025-08-07T15:33:21Z</time>
      </trkpt>
      <trkpt lat="45.83176" lon="2.9637">
        <ele>942.2</ele>
        <time>2025-08-07T15:33:22Z</time>
      </trkpt>
      <trkpt lat="45.83177" lon="2.96367">
        <ele>942.4</ele>
        <time>2025-08-07T15:33:23Z</time>
      </trkpt>
      <trkpt lat="45.83179" lon="2.96364">
        <ele>942.6</ele>
        <time>2025-08-07T15:33:24Z</time>
      </trkpt>
      <trkpt lat="45.83181" lon="2.96364">
        <ele>942.8</ele>
        <time>2025-08-07T15:33:25Z</time>
      </trkpt>
      <trkpt lat="45.83183" lon="2.96366">
        <ele>943</ele>
        <time>2025-08-07T15:33:26Z</time>
      </trkpt>
      <trkpt lat="45.83184" lon="2.96365">
        <ele>943</ele>
        <time>2025-08-07T15:33:27Z</time>
      </trkpt>
      <trkpt lat="45.83184" lon="2.96363">
        <ele>943.2</ele>
        <time>2025-08-07T15:33:28Z</time>
      </trkpt>
      <trkpt lat="45.83186" lon="2.96361">
        <ele>943.4</ele>
        <time>2025-08-07T15:33:29Z</time>
      </trkpt>
      <trkpt lat="45.83187" lon="2.96359">
        <ele>943.6</ele>
        <time>2025-08-07T15:33:30Z</time>
      </trkpt>
      <trkpt lat="45.83188" lon="2.96357">
        <ele>943.8</ele>
        <time>2025-08-07T15:33:31Z</time>
      </trkpt>
      <trkpt lat="45.83189" lon="2.96355">
        <ele>944</ele>
        <time>2025-08-07T15:33:32Z</time>
      </trkpt>
      <trkpt lat="45.8319" lon="2.96353">
        <ele>944.2</ele>
        <time>2025-08-07T15:33:33Z</time>
      </trkpt>
      <trkpt lat="45.8319" lon="2.96349">
        <ele>944.4</ele>
        <time>2025-08-07T15:33:34Z</time>
      </trkpt>
      <trkpt lat="45.83191" lon="2.96346">
        <ele>944.6</ele>
        <time>2025-08-07T15:33:35Z</time>
      </trkpt>
      <trkpt lat="45.83191" lon="2.96344">
        <ele>944.8</ele>
        <time>2025-08-07T15:33:36Z</time>
      </trkpt>
      <trkpt lat="45.83192" lon="2.96342">
        <ele>945</ele>
        <time>2025-08-07T15:33:37Z</time>
      </trkpt>
      <trkpt lat="45.83193" lon="2.9634">
        <ele>945.2</ele>
        <time>2025-08-07T15:33:38Z</time>
      </trkpt>
      <trkpt lat="45.83194" lon="2.96337">
        <ele>945.6</ele>
        <time>2025-08-07T15:33:39Z</time>
      </trkpt>
      <trkpt lat="45.83195" lon="2.96334">
        <ele>945.8</ele>
        <time>2025-08-07T15:33:40Z</time>
      </trkpt>
      <trkpt lat="45.83197" lon="2.96331">
        <ele>946</ele>
        <time>2025-08-07T15:33:41Z</time>
      </trkpt>
      <trkpt lat="45.83198" lon="2.96328">
        <ele>946.2</ele>
        <time>2025-08-07T15:33:42Z</time>
      </trkpt>
      <trkpt lat="45.832" lon="2.96324">
        <ele>946.4</ele>
        <time>2025-08-07T15:33:43Z</time>
      </trkpt>
      <trkpt lat="45.83202" lon="2.96319">
        <ele>946.6</ele>
        <time>2025-08-07T15:33:44Z</time>
      </trkpt>
      <trkpt lat="45.83203" lon="2.96315">
        <ele>946.8</ele>
        <time>2025-08-07T15:33:45Z</time>
      </trkpt>
      <trkpt lat="45.83203" lon="2.96312">
        <ele>947</ele>
        <time>2025-08-07T15:33:46Z</time>
      </trkpt>
      <trkpt lat="45.83203" lon="2.96309">
        <ele>947.2</ele>
        <time>2025-08-07T15:33:47Z</time>
      </trkpt>
      <trkpt lat="45.83204" lon="2.96304">
        <ele>947.4</ele>
        <time>2025-08-07T15:33:48Z</time>
      </trkpt>
      <trkpt lat="45.83206" lon="2.96301">
        <ele>947.6</ele>
        <time>2025-08-07T15:33:49Z</time>
      </trkpt>
      <trkpt lat="45.83206" lon="2.96297">
        <ele>947.8</ele>
        <time>2025-08-07T15:33:50Z</time>
      </trkpt>
      <trkpt lat="45.83207" lon="2.96293">
        <ele>948</ele>
        <time>2025-08-07T15:33:51Z</time>
      </trkpt>
      <trkpt lat="45.83208" lon="2.96289">
        <ele>948.2</ele>
        <time>2025-08-07T15:33:52Z</time>
      </trkpt>
      <trkpt lat="45.83209" lon="2.96287">
        <ele>948.4</ele>
        <time>2025-08-07T15:33:53Z</time>
      </trkpt>
      <trkpt lat="45.83209" lon="2.96285">
        <ele>948.8</ele>
        <time>2025-08-07T15:33:54Z</time>
      </trkpt>
      <trkpt lat="45.83209" lon="2.96283">
        <ele>949</ele>
        <time>2025-08-07T15:33:55Z</time>
      </trkpt>
      <trkpt lat="45.83211" lon="2.96278">
        <ele>949.2</ele>
        <time>2025-08-07T15:33:56Z</time>
      </trkpt>
      <trkpt lat="45.83212" lon="2.96274">
        <ele>949.4</ele>
        <time>2025-08-07T15:33:57Z</time>
      </trkpt>
      <trkpt lat="45.83212" lon="2.96269">
        <ele>949.6</ele>
        <time>2025-08-07T15:33:58Z</time>
      </trkpt>
      <trkpt lat="45.83213" lon="2.96262">
        <ele>949.8</ele>
        <time>2025-08-07T15:33:59Z</time>
      </trkpt>
      <trkpt lat="45.83214" lon="2.96257">
        <ele>950</ele>
        <time>2025-08-07T15:34:00Z</time>
      </trkpt>
      <trkpt lat="45.83214" lon="2.96253">
        <ele>950.2</ele>
        <time>2025-08-07T15:34:01Z</time>
      </trkpt>
      <trkpt lat="45.83213" lon="2.96248">
        <ele>950.4</ele>
        <time>2025-08-07T15:34:02Z</time>
      </trkpt>
      <trkpt lat="45.83213" lon="2.96244">
        <ele>950.8</ele>
        <time>2025-08-07T15:34:03Z</time>
      </trkpt>
      <trkpt lat="45.83215" lon="2.96239">
        <ele>951</ele>
        <time>2025-08-07T15:34:04Z</time>
      </trkpt>
      <trkpt lat="45.83215" lon="2.96235">
        <ele>951.4</ele>
        <time>2025-08-07T15:34:05Z</time>
      </trkpt>
      <trkpt lat="45.83215" lon="2.96231">
        <ele>951.6</ele>
        <time>2025-08-07T15:34:06Z</time>
      </trkpt>
      <trkpt lat="45.83215" lon="2.96226">
        <ele>952</ele>
        <time>2025-08-07T15:34:07Z</time>
      </trkpt>
      <trkpt lat="45.83216" lon="2.96221">
        <ele>952.2</ele>
        <time>2025-08-07T15:34:08Z</time>
      </trkpt>
      <trkpt lat="45.83215" lon="2.96217">
        <ele>952.4</ele>
        <time>2025-08-07T15:34:09Z</time>
      </trkpt>
      <trkpt lat="45.83214" lon="2.96213">
        <ele>952.6</ele>
        <time>2025-08-07T15:34:10Z</time>
      </trkpt>
      <trkpt lat="45.83212" lon="2.96208">
        <ele>953</ele>
        <time>2025-08-07T15:34:11Z</time>
      </trkpt>
      <trkpt lat="45.83213" lon="2.96203">
        <ele>953.2</ele>
        <time>2025-08-07T15:34:12Z</time>
      </trkpt>
      <trkpt lat="45.83217" lon="2.96199">
        <ele>953.4</ele>
        <time>2025-08-07T15:34:13Z</time>
      </trkpt>
      <trkpt lat="45.8322" lon="2.96195">
        <ele>953.8</ele>
        <time>2025-08-07T15:34:14Z</time>
      </trkpt>
      <trkpt lat="45.83225" lon="2.9619">
        <ele>954</ele>
        <time>2025-08-07T15:34:15Z</time>
      </trkpt>
      <trkpt lat="45.83225" lon="2.96188">
        <ele>954.4</ele>
        <time>2025-08-07T15:34:16Z</time>
      </trkpt>
      <trkpt lat="45.83224" lon="2.96185">
        <ele>954.6</ele>
        <time>2025-08-07T15:34:17Z</time>
      </trkpt>
      <trkpt lat="45.83222" lon="2.9618">
        <ele>954.8</ele>
        <time>2025-08-07T15:34:18Z</time>
      </trkpt>
      <trkpt lat="45.83221" lon="2.96176">
        <ele>955.2</ele>
        <time>2025-08-07T15:34:19Z</time>
      </trkpt>
      <trkpt lat="45.8322" lon="2.96172">
        <ele>955.4</ele>
        <time>2025-08-07T15:34:20Z</time>
      </trkpt>
      <trkpt lat="45.8322" lon="2.96167">
        <ele>955.8</ele>
        <time>2025-08-07T15:34:21Z</time>
      </trkpt>
      <trkpt lat="45.83219" lon="2.96163">
        <ele>956</ele>
        <time>2025-08-07T15:34:22Z</time>
      </trkpt>
      <trkpt lat="45.8322" lon="2.9616">
        <ele>956.2</ele>
        <time>2025-08-07T15:34:23Z</time>
      </trkpt>
      <trkpt lat="45.8322" lon="2.96157">
        <ele>956.4</ele>
        <time>2025-08-07T15:34:24Z</time>
      </trkpt>
      <trkpt lat="45.83221" lon="2.96154">
        <ele>956.6</ele>
        <time>2025-08-07T15:34:25Z</time>
      </trkpt>
      <trkpt lat="45.83221" lon="2.9615">
        <ele>956.8</ele>
        <time>2025-08-07T15:34:26Z</time>
      </trkpt>
      <trkpt lat="45.83222" lon="2.96148">
        <ele>957</ele>
        <time>2025-08-07T15:34:27Z</time>
      </trkpt>
      <trkpt lat="45.83221" lon="2.96148">
        <ele>957</ele>
        <time>2025-08-07T15:34:28Z</time>
      </trkpt>
      <trkpt lat="45.83223" lon="2.96151">
        <ele>957.2</ele>
        <time>2025-08-07T15:34:54Z</time>
      </trkpt>
      <trkpt lat="45.83224" lon="2.96152">
        <ele>957.2</ele>
        <time>2025-08-07T15:34:55Z</time>
      </trkpt>
      <trkpt lat="45.83224" lon="2.96154">
        <ele>957.2</ele>
        <time>2025-08-07T15:34:56Z</time>
      </trkpt>
      <trkpt lat="45.83224" lon="2.96156">
        <ele>957</ele>
        <time>2025-08-07T15:34:57Z</time>
      </trkpt>
      <trkpt lat="45.83226" lon="2.96159">
        <ele>957</ele>
        <time>2025-08-07T15:34:58Z</time>
      </trkpt>
      <trkpt lat="45.83227" lon="2.96162">
        <ele>956.8</ele>
        <time>2025-08-07T15:34:59Z</time>
      </trkpt>
      <trkpt lat="45.83228" lon="2.96166">
        <ele>956.6</ele>
        <time>2025-08-07T15:35:00Z</time>
      </trkpt>
      <trkpt lat="45.8323" lon="2.96171">
        <ele>956.4</ele>
        <time>2025-08-07T15:35:01Z</time>
      </trkpt>
      <trkpt lat="45.83231" lon="2.96175">
        <ele>956.2</ele>
        <time>2025-08-07T15:35:02Z</time>
      </trkpt>
      <trkpt lat="45.83233" lon="2.96181">
        <ele>955.8</ele>
        <time>2025-08-07T15:35:03Z</time>
      </trkpt>
      <trkpt lat="45.83235" lon="2.96187">
        <ele>955.4</ele>
        <time>2025-08-07T15:35:04Z</time>
      </trkpt>
      <trkpt lat="45.83238" lon="2.96195">
        <ele>955</ele>
        <time>2025-08-07T15:35:05Z</time>
      </trkpt>
      <trkpt lat="45.8324" lon="2.96203">
        <ele>954.6</ele>
        <time>2025-08-07T15:35:06Z</time>
      </trkpt>
      <trkpt lat="45.83243" lon="2.96211">
        <ele>954.2</ele>
        <time>2025-08-07T15:35:07Z</time>
      </trkpt>
      <trkpt lat="45.83245" lon="2.96219">
        <ele>953.8</ele>
        <time>2025-08-07T15:35:08Z</time>
      </trkpt>
      <trkpt lat="45.83247" lon="2.96227">
        <ele>953.2</ele>
        <time>2025-08-07T15:35:09Z</time>
      </trkpt>
      <trkpt lat="45.83249" lon="2.96235">
        <ele>952.6</ele>
        <time>2025-08-07T15:35:10Z</time>
      </trkpt>
      <trkpt lat="45.83251" lon="2.96243">
        <ele>952</ele>
        <time>2025-08-07T15:35:11Z</time>
      </trkpt>
      <trkpt lat="45.83253" lon="2.96252">
        <ele>951.6</ele>
        <time>2025-08-07T15:35:12Z</time>
      </trkpt>
      <trkpt lat="45.83257" lon="2.96262">
        <ele>950.8</ele>
        <time>2025-08-07T15:35:13Z</time>
      </trkpt>
      <trkpt lat="45.83261" lon="2.96272">
        <ele>950.4</ele>
        <time>2025-08-07T15:35:14Z</time>
      </trkpt>
      <trkpt lat="45.83265" lon="2.96283">
        <ele>949.8</ele>
        <time>2025-08-07T15:35:15Z</time>
      </trkpt>
      <trkpt lat="45.83265" lon="2.96297">
        <ele>949.2</ele>
        <time>2025-08-07T15:35:16Z</time>
      </trkpt>
      <trkpt lat="45.83265" lon="2.96315">
        <ele>948.6</ele>
        <time>2025-08-07T15:35:17Z</time>
      </trkpt>
      <trkpt lat="45.83266" lon="2.9634">
        <ele>948</ele>
        <time>2025-08-07T15:35:18Z</time>
      </trkpt>
      <trkpt lat="45.83268" lon="2.96353">
        <ele>947.4</ele>
        <time>2025-08-07T15:35:19Z</time>
      </trkpt>
      <trkpt lat="45.83271" lon="2.96363">
        <ele>946.6</ele>
        <time>2025-08-07T15:35:20Z</time>
      </trkpt>
      <trkpt lat="45.83274" lon="2.96371">
        <ele>946</ele>
        <time>2025-08-07T15:35:21Z</time>
      </trkpt>
      <trkpt lat="45.83276" lon="2.96379">
        <ele>945.4</ele>
        <time>2025-08-07T15:35:22Z</time>
      </trkpt>
      <trkpt lat="45.83279" lon="2.96389">
        <ele>944.8</ele>
        <time>2025-08-07T15:35:23Z</time>
      </trkpt>
      <trkpt lat="45.83284" lon="2.96414">
        <ele>944.2</ele>
        <time>2025-08-07T15:35:24Z</time>
      </trkpt>
      <trkpt lat="45.83287" lon="2.96426">
        <ele>943.6</ele>
        <time>2025-08-07T15:35:25Z</time>
      </trkpt>
      <trkpt lat="45.8329" lon="2.96438">
        <ele>943</ele>
        <time>2025-08-07T15:35:26Z</time>
      </trkpt>
      <trkpt lat="45.83294" lon="2.96455">
        <ele>942.4</ele>
        <time>2025-08-07T15:35:27Z</time>
      </trkpt>
      <trkpt lat="45.83295" lon="2.96467">
        <ele>941.8</ele>
        <time>2025-08-07T15:35:28Z</time>
      </trkpt>
      <trkpt lat="45.83295" lon="2.9648">
        <ele>941.2</ele>
        <time>2025-08-07T15:35:29Z</time>
      </trkpt>
      <trkpt lat="45.83295" lon="2.9649">
        <ele>940.6</ele>
        <time>2025-08-07T15:35:30Z</time>
      </trkpt>
      <trkpt lat="45.83297" lon="2.96501">
        <ele>940.2</ele>
        <time>2025-08-07T15:35:31Z</time>
      </trkpt>
      <trkpt lat="45.833" lon="2.96516">
        <ele>939.8</ele>
        <time>2025-08-07T15:35:32Z</time>
      </trkpt>
      <trkpt lat="45.83305" lon="2.9653">
        <ele>939.2</ele>
        <time>2025-08-07T15:35:33Z</time>
      </trkpt>
      <trkpt lat="45.83309" lon="2.96541">
        <ele>938.8</ele>
        <time>2025-08-07T15:35:34Z</time>
      </trkpt>
      <trkpt lat="45.83311" lon="2.96556">
        <ele>938.4</ele>
        <time>2025-08-07T15:35:35Z</time>
      </trkpt>
      <trkpt lat="45.83312" lon="2.96564">
        <ele>938.2</ele>
        <time>2025-08-07T15:35:36Z</time>
      </trkpt>
      <trkpt lat="45.83312" lon="2.96567">
        <ele>937.8</ele>
        <time>2025-08-07T15:35:37Z</time>
      </trkpt>
      <trkpt lat="45.83312" lon="2.96568">
        <ele>937.8</ele>
        <time>2025-08-07T15:35:38Z</time>
      </trkpt>
      <trkpt lat="45.83312" lon="2.96568">
        <ele>937.6</ele>
        <time>2025-08-07T15:35:39Z</time>
      </trkpt>
      <trkpt lat="45.83313" lon="2.96567">
        <ele>937.6</ele>
        <time>2025-08-07T15:35:40Z</time>
      </trkpt>
      <trkpt lat="45.83313" lon="2.96566">
        <ele>937.4</ele>
        <time>2025-08-07T15:35:41Z</time>
      </trkpt>
      <trkpt lat="45.83313" lon="2.96565">
        <ele>937.4</ele>
        <time>2025-08-07T15:35:42Z</time>
      </trkpt>
      <trkpt lat="45.83313" lon="2.96565">
        <ele>937.4</ele>
        <time>2025-08-07T15:35:43Z</time>
      </trkpt>
      <trkpt lat="45.83313" lon="2.96563">
        <ele>937.6</ele>
        <time>2025-08-07T15:35:44Z</time>
      </trkpt>
      <trkpt lat="45.83314" lon="2.96562">
        <ele>937.6</ele>
        <time>2025-08-07T15:35:45Z</time>
      </trkpt>
      <trkpt lat="45.83316" lon="2.96559">
        <ele>937.8</ele>
        <time>2025-08-07T15:35:46Z</time>
      </trkpt>
      <trkpt lat="45.83318" lon="2.96557">
        <ele>937.8</ele>
        <time>2025-08-07T15:35:47Z</time>
      </trkpt>
      <trkpt lat="45.83319" lon="2.96555">
        <ele>938</ele>
        <time>2025-08-07T15:35:48Z</time>
      </trkpt>
      <trkpt lat="45.83321" lon="2.96553">
        <ele>938</ele>
        <time>2025-08-07T15:35:49Z</time>
      </trkpt>
      <trkpt lat="45.83322" lon="2.9655">
        <ele>938.2</ele>
        <time>2025-08-07T15:35:50Z</time>
      </trkpt>
      <trkpt lat="45.83324" lon="2.96548">
        <ele>938.4</ele>
        <time>2025-08-07T15:35:51Z</time>
      </trkpt>
      <trkpt lat="45.83326" lon="2.96545">
        <ele>938.6</ele>
        <time>2025-08-07T15:35:52Z</time>
      </trkpt>
      <trkpt lat="45.83329" lon="2.96543">
        <ele>938.6</ele>
        <time>2025-08-07T15:35:53Z</time>
      </trkpt>
      <trkpt lat="45.83332" lon="2.9654">
        <ele>938.8</ele>
        <time>2025-08-07T15:35:54Z</time>
      </trkpt>
      <trkpt lat="45.83334" lon="2.96538">
        <ele>939</ele>
        <time>2025-08-07T15:35:55Z</time>
      </trkpt>
      <trkpt lat="45.83337" lon="2.96535">
        <ele>939</ele>
        <time>2025-08-07T15:35:56Z</time>
      </trkpt>
      <trkpt lat="45.83339" lon="2.96533">
        <ele>939.2</ele>
        <time>2025-08-07T15:35:57Z</time>
      </trkpt>
      <trkpt lat="45.83341" lon="2.96529">
        <ele>939.4</ele>
        <time>2025-08-07T15:35:58Z</time>
      </trkpt>
      <trkpt lat="45.83343" lon="2.96527">
        <ele>939.6</ele>
        <time>2025-08-07T15:35:59Z</time>
      </trkpt>
      <trkpt lat="45.83345" lon="2.96525">
        <ele>939.8</ele>
        <time>2025-08-07T15:36:00Z</time>
      </trkpt>
      <trkpt lat="45.83348" lon="2.96524">
        <ele>939.8</ele>
        <time>2025-08-07T15:36:01Z</time>
      </trkpt>
      <trkpt lat="45.8335" lon="2.96523">
        <ele>940</ele>
        <time>2025-08-07T15:36:02Z</time>
      </trkpt>
      <trkpt lat="45.83351" lon="2.96521">
        <ele>940.2</ele>
        <time>2025-08-07T15:36:03Z</time>
      </trkpt>
      <trkpt lat="45.83353" lon="2.96519">
        <ele>940.4</ele>
        <time>2025-08-07T15:36:04Z</time>
      </trkpt>
      <trkpt lat="45.83355" lon="2.96517">
        <ele>940.6</ele>
        <time>2025-08-07T15:36:05Z</time>
      </trkpt>
      <trkpt lat="45.83358" lon="2.96515">
        <ele>940.8</ele>
        <time>2025-08-07T15:36:06Z</time>
      </trkpt>
      <trkpt lat="45.83361" lon="2.96512">
        <ele>940.8</ele>
        <time>2025-08-07T15:36:07Z</time>
      </trkpt>
      <trkpt lat="45.83364" lon="2.96509">
        <ele>941</ele>
        <time>2025-08-07T15:36:08Z</time>
      </trkpt>
      <trkpt lat="45.83366" lon="2.96506">
        <ele>941.2</ele>
        <time>2025-08-07T15:36:09Z</time>
      </trkpt>
      <trkpt lat="45.83367" lon="2.96503">
        <ele>941.4</ele>
        <time>2025-08-07T15:36:10Z</time>
      </trkpt>
      <trkpt lat="45.83371" lon="2.96499">
        <ele>941.6</ele>
        <time>2025-08-07T15:36:11Z</time>
      </trkpt>
      <trkpt lat="45.83374" lon="2.96495">
        <ele>941.6</ele>
        <time>2025-08-07T15:36:12Z</time>
      </trkpt>
      <trkpt lat="45.83377" lon="2.96492">
        <ele>941.8</ele>
        <time>2025-08-07T15:36:13Z</time>
      </trkpt>
      <trkpt lat="45.83379" lon="2.96489">
        <ele>942</ele>
        <time>2025-08-07T15:36:14Z</time>
      </trkpt>
      <trkpt lat="45.83382" lon="2.96486">
        <ele>942.2</ele>
        <time>2025-08-07T15:36:15Z</time>
      </trkpt>
      <trkpt lat="45.83385" lon="2.96484">
        <ele>942.4</ele>
        <time>2025-08-07T15:36:16Z</time>
      </trkpt>
      <trkpt lat="45.83385" lon="2.96484">
        <ele>942.6</ele>
        <time>2025-08-07T15:36:17Z</time>
      </trkpt>
      <trkpt lat="45.83385" lon="2.96483">
        <ele>943</ele>
        <time>2025-08-07T15:36:18Z</time>
      </trkpt>
      <trkpt lat="45.83385" lon="2.96483">
        <ele>943.2</ele>
        <time>2025-08-07T15:36:19Z</time>
      </trkpt>
      <trkpt lat="45.83385" lon="2.96483">
        <ele>943.4</ele>
        <time>2025-08-07T15:36:20Z</time>
      </trkpt>
      <trkpt lat="45.83387" lon="2.96482">
        <ele>943.6</ele>
        <time>2025-08-07T15:36:21Z</time>
      </trkpt>
      <trkpt lat="45.83392" lon="2.96479">
        <ele>943.8</ele>
        <time>2025-08-07T15:36:22Z</time>
      </trkpt>
      <trkpt lat="45.83397" lon="2.96475">
        <ele>943.8</ele>
        <time>2025-08-07T15:36:23Z</time>
      </trkpt>
      <trkpt lat="45.83399" lon="2.96472">
        <ele>944</ele>
        <time>2025-08-07T15:36:24Z</time>
      </trkpt>
      <trkpt lat="45.83401" lon="2.9647">
        <ele>944.2</ele>
        <time>2025-08-07T15:36:25Z</time>
      </trkpt>
      <trkpt lat="45.83401" lon="2.96469">
        <ele>944.6</ele>
        <time>2025-08-07T15:36:26Z</time>
      </trkpt>
      <trkpt lat="45.83402" lon="2.96468">
        <ele>944.8</ele>
        <time>2025-08-07T15:36:27Z</time>
      </trkpt>
      <trkpt lat="45.83403" lon="2.96466">
        <ele>945</ele>
        <time>2025-08-07T15:36:28Z</time>
      </trkpt>
      <trkpt lat="45.83405" lon="2.96464">
        <ele>945.2</ele>
        <time>2025-08-07T15:36:29Z</time>
      </trkpt>
      <trkpt lat="45.83407" lon="2.96462">
        <ele>945.6</ele>
        <time>2025-08-07T15:36:30Z</time>
      </trkpt>
      <trkpt lat="45.83409" lon="2.96459">
        <ele>946</ele>
        <time>2025-08-07T15:36:31Z</time>
      </trkpt>
      <trkpt lat="45.83412" lon="2.96456">
        <ele>946.2</ele>
        <time>2025-08-07T15:36:32Z</time>
      </trkpt>
      <trkpt lat="45.83412" lon="2.96455">
        <ele>946.6</ele>
        <time>2025-08-07T15:36:33Z</time>
      </trkpt>
      <trkpt lat="45.83414" lon="2.96453">
        <ele>946.8</ele>
        <time>2025-08-07T15:36:34Z</time>
      </trkpt>
      <trkpt lat="45.83417" lon="2.96451">
        <ele>947</ele>
        <time>2025-08-07T15:36:35Z</time>
      </trkpt>
      <trkpt lat="45.83419" lon="2.96445">
        <ele>947.4</ele>
        <time>2025-08-07T15:36:36Z</time>
      </trkpt>
      <trkpt lat="45.83421" lon="2.9644">
        <ele>947.6</ele>
        <time>2025-08-07T15:36:37Z</time>
      </trkpt>
      <trkpt lat="45.83424" lon="2.96437">
        <ele>947.8</ele>
        <time>2025-08-07T15:36:38Z</time>
      </trkpt>
      <trkpt lat="45.83426" lon="2.96432">
        <ele>948</ele>
        <time>2025-08-07T15:36:39Z</time>
      </trkpt>
      <trkpt lat="45.83429" lon="2.96426">
        <ele>948.4</ele>
        <time>2025-08-07T15:36:40Z</time>
      </trkpt>
      <trkpt lat="45.83432" lon="2.96422">
        <ele>948.6</ele>
        <time>2025-08-07T15:36:41Z</time>
      </trkpt>
      <trkpt lat="45.83434" lon="2.96419">
        <ele>949</ele>
        <time>2025-08-07T15:36:42Z</time>
      </trkpt>
      <trkpt lat="45.83437" lon="2.96417">
        <ele>949.2</ele>
        <time>2025-08-07T15:36:43Z</time>
      </trkpt>
      <trkpt lat="45.83439" lon="2.96415">
        <ele>949.4</ele>
        <time>2025-08-07T15:36:44Z</time>
      </trkpt>
      <trkpt lat="45.83441" lon="2.96413">
        <ele>949.6</ele>
        <time>2025-08-07T15:36:45Z</time>
      </trkpt>
      <trkpt lat="45.83444" lon="2.96412">
        <ele>950</ele>
        <time>2025-08-07T15:36:46Z</time>
      </trkpt>
      <trkpt lat="45.83448" lon="2.9641">
        <ele>950.2</ele>
        <time>2025-08-07T15:36:47Z</time>
      </trkpt>
      <trkpt lat="45.8345" lon="2.96408">
        <ele>950.4</ele>
        <time>2025-08-07T15:36:48Z</time>
      </trkpt>
      <trkpt lat="45.83451" lon="2.96407">
        <ele>950.8</ele>
        <time>2025-08-07T15:36:49Z</time>
      </trkpt>
      <trkpt lat="45.83452" lon="2.96407">
        <ele>951</ele>
        <time>2025-08-07T15:36:50Z</time>
      </trkpt>
      <trkpt lat="45.83454" lon="2.96406">
        <ele>951.2</ele>
        <time>2025-08-07T15:36:51Z</time>
      </trkpt>
      <trkpt lat="45.83458" lon="2.96405">
        <ele>951.6</ele>
        <time>2025-08-07T15:36:52Z</time>
      </trkpt>
      <trkpt lat="45.83461" lon="2.96404">
        <ele>951.8</ele>
        <time>2025-08-07T15:36:53Z</time>
      </trkpt>
      <trkpt lat="45.83463" lon="2.96404">
        <ele>952</ele>
        <time>2025-08-07T15:36:54Z</time>
      </trkpt>
      <trkpt lat="45.83464" lon="2.96403">
        <ele>952.2</ele>
        <time>2025-08-07T15:36:55Z</time>
      </trkpt>
      <trkpt lat="45.83465" lon="2.96403">
        <ele>952.4</ele>
        <time>2025-08-07T15:36:56Z</time>
      </trkpt>
      <trkpt lat="45.83467" lon="2.96403">
        <ele>952.8</ele>
        <time>2025-08-07T15:36:57Z</time>
      </trkpt>
      <trkpt lat="45.83469" lon="2.96403">
        <ele>952.8</ele>
        <time>2025-08-07T15:36:58Z</time>
      </trkpt>
      <trkpt lat="45.83472" lon="2.96404">
        <ele>953</ele>
        <time>2025-08-07T15:36:59Z</time>
      </trkpt>
      <trkpt lat="45.83472" lon="2.96405">
        <ele>953.2</ele>
        <time>2025-08-07T15:37:00Z</time>
      </trkpt>
      <trkpt lat="45.83474" lon="2.96405">
        <ele>953.6</ele>
        <time>2025-08-07T15:37:01Z</time>
      </trkpt>
      <trkpt lat="45.83479" lon="2.96405">
        <ele>953.8</ele>
        <time>2025-08-07T15:37:02Z</time>
      </trkpt>
      <trkpt lat="45.83483" lon="2.96405">
        <ele>954</ele>
        <time>2025-08-07T15:37:03Z</time>
      </trkpt>
      <trkpt lat="45.83486" lon="2.96405">
        <ele>954</ele>
        <time>2025-08-07T15:37:04Z</time>
      </trkpt>
      <trkpt lat="45.83488" lon="2.96405">
        <ele>954.2</ele>
        <time>2025-08-07T15:37:05Z</time>
      </trkpt>
      <trkpt lat="45.8349" lon="2.96405">
        <ele>954.4</ele>
        <time>2025-08-07T15:37:06Z</time>
      </trkpt>
      <trkpt lat="45.83492" lon="2.96405">
        <ele>954.6</ele>
        <time>2025-08-07T15:37:07Z</time>
      </trkpt>
      <trkpt lat="45.83495" lon="2.96405">
        <ele>954.6</ele>
        <time>2025-08-07T15:37:08Z</time>
      </trkpt>
      <trkpt lat="45.83498" lon="2.96404">
        <ele>954.8</ele>
        <time>2025-08-07T15:37:09Z</time>
      </trkpt>
      <trkpt lat="45.83502" lon="2.96403">
        <ele>955</ele>
        <time>2025-08-07T15:37:10Z</time>
      </trkpt>
      <trkpt lat="45.83506" lon="2.96401">
        <ele>955.2</ele>
        <time>2025-08-07T15:37:11Z</time>
      </trkpt>
      <trkpt lat="45.8351" lon="2.96399">
        <ele>955.6</ele>
        <time>2025-08-07T15:37:12Z</time>
      </trkpt>
      <trkpt lat="45.83512" lon="2.96398">
        <ele>955.8</ele>
        <time>2025-08-07T15:37:13Z</time>
      </trkpt>
      <trkpt lat="45.83514" lon="2.96397">
        <ele>956</ele>
        <time>2025-08-07T15:37:14Z</time>
      </trkpt>
      <trkpt lat="45.83517" lon="2.96395">
        <ele>956.2</ele>
        <time>2025-08-07T15:37:15Z</time>
      </trkpt>
      <trkpt lat="45.83522" lon="2.96392">
        <ele>956.6</ele>
        <time>2025-08-07T15:37:16Z</time>
      </trkpt>
      <trkpt lat="45.83529" lon="2.96388">
        <ele>956.8</ele>
        <time>2025-08-07T15:37:17Z</time>
      </trkpt>
      <trkpt lat="45.8353" lon="2.96386">
        <ele>957.2</ele>
        <time>2025-08-07T15:37:18Z</time>
      </trkpt>
      <trkpt lat="45.83532" lon="2.96383">
        <ele>957.4</ele>
        <time>2025-08-07T15:37:19Z</time>
      </trkpt>
      <trkpt lat="45.83535" lon="2.96377">
        <ele>957.8</ele>
        <time>2025-08-07T15:37:20Z</time>
      </trkpt>
      <trkpt lat="45.83536" lon="2.96374">
        <ele>958</ele>
        <time>2025-08-07T15:37:21Z</time>
      </trkpt>
      <trkpt lat="45.83536" lon="2.96373">
        <ele>958.4</ele>
        <time>2025-08-07T15:37:22Z</time>
      </trkpt>
      <trkpt lat="45.83536" lon="2.96373">
        <ele>958.8</ele>
        <time>2025-08-07T15:37:23Z</time>
      </trkpt>
      <trkpt lat="45.83535" lon="2.96372">
        <ele>959</ele>
        <time>2025-08-07T15:37:24Z</time>
      </trkpt>
      <trkpt lat="45.83535" lon="2.9637">
        <ele>959.4</ele>
        <time>2025-08-07T15:37:25Z</time>
      </trkpt>
      <trkpt lat="45.83534" lon="2.96367">
        <ele>959.6</ele>
        <time>2025-08-07T15:37:26Z</time>
      </trkpt>
      <trkpt lat="45.83533" lon="2.96364">
        <ele>960</ele>
        <time>2025-08-07T15:37:27Z</time>
      </trkpt>
      <trkpt lat="45.83532" lon="2.96362">
        <ele>960.2</ele>
        <time>2025-08-07T15:37:28Z</time>
      </trkpt>
      <trkpt lat="45.83532" lon="2.96359">
        <ele>960.6</ele>
        <time>2025-08-07T15:37:29Z</time>
      </trkpt>
      <trkpt lat="45.8353" lon="2.96356">
        <ele>960.8</ele>
        <time>2025-08-07T15:37:30Z</time>
      </trkpt>
      <trkpt lat="45.83529" lon="2.96354">
        <ele>961.2</ele>
        <time>2025-08-07T15:37:31Z</time>
      </trkpt>
      <trkpt lat="45.83528" lon="2.96351">
        <ele>961.4</ele>
        <time>2025-08-07T15:37:32Z</time>
      </trkpt>
      <trkpt lat="45.83526" lon="2.96347">
        <ele>961.6</ele>
        <time>2025-08-07T15:37:33Z</time>
      </trkpt>
      <trkpt lat="45.83525" lon="2.96344">
        <ele>961.8</ele>
        <time>2025-08-07T15:37:34Z</time>
      </trkpt>
      <trkpt lat="45.83525" lon="2.96343">
        <ele>962</ele>
        <time>2025-08-07T15:37:35Z</time>
      </trkpt>
      <trkpt lat="45.83525" lon="2.96343">
        <ele>962</ele>
        <time>2025-08-07T15:37:36Z</time>
      </trkpt>
      <trkpt lat="45.83525" lon="2.96343">
        <ele>962.2</ele>
        <time>2025-08-07T15:37:37Z</time>
      </trkpt>
      <trkpt lat="45.83525" lon="2.96343">
        <ele>962.2</ele>
        <time>2025-08-07T15:37:38Z</time>
      </trkpt>
      <trkpt lat="45.83525" lon="2.96342">
        <ele>962.2</ele>
        <time>2025-08-07T15:37:39Z</time>
      </trkpt>
      <trkpt lat="45.83525" lon="2.96342">
        <ele>962.2</ele>
        <time>2025-08-07T15:37:40Z</time>
      </trkpt>
      <trkpt lat="45.83525" lon="2.96342">
        <ele>962.2</ele>
        <time>2025-08-07T15:37:41Z</time>
      </trkpt>
      <trkpt lat="45.83525" lon="2.96342">
        <ele>962.2</ele>
        <time>2025-08-07T15:37:42Z</time>
      </trkpt>
      <trkpt lat="45.83525" lon="2.96342">
        <ele>962.4</ele>
        <time>2025-08-07T15:37:43Z</time>
      </trkpt>
      <trkpt lat="45.83525" lon="2.96342">
        <ele>962.4</ele>
        <time>2025-08-07T15:37:44Z</time>
      </trkpt>
      <trkpt lat="45.83525" lon="2.96343">
        <ele>962.2</ele>
        <time>2025-08-07T15:37:45Z</time>
      </trkpt>
      <trkpt lat="45.83525" lon="2.96345">
        <ele>962</ele>
        <time>2025-08-07T15:37:46Z</time>
      </trkpt>
      <trkpt lat="45.83526" lon="2.96348">
        <ele>962</ele>
        <time>2025-08-07T15:37:47Z</time>
      </trkpt>
      <trkpt lat="45.83527" lon="2.96351">
        <ele>961.8</ele>
        <time>2025-08-07T15:37:48Z</time>
      </trkpt>
      <trkpt lat="45.83528" lon="2.96355">
        <ele>961.4</ele>
        <time>2025-08-07T15:37:49Z</time>
      </trkpt>
      <trkpt lat="45.8353" lon="2.96359">
        <ele>961.2</ele>
        <time>2025-08-07T15:37:50Z</time>
      </trkpt>
      <trkpt lat="45.83532" lon="2.96363">
        <ele>960.8</ele>
        <time>2025-08-07T15:37:51Z</time>
      </trkpt>
      <trkpt lat="45.83532" lon="2.96367">
        <ele>960.4</ele>
        <time>2025-08-07T15:37:52Z</time>
      </trkpt>
      <trkpt lat="45.83533" lon="2.9637">
        <ele>960</ele>
        <time>2025-08-07T15:37:53Z</time>
      </trkpt>
      <trkpt lat="45.83535" lon="2.96373">
        <ele>959.4</ele>
        <time>2025-08-07T15:37:54Z</time>
      </trkpt>
      <trkpt lat="45.83535" lon="2.96376">
        <ele>959</ele>
        <time>2025-08-07T15:37:55Z</time>
      </trkpt>
      <trkpt lat="45.83535" lon="2.96379">
        <ele>958.4</ele>
        <time>2025-08-07T15:37:56Z</time>
      </trkpt>
      <trkpt lat="45.83533" lon="2.96382">
        <ele>958</ele>
        <time>2025-08-07T15:37:57Z</time>
      </trkpt>
      <trkpt lat="45.8353" lon="2.96385">
        <ele>957.4</ele>
        <time>2025-08-07T15:37:58Z</time>
      </trkpt>
      <trkpt lat="45.83527" lon="2.96387">
        <ele>957</ele>
        <time>2025-08-07T15:37:59Z</time>
      </trkpt>
      <trkpt lat="45.83523" lon="2.96388">
        <ele>956.6</ele>
        <time>2025-08-07T15:38:00Z</time>
      </trkpt>
      <trkpt lat="45.83521" lon="2.96388">
        <ele>956.2</ele>
        <time>2025-08-07T15:38:01Z</time>
      </trkpt>
      <trkpt lat="45.83518" lon="2.9639">
        <ele>955.6</ele>
        <time>2025-08-07T15:38:02Z</time>
      </trkpt>
      <trkpt lat="45.83516" lon="2.96393">
        <ele>955.2</ele>
        <time>2025-08-07T15:38:03Z</time>
      </trkpt>
      <trkpt lat="45.83515" lon="2.96393">
        <ele>954.6</ele>
        <time>2025-08-07T15:38:04Z</time>
      </trkpt>
      <trkpt lat="45.83514" lon="2.96395">
        <ele>954.2</ele>
        <time>2025-08-07T15:38:05Z</time>
      </trkpt>
      <trkpt lat="45.83513" lon="2.964">
        <ele>953.6</ele>
        <time>2025-08-07T15:38:06Z</time>
      </trkpt>
      <trkpt lat="45.83511" lon="2.96406">
        <ele>953</ele>
        <time>2025-08-07T15:38:07Z</time>
      </trkpt>
      <trkpt lat="45.83507" lon="2.96413">
        <ele>952.6</ele>
        <time>2025-08-07T15:38:08Z</time>
      </trkpt>
      <trkpt lat="45.83504" lon="2.9642">
        <ele>952</ele>
        <time>2025-08-07T15:38:09Z</time>
      </trkpt>
      <trkpt lat="45.83503" lon="2.96424">
        <ele>951.4</ele>
        <time>2025-08-07T15:38:10Z</time>
      </trkpt>
      <trkpt lat="45.83502" lon="2.96428">
        <ele>951</ele>
        <time>2025-08-07T15:38:11Z</time>
      </trkpt>
      <trkpt lat="45.835" lon="2.96433">
        <ele>950.4</ele>
        <time>2025-08-07T15:38:12Z</time>
      </trkpt>
      <trkpt lat="45.83497" lon="2.9644">
        <ele>949.8</ele>
        <time>2025-08-07T15:38:13Z</time>
      </trkpt>
      <trkpt lat="45.83495" lon="2.96446">
        <ele>949.4</ele>
        <time>2025-08-07T15:38:14Z</time>
      </trkpt>
      <trkpt lat="45.83492" lon="2.96454">
        <ele>949</ele>
        <time>2025-08-07T15:38:15Z</time>
      </trkpt>
      <trkpt lat="45.83489" lon="2.96461">
        <ele>948.6</ele>
        <time>2025-08-07T15:38:16Z</time>
      </trkpt>
      <trkpt lat="45.83487" lon="2.96467">
        <ele>948</ele>
        <time>2025-08-07T15:38:17Z</time>
      </trkpt>
      <trkpt lat="45.83484" lon="2.96475">
        <ele>947.6</ele>
        <time>2025-08-07T15:38:18Z</time>
      </trkpt>
      <trkpt lat="45.83481" lon="2.96483">
        <ele>947</ele>
        <time>2025-08-07T15:38:19Z</time>
      </trkpt>
      <trkpt lat="45.8348" lon="2.96489">
        <ele>946.6</ele>
        <time>2025-08-07T15:38:20Z</time>
      </trkpt>
      <trkpt lat="45.83479" lon="2.96497">
        <ele>946.2</ele>
        <time>2025-08-07T15:38:21Z</time>
      </trkpt>
      <trkpt lat="45.83477" lon="2.96505">
        <ele>945.8</ele>
        <time>2025-08-07T15:38:22Z</time>
      </trkpt>
      <trkpt lat="45.83477" lon="2.96512">
        <ele>945.4</ele>
        <time>2025-08-07T15:38:23Z</time>
      </trkpt>
      <trkpt lat="45.83477" lon="2.96523">
        <ele>945</ele>
        <time>2025-08-07T15:38:24Z</time>
      </trkpt>
      <trkpt lat="45.83481" lon="2.96533">
        <ele>944.6</ele>
        <time>2025-08-07T15:38:25Z</time>
      </trkpt>
      <trkpt lat="45.83485" lon="2.96538">
        <ele>944.2</ele>
        <time>2025-08-07T15:38:26Z</time>
      </trkpt>
      <trkpt lat="45.83488" lon="2.96544">
        <ele>943.8</ele>
        <time>2025-08-07T15:38:27Z</time>
      </trkpt>
      <trkpt lat="45.83492" lon="2.96551">
        <ele>943.2</ele>
        <time>2025-08-07T15:38:28Z</time>
      </trkpt>
      <trkpt lat="45.83497" lon="2.96557">
        <ele>942.8</ele>
        <time>2025-08-07T15:38:29Z</time>
      </trkpt>
      <trkpt lat="45.83502" lon="2.96565">
        <ele>942.4</ele>
        <time>2025-08-07T15:38:30Z</time>
      </trkpt>
      <trkpt lat="45.83506" lon="2.96575">
        <ele>942.2</ele>
        <time>2025-08-07T15:38:31Z</time>
      </trkpt>
      <trkpt lat="45.8351" lon="2.96584">
        <ele>941.8</ele>
        <time>2025-08-07T15:38:32Z</time>
      </trkpt>
      <trkpt lat="45.83514" lon="2.96591">
        <ele>941.6</ele>
        <time>2025-08-07T15:38:33Z</time>
      </trkpt>
      <trkpt lat="45.83519" lon="2.96597">
        <ele>941.4</ele>
        <time>2025-08-07T15:38:34Z</time>
      </trkpt>
      <trkpt lat="45.83524" lon="2.96603">
        <ele>941</ele>
        <time>2025-08-07T15:38:35Z</time>
      </trkpt>
      <trkpt lat="45.83531" lon="2.96611">
        <ele>940.8</ele>
        <time>2025-08-07T15:38:36Z</time>
      </trkpt>
      <trkpt lat="45.83537" lon="2.96618">
        <ele>940.6</ele>
        <time>2025-08-07T15:38:37Z</time>
      </trkpt>
      <trkpt lat="45.83542" lon="2.96622">
        <ele>940.4</ele>
        <time>2025-08-07T15:38:38Z</time>
      </trkpt>
      <trkpt lat="45.83545" lon="2.96625">
        <ele>940</ele>
        <time>2025-08-07T15:38:39Z</time>
      </trkpt>
      <trkpt lat="45.83547" lon="2.96628">
        <ele>939.8</ele>
        <time>2025-08-07T15:38:40Z</time>
      </trkpt>
      <trkpt lat="45.83549" lon="2.96631">
        <ele>939.6</ele>
        <time>2025-08-07T15:38:41Z</time>
      </trkpt>
      <trkpt lat="45.8355" lon="2.96631">
        <ele>939.4</ele>
        <time>2025-08-07T15:38:42Z</time>
      </trkpt>
      <trkpt lat="45.83551" lon="2.96632">
        <ele>939</ele>
        <time>2025-08-07T15:38:43Z</time>
      </trkpt>
      <trkpt lat="45.83555" lon="2.96635">
        <ele>938.8</ele>
        <time>2025-08-07T15:38:44Z</time>
      </trkpt>
      <trkpt lat="45.83558" lon="2.96637">
        <ele>938.4</ele>
        <time>2025-08-07T15:38:45Z</time>
      </trkpt>
      <trkpt lat="45.83561" lon="2.96639">
        <ele>938.2</ele>
        <time>2025-08-07T15:38:46Z</time>
      </trkpt>
      <trkpt lat="45.83564" lon="2.96643">
        <ele>937.8</ele>
        <time>2025-08-07T15:38:47Z</time>
      </trkpt>
      <trkpt lat="45.83567" lon="2.96648">
        <ele>937.6</ele>
        <time>2025-08-07T15:38:48Z</time>
      </trkpt>
      <trkpt lat="45.83572" lon="2.96654">
        <ele>937.4</ele>
        <time>2025-08-07T15:38:49Z</time>
      </trkpt>
      <trkpt lat="45.83577" lon="2.9666">
        <ele>937</ele>
        <time>2025-08-07T15:38:50Z</time>
      </trkpt>
      <trkpt lat="45.83581" lon="2.96666">
        <ele>936.6</ele>
        <time>2025-08-07T15:38:51Z</time>
      </trkpt>
      <trkpt lat="45.83584" lon="2.96671">
        <ele>936.4</ele>
        <time>2025-08-07T15:38:52Z</time>
      </trkpt>
      <trkpt lat="45.83587" lon="2.96677">
        <ele>936</ele>
        <time>2025-08-07T15:38:53Z</time>
      </trkpt>
      <trkpt lat="45.83591" lon="2.9668">
        <ele>935.8</ele>
        <time>2025-08-07T15:38:54Z</time>
      </trkpt>
      <trkpt lat="45.83594" lon="2.96682">
        <ele>935.6</ele>
        <time>2025-08-07T15:38:55Z</time>
      </trkpt>
      <trkpt lat="45.83598" lon="2.96684">
        <ele>935.4</ele>
        <time>2025-08-07T15:38:56Z</time>
      </trkpt>
      <trkpt lat="45.83602" lon="2.96688">
        <ele>935.2</ele>
        <time>2025-08-07T15:38:57Z</time>
      </trkpt>
      <trkpt lat="45.83606" lon="2.96691">
        <ele>935</ele>
        <time>2025-08-07T15:38:58Z</time>
      </trkpt>
      <trkpt lat="45.83609" lon="2.96695">
        <ele>934.6</ele>
        <time>2025-08-07T15:38:59Z</time>
      </trkpt>
      <trkpt lat="45.83611" lon="2.96697">
        <ele>934.4</ele>
        <time>2025-08-07T15:39:00Z</time>
      </trkpt>
      <trkpt lat="45.83612" lon="2.96699">
        <ele>934.2</ele>
        <time>2025-08-07T15:39:01Z</time>
      </trkpt>
      <trkpt lat="45.83614" lon="2.96701">
        <ele>933.8</ele>
        <time>2025-08-07T15:39:02Z</time>
      </trkpt>
      <trkpt lat="45.83617" lon="2.96704">
        <ele>933.4</ele>
        <time>2025-08-07T15:39:03Z</time>
      </trkpt>
      <trkpt lat="45.83621" lon="2.96707">
        <ele>933.2</ele>
        <time>2025-08-07T15:39:04Z</time>
      </trkpt>
      <trkpt lat="45.83627" lon="2.96712">
        <ele>932.8</ele>
        <time>2025-08-07T15:39:05Z</time>
      </trkpt>
      <trkpt lat="45.83633" lon="2.96717">
        <ele>932.4</ele>
        <time>2025-08-07T15:39:06Z</time>
      </trkpt>
      <trkpt lat="45.83638" lon="2.96722">
        <ele>932</ele>
        <time>2025-08-07T15:39:07Z</time>
      </trkpt>
      <trkpt lat="45.83642" lon="2.96726">
        <ele>931.6</ele>
        <time>2025-08-07T15:39:08Z</time>
      </trkpt>
      <trkpt lat="45.83646" lon="2.9673">
        <ele>931.2</ele>
        <time>2025-08-07T15:39:09Z</time>
      </trkpt>
      <trkpt lat="45.8365" lon="2.96734">
        <ele>931</ele>
        <time>2025-08-07T15:39:10Z</time>
      </trkpt>
      <trkpt lat="45.83652" lon="2.96738">
        <ele>930.8</ele>
        <time>2025-08-07T15:39:11Z</time>
      </trkpt>
      <trkpt lat="45.83655" lon="2.96743">
        <ele>930.4</ele>
        <time>2025-08-07T15:39:12Z</time>
      </trkpt>
      <trkpt lat="45.83658" lon="2.96748">
        <ele>930.2</ele>
        <time>2025-08-07T15:39:13Z</time>
      </trkpt>
      <trkpt lat="45.83661" lon="2.96752">
        <ele>930</ele>
        <time>2025-08-07T15:39:14Z</time>
      </trkpt>
      <trkpt lat="45.83664" lon="2.96755">
        <ele>929.6</ele>
        <time>2025-08-07T15:39:15Z</time>
      </trkpt>
      <trkpt lat="45.83667" lon="2.96758">
        <ele>929.2</ele>
        <time>2025-08-07T15:39:16Z</time>
      </trkpt>
      <trkpt lat="45.83671" lon="2.96764">
        <ele>928.8</ele>
        <time>2025-08-07T15:39:17Z</time>
      </trkpt>
      <trkpt lat="45.83677" lon="2.96771">
        <ele>928.4</ele>
        <time>2025-08-07T15:39:18Z</time>
      </trkpt>
      <trkpt lat="45.83684" lon="2.96777">
        <ele>928</ele>
        <time>2025-08-07T15:39:19Z</time>
      </trkpt>
      <trkpt lat="45.83689" lon="2.96782">
        <ele>927.8</ele>
        <time>2025-08-07T15:39:20Z</time>
      </trkpt>
      <trkpt lat="45.83695" lon="2.96787">
        <ele>927.4</ele>
        <time>2025-08-07T15:39:21Z</time>
      </trkpt>
      <trkpt lat="45.83699" lon="2.96791">
        <ele>926.8</ele>
        <time>2025-08-07T15:39:22Z</time>
      </trkpt>
      <trkpt lat="45.83704" lon="2.96795">
        <ele>926.2</ele>
        <time>2025-08-07T15:39:23Z</time>
      </trkpt>
      <trkpt lat="45.83709" lon="2.968">
        <ele>925.8</ele>
        <time>2025-08-07T15:39:24Z</time>
      </trkpt>
      <trkpt lat="45.83715" lon="2.96809">
        <ele>925.2</ele>
        <time>2025-08-07T15:39:25Z</time>
      </trkpt>
      <trkpt lat="45.83722" lon="2.96821">
        <ele>924.8</ele>
        <time>2025-08-07T15:39:26Z</time>
      </trkpt>
      <trkpt lat="45.83726" lon="2.96829">
        <ele>924.4</ele>
        <time>2025-08-07T15:39:27Z</time>
      </trkpt>
      <trkpt lat="45.83729" lon="2.96836">
        <ele>923.8</ele>
        <time>2025-08-07T15:39:28Z</time>
      </trkpt>
      <trkpt lat="45.83731" lon="2.96844">
        <ele>923</ele>
        <time>2025-08-07T15:39:29Z</time>
      </trkpt>
      <trkpt lat="45.83734" lon="2.96854">
        <ele>922.4</ele>
        <time>2025-08-07T15:39:30Z</time>
      </trkpt>
      <trkpt lat="45.83738" lon="2.96875">
        <ele>922</ele>
        <time>2025-08-07T15:39:31Z</time>
      </trkpt>
      <trkpt lat="45.83741" lon="2.96887">
        <ele>921.4</ele>
        <time>2025-08-07T15:39:32Z</time>
      </trkpt>
      <trkpt lat="45.83745" lon="2.96894">
        <ele>920.8</ele>
        <time>2025-08-07T15:39:33Z</time>
      </trkpt>
      <trkpt lat="45.8375" lon="2.969">
        <ele>920.2</ele>
        <time>2025-08-07T15:39:34Z</time>
      </trkpt>
      <trkpt lat="45.83754" lon="2.96906">
        <ele>919.8</ele>
        <time>2025-08-07T15:39:35Z</time>
      </trkpt>
      <trkpt lat="45.83757" lon="2.96914">
        <ele>919.4</ele>
        <time>2025-08-07T15:39:36Z</time>
      </trkpt>
      <trkpt lat="45.8376" lon="2.96925">
        <ele>919</ele>
        <time>2025-08-07T15:39:37Z</time>
      </trkpt>
      <trkpt lat="45.83762" lon="2.96936">
        <ele>918.6</ele>
        <time>2025-08-07T15:39:38Z</time>
      </trkpt>
      <trkpt lat="45.83764" lon="2.96942">
        <ele>918.2</ele>
        <time>2025-08-07T15:39:39Z</time>
      </trkpt>
      <trkpt lat="45.83766" lon="2.96948">
        <ele>917.6</ele>
        <time>2025-08-07T15:39:40Z</time>
      </trkpt>
      <trkpt lat="45.83769" lon="2.96954">
        <ele>917.2</ele>
        <time>2025-08-07T15:39:41Z</time>
      </trkpt>
      <trkpt lat="45.83771" lon="2.96963">
        <ele>916.6</ele>
        <time>2025-08-07T15:39:42Z</time>
      </trkpt>
      <trkpt lat="45.83775" lon="2.96975">
        <ele>916.2</ele>
        <time>2025-08-07T15:39:43Z</time>
      </trkpt>
      <trkpt lat="45.83779" lon="2.96991">
        <ele>915.8</ele>
        <time>2025-08-07T15:39:44Z</time>
      </trkpt>
      <trkpt lat="45.83783" lon="2.97003">
        <ele>915.4</ele>
        <time>2025-08-07T15:39:45Z</time>
      </trkpt>
      <trkpt lat="45.83786" lon="2.97013">
        <ele>914.8</ele>
        <time>2025-08-07T15:39:46Z</time>
      </trkpt>
      <trkpt lat="45.83789" lon="2.9702">
        <ele>914.4</ele>
        <time>2025-08-07T15:39:47Z</time>
      </trkpt>
      <trkpt lat="45.83791" lon="2.97028">
        <ele>914</ele>
        <time>2025-08-07T15:39:48Z</time>
      </trkpt>
      <trkpt lat="45.83794" lon="2.97038">
        <ele>913.6</ele>
        <time>2025-08-07T15:39:49Z</time>
      </trkpt>
      <trkpt lat="45.83798" lon="2.97051">
        <ele>913.2</ele>
        <time>2025-08-07T15:39:50Z</time>
      </trkpt>
      <trkpt lat="45.83802" lon="2.97058">
        <ele>912.8</ele>
        <time>2025-08-07T15:39:51Z</time>
      </trkpt>
      <trkpt lat="45.83806" lon="2.97065">
        <ele>912.4</ele>
        <time>2025-08-07T15:39:52Z</time>
      </trkpt>
      <trkpt lat="45.83811" lon="2.97076">
        <ele>912.2</ele>
        <time>2025-08-07T15:39:53Z</time>
      </trkpt>
      <trkpt lat="45.83815" lon="2.97085">
        <ele>912</ele>
        <time>2025-08-07T15:39:54Z</time>
      </trkpt>
      <trkpt lat="45.83819" lon="2.97094">
        <ele>911.8</ele>
        <time>2025-08-07T15:39:55Z</time>
      </trkpt>
      <trkpt lat="45.83823" lon="2.97102">
        <ele>911.4</ele>
        <time>2025-08-07T15:39:56Z</time>
      </trkpt>
      <trkpt lat="45.83827" lon="2.97111">
        <ele>911.2</ele>
        <time>2025-08-07T15:39:57Z</time>
      </trkpt>
      <trkpt lat="45.83831" lon="2.97119">
        <ele>911</ele>
        <time>2025-08-07T15:39:58Z</time>
      </trkpt>
      <trkpt lat="45.83835" lon="2.97127">
        <ele>910.8</ele>
        <time>2025-08-07T15:39:59Z</time>
      </trkpt>
      <trkpt lat="45.8384" lon="2.97131">
        <ele>910.8</ele>
        <time>2025-08-07T15:40:00Z</time>
      </trkpt>
      <trkpt lat="45.83843" lon="2.97135">
        <ele>910.4</ele>
        <time>2025-08-07T15:40:01Z</time>
      </trkpt>
      <trkpt lat="45.83848" lon="2.9714">
        <ele>910.2</ele>
        <time>2025-08-07T15:40:02Z</time>
      </trkpt>
      <trkpt lat="45.83852" lon="2.97148">
        <ele>910</ele>
        <time>2025-08-07T15:40:03Z</time>
      </trkpt>
      <trkpt lat="45.83858" lon="2.97158">
        <ele>909.8</ele>
        <time>2025-08-07T15:40:04Z</time>
      </trkpt>
      <trkpt lat="45.83863" lon="2.97172">
        <ele>909.4</ele>
        <time>2025-08-07T15:40:05Z</time>
      </trkpt>
      <trkpt lat="45.83868" lon="2.97184">
        <ele>909.2</ele>
        <time>2025-08-07T15:40:06Z</time>
      </trkpt>
      <trkpt lat="45.83872" lon="2.97193">
        <ele>909</ele>
        <time>2025-08-07T15:40:07Z</time>
      </trkpt>
      <trkpt lat="45.83873" lon="2.97202">
        <ele>908.8</ele>
        <time>2025-08-07T15:40:08Z</time>
      </trkpt>
      <trkpt lat="45.83876" lon="2.9721">
        <ele>908.6</ele>
        <time>2025-08-07T15:40:09Z</time>
      </trkpt>
      <trkpt lat="45.83879" lon="2.97215">
        <ele>908.6</ele>
        <time>2025-08-07T15:40:10Z</time>
      </trkpt>
      <trkpt lat="45.83882" lon="2.97219">
        <ele>908.2</ele>
        <time>2025-08-07T15:40:11Z</time>
      </trkpt>
      <trkpt lat="45.83886" lon="2.97222">
        <ele>908</ele>
        <time>2025-08-07T15:40:12Z</time>
      </trkpt>
      <trkpt lat="45.8389" lon="2.97225">
        <ele>907.8</ele>
        <time>2025-08-07T15:40:13Z</time>
      </trkpt>
      <trkpt lat="45.83893" lon="2.97233">
        <ele>907.6</ele>
        <time>2025-08-07T15:40:14Z</time>
      </trkpt>
      <trkpt lat="45.83895" lon="2.97243">
        <ele>907.6</ele>
        <time>2025-08-07T15:40:15Z</time>
      </trkpt>
      <trkpt lat="45.83897" lon="2.97252">
        <ele>907.4</ele>
        <time>2025-08-07T15:40:16Z</time>
      </trkpt>
      <trkpt lat="45.83897" lon="2.97258">
        <ele>907.2</ele>
        <time>2025-08-07T15:40:17Z</time>
      </trkpt>
      <trkpt lat="45.83899" lon="2.97264">
        <ele>907</ele>
        <time>2025-08-07T15:40:18Z</time>
      </trkpt>
      <trkpt lat="45.83901" lon="2.97268">
        <ele>906.8</ele>
        <time>2025-08-07T15:40:19Z</time>
      </trkpt>
      <trkpt lat="45.83904" lon="2.97272">
        <ele>906.6</ele>
        <time>2025-08-07T15:40:20Z</time>
      </trkpt>
      <trkpt lat="45.83906" lon="2.97276">
        <ele>906.4</ele>
        <time>2025-08-07T15:40:21Z</time>
      </trkpt>
      <trkpt lat="45.83909" lon="2.97279">
        <ele>906.2</ele>
        <time>2025-08-07T15:40:22Z</time>
      </trkpt>
      <trkpt lat="45.83913" lon="2.97282">
        <ele>905.8</ele>
        <time>2025-08-07T15:40:23Z</time>
      </trkpt>
      <trkpt lat="45.83916" lon="2.97287">
        <ele>905.6</ele>
        <time>2025-08-07T15:40:24Z</time>
      </trkpt>
      <trkpt lat="45.8392" lon="2.97297">
        <ele>905.2</ele>
        <time>2025-08-07T15:40:25Z</time>
      </trkpt>
      <trkpt lat="45.83924" lon="2.97307">
        <ele>905</ele>
        <time>2025-08-07T15:40:26Z</time>
      </trkpt>
      <trkpt lat="45.83929" lon="2.97313">
        <ele>904.8</ele>
        <time>2025-08-07T15:40:27Z</time>
      </trkpt>
      <trkpt lat="45.83932" lon="2.97323">
        <ele>904.6</ele>
        <time>2025-08-07T15:40:28Z</time>
      </trkpt>
      <trkpt lat="45.83934" lon="2.97329">
        <ele>904.4</ele>
        <time>2025-08-07T15:40:29Z</time>
      </trkpt>
      <trkpt lat="45.83939" lon="2.97334">
        <ele>904.2</ele>
        <time>2025-08-07T15:40:30Z</time>
      </trkpt>
      <trkpt lat="45.83943" lon="2.97339">
        <ele>904</ele>
        <time>2025-08-07T15:40:31Z</time>
      </trkpt>
      <trkpt lat="45.83948" lon="2.97345">
        <ele>903.8</ele>
        <time>2025-08-07T15:40:32Z</time>
      </trkpt>
      <trkpt lat="45.83951" lon="2.97352">
        <ele>903.6</ele>
        <time>2025-08-07T15:40:33Z</time>
      </trkpt>
      <trkpt lat="45.83952" lon="2.97359">
        <ele>903.4</ele>
        <time>2025-08-07T15:40:34Z</time>
      </trkpt>
      <trkpt lat="45.83953" lon="2.97365">
        <ele>903.2</ele>
        <time>2025-08-07T15:40:35Z</time>
      </trkpt>
      <trkpt lat="45.83953" lon="2.97371">
        <ele>903.2</ele>
        <time>2025-08-07T15:40:36Z</time>
      </trkpt>
      <trkpt lat="45.83953" lon="2.97376">
        <ele>903</ele>
        <time>2025-08-07T15:40:37Z</time>
      </trkpt>
      <trkpt lat="45.83955" lon="2.97382">
        <ele>902.8</ele>
        <time>2025-08-07T15:40:38Z</time>
      </trkpt>
      <trkpt lat="45.83956" lon="2.97391">
        <ele>902.6</ele>
        <time>2025-08-07T15:40:39Z</time>
      </trkpt>
      <trkpt lat="45.83958" lon="2.974">
        <ele>902.4</ele>
        <time>2025-08-07T15:40:40Z</time>
      </trkpt>
      <trkpt lat="45.8396" lon="2.97407">
        <ele>902.2</ele>
        <time>2025-08-07T15:40:41Z</time>
      </trkpt>
      <trkpt lat="45.8396" lon="2.97414">
        <ele>902</ele>
        <time>2025-08-07T15:40:42Z</time>
      </trkpt>
      <trkpt lat="45.83962" lon="2.97419">
        <ele>901.8</ele>
        <time>2025-08-07T15:40:43Z</time>
      </trkpt>
      <trkpt lat="45.83964" lon="2.97425">
        <ele>901.6</ele>
        <time>2025-08-07T15:40:44Z</time>
      </trkpt>
      <trkpt lat="45.83965" lon="2.97433">
        <ele>901.4</ele>
        <time>2025-08-07T15:40:45Z</time>
      </trkpt>
      <trkpt lat="45.83966" lon="2.97442">
        <ele>901.2</ele>
        <time>2025-08-07T15:40:46Z</time>
      </trkpt>
      <trkpt lat="45.83969" lon="2.97452">
        <ele>901</ele>
        <time>2025-08-07T15:40:47Z</time>
      </trkpt>
      <trkpt lat="45.83973" lon="2.97463">
        <ele>900.8</ele>
        <time>2025-08-07T15:40:48Z</time>
      </trkpt>
      <trkpt lat="45.83978" lon="2.97477">
        <ele>900.6</ele>
        <time>2025-08-07T15:40:49Z</time>
      </trkpt>
      <trkpt lat="45.83983" lon="2.97486">
        <ele>900.4</ele>
        <time>2025-08-07T15:40:50Z</time>
      </trkpt>
      <trkpt lat="45.83987" lon="2.97496">
        <ele>900.2</ele>
        <time>2025-08-07T15:40:51Z</time>
      </trkpt>
      <trkpt lat="45.8399" lon="2.97503">
        <ele>900</ele>
        <time>2025-08-07T15:40:52Z</time>
      </trkpt>
      <trkpt lat="45.83993" lon="2.97507">
        <ele>899.8</ele>
        <time>2025-08-07T15:40:53Z</time>
      </trkpt>
      <trkpt lat="45.83996" lon="2.9751">
        <ele>899.6</ele>
        <time>2025-08-07T15:40:54Z</time>
      </trkpt>
      <trkpt lat="45.83998" lon="2.97513">
        <ele>899.4</ele>
        <time>2025-08-07T15:40:55Z</time>
      </trkpt>
      <trkpt lat="45.84001" lon="2.97517">
        <ele>899</ele>
        <time>2025-08-07T15:40:56Z</time>
      </trkpt>
      <trkpt lat="45.84002" lon="2.97522">
        <ele>898.8</ele>
        <time>2025-08-07T15:40:57Z</time>
      </trkpt>
      <trkpt lat="45.84002" lon="2.9753">
        <ele>898.4</ele>
        <time>2025-08-07T15:40:58Z</time>
      </trkpt>
      <trkpt lat="45.83998" lon="2.9754">
        <ele>898.2</ele>
        <time>2025-08-07T15:40:59Z</time>
      </trkpt>
      <trkpt lat="45.83993" lon="2.97552">
        <ele>898</ele>
        <time>2025-08-07T15:41:00Z</time>
      </trkpt>
      <trkpt lat="45.83991" lon="2.97565">
        <ele>897.6</ele>
        <time>2025-08-07T15:41:01Z</time>
      </trkpt>
      <trkpt lat="45.83988" lon="2.97576">
        <ele>897.2</ele>
        <time>2025-08-07T15:41:02Z</time>
      </trkpt>
      <trkpt lat="45.83989" lon="2.97586">
        <ele>897</ele>
        <time>2025-08-07T15:41:03Z</time>
      </trkpt>
      <trkpt lat="45.83992" lon="2.97595">
        <ele>896.6</ele>
        <time>2025-08-07T15:41:04Z</time>
      </trkpt>
      <trkpt lat="45.83994" lon="2.97603">
        <ele>896.2</ele>
        <time>2025-08-07T15:41:05Z</time>
      </trkpt>
      <trkpt lat="45.83997" lon="2.97608">
        <ele>895.8</ele>
        <time>2025-08-07T15:41:06Z</time>
      </trkpt>
      <trkpt lat="45.83998" lon="2.97612">
        <ele>895.6</ele>
        <time>2025-08-07T15:41:07Z</time>
      </trkpt>
      <trkpt lat="45.83998" lon="2.97613">
        <ele>895.2</ele>
        <time>2025-08-07T15:41:08Z</time>
      </trkpt>
      <trkpt lat="45.83999" lon="2.97613">
        <ele>895.2</ele>
        <time>2025-08-07T15:41:09Z</time>
      </trkpt>
      <trkpt lat="45.84" lon="2.97613">
        <ele>895</ele>
        <time>2025-08-07T15:41:10Z</time>
      </trkpt>
      <trkpt lat="45.84001" lon="2.97614">
        <ele>894.8</ele>
        <time>2025-08-07T15:41:11Z</time>
      </trkpt>
      <trkpt lat="45.84003" lon="2.97615">
        <ele>894.6</ele>
        <time>2025-08-07T15:41:12Z</time>
      </trkpt>
      <trkpt lat="45.84005" lon="2.97617">
        <ele>894.4</ele>
        <time>2025-08-07T15:41:13Z</time>
      </trkpt>
      <trkpt lat="45.84006" lon="2.9762">
        <ele>894.4</ele>
        <time>2025-08-07T15:41:14Z</time>
      </trkpt>
      <trkpt lat="45.84009" lon="2.97623">
        <ele>894.2</ele>
        <time>2025-08-07T15:41:15Z</time>
      </trkpt>
      <trkpt lat="45.84012" lon="2.97626">
        <ele>894</ele>
        <time>2025-08-07T15:41:16Z</time>
      </trkpt>
      <trkpt lat="45.84013" lon="2.97629">
        <ele>893.8</ele>
        <time>2025-08-07T15:41:17Z</time>
      </trkpt>
      <trkpt lat="45.84015" lon="2.97632">
        <ele>893.6</ele>
        <time>2025-08-07T15:41:18Z</time>
      </trkpt>
      <trkpt lat="45.84018" lon="2.97636">
        <ele>893.4</ele>
        <time>2025-08-07T15:41:19Z</time>
      </trkpt>
      <trkpt lat="45.8402" lon="2.97641">
        <ele>893.4</ele>
        <time>2025-08-07T15:41:20Z</time>
      </trkpt>
      <trkpt lat="45.84022" lon="2.97644">
        <ele>893.2</ele>
        <time>2025-08-07T15:41:21Z</time>
      </trkpt>
      <trkpt lat="45.84025" lon="2.9765">
        <ele>893</ele>
        <time>2025-08-07T15:41:22Z</time>
      </trkpt>
      <trkpt lat="45.84028" lon="2.97656">
        <ele>892.8</ele>
        <time>2025-08-07T15:41:23Z</time>
      </trkpt>
      <trkpt lat="45.84032" lon="2.97662">
        <ele>892.6</ele>
        <time>2025-08-07T15:41:24Z</time>
      </trkpt>
      <trkpt lat="45.84035" lon="2.97671">
        <ele>892.4</ele>
        <time>2025-08-07T15:41:25Z</time>
      </trkpt>
      <trkpt lat="45.84038" lon="2.97676">
        <ele>892</ele>
        <time>2025-08-07T15:41:26Z</time>
      </trkpt>
      <trkpt lat="45.84042" lon="2.9768">
        <ele>891.8</ele>
        <time>2025-08-07T15:41:27Z</time>
      </trkpt>
      <trkpt lat="45.84044" lon="2.97685">
        <ele>891.4</ele>
        <time>2025-08-07T15:41:28Z</time>
      </trkpt>
      <trkpt lat="45.84046" lon="2.97693">
        <ele>891</ele>
        <time>2025-08-07T15:41:29Z</time>
      </trkpt>
      <trkpt lat="45.84048" lon="2.97698">
        <ele>890.8</ele>
        <time>2025-08-07T15:41:30Z</time>
      </trkpt>
      <trkpt lat="45.8405" lon="2.97702">
        <ele>890.6</ele>
        <time>2025-08-07T15:41:31Z</time>
      </trkpt>
      <trkpt lat="45.84052" lon="2.97706">
        <ele>890.2</ele>
        <time>2025-08-07T15:41:32Z</time>
      </trkpt>
      <trkpt lat="45.84056" lon="2.97713">
        <ele>890</ele>
        <time>2025-08-07T15:41:33Z</time>
      </trkpt>
      <trkpt lat="45.8406" lon="2.97717">
        <ele>889.8</ele>
        <time>2025-08-07T15:41:34Z</time>
      </trkpt>
      <trkpt lat="45.84061" lon="2.97718">
        <ele>889.4</ele>
        <time>2025-08-07T15:41:35Z</time>
      </trkpt>
      <trkpt lat="45.84061" lon="2.97718">
        <ele>889.2</ele>
        <time>2025-08-07T15:41:36Z</time>
      </trkpt>
      <trkpt lat="45.84063" lon="2.97721">
        <ele>889</ele>
        <time>2025-08-07T15:41:37Z</time>
      </trkpt>
      <trkpt lat="45.84064" lon="2.97725">
        <ele>888.6</ele>
        <time>2025-08-07T15:41:38Z</time>
      </trkpt>
      <trkpt lat="45.84067" lon="2.97729">
        <ele>888.2</ele>
        <time>2025-08-07T15:41:39Z</time>
      </trkpt>
      <trkpt lat="45.8407" lon="2.97732">
        <ele>888</ele>
        <time>2025-08-07T15:41:40Z</time>
      </trkpt>
      <trkpt lat="45.84074" lon="2.97737">
        <ele>887.6</ele>
        <time>2025-08-07T15:41:41Z</time>
      </trkpt>
      <trkpt lat="45.84078" lon="2.97743">
        <ele>887.4</ele>
        <time>2025-08-07T15:41:42Z</time>
      </trkpt>
      <trkpt lat="45.84082" lon="2.9775">
        <ele>887</ele>
        <time>2025-08-07T15:41:43Z</time>
      </trkpt>
      <trkpt lat="45.84086" lon="2.97754">
        <ele>886.8</ele>
        <time>2025-08-07T15:41:44Z</time>
      </trkpt>
      <trkpt lat="45.8409" lon="2.97761">
        <ele>886.6</ele>
        <time>2025-08-07T15:41:45Z</time>
      </trkpt>
      <trkpt lat="45.84094" lon="2.97768">
        <ele>886.4</ele>
        <time>2025-08-07T15:41:46Z</time>
      </trkpt>
      <trkpt lat="45.84096" lon="2.97774">
        <ele>886.2</ele>
        <time>2025-08-07T15:41:47Z</time>
      </trkpt>
      <trkpt lat="45.84101" lon="2.9778">
        <ele>886</ele>
        <time>2025-08-07T15:41:48Z</time>
      </trkpt>
      <trkpt lat="45.84105" lon="2.97786">
        <ele>885.8</ele>
        <time>2025-08-07T15:41:49Z</time>
      </trkpt>
      <trkpt lat="45.84108" lon="2.97792">
        <ele>885.6</ele>
        <time>2025-08-07T15:41:50Z</time>
      </trkpt>
      <trkpt lat="45.84113" lon="2.97798">
        <ele>885.6</ele>
        <time>2025-08-07T15:41:51Z</time>
      </trkpt>
      <trkpt lat="45.84118" lon="2.97803">
        <ele>885.4</ele>
        <time>2025-08-07T15:41:52Z</time>
      </trkpt>
      <trkpt lat="45.84125" lon="2.97809">
        <ele>885.2</ele>
        <time>2025-08-07T15:41:53Z</time>
      </trkpt>
      <trkpt lat="45.8413" lon="2.97814">
        <ele>885</ele>
        <time>2025-08-07T15:41:54Z</time>
      </trkpt>
      <trkpt lat="45.84133" lon="2.97818">
        <ele>884.8</ele>
        <time>2025-08-07T15:41:55Z</time>
      </trkpt>
      <trkpt lat="45.84136" lon="2.97821">
        <ele>884.6</ele>
        <time>2025-08-07T15:41:56Z</time>
      </trkpt>
      <trkpt lat="45.8414" lon="2.97826">
        <ele>884.4</ele>
        <time>2025-08-07T15:41:57Z</time>
      </trkpt>
      <trkpt lat="45.84144" lon="2.97832">
        <ele>884.2</ele>
        <time>2025-08-07T15:41:58Z</time>
      </trkpt>
      <trkpt lat="45.8415" lon="2.97838">
        <ele>883.8</ele>
        <time>2025-08-07T15:41:59Z</time>
      </trkpt>
      <trkpt lat="45.84157" lon="2.97843">
        <ele>883.6</ele>
        <time>2025-08-07T15:42:00Z</time>
      </trkpt>
      <trkpt lat="45.84163" lon="2.97847">
        <ele>883.4</ele>
        <time>2025-08-07T15:42:01Z</time>
      </trkpt>
      <trkpt lat="45.8417" lon="2.97851">
        <ele>883.2</ele>
        <time>2025-08-07T15:42:02Z</time>
      </trkpt>
      <trkpt lat="45.84178" lon="2.97856">
        <ele>883</ele>
        <time>2025-08-07T15:42:03Z</time>
      </trkpt>
      <trkpt lat="45.84184" lon="2.97858">
        <ele>882.8</ele>
        <time>2025-08-07T15:42:04Z</time>
      </trkpt>
      <trkpt lat="45.8419" lon="2.97858">
        <ele>882.6</ele>
        <time>2025-08-07T15:42:05Z</time>
      </trkpt>
      <trkpt lat="45.84196" lon="2.97857">
        <ele>882.4</ele>
        <time>2025-08-07T15:42:06Z</time>
      </trkpt>
      <trkpt lat="45.84202" lon="2.97852">
        <ele>882.4</ele>
        <time>2025-08-07T15:42:07Z</time>
      </trkpt>
      <trkpt lat="45.84208" lon="2.97847">
        <ele>882.4</ele>
        <time>2025-08-07T15:42:08Z</time>
      </trkpt>
      <trkpt lat="45.84213" lon="2.97842">
        <ele>882.4</ele>
        <time>2025-08-07T15:42:09Z</time>
      </trkpt>
      <trkpt lat="45.84218" lon="2.97837">
        <ele>882.4</ele>
        <time>2025-08-07T15:42:10Z</time>
      </trkpt>
      <trkpt lat="45.84221" lon="2.97833">
        <ele>882.4</ele>
        <time>2025-08-07T15:42:11Z</time>
      </trkpt>
      <trkpt lat="45.84226" lon="2.97828">
        <ele>882.4</ele>
        <time>2025-08-07T15:42:12Z</time>
      </trkpt>
      <trkpt lat="45.84232" lon="2.97825">
        <ele>882.4</ele>
        <time>2025-08-07T15:42:13Z</time>
      </trkpt>
      <trkpt lat="45.84238" lon="2.97821">
        <ele>882.2</ele>
        <time>2025-08-07T15:42:14Z</time>
      </trkpt>
      <trkpt lat="45.84242" lon="2.97816">
        <ele>882.2</ele>
        <time>2025-08-07T15:42:15Z</time>
      </trkpt>
      <trkpt lat="45.84246" lon="2.97813">
        <ele>882.2</ele>
        <time>2025-08-07T15:42:16Z</time>
      </trkpt>
      <trkpt lat="45.84249" lon="2.97811">
        <ele>882.2</ele>
        <time>2025-08-07T15:42:17Z</time>
      </trkpt>
      <trkpt lat="45.84252" lon="2.97809">
        <ele>882.2</ele>
        <time>2025-08-07T15:42:18Z</time>
      </trkpt>
      <trkpt lat="45.84257" lon="2.97809">
        <ele>882.2</ele>
        <time>2025-08-07T15:42:19Z</time>
      </trkpt>
      <trkpt lat="45.84263" lon="2.97811">
        <ele>882.2</ele>
        <time>2025-08-07T15:42:20Z</time>
      </trkpt>
      <trkpt lat="45.84269" lon="2.97811">
        <ele>882.4</ele>
        <time>2025-08-07T15:42:21Z</time>
      </trkpt>
      <trkpt lat="45.84274" lon="2.97808">
        <ele>882.4</ele>
        <time>2025-08-07T15:42:22Z</time>
      </trkpt>
      <trkpt lat="45.84279" lon="2.97803">
        <ele>882.6</ele>
        <time>2025-08-07T15:42:23Z</time>
      </trkpt>
      <trkpt lat="45.84279" lon="2.97802">
        <ele>882.6</ele>
        <time>2025-08-07T15:42:24Z</time>
      </trkpt>
      <trkpt lat="45.8428" lon="2.97802">
        <ele>882.8</ele>
        <time>2025-08-07T15:42:25Z</time>
      </trkpt>
      <trkpt lat="45.8428" lon="2.97801">
        <ele>883</ele>
        <time>2025-08-07T15:42:26Z</time>
      </trkpt>
      <trkpt lat="45.8428" lon="2.97799">
        <ele>883.2</ele>
        <time>2025-08-07T15:42:27Z</time>
      </trkpt>
      <trkpt lat="45.84282" lon="2.97797">
        <ele>883.4</ele>
        <time>2025-08-07T15:42:28Z</time>
      </trkpt>
      <trkpt lat="45.84283" lon="2.97794">
        <ele>883.6</ele>
        <time>2025-08-07T15:42:29Z</time>
      </trkpt>
      <trkpt lat="45.84285" lon="2.9779">
        <ele>883.8</ele>
        <time>2025-08-07T15:42:30Z</time>
      </trkpt>
      <trkpt lat="45.84286" lon="2.97786">
        <ele>884</ele>
        <time>2025-08-07T15:42:31Z</time>
      </trkpt>
      <trkpt lat="45.84287" lon="2.97782">
        <ele>884.2</ele>
        <time>2025-08-07T15:42:32Z</time>
      </trkpt>
      <trkpt lat="45.84288" lon="2.97778">
        <ele>884.6</ele>
        <time>2025-08-07T15:42:33Z</time>
      </trkpt>
      <trkpt lat="45.8429" lon="2.97774">
        <ele>884.8</ele>
        <time>2025-08-07T15:42:34Z</time>
      </trkpt>
      <trkpt lat="45.84291" lon="2.9777">
        <ele>885.2</ele>
        <time>2025-08-07T15:42:35Z</time>
      </trkpt>
      <trkpt lat="45.84293" lon="2.97766">
        <ele>885.4</ele>
        <time>2025-08-07T15:42:36Z</time>
      </trkpt>
      <trkpt lat="45.84297" lon="2.9776">
        <ele>885.8</ele>
        <time>2025-08-07T15:42:37Z</time>
      </trkpt>
      <trkpt lat="45.843" lon="2.97755">
        <ele>886</ele>
        <time>2025-08-07T15:42:38Z</time>
      </trkpt>
      <trkpt lat="45.84305" lon="2.97748">
        <ele>886.2</ele>
        <time>2025-08-07T15:42:39Z</time>
      </trkpt>
      <trkpt lat="45.84307" lon="2.97742">
        <ele>886.4</ele>
        <time>2025-08-07T15:42:40Z</time>
      </trkpt>
      <trkpt lat="45.8431" lon="2.97734">
        <ele>886.6</ele>
        <time>2025-08-07T15:42:41Z</time>
      </trkpt>
      <trkpt lat="45.84312" lon="2.97729">
        <ele>886.8</ele>
        <time>2025-08-07T15:42:42Z</time>
      </trkpt>
      <trkpt lat="45.84312" lon="2.97728">
        <ele>887</ele>
        <time>2025-08-07T15:42:43Z</time>
      </trkpt>
      <trkpt lat="45.84312" lon="2.97728">
        <ele>887.2</ele>
        <time>2025-08-07T15:42:44Z</time>
      </trkpt>
      <trkpt lat="45.84311" lon="2.97728">
        <ele>887.2</ele>
        <time>2025-08-07T15:42:45Z</time>
      </trkpt>
      <trkpt lat="45.84311" lon="2.97728">
        <ele>887.4</ele>
        <time>2025-08-07T15:42:46Z</time>
      </trkpt>
      <trkpt lat="45.84311" lon="2.97728">
        <ele>887.4</ele>
        <time>2025-08-07T15:42:47Z</time>
      </trkpt>
      <trkpt lat="45.84311" lon="2.97727">
        <ele>887.4</ele>
        <time>2025-08-07T15:42:48Z</time>
      </trkpt>
      <trkpt lat="45.84311" lon="2.97727">
        <ele>887.4</ele>
        <time>2025-08-07T15:42:49Z</time>
      </trkpt>
      <trkpt lat="45.84311" lon="2.97727">
        <ele>887.4</ele>
        <time>2025-08-07T15:42:50Z</time>
      </trkpt>
      <trkpt lat="45.8431" lon="2.97726">
        <ele>887.4</ele>
        <time>2025-08-07T15:43:03Z</time>
      </trkpt>
      <trkpt lat="45.8431" lon="2.97727">
        <ele>887.2</ele>
        <time>2025-08-07T15:43:04Z</time>
      </trkpt>
      <trkpt lat="45.8431" lon="2.97728">
        <ele>887.2</ele>
        <time>2025-08-07T15:43:05Z</time>
      </trkpt>
      <trkpt lat="45.84309" lon="2.97728">
        <ele>887.2</ele>
        <time>2025-08-07T15:43:06Z</time>
      </trkpt>
      <trkpt lat="45.84309" lon="2.9773">
        <ele>887</ele>
        <time>2025-08-07T15:43:07Z</time>
      </trkpt>
      <trkpt lat="45.8431" lon="2.97732">
        <ele>886.8</ele>
        <time>2025-08-07T15:43:08Z</time>
      </trkpt>
      <trkpt lat="45.84312" lon="2.97734">
        <ele>886.6</ele>
        <time>2025-08-07T15:43:09Z</time>
      </trkpt>
      <trkpt lat="45.84314" lon="2.97736">
        <ele>886.4</ele>
        <time>2025-08-07T15:43:10Z</time>
      </trkpt>
      <trkpt lat="45.84316" lon="2.97738">
        <ele>886.2</ele>
        <time>2025-08-07T15:43:11Z</time>
      </trkpt>
      <trkpt lat="45.84318" lon="2.97741">
        <ele>886</ele>
        <time>2025-08-07T15:43:12Z</time>
      </trkpt>
      <trkpt lat="45.84321" lon="2.97745">
        <ele>885.8</ele>
        <time>2025-08-07T15:43:13Z</time>
      </trkpt>
      <trkpt lat="45.84325" lon="2.9775">
        <ele>885.6</ele>
        <time>2025-08-07T15:43:14Z</time>
      </trkpt>
      <trkpt lat="45.84329" lon="2.97754">
        <ele>885.4</ele>
        <time>2025-08-07T15:43:15Z</time>
      </trkpt>
      <trkpt lat="45.84333" lon="2.97759">
        <ele>885.2</ele>
        <time>2025-08-07T15:43:16Z</time>
      </trkpt>
      <trkpt lat="45.84336" lon="2.97763">
        <ele>885</ele>
        <time>2025-08-07T15:43:17Z</time>
      </trkpt>
      <trkpt lat="45.84339" lon="2.97765">
        <ele>884.8</ele>
        <time>2025-08-07T15:43:18Z</time>
      </trkpt>
      <trkpt lat="45.84343" lon="2.97768">
        <ele>884.6</ele>
        <time>2025-08-07T15:43:19Z</time>
      </trkpt>
      <trkpt lat="45.84347" lon="2.97772">
        <ele>884.4</ele>
        <time>2025-08-07T15:43:20Z</time>
      </trkpt>
      <trkpt lat="45.8435" lon="2.97776">
        <ele>884.2</ele>
        <time>2025-08-07T15:43:21Z</time>
      </trkpt>
      <trkpt lat="45.84355" lon="2.97783">
        <ele>884</ele>
        <time>2025-08-07T15:43:22Z</time>
      </trkpt>
      <trkpt lat="45.84359" lon="2.9779">
        <ele>883.8</ele>
        <time>2025-08-07T15:43:23Z</time>
      </trkpt>
      <trkpt lat="45.84363" lon="2.97799">
        <ele>883.6</ele>
        <time>2025-08-07T15:43:24Z</time>
      </trkpt>
      <trkpt lat="45.84366" lon="2.97807">
        <ele>883.4</ele>
        <time>2025-08-07T15:43:25Z</time>
      </trkpt>
      <trkpt lat="45.8437" lon="2.97812">
        <ele>883.2</ele>
        <time>2025-08-07T15:43:26Z</time>
      </trkpt>
      <trkpt lat="45.84374" lon="2.97818">
        <ele>883</ele>
        <time>2025-08-07T15:43:27Z</time>
      </trkpt>
      <trkpt lat="45.84378" lon="2.97823">
        <ele>882.8</ele>
        <time>2025-08-07T15:43:28Z</time>
      </trkpt>
      <trkpt lat="45.8438" lon="2.97828">
        <ele>882.4</ele>
        <time>2025-08-07T15:43:29Z</time>
      </trkpt>
      <trkpt lat="45.84386" lon="2.97834">
        <ele>882.2</ele>
        <time>2025-08-07T15:43:30Z</time>
      </trkpt>
      <trkpt lat="45.8439" lon="2.97841">
        <ele>882</ele>
        <time>2025-08-07T15:43:31Z</time>
      </trkpt>
      <trkpt lat="45.84397" lon="2.9785">
        <ele>881.6</ele>
        <time>2025-08-07T15:43:32Z</time>
      </trkpt>
      <trkpt lat="45.84403" lon="2.97856">
        <ele>881.6</ele>
        <time>2025-08-07T15:43:33Z</time>
      </trkpt>
      <trkpt lat="45.84408" lon="2.97862">
        <ele>881.4</ele>
        <time>2025-08-07T15:43:34Z</time>
      </trkpt>
      <trkpt lat="45.84412" lon="2.97868">
        <ele>881.2</ele>
        <time>2025-08-07T15:43:35Z</time>
      </trkpt>
      <trkpt lat="45.84418" lon="2.97874">
        <ele>881</ele>
        <time>2025-08-07T15:43:36Z</time>
      </trkpt>
      <trkpt lat="45.84423" lon="2.9788">
        <ele>881</ele>
        <time>2025-08-07T15:43:37Z</time>
      </trkpt>
      <trkpt lat="45.84427" lon="2.97884">
        <ele>880.8</ele>
        <time>2025-08-07T15:43:38Z</time>
      </trkpt>
      <trkpt lat="45.84432" lon="2.97887">
        <ele>880.6</ele>
        <time>2025-08-07T15:43:39Z</time>
      </trkpt>
      <trkpt lat="45.84436" lon="2.97889">
        <ele>880.4</ele>
        <time>2025-08-07T15:43:40Z</time>
      </trkpt>
      <trkpt lat="45.84443" lon="2.97893">
        <ele>880.4</ele>
        <time>2025-08-07T15:43:41Z</time>
      </trkpt>
      <trkpt lat="45.84447" lon="2.97897">
        <ele>880</ele>
        <time>2025-08-07T15:43:42Z</time>
      </trkpt>
      <trkpt lat="45.84452" lon="2.97901">
        <ele>879.8</ele>
        <time>2025-08-07T15:43:43Z</time>
      </trkpt>
      <trkpt lat="45.84457" lon="2.97906">
        <ele>879.4</ele>
        <time>2025-08-07T15:43:44Z</time>
      </trkpt>
      <trkpt lat="45.84461" lon="2.97909">
        <ele>879.2</ele>
        <time>2025-08-07T15:43:45Z</time>
      </trkpt>
      <trkpt lat="45.84465" lon="2.9791">
        <ele>878.8</ele>
        <time>2025-08-07T15:43:46Z</time>
      </trkpt>
      <trkpt lat="45.84466" lon="2.97912">
        <ele>878.6</ele>
        <time>2025-08-07T15:43:47Z</time>
      </trkpt>
      <trkpt lat="45.84467" lon="2.97912">
        <ele>878.4</ele>
        <time>2025-08-07T15:43:48Z</time>
      </trkpt>
      <trkpt lat="45.84467" lon="2.97912">
        <ele>878.4</ele>
        <time>2025-08-07T15:43:49Z</time>
      </trkpt>
      <trkpt lat="45.84467" lon="2.97913">
        <ele>878</ele>
        <time>2025-08-07T15:44:01Z</time>
      </trkpt>
      <trkpt lat="45.84467" lon="2.97913">
        <ele>878</ele>
        <time>2025-08-07T15:44:02Z</time>
      </trkpt>
      <trkpt lat="45.84467" lon="2.97911">
        <ele>878</ele>
        <time>2025-08-07T15:44:03Z</time>
      </trkpt>
      <trkpt lat="45.84467" lon="2.97912">
        <ele>878</ele>
        <time>2025-08-07T15:44:04Z</time>
      </trkpt>
      <trkpt lat="45.84467" lon="2.97912">
        <ele>878</ele>
        <time>2025-08-07T15:44:05Z</time>
      </trkpt>
      <trkpt lat="45.84467" lon="2.97912">
        <ele>878</ele>
        <time>2025-08-07T15:44:06Z</time>
      </trkpt>
      <trkpt lat="45.84467" lon="2.97912">
        <ele>878</ele>
        <time>2025-08-07T15:44:07Z</time>
      </trkpt>
      <trkpt lat="45.84467" lon="2.97911">
        <ele>878</ele>
        <time>2025-08-07T15:44:08Z</time>
      </trkpt>
      <trkpt lat="45.84466" lon="2.97911">
        <ele>878</ele>
        <time>2025-08-07T15:44:09Z</time>
      </trkpt>
      <trkpt lat="45.84465" lon="2.9791">
        <ele>878.2</ele>
        <time>2025-08-07T15:44:10Z</time>
      </trkpt>
      <trkpt lat="45.84464" lon="2.9791">
        <ele>878.2</ele>
        <time>2025-08-07T15:44:11Z</time>
      </trkpt>
      <trkpt lat="45.84463" lon="2.97909">
        <ele>878.2</ele>
        <time>2025-08-07T15:44:12Z</time>
      </trkpt>
      <trkpt lat="45.84462" lon="2.97908">
        <ele>878.4</ele>
        <time>2025-08-07T15:44:13Z</time>
      </trkpt>
      <trkpt lat="45.8446" lon="2.97906">
        <ele>878.6</ele>
        <time>2025-08-07T15:44:14Z</time>
      </trkpt>
      <trkpt lat="45.84459" lon="2.97904">
        <ele>878.6</ele>
        <time>2025-08-07T15:44:15Z</time>
      </trkpt>
      <trkpt lat="45.84458" lon="2.97902">
        <ele>878.8</ele>
        <time>2025-08-07T15:44:16Z</time>
      </trkpt>
      <trkpt lat="45.84456" lon="2.979">
        <ele>879</ele>
        <time>2025-08-07T15:44:17Z</time>
      </trkpt>
      <trkpt lat="45.84456" lon="2.979">
        <ele>879.2</ele>
        <time>2025-08-07T15:44:18Z</time>
      </trkpt>
      <trkpt lat="45.84455" lon="2.979">
        <ele>879.4</ele>
        <time>2025-08-07T15:44:19Z</time>
      </trkpt>
      <trkpt lat="45.84455" lon="2.97899">
        <ele>879.4</ele>
        <time>2025-08-07T15:44:20Z</time>
      </trkpt>
      <trkpt lat="45.84455" lon="2.97899">
        <ele>879.6</ele>
        <time>2025-08-07T15:44:21Z</time>
      </trkpt>
      <trkpt lat="45.84454" lon="2.97898">
        <ele>879.6</ele>
        <time>2025-08-07T15:44:22Z</time>
      </trkpt>
      <trkpt lat="45.84453" lon="2.97897">
        <ele>879.8</ele>
        <time>2025-08-07T15:44:23Z</time>
      </trkpt>
      <trkpt lat="45.84451" lon="2.97896">
        <ele>879.8</ele>
        <time>2025-08-07T15:44:24Z</time>
      </trkpt>
      <trkpt lat="45.84447" lon="2.97895">
        <ele>879.8</ele>
        <time>2025-08-07T15:44:25Z</time>
      </trkpt>
      <trkpt lat="45.84443" lon="2.97895">
        <ele>880</ele>
        <time>2025-08-07T15:44:26Z</time>
      </trkpt>
      <trkpt lat="45.8444" lon="2.97894">
        <ele>880</ele>
        <time>2025-08-07T15:44:27Z</time>
      </trkpt>
      <trkpt lat="45.84436" lon="2.97892">
        <ele>880</ele>
        <time>2025-08-07T15:44:28Z</time>
      </trkpt>
      <trkpt lat="45.84433" lon="2.97889">
        <ele>880.2</ele>
        <time>2025-08-07T15:44:29Z</time>
      </trkpt>
      <trkpt lat="45.8443" lon="2.97887">
        <ele>880.2</ele>
        <time>2025-08-07T15:44:30Z</time>
      </trkpt>
      <trkpt lat="45.84428" lon="2.97884">
        <ele>880.2</ele>
        <time>2025-08-07T15:44:31Z</time>
      </trkpt>
      <trkpt lat="45.84428" lon="2.97881">
        <ele>880.2</ele>
        <time>2025-08-07T15:44:32Z</time>
      </trkpt>
      <trkpt lat="45.84429" lon="2.97878">
        <ele>880.2</ele>
        <time>2025-08-07T15:44:33Z</time>
      </trkpt>
      <trkpt lat="45.84429" lon="2.97877">
        <ele>880.4</ele>
        <time>2025-08-07T15:44:34Z</time>
      </trkpt>
      <trkpt lat="45.84429" lon="2.97877">
        <ele>880.4</ele>
        <time>2025-08-07T15:44:35Z</time>
      </trkpt>
      <trkpt lat="45.84429" lon="2.97877">
        <ele>880.4</ele>
        <time>2025-08-07T15:44:36Z</time>
      </trkpt>
      <trkpt lat="45.84429" lon="2.97877">
        <ele>880.4</ele>
        <time>2025-08-07T15:44:37Z</time>
      </trkpt>
      <trkpt lat="45.8443" lon="2.97878">
        <ele>880.4</ele>
        <time>2025-08-07T15:44:38Z</time>
      </trkpt>
      <trkpt lat="45.8443" lon="2.9788">
        <ele>880.4</ele>
        <time>2025-08-07T15:44:39Z</time>
      </trkpt>
      <trkpt lat="45.8443" lon="2.97882">
        <ele>880.2</ele>
        <time>2025-08-07T15:44:40Z</time>
      </trkpt>
      <trkpt lat="45.8443" lon="2.97885">
        <ele>880.2</ele>
        <time>2025-08-07T15:44:41Z</time>
      </trkpt>
      <trkpt lat="45.8443" lon="2.97888">
        <ele>880.2</ele>
        <time>2025-08-07T15:44:42Z</time>
      </trkpt>
      <trkpt lat="45.84428" lon="2.97891">
        <ele>880</ele>
        <time>2025-08-07T15:44:43Z</time>
      </trkpt>
      <trkpt lat="45.84427" lon="2.97895">
        <ele>879.8</ele>
        <time>2025-08-07T15:44:44Z</time>
      </trkpt>
      <trkpt lat="45.84426" lon="2.97898">
        <ele>879.6</ele>
        <time>2025-08-07T15:44:45Z</time>
      </trkpt>
      <trkpt lat="45.84425" lon="2.97902">
        <ele>879.4</ele>
        <time>2025-08-07T15:44:46Z</time>
      </trkpt>
      <trkpt lat="45.84424" lon="2.97907">
        <ele>879.2</ele>
        <time>2025-08-07T15:44:47Z</time>
      </trkpt>
      <trkpt lat="45.84425" lon="2.97912">
        <ele>878.8</ele>
        <time>2025-08-07T15:44:48Z</time>
      </trkpt>
      <trkpt lat="45.84425" lon="2.97919">
        <ele>878.4</ele>
        <time>2025-08-07T15:44:49Z</time>
      </trkpt>
      <trkpt lat="45.84424" lon="2.97925">
        <ele>878.2</ele>
        <time>2025-08-07T15:44:50Z</time>
      </trkpt>
      <trkpt lat="45.84423" lon="2.97932">
        <ele>878</ele>
        <time>2025-08-07T15:44:51Z</time>
      </trkpt>
      <trkpt lat="45.84424" lon="2.97937">
        <ele>877.6</ele>
        <time>2025-08-07T15:44:52Z</time>
      </trkpt>
      <trkpt lat="45.84424" lon="2.97943">
        <ele>877.4</ele>
        <time>2025-08-07T15:44:53Z</time>
      </trkpt>
      <trkpt lat="45.84424" lon="2.97949">
        <ele>877.2</ele>
        <time>2025-08-07T15:44:54Z</time>
      </trkpt>
      <trkpt lat="45.84423" lon="2.97954">
        <ele>877.2</ele>
        <time>2025-08-07T15:44:55Z</time>
      </trkpt>
      <trkpt lat="45.84423" lon="2.97959">
        <ele>877</ele>
        <time>2025-08-07T15:44:56Z</time>
      </trkpt>
      <trkpt lat="45.84423" lon="2.97964">
        <ele>876.8</ele>
        <time>2025-08-07T15:44:57Z</time>
      </trkpt>
      <trkpt lat="45.84424" lon="2.97968">
        <ele>876.6</ele>
        <time>2025-08-07T15:44:58Z</time>
      </trkpt>
      <trkpt lat="45.84423" lon="2.97969">
        <ele>876.4</ele>
        <time>2025-08-07T15:44:59Z</time>
      </trkpt>
      <trkpt lat="45.84424" lon="2.9797">
        <ele>876.2</ele>
        <time>2025-08-07T15:45:00Z</time>
      </trkpt>
      <trkpt lat="45.84425" lon="2.97971">
        <ele>876.2</ele>
        <time>2025-08-07T15:45:01Z</time>
      </trkpt>
      <trkpt lat="45.84427" lon="2.97973">
        <ele>876</ele>
        <time>2025-08-07T15:45:02Z</time>
      </trkpt>
      <trkpt lat="45.84428" lon="2.97973">
        <ele>876</ele>
        <time>2025-08-07T15:45:03Z</time>
      </trkpt>
      <trkpt lat="45.84429" lon="2.97973">
        <ele>876</ele>
        <time>2025-08-07T15:45:04Z</time>
      </trkpt>
      <trkpt lat="45.84429" lon="2.97972">
        <ele>876</ele>
        <time>2025-08-07T15:45:05Z</time>
      </trkpt>
      <trkpt lat="45.84429" lon="2.97972">
        <ele>876</ele>
        <time>2025-08-07T15:45:06Z</time>
      </trkpt>
      <trkpt lat="45.84429" lon="2.97973">
        <ele>876</ele>
        <time>2025-08-07T15:45:07Z</time>
      </trkpt>
      <trkpt lat="45.84429" lon="2.97973">
        <ele>876</ele>
        <time>2025-08-07T15:45:08Z</time>
      </trkpt>
      <trkpt lat="45.84429" lon="2.97973">
        <ele>876</ele>
        <time>2025-08-07T15:45:09Z</time>
      </trkpt>
      <trkpt lat="45.84429" lon="2.97973">
        <ele>876</ele>
        <time>2025-08-07T15:45:10Z</time>
      </trkpt>
      <trkpt lat="45.84429" lon="2.97973">
        <ele>876</ele>
        <time>2025-08-07T15:45:11Z</time>
      </trkpt>
      <trkpt lat="45.84429" lon="2.97966">
        <ele>876.2</ele>
        <time>2025-08-07T15:45:17Z</time>
      </trkpt>
      <trkpt lat="45.84429" lon="2.97963">
        <ele>876.2</ele>
        <time>2025-08-07T15:45:18Z</time>
      </trkpt>
      <trkpt lat="45.84429" lon="2.9796">
        <ele>876.2</ele>
        <time>2025-08-07T15:45:19Z</time>
      </trkpt>
      <trkpt lat="45.8443" lon="2.97957">
        <ele>876.2</ele>
        <time>2025-08-07T15:45:20Z</time>
      </trkpt>
      <trkpt lat="45.84431" lon="2.97953">
        <ele>876.4</ele>
        <time>2025-08-07T15:45:21Z</time>
      </trkpt>
      <trkpt lat="45.84431" lon="2.97949">
        <ele>876.4</ele>
        <time>2025-08-07T15:45:22Z</time>
      </trkpt>
      <trkpt lat="45.84432" lon="2.97944">
        <ele>876.4</ele>
        <time>2025-08-07T15:45:23Z</time>
      </trkpt>
      <trkpt lat="45.84433" lon="2.97941">
        <ele>876.6</ele>
        <time>2025-08-07T15:45:24Z</time>
      </trkpt>
      <trkpt lat="45.84433" lon="2.97937">
        <ele>876.6</ele>
        <time>2025-08-07T15:45:25Z</time>
      </trkpt>
      <trkpt lat="45.84434" lon="2.97933">
        <ele>876.8</ele>
        <time>2025-08-07T15:45:26Z</time>
      </trkpt>
      <trkpt lat="45.84434" lon="2.97929">
        <ele>876.8</ele>
        <time>2025-08-07T15:45:27Z</time>
      </trkpt>
      <trkpt lat="45.84435" lon="2.97924">
        <ele>877</ele>
        <time>2025-08-07T15:45:28Z</time>
      </trkpt>
      <trkpt lat="45.84436" lon="2.9792">
        <ele>877</ele>
        <time>2025-08-07T15:45:29Z</time>
      </trkpt>
      <trkpt lat="45.84437" lon="2.97917">
        <ele>877.2</ele>
        <time>2025-08-07T15:45:30Z</time>
      </trkpt>
      <trkpt lat="45.84438" lon="2.97915">
        <ele>877.4</ele>
        <time>2025-08-07T15:45:31Z</time>
      </trkpt>
      <trkpt lat="45.84439" lon="2.97911">
        <ele>877.6</ele>
        <time>2025-08-07T15:45:32Z</time>
      </trkpt>
      <trkpt lat="45.84441" lon="2.97908">
        <ele>877.8</ele>
        <time>2025-08-07T15:45:33Z</time>
      </trkpt>
      <trkpt lat="45.84442" lon="2.97905">
        <ele>878</ele>
        <time>2025-08-07T15:45:34Z</time>
      </trkpt>
      <trkpt lat="45.84442" lon="2.97901">
        <ele>878.2</ele>
        <time>2025-08-07T15:45:35Z</time>
      </trkpt>
      <trkpt lat="45.84442" lon="2.97897">
        <ele>878.6</ele>
        <time>2025-08-07T15:45:36Z</time>
      </trkpt>
      <trkpt lat="45.84442" lon="2.97893">
        <ele>878.8</ele>
        <time>2025-08-07T15:45:37Z</time>
      </trkpt>
      <trkpt lat="45.84442" lon="2.9789">
        <ele>878.8</ele>
        <time>2025-08-07T15:45:38Z</time>
      </trkpt>
      <trkpt lat="45.84442" lon="2.97886">
        <ele>879</ele>
        <time>2025-08-07T15:45:39Z</time>
      </trkpt>
      <trkpt lat="45.84441" lon="2.97884">
        <ele>879.2</ele>
        <time>2025-08-07T15:45:40Z</time>
      </trkpt>
      <trkpt lat="45.8444" lon="2.9788">
        <ele>879.4</ele>
        <time>2025-08-07T15:45:41Z</time>
      </trkpt>
      <trkpt lat="45.84437" lon="2.97877">
        <ele>879.6</ele>
        <time>2025-08-07T15:45:42Z</time>
      </trkpt>
      <trkpt lat="45.84435" lon="2.97875">
        <ele>879.6</ele>
        <time>2025-08-07T15:45:43Z</time>
      </trkpt>
      <trkpt lat="45.84433" lon="2.97872">
        <ele>879.8</ele>
        <time>2025-08-07T15:45:44Z</time>
      </trkpt>
      <trkpt lat="45.8443" lon="2.97869">
        <ele>880</ele>
        <time>2025-08-07T15:45:45Z</time>
      </trkpt>
      <trkpt lat="45.84427" lon="2.97864">
        <ele>880</ele>
        <time>2025-08-07T15:45:46Z</time>
      </trkpt>
      <trkpt lat="45.84427" lon="2.9786">
        <ele>880.2</ele>
        <time>2025-08-07T15:45:47Z</time>
      </trkpt>
      <trkpt lat="45.84426" lon="2.97856">
        <ele>880.2</ele>
        <time>2025-08-07T15:45:48Z</time>
      </trkpt>
      <trkpt lat="45.84424" lon="2.97853">
        <ele>880.4</ele>
        <time>2025-08-07T15:45:49Z</time>
      </trkpt>
      <trkpt lat="45.84421" lon="2.9785">
        <ele>880.4</ele>
        <time>2025-08-07T15:45:50Z</time>
      </trkpt>
      <trkpt lat="45.84419" lon="2.97847">
        <ele>880.6</ele>
        <time>2025-08-07T15:45:51Z</time>
      </trkpt>
      <trkpt lat="45.84417" lon="2.97844">
        <ele>880.6</ele>
        <time>2025-08-07T15:45:52Z</time>
      </trkpt>
      <trkpt lat="45.84415" lon="2.97841">
        <ele>880.6</ele>
        <time>2025-08-07T15:45:53Z</time>
      </trkpt>
      <trkpt lat="45.84415" lon="2.97841">
        <ele>880.6</ele>
        <time>2025-08-07T15:45:54Z</time>
      </trkpt>
      <trkpt lat="45.84415" lon="2.97841">
        <ele>880.6</ele>
        <time>2025-08-07T15:45:55Z</time>
      </trkpt>
      <trkpt lat="45.84415" lon="2.97841">
        <ele>880.6</ele>
        <time>2025-08-07T15:45:56Z</time>
      </trkpt>
      <trkpt lat="45.84414" lon="2.97841">
        <ele>880.6</ele>
        <time>2025-08-07T15:45:57Z</time>
      </trkpt>
      <trkpt lat="45.84414" lon="2.97841">
        <ele>880.6</ele>
        <time>2025-08-07T15:45:58Z</time>
      </trkpt>
      <trkpt lat="45.84417" lon="2.97846">
        <ele>880.6</ele>
        <time>2025-08-07T15:46:06Z</time>
      </trkpt>
      <trkpt lat="45.84419" lon="2.97847">
        <ele>880.6</ele>
        <time>2025-08-07T15:46:07Z</time>
      </trkpt>
      <trkpt lat="45.84421" lon="2.97848">
        <ele>880.6</ele>
        <time>2025-08-07T15:46:08Z</time>
      </trkpt>
      <trkpt lat="45.84422" lon="2.9785">
        <ele>880.6</ele>
        <time>2025-08-07T15:46:09Z</time>
      </trkpt>
      <trkpt lat="45.84423" lon="2.97854">
        <ele>880.6</ele>
        <time>2025-08-07T15:46:10Z</time>
      </trkpt>
      <trkpt lat="45.84423" lon="2.97857">
        <ele>880.4</ele>
        <time>2025-08-07T15:46:11Z</time>
      </trkpt>
      <trkpt lat="45.84425" lon="2.97861">
        <ele>880.4</ele>
        <time>2025-08-07T15:46:12Z</time>
      </trkpt>
      <trkpt lat="45.84426" lon="2.97863">
        <ele>880.4</ele>
        <time>2025-08-07T15:46:13Z</time>
      </trkpt>
      <trkpt lat="45.84426" lon="2.97865">
        <ele>880.4</ele>
        <time>2025-08-07T15:46:14Z</time>
      </trkpt>
      <trkpt lat="45.84425" lon="2.97867">
        <ele>880.2</ele>
        <time>2025-08-07T15:46:15Z</time>
      </trkpt>
      <trkpt lat="45.84426" lon="2.97869">
        <ele>880.2</ele>
        <time>2025-08-07T15:46:16Z</time>
      </trkpt>
      <trkpt lat="45.84426" lon="2.97869">
        <ele>880.2</ele>
        <time>2025-08-07T15:46:17Z</time>
      </trkpt>
      <trkpt lat="45.84426" lon="2.97869">
        <ele>880.2</ele>
        <time>2025-08-07T15:46:18Z</time>
      </trkpt>
      <trkpt lat="45.84426" lon="2.97869">
        <ele>880.2</ele>
        <time>2025-08-07T15:46:19Z</time>
      </trkpt>
      <trkpt lat="45.84426" lon="2.97869">
        <ele>880</ele>
        <time>2025-08-07T15:46:20Z</time>
      </trkpt>
      <trkpt lat="45.84426" lon="2.97869">
        <ele>880</ele>
        <time>2025-08-07T15:46:21Z</time>
      </trkpt>
      <trkpt lat="45.84426" lon="2.97869">
        <ele>880</ele>
        <time>2025-08-07T15:46:22Z</time>
      </trkpt>
      <trkpt lat="45.84426" lon="2.9787">
        <ele>880</ele>
        <time>2025-08-07T15:46:23Z</time>
      </trkpt>
      <trkpt lat="45.84428" lon="2.97871">
        <ele>880</ele>
        <time>2025-08-07T15:46:35Z</time>
      </trkpt>
      <trkpt lat="45.84429" lon="2.97871">
        <ele>880</ele>
        <time>2025-08-07T15:46:36Z</time>
      </trkpt>
      <trkpt lat="45.84431" lon="2.97871">
        <ele>880</ele>
        <time>2025-08-07T15:46:37Z</time>
      </trkpt>
      <trkpt lat="45.84433" lon="2.97871">
        <ele>880</ele>
        <time>2025-08-07T15:46:38Z</time>
      </trkpt>
      <trkpt lat="45.84434" lon="2.97872">
        <ele>880</ele>
        <time>2025-08-07T15:46:39Z</time>
      </trkpt>
      <trkpt lat="45.84436" lon="2.97873">
        <ele>880</ele>
        <time>2025-08-07T15:46:40Z</time>
      </trkpt>
      <trkpt lat="45.84438" lon="2.97874">
        <ele>880</ele>
        <time>2025-08-07T15:46:41Z</time>
      </trkpt>
      <trkpt lat="45.8444" lon="2.97876">
        <ele>880</ele>
        <time>2025-08-07T15:46:42Z</time>
      </trkpt>
      <trkpt lat="45.84441" lon="2.97877">
        <ele>880</ele>
        <time>2025-08-07T15:46:43Z</time>
      </trkpt>
      <trkpt lat="45.84443" lon="2.97879">
        <ele>879.8</ele>
        <time>2025-08-07T15:46:44Z</time>
      </trkpt>
      <trkpt lat="45.84444" lon="2.9788">
        <ele>879.8</ele>
        <time>2025-08-07T15:46:45Z</time>
      </trkpt>
      <trkpt lat="45.84446" lon="2.97881">
        <ele>879.8</ele>
        <time>2025-08-07T15:46:46Z</time>
      </trkpt>
      <trkpt lat="45.84446" lon="2.97882">
        <ele>879.6</ele>
        <time>2025-08-07T15:46:47Z</time>
      </trkpt>
      <trkpt lat="45.84447" lon="2.97883">
        <ele>879.6</ele>
        <time>2025-08-07T15:46:48Z</time>
      </trkpt>
      <trkpt lat="45.84449" lon="2.97884">
        <ele>879.4</ele>
        <time>2025-08-07T15:46:49Z</time>
      </trkpt>
      <trkpt lat="45.84451" lon="2.97886">
        <ele>879.2</ele>
        <time>2025-08-07T15:46:50Z</time>
      </trkpt>
      <trkpt lat="45.84453" lon="2.97889">
        <ele>879.2</ele>
        <time>2025-08-07T15:46:51Z</time>
      </trkpt>
      <trkpt lat="45.84455" lon="2.97891">
        <ele>879</ele>
        <time>2025-08-07T15:46:52Z</time>
      </trkpt>
      <trkpt lat="45.84457" lon="2.97893">
        <ele>879</ele>
        <time>2025-08-07T15:46:53Z</time>
      </trkpt>
      <trkpt lat="45.84458" lon="2.97894">
        <ele>878.8</ele>
        <time>2025-08-07T15:46:54Z</time>
      </trkpt>
      <trkpt lat="45.8446" lon="2.97895">
        <ele>878.8</ele>
        <time>2025-08-07T15:46:55Z</time>
      </trkpt>
      <trkpt lat="45.84462" lon="2.97895">
        <ele>879</ele>
        <time>2025-08-07T15:46:56Z</time>
      </trkpt>
      <trkpt lat="45.84462" lon="2.97894">
        <ele>879</ele>
        <time>2025-08-07T15:46:57Z</time>
      </trkpt>
      <trkpt lat="45.84463" lon="2.97892">
        <ele>879.2</ele>
        <time>2025-08-07T15:46:58Z</time>
      </trkpt>
      <trkpt lat="45.84464" lon="2.97891">
        <ele>879.4</ele>
        <time>2025-08-07T15:46:59Z</time>
      </trkpt>
      <trkpt lat="45.84464" lon="2.97891">
        <ele>879.6</ele>
        <time>2025-08-07T15:47:00Z</time>
      </trkpt>
      <trkpt lat="45.84465" lon="2.9789">
        <ele>879.8</ele>
        <time>2025-08-07T15:47:01Z</time>
      </trkpt>
      <trkpt lat="45.84465" lon="2.9789">
        <ele>880</ele>
        <time>2025-08-07T15:47:02Z</time>
      </trkpt>
      <trkpt lat="45.84465" lon="2.9789">
        <ele>880.2</ele>
        <time>2025-08-07T15:47:03Z</time>
      </trkpt>
      <trkpt lat="45.84465" lon="2.97888">
        <ele>880.4</ele>
        <time>2025-08-07T15:47:04Z</time>
      </trkpt>
      <trkpt lat="45.84465" lon="2.97885">
        <ele>880.8</ele>
        <time>2025-08-07T15:47:05Z</time>
      </trkpt>
      <trkpt lat="45.84465" lon="2.97884">
        <ele>881</ele>
        <time>2025-08-07T15:47:06Z</time>
      </trkpt>
      <trkpt lat="45.84465" lon="2.97882">
        <ele>881.2</ele>
        <time>2025-08-07T15:47:07Z</time>
      </trkpt>
      <trkpt lat="45.84466" lon="2.97879">
        <ele>881.4</ele>
        <time>2025-08-07T15:47:08Z</time>
      </trkpt>
      <trkpt lat="45.84468" lon="2.97877">
        <ele>881.6</ele>
        <time>2025-08-07T15:47:09Z</time>
      </trkpt>
      <trkpt lat="45.84469" lon="2.97874">
        <ele>882</ele>
        <time>2025-08-07T15:47:10Z</time>
      </trkpt>
      <trkpt lat="45.8447" lon="2.97871">
        <ele>882.2</ele>
        <time>2025-08-07T15:47:11Z</time>
      </trkpt>
      <trkpt lat="45.84471" lon="2.97868">
        <ele>882.6</ele>
        <time>2025-08-07T15:47:12Z</time>
      </trkpt>
      <trkpt lat="45.84473" lon="2.97865">
        <ele>882.8</ele>
        <time>2025-08-07T15:47:13Z</time>
      </trkpt>
      <trkpt lat="45.84473" lon="2.97862">
        <ele>883.2</ele>
        <time>2025-08-07T15:47:14Z</time>
      </trkpt>
      <trkpt lat="45.84475" lon="2.97858">
        <ele>883.6</ele>
        <time>2025-08-07T15:47:15Z</time>
      </trkpt>
      <trkpt lat="45.84478" lon="2.97851">
        <ele>883.8</ele>
        <time>2025-08-07T15:47:16Z</time>
      </trkpt>
      <trkpt lat="45.84479" lon="2.97848">
        <ele>884.2</ele>
        <time>2025-08-07T15:47:17Z</time>
      </trkpt>
      <trkpt lat="45.8448" lon="2.97844">
        <ele>884.4</ele>
        <time>2025-08-07T15:47:18Z</time>
      </trkpt>
      <trkpt lat="45.84483" lon="2.97841">
        <ele>884.8</ele>
        <time>2025-08-07T15:47:19Z</time>
      </trkpt>
      <trkpt lat="45.84485" lon="2.97838">
        <ele>885</ele>
        <time>2025-08-07T15:47:20Z</time>
      </trkpt>
      <trkpt lat="45.84486" lon="2.97836">
        <ele>885.2</ele>
        <time>2025-08-07T15:47:21Z</time>
      </trkpt>
      <trkpt lat="45.84489" lon="2.97833">
        <ele>885.4</ele>
        <time>2025-08-07T15:47:22Z</time>
      </trkpt>
      <trkpt lat="45.84492" lon="2.9783">
        <ele>885.6</ele>
        <time>2025-08-07T15:47:23Z</time>
      </trkpt>
      <trkpt lat="45.84494" lon="2.97828">
        <ele>885.8</ele>
        <time>2025-08-07T15:47:24Z</time>
      </trkpt>
      <trkpt lat="45.84496" lon="2.97826">
        <ele>886.2</ele>
        <time>2025-08-07T15:47:25Z</time>
      </trkpt>
      <trkpt lat="45.84498" lon="2.97821">
        <ele>886.6</ele>
        <time>2025-08-07T15:47:26Z</time>
      </trkpt>
      <trkpt lat="45.845" lon="2.97817">
        <ele>886.8</ele>
        <time>2025-08-07T15:47:27Z</time>
      </trkpt>
      <trkpt lat="45.84504" lon="2.97814">
        <ele>887.2</ele>
        <time>2025-08-07T15:47:28Z</time>
      </trkpt>
      <trkpt lat="45.84505" lon="2.9781">
        <ele>887.6</ele>
        <time>2025-08-07T15:47:29Z</time>
      </trkpt>
      <trkpt lat="45.8451" lon="2.97805">
        <ele>888</ele>
        <time>2025-08-07T15:47:30Z</time>
      </trkpt>
      <trkpt lat="45.84509" lon="2.97802">
        <ele>888.2</ele>
        <time>2025-08-07T15:47:31Z</time>
      </trkpt>
      <trkpt lat="45.84508" lon="2.97799">
        <ele>888.6</ele>
        <time>2025-08-07T15:47:32Z</time>
      </trkpt>
      <trkpt lat="45.84508" lon="2.97797">
        <ele>889</ele>
        <time>2025-08-07T15:47:33Z</time>
      </trkpt>
      <trkpt lat="45.84509" lon="2.97795">
        <ele>889.4</ele>
        <time>2025-08-07T15:47:34Z</time>
      </trkpt>
      <trkpt lat="45.84508" lon="2.97794">
        <ele>889.6</ele>
        <time>2025-08-07T15:47:35Z</time>
      </trkpt>
      <trkpt lat="45.84509" lon="2.97794">
        <ele>890</ele>
        <time>2025-08-07T15:47:36Z</time>
      </trkpt>
      <trkpt lat="45.8451" lon="2.97793">
        <ele>890.4</ele>
        <time>2025-08-07T15:47:37Z</time>
      </trkpt>
      <trkpt lat="45.84511" lon="2.97792">
        <ele>890.6</ele>
        <time>2025-08-07T15:47:38Z</time>
      </trkpt>
      <trkpt lat="45.84511" lon="2.97791">
        <ele>890.8</ele>
        <time>2025-08-07T15:47:39Z</time>
      </trkpt>
      <trkpt lat="45.84512" lon="2.97791">
        <ele>891</ele>
        <time>2025-08-07T15:47:40Z</time>
      </trkpt>
      <trkpt lat="45.84513" lon="2.97789">
        <ele>891.4</ele>
        <time>2025-08-07T15:48:05Z</time>
      </trkpt>
      <trkpt lat="45.84515" lon="2.9779">
        <ele>891.4</ele>
        <time>2025-08-07T15:48:06Z</time>
      </trkpt>
      <trkpt lat="45.84516" lon="2.9779">
        <ele>891.4</ele>
        <time>2025-08-07T15:48:07Z</time>
      </trkpt>
      <trkpt lat="45.84518" lon="2.97791">
        <ele>891.4</ele>
        <time>2025-08-07T15:48:08Z</time>
      </trkpt>
      <trkpt lat="45.8452" lon="2.97792">
        <ele>891.4</ele>
        <time>2025-08-07T15:48:09Z</time>
      </trkpt>
      <trkpt lat="45.84523" lon="2.97794">
        <ele>891.6</ele>
        <time>2025-08-07T15:48:10Z</time>
      </trkpt>
      <trkpt lat="45.84527" lon="2.97795">
        <ele>891.8</ele>
        <time>2025-08-07T15:48:11Z</time>
      </trkpt>
      <trkpt lat="45.84529" lon="2.97797">
        <ele>892.2</ele>
        <time>2025-08-07T15:48:12Z</time>
      </trkpt>
      <trkpt lat="45.84532" lon="2.97798">
        <ele>892.4</ele>
        <time>2025-08-07T15:48:13Z</time>
      </trkpt>
      <trkpt lat="45.84535" lon="2.97799">
        <ele>892.6</ele>
        <time>2025-08-07T15:48:14Z</time>
      </trkpt>
      <trkpt lat="45.84537" lon="2.97799">
        <ele>892.8</ele>
        <time>2025-08-07T15:48:15Z</time>
      </trkpt>
      <trkpt lat="45.8454" lon="2.978">
        <ele>893</ele>
        <time>2025-08-07T15:48:16Z</time>
      </trkpt>
      <trkpt lat="45.84542" lon="2.97799">
        <ele>893.2</ele>
        <time>2025-08-07T15:48:17Z</time>
      </trkpt>
      <trkpt lat="45.84544" lon="2.97798">
        <ele>893.4</ele>
        <time>2025-08-07T15:48:18Z</time>
      </trkpt>
      <trkpt lat="45.84547" lon="2.97797">
        <ele>893.6</ele>
        <time>2025-08-07T15:48:19Z</time>
      </trkpt>
      <trkpt lat="45.84549" lon="2.97795">
        <ele>893.8</ele>
        <time>2025-08-07T15:48:20Z</time>
      </trkpt>
      <trkpt lat="45.84552" lon="2.97795">
        <ele>893.8</ele>
        <time>2025-08-07T15:48:21Z</time>
      </trkpt>
      <trkpt lat="45.84555" lon="2.97794">
        <ele>894</ele>
        <time>2025-08-07T15:48:22Z</time>
      </trkpt>
      <trkpt lat="45.84557" lon="2.97794">
        <ele>894</ele>
        <time>2025-08-07T15:48:23Z</time>
      </trkpt>
      <trkpt lat="45.84561" lon="2.97794">
        <ele>894.2</ele>
        <time>2025-08-07T15:48:24Z</time>
      </trkpt>
      <trkpt lat="45.84565" lon="2.97794">
        <ele>894.2</ele>
        <time>2025-08-07T15:48:25Z</time>
      </trkpt>
      <trkpt lat="45.84569" lon="2.97795">
        <ele>894.2</ele>
        <time>2025-08-07T15:48:26Z</time>
      </trkpt>
      <trkpt lat="45.84574" lon="2.97796">
        <ele>894.2</ele>
        <time>2025-08-07T15:48:27Z</time>
      </trkpt>
      <trkpt lat="45.84577" lon="2.97797">
        <ele>894.2</ele>
        <time>2025-08-07T15:48:28Z</time>
      </trkpt>
      <trkpt lat="45.84581" lon="2.97798">
        <ele>894.2</ele>
        <time>2025-08-07T15:48:29Z</time>
      </trkpt>
      <trkpt lat="45.84586" lon="2.97799">
        <ele>894.4</ele>
        <time>2025-08-07T15:48:30Z</time>
      </trkpt>
      <trkpt lat="45.8459" lon="2.97799">
        <ele>894.4</ele>
        <time>2025-08-07T15:48:31Z</time>
      </trkpt>
      <trkpt lat="45.84595" lon="2.97801">
        <ele>894.4</ele>
        <time>2025-08-07T15:48:32Z</time>
      </trkpt>
      <trkpt lat="45.84598" lon="2.97801">
        <ele>894.4</ele>
        <time>2025-08-07T15:48:33Z</time>
      </trkpt>
      <trkpt lat="45.846" lon="2.97802">
        <ele>894.4</ele>
        <time>2025-08-07T15:48:34Z</time>
      </trkpt>
      <trkpt lat="45.84603" lon="2.97804">
        <ele>894.4</ele>
        <time>2025-08-07T15:48:35Z</time>
      </trkpt>
      <trkpt lat="45.84606" lon="2.97805">
        <ele>894.4</ele>
        <time>2025-08-07T15:48:36Z</time>
      </trkpt>
      <trkpt lat="45.84611" lon="2.97807">
        <ele>894.2</ele>
        <time>2025-08-07T15:48:37Z</time>
      </trkpt>
      <trkpt lat="45.84617" lon="2.97808">
        <ele>894.2</ele>
        <time>2025-08-07T15:48:38Z</time>
      </trkpt>
      <trkpt lat="45.84621" lon="2.97809">
        <ele>894.4</ele>
        <time>2025-08-07T15:48:39Z</time>
      </trkpt>
      <trkpt lat="45.84625" lon="2.97808">
        <ele>894.4</ele>
        <time>2025-08-07T15:48:40Z</time>
      </trkpt>
      <trkpt lat="45.84628" lon="2.97809">
        <ele>894.4</ele>
        <time>2025-08-07T15:48:41Z</time>
      </trkpt>
      <trkpt lat="45.84632" lon="2.97809">
        <ele>894.4</ele>
        <time>2025-08-07T15:48:42Z</time>
      </trkpt>
      <trkpt lat="45.84637" lon="2.97809">
        <ele>894.4</ele>
        <time>2025-08-07T15:48:43Z</time>
      </trkpt>
      <trkpt lat="45.84641" lon="2.97811">
        <ele>894.2</ele>
        <time>2025-08-07T15:48:44Z</time>
      </trkpt>
      <trkpt lat="45.84645" lon="2.97811">
        <ele>894.2</ele>
        <time>2025-08-07T15:48:45Z</time>
      </trkpt>
      <trkpt lat="45.84649" lon="2.97809">
        <ele>894.2</ele>
        <time>2025-08-07T15:48:46Z</time>
      </trkpt>
      <trkpt lat="45.84654" lon="2.97806">
        <ele>894.2</ele>
        <time>2025-08-07T15:48:47Z</time>
      </trkpt>
      <trkpt lat="45.8466" lon="2.97808">
        <ele>894.4</ele>
        <time>2025-08-07T15:48:48Z</time>
      </trkpt>
      <trkpt lat="45.84665" lon="2.97811">
        <ele>894.4</ele>
        <time>2025-08-07T15:48:49Z</time>
      </trkpt>
      <trkpt lat="45.84668" lon="2.97813">
        <ele>894.4</ele>
        <time>2025-08-07T15:48:50Z</time>
      </trkpt>
      <trkpt lat="45.84671" lon="2.97817">
        <ele>894.4</ele>
        <time>2025-08-07T15:48:51Z</time>
      </trkpt>
      <trkpt lat="45.84673" lon="2.97821">
        <ele>894.4</ele>
        <time>2025-08-07T15:48:52Z</time>
      </trkpt>
      <trkpt lat="45.84678" lon="2.97822">
        <ele>894.4</ele>
        <time>2025-08-07T15:48:53Z</time>
      </trkpt>
      <trkpt lat="45.84681" lon="2.97823">
        <ele>894.4</ele>
        <time>2025-08-07T15:48:54Z</time>
      </trkpt>
      <trkpt lat="45.84685" lon="2.97823">
        <ele>894.4</ele>
        <time>2025-08-07T15:48:55Z</time>
      </trkpt>
      <trkpt lat="45.84689" lon="2.97823">
        <ele>894.4</ele>
        <time>2025-08-07T15:48:56Z</time>
      </trkpt>
      <trkpt lat="45.84693" lon="2.97823">
        <ele>894.4</ele>
        <time>2025-08-07T15:48:57Z</time>
      </trkpt>
      <trkpt lat="45.84696" lon="2.97824">
        <ele>894.4</ele>
        <time>2025-08-07T15:48:58Z</time>
      </trkpt>
      <trkpt lat="45.84699" lon="2.97825">
        <ele>894.6</ele>
        <time>2025-08-07T15:48:59Z</time>
      </trkpt>
      <trkpt lat="45.84702" lon="2.97827">
        <ele>894.6</ele>
        <time>2025-08-07T15:49:00Z</time>
      </trkpt>
      <trkpt lat="45.84705" lon="2.97831">
        <ele>894.6</ele>
        <time>2025-08-07T15:49:01Z</time>
      </trkpt>
      <trkpt lat="45.84708" lon="2.97834">
        <ele>894.8</ele>
        <time>2025-08-07T15:49:02Z</time>
      </trkpt>
      <trkpt lat="45.8471" lon="2.97834">
        <ele>894.8</ele>
        <time>2025-08-07T15:49:03Z</time>
      </trkpt>
      <trkpt lat="45.84713" lon="2.97832">
        <ele>895</ele>
        <time>2025-08-07T15:49:04Z</time>
      </trkpt>
      <trkpt lat="45.84716" lon="2.9783">
        <ele>895.2</ele>
        <time>2025-08-07T15:49:05Z</time>
      </trkpt>
      <trkpt lat="45.84719" lon="2.97828">
        <ele>895.4</ele>
        <time>2025-08-07T15:49:06Z</time>
      </trkpt>
      <trkpt lat="45.84722" lon="2.97826">
        <ele>895.8</ele>
        <time>2025-08-07T15:49:07Z</time>
      </trkpt>
      <trkpt lat="45.84726" lon="2.97824">
        <ele>896</ele>
        <time>2025-08-07T15:49:08Z</time>
      </trkpt>
      <trkpt lat="45.84729" lon="2.97824">
        <ele>896.2</ele>
        <time>2025-08-07T15:49:09Z</time>
      </trkpt>
      <trkpt lat="45.84731" lon="2.97824">
        <ele>896.6</ele>
        <time>2025-08-07T15:49:10Z</time>
      </trkpt>
      <trkpt lat="45.84734" lon="2.97825">
        <ele>896.8</ele>
        <time>2025-08-07T15:49:11Z</time>
      </trkpt>
      <trkpt lat="45.84737" lon="2.97825">
        <ele>897</ele>
        <time>2025-08-07T15:49:12Z</time>
      </trkpt>
      <trkpt lat="45.84741" lon="2.97825">
        <ele>897.2</ele>
        <time>2025-08-07T15:49:13Z</time>
      </trkpt>
      <trkpt lat="45.84744" lon="2.97825">
        <ele>897.4</ele>
        <time>2025-08-07T15:49:14Z</time>
      </trkpt>
      <trkpt lat="45.84748" lon="2.97825">
        <ele>897.8</ele>
        <time>2025-08-07T15:49:15Z</time>
      </trkpt>
      <trkpt lat="45.84751" lon="2.97824">
        <ele>898</ele>
        <time>2025-08-07T15:49:16Z</time>
      </trkpt>
      <trkpt lat="45.84755" lon="2.97821">
        <ele>898.4</ele>
        <time>2025-08-07T15:49:17Z</time>
      </trkpt>
      <trkpt lat="45.84759" lon="2.97817">
        <ele>898.8</ele>
        <time>2025-08-07T15:49:18Z</time>
      </trkpt>
      <trkpt lat="45.84763" lon="2.97813">
        <ele>899</ele>
        <time>2025-08-07T15:49:19Z</time>
      </trkpt>
      <trkpt lat="45.84767" lon="2.97809">
        <ele>899.4</ele>
        <time>2025-08-07T15:49:20Z</time>
      </trkpt>
      <trkpt lat="45.8477" lon="2.97805">
        <ele>899.6</ele>
        <time>2025-08-07T15:49:21Z</time>
      </trkpt>
      <trkpt lat="45.84773" lon="2.978">
        <ele>900</ele>
        <time>2025-08-07T15:49:22Z</time>
      </trkpt>
      <trkpt lat="45.84776" lon="2.97796">
        <ele>900.2</ele>
        <time>2025-08-07T15:49:23Z</time>
      </trkpt>
      <trkpt lat="45.84779" lon="2.97792">
        <ele>900.4</ele>
        <time>2025-08-07T15:49:24Z</time>
      </trkpt>
      <trkpt lat="45.84781" lon="2.97789">
        <ele>900.6</ele>
        <time>2025-08-07T15:49:25Z</time>
      </trkpt>
      <trkpt lat="45.84783" lon="2.97784">
        <ele>900.8</ele>
        <time>2025-08-07T15:49:26Z</time>
      </trkpt>
      <trkpt lat="45.84784" lon="2.97778">
        <ele>901</ele>
        <time>2025-08-07T15:49:27Z</time>
      </trkpt>
      <trkpt lat="45.84787" lon="2.97772">
        <ele>901.2</ele>
        <time>2025-08-07T15:49:28Z</time>
      </trkpt>
      <trkpt lat="45.84789" lon="2.97767">
        <ele>901.4</ele>
        <time>2025-08-07T15:49:29Z</time>
      </trkpt>
      <trkpt lat="45.84791" lon="2.97762">
        <ele>901.6</ele>
        <time>2025-08-07T15:49:30Z</time>
      </trkpt>
      <trkpt lat="45.84794" lon="2.97758">
        <ele>902</ele>
        <time>2025-08-07T15:49:31Z</time>
      </trkpt>
      <trkpt lat="45.84796" lon="2.97755">
        <ele>902.2</ele>
        <time>2025-08-07T15:49:32Z</time>
      </trkpt>
      <trkpt lat="45.84799" lon="2.97751">
        <ele>902.4</ele>
        <time>2025-08-07T15:49:33Z</time>
      </trkpt>
      <trkpt lat="45.84801" lon="2.97747">
        <ele>902.8</ele>
        <time>2025-08-07T15:49:34Z</time>
      </trkpt>
      <trkpt lat="45.84805" lon="2.97744">
        <ele>903</ele>
        <time>2025-08-07T15:49:35Z</time>
      </trkpt>
      <trkpt lat="45.84807" lon="2.9774">
        <ele>903.2</ele>
        <time>2025-08-07T15:49:36Z</time>
      </trkpt>
      <trkpt lat="45.8481" lon="2.97737">
        <ele>903.4</ele>
        <time>2025-08-07T15:49:37Z</time>
      </trkpt>
      <trkpt lat="45.84812" lon="2.97734">
        <ele>903.6</ele>
        <time>2025-08-07T15:49:38Z</time>
      </trkpt>
      <trkpt lat="45.84813" lon="2.97731">
        <ele>903.8</ele>
        <time>2025-08-07T15:49:39Z</time>
      </trkpt>
      <trkpt lat="45.84816" lon="2.97726">
        <ele>904</ele>
        <time>2025-08-07T15:49:40Z</time>
      </trkpt>
      <trkpt lat="45.84819" lon="2.97721">
        <ele>904.2</ele>
        <time>2025-08-07T15:49:41Z</time>
      </trkpt>
      <trkpt lat="45.84822" lon="2.97717">
        <ele>904.4</ele>
        <time>2025-08-07T15:49:42Z</time>
      </trkpt>
      <trkpt lat="45.84824" lon="2.97714">
        <ele>904.8</ele>
        <time>2025-08-07T15:49:43Z</time>
      </trkpt>
      <trkpt lat="45.84827" lon="2.97711">
        <ele>905</ele>
        <time>2025-08-07T15:49:44Z</time>
      </trkpt>
      <trkpt lat="45.84828" lon="2.97709">
        <ele>905.2</ele>
        <time>2025-08-07T15:49:45Z</time>
      </trkpt>
      <trkpt lat="45.8483" lon="2.97707">
        <ele>905.6</ele>
        <time>2025-08-07T15:49:46Z</time>
      </trkpt>
      <trkpt lat="45.84832" lon="2.97705">
        <ele>905.8</ele>
        <time>2025-08-07T15:49:47Z</time>
      </trkpt>
      <trkpt lat="45.84834" lon="2.97703">
        <ele>906.2</ele>
        <time>2025-08-07T15:49:48Z</time>
      </trkpt>
      <trkpt lat="45.84836" lon="2.97701">
        <ele>906.4</ele>
        <time>2025-08-07T15:49:49Z</time>
      </trkpt>
      <trkpt lat="45.84839" lon="2.97699">
        <ele>906.6</ele>
        <time>2025-08-07T15:49:50Z</time>
      </trkpt>
      <trkpt lat="45.84841" lon="2.97698">
        <ele>907</ele>
        <time>2025-08-07T15:49:51Z</time>
      </trkpt>
      <trkpt lat="45.84844" lon="2.97696">
        <ele>907.2</ele>
        <time>2025-08-07T15:49:52Z</time>
      </trkpt>
      <trkpt lat="45.84846" lon="2.97694">
        <ele>907.6</ele>
        <time>2025-08-07T15:49:53Z</time>
      </trkpt>
      <trkpt lat="45.8485" lon="2.97691">
        <ele>907.8</ele>
        <time>2025-08-07T15:49:54Z</time>
      </trkpt>
      <trkpt lat="45.84853" lon="2.97689">
        <ele>908.2</ele>
        <time>2025-08-07T15:49:55Z</time>
      </trkpt>
      <trkpt lat="45.84855" lon="2.97687">
        <ele>908.4</ele>
        <time>2025-08-07T15:49:56Z</time>
      </trkpt>
      <trkpt lat="45.84858" lon="2.97685">
        <ele>908.8</ele>
        <time>2025-08-07T15:49:57Z</time>
      </trkpt>
      <trkpt lat="45.84861" lon="2.97683">
        <ele>909</ele>
        <time>2025-08-07T15:49:58Z</time>
      </trkpt>
      <trkpt lat="45.84864" lon="2.97682">
        <ele>909.2</ele>
        <time>2025-08-07T15:49:59Z</time>
      </trkpt>
      <trkpt lat="45.84867" lon="2.9768">
        <ele>909.4</ele>
        <time>2025-08-07T15:50:00Z</time>
      </trkpt>
      <trkpt lat="45.8487" lon="2.97679">
        <ele>909.8</ele>
        <time>2025-08-07T15:50:01Z</time>
      </trkpt>
      <trkpt lat="45.84873" lon="2.97678">
        <ele>910</ele>
        <time>2025-08-07T15:50:02Z</time>
      </trkpt>
      <trkpt lat="45.84875" lon="2.97678">
        <ele>910.2</ele>
        <time>2025-08-07T15:50:03Z</time>
      </trkpt>
      <trkpt lat="45.84878" lon="2.97677">
        <ele>910.6</ele>
        <time>2025-08-07T15:50:04Z</time>
      </trkpt>
      <trkpt lat="45.84882" lon="2.97675">
        <ele>910.8</ele>
        <time>2025-08-07T15:50:05Z</time>
      </trkpt>
      <trkpt lat="45.84884" lon="2.97674">
        <ele>911</ele>
        <time>2025-08-07T15:50:06Z</time>
      </trkpt>
      <trkpt lat="45.84887" lon="2.97672">
        <ele>911.2</ele>
        <time>2025-08-07T15:50:07Z</time>
      </trkpt>
      <trkpt lat="45.8489" lon="2.97671">
        <ele>911.4</ele>
        <time>2025-08-07T15:50:08Z</time>
      </trkpt>
      <trkpt lat="45.84894" lon="2.97667">
        <ele>911.6</ele>
        <time>2025-08-07T15:50:09Z</time>
      </trkpt>
      <trkpt lat="45.84899" lon="2.97663">
        <ele>911.8</ele>
        <time>2025-08-07T15:50:10Z</time>
      </trkpt>
      <trkpt lat="45.84903" lon="2.97659">
        <ele>912</ele>
        <time>2025-08-07T15:50:11Z</time>
      </trkpt>
      <trkpt lat="45.84906" lon="2.97656">
        <ele>912</ele>
        <time>2025-08-07T15:50:12Z</time>
      </trkpt>
      <trkpt lat="45.84909" lon="2.97654">
        <ele>912.2</ele>
        <time>2025-08-07T15:50:13Z</time>
      </trkpt>
      <trkpt lat="45.84912" lon="2.97653">
        <ele>912.2</ele>
        <time>2025-08-07T15:50:14Z</time>
      </trkpt>
      <trkpt lat="45.84915" lon="2.97653">
        <ele>912.4</ele>
        <time>2025-08-07T15:50:15Z</time>
      </trkpt>
      <trkpt lat="45.84917" lon="2.97653">
        <ele>912.6</ele>
        <time>2025-08-07T15:50:16Z</time>
      </trkpt>
      <trkpt lat="45.8492" lon="2.97653">
        <ele>913</ele>
        <time>2025-08-07T15:50:17Z</time>
      </trkpt>
      <trkpt lat="45.84922" lon="2.97654">
        <ele>913.2</ele>
        <time>2025-08-07T15:50:18Z</time>
      </trkpt>
      <trkpt lat="45.84924" lon="2.97654">
        <ele>913.4</ele>
        <time>2025-08-07T15:50:19Z</time>
      </trkpt>
      <trkpt lat="45.84927" lon="2.97652">
        <ele>913.6</ele>
        <time>2025-08-07T15:50:20Z</time>
      </trkpt>
      <trkpt lat="45.8493" lon="2.97652">
        <ele>914</ele>
        <time>2025-08-07T15:50:21Z</time>
      </trkpt>
      <trkpt lat="45.84933" lon="2.97652">
        <ele>914.2</ele>
        <time>2025-08-07T15:50:22Z</time>
      </trkpt>
      <trkpt lat="45.84935" lon="2.97651">
        <ele>914.4</ele>
        <time>2025-08-07T15:50:23Z</time>
      </trkpt>
      <trkpt lat="45.84938" lon="2.9765">
        <ele>914.6</ele>
        <time>2025-08-07T15:50:24Z</time>
      </trkpt>
      <trkpt lat="45.84941" lon="2.97648">
        <ele>915</ele>
        <time>2025-08-07T15:50:25Z</time>
      </trkpt>
      <trkpt lat="45.84945" lon="2.97647">
        <ele>915.2</ele>
        <time>2025-08-07T15:50:26Z</time>
      </trkpt>
      <trkpt lat="45.84948" lon="2.97646">
        <ele>915.6</ele>
        <time>2025-08-07T15:50:27Z</time>
      </trkpt>
      <trkpt lat="45.84952" lon="2.97644">
        <ele>915.8</ele>
        <time>2025-08-07T15:50:28Z</time>
      </trkpt>
      <trkpt lat="45.84955" lon="2.97642">
        <ele>916</ele>
        <time>2025-08-07T15:50:29Z</time>
      </trkpt>
      <trkpt lat="45.84957" lon="2.97641">
        <ele>916.2</ele>
        <time>2025-08-07T15:50:30Z</time>
      </trkpt>
      <trkpt lat="45.84959" lon="2.9764">
        <ele>916.6</ele>
        <time>2025-08-07T15:50:31Z</time>
      </trkpt>
      <trkpt lat="45.84961" lon="2.9764">
        <ele>916.8</ele>
        <time>2025-08-07T15:50:32Z</time>
      </trkpt>
      <trkpt lat="45.84963" lon="2.97641">
        <ele>917</ele>
        <time>2025-08-07T15:50:33Z</time>
      </trkpt>
      <trkpt lat="45.84964" lon="2.97642">
        <ele>917.2</ele>
        <time>2025-08-07T15:50:34Z</time>
      </trkpt>
      <trkpt lat="45.84965" lon="2.97641">
        <ele>917.4</ele>
        <time>2025-08-07T15:50:35Z</time>
      </trkpt>
      <trkpt lat="45.84965" lon="2.97641">
        <ele>917.6</ele>
        <time>2025-08-07T15:50:36Z</time>
      </trkpt>
      <trkpt lat="45.84967" lon="2.9764">
        <ele>917.6</ele>
        <time>2025-08-07T15:50:37Z</time>
      </trkpt>
      <trkpt lat="45.84969" lon="2.97639">
        <ele>917.8</ele>
        <time>2025-08-07T15:50:38Z</time>
      </trkpt>
      <trkpt lat="45.8497" lon="2.97638">
        <ele>918</ele>
        <time>2025-08-07T15:50:39Z</time>
      </trkpt>
      <trkpt lat="45.84973" lon="2.97637">
        <ele>918.2</ele>
        <time>2025-08-07T15:50:40Z</time>
      </trkpt>
      <trkpt lat="45.84975" lon="2.97635">
        <ele>918.4</ele>
        <time>2025-08-07T15:50:41Z</time>
      </trkpt>
      <trkpt lat="45.84978" lon="2.97633">
        <ele>918.4</ele>
        <time>2025-08-07T15:50:42Z</time>
      </trkpt>
      <trkpt lat="45.8498" lon="2.9763">
        <ele>918.6</ele>
        <time>2025-08-07T15:50:43Z</time>
      </trkpt>
      <trkpt lat="45.84983" lon="2.97627">
        <ele>918.6</ele>
        <time>2025-08-07T15:50:44Z</time>
      </trkpt>
      <trkpt lat="45.84985" lon="2.97624">
        <ele>918.8</ele>
        <time>2025-08-07T15:50:45Z</time>
      </trkpt>
      <trkpt lat="45.84988" lon="2.97622">
        <ele>918.8</ele>
        <time>2025-08-07T15:50:46Z</time>
      </trkpt>
      <trkpt lat="45.84991" lon="2.97619">
        <ele>919</ele>
        <time>2025-08-07T15:50:47Z</time>
      </trkpt>
      <trkpt lat="45.84994" lon="2.97617">
        <ele>919.2</ele>
        <time>2025-08-07T15:50:48Z</time>
      </trkpt>
      <trkpt lat="45.84996" lon="2.97614">
        <ele>919.2</ele>
        <time>2025-08-07T15:50:49Z</time>
      </trkpt>
      <trkpt lat="45.84998" lon="2.97611">
        <ele>919.4</ele>
        <time>2025-08-07T15:50:50Z</time>
      </trkpt>
      <trkpt lat="45.85" lon="2.97609">
        <ele>919.6</ele>
        <time>2025-08-07T15:50:51Z</time>
      </trkpt>
      <trkpt lat="45.85002" lon="2.97607">
        <ele>919.8</ele>
        <time>2025-08-07T15:50:52Z</time>
      </trkpt>
      <trkpt lat="45.85004" lon="2.97604">
        <ele>920.2</ele>
        <time>2025-08-07T15:50:53Z</time>
      </trkpt>
      <trkpt lat="45.85006" lon="2.97602">
        <ele>920.4</ele>
        <time>2025-08-07T15:50:54Z</time>
      </trkpt>
      <trkpt lat="45.85009" lon="2.97601">
        <ele>920.6</ele>
        <time>2025-08-07T15:50:55Z</time>
      </trkpt>
      <trkpt lat="45.8501" lon="2.97599">
        <ele>920.8</ele>
        <time>2025-08-07T15:50:56Z</time>
      </trkpt>
      <trkpt lat="45.85013" lon="2.97597">
        <ele>921</ele>
        <time>2025-08-07T15:50:57Z</time>
      </trkpt>
      <trkpt lat="45.85015" lon="2.97595">
        <ele>921.4</ele>
        <time>2025-08-07T15:50:58Z</time>
      </trkpt>
      <trkpt lat="45.85019" lon="2.97594">
        <ele>921.6</ele>
        <time>2025-08-07T15:50:59Z</time>
      </trkpt>
      <trkpt lat="45.85023" lon="2.97593">
        <ele>921.8</ele>
        <time>2025-08-07T15:51:00Z</time>
      </trkpt>
      <trkpt lat="45.85026" lon="2.97591">
        <ele>922</ele>
        <time>2025-08-07T15:51:01Z</time>
      </trkpt>
      <trkpt lat="45.85027" lon="2.97589">
        <ele>922.2</ele>
        <time>2025-08-07T15:51:02Z</time>
      </trkpt>
      <trkpt lat="45.85029" lon="2.97585">
        <ele>922.4</ele>
        <time>2025-08-07T15:51:03Z</time>
      </trkpt>
      <trkpt lat="45.85031" lon="2.97581">
        <ele>922.6</ele>
        <time>2025-08-07T15:51:04Z</time>
      </trkpt>
      <trkpt lat="45.85033" lon="2.97577">
        <ele>922.8</ele>
        <time>2025-08-07T15:51:05Z</time>
      </trkpt>
      <trkpt lat="45.85034" lon="2.97574">
        <ele>923</ele>
        <time>2025-08-07T15:51:06Z</time>
      </trkpt>
      <trkpt lat="45.85039" lon="2.97571">
        <ele>923.2</ele>
        <time>2025-08-07T15:51:07Z</time>
      </trkpt>
      <trkpt lat="45.85043" lon="2.97571">
        <ele>923.4</ele>
        <time>2025-08-07T15:51:08Z</time>
      </trkpt>
      <trkpt lat="45.85046" lon="2.9757">
        <ele>923.4</ele>
        <time>2025-08-07T15:51:09Z</time>
      </trkpt>
      <trkpt lat="45.85049" lon="2.97569">
        <ele>923.6</ele>
        <time>2025-08-07T15:51:10Z</time>
      </trkpt>
      <trkpt lat="45.85052" lon="2.97568">
        <ele>923.8</ele>
        <time>2025-08-07T15:51:11Z</time>
      </trkpt>
      <trkpt lat="45.85055" lon="2.97568">
        <ele>923.8</ele>
        <time>2025-08-07T15:51:12Z</time>
      </trkpt>
      <trkpt lat="45.85057" lon="2.97568">
        <ele>924</ele>
        <time>2025-08-07T15:51:13Z</time>
      </trkpt>
      <trkpt lat="45.8506" lon="2.97567">
        <ele>924</ele>
        <time>2025-08-07T15:51:14Z</time>
      </trkpt>
      <trkpt lat="45.85062" lon="2.97566">
        <ele>924.2</ele>
        <time>2025-08-07T15:51:15Z</time>
      </trkpt>
      <trkpt lat="45.85066" lon="2.97565">
        <ele>924.2</ele>
        <time>2025-08-07T15:51:16Z</time>
      </trkpt>
      <trkpt lat="45.85068" lon="2.97565">
        <ele>924.4</ele>
        <time>2025-08-07T15:51:17Z</time>
      </trkpt>
      <trkpt lat="45.85071" lon="2.97564">
        <ele>924.6</ele>
        <time>2025-08-07T15:51:18Z</time>
      </trkpt>
      <trkpt lat="45.85072" lon="2.97564">
        <ele>924.6</ele>
        <time>2025-08-07T15:51:19Z</time>
      </trkpt>
      <trkpt lat="45.85074" lon="2.97564">
        <ele>924.8</ele>
        <time>2025-08-07T15:51:20Z</time>
      </trkpt>
      <trkpt lat="45.85076" lon="2.97562">
        <ele>925</ele>
        <time>2025-08-07T15:51:21Z</time>
      </trkpt>
      <trkpt lat="45.85079" lon="2.97561">
        <ele>925.2</ele>
        <time>2025-08-07T15:51:22Z</time>
      </trkpt>
      <trkpt lat="45.85081" lon="2.9756">
        <ele>925.4</ele>
        <time>2025-08-07T15:51:23Z</time>
      </trkpt>
      <trkpt lat="45.85083" lon="2.97559">
        <ele>925.4</ele>
        <time>2025-08-07T15:51:24Z</time>
      </trkpt>
      <trkpt lat="45.85088" lon="2.97558">
        <ele>925.8</ele>
        <time>2025-08-07T15:51:56Z</time>
      </trkpt>
      <trkpt lat="45.85089" lon="2.97557">
        <ele>926</ele>
        <time>2025-08-07T15:51:57Z</time>
      </trkpt>
      <trkpt lat="45.85091" lon="2.97557">
        <ele>926</ele>
        <time>2025-08-07T15:51:58Z</time>
      </trkpt>
      <trkpt lat="45.85092" lon="2.97557">
        <ele>926.2</ele>
        <time>2025-08-07T15:51:59Z</time>
      </trkpt>
      <trkpt lat="45.85094" lon="2.97558">
        <ele>926.4</ele>
        <time>2025-08-07T15:52:00Z</time>
      </trkpt>
      <trkpt lat="45.85096" lon="2.97559">
        <ele>926.6</ele>
        <time>2025-08-07T15:52:01Z</time>
      </trkpt>
      <trkpt lat="45.85098" lon="2.97559">
        <ele>926.8</ele>
        <time>2025-08-07T15:52:02Z</time>
      </trkpt>
      <trkpt lat="45.851" lon="2.97561">
        <ele>927</ele>
        <time>2025-08-07T15:52:03Z</time>
      </trkpt>
      <trkpt lat="45.85102" lon="2.97563">
        <ele>927.2</ele>
        <time>2025-08-07T15:52:04Z</time>
      </trkpt>
      <trkpt lat="45.85105" lon="2.97564">
        <ele>927.4</ele>
        <time>2025-08-07T15:52:05Z</time>
      </trkpt>
      <trkpt lat="45.85107" lon="2.97566">
        <ele>927.6</ele>
        <time>2025-08-07T15:52:06Z</time>
      </trkpt>
      <trkpt lat="45.8511" lon="2.97568">
        <ele>927.8</ele>
        <time>2025-08-07T15:52:07Z</time>
      </trkpt>
      <trkpt lat="45.85113" lon="2.97569">
        <ele>928</ele>
        <time>2025-08-07T15:52:08Z</time>
      </trkpt>
      <trkpt lat="45.85117" lon="2.97571">
        <ele>928.2</ele>
        <time>2025-08-07T15:52:09Z</time>
      </trkpt>
      <trkpt lat="45.8512" lon="2.97572">
        <ele>928.4</ele>
        <time>2025-08-07T15:52:10Z</time>
      </trkpt>
      <trkpt lat="45.85123" lon="2.97574">
        <ele>928.4</ele>
        <time>2025-08-07T15:52:11Z</time>
      </trkpt>
      <trkpt lat="45.85125" lon="2.97575">
        <ele>928.6</ele>
        <time>2025-08-07T15:52:12Z</time>
      </trkpt>
      <trkpt lat="45.85128" lon="2.97576">
        <ele>928.8</ele>
        <time>2025-08-07T15:52:13Z</time>
      </trkpt>
      <trkpt lat="45.8513" lon="2.97577">
        <ele>928.8</ele>
        <time>2025-08-07T15:52:14Z</time>
      </trkpt>
      <trkpt lat="45.85133" lon="2.97579">
        <ele>929</ele>
        <time>2025-08-07T15:52:15Z</time>
      </trkpt>
      <trkpt lat="45.85135" lon="2.97579">
        <ele>929.2</ele>
        <time>2025-08-07T15:52:16Z</time>
      </trkpt>
      <trkpt lat="45.85138" lon="2.9758">
        <ele>929.4</ele>
        <time>2025-08-07T15:52:17Z</time>
      </trkpt>
      <trkpt lat="45.85141" lon="2.97581">
        <ele>929.6</ele>
        <time>2025-08-07T15:52:18Z</time>
      </trkpt>
      <trkpt lat="45.85143" lon="2.97582">
        <ele>929.8</ele>
        <time>2025-08-07T15:52:19Z</time>
      </trkpt>
      <trkpt lat="45.85146" lon="2.97583">
        <ele>930</ele>
        <time>2025-08-07T15:52:20Z</time>
      </trkpt>
      <trkpt lat="45.85149" lon="2.97585">
        <ele>930.4</ele>
        <time>2025-08-07T15:52:21Z</time>
      </trkpt>
      <trkpt lat="45.8515" lon="2.97588">
        <ele>930.6</ele>
        <time>2025-08-07T15:52:22Z</time>
      </trkpt>
      <trkpt lat="45.85152" lon="2.9759">
        <ele>930.8</ele>
        <time>2025-08-07T15:52:23Z</time>
      </trkpt>
      <trkpt lat="45.85156" lon="2.97592">
        <ele>931.2</ele>
        <time>2025-08-07T15:52:24Z</time>
      </trkpt>
      <trkpt lat="45.8516" lon="2.97594">
        <ele>931.4</ele>
        <time>2025-08-07T15:52:25Z</time>
      </trkpt>
      <trkpt lat="45.85163" lon="2.97596">
        <ele>931.6</ele>
        <time>2025-08-07T15:52:26Z</time>
      </trkpt>
      <trkpt lat="45.85168" lon="2.97598">
        <ele>932</ele>
        <time>2025-08-07T15:52:27Z</time>
      </trkpt>
      <trkpt lat="45.85173" lon="2.976">
        <ele>932.2</ele>
        <time>2025-08-07T15:52:28Z</time>
      </trkpt>
      <trkpt lat="45.85176" lon="2.97601">
        <ele>932.4</ele>
        <time>2025-08-07T15:52:29Z</time>
      </trkpt>
      <trkpt lat="45.85179" lon="2.97602">
        <ele>932.6</ele>
        <time>2025-08-07T15:52:30Z</time>
      </trkpt>
      <trkpt lat="45.85182" lon="2.97603">
        <ele>932.6</ele>
        <time>2025-08-07T15:52:31Z</time>
      </trkpt>
      <trkpt lat="45.85186" lon="2.97604">
        <ele>932.8</ele>
        <time>2025-08-07T15:52:32Z</time>
      </trkpt>
      <trkpt lat="45.85191" lon="2.97605">
        <ele>933</ele>
        <time>2025-08-07T15:52:33Z</time>
      </trkpt>
      <trkpt lat="45.85196" lon="2.97605">
        <ele>933.2</ele>
        <time>2025-08-07T15:52:34Z</time>
      </trkpt>
      <trkpt lat="45.852" lon="2.97604">
        <ele>933.6</ele>
        <time>2025-08-07T15:52:35Z</time>
      </trkpt>
      <trkpt lat="45.85204" lon="2.97603">
        <ele>933.8</ele>
        <time>2025-08-07T15:52:36Z</time>
      </trkpt>
      <trkpt lat="45.85208" lon="2.97601">
        <ele>934.2</ele>
        <time>2025-08-07T15:52:37Z</time>
      </trkpt>
      <trkpt lat="45.85212" lon="2.97602">
        <ele>934.4</ele>
        <time>2025-08-07T15:52:38Z</time>
      </trkpt>
      <trkpt lat="45.85215" lon="2.97603">
        <ele>934.8</ele>
        <time>2025-08-07T15:52:39Z</time>
      </trkpt>
      <trkpt lat="45.85216" lon="2.97604">
        <ele>935</ele>
        <time>2025-08-07T15:52:40Z</time>
      </trkpt>
      <trkpt lat="45.8522" lon="2.97605">
        <ele>935.2</ele>
        <time>2025-08-07T15:52:41Z</time>
      </trkpt>
      <trkpt lat="45.85224" lon="2.97606">
        <ele>935.4</ele>
        <time>2025-08-07T15:52:42Z</time>
      </trkpt>
      <trkpt lat="45.85227" lon="2.97608">
        <ele>935.6</ele>
        <time>2025-08-07T15:52:43Z</time>
      </trkpt>
      <trkpt lat="45.85229" lon="2.97609">
        <ele>935.8</ele>
        <time>2025-08-07T15:52:44Z</time>
      </trkpt>
      <trkpt lat="45.85232" lon="2.97611">
        <ele>936</ele>
        <time>2025-08-07T15:52:45Z</time>
      </trkpt>
      <trkpt lat="45.85235" lon="2.97612">
        <ele>936.2</ele>
        <time>2025-08-07T15:52:46Z</time>
      </trkpt>
      <trkpt lat="45.85235" lon="2.97612">
        <ele>936.4</ele>
        <time>2025-08-07T15:52:47Z</time>
      </trkpt>
      <trkpt lat="45.85235" lon="2.97612">
        <ele>936.6</ele>
        <time>2025-08-07T15:52:48Z</time>
      </trkpt>
      <trkpt lat="45.85236" lon="2.97609">
        <ele>936.8</ele>
        <time>2025-08-07T15:52:49Z</time>
      </trkpt>
      <trkpt lat="45.85236" lon="2.97605">
        <ele>937</ele>
        <time>2025-08-07T15:52:50Z</time>
      </trkpt>
      <trkpt lat="45.85236" lon="2.97605">
        <ele>937.2</ele>
        <time>2025-08-07T15:52:51Z</time>
      </trkpt>
      <trkpt lat="45.85237" lon="2.97604">
        <ele>937.4</ele>
        <time>2025-08-07T15:52:52Z</time>
      </trkpt>
      <trkpt lat="45.85237" lon="2.97602">
        <ele>937.6</ele>
        <time>2025-08-07T15:52:53Z</time>
      </trkpt>
      <trkpt lat="45.85238" lon="2.97598">
        <ele>938</ele>
        <time>2025-08-07T15:52:54Z</time>
      </trkpt>
      <trkpt lat="45.85239" lon="2.97595">
        <ele>938.4</ele>
        <time>2025-08-07T15:52:55Z</time>
      </trkpt>
      <trkpt lat="45.85239" lon="2.97593">
        <ele>938.6</ele>
        <time>2025-08-07T15:52:56Z</time>
      </trkpt>
      <trkpt lat="45.85239" lon="2.9759">
        <ele>939</ele>
        <time>2025-08-07T15:52:57Z</time>
      </trkpt>
      <trkpt lat="45.85239" lon="2.97587">
        <ele>939.4</ele>
        <time>2025-08-07T15:52:58Z</time>
      </trkpt>
      <trkpt lat="45.85238" lon="2.97584">
        <ele>939.8</ele>
        <time>2025-08-07T15:52:59Z</time>
      </trkpt>
      <trkpt lat="45.85236" lon="2.97581">
        <ele>940.2</ele>
        <time>2025-08-07T15:53:00Z</time>
      </trkpt>
      <trkpt lat="45.85234" lon="2.97579">
        <ele>940.6</ele>
        <time>2025-08-07T15:53:01Z</time>
      </trkpt>
      <trkpt lat="45.85232" lon="2.97576">
        <ele>941</ele>
        <time>2025-08-07T15:53:02Z</time>
      </trkpt>
      <trkpt lat="45.85231" lon="2.97573">
        <ele>941.4</ele>
        <time>2025-08-07T15:53:03Z</time>
      </trkpt>
      <trkpt lat="45.8523" lon="2.97568">
        <ele>941.8</ele>
        <time>2025-08-07T15:53:04Z</time>
      </trkpt>
      <trkpt lat="45.8523" lon="2.97564">
        <ele>942.2</ele>
        <time>2025-08-07T15:53:05Z</time>
      </trkpt>
      <trkpt lat="45.85229" lon="2.9756">
        <ele>942.8</ele>
        <time>2025-08-07T15:53:06Z</time>
      </trkpt>
      <trkpt lat="45.85228" lon="2.97556">
        <ele>943.2</ele>
        <time>2025-08-07T15:53:07Z</time>
      </trkpt>
      <trkpt lat="45.85226" lon="2.97552">
        <ele>943.6</ele>
        <time>2025-08-07T15:53:08Z</time>
      </trkpt>
      <trkpt lat="45.85224" lon="2.97548">
        <ele>944.2</ele>
        <time>2025-08-07T15:53:09Z</time>
      </trkpt>
      <trkpt lat="45.85222" lon="2.97545">
        <ele>944.6</ele>
        <time>2025-08-07T15:53:10Z</time>
      </trkpt>
      <trkpt lat="45.85221" lon="2.97543">
        <ele>945.2</ele>
        <time>2025-08-07T15:53:11Z</time>
      </trkpt>
      <trkpt lat="45.8522" lon="2.9754">
        <ele>945.6</ele>
        <time>2025-08-07T15:53:12Z</time>
      </trkpt>
      <trkpt lat="45.85219" lon="2.97536">
        <ele>946.2</ele>
        <time>2025-08-07T15:53:13Z</time>
      </trkpt>
      <trkpt lat="45.85218" lon="2.97532">
        <ele>946.8</ele>
        <time>2025-08-07T15:53:14Z</time>
      </trkpt>
      <trkpt lat="45.85217" lon="2.9753">
        <ele>947.2</ele>
        <time>2025-08-07T15:53:15Z</time>
      </trkpt>
      <trkpt lat="45.85215" lon="2.97528">
        <ele>947.8</ele>
        <time>2025-08-07T15:53:16Z</time>
      </trkpt>
      <trkpt lat="45.85212" lon="2.97524">
        <ele>948.2</ele>
        <time>2025-08-07T15:53:17Z</time>
      </trkpt>
      <trkpt lat="45.8521" lon="2.9752">
        <ele>948.8</ele>
        <time>2025-08-07T15:53:18Z</time>
      </trkpt>
      <trkpt lat="45.85209" lon="2.97516">
        <ele>949.4</ele>
        <time>2025-08-07T15:53:19Z</time>
      </trkpt>
      <trkpt lat="45.85206" lon="2.97514">
        <ele>950</ele>
        <time>2025-08-07T15:53:20Z</time>
      </trkpt>
      <trkpt lat="45.85203" lon="2.97509">
        <ele>950.4</ele>
        <time>2025-08-07T15:53:21Z</time>
      </trkpt>
      <trkpt lat="45.85201" lon="2.97504">
        <ele>951</ele>
        <time>2025-08-07T15:53:22Z</time>
      </trkpt>
      <trkpt lat="45.85198" lon="2.97499">
        <ele>951.4</ele>
        <time>2025-08-07T15:53:23Z</time>
      </trkpt>
      <trkpt lat="45.85196" lon="2.97497">
        <ele>952</ele>
        <time>2025-08-07T15:53:24Z</time>
      </trkpt>
      <trkpt lat="45.85196" lon="2.97493">
        <ele>952.6</ele>
        <time>2025-08-07T15:53:25Z</time>
      </trkpt>
      <trkpt lat="45.85196" lon="2.9749">
        <ele>953.2</ele>
        <time>2025-08-07T15:53:26Z</time>
      </trkpt>
      <trkpt lat="45.85195" lon="2.97489">
        <ele>953.6</ele>
        <time>2025-08-07T15:53:27Z</time>
      </trkpt>
      <trkpt lat="45.85193" lon="2.97487">
        <ele>954.2</ele>
        <time>2025-08-07T15:53:28Z</time>
      </trkpt>
      <trkpt lat="45.85191" lon="2.97485">
        <ele>954.8</ele>
        <time>2025-08-07T15:53:29Z</time>
      </trkpt>
      <trkpt lat="45.85187" lon="2.97481">
        <ele>955.4</ele>
        <time>2025-08-07T15:53:30Z</time>
      </trkpt>
      <trkpt lat="45.85185" lon="2.97478">
        <ele>956</ele>
        <time>2025-08-07T15:53:31Z</time>
      </trkpt>
      <trkpt lat="45.85182" lon="2.97477">
        <ele>956.6</ele>
        <time>2025-08-07T15:53:32Z</time>
      </trkpt>
      <trkpt lat="45.85178" lon="2.97476">
        <ele>957</ele>
        <time>2025-08-07T15:53:33Z</time>
      </trkpt>
      <trkpt lat="45.85176" lon="2.97472">
        <ele>957.6</ele>
        <time>2025-08-07T15:53:34Z</time>
      </trkpt>
      <trkpt lat="45.85173" lon="2.9747">
        <ele>958.2</ele>
        <time>2025-08-07T15:53:35Z</time>
      </trkpt>
      <trkpt lat="45.8517" lon="2.97466">
        <ele>958.8</ele>
        <time>2025-08-07T15:53:36Z</time>
      </trkpt>
      <trkpt lat="45.85167" lon="2.97462">
        <ele>959.2</ele>
        <time>2025-08-07T15:53:37Z</time>
      </trkpt>
      <trkpt lat="45.85165" lon="2.97459">
        <ele>959.8</ele>
        <time>2025-08-07T15:53:38Z</time>
      </trkpt>
      <trkpt lat="45.85163" lon="2.97455">
        <ele>960.2</ele>
        <time>2025-08-07T15:53:39Z</time>
      </trkpt>
      <trkpt lat="45.85162" lon="2.97449">
        <ele>960.8</ele>
        <time>2025-08-07T15:53:40Z</time>
      </trkpt>
      <trkpt lat="45.85161" lon="2.97446">
        <ele>961.2</ele>
        <time>2025-08-07T15:53:41Z</time>
      </trkpt>
      <trkpt lat="45.8516" lon="2.97445">
        <ele>961.6</ele>
        <time>2025-08-07T15:53:42Z</time>
      </trkpt>
      <trkpt lat="45.85157" lon="2.97445">
        <ele>962</ele>
        <time>2025-08-07T15:53:43Z</time>
      </trkpt>
      <trkpt lat="45.85157" lon="2.97445">
        <ele>962.4</ele>
        <time>2025-08-07T15:53:44Z</time>
      </trkpt>
      <trkpt lat="45.85155" lon="2.97442">
        <ele>962.8</ele>
        <time>2025-08-07T15:53:45Z</time>
      </trkpt>
      <trkpt lat="45.85153" lon="2.97437">
        <ele>963.2</ele>
        <time>2025-08-07T15:53:46Z</time>
      </trkpt>
      <trkpt lat="45.85151" lon="2.97433">
        <ele>963.6</ele>
        <time>2025-08-07T15:53:47Z</time>
      </trkpt>
      <trkpt lat="45.85151" lon="2.97429">
        <ele>964.2</ele>
        <time>2025-08-07T15:53:48Z</time>
      </trkpt>
      <trkpt lat="45.8515" lon="2.97425">
        <ele>964.6</ele>
        <time>2025-08-07T15:53:49Z</time>
      </trkpt>
      <trkpt lat="45.8515" lon="2.97423">
        <ele>965</ele>
        <time>2025-08-07T15:53:50Z</time>
      </trkpt>
      <trkpt lat="45.85149" lon="2.97421">
        <ele>965.4</ele>
        <time>2025-08-07T15:53:51Z</time>
      </trkpt>
      <trkpt lat="45.85149" lon="2.97419">
        <ele>966</ele>
        <time>2025-08-07T15:53:52Z</time>
      </trkpt>
      <trkpt lat="45.85149" lon="2.97416">
        <ele>966.4</ele>
        <time>2025-08-07T15:53:53Z</time>
      </trkpt>
      <trkpt lat="45.85147" lon="2.97414">
        <ele>967</ele>
        <time>2025-08-07T15:53:54Z</time>
      </trkpt>
      <trkpt lat="45.85146" lon="2.97411">
        <ele>967.4</ele>
        <time>2025-08-07T15:53:55Z</time>
      </trkpt>
      <trkpt lat="45.85144" lon="2.97407">
        <ele>968</ele>
        <time>2025-08-07T15:53:56Z</time>
      </trkpt>
      <trkpt lat="45.85142" lon="2.97405">
        <ele>968.4</ele>
        <time>2025-08-07T15:53:57Z</time>
      </trkpt>
      <trkpt lat="45.85141" lon="2.97403">
        <ele>969</ele>
        <time>2025-08-07T15:53:58Z</time>
      </trkpt>
      <trkpt lat="45.8514" lon="2.974">
        <ele>969.4</ele>
        <time>2025-08-07T15:53:59Z</time>
      </trkpt>
      <trkpt lat="45.85139" lon="2.97397">
        <ele>969.8</ele>
        <time>2025-08-07T15:54:00Z</time>
      </trkpt>
      <trkpt lat="45.85139" lon="2.97397">
        <ele>970.4</ele>
        <time>2025-08-07T15:54:01Z</time>
      </trkpt>
      <trkpt lat="45.85138" lon="2.97395">
        <ele>970.8</ele>
        <time>2025-08-07T15:54:02Z</time>
      </trkpt>
      <trkpt lat="45.85135" lon="2.97393">
        <ele>971.4</ele>
        <time>2025-08-07T15:54:03Z</time>
      </trkpt>
      <trkpt lat="45.85131" lon="2.97389">
        <ele>971.8</ele>
        <time>2025-08-07T15:54:04Z</time>
      </trkpt>
      <trkpt lat="45.85128" lon="2.97388">
        <ele>972.2</ele>
        <time>2025-08-07T15:54:05Z</time>
      </trkpt>
      <trkpt lat="45.85127" lon="2.97387">
        <ele>972.8</ele>
        <time>2025-08-07T15:54:06Z</time>
      </trkpt>
      <trkpt lat="45.85127" lon="2.97387">
        <ele>973.2</ele>
        <time>2025-08-07T15:54:07Z</time>
      </trkpt>
      <trkpt lat="45.85125" lon="2.97386">
        <ele>973.8</ele>
        <time>2025-08-07T15:54:08Z</time>
      </trkpt>
      <trkpt lat="45.85124" lon="2.97384">
        <ele>974.2</ele>
        <time>2025-08-07T15:54:09Z</time>
      </trkpt>
      <trkpt lat="45.85121" lon="2.97383">
        <ele>974.6</ele>
        <time>2025-08-07T15:54:10Z</time>
      </trkpt>
      <trkpt lat="45.85118" lon="2.97382">
        <ele>975.2</ele>
        <time>2025-08-07T15:54:11Z</time>
      </trkpt>
      <trkpt lat="45.85116" lon="2.9738">
        <ele>975.6</ele>
        <time>2025-08-07T15:54:12Z</time>
      </trkpt>
      <trkpt lat="45.85114" lon="2.97379">
        <ele>976.2</ele>
        <time>2025-08-07T15:54:13Z</time>
      </trkpt>
      <trkpt lat="45.85112" lon="2.97378">
        <ele>976.6</ele>
        <time>2025-08-07T15:54:14Z</time>
      </trkpt>
      <trkpt lat="45.85112" lon="2.97375">
        <ele>977.2</ele>
        <time>2025-08-07T15:54:15Z</time>
      </trkpt>
      <trkpt lat="45.85109" lon="2.97373">
        <ele>977.6</ele>
        <time>2025-08-07T15:54:16Z</time>
      </trkpt>
      <trkpt lat="45.85106" lon="2.97371">
        <ele>978.2</ele>
        <time>2025-08-07T15:54:17Z</time>
      </trkpt>
      <trkpt lat="45.85104" lon="2.97368">
        <ele>978.6</ele>
        <time>2025-08-07T15:54:18Z</time>
      </trkpt>
      <trkpt lat="45.851" lon="2.97365">
        <ele>979</ele>
        <time>2025-08-07T15:54:19Z</time>
      </trkpt>
      <trkpt lat="45.85099" lon="2.97362">
        <ele>979.4</ele>
        <time>2025-08-07T15:54:20Z</time>
      </trkpt>
      <trkpt lat="45.85099" lon="2.97359">
        <ele>979.8</ele>
        <time>2025-08-07T15:54:21Z</time>
      </trkpt>
      <trkpt lat="45.85098" lon="2.97355">
        <ele>980.2</ele>
        <time>2025-08-07T15:54:22Z</time>
      </trkpt>
      <trkpt lat="45.85098" lon="2.97352">
        <ele>980.8</ele>
        <time>2025-08-07T15:54:23Z</time>
      </trkpt>
      <trkpt lat="45.85099" lon="2.97348">
        <ele>981.2</ele>
        <time>2025-08-07T15:54:24Z</time>
      </trkpt>
      <trkpt lat="45.851" lon="2.97344">
        <ele>981.6</ele>
        <time>2025-08-07T15:54:25Z</time>
      </trkpt>
      <trkpt lat="45.85102" lon="2.97339">
        <ele>982.2</ele>
        <time>2025-08-07T15:54:26Z</time>
      </trkpt>
      <trkpt lat="45.85105" lon="2.97332">
        <ele>982.6</ele>
        <time>2025-08-07T15:54:27Z</time>
      </trkpt>
      <trkpt lat="45.85107" lon="2.97325">
        <ele>983.2</ele>
        <time>2025-08-07T15:54:28Z</time>
      </trkpt>
      <trkpt lat="45.85108" lon="2.97321">
        <ele>983.6</ele>
        <time>2025-08-07T15:54:29Z</time>
      </trkpt>
      <trkpt lat="45.8511" lon="2.97316">
        <ele>984</ele>
        <time>2025-08-07T15:54:30Z</time>
      </trkpt>
      <trkpt lat="45.85112" lon="2.97311">
        <ele>984.6</ele>
        <time>2025-08-07T15:54:31Z</time>
      </trkpt>
      <trkpt lat="45.85112" lon="2.97308">
        <ele>985</ele>
        <time>2025-08-07T15:54:32Z</time>
      </trkpt>
      <trkpt lat="45.85113" lon="2.97305">
        <ele>985.4</ele>
        <time>2025-08-07T15:54:33Z</time>
      </trkpt>
      <trkpt lat="45.85115" lon="2.97303">
        <ele>986</ele>
        <time>2025-08-07T15:54:34Z</time>
      </trkpt>
      <trkpt lat="45.85116" lon="2.97301">
        <ele>986.4</ele>
        <time>2025-08-07T15:54:35Z</time>
      </trkpt>
      <trkpt lat="45.85118" lon="2.97297">
        <ele>986.8</ele>
        <time>2025-08-07T15:54:36Z</time>
      </trkpt>
      <trkpt lat="45.85119" lon="2.97294">
        <ele>987.2</ele>
        <time>2025-08-07T15:54:37Z</time>
      </trkpt>
      <trkpt lat="45.85121" lon="2.97289">
        <ele>987.6</ele>
        <time>2025-08-07T15:54:38Z</time>
      </trkpt>
      <trkpt lat="45.85124" lon="2.97286">
        <ele>988</ele>
        <time>2025-08-07T15:54:39Z</time>
      </trkpt>
      <trkpt lat="45.85125" lon="2.97283">
        <ele>988.4</ele>
        <time>2025-08-07T15:54:40Z</time>
      </trkpt>
      <trkpt lat="45.85128" lon="2.97279">
        <ele>988.8</ele>
        <time>2025-08-07T15:54:41Z</time>
      </trkpt>
      <trkpt lat="45.85129" lon="2.97278">
        <ele>989.2</ele>
        <time>2025-08-07T15:54:42Z</time>
      </trkpt>
      <trkpt lat="45.85131" lon="2.97275">
        <ele>989.6</ele>
        <time>2025-08-07T15:54:43Z</time>
      </trkpt>
      <trkpt lat="45.85133" lon="2.97272">
        <ele>990</ele>
        <time>2025-08-07T15:54:44Z</time>
      </trkpt>
      <trkpt lat="45.85135" lon="2.97271">
        <ele>990.4</ele>
        <time>2025-08-07T15:54:45Z</time>
      </trkpt>
      <trkpt lat="45.85136" lon="2.97271">
        <ele>990.8</ele>
        <time>2025-08-07T15:54:46Z</time>
      </trkpt>
      <trkpt lat="45.85137" lon="2.9727">
        <ele>991.2</ele>
        <time>2025-08-07T15:54:47Z</time>
      </trkpt>
      <trkpt lat="45.85139" lon="2.97269">
        <ele>991.6</ele>
        <time>2025-08-07T15:54:48Z</time>
      </trkpt>
      <trkpt lat="45.85141" lon="2.97267">
        <ele>992</ele>
        <time>2025-08-07T15:54:49Z</time>
      </trkpt>
      <trkpt lat="45.85144" lon="2.97264">
        <ele>992.4</ele>
        <time>2025-08-07T15:54:50Z</time>
      </trkpt>
      <trkpt lat="45.85148" lon="2.97257">
        <ele>992.8</ele>
        <time>2025-08-07T15:54:51Z</time>
      </trkpt>
      <trkpt lat="45.85151" lon="2.97251">
        <ele>993.2</ele>
        <time>2025-08-07T15:54:52Z</time>
      </trkpt>
      <trkpt lat="45.85155" lon="2.97245">
        <ele>993.6</ele>
        <time>2025-08-07T15:54:53Z</time>
      </trkpt>
      <trkpt lat="45.85158" lon="2.97239">
        <ele>993.8</ele>
        <time>2025-08-07T15:54:54Z</time>
      </trkpt>
      <trkpt lat="45.8516" lon="2.97233">
        <ele>994</ele>
        <time>2025-08-07T15:54:55Z</time>
      </trkpt>
      <trkpt lat="45.85162" lon="2.9723">
        <ele>994.2</ele>
        <time>2025-08-07T15:54:56Z</time>
      </trkpt>
      <trkpt lat="45.85162" lon="2.97227">
        <ele>994.4</ele>
        <time>2025-08-07T15:54:57Z</time>
      </trkpt>
      <trkpt lat="45.85163" lon="2.97223">
        <ele>994.6</ele>
        <time>2025-08-07T15:54:58Z</time>
      </trkpt>
      <trkpt lat="45.85164" lon="2.97219">
        <ele>994.6</ele>
        <time>2025-08-07T15:54:59Z</time>
      </trkpt>
      <trkpt lat="45.85166" lon="2.97214">
        <ele>994.6</ele>
        <time>2025-08-07T15:55:00Z</time>
      </trkpt>
      <trkpt lat="45.85168" lon="2.97209">
        <ele>994.6</ele>
        <time>2025-08-07T15:55:01Z</time>
      </trkpt>
      <trkpt lat="45.8517" lon="2.97204">
        <ele>994.8</ele>
        <time>2025-08-07T15:55:02Z</time>
      </trkpt>
      <trkpt lat="45.85173" lon="2.97199">
        <ele>995</ele>
        <time>2025-08-07T15:55:03Z</time>
      </trkpt>
      <trkpt lat="45.85176" lon="2.97196">
        <ele>995</ele>
        <time>2025-08-07T15:55:04Z</time>
      </trkpt>
      <trkpt lat="45.85176" lon="2.97193">
        <ele>995.2</ele>
        <time>2025-08-07T15:55:05Z</time>
      </trkpt>
      <trkpt lat="45.85178" lon="2.97191">
        <ele>995.2</ele>
        <time>2025-08-07T15:55:06Z</time>
      </trkpt>
      <trkpt lat="45.8518" lon="2.97185">
        <ele>995.4</ele>
        <time>2025-08-07T15:55:07Z</time>
      </trkpt>
      <trkpt lat="45.85183" lon="2.9718">
        <ele>995.4</ele>
        <time>2025-08-07T15:55:08Z</time>
      </trkpt>
      <trkpt lat="45.85186" lon="2.97175">
        <ele>995.4</ele>
        <time>2025-08-07T15:55:09Z</time>
      </trkpt>
      <trkpt lat="45.8519" lon="2.9717">
        <ele>995.6</ele>
        <time>2025-08-07T15:55:10Z</time>
      </trkpt>
      <trkpt lat="45.85193" lon="2.97164">
        <ele>995.6</ele>
        <time>2025-08-07T15:55:11Z</time>
      </trkpt>
      <trkpt lat="45.85196" lon="2.9716">
        <ele>995.6</ele>
        <time>2025-08-07T15:55:12Z</time>
      </trkpt>
      <trkpt lat="45.85199" lon="2.97155">
        <ele>995.8</ele>
        <time>2025-08-07T15:55:13Z</time>
      </trkpt>
      <trkpt lat="45.85201" lon="2.97152">
        <ele>995.8</ele>
        <time>2025-08-07T15:55:14Z</time>
      </trkpt>
      <trkpt lat="45.85207" lon="2.97147">
        <ele>995.8</ele>
        <time>2025-08-07T15:55:15Z</time>
      </trkpt>
      <trkpt lat="45.85209" lon="2.97141">
        <ele>996</ele>
        <time>2025-08-07T15:55:16Z</time>
      </trkpt>
      <trkpt lat="45.85211" lon="2.97135">
        <ele>996</ele>
        <time>2025-08-07T15:55:17Z</time>
      </trkpt>
      <trkpt lat="45.85213" lon="2.97129">
        <ele>996.2</ele>
        <time>2025-08-07T15:55:18Z</time>
      </trkpt>
      <trkpt lat="45.85216" lon="2.97123">
        <ele>996.4</ele>
        <time>2025-08-07T15:55:19Z</time>
      </trkpt>
      <trkpt lat="45.85218" lon="2.97117">
        <ele>996.4</ele>
        <time>2025-08-07T15:55:20Z</time>
      </trkpt>
      <trkpt lat="45.85219" lon="2.97112">
        <ele>996.6</ele>
        <time>2025-08-07T15:55:21Z</time>
      </trkpt>
      <trkpt lat="45.85218" lon="2.97107">
        <ele>996.6</ele>
        <time>2025-08-07T15:55:22Z</time>
      </trkpt>
      <trkpt lat="45.85218" lon="2.971">
        <ele>996.8</ele>
        <time>2025-08-07T15:55:23Z</time>
      </trkpt>
      <trkpt lat="45.85219" lon="2.97092">
        <ele>996.8</ele>
        <time>2025-08-07T15:55:24Z</time>
      </trkpt>
      <trkpt lat="45.85222" lon="2.97084">
        <ele>996.8</ele>
        <time>2025-08-07T15:55:25Z</time>
      </trkpt>
      <trkpt lat="45.85225" lon="2.97077">
        <ele>997</ele>
        <time>2025-08-07T15:55:26Z</time>
      </trkpt>
      <trkpt lat="45.85229" lon="2.97069">
        <ele>997</ele>
        <time>2025-08-07T15:55:27Z</time>
      </trkpt>
      <trkpt lat="45.85232" lon="2.97064">
        <ele>997</ele>
        <time>2025-08-07T15:55:28Z</time>
      </trkpt>
      <trkpt lat="45.85233" lon="2.9706">
        <ele>997.2</ele>
        <time>2025-08-07T15:55:29Z</time>
      </trkpt>
      <trkpt lat="45.85234" lon="2.97056">
        <ele>997.2</ele>
        <time>2025-08-07T15:55:30Z</time>
      </trkpt>
      <trkpt lat="45.85239" lon="2.9705">
        <ele>997.4</ele>
        <time>2025-08-07T15:55:31Z</time>
      </trkpt>
      <trkpt lat="45.85242" lon="2.97046">
        <ele>997.4</ele>
        <time>2025-08-07T15:55:32Z</time>
      </trkpt>
      <trkpt lat="45.85243" lon="2.97042">
        <ele>997.4</ele>
        <time>2025-08-07T15:55:33Z</time>
      </trkpt>
      <trkpt lat="45.85248" lon="2.97037">
        <ele>997.6</ele>
        <time>2025-08-07T15:55:34Z</time>
      </trkpt>
      <trkpt lat="45.85252" lon="2.97031">
        <ele>997.8</ele>
        <time>2025-08-07T15:55:35Z</time>
      </trkpt>
      <trkpt lat="45.85253" lon="2.97023">
        <ele>997.8</ele>
        <time>2025-08-07T15:55:36Z</time>
      </trkpt>
      <trkpt lat="45.85252" lon="2.97016">
        <ele>998</ele>
        <time>2025-08-07T15:55:37Z</time>
      </trkpt>
      <trkpt lat="45.85252" lon="2.9701">
        <ele>998</ele>
        <time>2025-08-07T15:55:38Z</time>
      </trkpt>
      <trkpt lat="45.85252" lon="2.97005">
        <ele>998.2</ele>
        <time>2025-08-07T15:55:39Z</time>
      </trkpt>
      <trkpt lat="45.85251" lon="2.97001">
        <ele>998.4</ele>
        <time>2025-08-07T15:55:40Z</time>
      </trkpt>
      <trkpt lat="45.85249" lon="2.96996">
        <ele>998.4</ele>
        <time>2025-08-07T15:55:41Z</time>
      </trkpt>
      <trkpt lat="45.85247" lon="2.96991">
        <ele>998.6</ele>
        <time>2025-08-07T15:55:42Z</time>
      </trkpt>
      <trkpt lat="45.85247" lon="2.96983">
        <ele>998.8</ele>
        <time>2025-08-07T15:55:43Z</time>
      </trkpt>
      <trkpt lat="45.85247" lon="2.96974">
        <ele>998.8</ele>
        <time>2025-08-07T15:55:44Z</time>
      </trkpt>
      <trkpt lat="45.85249" lon="2.96965">
        <ele>999</ele>
        <time>2025-08-07T15:55:45Z</time>
      </trkpt>
      <trkpt lat="45.8525" lon="2.96957">
        <ele>999.2</ele>
        <time>2025-08-07T15:55:46Z</time>
      </trkpt>
      <trkpt lat="45.85252" lon="2.9695">
        <ele>999.4</ele>
        <time>2025-08-07T15:55:47Z</time>
      </trkpt>
      <trkpt lat="45.85253" lon="2.96944">
        <ele>999.6</ele>
        <time>2025-08-07T15:55:48Z</time>
      </trkpt>
      <trkpt lat="45.85255" lon="2.96938">
        <ele>999.8</ele>
        <time>2025-08-07T15:55:49Z</time>
      </trkpt>
      <trkpt lat="45.85256" lon="2.96932">
        <ele>1000</ele>
        <time>2025-08-07T15:55:50Z</time>
      </trkpt>
      <trkpt lat="45.85257" lon="2.96928">
        <ele>1000.2</ele>
        <time>2025-08-07T15:55:51Z</time>
      </trkpt>
      <trkpt lat="45.85258" lon="2.96925">
        <ele>1000.4</ele>
        <time>2025-08-07T15:55:52Z</time>
      </trkpt>
      <trkpt lat="45.85261" lon="2.9692">
        <ele>1000.6</ele>
        <time>2025-08-07T15:55:53Z</time>
      </trkpt>
      <trkpt lat="45.85263" lon="2.96915">
        <ele>1000.8</ele>
        <time>2025-08-07T15:55:54Z</time>
      </trkpt>
      <trkpt lat="45.85264" lon="2.96909">
        <ele>1001</ele>
        <time>2025-08-07T15:55:55Z</time>
      </trkpt>
      <trkpt lat="45.85263" lon="2.96904">
        <ele>1001.2</ele>
        <time>2025-08-07T15:55:56Z</time>
      </trkpt>
      <trkpt lat="45.85263" lon="2.96899">
        <ele>1001.6</ele>
        <time>2025-08-07T15:55:57Z</time>
      </trkpt>
      <trkpt lat="45.8526" lon="2.96895">
        <ele>1001.8</ele>
        <time>2025-08-07T15:55:58Z</time>
      </trkpt>
      <trkpt lat="45.85259" lon="2.96891">
        <ele>1002</ele>
        <time>2025-08-07T15:55:59Z</time>
      </trkpt>
      <trkpt lat="45.85256" lon="2.96885">
        <ele>1002.2</ele>
        <time>2025-08-07T15:56:00Z</time>
      </trkpt>
      <trkpt lat="45.85254" lon="2.9688">
        <ele>1002.6</ele>
        <time>2025-08-07T15:56:01Z</time>
      </trkpt>
      <trkpt lat="45.85252" lon="2.96875">
        <ele>1002.8</ele>
        <time>2025-08-07T15:56:02Z</time>
      </trkpt>
      <trkpt lat="45.85248" lon="2.96866">
        <ele>1003</ele>
        <time>2025-08-07T15:56:03Z</time>
      </trkpt>
      <trkpt lat="45.85247" lon="2.96862">
        <ele>1003.2</ele>
        <time>2025-08-07T15:56:04Z</time>
      </trkpt>
      <trkpt lat="45.85245" lon="2.96854">
        <ele>1003.4</ele>
        <time>2025-08-07T15:56:05Z</time>
      </trkpt>
      <trkpt lat="45.85242" lon="2.96849">
        <ele>1003.6</ele>
        <time>2025-08-07T15:56:06Z</time>
      </trkpt>
      <trkpt lat="45.85241" lon="2.96845">
        <ele>1004</ele>
        <time>2025-08-07T15:56:07Z</time>
      </trkpt>
      <trkpt lat="45.8524" lon="2.9684">
        <ele>1004.2</ele>
        <time>2025-08-07T15:56:08Z</time>
      </trkpt>
      <trkpt lat="45.8524" lon="2.96834">
        <ele>1004.4</ele>
        <time>2025-08-07T15:56:09Z</time>
      </trkpt>
      <trkpt lat="45.85241" lon="2.96826">
        <ele>1004.6</ele>
        <time>2025-08-07T15:56:10Z</time>
      </trkpt>
      <trkpt lat="45.85245" lon="2.96818">
        <ele>1004.8</ele>
        <time>2025-08-07T15:56:11Z</time>
      </trkpt>
      <trkpt lat="45.85249" lon="2.96809">
        <ele>1005</ele>
        <time>2025-08-07T15:56:12Z</time>
      </trkpt>
      <trkpt lat="45.85252" lon="2.96802">
        <ele>1005.2</ele>
        <time>2025-08-07T15:56:13Z</time>
      </trkpt>
      <trkpt lat="45.85255" lon="2.96795">
        <ele>1005.4</ele>
        <time>2025-08-07T15:56:14Z</time>
      </trkpt>
      <trkpt lat="45.85255" lon="2.96789">
        <ele>1005.8</ele>
        <time>2025-08-07T15:56:15Z</time>
      </trkpt>
      <trkpt lat="45.85257" lon="2.96783">
        <ele>1006</ele>
        <time>2025-08-07T15:56:16Z</time>
      </trkpt>
      <trkpt lat="45.8526" lon="2.96775">
        <ele>1006.2</ele>
        <time>2025-08-07T15:56:17Z</time>
      </trkpt>
      <trkpt lat="45.85261" lon="2.96769">
        <ele>1006.2</ele>
        <time>2025-08-07T15:56:18Z</time>
      </trkpt>
      <trkpt lat="45.85264" lon="2.96764">
        <ele>1006.4</ele>
        <time>2025-08-07T15:56:19Z</time>
      </trkpt>
      <trkpt lat="45.85266" lon="2.96759">
        <ele>1006.6</ele>
        <time>2025-08-07T15:56:20Z</time>
      </trkpt>
      <trkpt lat="45.85269" lon="2.96754">
        <ele>1006.6</ele>
        <time>2025-08-07T15:56:21Z</time>
      </trkpt>
      <trkpt lat="45.85272" lon="2.96749">
        <ele>1006.8</ele>
        <time>2025-08-07T15:56:22Z</time>
      </trkpt>
      <trkpt lat="45.85274" lon="2.96744">
        <ele>1006.8</ele>
        <time>2025-08-07T15:56:23Z</time>
      </trkpt>
      <trkpt lat="45.85277" lon="2.9674">
        <ele>1006.8</ele>
        <time>2025-08-07T15:56:24Z</time>
      </trkpt>
      <trkpt lat="45.8528" lon="2.96737">
        <ele>1007</ele>
        <time>2025-08-07T15:56:25Z</time>
      </trkpt>
      <trkpt lat="45.85285" lon="2.96732">
        <ele>1007</ele>
        <time>2025-08-07T15:56:26Z</time>
      </trkpt>
      <trkpt lat="45.8529" lon="2.96727">
        <ele>1006.8</ele>
        <time>2025-08-07T15:56:27Z</time>
      </trkpt>
      <trkpt lat="45.85292" lon="2.96719">
        <ele>1006.8</ele>
        <time>2025-08-07T15:56:28Z</time>
      </trkpt>
      <trkpt lat="45.85294" lon="2.9671">
        <ele>1006.8</ele>
        <time>2025-08-07T15:56:29Z</time>
      </trkpt>
      <trkpt lat="45.85298" lon="2.96703">
        <ele>1006.8</ele>
        <time>2025-08-07T15:56:30Z</time>
      </trkpt>
      <trkpt lat="45.85299" lon="2.96698">
        <ele>1007</ele>
        <time>2025-08-07T15:56:31Z</time>
      </trkpt>
      <trkpt lat="45.853" lon="2.96694">
        <ele>1007</ele>
        <time>2025-08-07T15:56:32Z</time>
      </trkpt>
      <trkpt lat="45.853" lon="2.96689">
        <ele>1007</ele>
        <time>2025-08-07T15:56:33Z</time>
      </trkpt>
      <trkpt lat="45.85298" lon="2.96684">
        <ele>1007.2</ele>
        <time>2025-08-07T15:56:34Z</time>
      </trkpt>
      <trkpt lat="45.85299" lon="2.96678">
        <ele>1007.4</ele>
        <time>2025-08-07T15:56:35Z</time>
      </trkpt>
      <trkpt lat="45.853" lon="2.96671">
        <ele>1007.4</ele>
        <time>2025-08-07T15:56:36Z</time>
      </trkpt>
      <trkpt lat="45.85302" lon="2.96665">
        <ele>1007.6</ele>
        <time>2025-08-07T15:56:37Z</time>
      </trkpt>
      <trkpt lat="45.85302" lon="2.96659">
        <ele>1007.8</ele>
        <time>2025-08-07T15:56:38Z</time>
      </trkpt>
      <trkpt lat="45.85301" lon="2.96654">
        <ele>1008</ele>
        <time>2025-08-07T15:56:39Z</time>
      </trkpt>
      <trkpt lat="45.85302" lon="2.96649">
        <ele>1008.2</ele>
        <time>2025-08-07T15:56:40Z</time>
      </trkpt>
      <trkpt lat="45.85302" lon="2.96644">
        <ele>1008.4</ele>
        <time>2025-08-07T15:56:41Z</time>
      </trkpt>
      <trkpt lat="45.85301" lon="2.9664">
        <ele>1008.6</ele>
        <time>2025-08-07T15:56:42Z</time>
      </trkpt>
      <trkpt lat="45.85297" lon="2.96636">
        <ele>1009</ele>
        <time>2025-08-07T15:56:43Z</time>
      </trkpt>
      <trkpt lat="45.85296" lon="2.96635">
        <ele>1009.2</ele>
        <time>2025-08-07T15:56:44Z</time>
      </trkpt>
      <trkpt lat="45.85294" lon="2.96634">
        <ele>1009.2</ele>
        <time>2025-08-07T15:56:45Z</time>
      </trkpt>
      <trkpt lat="45.8529" lon="2.96632">
        <ele>1009.4</ele>
        <time>2025-08-07T15:56:46Z</time>
      </trkpt>
      <trkpt lat="45.85288" lon="2.9663">
        <ele>1009.6</ele>
        <time>2025-08-07T15:56:47Z</time>
      </trkpt>
      <trkpt lat="45.85286" lon="2.96627">
        <ele>1009.8</ele>
        <time>2025-08-07T15:56:48Z</time>
      </trkpt>
      <trkpt lat="45.85284" lon="2.96623">
        <ele>1010</ele>
        <time>2025-08-07T15:56:49Z</time>
      </trkpt>
      <trkpt lat="45.85281" lon="2.96619">
        <ele>1010.4</ele>
        <time>2025-08-07T15:56:50Z</time>
      </trkpt>
      <trkpt lat="45.85277" lon="2.96616">
        <ele>1010.6</ele>
        <time>2025-08-07T15:56:51Z</time>
      </trkpt>
      <trkpt lat="45.85274" lon="2.96613">
        <ele>1010.8</ele>
        <time>2025-08-07T15:56:52Z</time>
      </trkpt>
      <trkpt lat="45.8527" lon="2.9661">
        <ele>1011</ele>
        <time>2025-08-07T15:56:53Z</time>
      </trkpt>
      <trkpt lat="45.85267" lon="2.96606">
        <ele>1011.2</ele>
        <time>2025-08-07T15:56:54Z</time>
      </trkpt>
      <trkpt lat="45.85266" lon="2.96602">
        <ele>1011.4</ele>
        <time>2025-08-07T15:56:55Z</time>
      </trkpt>
      <trkpt lat="45.85264" lon="2.96598">
        <ele>1011.6</ele>
        <time>2025-08-07T15:56:56Z</time>
      </trkpt>
      <trkpt lat="45.85263" lon="2.96593">
        <ele>1011.8</ele>
        <time>2025-08-07T15:56:57Z</time>
      </trkpt>
      <trkpt lat="45.85262" lon="2.96589">
        <ele>1012</ele>
        <time>2025-08-07T15:56:58Z</time>
      </trkpt>
      <trkpt lat="45.85261" lon="2.96585">
        <ele>1012.2</ele>
        <time>2025-08-07T15:56:59Z</time>
      </trkpt>
      <trkpt lat="45.85261" lon="2.96579">
        <ele>1012.4</ele>
        <time>2025-08-07T15:57:00Z</time>
      </trkpt>
      <trkpt lat="45.8526" lon="2.96572">
        <ele>1012.6</ele>
        <time>2025-08-07T15:57:01Z</time>
      </trkpt>
      <trkpt lat="45.85258" lon="2.96566">
        <ele>1012.8</ele>
        <time>2025-08-07T15:57:02Z</time>
      </trkpt>
      <trkpt lat="45.85256" lon="2.96561">
        <ele>1013.2</ele>
        <time>2025-08-07T15:57:03Z</time>
      </trkpt>
      <trkpt lat="45.85252" lon="2.96553">
        <ele>1013.4</ele>
        <time>2025-08-07T15:57:04Z</time>
      </trkpt>
      <trkpt lat="45.85249" lon="2.96548">
        <ele>1013.6</ele>
        <time>2025-08-07T15:57:05Z</time>
      </trkpt>
      <trkpt lat="45.85248" lon="2.96544">
        <ele>1013.8</ele>
        <time>2025-08-07T15:57:06Z</time>
      </trkpt>
      <trkpt lat="45.85246" lon="2.96539">
        <ele>1014.2</ele>
        <time>2025-08-07T15:57:07Z</time>
      </trkpt>
      <trkpt lat="45.85244" lon="2.96533">
        <ele>1014.4</ele>
        <time>2025-08-07T15:57:08Z</time>
      </trkpt>
      <trkpt lat="45.8524" lon="2.96524">
        <ele>1014.6</ele>
        <time>2025-08-07T15:57:09Z</time>
      </trkpt>
      <trkpt lat="45.85235" lon="2.96516">
        <ele>1015</ele>
        <time>2025-08-07T15:57:10Z</time>
      </trkpt>
      <trkpt lat="45.8523" lon="2.9651">
        <ele>1015.2</ele>
        <time>2025-08-07T15:57:11Z</time>
      </trkpt>
      <trkpt lat="45.85229" lon="2.96503">
        <ele>1015.6</ele>
        <time>2025-08-07T15:57:12Z</time>
      </trkpt>
      <trkpt lat="45.85227" lon="2.96498">
        <ele>1016</ele>
        <time>2025-08-07T15:57:13Z</time>
      </trkpt>
      <trkpt lat="45.85224" lon="2.96493">
        <ele>1016.2</ele>
        <time>2025-08-07T15:57:14Z</time>
      </trkpt>
      <trkpt lat="45.85222" lon="2.96488">
        <ele>1016.6</ele>
        <time>2025-08-07T15:57:15Z</time>
      </trkpt>
      <trkpt lat="45.8522" lon="2.96481">
        <ele>1017</ele>
        <time>2025-08-07T15:57:16Z</time>
      </trkpt>
      <trkpt lat="45.85217" lon="2.96474">
        <ele>1017.2</ele>
        <time>2025-08-07T15:57:17Z</time>
      </trkpt>
      <trkpt lat="45.85214" lon="2.96468">
        <ele>1017.6</ele>
        <time>2025-08-07T15:57:18Z</time>
      </trkpt>
      <trkpt lat="45.85211" lon="2.9646">
        <ele>1018</ele>
        <time>2025-08-07T15:57:19Z</time>
      </trkpt>
      <trkpt lat="45.85208" lon="2.96452">
        <ele>1018.4</ele>
        <time>2025-08-07T15:57:20Z</time>
      </trkpt>
      <trkpt lat="45.85206" lon="2.96446">
        <ele>1018.8</ele>
        <time>2025-08-07T15:57:21Z</time>
      </trkpt>
      <trkpt lat="45.85205" lon="2.96439">
        <ele>1019.2</ele>
        <time>2025-08-07T15:57:22Z</time>
      </trkpt>
      <trkpt lat="45.85202" lon="2.96435">
        <ele>1019.4</ele>
        <time>2025-08-07T15:57:23Z</time>
      </trkpt>
      <trkpt lat="45.85201" lon="2.96431">
        <ele>1019.8</ele>
        <time>2025-08-07T15:57:24Z</time>
      </trkpt>
      <trkpt lat="45.85197" lon="2.96428">
        <ele>1020.2</ele>
        <time>2025-08-07T15:57:25Z</time>
      </trkpt>
      <trkpt lat="45.85193" lon="2.96426">
        <ele>1020.4</ele>
        <time>2025-08-07T15:57:26Z</time>
      </trkpt>
      <trkpt lat="45.85188" lon="2.96422">
        <ele>1020.6</ele>
        <time>2025-08-07T15:57:27Z</time>
      </trkpt>
      <trkpt lat="45.85183" lon="2.96417">
        <ele>1021</ele>
        <time>2025-08-07T15:57:28Z</time>
      </trkpt>
      <trkpt lat="45.85177" lon="2.96412">
        <ele>1021.2</ele>
        <time>2025-08-07T15:57:29Z</time>
      </trkpt>
      <trkpt lat="45.85172" lon="2.96405">
        <ele>1021.4</ele>
        <time>2025-08-07T15:57:30Z</time>
      </trkpt>
      <trkpt lat="45.85168" lon="2.96399">
        <ele>1021.4</ele>
        <time>2025-08-07T15:57:31Z</time>
      </trkpt>
      <trkpt lat="45.85164" lon="2.96394">
        <ele>1021.6</ele>
        <time>2025-08-07T15:57:32Z</time>
      </trkpt>
      <trkpt lat="45.85163" lon="2.96388">
        <ele>1021.8</ele>
        <time>2025-08-07T15:57:33Z</time>
      </trkpt>
      <trkpt lat="45.85163" lon="2.96385">
        <ele>1021.8</ele>
        <time>2025-08-07T15:57:34Z</time>
      </trkpt>
      <trkpt lat="45.85162" lon="2.96383">
        <ele>1021.8</ele>
        <time>2025-08-07T15:57:35Z</time>
      </trkpt>
      <trkpt lat="45.85159" lon="2.96382">
        <ele>1021.8</ele>
        <time>2025-08-07T15:57:36Z</time>
      </trkpt>
      <trkpt lat="45.85156" lon="2.9638">
        <ele>1021.8</ele>
        <time>2025-08-07T15:57:37Z</time>
      </trkpt>
      <trkpt lat="45.85153" lon="2.96378">
        <ele>1021.8</ele>
        <time>2025-08-07T15:57:38Z</time>
      </trkpt>
      <trkpt lat="45.8515" lon="2.96374">
        <ele>1021.6</ele>
        <time>2025-08-07T15:57:39Z</time>
      </trkpt>
      <trkpt lat="45.85149" lon="2.9637">
        <ele>1021.6</ele>
        <time>2025-08-07T15:57:40Z</time>
      </trkpt>
      <trkpt lat="45.85148" lon="2.96364">
        <ele>1021.4</ele>
        <time>2025-08-07T15:57:41Z</time>
      </trkpt>
      <trkpt lat="45.85143" lon="2.96358">
        <ele>1021.2</ele>
        <time>2025-08-07T15:57:42Z</time>
      </trkpt>
      <trkpt lat="45.85138" lon="2.96352">
        <ele>1021</ele>
        <time>2025-08-07T15:57:43Z</time>
      </trkpt>
      <trkpt lat="45.85133" lon="2.96345">
        <ele>1020.8</ele>
        <time>2025-08-07T15:57:44Z</time>
      </trkpt>
      <trkpt lat="45.85126" lon="2.96337">
        <ele>1020.6</ele>
        <time>2025-08-07T15:57:45Z</time>
      </trkpt>
      <trkpt lat="45.85118" lon="2.96327">
        <ele>1020.4</ele>
        <time>2025-08-07T15:57:46Z</time>
      </trkpt>
      <trkpt lat="45.85111" lon="2.96313">
        <ele>1020</ele>
        <time>2025-08-07T15:57:47Z</time>
      </trkpt>
      <trkpt lat="45.85104" lon="2.96303">
        <ele>1019.6</ele>
        <time>2025-08-07T15:57:48Z</time>
      </trkpt>
      <trkpt lat="45.85097" lon="2.96297">
        <ele>1019</ele>
        <time>2025-08-07T15:57:49Z</time>
      </trkpt>
      <trkpt lat="45.85092" lon="2.9629">
        <ele>1018.4</ele>
        <time>2025-08-07T15:57:50Z</time>
      </trkpt>
      <trkpt lat="45.85087" lon="2.96283">
        <ele>1017.8</ele>
        <time>2025-08-07T15:57:51Z</time>
      </trkpt>
      <trkpt lat="45.85083" lon="2.96275">
        <ele>1017.2</ele>
        <time>2025-08-07T15:57:52Z</time>
      </trkpt>
      <trkpt lat="45.85077" lon="2.96265">
        <ele>1016.6</ele>
        <time>2025-08-07T15:57:53Z</time>
      </trkpt>
      <trkpt lat="45.85072" lon="2.96259">
        <ele>1015.8</ele>
        <time>2025-08-07T15:57:54Z</time>
      </trkpt>
      <trkpt lat="45.85067" lon="2.96253">
        <ele>1015.2</ele>
        <time>2025-08-07T15:57:55Z</time>
      </trkpt>
      <trkpt lat="45.8506" lon="2.96245">
        <ele>1014.6</ele>
        <time>2025-08-07T15:57:56Z</time>
      </trkpt>
      <trkpt lat="45.85055" lon="2.96237">
        <ele>1013.8</ele>
        <time>2025-08-07T15:57:57Z</time>
      </trkpt>
      <trkpt lat="45.85053" lon="2.96228">
        <ele>1013.2</ele>
        <time>2025-08-07T15:57:58Z</time>
      </trkpt>
      <trkpt lat="45.85052" lon="2.96218">
        <ele>1012.2</ele>
        <time>2025-08-07T15:57:59Z</time>
      </trkpt>
      <trkpt lat="45.8505" lon="2.96211">
        <ele>1011.4</ele>
        <time>2025-08-07T15:58:00Z</time>
      </trkpt>
      <trkpt lat="45.85049" lon="2.96205">
        <ele>1010.6</ele>
        <time>2025-08-07T15:58:01Z</time>
      </trkpt>
      <trkpt lat="45.85046" lon="2.96199">
        <ele>1009.8</ele>
        <time>2025-08-07T15:58:02Z</time>
      </trkpt>
      <trkpt lat="45.85043" lon="2.9619">
        <ele>1009.2</ele>
        <time>2025-08-07T15:58:03Z</time>
      </trkpt>
      <trkpt lat="45.8504" lon="2.96184">
        <ele>1008.4</ele>
        <time>2025-08-07T15:58:04Z</time>
      </trkpt>
      <trkpt lat="45.85036" lon="2.96178">
        <ele>1007.4</ele>
        <time>2025-08-07T15:58:05Z</time>
      </trkpt>
      <trkpt lat="45.85033" lon="2.96173">
        <ele>1006.6</ele>
        <time>2025-08-07T15:58:06Z</time>
      </trkpt>
      <trkpt lat="45.85031" lon="2.9617">
        <ele>1005.8</ele>
        <time>2025-08-07T15:58:07Z</time>
      </trkpt>
      <trkpt lat="45.85029" lon="2.96167">
        <ele>1005.2</ele>
        <time>2025-08-07T15:58:08Z</time>
      </trkpt>
      <trkpt lat="45.85026" lon="2.96162">
        <ele>1004.4</ele>
        <time>2025-08-07T15:58:09Z</time>
      </trkpt>
      <trkpt lat="45.85023" lon="2.96158">
        <ele>1003.8</ele>
        <time>2025-08-07T15:58:10Z</time>
      </trkpt>
      <trkpt lat="45.85018" lon="2.96152">
        <ele>1003.2</ele>
        <time>2025-08-07T15:58:11Z</time>
      </trkpt>
      <trkpt lat="45.85011" lon="2.96147">
        <ele>1002.8</ele>
        <time>2025-08-07T15:58:12Z</time>
      </trkpt>
      <trkpt lat="45.85004" lon="2.96141">
        <ele>1002.2</ele>
        <time>2025-08-07T15:58:13Z</time>
      </trkpt>
      <trkpt lat="45.84998" lon="2.96138">
        <ele>1001.8</ele>
        <time>2025-08-07T15:58:14Z</time>
      </trkpt>
      <trkpt lat="45.84992" lon="2.96135">
        <ele>1001.2</ele>
        <time>2025-08-07T15:58:15Z</time>
      </trkpt>
      <trkpt lat="45.84988" lon="2.96129">
        <ele>1000.6</ele>
        <time>2025-08-07T15:58:16Z</time>
      </trkpt>
      <trkpt lat="45.84983" lon="2.96126">
        <ele>1000.2</ele>
        <time>2025-08-07T15:58:17Z</time>
      </trkpt>
      <trkpt lat="45.8498" lon="2.96118">
        <ele>999.6</ele>
        <time>2025-08-07T15:58:18Z</time>
      </trkpt>
      <trkpt lat="45.84972" lon="2.96108">
        <ele>999</ele>
        <time>2025-08-07T15:58:19Z</time>
      </trkpt>
      <trkpt lat="45.84965" lon="2.96096">
        <ele>998.4</ele>
        <time>2025-08-07T15:58:20Z</time>
      </trkpt>
      <trkpt lat="45.84958" lon="2.96087">
        <ele>997.8</ele>
        <time>2025-08-07T15:58:21Z</time>
      </trkpt>
      <trkpt lat="45.84951" lon="2.96079">
        <ele>997.4</ele>
        <time>2025-08-07T15:58:22Z</time>
      </trkpt>
      <trkpt lat="45.84945" lon="2.96075">
        <ele>997</ele>
        <time>2025-08-07T15:58:23Z</time>
      </trkpt>
      <trkpt lat="45.84938" lon="2.96072">
        <ele>996.6</ele>
        <time>2025-08-07T15:58:24Z</time>
      </trkpt>
      <trkpt lat="45.8493" lon="2.96067">
        <ele>996.2</ele>
        <time>2025-08-07T15:58:25Z</time>
      </trkpt>
      <trkpt lat="45.84922" lon="2.9606">
        <ele>995.8</ele>
        <time>2025-08-07T15:58:26Z</time>
      </trkpt>
      <trkpt lat="45.84913" lon="2.96051">
        <ele>995.4</ele>
        <time>2025-08-07T15:58:27Z</time>
      </trkpt>
      <trkpt lat="45.84907" lon="2.96046">
        <ele>995.2</ele>
        <time>2025-08-07T15:58:28Z</time>
      </trkpt>
      <trkpt lat="45.849" lon="2.96042">
        <ele>995</ele>
        <time>2025-08-07T15:58:29Z</time>
      </trkpt>
      <trkpt lat="45.84895" lon="2.96038">
        <ele>994.8</ele>
        <time>2025-08-07T15:58:30Z</time>
      </trkpt>
      <trkpt lat="45.84892" lon="2.96035">
        <ele>994.6</ele>
        <time>2025-08-07T15:58:31Z</time>
      </trkpt>
      <trkpt lat="45.84889" lon="2.96032">
        <ele>994.4</ele>
        <time>2025-08-07T15:58:32Z</time>
      </trkpt>
      <trkpt lat="45.84887" lon="2.96029">
        <ele>994.2</ele>
        <time>2025-08-07T15:58:33Z</time>
      </trkpt>
      <trkpt lat="45.84885" lon="2.96026">
        <ele>993.8</ele>
        <time>2025-08-07T15:58:34Z</time>
      </trkpt>
      <trkpt lat="45.84883" lon="2.96024">
        <ele>993.6</ele>
        <time>2025-08-07T15:58:35Z</time>
      </trkpt>
      <trkpt lat="45.84881" lon="2.96022">
        <ele>993.2</ele>
        <time>2025-08-07T15:58:36Z</time>
      </trkpt>
      <trkpt lat="45.84879" lon="2.96019">
        <ele>992.6</ele>
        <time>2025-08-07T15:58:37Z</time>
      </trkpt>
      <trkpt lat="45.84877" lon="2.96017">
        <ele>992</ele>
        <time>2025-08-07T15:58:38Z</time>
      </trkpt>
      <trkpt lat="45.84874" lon="2.96014">
        <ele>991.6</ele>
        <time>2025-08-07T15:58:39Z</time>
      </trkpt>
      <trkpt lat="45.8487" lon="2.9601">
        <ele>991.2</ele>
        <time>2025-08-07T15:58:40Z</time>
      </trkpt>
      <trkpt lat="45.84864" lon="2.96006">
        <ele>990.8</ele>
        <time>2025-08-07T15:58:41Z</time>
      </trkpt>
      <trkpt lat="45.84859" lon="2.96001">
        <ele>990.6</ele>
        <time>2025-08-07T15:58:42Z</time>
      </trkpt>
      <trkpt lat="45.84855" lon="2.95996">
        <ele>990.2</ele>
        <time>2025-08-07T15:58:43Z</time>
      </trkpt>
      <trkpt lat="45.8485" lon="2.95991">
        <ele>990</ele>
        <time>2025-08-07T15:58:44Z</time>
      </trkpt>
      <trkpt lat="45.84844" lon="2.95985">
        <ele>989.6</ele>
        <time>2025-08-07T15:58:45Z</time>
      </trkpt>
      <trkpt lat="45.84839" lon="2.95977">
        <ele>989.4</ele>
        <time>2025-08-07T15:58:46Z</time>
      </trkpt>
      <trkpt lat="45.84835" lon="2.95968">
        <ele>989</ele>
        <time>2025-08-07T15:58:47Z</time>
      </trkpt>
      <trkpt lat="45.84832" lon="2.9596">
        <ele>988.8</ele>
        <time>2025-08-07T15:58:48Z</time>
      </trkpt>
      <trkpt lat="45.84829" lon="2.95951">
        <ele>988.6</ele>
        <time>2025-08-07T15:58:49Z</time>
      </trkpt>
      <trkpt lat="45.84826" lon="2.95945">
        <ele>988.4</ele>
        <time>2025-08-07T15:58:50Z</time>
      </trkpt>
      <trkpt lat="45.84822" lon="2.9594">
        <ele>988.2</ele>
        <time>2025-08-07T15:58:51Z</time>
      </trkpt>
      <trkpt lat="45.84818" lon="2.95936">
        <ele>988</ele>
        <time>2025-08-07T15:58:52Z</time>
      </trkpt>
      <trkpt lat="45.8481" lon="2.95924">
        <ele>988</ele>
        <time>2025-08-07T15:58:53Z</time>
      </trkpt>
      <trkpt lat="45.848" lon="2.95911">
        <ele>987.8</ele>
        <time>2025-08-07T15:58:54Z</time>
      </trkpt>
      <trkpt lat="45.84793" lon="2.95902">
        <ele>987.8</ele>
        <time>2025-08-07T15:58:55Z</time>
      </trkpt>
      <trkpt lat="45.84787" lon="2.95894">
        <ele>987.8</ele>
        <time>2025-08-07T15:58:56Z</time>
      </trkpt>
      <trkpt lat="45.84783" lon="2.95887">
        <ele>987.8</ele>
        <time>2025-08-07T15:58:57Z</time>
      </trkpt>
      <trkpt lat="45.84781" lon="2.95883">
        <ele>987.8</ele>
        <time>2025-08-07T15:58:58Z</time>
      </trkpt>
      <trkpt lat="45.84778" lon="2.95882">
        <ele>988</ele>
        <time>2025-08-07T15:58:59Z</time>
      </trkpt>
      <trkpt lat="45.84776" lon="2.9588">
        <ele>988.2</ele>
        <time>2025-08-07T15:59:00Z</time>
      </trkpt>
      <trkpt lat="45.84773" lon="2.95876">
        <ele>988.2</ele>
        <time>2025-08-07T15:59:01Z</time>
      </trkpt>
      <trkpt lat="45.84769" lon="2.95873">
        <ele>988.4</ele>
        <time>2025-08-07T15:59:02Z</time>
      </trkpt>
      <trkpt lat="45.84767" lon="2.95871">
        <ele>988.4</ele>
        <time>2025-08-07T15:59:03Z</time>
      </trkpt>
      <trkpt lat="45.84765" lon="2.9587">
        <ele>988.6</ele>
        <time>2025-08-07T15:59:04Z</time>
      </trkpt>
      <trkpt lat="45.84762" lon="2.95869">
        <ele>988.8</ele>
        <time>2025-08-07T15:59:05Z</time>
      </trkpt>
      <trkpt lat="45.84757" lon="2.95864">
        <ele>988.8</ele>
        <time>2025-08-07T15:59:06Z</time>
      </trkpt>
      <trkpt lat="45.84752" lon="2.95859">
        <ele>989</ele>
        <time>2025-08-07T15:59:07Z</time>
      </trkpt>
      <trkpt lat="45.84746" lon="2.95852">
        <ele>989.2</ele>
        <time>2025-08-07T15:59:08Z</time>
      </trkpt>
      <trkpt lat="45.84739" lon="2.95848">
        <ele>989.2</ele>
        <time>2025-08-07T15:59:09Z</time>
      </trkpt>
      <trkpt lat="45.84733" lon="2.95845">
        <ele>989.4</ele>
        <time>2025-08-07T15:59:10Z</time>
      </trkpt>
      <trkpt lat="45.84726" lon="2.95841">
        <ele>989.6</ele>
        <time>2025-08-07T15:59:11Z</time>
      </trkpt>
      <trkpt lat="45.84721" lon="2.95839">
        <ele>989.8</ele>
        <time>2025-08-07T15:59:12Z</time>
      </trkpt>
      <trkpt lat="45.84718" lon="2.95837">
        <ele>990</ele>
        <time>2025-08-07T15:59:13Z</time>
      </trkpt>
      <trkpt lat="45.84714" lon="2.95835">
        <ele>990.2</ele>
        <time>2025-08-07T15:59:14Z</time>
      </trkpt>
      <trkpt lat="45.84712" lon="2.95834">
        <ele>990.4</ele>
        <time>2025-08-07T15:59:15Z</time>
      </trkpt>
      <trkpt lat="45.84708" lon="2.95834">
        <ele>990.6</ele>
        <time>2025-08-07T15:59:16Z</time>
      </trkpt>
      <trkpt lat="45.84705" lon="2.95834">
        <ele>991</ele>
        <time>2025-08-07T15:59:17Z</time>
      </trkpt>
      <trkpt lat="45.84699" lon="2.95833">
        <ele>991.2</ele>
        <time>2025-08-07T15:59:18Z</time>
      </trkpt>
      <trkpt lat="45.84695" lon="2.95831">
        <ele>991.6</ele>
        <time>2025-08-07T15:59:19Z</time>
      </trkpt>
      <trkpt lat="45.84691" lon="2.95829">
        <ele>991.8</ele>
        <time>2025-08-07T15:59:20Z</time>
      </trkpt>
      <trkpt lat="45.84688" lon="2.95828">
        <ele>992.2</ele>
        <time>2025-08-07T15:59:21Z</time>
      </trkpt>
      <trkpt lat="45.84686" lon="2.95829">
        <ele>992.4</ele>
        <time>2025-08-07T15:59:22Z</time>
      </trkpt>
      <trkpt lat="45.84683" lon="2.95829">
        <ele>992.8</ele>
        <time>2025-08-07T15:59:23Z</time>
      </trkpt>
      <trkpt lat="45.8468" lon="2.95829">
        <ele>993</ele>
        <time>2025-08-07T15:59:24Z</time>
      </trkpt>
      <trkpt lat="45.84677" lon="2.95827">
        <ele>993.2</ele>
        <time>2025-08-07T15:59:25Z</time>
      </trkpt>
      <trkpt lat="45.84672" lon="2.95822">
        <ele>993.6</ele>
        <time>2025-08-07T15:59:26Z</time>
      </trkpt>
      <trkpt lat="45.84667" lon="2.95821">
        <ele>993.8</ele>
        <time>2025-08-07T15:59:27Z</time>
      </trkpt>
      <trkpt lat="45.84663" lon="2.9582">
        <ele>994.2</ele>
        <time>2025-08-07T15:59:28Z</time>
      </trkpt>
      <trkpt lat="45.84658" lon="2.9582">
        <ele>994.6</ele>
        <time>2025-08-07T15:59:29Z</time>
      </trkpt>
      <trkpt lat="45.84654" lon="2.95821">
        <ele>994.8</ele>
        <time>2025-08-07T15:59:30Z</time>
      </trkpt>
      <trkpt lat="45.84651" lon="2.95821">
        <ele>995</ele>
        <time>2025-08-07T15:59:31Z</time>
      </trkpt>
      <trkpt lat="45.84649" lon="2.9582">
        <ele>995.4</ele>
        <time>2025-08-07T15:59:32Z</time>
      </trkpt>
      <trkpt lat="45.84646" lon="2.95819">
        <ele>995.6</ele>
        <time>2025-08-07T15:59:33Z</time>
      </trkpt>
      <trkpt lat="45.84642" lon="2.95817">
        <ele>995.8</ele>
        <time>2025-08-07T15:59:34Z</time>
      </trkpt>
      <trkpt lat="45.84637" lon="2.95815">
        <ele>996.2</ele>
        <time>2025-08-07T15:59:35Z</time>
      </trkpt>
      <trkpt lat="45.84633" lon="2.95814">
        <ele>996.4</ele>
        <time>2025-08-07T15:59:36Z</time>
      </trkpt>
      <trkpt lat="45.8463" lon="2.95813">
        <ele>996.6</ele>
        <time>2025-08-07T15:59:37Z</time>
      </trkpt>
      <trkpt lat="45.84628" lon="2.95813">
        <ele>996.8</ele>
        <time>2025-08-07T15:59:38Z</time>
      </trkpt>
      <trkpt lat="45.84625" lon="2.95811">
        <ele>997</ele>
        <time>2025-08-07T15:59:39Z</time>
      </trkpt>
      <trkpt lat="45.84621" lon="2.95813">
        <ele>997.4</ele>
        <time>2025-08-07T15:59:40Z</time>
      </trkpt>
      <trkpt lat="45.84618" lon="2.95815">
        <ele>997.6</ele>
        <time>2025-08-07T15:59:41Z</time>
      </trkpt>
      <trkpt lat="45.84615" lon="2.95815">
        <ele>997.8</ele>
        <time>2025-08-07T15:59:42Z</time>
      </trkpt>
      <trkpt lat="45.84612" lon="2.95815">
        <ele>998.2</ele>
        <time>2025-08-07T15:59:43Z</time>
      </trkpt>
      <trkpt lat="45.84607" lon="2.95815">
        <ele>998.2</ele>
        <time>2025-08-07T15:59:44Z</time>
      </trkpt>
      <trkpt lat="45.84604" lon="2.95813">
        <ele>998.4</ele>
        <time>2025-08-07T15:59:45Z</time>
      </trkpt>
      <trkpt lat="45.84599" lon="2.95812">
        <ele>998.6</ele>
        <time>2025-08-07T15:59:46Z</time>
      </trkpt>
      <trkpt lat="45.84594" lon="2.95812">
        <ele>998.8</ele>
        <time>2025-08-07T15:59:47Z</time>
      </trkpt>
      <trkpt lat="45.84591" lon="2.95813">
        <ele>998.8</ele>
        <time>2025-08-07T15:59:48Z</time>
      </trkpt>
      <trkpt lat="45.84588" lon="2.95812">
        <ele>998.8</ele>
        <time>2025-08-07T15:59:49Z</time>
      </trkpt>
      <trkpt lat="45.84583" lon="2.95809">
        <ele>999</ele>
        <time>2025-08-07T15:59:50Z</time>
      </trkpt>
      <trkpt lat="45.84577" lon="2.95805">
        <ele>999</ele>
        <time>2025-08-07T15:59:51Z</time>
      </trkpt>
      <trkpt lat="45.84571" lon="2.95804">
        <ele>999</ele>
        <time>2025-08-07T15:59:52Z</time>
      </trkpt>
      <trkpt lat="45.84565" lon="2.95803">
        <ele>999</ele>
        <time>2025-08-07T15:59:53Z</time>
      </trkpt>
      <trkpt lat="45.84559" lon="2.958">
        <ele>999</ele>
        <time>2025-08-07T15:59:54Z</time>
      </trkpt>
      <trkpt lat="45.84553" lon="2.95795">
        <ele>999</ele>
        <time>2025-08-07T15:59:55Z</time>
      </trkpt>
      <trkpt lat="45.84547" lon="2.9579">
        <ele>999</ele>
        <time>2025-08-07T15:59:56Z</time>
      </trkpt>
      <trkpt lat="45.84541" lon="2.95786">
        <ele>999.2</ele>
        <time>2025-08-07T15:59:57Z</time>
      </trkpt>
      <trkpt lat="45.84537" lon="2.95784">
        <ele>999.2</ele>
        <time>2025-08-07T15:59:58Z</time>
      </trkpt>
      <trkpt lat="45.84533" lon="2.95781">
        <ele>999.4</ele>
        <time>2025-08-07T15:59:59Z</time>
      </trkpt>
      <trkpt lat="45.84528" lon="2.9578">
        <ele>999.6</ele>
        <time>2025-08-07T16:00:00Z</time>
      </trkpt>
      <trkpt lat="45.84524" lon="2.95778">
        <ele>999.8</ele>
        <time>2025-08-07T16:00:01Z</time>
      </trkpt>
      <trkpt lat="45.84519" lon="2.95775">
        <ele>999.8</ele>
        <time>2025-08-07T16:00:02Z</time>
      </trkpt>
      <trkpt lat="45.84513" lon="2.95773">
        <ele>1000</ele>
        <time>2025-08-07T16:00:03Z</time>
      </trkpt>
      <trkpt lat="45.84508" lon="2.9577">
        <ele>1000.2</ele>
        <time>2025-08-07T16:00:04Z</time>
      </trkpt>
      <trkpt lat="45.84504" lon="2.95768">
        <ele>1000.4</ele>
        <time>2025-08-07T16:00:05Z</time>
      </trkpt>
      <trkpt lat="45.845" lon="2.95767">
        <ele>1000.6</ele>
        <time>2025-08-07T16:00:06Z</time>
      </trkpt>
      <trkpt lat="45.84495" lon="2.95767">
        <ele>1000.8</ele>
        <time>2025-08-07T16:00:07Z</time>
      </trkpt>
      <trkpt lat="45.84491" lon="2.95767">
        <ele>1000.8</ele>
        <time>2025-08-07T16:00:08Z</time>
      </trkpt>
      <trkpt lat="45.84486" lon="2.95766">
        <ele>1001</ele>
        <time>2025-08-07T16:00:09Z</time>
      </trkpt>
      <trkpt lat="45.84483" lon="2.95766">
        <ele>1001.2</ele>
        <time>2025-08-07T16:00:10Z</time>
      </trkpt>
      <trkpt lat="45.84479" lon="2.95766">
        <ele>1001.2</ele>
        <time>2025-08-07T16:00:11Z</time>
      </trkpt>
      <trkpt lat="45.84474" lon="2.95765">
        <ele>1001.2</ele>
        <time>2025-08-07T16:00:12Z</time>
      </trkpt>
      <trkpt lat="45.8447" lon="2.95765">
        <ele>1001.2</ele>
        <time>2025-08-07T16:00:13Z</time>
      </trkpt>
      <trkpt lat="45.84467" lon="2.95764">
        <ele>1001.2</ele>
        <time>2025-08-07T16:00:14Z</time>
      </trkpt>
      <trkpt lat="45.84464" lon="2.95762">
        <ele>1001</ele>
        <time>2025-08-07T16:00:15Z</time>
      </trkpt>
      <trkpt lat="45.84461" lon="2.9576">
        <ele>1000.8</ele>
        <time>2025-08-07T16:00:16Z</time>
      </trkpt>
      <trkpt lat="45.84456" lon="2.95757">
        <ele>1000.6</ele>
        <time>2025-08-07T16:00:17Z</time>
      </trkpt>
      <trkpt lat="45.84452" lon="2.95755">
        <ele>1000.4</ele>
        <time>2025-08-07T16:00:18Z</time>
      </trkpt>
      <trkpt lat="45.84449" lon="2.95753">
        <ele>1000</ele>
        <time>2025-08-07T16:00:19Z</time>
      </trkpt>
      <trkpt lat="45.84444" lon="2.9575">
        <ele>999.8</ele>
        <time>2025-08-07T16:00:20Z</time>
      </trkpt>
      <trkpt lat="45.84439" lon="2.95748">
        <ele>999.6</ele>
        <time>2025-08-07T16:00:21Z</time>
      </trkpt>
      <trkpt lat="45.84434" lon="2.95746">
        <ele>999.2</ele>
        <time>2025-08-07T16:00:22Z</time>
      </trkpt>
      <trkpt lat="45.84429" lon="2.95742">
        <ele>999</ele>
        <time>2025-08-07T16:00:23Z</time>
      </trkpt>
      <trkpt lat="45.84424" lon="2.9574">
        <ele>998.8</ele>
        <time>2025-08-07T16:00:24Z</time>
      </trkpt>
      <trkpt lat="45.84418" lon="2.95739">
        <ele>998.4</ele>
        <time>2025-08-07T16:00:25Z</time>
      </trkpt>
      <trkpt lat="45.84411" lon="2.95738">
        <ele>998.2</ele>
        <time>2025-08-07T16:00:26Z</time>
      </trkpt>
      <trkpt lat="45.84405" lon="2.95737">
        <ele>997.8</ele>
        <time>2025-08-07T16:00:27Z</time>
      </trkpt>
      <trkpt lat="45.84398" lon="2.95736">
        <ele>997.6</ele>
        <time>2025-08-07T16:00:28Z</time>
      </trkpt>
      <trkpt lat="45.84393" lon="2.95735">
        <ele>997.2</ele>
        <time>2025-08-07T16:00:29Z</time>
      </trkpt>
      <trkpt lat="45.84387" lon="2.95734">
        <ele>997</ele>
        <time>2025-08-07T16:00:30Z</time>
      </trkpt>
      <trkpt lat="45.84381" lon="2.95733">
        <ele>996.8</ele>
        <time>2025-08-07T16:00:31Z</time>
      </trkpt>
      <trkpt lat="45.84374" lon="2.95731">
        <ele>996.4</ele>
        <time>2025-08-07T16:00:32Z</time>
      </trkpt>
      <trkpt lat="45.84367" lon="2.95727">
        <ele>996.2</ele>
        <time>2025-08-07T16:00:33Z</time>
      </trkpt>
      <trkpt lat="45.84361" lon="2.95725">
        <ele>996</ele>
        <time>2025-08-07T16:00:34Z</time>
      </trkpt>
      <trkpt lat="45.84355" lon="2.95722">
        <ele>996</ele>
        <time>2025-08-07T16:00:35Z</time>
      </trkpt>
      <trkpt lat="45.84346" lon="2.95719">
        <ele>995.8</ele>
        <time>2025-08-07T16:00:36Z</time>
      </trkpt>
      <trkpt lat="45.84337" lon="2.95716">
        <ele>995.6</ele>
        <time>2025-08-07T16:00:37Z</time>
      </trkpt>
      <trkpt lat="45.84331" lon="2.95715">
        <ele>995.6</ele>
        <time>2025-08-07T16:00:38Z</time>
      </trkpt>
      <trkpt lat="45.84325" lon="2.95714">
        <ele>995.4</ele>
        <time>2025-08-07T16:00:39Z</time>
      </trkpt>
      <trkpt lat="45.8432" lon="2.95713">
        <ele>995.4</ele>
        <time>2025-08-07T16:00:40Z</time>
      </trkpt>
      <trkpt lat="45.84314" lon="2.95713">
        <ele>995.2</ele>
        <time>2025-08-07T16:00:41Z</time>
      </trkpt>
      <trkpt lat="45.84308" lon="2.95713">
        <ele>995.2</ele>
        <time>2025-08-07T16:00:42Z</time>
      </trkpt>
      <trkpt lat="45.84304" lon="2.95712">
        <ele>995</ele>
        <time>2025-08-07T16:00:43Z</time>
      </trkpt>
      <trkpt lat="45.84299" lon="2.95712">
        <ele>994.8</ele>
        <time>2025-08-07T16:00:44Z</time>
      </trkpt>
      <trkpt lat="45.84293" lon="2.95713">
        <ele>994.8</ele>
        <time>2025-08-07T16:00:45Z</time>
      </trkpt>
      <trkpt lat="45.84289" lon="2.95713">
        <ele>994.8</ele>
        <time>2025-08-07T16:00:46Z</time>
      </trkpt>
      <trkpt lat="45.84284" lon="2.95714">
        <ele>994.6</ele>
        <time>2025-08-07T16:00:47Z</time>
      </trkpt>
      <trkpt lat="45.84279" lon="2.95715">
        <ele>994.6</ele>
        <time>2025-08-07T16:00:48Z</time>
      </trkpt>
      <trkpt lat="45.84273" lon="2.95717">
        <ele>994.6</ele>
        <time>2025-08-07T16:00:49Z</time>
      </trkpt>
      <trkpt lat="45.84269" lon="2.95717">
        <ele>994.6</ele>
        <time>2025-08-07T16:00:50Z</time>
      </trkpt>
      <trkpt lat="45.84263" lon="2.95715">
        <ele>994.6</ele>
        <time>2025-08-07T16:00:51Z</time>
      </trkpt>
      <trkpt lat="45.84258" lon="2.95713">
        <ele>994.8</ele>
        <time>2025-08-07T16:00:52Z</time>
      </trkpt>
      <trkpt lat="45.84252" lon="2.95711">
        <ele>994.8</ele>
        <time>2025-08-07T16:00:53Z</time>
      </trkpt>
      <trkpt lat="45.84244" lon="2.95712">
        <ele>994.8</ele>
        <time>2025-08-07T16:00:54Z</time>
      </trkpt>
      <trkpt lat="45.84238" lon="2.95713">
        <ele>994.8</ele>
        <time>2025-08-07T16:00:55Z</time>
      </trkpt>
      <trkpt lat="45.84232" lon="2.95713">
        <ele>994.8</ele>
        <time>2025-08-07T16:00:56Z</time>
      </trkpt>
      <trkpt lat="45.84227" lon="2.95714">
        <ele>994.8</ele>
        <time>2025-08-07T16:00:57Z</time>
      </trkpt>
      <trkpt lat="45.84224" lon="2.95714">
        <ele>994.8</ele>
        <time>2025-08-07T16:00:58Z</time>
      </trkpt>
      <trkpt lat="45.84219" lon="2.95716">
        <ele>994.6</ele>
        <time>2025-08-07T16:00:59Z</time>
      </trkpt>
      <trkpt lat="45.84214" lon="2.95719">
        <ele>994.6</ele>
        <time>2025-08-07T16:01:00Z</time>
      </trkpt>
      <trkpt lat="45.84209" lon="2.95721">
        <ele>994.4</ele>
        <time>2025-08-07T16:01:01Z</time>
      </trkpt>
      <trkpt lat="45.84204" lon="2.95721">
        <ele>994.4</ele>
        <time>2025-08-07T16:01:02Z</time>
      </trkpt>
      <trkpt lat="45.84195" lon="2.95718">
        <ele>994.2</ele>
        <time>2025-08-07T16:01:03Z</time>
      </trkpt>
      <trkpt lat="45.84186" lon="2.95714">
        <ele>994.2</ele>
        <time>2025-08-07T16:01:04Z</time>
      </trkpt>
      <trkpt lat="45.84179" lon="2.95711">
        <ele>994</ele>
        <time>2025-08-07T16:01:05Z</time>
      </trkpt>
      <trkpt lat="45.84176" lon="2.9571">
        <ele>994</ele>
        <time>2025-08-07T16:01:06Z</time>
      </trkpt>
      <trkpt lat="45.84171" lon="2.95711">
        <ele>994</ele>
        <time>2025-08-07T16:01:07Z</time>
      </trkpt>
      <trkpt lat="45.84167" lon="2.95711">
        <ele>993.8</ele>
        <time>2025-08-07T16:01:08Z</time>
      </trkpt>
      <trkpt lat="45.84161" lon="2.9571">
        <ele>993.8</ele>
        <time>2025-08-07T16:01:09Z</time>
      </trkpt>
      <trkpt lat="45.84155" lon="2.95707">
        <ele>993.6</ele>
        <time>2025-08-07T16:01:10Z</time>
      </trkpt>
      <trkpt lat="45.84149" lon="2.95701">
        <ele>993.6</ele>
        <time>2025-08-07T16:01:11Z</time>
      </trkpt>
      <trkpt lat="45.84141" lon="2.95695">
        <ele>993.4</ele>
        <time>2025-08-07T16:01:12Z</time>
      </trkpt>
      <trkpt lat="45.84136" lon="2.95693">
        <ele>993.2</ele>
        <time>2025-08-07T16:01:13Z</time>
      </trkpt>
      <trkpt lat="45.84132" lon="2.9569">
        <ele>993.2</ele>
        <time>2025-08-07T16:01:14Z</time>
      </trkpt>
      <trkpt lat="45.84128" lon="2.95689">
        <ele>993.2</ele>
        <time>2025-08-07T16:01:15Z</time>
      </trkpt>
      <trkpt lat="45.84125" lon="2.95688">
        <ele>993</ele>
        <time>2025-08-07T16:01:16Z</time>
      </trkpt>
      <trkpt lat="45.84119" lon="2.95686">
        <ele>993</ele>
        <time>2025-08-07T16:01:17Z</time>
      </trkpt>
      <trkpt lat="45.84112" lon="2.95685">
        <ele>993</ele>
        <time>2025-08-07T16:01:18Z</time>
      </trkpt>
      <trkpt lat="45.84106" lon="2.95683">
        <ele>993</ele>
        <time>2025-08-07T16:01:19Z</time>
      </trkpt>
      <trkpt lat="45.84102" lon="2.95679">
        <ele>992.8</ele>
        <time>2025-08-07T16:01:20Z</time>
      </trkpt>
      <trkpt lat="45.84097" lon="2.95676">
        <ele>992.8</ele>
        <time>2025-08-07T16:01:21Z</time>
      </trkpt>
      <trkpt lat="45.84094" lon="2.95675">
        <ele>992.8</ele>
        <time>2025-08-07T16:01:22Z</time>
      </trkpt>
      <trkpt lat="45.8409" lon="2.95674">
        <ele>992.8</ele>
        <time>2025-08-07T16:01:23Z</time>
      </trkpt>
      <trkpt lat="45.84083" lon="2.95675">
        <ele>993</ele>
        <time>2025-08-07T16:01:24Z</time>
      </trkpt>
      <trkpt lat="45.84078" lon="2.95676">
        <ele>993</ele>
        <time>2025-08-07T16:01:25Z</time>
      </trkpt>
      <trkpt lat="45.84074" lon="2.95678">
        <ele>993</ele>
        <time>2025-08-07T16:01:26Z</time>
      </trkpt>
      <trkpt lat="45.8407" lon="2.9568">
        <ele>993.2</ele>
        <time>2025-08-07T16:01:27Z</time>
      </trkpt>
      <trkpt lat="45.84062" lon="2.9568">
        <ele>993.2</ele>
        <time>2025-08-07T16:01:28Z</time>
      </trkpt>
      <trkpt lat="45.84057" lon="2.9568">
        <ele>993.4</ele>
        <time>2025-08-07T16:01:29Z</time>
      </trkpt>
      <trkpt lat="45.84052" lon="2.95681">
        <ele>993.4</ele>
        <time>2025-08-07T16:01:30Z</time>
      </trkpt>
      <trkpt lat="45.84048" lon="2.95683">
        <ele>993.4</ele>
        <time>2025-08-07T16:01:31Z</time>
      </trkpt>
      <trkpt lat="45.84044" lon="2.95683">
        <ele>993.4</ele>
        <time>2025-08-07T16:01:32Z</time>
      </trkpt>
      <trkpt lat="45.84038" lon="2.95682">
        <ele>993.4</ele>
        <time>2025-08-07T16:01:33Z</time>
      </trkpt>
      <trkpt lat="45.84032" lon="2.95685">
        <ele>993.4</ele>
        <time>2025-08-07T16:01:34Z</time>
      </trkpt>
      <trkpt lat="45.84027" lon="2.95687">
        <ele>993.6</ele>
        <time>2025-08-07T16:01:35Z</time>
      </trkpt>
      <trkpt lat="45.84023" lon="2.95688">
        <ele>993.6</ele>
        <time>2025-08-07T16:01:36Z</time>
      </trkpt>
      <trkpt lat="45.84017" lon="2.9569">
        <ele>993.8</ele>
        <time>2025-08-07T16:01:37Z</time>
      </trkpt>
      <trkpt lat="45.84014" lon="2.95694">
        <ele>993.8</ele>
        <time>2025-08-07T16:01:38Z</time>
      </trkpt>
      <trkpt lat="45.84009" lon="2.95698">
        <ele>994</ele>
        <time>2025-08-07T16:01:39Z</time>
      </trkpt>
      <trkpt lat="45.84005" lon="2.95702">
        <ele>994</ele>
        <time>2025-08-07T16:01:40Z</time>
      </trkpt>
      <trkpt lat="45.84001" lon="2.95707">
        <ele>994.2</ele>
        <time>2025-08-07T16:01:41Z</time>
      </trkpt>
      <trkpt lat="45.83998" lon="2.9571">
        <ele>994.2</ele>
        <time>2025-08-07T16:01:42Z</time>
      </trkpt>
      <trkpt lat="45.83993" lon="2.95716">
        <ele>994.6</ele>
        <time>2025-08-07T16:01:43Z</time>
      </trkpt>
      <trkpt lat="45.8399" lon="2.95721">
        <ele>994.8</ele>
        <time>2025-08-07T16:01:44Z</time>
      </trkpt>
      <trkpt lat="45.83987" lon="2.95725">
        <ele>995</ele>
        <time>2025-08-07T16:01:45Z</time>
      </trkpt>
      <trkpt lat="45.83985" lon="2.9573">
        <ele>995.2</ele>
        <time>2025-08-07T16:01:46Z</time>
      </trkpt>
      <trkpt lat="45.83981" lon="2.9574">
        <ele>995.4</ele>
        <time>2025-08-07T16:01:47Z</time>
      </trkpt>
      <trkpt lat="45.83977" lon="2.95747">
        <ele>995.8</ele>
        <time>2025-08-07T16:01:48Z</time>
      </trkpt>
      <trkpt lat="45.83971" lon="2.95757">
        <ele>996</ele>
        <time>2025-08-07T16:01:49Z</time>
      </trkpt>
      <trkpt lat="45.83964" lon="2.95763">
        <ele>996.2</ele>
        <time>2025-08-07T16:01:50Z</time>
      </trkpt>
      <trkpt lat="45.83959" lon="2.95767">
        <ele>996.4</ele>
        <time>2025-08-07T16:01:51Z</time>
      </trkpt>
      <trkpt lat="45.83955" lon="2.95771">
        <ele>996.6</ele>
        <time>2025-08-07T16:01:52Z</time>
      </trkpt>
      <trkpt lat="45.8395" lon="2.95775">
        <ele>997</ele>
        <time>2025-08-07T16:01:53Z</time>
      </trkpt>
      <trkpt lat="45.83948" lon="2.95778">
        <ele>997.2</ele>
        <time>2025-08-07T16:01:54Z</time>
      </trkpt>
      <trkpt lat="45.83945" lon="2.95782">
        <ele>997.6</ele>
        <time>2025-08-07T16:01:55Z</time>
      </trkpt>
      <trkpt lat="45.83942" lon="2.95784">
        <ele>997.8</ele>
        <time>2025-08-07T16:01:56Z</time>
      </trkpt>
      <trkpt lat="45.83939" lon="2.95785">
        <ele>998</ele>
        <time>2025-08-07T16:01:57Z</time>
      </trkpt>
      <trkpt lat="45.83936" lon="2.95786">
        <ele>998.2</ele>
        <time>2025-08-07T16:01:58Z</time>
      </trkpt>
      <trkpt lat="45.83934" lon="2.95788">
        <ele>998.6</ele>
        <time>2025-08-07T16:01:59Z</time>
      </trkpt>
      <trkpt lat="45.83932" lon="2.95789">
        <ele>998.8</ele>
        <time>2025-08-07T16:02:00Z</time>
      </trkpt>
      <trkpt lat="45.83929" lon="2.9579">
        <ele>999</ele>
        <time>2025-08-07T16:02:01Z</time>
      </trkpt>
      <trkpt lat="45.83926" lon="2.95791">
        <ele>999.4</ele>
        <time>2025-08-07T16:02:02Z</time>
      </trkpt>
      <trkpt lat="45.83923" lon="2.9579">
        <ele>999.8</ele>
        <time>2025-08-07T16:02:03Z</time>
      </trkpt>
      <trkpt lat="45.83919" lon="2.95789">
        <ele>1000</ele>
        <time>2025-08-07T16:02:04Z</time>
      </trkpt>
      <trkpt lat="45.83916" lon="2.95788">
        <ele>1000.4</ele>
        <time>2025-08-07T16:02:05Z</time>
      </trkpt>
      <trkpt lat="45.83912" lon="2.95787">
        <ele>1000.6</ele>
        <time>2025-08-07T16:02:06Z</time>
      </trkpt>
      <trkpt lat="45.8391" lon="2.95786">
        <ele>1001</ele>
        <time>2025-08-07T16:02:07Z</time>
      </trkpt>
      <trkpt lat="45.83906" lon="2.95789">
        <ele>1001.2</ele>
        <time>2025-08-07T16:02:08Z</time>
      </trkpt>
      <trkpt lat="45.83904" lon="2.95791">
        <ele>1001.6</ele>
        <time>2025-08-07T16:02:09Z</time>
      </trkpt>
      <trkpt lat="45.83902" lon="2.95792">
        <ele>1001.8</ele>
        <time>2025-08-07T16:02:10Z</time>
      </trkpt>
      <trkpt lat="45.83901" lon="2.95793">
        <ele>1002.2</ele>
        <time>2025-08-07T16:02:11Z</time>
      </trkpt>
      <trkpt lat="45.83898" lon="2.95792">
        <ele>1002.4</ele>
        <time>2025-08-07T16:02:12Z</time>
      </trkpt>
      <trkpt lat="45.83895" lon="2.95793">
        <ele>1002.6</ele>
        <time>2025-08-07T16:02:13Z</time>
      </trkpt>
      <trkpt lat="45.83892" lon="2.95793">
        <ele>1003</ele>
        <time>2025-08-07T16:02:14Z</time>
      </trkpt>
      <trkpt lat="45.83889" lon="2.95794">
        <ele>1003.2</ele>
        <time>2025-08-07T16:02:15Z</time>
      </trkpt>
      <trkpt lat="45.83885" lon="2.95795">
        <ele>1003.6</ele>
        <time>2025-08-07T16:02:16Z</time>
      </trkpt>
      <trkpt lat="45.83882" lon="2.95798">
        <ele>1004</ele>
        <time>2025-08-07T16:02:17Z</time>
      </trkpt>
      <trkpt lat="45.83877" lon="2.95803">
        <ele>1004.2</ele>
        <time>2025-08-07T16:02:18Z</time>
      </trkpt>
      <trkpt lat="45.83871" lon="2.95808">
        <ele>1004.6</ele>
        <time>2025-08-07T16:02:19Z</time>
      </trkpt>
      <trkpt lat="45.83866" lon="2.95814">
        <ele>1004.8</ele>
        <time>2025-08-07T16:02:20Z</time>
      </trkpt>
      <trkpt lat="45.83861" lon="2.9582">
        <ele>1005</ele>
        <time>2025-08-07T16:02:21Z</time>
      </trkpt>
      <trkpt lat="45.83859" lon="2.95824">
        <ele>1005.4</ele>
        <time>2025-08-07T16:02:22Z</time>
      </trkpt>
      <trkpt lat="45.83856" lon="2.95829">
        <ele>1005.6</ele>
        <time>2025-08-07T16:02:23Z</time>
      </trkpt>
      <trkpt lat="45.83853" lon="2.95831">
        <ele>1005.8</ele>
        <time>2025-08-07T16:02:24Z</time>
      </trkpt>
      <trkpt lat="45.8385" lon="2.95832">
        <ele>1006.2</ele>
        <time>2025-08-07T16:02:25Z</time>
      </trkpt>
      <trkpt lat="45.83847" lon="2.95832">
        <ele>1006.4</ele>
        <time>2025-08-07T16:02:26Z</time>
      </trkpt>
      <trkpt lat="45.83843" lon="2.95833">
        <ele>1006.6</ele>
        <time>2025-08-07T16:02:27Z</time>
      </trkpt>
      <trkpt lat="45.8384" lon="2.95834">
        <ele>1007</ele>
        <time>2025-08-07T16:02:28Z</time>
      </trkpt>
      <trkpt lat="45.83836" lon="2.95836">
        <ele>1007.2</ele>
        <time>2025-08-07T16:02:29Z</time>
      </trkpt>
      <trkpt lat="45.83832" lon="2.95836">
        <ele>1007.4</ele>
        <time>2025-08-07T16:02:30Z</time>
      </trkpt>
      <trkpt lat="45.83829" lon="2.95837">
        <ele>1007.6</ele>
        <time>2025-08-07T16:02:31Z</time>
      </trkpt>
      <trkpt lat="45.83826" lon="2.9584">
        <ele>1008</ele>
        <time>2025-08-07T16:02:32Z</time>
      </trkpt>
      <trkpt lat="45.83824" lon="2.95843">
        <ele>1008.2</ele>
        <time>2025-08-07T16:02:33Z</time>
      </trkpt>
      <trkpt lat="45.83821" lon="2.95846">
        <ele>1008.4</ele>
        <time>2025-08-07T16:02:34Z</time>
      </trkpt>
      <trkpt lat="45.83817" lon="2.9585">
        <ele>1008.8</ele>
        <time>2025-08-07T16:02:35Z</time>
      </trkpt>
      <trkpt lat="45.83813" lon="2.95854">
        <ele>1009</ele>
        <time>2025-08-07T16:02:36Z</time>
      </trkpt>
      <trkpt lat="45.83808" lon="2.95858">
        <ele>1009.4</ele>
        <time>2025-08-07T16:02:37Z</time>
      </trkpt>
      <trkpt lat="45.83802" lon="2.95863">
        <ele>1009.6</ele>
        <time>2025-08-07T16:02:38Z</time>
      </trkpt>
      <trkpt lat="45.83798" lon="2.95865">
        <ele>1010</ele>
        <time>2025-08-07T16:02:39Z</time>
      </trkpt>
      <trkpt lat="45.83792" lon="2.95868">
        <ele>1010.4</ele>
        <time>2025-08-07T16:02:40Z</time>
      </trkpt>
      <trkpt lat="45.83789" lon="2.9587">
        <ele>1010.8</ele>
        <time>2025-08-07T16:02:41Z</time>
      </trkpt>
      <trkpt lat="45.83785" lon="2.95872">
        <ele>1011</ele>
        <time>2025-08-07T16:02:42Z</time>
      </trkpt>
      <trkpt lat="45.83782" lon="2.95875">
        <ele>1011.4</ele>
        <time>2025-08-07T16:02:43Z</time>
      </trkpt>
      <trkpt lat="45.83779" lon="2.95878">
        <ele>1011.8</ele>
        <time>2025-08-07T16:02:44Z</time>
      </trkpt>
      <trkpt lat="45.83776" lon="2.9588">
        <ele>1012</ele>
        <time>2025-08-07T16:02:45Z</time>
      </trkpt>
      <trkpt lat="45.83772" lon="2.95881">
        <ele>1012.4</ele>
        <time>2025-08-07T16:02:46Z</time>
      </trkpt>
      <trkpt lat="45.83769" lon="2.95882">
        <ele>1012.8</ele>
        <time>2025-08-07T16:02:47Z</time>
      </trkpt>
      <trkpt lat="45.83766" lon="2.95883">
        <ele>1013</ele>
        <time>2025-08-07T16:02:48Z</time>
      </trkpt>
      <trkpt lat="45.83763" lon="2.95884">
        <ele>1013.4</ele>
        <time>2025-08-07T16:02:49Z</time>
      </trkpt>
      <trkpt lat="45.8376" lon="2.95884">
        <ele>1013.8</ele>
        <time>2025-08-07T16:02:50Z</time>
      </trkpt>
      <trkpt lat="45.83755" lon="2.95884">
        <ele>1014.2</ele>
        <time>2025-08-07T16:02:51Z</time>
      </trkpt>
      <trkpt lat="45.83751" lon="2.95885">
        <ele>1014.4</ele>
        <time>2025-08-07T16:02:52Z</time>
      </trkpt>
      <trkpt lat="45.83744" lon="2.95889">
        <ele>1014.8</ele>
        <time>2025-08-07T16:02:53Z</time>
      </trkpt>
      <trkpt lat="45.8374" lon="2.9589">
        <ele>1015</ele>
        <time>2025-08-07T16:02:54Z</time>
      </trkpt>
      <trkpt lat="45.83734" lon="2.9589">
        <ele>1015.2</ele>
        <time>2025-08-07T16:02:55Z</time>
      </trkpt>
      <trkpt lat="45.83728" lon="2.95892">
        <ele>1015.6</ele>
        <time>2025-08-07T16:02:56Z</time>
      </trkpt>
      <trkpt lat="45.83722" lon="2.95895">
        <ele>1016</ele>
        <time>2025-08-07T16:02:57Z</time>
      </trkpt>
      <trkpt lat="45.83718" lon="2.95898">
        <ele>1016.4</ele>
        <time>2025-08-07T16:02:58Z</time>
      </trkpt>
      <trkpt lat="45.83713" lon="2.959">
        <ele>1016.8</ele>
        <time>2025-08-07T16:02:59Z</time>
      </trkpt>
      <trkpt lat="45.83709" lon="2.95902">
        <ele>1017</ele>
        <time>2025-08-07T16:03:00Z</time>
      </trkpt>
      <trkpt lat="45.83706" lon="2.95904">
        <ele>1017.4</ele>
        <time>2025-08-07T16:03:01Z</time>
      </trkpt>
      <trkpt lat="45.83705" lon="2.95904">
        <ele>1017.6</ele>
        <time>2025-08-07T16:03:02Z</time>
      </trkpt>
      <trkpt lat="45.83703" lon="2.95904">
        <ele>1017.8</ele>
        <time>2025-08-07T16:03:03Z</time>
      </trkpt>
      <trkpt lat="45.837" lon="2.95904">
        <ele>1018</ele>
        <time>2025-08-07T16:03:04Z</time>
      </trkpt>
      <trkpt lat="45.83697" lon="2.95904">
        <ele>1018.2</ele>
        <time>2025-08-07T16:03:05Z</time>
      </trkpt>
      <trkpt lat="45.83694" lon="2.95904">
        <ele>1018.2</ele>
        <time>2025-08-07T16:03:06Z</time>
      </trkpt>
      <trkpt lat="45.8369" lon="2.95903">
        <ele>1018.2</ele>
        <time>2025-08-07T16:03:07Z</time>
      </trkpt>
      <trkpt lat="45.83687" lon="2.959">
        <ele>1018.4</ele>
        <time>2025-08-07T16:03:08Z</time>
      </trkpt>
      <trkpt lat="45.83684" lon="2.95897">
        <ele>1018.4</ele>
        <time>2025-08-07T16:03:09Z</time>
      </trkpt>
      <trkpt lat="45.83683" lon="2.95896">
        <ele>1018.6</ele>
        <time>2025-08-07T16:03:10Z</time>
      </trkpt>
      <trkpt lat="45.83683" lon="2.95895">
        <ele>1018.8</ele>
        <time>2025-08-07T16:03:13Z</time>
      </trkpt>
      <trkpt lat="45.83682" lon="2.95895">
        <ele>1018.8</ele>
        <time>2025-08-07T16:03:14Z</time>
      </trkpt>
      <trkpt lat="45.8368" lon="2.95895">
        <ele>1019</ele>
        <time>2025-08-07T16:03:15Z</time>
      </trkpt>
      <trkpt lat="45.83679" lon="2.95895">
        <ele>1019.2</ele>
        <time>2025-08-07T16:03:16Z</time>
      </trkpt>
      <trkpt lat="45.83677" lon="2.95896">
        <ele>1019.4</ele>
        <time>2025-08-07T16:03:17Z</time>
      </trkpt>
      <trkpt lat="45.83675" lon="2.95898">
        <ele>1019.6</ele>
        <time>2025-08-07T16:03:18Z</time>
      </trkpt>
      <trkpt lat="45.83672" lon="2.95899">
        <ele>1020</ele>
        <time>2025-08-07T16:03:19Z</time>
      </trkpt>
      <trkpt lat="45.8367" lon="2.959">
        <ele>1020.2</ele>
        <time>2025-08-07T16:03:20Z</time>
      </trkpt>
      <trkpt lat="45.83668" lon="2.95901">
        <ele>1020.6</ele>
        <time>2025-08-07T16:03:21Z</time>
      </trkpt>
      <trkpt lat="45.83666" lon="2.95903">
        <ele>1021</ele>
        <time>2025-08-07T16:03:22Z</time>
      </trkpt>
      <trkpt lat="45.83664" lon="2.95907">
        <ele>1021.2</ele>
        <time>2025-08-07T16:03:23Z</time>
      </trkpt>
      <trkpt lat="45.8366" lon="2.9591">
        <ele>1021.6</ele>
        <time>2025-08-07T16:03:24Z</time>
      </trkpt>
      <trkpt lat="45.83658" lon="2.95912">
        <ele>1022</ele>
        <time>2025-08-07T16:03:25Z</time>
      </trkpt>
      <trkpt lat="45.83654" lon="2.95914">
        <ele>1022.2</ele>
        <time>2025-08-07T16:03:26Z</time>
      </trkpt>
      <trkpt lat="45.8365" lon="2.95914">
        <ele>1022.6</ele>
        <time>2025-08-07T16:03:27Z</time>
      </trkpt>
      <trkpt lat="45.83648" lon="2.95914">
        <ele>1022.8</ele>
        <time>2025-08-07T16:03:28Z</time>
      </trkpt>
      <trkpt lat="45.83647" lon="2.95914">
        <ele>1023.2</ele>
        <time>2025-08-07T16:03:29Z</time>
      </trkpt>
      <trkpt lat="45.83645" lon="2.95914">
        <ele>1023.4</ele>
        <time>2025-08-07T16:03:30Z</time>
      </trkpt>
      <trkpt lat="45.83642" lon="2.95913">
        <ele>1023.8</ele>
        <time>2025-08-07T16:03:31Z</time>
      </trkpt>
      <trkpt lat="45.83638" lon="2.95913">
        <ele>1024</ele>
        <time>2025-08-07T16:03:32Z</time>
      </trkpt>
      <trkpt lat="45.83635" lon="2.95912">
        <ele>1024.2</ele>
        <time>2025-08-07T16:03:33Z</time>
      </trkpt>
      <trkpt lat="45.83632" lon="2.9591">
        <ele>1024.6</ele>
        <time>2025-08-07T16:03:34Z</time>
      </trkpt>
      <trkpt lat="45.83629" lon="2.95909">
        <ele>1024.8</ele>
        <time>2025-08-07T16:03:35Z</time>
      </trkpt>
      <trkpt lat="45.83626" lon="2.95906">
        <ele>1025</ele>
        <time>2025-08-07T16:03:36Z</time>
      </trkpt>
      <trkpt lat="45.83621" lon="2.95905">
        <ele>1025.2</ele>
        <time>2025-08-07T16:03:37Z</time>
      </trkpt>
      <trkpt lat="45.83621" lon="2.95904">
        <ele>1025.4</ele>
        <time>2025-08-07T16:03:38Z</time>
      </trkpt>
      <trkpt lat="45.8362" lon="2.95904">
        <ele>1025.6</ele>
        <time>2025-08-07T16:03:39Z</time>
      </trkpt>
      <trkpt lat="45.8362" lon="2.95904">
        <ele>1025.8</ele>
        <time>2025-08-07T16:03:40Z</time>
      </trkpt>
      <trkpt lat="45.83619" lon="2.95903">
        <ele>1026.2</ele>
        <time>2025-08-07T16:03:41Z</time>
      </trkpt>
      <trkpt lat="45.83619" lon="2.95902">
        <ele>1026.4</ele>
        <time>2025-08-07T16:03:42Z</time>
      </trkpt>
      <trkpt lat="45.83617" lon="2.959">
        <ele>1026.6</ele>
        <time>2025-08-07T16:03:43Z</time>
      </trkpt>
      <trkpt lat="45.83617" lon="2.95899">
        <ele>1026.6</ele>
        <time>2025-08-07T16:03:44Z</time>
      </trkpt>
      <trkpt lat="45.83617" lon="2.95897">
        <ele>1026.8</ele>
        <time>2025-08-07T16:03:45Z</time>
      </trkpt>
      <trkpt lat="45.83617" lon="2.95895">
        <ele>1027</ele>
        <time>2025-08-07T16:03:46Z</time>
      </trkpt>
      <trkpt lat="45.83617" lon="2.95894">
        <ele>1027</ele>
        <time>2025-08-07T16:03:47Z</time>
      </trkpt>
      <trkpt lat="45.83617" lon="2.95894">
        <ele>1027</ele>
        <time>2025-08-07T16:03:48Z</time>
      </trkpt>
      <trkpt lat="45.83617" lon="2.95893">
        <ele>1027</ele>
        <time>2025-08-07T16:03:49Z</time>
      </trkpt>
      <trkpt lat="45.83617" lon="2.95893">
        <ele>1027</ele>
        <time>2025-08-07T16:03:50Z</time>
      </trkpt>
      <trkpt lat="45.83617" lon="2.95893">
        <ele>1027</ele>
        <time>2025-08-07T16:03:51Z</time>
      </trkpt>
      <trkpt lat="45.83617" lon="2.95893">
        <ele>1027</ele>
        <time>2025-08-07T16:03:52Z</time>
      </trkpt>
      <trkpt lat="45.83617" lon="2.95893">
        <ele>1027</ele>
        <time>2025-08-07T16:03:53Z</time>
      </trkpt>
      <trkpt lat="45.83617" lon="2.95893">
        <ele>1027</ele>
        <time>2025-08-07T16:03:54Z</time>
      </trkpt>
      <trkpt lat="45.83617" lon="2.95893">
        <ele>1027</ele>
        <time>2025-08-07T16:03:55Z</time>
      </trkpt>
      <trkpt lat="45.83618" lon="2.95892">
        <ele>1027</ele>
        <time>2025-08-07T16:03:56Z</time>
      </trkpt>
      <trkpt lat="45.83618" lon="2.95893">
        <ele>1027</ele>
        <time>2025-08-07T16:03:57Z</time>
      </trkpt>
      <trkpt lat="45.83618" lon="2.95893">
        <ele>1026.8</ele>
        <time>2025-08-07T16:03:58Z</time>
      </trkpt>
      <trkpt lat="45.83618" lon="2.95893">
        <ele>1026.8</ele>
        <time>2025-08-07T16:03:59Z</time>
      </trkpt>
      <trkpt lat="45.83616" lon="2.95894">
        <ele>1027.2</ele>
        <time>2025-08-07T16:04:11Z</time>
      </trkpt>
      <trkpt lat="45.83615" lon="2.95895">
        <ele>1027</ele>
        <time>2025-08-07T16:04:12Z</time>
      </trkpt>
      <trkpt lat="45.83614" lon="2.95897">
        <ele>1027</ele>
        <time>2025-08-07T16:04:13Z</time>
      </trkpt>
      <trkpt lat="45.83613" lon="2.95899">
        <ele>1026.8</ele>
        <time>2025-08-07T16:04:14Z</time>
      </trkpt>
      <trkpt lat="45.83612" lon="2.959">
        <ele>1026.8</ele>
        <time>2025-08-07T16:04:15Z</time>
      </trkpt>
      <trkpt lat="45.83611" lon="2.95902">
        <ele>1026.6</ele>
        <time>2025-08-07T16:04:16Z</time>
      </trkpt>
      <trkpt lat="45.83609" lon="2.95903">
        <ele>1026.6</ele>
        <time>2025-08-07T16:04:17Z</time>
      </trkpt>
      <trkpt lat="45.83609" lon="2.95903">
        <ele>1026.6</ele>
        <time>2025-08-07T16:04:18Z</time>
      </trkpt>
      <trkpt lat="45.83609" lon="2.95903">
        <ele>1026.6</ele>
        <time>2025-08-07T16:04:19Z</time>
      </trkpt>
      <trkpt lat="45.83608" lon="2.95903">
        <ele>1026.8</ele>
        <time>2025-08-07T16:04:20Z</time>
      </trkpt>
      <trkpt lat="45.83607" lon="2.95902">
        <ele>1027</ele>
        <time>2025-08-07T16:04:21Z</time>
      </trkpt>
      <trkpt lat="45.83606" lon="2.95901">
        <ele>1027.2</ele>
        <time>2025-08-07T16:04:22Z</time>
      </trkpt>
      <trkpt lat="45.83603" lon="2.959">
        <ele>1027.4</ele>
        <time>2025-08-07T16:04:23Z</time>
      </trkpt>
      <trkpt lat="45.83601" lon="2.95899">
        <ele>1027.6</ele>
        <time>2025-08-07T16:04:24Z</time>
      </trkpt>
      <trkpt lat="45.836" lon="2.95898">
        <ele>1028</ele>
        <time>2025-08-07T16:04:25Z</time>
      </trkpt>
      <trkpt lat="45.83595" lon="2.95897">
        <ele>1028.4</ele>
        <time>2025-08-07T16:04:26Z</time>
      </trkpt>
      <trkpt lat="45.83593" lon="2.95896">
        <ele>1028.8</ele>
        <time>2025-08-07T16:04:27Z</time>
      </trkpt>
      <trkpt lat="45.83592" lon="2.95894">
        <ele>1029.2</ele>
        <time>2025-08-07T16:04:28Z</time>
      </trkpt>
      <trkpt lat="45.83591" lon="2.95894">
        <ele>1029.6</ele>
        <time>2025-08-07T16:04:29Z</time>
      </trkpt>
      <trkpt lat="45.83591" lon="2.95894">
        <ele>1030</ele>
        <time>2025-08-07T16:04:30Z</time>
      </trkpt>
      <trkpt lat="45.83589" lon="2.95893">
        <ele>1030.6</ele>
        <time>2025-08-07T16:04:31Z</time>
      </trkpt>
      <trkpt lat="45.83588" lon="2.95893">
        <ele>1031.2</ele>
        <time>2025-08-07T16:04:32Z</time>
      </trkpt>
      <trkpt lat="45.83588" lon="2.95892">
        <ele>1031.6</ele>
        <time>2025-08-07T16:04:33Z</time>
      </trkpt>
      <trkpt lat="45.83587" lon="2.95891">
        <ele>1032.2</ele>
        <time>2025-08-07T16:04:34Z</time>
      </trkpt>
      <trkpt lat="45.83585" lon="2.9589">
        <ele>1032.8</ele>
        <time>2025-08-07T16:04:35Z</time>
      </trkpt>
      <trkpt lat="45.83583" lon="2.95887">
        <ele>1033.4</ele>
        <time>2025-08-07T16:04:36Z</time>
      </trkpt>
      <trkpt lat="45.83579" lon="2.95884">
        <ele>1034</ele>
        <time>2025-08-07T16:04:37Z</time>
      </trkpt>
      <trkpt lat="45.83576" lon="2.95881">
        <ele>1034.6</ele>
        <time>2025-08-07T16:04:38Z</time>
      </trkpt>
      <trkpt lat="45.83574" lon="2.95879">
        <ele>1035.2</ele>
        <time>2025-08-07T16:04:39Z</time>
      </trkpt>
      <trkpt lat="45.83572" lon="2.95878">
        <ele>1035.6</ele>
        <time>2025-08-07T16:04:40Z</time>
      </trkpt>
      <trkpt lat="45.83571" lon="2.95877">
        <ele>1036.2</ele>
        <time>2025-08-07T16:04:41Z</time>
      </trkpt>
      <trkpt lat="45.83571" lon="2.95875">
        <ele>1036.8</ele>
        <time>2025-08-07T16:04:42Z</time>
      </trkpt>
      <trkpt lat="45.83571" lon="2.95874">
        <ele>1037.2</ele>
        <time>2025-08-07T16:04:43Z</time>
      </trkpt>
      <trkpt lat="45.83572" lon="2.95873">
        <ele>1037.6</ele>
        <time>2025-08-07T16:04:44Z</time>
      </trkpt>
      <trkpt lat="45.83573" lon="2.9587">
        <ele>1038</ele>
        <time>2025-08-07T16:04:45Z</time>
      </trkpt>
      <trkpt lat="45.83574" lon="2.95868">
        <ele>1038.4</ele>
        <time>2025-08-07T16:04:46Z</time>
      </trkpt>
      <trkpt lat="45.83575" lon="2.95866">
        <ele>1038.6</ele>
        <time>2025-08-07T16:04:47Z</time>
      </trkpt>
      <trkpt lat="45.83576" lon="2.95864">
        <ele>1039</ele>
        <time>2025-08-07T16:04:48Z</time>
      </trkpt>
      <trkpt lat="45.83578" lon="2.95859">
        <ele>1039.2</ele>
        <time>2025-08-07T16:04:49Z</time>
      </trkpt>
      <trkpt lat="45.83579" lon="2.95854">
        <ele>1039.4</ele>
        <time>2025-08-07T16:04:50Z</time>
      </trkpt>
      <trkpt lat="45.8358" lon="2.95851">
        <ele>1039.6</ele>
        <time>2025-08-07T16:04:51Z</time>
      </trkpt>
      <trkpt lat="45.83581" lon="2.95847">
        <ele>1040</ele>
        <time>2025-08-07T16:04:52Z</time>
      </trkpt>
      <trkpt lat="45.83581" lon="2.95844">
        <ele>1040.2</ele>
        <time>2025-08-07T16:04:53Z</time>
      </trkpt>
      <trkpt lat="45.83582" lon="2.95837">
        <ele>1040.4</ele>
        <time>2025-08-07T16:04:54Z</time>
      </trkpt>
      <trkpt lat="45.83583" lon="2.95826">
        <ele>1040.4</ele>
        <time>2025-08-07T16:04:55Z</time>
      </trkpt>
      <trkpt lat="45.83586" lon="2.9582">
        <ele>1040.6</ele>
        <time>2025-08-07T16:04:56Z</time>
      </trkpt>
      <trkpt lat="45.83589" lon="2.95815">
        <ele>1040.6</ele>
        <time>2025-08-07T16:04:57Z</time>
      </trkpt>
      <trkpt lat="45.83593" lon="2.95808">
        <ele>1040.6</ele>
        <time>2025-08-07T16:04:58Z</time>
      </trkpt>
      <trkpt lat="45.83596" lon="2.95801">
        <ele>1040.6</ele>
        <time>2025-08-07T16:04:59Z</time>
      </trkpt>
      <trkpt lat="45.83598" lon="2.95795">
        <ele>1040.6</ele>
        <time>2025-08-07T16:05:00Z</time>
      </trkpt>
      <trkpt lat="45.836" lon="2.9579">
        <ele>1040.8</ele>
        <time>2025-08-07T16:05:01Z</time>
      </trkpt>
      <trkpt lat="45.83602" lon="2.95783">
        <ele>1040.8</ele>
        <time>2025-08-07T16:05:02Z</time>
      </trkpt>
      <trkpt lat="45.83604" lon="2.95776">
        <ele>1040.8</ele>
        <time>2025-08-07T16:05:03Z</time>
      </trkpt>
      <trkpt lat="45.83609" lon="2.9577">
        <ele>1040.8</ele>
        <time>2025-08-07T16:05:04Z</time>
      </trkpt>
      <trkpt lat="45.83611" lon="2.95765">
        <ele>1040.8</ele>
        <time>2025-08-07T16:05:05Z</time>
      </trkpt>
      <trkpt lat="45.83613" lon="2.95761">
        <ele>1040.6</ele>
        <time>2025-08-07T16:05:06Z</time>
      </trkpt>
      <trkpt lat="45.83621" lon="2.95752">
        <ele>1040.4</ele>
        <time>2025-08-07T16:05:07Z</time>
      </trkpt>
      <trkpt lat="45.83622" lon="2.95749">
        <ele>1040.4</ele>
        <time>2025-08-07T16:05:08Z</time>
      </trkpt>
      <trkpt lat="45.83622" lon="2.95747">
        <ele>1040.2</ele>
        <time>2025-08-07T16:05:09Z</time>
      </trkpt>
      <trkpt lat="45.83623" lon="2.95745">
        <ele>1040</ele>
        <time>2025-08-07T16:05:10Z</time>
      </trkpt>
      <trkpt lat="45.83625" lon="2.95742">
        <ele>1039.8</ele>
        <time>2025-08-07T16:05:11Z</time>
      </trkpt>
      <trkpt lat="45.83626" lon="2.95739">
        <ele>1039.8</ele>
        <time>2025-08-07T16:05:12Z</time>
      </trkpt>
      <trkpt lat="45.83627" lon="2.95735">
        <ele>1039.6</ele>
        <time>2025-08-07T16:05:13Z</time>
      </trkpt>
      <trkpt lat="45.83625" lon="2.95733">
        <ele>1039.8</ele>
        <time>2025-08-07T16:05:14Z</time>
      </trkpt>
      <trkpt lat="45.83623" lon="2.9573">
        <ele>1040</ele>
        <time>2025-08-07T16:05:15Z</time>
      </trkpt>
      <trkpt lat="45.83623" lon="2.9573">
        <ele>1040.2</ele>
        <time>2025-08-07T16:05:16Z</time>
      </trkpt>
      <trkpt lat="45.83625" lon="2.95729">
        <ele>1040.2</ele>
        <time>2025-08-07T16:05:25Z</time>
      </trkpt>
      <trkpt lat="45.83625" lon="2.95727">
        <ele>1040.2</ele>
        <time>2025-08-07T16:05:26Z</time>
      </trkpt>
      <trkpt lat="45.83627" lon="2.95724">
        <ele>1040.2</ele>
        <time>2025-08-07T16:05:27Z</time>
      </trkpt>
      <trkpt lat="45.83628" lon="2.9572">
        <ele>1040.2</ele>
        <time>2025-08-07T16:05:28Z</time>
      </trkpt>
      <trkpt lat="45.8363" lon="2.95715">
        <ele>1040.2</ele>
        <time>2025-08-07T16:05:29Z</time>
      </trkpt>
      <trkpt lat="45.83631" lon="2.95711">
        <ele>1040.2</ele>
        <time>2025-08-07T16:05:30Z</time>
      </trkpt>
      <trkpt lat="45.83632" lon="2.95708">
        <ele>1040</ele>
        <time>2025-08-07T16:05:31Z</time>
      </trkpt>
      <trkpt lat="45.83632" lon="2.95708">
        <ele>1040</ele>
        <time>2025-08-07T16:05:32Z</time>
      </trkpt>
      <trkpt lat="45.83633" lon="2.95707">
        <ele>1040</ele>
        <time>2025-08-07T16:05:33Z</time>
      </trkpt>
      <trkpt lat="45.83634" lon="2.95705">
        <ele>1039.8</ele>
        <time>2025-08-07T16:05:34Z</time>
      </trkpt>
      <trkpt lat="45.83635" lon="2.95703">
        <ele>1039.8</ele>
        <time>2025-08-07T16:05:35Z</time>
      </trkpt>
      <trkpt lat="45.83636" lon="2.957">
        <ele>1039.6</ele>
        <time>2025-08-07T16:05:36Z</time>
      </trkpt>
      <trkpt lat="45.83641" lon="2.95697">
        <ele>1039.4</ele>
        <time>2025-08-07T16:05:37Z</time>
      </trkpt>
      <trkpt lat="45.83643" lon="2.95692">
        <ele>1039.4</ele>
        <time>2025-08-07T16:05:38Z</time>
      </trkpt>
      <trkpt lat="45.83645" lon="2.95687">
        <ele>1039.4</ele>
        <time>2025-08-07T16:05:39Z</time>
      </trkpt>
      <trkpt lat="45.83646" lon="2.95686">
        <ele>1039.4</ele>
        <time>2025-08-07T16:05:40Z</time>
      </trkpt>
      <trkpt lat="45.83646" lon="2.95686">
        <ele>1039.4</ele>
        <time>2025-08-07T16:05:41Z</time>
      </trkpt>
      <trkpt lat="45.83646" lon="2.95686">
        <ele>1039.4</ele>
        <time>2025-08-07T16:05:42Z</time>
      </trkpt>
      <trkpt lat="45.83646" lon="2.95686">
        <ele>1039.4</ele>
        <time>2025-08-07T16:05:43Z</time>
      </trkpt>
      <trkpt lat="45.83646" lon="2.95686">
        <ele>1039.6</ele>
        <time>2025-08-07T16:05:44Z</time>
      </trkpt>
      <trkpt lat="45.83646" lon="2.95686">
        <ele>1039.6</ele>
        <time>2025-08-07T16:05:45Z</time>
      </trkpt>
      <trkpt lat="45.83649" lon="2.9568">
        <ele>1039.8</ele>
        <time>2025-08-07T16:06:05Z</time>
      </trkpt>
      <trkpt lat="45.83651" lon="2.95676">
        <ele>1039.8</ele>
        <time>2025-08-07T16:06:06Z</time>
      </trkpt>
      <trkpt lat="45.83652" lon="2.95672">
        <ele>1040</ele>
        <time>2025-08-07T16:06:07Z</time>
      </trkpt>
      <trkpt lat="45.83653" lon="2.95668">
        <ele>1040</ele>
        <time>2025-08-07T16:06:08Z</time>
      </trkpt>
      <trkpt lat="45.83653" lon="2.95665">
        <ele>1040</ele>
        <time>2025-08-07T16:06:09Z</time>
      </trkpt>
      <trkpt lat="45.83654" lon="2.95664">
        <ele>1040</ele>
        <time>2025-08-07T16:06:10Z</time>
      </trkpt>
      <trkpt lat="45.83654" lon="2.95662">
        <ele>1040</ele>
        <time>2025-08-07T16:06:11Z</time>
      </trkpt>
      <trkpt lat="45.83656" lon="2.9566">
        <ele>1040</ele>
        <time>2025-08-07T16:06:12Z</time>
      </trkpt>
      <trkpt lat="45.83657" lon="2.95657">
        <ele>1040</ele>
        <time>2025-08-07T16:06:13Z</time>
      </trkpt>
      <trkpt lat="45.83657" lon="2.95655">
        <ele>1040</ele>
        <time>2025-08-07T16:06:14Z</time>
      </trkpt>
      <trkpt lat="45.83657" lon="2.95654">
        <ele>1040</ele>
        <time>2025-08-07T16:06:15Z</time>
      </trkpt>
      <trkpt lat="45.83659" lon="2.95654">
        <ele>1040</ele>
        <time>2025-08-07T16:06:16Z</time>
      </trkpt>
      <trkpt lat="45.8366" lon="2.95653">
        <ele>1040</ele>
        <time>2025-08-07T16:06:17Z</time>
      </trkpt>
      <trkpt lat="45.8366" lon="2.95652">
        <ele>1040</ele>
        <time>2025-08-07T16:06:18Z</time>
      </trkpt>
      <trkpt lat="45.83662" lon="2.95649">
        <ele>1040</ele>
        <time>2025-08-07T16:06:19Z</time>
      </trkpt>
      <trkpt lat="45.83663" lon="2.95646">
        <ele>1040</ele>
        <time>2025-08-07T16:06:20Z</time>
      </trkpt>
      <trkpt lat="45.83664" lon="2.95642">
        <ele>1040</ele>
        <time>2025-08-07T16:06:21Z</time>
      </trkpt>
      <trkpt lat="45.83665" lon="2.95637">
        <ele>1040</ele>
        <time>2025-08-07T16:06:22Z</time>
      </trkpt>
      <trkpt lat="45.83665" lon="2.95634">
        <ele>1040</ele>
        <time>2025-08-07T16:06:23Z</time>
      </trkpt>
      <trkpt lat="45.83667" lon="2.9563">
        <ele>1040</ele>
        <time>2025-08-07T16:06:24Z</time>
      </trkpt>
      <trkpt lat="45.83669" lon="2.95626">
        <ele>1039.8</ele>
        <time>2025-08-07T16:06:25Z</time>
      </trkpt>
      <trkpt lat="45.83671" lon="2.95623">
        <ele>1039.8</ele>
        <time>2025-08-07T16:06:26Z</time>
      </trkpt>
      <trkpt lat="45.83673" lon="2.95619">
        <ele>1039.8</ele>
        <time>2025-08-07T16:06:27Z</time>
      </trkpt>
      <trkpt lat="45.83674" lon="2.95613">
        <ele>1039.6</ele>
        <time>2025-08-07T16:06:28Z</time>
      </trkpt>
      <trkpt lat="45.83674" lon="2.95608">
        <ele>1039.6</ele>
        <time>2025-08-07T16:06:29Z</time>
      </trkpt>
      <trkpt lat="45.83673" lon="2.95604">
        <ele>1039.4</ele>
        <time>2025-08-07T16:06:30Z</time>
      </trkpt>
      <trkpt lat="45.83672" lon="2.95599">
        <ele>1039</ele>
        <time>2025-08-07T16:06:31Z</time>
      </trkpt>
      <trkpt lat="45.83671" lon="2.95594">
        <ele>1038.6</ele>
        <time>2025-08-07T16:06:32Z</time>
      </trkpt>
      <trkpt lat="45.8367" lon="2.95587">
        <ele>1038</ele>
        <time>2025-08-07T16:06:33Z</time>
      </trkpt>
      <trkpt lat="45.83669" lon="2.95581">
        <ele>1037.6</ele>
        <time>2025-08-07T16:06:34Z</time>
      </trkpt>
      <trkpt lat="45.83669" lon="2.95574">
        <ele>1037</ele>
        <time>2025-08-07T16:06:35Z</time>
      </trkpt>
      <trkpt lat="45.83667" lon="2.95568">
        <ele>1036.6</ele>
        <time>2025-08-07T16:06:36Z</time>
      </trkpt>
      <trkpt lat="45.83663" lon="2.95563">
        <ele>1036.4</ele>
        <time>2025-08-07T16:06:37Z</time>
      </trkpt>
      <trkpt lat="45.83661" lon="2.95561">
        <ele>1036</ele>
        <time>2025-08-07T16:06:38Z</time>
      </trkpt>
      <trkpt lat="45.83659" lon="2.9556">
        <ele>1036</ele>
        <time>2025-08-07T16:06:39Z</time>
      </trkpt>
      <trkpt lat="45.83656" lon="2.95559">
        <ele>1035.8</ele>
        <time>2025-08-07T16:06:40Z</time>
      </trkpt>
      <trkpt lat="45.83651" lon="2.95556">
        <ele>1035.8</ele>
        <time>2025-08-07T16:06:41Z</time>
      </trkpt>
      <trkpt lat="45.83648" lon="2.95553">
        <ele>1035.8</ele>
        <time>2025-08-07T16:06:42Z</time>
      </trkpt>
      <trkpt lat="45.83643" lon="2.95548">
        <ele>1035.8</ele>
        <time>2025-08-07T16:06:43Z</time>
      </trkpt>
      <trkpt lat="45.83638" lon="2.95545">
        <ele>1035.8</ele>
        <time>2025-08-07T16:06:44Z</time>
      </trkpt>
      <trkpt lat="45.83634" lon="2.95542">
        <ele>1036</ele>
        <time>2025-08-07T16:06:45Z</time>
      </trkpt>
      <trkpt lat="45.8363" lon="2.95539">
        <ele>1036</ele>
        <time>2025-08-07T16:06:46Z</time>
      </trkpt>
      <trkpt lat="45.83626" lon="2.95536">
        <ele>1036.2</ele>
        <time>2025-08-07T16:06:47Z</time>
      </trkpt>
      <trkpt lat="45.83624" lon="2.95533">
        <ele>1036.2</ele>
        <time>2025-08-07T16:06:48Z</time>
      </trkpt>
      <trkpt lat="45.8362" lon="2.9553">
        <ele>1036.4</ele>
        <time>2025-08-07T16:06:49Z</time>
      </trkpt>
      <trkpt lat="45.83618" lon="2.9553">
        <ele>1036.6</ele>
        <time>2025-08-07T16:06:50Z</time>
      </trkpt>
      <trkpt lat="45.83618" lon="2.9553">
        <ele>1037</ele>
        <time>2025-08-07T16:06:51Z</time>
      </trkpt>
      <trkpt lat="45.83616" lon="2.95529">
        <ele>1037.2</ele>
        <time>2025-08-07T16:06:52Z</time>
      </trkpt>
      <trkpt lat="45.83614" lon="2.95527">
        <ele>1037.4</ele>
        <time>2025-08-07T16:06:53Z</time>
      </trkpt>
      <trkpt lat="45.83612" lon="2.95525">
        <ele>1037.8</ele>
        <time>2025-08-07T16:06:54Z</time>
      </trkpt>
      <trkpt lat="45.8361" lon="2.95522">
        <ele>1038</ele>
        <time>2025-08-07T16:06:55Z</time>
      </trkpt>
      <trkpt lat="45.83604" lon="2.95519">
        <ele>1038.4</ele>
        <time>2025-08-07T16:06:56Z</time>
      </trkpt>
      <trkpt lat="45.83603" lon="2.95519">
        <ele>1038.6</ele>
        <time>2025-08-07T16:06:57Z</time>
      </trkpt>
      <trkpt lat="45.83603" lon="2.95519">
        <ele>1039</ele>
        <time>2025-08-07T16:06:58Z</time>
      </trkpt>
      <trkpt lat="45.83603" lon="2.95519">
        <ele>1039.2</ele>
        <time>2025-08-07T16:06:59Z</time>
      </trkpt>
      <trkpt lat="45.83603" lon="2.95519">
        <ele>1039.4</ele>
        <time>2025-08-07T16:07:00Z</time>
      </trkpt>
      <trkpt lat="45.83599" lon="2.95516">
        <ele>1039.8</ele>
        <time>2025-08-07T16:07:01Z</time>
      </trkpt>
      <trkpt lat="45.83595" lon="2.95512">
        <ele>1040</ele>
        <time>2025-08-07T16:07:02Z</time>
      </trkpt>
      <trkpt lat="45.83589" lon="2.95507">
        <ele>1040.2</ele>
        <time>2025-08-07T16:07:03Z</time>
      </trkpt>
      <trkpt lat="45.83582" lon="2.95503">
        <ele>1040.6</ele>
        <time>2025-08-07T16:07:04Z</time>
      </trkpt>
      <trkpt lat="45.83577" lon="2.95501">
        <ele>1040.8</ele>
        <time>2025-08-07T16:07:05Z</time>
      </trkpt>
      <trkpt lat="45.83573" lon="2.95498">
        <ele>1041.2</ele>
        <time>2025-08-07T16:07:06Z</time>
      </trkpt>
      <trkpt lat="45.8357" lon="2.95497">
        <ele>1041.4</ele>
        <time>2025-08-07T16:07:07Z</time>
      </trkpt>
      <trkpt lat="45.83566" lon="2.95496">
        <ele>1041.6</ele>
        <time>2025-08-07T16:07:08Z</time>
      </trkpt>
      <trkpt lat="45.83563" lon="2.95494">
        <ele>1041.8</ele>
        <time>2025-08-07T16:07:09Z</time>
      </trkpt>
      <trkpt lat="45.83562" lon="2.95494">
        <ele>1042</ele>
        <time>2025-08-07T16:07:10Z</time>
      </trkpt>
      <trkpt lat="45.83562" lon="2.95494">
        <ele>1042.2</ele>
        <time>2025-08-07T16:07:11Z</time>
      </trkpt>
      <trkpt lat="45.83557" lon="2.95493">
        <ele>1042.2</ele>
        <time>2025-08-07T16:07:12Z</time>
      </trkpt>
      <trkpt lat="45.83555" lon="2.95491">
        <ele>1042</ele>
        <time>2025-08-07T16:07:13Z</time>
      </trkpt>
      <trkpt lat="45.83552" lon="2.95488">
        <ele>1042</ele>
        <time>2025-08-07T16:07:14Z</time>
      </trkpt>
      <trkpt lat="45.83546" lon="2.95484">
        <ele>1042</ele>
        <time>2025-08-07T16:07:15Z</time>
      </trkpt>
      <trkpt lat="45.83539" lon="2.95478">
        <ele>1041.8</ele>
        <time>2025-08-07T16:07:16Z</time>
      </trkpt>
      <trkpt lat="45.83535" lon="2.95476">
        <ele>1041.6</ele>
        <time>2025-08-07T16:07:17Z</time>
      </trkpt>
      <trkpt lat="45.83531" lon="2.95475">
        <ele>1041.4</ele>
        <time>2025-08-07T16:07:18Z</time>
      </trkpt>
      <trkpt lat="45.83527" lon="2.95473">
        <ele>1041</ele>
        <time>2025-08-07T16:07:19Z</time>
      </trkpt>
      <trkpt lat="45.83523" lon="2.95472">
        <ele>1040.8</ele>
        <time>2025-08-07T16:07:20Z</time>
      </trkpt>
      <trkpt lat="45.83519" lon="2.9547">
        <ele>1040.6</ele>
        <time>2025-08-07T16:07:21Z</time>
      </trkpt>
      <trkpt lat="45.83514" lon="2.95466">
        <ele>1040.2</ele>
        <time>2025-08-07T16:07:22Z</time>
      </trkpt>
      <trkpt lat="45.83508" lon="2.95462">
        <ele>1039.8</ele>
        <time>2025-08-07T16:07:23Z</time>
      </trkpt>
      <trkpt lat="45.83499" lon="2.95459">
        <ele>1039.4</ele>
        <time>2025-08-07T16:07:24Z</time>
      </trkpt>
      <trkpt lat="45.83493" lon="2.95457">
        <ele>1039</ele>
        <time>2025-08-07T16:07:25Z</time>
      </trkpt>
      <trkpt lat="45.83486" lon="2.95453">
        <ele>1038.4</ele>
        <time>2025-08-07T16:07:26Z</time>
      </trkpt>
      <trkpt lat="45.83481" lon="2.95452">
        <ele>1037.8</ele>
        <time>2025-08-07T16:07:27Z</time>
      </trkpt>
      <trkpt lat="45.83475" lon="2.95452">
        <ele>1037.4</ele>
        <time>2025-08-07T16:07:28Z</time>
      </trkpt>
      <trkpt lat="45.8347" lon="2.95451">
        <ele>1036.8</ele>
        <time>2025-08-07T16:07:29Z</time>
      </trkpt>
      <trkpt lat="45.83466" lon="2.95451">
        <ele>1036.2</ele>
        <time>2025-08-07T16:07:30Z</time>
      </trkpt>
      <trkpt lat="45.83463" lon="2.95449">
        <ele>1035.8</ele>
        <time>2025-08-07T16:07:31Z</time>
      </trkpt>
      <trkpt lat="45.8346" lon="2.95448">
        <ele>1035.2</ele>
        <time>2025-08-07T16:07:32Z</time>
      </trkpt>
      <trkpt lat="45.83455" lon="2.95444">
        <ele>1034.8</ele>
        <time>2025-08-07T16:07:33Z</time>
      </trkpt>
      <trkpt lat="45.83452" lon="2.95441">
        <ele>1034.6</ele>
        <time>2025-08-07T16:07:34Z</time>
      </trkpt>
      <trkpt lat="45.8345" lon="2.95439">
        <ele>1034.4</ele>
        <time>2025-08-07T16:07:35Z</time>
      </trkpt>
      <trkpt lat="45.83449" lon="2.95436">
        <ele>1034</ele>
        <time>2025-08-07T16:07:36Z</time>
      </trkpt>
      <trkpt lat="45.83448" lon="2.95432">
        <ele>1033.8</ele>
        <time>2025-08-07T16:07:37Z</time>
      </trkpt>
      <trkpt lat="45.83444" lon="2.95427">
        <ele>1033.4</ele>
        <time>2025-08-07T16:07:38Z</time>
      </trkpt>
      <trkpt lat="45.83439" lon="2.95424">
        <ele>1033.2</ele>
        <time>2025-08-07T16:07:39Z</time>
      </trkpt>
      <trkpt lat="45.83431" lon="2.95421">
        <ele>1033</ele>
        <time>2025-08-07T16:07:40Z</time>
      </trkpt>
      <trkpt lat="45.83427" lon="2.95418">
        <ele>1032.6</ele>
        <time>2025-08-07T16:07:41Z</time>
      </trkpt>
      <trkpt lat="45.83422" lon="2.95412">
        <ele>1032.2</ele>
        <time>2025-08-07T16:07:42Z</time>
      </trkpt>
      <trkpt lat="45.83407" lon="2.954">
        <ele>1031.8</ele>
        <time>2025-08-07T16:07:43Z</time>
      </trkpt>
      <trkpt lat="45.83402" lon="2.95399">
        <ele>1031.4</ele>
        <time>2025-08-07T16:07:44Z</time>
      </trkpt>
      <trkpt lat="45.83396" lon="2.95399">
        <ele>1031</ele>
        <time>2025-08-07T16:07:45Z</time>
      </trkpt>
      <trkpt lat="45.8339" lon="2.95401">
        <ele>1030.2</ele>
        <time>2025-08-07T16:07:46Z</time>
      </trkpt>
      <trkpt lat="45.83383" lon="2.95402">
        <ele>1029.6</ele>
        <time>2025-08-07T16:07:47Z</time>
      </trkpt>
      <trkpt lat="45.83364" lon="2.95401">
        <ele>1028.8</ele>
        <time>2025-08-07T16:07:48Z</time>
      </trkpt>
      <trkpt lat="45.83346" lon="2.95397">
        <ele>1027.8</ele>
        <time>2025-08-07T16:07:49Z</time>
      </trkpt>
      <trkpt lat="45.83338" lon="2.95397">
        <ele>1027</ele>
        <time>2025-08-07T16:07:50Z</time>
      </trkpt>
      <trkpt lat="45.83333" lon="2.95402">
        <ele>1026.2</ele>
        <time>2025-08-07T16:07:51Z</time>
      </trkpt>
      <trkpt lat="45.83328" lon="2.95405">
        <ele>1025.4</ele>
        <time>2025-08-07T16:07:52Z</time>
      </trkpt>
      <trkpt lat="45.83322" lon="2.95408">
        <ele>1024.8</ele>
        <time>2025-08-07T16:07:53Z</time>
      </trkpt>
      <trkpt lat="45.83315" lon="2.95412">
        <ele>1024.2</ele>
        <time>2025-08-07T16:07:54Z</time>
      </trkpt>
      <trkpt lat="45.83308" lon="2.95415">
        <ele>1023.6</ele>
        <time>2025-08-07T16:07:55Z</time>
      </trkpt>
      <trkpt lat="45.833" lon="2.9542">
        <ele>1023.2</ele>
        <time>2025-08-07T16:07:56Z</time>
      </trkpt>
      <trkpt lat="45.83291" lon="2.95422">
        <ele>1022.8</ele>
        <time>2025-08-07T16:07:57Z</time>
      </trkpt>
      <trkpt lat="45.83283" lon="2.95424">
        <ele>1022.6</ele>
        <time>2025-08-07T16:07:58Z</time>
      </trkpt>
      <trkpt lat="45.83273" lon="2.95426">
        <ele>1022.2</ele>
        <time>2025-08-07T16:07:59Z</time>
      </trkpt>
      <trkpt lat="45.83263" lon="2.95426">
        <ele>1022</ele>
        <time>2025-08-07T16:08:00Z</time>
      </trkpt>
      <trkpt lat="45.83256" lon="2.95426">
        <ele>1021.8</ele>
        <time>2025-08-07T16:08:01Z</time>
      </trkpt>
      <trkpt lat="45.83248" lon="2.95425">
        <ele>1021.4</ele>
        <time>2025-08-07T16:08:02Z</time>
      </trkpt>
      <trkpt lat="45.83242" lon="2.95425">
        <ele>1021.2</ele>
        <time>2025-08-07T16:08:03Z</time>
      </trkpt>
      <trkpt lat="45.83232" lon="2.95421">
        <ele>1021</ele>
        <time>2025-08-07T16:08:04Z</time>
      </trkpt>
      <trkpt lat="45.83225" lon="2.95422">
        <ele>1020.8</ele>
        <time>2025-08-07T16:08:05Z</time>
      </trkpt>
      <trkpt lat="45.8322" lon="2.95426">
        <ele>1020.6</ele>
        <time>2025-08-07T16:08:06Z</time>
      </trkpt>
      <trkpt lat="45.8321" lon="2.95429">
        <ele>1020.4</ele>
        <time>2025-08-07T16:08:07Z</time>
      </trkpt>
      <trkpt lat="45.83203" lon="2.9543">
        <ele>1020.4</ele>
        <time>2025-08-07T16:08:08Z</time>
      </trkpt>
      <trkpt lat="45.83196" lon="2.9543">
        <ele>1020.4</ele>
        <time>2025-08-07T16:08:09Z</time>
      </trkpt>
      <trkpt lat="45.8319" lon="2.9543">
        <ele>1020.4</ele>
        <time>2025-08-07T16:08:10Z</time>
      </trkpt>
      <trkpt lat="45.83184" lon="2.95431">
        <ele>1020.4</ele>
        <time>2025-08-07T16:08:11Z</time>
      </trkpt>
      <trkpt lat="45.83188" lon="2.9543">
        <ele>1020.4</ele>
        <time>2025-08-07T16:08:12Z</time>
      </trkpt>
      <trkpt lat="45.83186" lon="2.95436">
        <ele>1020.2</ele>
        <time>2025-08-07T16:08:13Z</time>
      </trkpt>
      <trkpt lat="45.83181" lon="2.95438">
        <ele>1020.2</ele>
        <time>2025-08-07T16:08:14Z</time>
      </trkpt>
      <trkpt lat="45.83177" lon="2.95439">
        <ele>1020.2</ele>
        <time>2025-08-07T16:08:15Z</time>
      </trkpt>
      <trkpt lat="45.83174" lon="2.95441">
        <ele>1020</ele>
        <time>2025-08-07T16:08:16Z</time>
      </trkpt>
      <trkpt lat="45.83172" lon="2.95443">
        <ele>1020</ele>
        <time>2025-08-07T16:08:17Z</time>
      </trkpt>
      <trkpt lat="45.83171" lon="2.95446">
        <ele>1020</ele>
        <time>2025-08-07T16:08:18Z</time>
      </trkpt>
      <trkpt lat="45.83171" lon="2.95446">
        <ele>1020</ele>
        <time>2025-08-07T16:08:19Z</time>
      </trkpt>
      <trkpt lat="45.83171" lon="2.95446">
        <ele>1020</ele>
        <time>2025-08-07T16:08:20Z</time>
      </trkpt>
      <trkpt lat="45.83171" lon="2.95446">
        <ele>1020</ele>
        <time>2025-08-07T16:08:21Z</time>
      </trkpt>
      <trkpt lat="45.83171" lon="2.95446">
        <ele>1020</ele>
        <time>2025-08-07T16:08:22Z</time>
      </trkpt>
      <trkpt lat="45.83171" lon="2.95446">
        <ele>1020</ele>
        <time>2025-08-07T16:08:23Z</time>
      </trkpt>
      <trkpt lat="45.83171" lon="2.95446">
        <ele>1020</ele>
        <time>2025-08-07T16:08:24Z</time>
      </trkpt>
      <trkpt lat="45.83169" lon="2.95448">
        <ele>1020</ele>
        <time>2025-08-07T16:08:32Z</time>
      </trkpt>
      <trkpt lat="45.83168" lon="2.95448">
        <ele>1020</ele>
        <time>2025-08-07T16:08:33Z</time>
      </trkpt>
      <trkpt lat="45.83167" lon="2.95449">
        <ele>1020</ele>
        <time>2025-08-07T16:08:34Z</time>
      </trkpt>
      <trkpt lat="45.83165" lon="2.9545">
        <ele>1020.2</ele>
        <time>2025-08-07T16:08:35Z</time>
      </trkpt>
      <trkpt lat="45.83164" lon="2.95451">
        <ele>1020.4</ele>
        <time>2025-08-07T16:08:36Z</time>
      </trkpt>
      <trkpt lat="45.83163" lon="2.95452">
        <ele>1020.6</ele>
        <time>2025-08-07T16:08:37Z</time>
      </trkpt>
      <trkpt lat="45.83162" lon="2.95453">
        <ele>1020.8</ele>
        <time>2025-08-07T16:08:38Z</time>
      </trkpt>
      <trkpt lat="45.83161" lon="2.95455">
        <ele>1021</ele>
        <time>2025-08-07T16:08:39Z</time>
      </trkpt>
      <trkpt lat="45.83159" lon="2.95456">
        <ele>1021.2</ele>
        <time>2025-08-07T16:08:40Z</time>
      </trkpt>
      <trkpt lat="45.83157" lon="2.95458">
        <ele>1021.6</ele>
        <time>2025-08-07T16:08:41Z</time>
      </trkpt>
      <trkpt lat="45.83155" lon="2.9546">
        <ele>1021.8</ele>
        <time>2025-08-07T16:08:42Z</time>
      </trkpt>
      <trkpt lat="45.83152" lon="2.95461">
        <ele>1022.2</ele>
        <time>2025-08-07T16:08:43Z</time>
      </trkpt>
      <trkpt lat="45.83151" lon="2.95463">
        <ele>1022.4</ele>
        <time>2025-08-07T16:08:44Z</time>
      </trkpt>
      <trkpt lat="45.83148" lon="2.95466">
        <ele>1022.6</ele>
        <time>2025-08-07T16:08:45Z</time>
      </trkpt>
      <trkpt lat="45.83146" lon="2.95469">
        <ele>1023</ele>
        <time>2025-08-07T16:08:46Z</time>
      </trkpt>
      <trkpt lat="45.83143" lon="2.95472">
        <ele>1023.2</ele>
        <time>2025-08-07T16:08:47Z</time>
      </trkpt>
      <trkpt lat="45.83141" lon="2.95474">
        <ele>1023.4</ele>
        <time>2025-08-07T16:08:48Z</time>
      </trkpt>
      <trkpt lat="45.83137" lon="2.95477">
        <ele>1023.8</ele>
        <time>2025-08-07T16:08:49Z</time>
      </trkpt>
      <trkpt lat="45.83133" lon="2.95481">
        <ele>1024</ele>
        <time>2025-08-07T16:08:50Z</time>
      </trkpt>
      <trkpt lat="45.8313" lon="2.95485">
        <ele>1024.4</ele>
        <time>2025-08-07T16:08:51Z</time>
      </trkpt>
      <trkpt lat="45.83127" lon="2.95489">
        <ele>1024.6</ele>
        <time>2025-08-07T16:08:52Z</time>
      </trkpt>
      <trkpt lat="45.83124" lon="2.95493">
        <ele>1025</ele>
        <time>2025-08-07T16:08:53Z</time>
      </trkpt>
      <trkpt lat="45.8312" lon="2.955">
        <ele>1025.2</ele>
        <time>2025-08-07T16:08:54Z</time>
      </trkpt>
      <trkpt lat="45.83118" lon="2.95507">
        <ele>1025.4</ele>
        <time>2025-08-07T16:08:55Z</time>
      </trkpt>
      <trkpt lat="45.83116" lon="2.95514">
        <ele>1025.4</ele>
        <time>2025-08-07T16:08:56Z</time>
      </trkpt>
      <trkpt lat="45.83115" lon="2.95521">
        <ele>1025.6</ele>
        <time>2025-08-07T16:08:57Z</time>
      </trkpt>
      <trkpt lat="45.83115" lon="2.95529">
        <ele>1025.6</ele>
        <time>2025-08-07T16:08:58Z</time>
      </trkpt>
      <trkpt lat="45.83116" lon="2.9554">
        <ele>1025.6</ele>
        <time>2025-08-07T16:08:59Z</time>
      </trkpt>
      <trkpt lat="45.83117" lon="2.95554">
        <ele>1025.8</ele>
        <time>2025-08-07T16:09:00Z</time>
      </trkpt>
      <trkpt lat="45.83118" lon="2.95562">
        <ele>1025.8</ele>
        <time>2025-08-07T16:09:01Z</time>
      </trkpt>
      <trkpt lat="45.83118" lon="2.95569">
        <ele>1025.8</ele>
        <time>2025-08-07T16:09:02Z</time>
      </trkpt>
      <trkpt lat="45.83119" lon="2.95576">
        <ele>1026</ele>
        <time>2025-08-07T16:09:03Z</time>
      </trkpt>
      <trkpt lat="45.83118" lon="2.95585">
        <ele>1026</ele>
        <time>2025-08-07T16:09:04Z</time>
      </trkpt>
      <trkpt lat="45.8312" lon="2.95593">
        <ele>1026.2</ele>
        <time>2025-08-07T16:09:05Z</time>
      </trkpt>
      <trkpt lat="45.83121" lon="2.95601">
        <ele>1026.2</ele>
        <time>2025-08-07T16:09:06Z</time>
      </trkpt>
      <trkpt lat="45.83121" lon="2.95611">
        <ele>1026.2</ele>
        <time>2025-08-07T16:09:07Z</time>
      </trkpt>
      <trkpt lat="45.83118" lon="2.95619">
        <ele>1026.2</ele>
        <time>2025-08-07T16:09:08Z</time>
      </trkpt>
      <trkpt lat="45.83117" lon="2.95625">
        <ele>1026.2</ele>
        <time>2025-08-07T16:09:09Z</time>
      </trkpt>
      <trkpt lat="45.83116" lon="2.95632">
        <ele>1026.2</ele>
        <time>2025-08-07T16:09:10Z</time>
      </trkpt>
      <trkpt lat="45.83115" lon="2.95641">
        <ele>1026.2</ele>
        <time>2025-08-07T16:09:11Z</time>
      </trkpt>
      <trkpt lat="45.83115" lon="2.95649">
        <ele>1026.2</ele>
        <time>2025-08-07T16:09:12Z</time>
      </trkpt>
      <trkpt lat="45.83114" lon="2.95656">
        <ele>1026</ele>
        <time>2025-08-07T16:09:13Z</time>
      </trkpt>
      <trkpt lat="45.83112" lon="2.95662">
        <ele>1026.2</ele>
        <time>2025-08-07T16:09:14Z</time>
      </trkpt>
      <trkpt lat="45.83112" lon="2.9567">
        <ele>1026.2</ele>
        <time>2025-08-07T16:09:15Z</time>
      </trkpt>
      <trkpt lat="45.83113" lon="2.9568">
        <ele>1026</ele>
        <time>2025-08-07T16:09:16Z</time>
      </trkpt>
      <trkpt lat="45.8311" lon="2.95693">
        <ele>1025.8</ele>
        <time>2025-08-07T16:09:17Z</time>
      </trkpt>
      <trkpt lat="45.83107" lon="2.95703">
        <ele>1025.6</ele>
        <time>2025-08-07T16:09:18Z</time>
      </trkpt>
      <trkpt lat="45.83107" lon="2.95708">
        <ele>1025.2</ele>
        <time>2025-08-07T16:09:19Z</time>
      </trkpt>
      <trkpt lat="45.83105" lon="2.95717">
        <ele>1025</ele>
        <time>2025-08-07T16:09:20Z</time>
      </trkpt>
      <trkpt lat="45.83104" lon="2.95724">
        <ele>1024.8</ele>
        <time>2025-08-07T16:09:21Z</time>
      </trkpt>
      <trkpt lat="45.83102" lon="2.95732">
        <ele>1024.6</ele>
        <time>2025-08-07T16:09:22Z</time>
      </trkpt>
      <trkpt lat="45.83101" lon="2.9574">
        <ele>1024.2</ele>
        <time>2025-08-07T16:09:23Z</time>
      </trkpt>
      <trkpt lat="45.83098" lon="2.95748">
        <ele>1024</ele>
        <time>2025-08-07T16:09:24Z</time>
      </trkpt>
      <trkpt lat="45.83094" lon="2.95755">
        <ele>1024</ele>
        <time>2025-08-07T16:09:25Z</time>
      </trkpt>
      <trkpt lat="45.8309" lon="2.95762">
        <ele>1023.8</ele>
        <time>2025-08-07T16:09:26Z</time>
      </trkpt>
      <trkpt lat="45.83084" lon="2.95776">
        <ele>1023.4</ele>
        <time>2025-08-07T16:09:27Z</time>
      </trkpt>
      <trkpt lat="45.83078" lon="2.95784">
        <ele>1023.2</ele>
        <time>2025-08-07T16:09:28Z</time>
      </trkpt>
      <trkpt lat="45.83075" lon="2.95788">
        <ele>1023</ele>
        <time>2025-08-07T16:09:29Z</time>
      </trkpt>
      <trkpt lat="45.8307" lon="2.95793">
        <ele>1022.8</ele>
        <time>2025-08-07T16:09:30Z</time>
      </trkpt>
      <trkpt lat="45.83066" lon="2.95799">
        <ele>1022.4</ele>
        <time>2025-08-07T16:09:31Z</time>
      </trkpt>
      <trkpt lat="45.8306" lon="2.95806">
        <ele>1022.2</ele>
        <time>2025-08-07T16:09:32Z</time>
      </trkpt>
      <trkpt lat="45.83055" lon="2.95812">
        <ele>1022</ele>
        <time>2025-08-07T16:09:33Z</time>
      </trkpt>
      <trkpt lat="45.83051" lon="2.95818">
        <ele>1021.8</ele>
        <time>2025-08-07T16:09:34Z</time>
      </trkpt>
      <trkpt lat="45.83045" lon="2.95823">
        <ele>1021.4</ele>
        <time>2025-08-07T16:09:35Z</time>
      </trkpt>
      <trkpt lat="45.83041" lon="2.95828">
        <ele>1021.2</ele>
        <time>2025-08-07T16:09:36Z</time>
      </trkpt>
      <trkpt lat="45.83033" lon="2.95833">
        <ele>1021</ele>
        <time>2025-08-07T16:09:37Z</time>
      </trkpt>
      <trkpt lat="45.83027" lon="2.95837">
        <ele>1021</ele>
        <time>2025-08-07T16:09:38Z</time>
      </trkpt>
      <trkpt lat="45.83024" lon="2.95838">
        <ele>1021</ele>
        <time>2025-08-07T16:09:39Z</time>
      </trkpt>
      <trkpt lat="45.83021" lon="2.95839">
        <ele>1021.2</ele>
        <time>2025-08-07T16:09:40Z</time>
      </trkpt>
      <trkpt lat="45.83017" lon="2.95839">
        <ele>1021.2</ele>
        <time>2025-08-07T16:09:41Z</time>
      </trkpt>
      <trkpt lat="45.83015" lon="2.95838">
        <ele>1021.4</ele>
        <time>2025-08-07T16:09:42Z</time>
      </trkpt>
      <trkpt lat="45.83012" lon="2.95837">
        <ele>1021.6</ele>
        <time>2025-08-07T16:09:43Z</time>
      </trkpt>
      <trkpt lat="45.8301" lon="2.95836">
        <ele>1021.8</ele>
        <time>2025-08-07T16:09:44Z</time>
      </trkpt>
      <trkpt lat="45.83008" lon="2.95836">
        <ele>1022</ele>
        <time>2025-08-07T16:09:45Z</time>
      </trkpt>
      <trkpt lat="45.83006" lon="2.95835">
        <ele>1022.2</ele>
        <time>2025-08-07T16:09:46Z</time>
      </trkpt>
      <trkpt lat="45.83003" lon="2.95836">
        <ele>1022.4</ele>
        <time>2025-08-07T16:09:47Z</time>
      </trkpt>
      <trkpt lat="45.83001" lon="2.95837">
        <ele>1022.8</ele>
        <time>2025-08-07T16:09:48Z</time>
      </trkpt>
      <trkpt lat="45.82999" lon="2.95837">
        <ele>1023.2</ele>
        <time>2025-08-07T16:09:49Z</time>
      </trkpt>
      <trkpt lat="45.82998" lon="2.95837">
        <ele>1023.6</ele>
        <time>2025-08-07T16:09:50Z</time>
      </trkpt>
      <trkpt lat="45.82995" lon="2.95837">
        <ele>1024.2</ele>
        <time>2025-08-07T16:09:51Z</time>
      </trkpt>
      <trkpt lat="45.82993" lon="2.95837">
        <ele>1024.6</ele>
        <time>2025-08-07T16:09:52Z</time>
      </trkpt>
      <trkpt lat="45.82991" lon="2.95837">
        <ele>1025.2</ele>
        <time>2025-08-07T16:09:53Z</time>
      </trkpt>
      <trkpt lat="45.8299" lon="2.95837">
        <ele>1025.4</ele>
        <time>2025-08-07T16:09:54Z</time>
      </trkpt>
      <trkpt lat="45.82988" lon="2.95838">
        <ele>1025.8</ele>
        <time>2025-08-07T16:09:55Z</time>
      </trkpt>
      <trkpt lat="45.82986" lon="2.95838">
        <ele>1026</ele>
        <time>2025-08-07T16:09:56Z</time>
      </trkpt>
      <trkpt lat="45.82985" lon="2.95839">
        <ele>1026.4</ele>
        <time>2025-08-07T16:09:57Z</time>
      </trkpt>
      <trkpt lat="45.82983" lon="2.9584">
        <ele>1026.6</ele>
        <time>2025-08-07T16:09:58Z</time>
      </trkpt>
      <trkpt lat="45.82982" lon="2.95842">
        <ele>1026.8</ele>
        <time>2025-08-07T16:09:59Z</time>
      </trkpt>
      <trkpt lat="45.82979" lon="2.95844">
        <ele>1027</ele>
        <time>2025-08-07T16:10:00Z</time>
      </trkpt>
      <trkpt lat="45.82977" lon="2.95846">
        <ele>1027.2</ele>
        <time>2025-08-07T16:10:01Z</time>
      </trkpt>
      <trkpt lat="45.82976" lon="2.95847">
        <ele>1027.2</ele>
        <time>2025-08-07T16:10:02Z</time>
      </trkpt>
      <trkpt lat="45.82975" lon="2.95847">
        <ele>1027.2</ele>
        <time>2025-08-07T16:10:03Z</time>
      </trkpt>
      <trkpt lat="45.82979" lon="2.95843">
        <ele>1027.2</ele>
        <time>2025-08-07T16:10:16Z</time>
      </trkpt>
      <trkpt lat="45.8298" lon="2.95843">
        <ele>1027.2</ele>
        <time>2025-08-07T16:10:17Z</time>
      </trkpt>
      <trkpt lat="45.82981" lon="2.95843">
        <ele>1027.2</ele>
        <time>2025-08-07T16:10:18Z</time>
      </trkpt>
      <trkpt lat="45.82982" lon="2.95844">
        <ele>1027.2</ele>
        <time>2025-08-07T16:10:19Z</time>
      </trkpt>
      <trkpt lat="45.82984" lon="2.95844">
        <ele>1027</ele>
        <time>2025-08-07T16:10:20Z</time>
      </trkpt>
      <trkpt lat="45.82985" lon="2.95844">
        <ele>1026.8</ele>
        <time>2025-08-07T16:10:21Z</time>
      </trkpt>
      <trkpt lat="45.82986" lon="2.95845">
        <ele>1026.6</ele>
        <time>2025-08-07T16:10:22Z</time>
      </trkpt>
      <trkpt lat="45.82988" lon="2.95846">
        <ele>1026.2</ele>
        <time>2025-08-07T16:10:23Z</time>
      </trkpt>
      <trkpt lat="45.82988" lon="2.95846">
        <ele>1025.8</ele>
        <time>2025-08-07T16:10:24Z</time>
      </trkpt>
      <trkpt lat="45.82989" lon="2.95846">
        <ele>1025.2</ele>
        <time>2025-08-07T16:10:25Z</time>
      </trkpt>
      <trkpt lat="45.82991" lon="2.95846">
        <ele>1024.8</ele>
        <time>2025-08-07T16:10:26Z</time>
      </trkpt>
      <trkpt lat="45.82993" lon="2.95847">
        <ele>1024.2</ele>
        <time>2025-08-07T16:10:27Z</time>
      </trkpt>
      <trkpt lat="45.82997" lon="2.95847">
        <ele>1023.8</ele>
        <time>2025-08-07T16:10:28Z</time>
      </trkpt>
      <trkpt lat="45.82999" lon="2.95848">
        <ele>1023.4</ele>
        <time>2025-08-07T16:10:29Z</time>
      </trkpt>
      <trkpt lat="45.83001" lon="2.9585">
        <ele>1023</ele>
        <time>2025-08-07T16:10:30Z</time>
      </trkpt>
      <trkpt lat="45.83003" lon="2.95854">
        <ele>1022.6</ele>
        <time>2025-08-07T16:10:31Z</time>
      </trkpt>
      <trkpt lat="45.83004" lon="2.95858">
        <ele>1022.2</ele>
        <time>2025-08-07T16:10:32Z</time>
      </trkpt>
      <trkpt lat="45.83005" lon="2.95862">
        <ele>1021.8</ele>
        <time>2025-08-07T16:10:33Z</time>
      </trkpt>
      <trkpt lat="45.83004" lon="2.95867">
        <ele>1021.4</ele>
        <time>2025-08-07T16:10:34Z</time>
      </trkpt>
      <trkpt lat="45.83004" lon="2.95871">
        <ele>1021</ele>
        <time>2025-08-07T16:10:35Z</time>
      </trkpt>
      <trkpt lat="45.83003" lon="2.95877">
        <ele>1020.6</ele>
        <time>2025-08-07T16:10:36Z</time>
      </trkpt>
      <trkpt lat="45.83002" lon="2.95883">
        <ele>1020.2</ele>
        <time>2025-08-07T16:10:37Z</time>
      </trkpt>
      <trkpt lat="45.83" lon="2.9589">
        <ele>1019.8</ele>
        <time>2025-08-07T16:10:38Z</time>
      </trkpt>
      <trkpt lat="45.82999" lon="2.95897">
        <ele>1019.4</ele>
        <time>2025-08-07T16:10:39Z</time>
      </trkpt>
      <trkpt lat="45.82996" lon="2.95901">
        <ele>1018.8</ele>
        <time>2025-08-07T16:10:40Z</time>
      </trkpt>
      <trkpt lat="45.82992" lon="2.95906">
        <ele>1018.2</ele>
        <time>2025-08-07T16:10:41Z</time>
      </trkpt>
      <trkpt lat="45.82988" lon="2.95914">
        <ele>1017.6</ele>
        <time>2025-08-07T16:10:42Z</time>
      </trkpt>
      <trkpt lat="45.82983" lon="2.95922">
        <ele>1016.8</ele>
        <time>2025-08-07T16:10:43Z</time>
      </trkpt>
      <trkpt lat="45.82979" lon="2.95929">
        <ele>1016</ele>
        <time>2025-08-07T16:10:44Z</time>
      </trkpt>
      <trkpt lat="45.82975" lon="2.95933">
        <ele>1015</ele>
        <time>2025-08-07T16:10:45Z</time>
      </trkpt>
      <trkpt lat="45.82971" lon="2.95937">
        <ele>1014.2</ele>
        <time>2025-08-07T16:10:46Z</time>
      </trkpt>
      <trkpt lat="45.82964" lon="2.95943">
        <ele>1013.2</ele>
        <time>2025-08-07T16:10:47Z</time>
      </trkpt>
      <trkpt lat="45.82957" lon="2.95952">
        <ele>1012.2</ele>
        <time>2025-08-07T16:10:48Z</time>
      </trkpt>
      <trkpt lat="45.82948" lon="2.95962">
        <ele>1011.2</ele>
        <time>2025-08-07T16:10:49Z</time>
      </trkpt>
      <trkpt lat="45.8294" lon="2.95971">
        <ele>1010.2</ele>
        <time>2025-08-07T16:10:50Z</time>
      </trkpt>
      <trkpt lat="45.82934" lon="2.9598">
        <ele>1009</ele>
        <time>2025-08-07T16:10:51Z</time>
      </trkpt>
      <trkpt lat="45.82929" lon="2.95988">
        <ele>1007.8</ele>
        <time>2025-08-07T16:10:52Z</time>
      </trkpt>
      <trkpt lat="45.82922" lon="2.95999">
        <ele>1006.6</ele>
        <time>2025-08-07T16:10:53Z</time>
      </trkpt>
      <trkpt lat="45.82915" lon="2.96011">
        <ele>1005.6</ele>
        <time>2025-08-07T16:10:54Z</time>
      </trkpt>
      <trkpt lat="45.82906" lon="2.96023">
        <ele>1004.4</ele>
        <time>2025-08-07T16:10:55Z</time>
      </trkpt>
      <trkpt lat="45.82897" lon="2.96032">
        <ele>1003.4</ele>
        <time>2025-08-07T16:10:56Z</time>
      </trkpt>
      <trkpt lat="45.82887" lon="2.96041">
        <ele>1002.4</ele>
        <time>2025-08-07T16:10:57Z</time>
      </trkpt>
      <trkpt lat="45.82878" lon="2.9605">
        <ele>1001.8</ele>
        <time>2025-08-07T16:10:58Z</time>
      </trkpt>
      <trkpt lat="45.8287" lon="2.96058">
        <ele>1001</ele>
        <time>2025-08-07T16:10:59Z</time>
      </trkpt>
      <trkpt lat="45.82861" lon="2.96066">
        <ele>1000</ele>
        <time>2025-08-07T16:11:00Z</time>
      </trkpt>
      <trkpt lat="45.82851" lon="2.96075">
        <ele>999</ele>
        <time>2025-08-07T16:11:01Z</time>
      </trkpt>
      <trkpt lat="45.82842" lon="2.96084">
        <ele>998.2</ele>
        <time>2025-08-07T16:11:02Z</time>
      </trkpt>
      <trkpt lat="45.82834" lon="2.96091">
        <ele>997.6</ele>
        <time>2025-08-07T16:11:03Z</time>
      </trkpt>
      <trkpt lat="45.82827" lon="2.96099">
        <ele>997.2</ele>
        <time>2025-08-07T16:11:04Z</time>
      </trkpt>
      <trkpt lat="45.82818" lon="2.9611">
        <ele>996.6</ele>
        <time>2025-08-07T16:11:05Z</time>
      </trkpt>
      <trkpt lat="45.82807" lon="2.96119">
        <ele>996</ele>
        <time>2025-08-07T16:11:06Z</time>
      </trkpt>
      <trkpt lat="45.82797" lon="2.96127">
        <ele>995.4</ele>
        <time>2025-08-07T16:11:07Z</time>
      </trkpt>
      <trkpt lat="45.82789" lon="2.96132">
        <ele>995</ele>
        <time>2025-08-07T16:11:08Z</time>
      </trkpt>
      <trkpt lat="45.82781" lon="2.96137">
        <ele>994.6</ele>
        <time>2025-08-07T16:11:09Z</time>
      </trkpt>
      <trkpt lat="45.82773" lon="2.9614">
        <ele>994.4</ele>
        <time>2025-08-07T16:11:10Z</time>
      </trkpt>
      <trkpt lat="45.82765" lon="2.96143">
        <ele>994.4</ele>
        <time>2025-08-07T16:11:11Z</time>
      </trkpt>
      <trkpt lat="45.82755" lon="2.96147">
        <ele>994.4</ele>
        <time>2025-08-07T16:11:12Z</time>
      </trkpt>
      <trkpt lat="45.82747" lon="2.96151">
        <ele>994.4</ele>
        <time>2025-08-07T16:11:13Z</time>
      </trkpt>
      <trkpt lat="45.82739" lon="2.96156">
        <ele>994.2</ele>
        <time>2025-08-07T16:11:14Z</time>
      </trkpt>
      <trkpt lat="45.82734" lon="2.9616">
        <ele>994.2</ele>
        <time>2025-08-07T16:11:15Z</time>
      </trkpt>
      <trkpt lat="45.82729" lon="2.96164">
        <ele>994</ele>
        <time>2025-08-07T16:11:16Z</time>
      </trkpt>
      <trkpt lat="45.82724" lon="2.96168">
        <ele>994</ele>
        <time>2025-08-07T16:11:17Z</time>
      </trkpt>
      <trkpt lat="45.82719" lon="2.96172">
        <ele>993.8</ele>
        <time>2025-08-07T16:11:18Z</time>
      </trkpt>
      <trkpt lat="45.82715" lon="2.96175">
        <ele>993.8</ele>
        <time>2025-08-07T16:11:19Z</time>
      </trkpt>
      <trkpt lat="45.8271" lon="2.96177">
        <ele>993.6</ele>
        <time>2025-08-07T16:11:20Z</time>
      </trkpt>
      <trkpt lat="45.82704" lon="2.96179">
        <ele>993.6</ele>
        <time>2025-08-07T16:11:21Z</time>
      </trkpt>
      <trkpt lat="45.82698" lon="2.9618">
        <ele>993.6</ele>
        <time>2025-08-07T16:11:22Z</time>
      </trkpt>
      <trkpt lat="45.82693" lon="2.96179">
        <ele>993.4</ele>
        <time>2025-08-07T16:11:23Z</time>
      </trkpt>
      <trkpt lat="45.82688" lon="2.96179">
        <ele>993.2</ele>
        <time>2025-08-07T16:11:24Z</time>
      </trkpt>
      <trkpt lat="45.82683" lon="2.96179">
        <ele>993.2</ele>
        <time>2025-08-07T16:11:25Z</time>
      </trkpt>
      <trkpt lat="45.82677" lon="2.96178">
        <ele>992.8</ele>
        <time>2025-08-07T16:11:26Z</time>
      </trkpt>
      <trkpt lat="45.82671" lon="2.96178">
        <ele>992.6</ele>
        <time>2025-08-07T16:11:27Z</time>
      </trkpt>
      <trkpt lat="45.82665" lon="2.96177">
        <ele>992.2</ele>
        <time>2025-08-07T16:11:28Z</time>
      </trkpt>
      <trkpt lat="45.82658" lon="2.96177">
        <ele>991.8</ele>
        <time>2025-08-07T16:11:29Z</time>
      </trkpt>
      <trkpt lat="45.82651" lon="2.96176">
        <ele>991.2</ele>
        <time>2025-08-07T16:11:30Z</time>
      </trkpt>
      <trkpt lat="45.82643" lon="2.96176">
        <ele>990.6</ele>
        <time>2025-08-07T16:11:31Z</time>
      </trkpt>
      <trkpt lat="45.82635" lon="2.96178">
        <ele>989.8</ele>
        <time>2025-08-07T16:11:32Z</time>
      </trkpt>
      <trkpt lat="45.82625" lon="2.9618">
        <ele>989</ele>
        <time>2025-08-07T16:11:33Z</time>
      </trkpt>
      <trkpt lat="45.82617" lon="2.96183">
        <ele>988</ele>
        <time>2025-08-07T16:11:34Z</time>
      </trkpt>
      <trkpt lat="45.82608" lon="2.96188">
        <ele>987.2</ele>
        <time>2025-08-07T16:11:35Z</time>
      </trkpt>
      <trkpt lat="45.82599" lon="2.96194">
        <ele>986.6</ele>
        <time>2025-08-07T16:11:36Z</time>
      </trkpt>
      <trkpt lat="45.8259" lon="2.962">
        <ele>986</ele>
        <time>2025-08-07T16:11:37Z</time>
      </trkpt>
      <trkpt lat="45.82582" lon="2.96206">
        <ele>985.2</ele>
        <time>2025-08-07T16:11:38Z</time>
      </trkpt>
      <trkpt lat="45.82573" lon="2.96213">
        <ele>984.4</ele>
        <time>2025-08-07T16:11:39Z</time>
      </trkpt>
      <trkpt lat="45.82564" lon="2.96219">
        <ele>983.8</ele>
        <time>2025-08-07T16:11:40Z</time>
      </trkpt>
      <trkpt lat="45.82555" lon="2.96225">
        <ele>983.2</ele>
        <time>2025-08-07T16:11:41Z</time>
      </trkpt>
      <trkpt lat="45.82546" lon="2.96231">
        <ele>982.6</ele>
        <time>2025-08-07T16:11:42Z</time>
      </trkpt>
      <trkpt lat="45.82537" lon="2.96238">
        <ele>982.2</ele>
        <time>2025-08-07T16:11:43Z</time>
      </trkpt>
      <trkpt lat="45.82528" lon="2.96243">
        <ele>981.8</ele>
        <time>2025-08-07T16:11:44Z</time>
      </trkpt>
      <trkpt lat="45.8252" lon="2.9625">
        <ele>981.4</ele>
        <time>2025-08-07T16:11:45Z</time>
      </trkpt>
      <trkpt lat="45.82512" lon="2.96256">
        <ele>981</ele>
        <time>2025-08-07T16:11:46Z</time>
      </trkpt>
      <trkpt lat="45.82505" lon="2.96263">
        <ele>980.6</ele>
        <time>2025-08-07T16:11:47Z</time>
      </trkpt>
      <trkpt lat="45.82498" lon="2.9627">
        <ele>980.2</ele>
        <time>2025-08-07T16:11:48Z</time>
      </trkpt>
      <trkpt lat="45.82491" lon="2.96277">
        <ele>979.8</ele>
        <time>2025-08-07T16:11:49Z</time>
      </trkpt>
      <trkpt lat="45.82484" lon="2.96285">
        <ele>979.6</ele>
        <time>2025-08-07T16:11:50Z</time>
      </trkpt>
      <trkpt lat="45.82477" lon="2.96292">
        <ele>979.4</ele>
        <time>2025-08-07T16:11:51Z</time>
      </trkpt>
      <trkpt lat="45.8247" lon="2.96297">
        <ele>979</ele>
        <time>2025-08-07T16:11:52Z</time>
      </trkpt>
      <trkpt lat="45.82464" lon="2.96302">
        <ele>978.6</ele>
        <time>2025-08-07T16:11:53Z</time>
      </trkpt>
      <trkpt lat="45.82457" lon="2.96306">
        <ele>978.4</ele>
        <time>2025-08-07T16:11:54Z</time>
      </trkpt>
      <trkpt lat="45.8245" lon="2.9631">
        <ele>978.2</ele>
        <time>2025-08-07T16:11:55Z</time>
      </trkpt>
      <trkpt lat="45.82443" lon="2.96313">
        <ele>978</ele>
        <time>2025-08-07T16:11:56Z</time>
      </trkpt>
      <trkpt lat="45.82435" lon="2.96314">
        <ele>977.8</ele>
        <time>2025-08-07T16:11:57Z</time>
      </trkpt>
      <trkpt lat="45.82428" lon="2.96314">
        <ele>977.6</ele>
        <time>2025-08-07T16:11:58Z</time>
      </trkpt>
      <trkpt lat="45.82421" lon="2.96314">
        <ele>977.4</ele>
        <time>2025-08-07T16:11:59Z</time>
      </trkpt>
      <trkpt lat="45.82413" lon="2.96313">
        <ele>977.2</ele>
        <time>2025-08-07T16:12:00Z</time>
      </trkpt>
      <trkpt lat="45.82406" lon="2.96314">
        <ele>977</ele>
        <time>2025-08-07T16:12:01Z</time>
      </trkpt>
      <trkpt lat="45.824" lon="2.96314">
        <ele>976.8</ele>
        <time>2025-08-07T16:12:02Z</time>
      </trkpt>
      <trkpt lat="45.82394" lon="2.96313">
        <ele>976.6</ele>
        <time>2025-08-07T16:12:03Z</time>
      </trkpt>
      <trkpt lat="45.82388" lon="2.96311">
        <ele>976.4</ele>
        <time>2025-08-07T16:12:04Z</time>
      </trkpt>
      <trkpt lat="45.82379" lon="2.96308">
        <ele>976.2</ele>
        <time>2025-08-07T16:12:05Z</time>
      </trkpt>
      <trkpt lat="45.82369" lon="2.96306">
        <ele>975.8</ele>
        <time>2025-08-07T16:12:06Z</time>
      </trkpt>
      <trkpt lat="45.82361" lon="2.96306">
        <ele>975.6</ele>
        <time>2025-08-07T16:12:07Z</time>
      </trkpt>
      <trkpt lat="45.82353" lon="2.96305">
        <ele>975.2</ele>
        <time>2025-08-07T16:12:08Z</time>
      </trkpt>
      <trkpt lat="45.82346" lon="2.96306">
        <ele>975</ele>
        <time>2025-08-07T16:12:09Z</time>
      </trkpt>
      <trkpt lat="45.82338" lon="2.96308">
        <ele>974.6</ele>
        <time>2025-08-07T16:12:10Z</time>
      </trkpt>
      <trkpt lat="45.82328" lon="2.96308">
        <ele>974.2</ele>
        <time>2025-08-07T16:12:11Z</time>
      </trkpt>
      <trkpt lat="45.8232" lon="2.96309">
        <ele>974</ele>
        <time>2025-08-07T16:12:12Z</time>
      </trkpt>
      <trkpt lat="45.82312" lon="2.9631">
        <ele>973.6</ele>
        <time>2025-08-07T16:12:13Z</time>
      </trkpt>
      <trkpt lat="45.82307" lon="2.96314">
        <ele>973.4</ele>
        <time>2025-08-07T16:12:14Z</time>
      </trkpt>
      <trkpt lat="45.82301" lon="2.96316">
        <ele>973.2</ele>
        <time>2025-08-07T16:12:15Z</time>
      </trkpt>
      <trkpt lat="45.82295" lon="2.96316">
        <ele>972.8</ele>
        <time>2025-08-07T16:12:16Z</time>
      </trkpt>
      <trkpt lat="45.8229" lon="2.96319">
        <ele>972.6</ele>
        <time>2025-08-07T16:12:17Z</time>
      </trkpt>
      <trkpt lat="45.82285" lon="2.96324">
        <ele>972.4</ele>
        <time>2025-08-07T16:12:18Z</time>
      </trkpt>
      <trkpt lat="45.82282" lon="2.96327">
        <ele>972.2</ele>
        <time>2025-08-07T16:12:19Z</time>
      </trkpt>
      <trkpt lat="45.82278" lon="2.9633">
        <ele>972</ele>
        <time>2025-08-07T16:12:20Z</time>
      </trkpt>
      <trkpt lat="45.82275" lon="2.96332">
        <ele>971.8</ele>
        <time>2025-08-07T16:12:21Z</time>
      </trkpt>
      <trkpt lat="45.82271" lon="2.96335">
        <ele>971.6</ele>
        <time>2025-08-07T16:12:22Z</time>
      </trkpt>
      <trkpt lat="45.82268" lon="2.96336">
        <ele>971.6</ele>
        <time>2025-08-07T16:12:23Z</time>
      </trkpt>
      <trkpt lat="45.82264" lon="2.96337">
        <ele>971.4</ele>
        <time>2025-08-07T16:12:24Z</time>
      </trkpt>
      <trkpt lat="45.82259" lon="2.96338">
        <ele>971.2</ele>
        <time>2025-08-07T16:12:25Z</time>
      </trkpt>
      <trkpt lat="45.82254" lon="2.96339">
        <ele>971</ele>
        <time>2025-08-07T16:12:26Z</time>
      </trkpt>
      <trkpt lat="45.8225" lon="2.96341">
        <ele>970.8</ele>
        <time>2025-08-07T16:12:27Z</time>
      </trkpt>
      <trkpt lat="45.82246" lon="2.96343">
        <ele>970.6</ele>
        <time>2025-08-07T16:12:28Z</time>
      </trkpt>
      <trkpt lat="45.82243" lon="2.96343">
        <ele>970.4</ele>
        <time>2025-08-07T16:12:29Z</time>
      </trkpt>
      <trkpt lat="45.82243" lon="2.96341">
        <ele>970.2</ele>
        <time>2025-08-07T16:12:30Z</time>
      </trkpt>
      <trkpt lat="45.82242" lon="2.9634">
        <ele>970.2</ele>
        <time>2025-08-07T16:12:31Z</time>
      </trkpt>
      <trkpt lat="45.82227" lon="2.96342">
        <ele>969.8</ele>
        <time>2025-08-07T16:16:04Z</time>
      </trkpt>
      <trkpt lat="45.82223" lon="2.96343">
        <ele>969.8</ele>
        <time>2025-08-07T16:16:05Z</time>
      </trkpt>
      <trkpt lat="45.82219" lon="2.96345">
        <ele>969.8</ele>
        <time>2025-08-07T16:16:06Z</time>
      </trkpt>
      <trkpt lat="45.82217" lon="2.96347">
        <ele>969.8</ele>
        <time>2025-08-07T16:16:07Z</time>
      </trkpt>
      <trkpt lat="45.82212" lon="2.96348">
        <ele>969.8</ele>
        <time>2025-08-07T16:16:08Z</time>
      </trkpt>
      <trkpt lat="45.82206" lon="2.96349">
        <ele>969.6</ele>
        <time>2025-08-07T16:16:09Z</time>
      </trkpt>
      <trkpt lat="45.82201" lon="2.96351">
        <ele>969.6</ele>
        <time>2025-08-07T16:16:10Z</time>
      </trkpt>
      <trkpt lat="45.82197" lon="2.96351">
        <ele>969.4</ele>
        <time>2025-08-07T16:16:11Z</time>
      </trkpt>
      <trkpt lat="45.82195" lon="2.96352">
        <ele>969.4</ele>
        <time>2025-08-07T16:16:12Z</time>
      </trkpt>
      <trkpt lat="45.82192" lon="2.96354">
        <ele>969.2</ele>
        <time>2025-08-07T16:16:13Z</time>
      </trkpt>
      <trkpt lat="45.8219" lon="2.96355">
        <ele>969.2</ele>
        <time>2025-08-07T16:16:14Z</time>
      </trkpt>
      <trkpt lat="45.82188" lon="2.96355">
        <ele>969.2</ele>
        <time>2025-08-07T16:16:15Z</time>
      </trkpt>
      <trkpt lat="45.82187" lon="2.96357">
        <ele>969.2</ele>
        <time>2025-08-07T16:16:16Z</time>
      </trkpt>
      <trkpt lat="45.82185" lon="2.96358">
        <ele>969.2</ele>
        <time>2025-08-07T16:16:17Z</time>
      </trkpt>
      <trkpt lat="45.82184" lon="2.9636">
        <ele>969.2</ele>
        <time>2025-08-07T16:16:18Z</time>
      </trkpt>
      <trkpt lat="45.82184" lon="2.96363">
        <ele>969.2</ele>
        <time>2025-08-07T16:16:19Z</time>
      </trkpt>
      <trkpt lat="45.82183" lon="2.96367">
        <ele>969.2</ele>
        <time>2025-08-07T16:16:20Z</time>
      </trkpt>
      <trkpt lat="45.82183" lon="2.96372">
        <ele>969.2</ele>
        <time>2025-08-07T16:16:21Z</time>
      </trkpt>
      <trkpt lat="45.82182" lon="2.96378">
        <ele>969.4</ele>
        <time>2025-08-07T16:16:22Z</time>
      </trkpt>
      <trkpt lat="45.82184" lon="2.96383">
        <ele>969.4</ele>
        <time>2025-08-07T16:16:23Z</time>
      </trkpt>
      <trkpt lat="45.82185" lon="2.96388">
        <ele>969.4</ele>
        <time>2025-08-07T16:16:24Z</time>
      </trkpt>
      <trkpt lat="45.82188" lon="2.96393">
        <ele>969.6</ele>
        <time>2025-08-07T16:16:25Z</time>
      </trkpt>
      <trkpt lat="45.82189" lon="2.96395">
        <ele>969.8</ele>
        <time>2025-08-07T16:16:26Z</time>
      </trkpt>
      <trkpt lat="45.8219" lon="2.96397">
        <ele>970</ele>
        <time>2025-08-07T16:16:27Z</time>
      </trkpt>
      <trkpt lat="45.82191" lon="2.96399">
        <ele>970.2</ele>
        <time>2025-08-07T16:16:28Z</time>
      </trkpt>
      <trkpt lat="45.82194" lon="2.964">
        <ele>970.4</ele>
        <time>2025-08-07T16:16:29Z</time>
      </trkpt>
      <trkpt lat="45.82196" lon="2.96403">
        <ele>970.8</ele>
        <time>2025-08-07T16:16:30Z</time>
      </trkpt>
      <trkpt lat="45.82201" lon="2.96406">
        <ele>971</ele>
        <time>2025-08-07T16:16:31Z</time>
      </trkpt>
      <trkpt lat="45.82206" lon="2.96408">
        <ele>971.2</ele>
        <time>2025-08-07T16:16:32Z</time>
      </trkpt>
      <trkpt lat="45.82211" lon="2.9641">
        <ele>971.4</ele>
        <time>2025-08-07T16:16:33Z</time>
      </trkpt>
      <trkpt lat="45.82215" lon="2.96413">
        <ele>971.6</ele>
        <time>2025-08-07T16:16:34Z</time>
      </trkpt>
      <trkpt lat="45.82217" lon="2.96414">
        <ele>972</ele>
        <time>2025-08-07T16:16:35Z</time>
      </trkpt>
      <trkpt lat="45.82219" lon="2.96416">
        <ele>972.2</ele>
        <time>2025-08-07T16:16:36Z</time>
      </trkpt>
      <trkpt lat="45.82222" lon="2.96419">
        <ele>972.4</ele>
        <time>2025-08-07T16:16:37Z</time>
      </trkpt>
      <trkpt lat="45.82226" lon="2.96422">
        <ele>972.8</ele>
        <time>2025-08-07T16:16:38Z</time>
      </trkpt>
      <trkpt lat="45.82229" lon="2.96425">
        <ele>973</ele>
        <time>2025-08-07T16:16:39Z</time>
      </trkpt>
      <trkpt lat="45.82233" lon="2.96427">
        <ele>973.2</ele>
        <time>2025-08-07T16:16:40Z</time>
      </trkpt>
      <trkpt lat="45.82238" lon="2.96428">
        <ele>973.6</ele>
        <time>2025-08-07T16:16:41Z</time>
      </trkpt>
      <trkpt lat="45.82241" lon="2.96429">
        <ele>973.8</ele>
        <time>2025-08-07T16:16:42Z</time>
      </trkpt>
      <trkpt lat="45.82243" lon="2.96429">
        <ele>974</ele>
        <time>2025-08-07T16:16:43Z</time>
      </trkpt>
      <trkpt lat="45.82245" lon="2.96429">
        <ele>974.2</ele>
        <time>2025-08-07T16:16:44Z</time>
      </trkpt>
      <trkpt lat="45.82248" lon="2.96429">
        <ele>974.4</ele>
        <time>2025-08-07T16:16:45Z</time>
      </trkpt>
      <trkpt lat="45.82249" lon="2.96429">
        <ele>974.6</ele>
        <time>2025-08-07T16:16:46Z</time>
      </trkpt>
      <trkpt lat="45.82254" lon="2.96431">
        <ele>974.8</ele>
        <time>2025-08-07T16:16:47Z</time>
      </trkpt>
      <trkpt lat="45.82257" lon="2.96432">
        <ele>975</ele>
        <time>2025-08-07T16:16:48Z</time>
      </trkpt>
      <trkpt lat="45.8226" lon="2.9643">
        <ele>975.2</ele>
        <time>2025-08-07T16:16:49Z</time>
      </trkpt>
      <trkpt lat="45.82265" lon="2.9643">
        <ele>975.4</ele>
        <time>2025-08-07T16:16:50Z</time>
      </trkpt>
      <trkpt lat="45.8227" lon="2.96431">
        <ele>975.6</ele>
        <time>2025-08-07T16:16:51Z</time>
      </trkpt>
      <trkpt lat="45.82274" lon="2.96432">
        <ele>975.8</ele>
        <time>2025-08-07T16:16:52Z</time>
      </trkpt>
      <trkpt lat="45.82278" lon="2.96431">
        <ele>976</ele>
        <time>2025-08-07T16:16:53Z</time>
      </trkpt>
      <trkpt lat="45.82281" lon="2.96432">
        <ele>976.2</ele>
        <time>2025-08-07T16:16:54Z</time>
      </trkpt>
      <trkpt lat="45.82286" lon="2.96431">
        <ele>976.4</ele>
        <time>2025-08-07T16:16:55Z</time>
      </trkpt>
      <trkpt lat="45.82289" lon="2.96433">
        <ele>976.8</ele>
        <time>2025-08-07T16:16:56Z</time>
      </trkpt>
      <trkpt lat="45.82291" lon="2.96436">
        <ele>977</ele>
        <time>2025-08-07T16:16:57Z</time>
      </trkpt>
      <trkpt lat="45.82294" lon="2.96437">
        <ele>977.2</ele>
        <time>2025-08-07T16:16:58Z</time>
      </trkpt>
      <trkpt lat="45.82297" lon="2.96437">
        <ele>977.6</ele>
        <time>2025-08-07T16:16:59Z</time>
      </trkpt>
      <trkpt lat="45.82301" lon="2.96439">
        <ele>977.8</ele>
        <time>2025-08-07T16:17:00Z</time>
      </trkpt>
      <trkpt lat="45.82304" lon="2.9644">
        <ele>978</ele>
        <time>2025-08-07T16:17:01Z</time>
      </trkpt>
      <trkpt lat="45.82307" lon="2.96441">
        <ele>978.2</ele>
        <time>2025-08-07T16:17:02Z</time>
      </trkpt>
      <trkpt lat="45.82314" lon="2.96443">
        <ele>978.6</ele>
        <time>2025-08-07T16:17:03Z</time>
      </trkpt>
      <trkpt lat="45.82318" lon="2.96444">
        <ele>978.8</ele>
        <time>2025-08-07T16:17:04Z</time>
      </trkpt>
      <trkpt lat="45.82322" lon="2.96444">
        <ele>979</ele>
        <time>2025-08-07T16:17:05Z</time>
      </trkpt>
      <trkpt lat="45.82325" lon="2.96443">
        <ele>979.2</ele>
        <time>2025-08-07T16:17:06Z</time>
      </trkpt>
      <trkpt lat="45.82327" lon="2.96442">
        <ele>979.6</ele>
        <time>2025-08-07T16:17:07Z</time>
      </trkpt>
      <trkpt lat="45.8233" lon="2.9644">
        <ele>979.8</ele>
        <time>2025-08-07T16:17:08Z</time>
      </trkpt>
      <trkpt lat="45.82333" lon="2.96441">
        <ele>980</ele>
        <time>2025-08-07T16:17:09Z</time>
      </trkpt>
      <trkpt lat="45.82337" lon="2.96442">
        <ele>980.2</ele>
        <time>2025-08-07T16:17:10Z</time>
      </trkpt>
      <trkpt lat="45.82341" lon="2.96444">
        <ele>980.2</ele>
        <time>2025-08-07T16:17:11Z</time>
      </trkpt>
      <trkpt lat="45.82347" lon="2.96445">
        <ele>980.4</ele>
        <time>2025-08-07T16:17:12Z</time>
      </trkpt>
      <trkpt lat="45.82352" lon="2.96444">
        <ele>980.6</ele>
        <time>2025-08-07T16:17:13Z</time>
      </trkpt>
      <trkpt lat="45.82356" lon="2.96444">
        <ele>980.6</ele>
        <time>2025-08-07T16:17:14Z</time>
      </trkpt>
      <trkpt lat="45.82359" lon="2.96443">
        <ele>980.8</ele>
        <time>2025-08-07T16:17:15Z</time>
      </trkpt>
      <trkpt lat="45.82363" lon="2.96443">
        <ele>981</ele>
        <time>2025-08-07T16:17:16Z</time>
      </trkpt>
      <trkpt lat="45.82366" lon="2.96444">
        <ele>981.4</ele>
        <time>2025-08-07T16:17:17Z</time>
      </trkpt>
      <trkpt lat="45.8237" lon="2.96444">
        <ele>981.6</ele>
        <time>2025-08-07T16:17:18Z</time>
      </trkpt>
      <trkpt lat="45.82372" lon="2.96443">
        <ele>981.6</ele>
        <time>2025-08-07T16:17:19Z</time>
      </trkpt>
      <trkpt lat="45.82378" lon="2.96442">
        <ele>981.8</ele>
        <time>2025-08-07T16:17:20Z</time>
      </trkpt>
      <trkpt lat="45.82382" lon="2.96442">
        <ele>982</ele>
        <time>2025-08-07T16:17:21Z</time>
      </trkpt>
      <trkpt lat="45.82387" lon="2.96447">
        <ele>982.2</ele>
        <time>2025-08-07T16:17:22Z</time>
      </trkpt>
      <trkpt lat="45.82394" lon="2.96445">
        <ele>982.4</ele>
        <time>2025-08-07T16:17:23Z</time>
      </trkpt>
      <trkpt lat="45.82399" lon="2.96443">
        <ele>982.4</ele>
        <time>2025-08-07T16:17:24Z</time>
      </trkpt>
      <trkpt lat="45.82403" lon="2.96444">
        <ele>982.6</ele>
        <time>2025-08-07T16:17:25Z</time>
      </trkpt>
      <trkpt lat="45.82407" lon="2.96445">
        <ele>982.8</ele>
        <time>2025-08-07T16:17:26Z</time>
      </trkpt>
      <trkpt lat="45.8241" lon="2.96446">
        <ele>983</ele>
        <time>2025-08-07T16:17:27Z</time>
      </trkpt>
      <trkpt lat="45.82413" lon="2.96446">
        <ele>983</ele>
        <time>2025-08-07T16:17:28Z</time>
      </trkpt>
      <trkpt lat="45.82418" lon="2.96449">
        <ele>983.2</ele>
        <time>2025-08-07T16:17:29Z</time>
      </trkpt>
      <trkpt lat="45.82422" lon="2.96448">
        <ele>983.4</ele>
        <time>2025-08-07T16:17:30Z</time>
      </trkpt>
      <trkpt lat="45.82426" lon="2.96449">
        <ele>983.6</ele>
        <time>2025-08-07T16:17:31Z</time>
      </trkpt>
      <trkpt lat="45.82429" lon="2.9645">
        <ele>983.6</ele>
        <time>2025-08-07T16:17:32Z</time>
      </trkpt>
      <trkpt lat="45.82436" lon="2.96451">
        <ele>983.6</ele>
        <time>2025-08-07T16:17:33Z</time>
      </trkpt>
      <trkpt lat="45.82444" lon="2.9645">
        <ele>983.8</ele>
        <time>2025-08-07T16:17:34Z</time>
      </trkpt>
      <trkpt lat="45.82448" lon="2.96449">
        <ele>983.6</ele>
        <time>2025-08-07T16:17:35Z</time>
      </trkpt>
      <trkpt lat="45.82452" lon="2.96448">
        <ele>983.6</ele>
        <time>2025-08-07T16:17:36Z</time>
      </trkpt>
      <trkpt lat="45.82456" lon="2.96448">
        <ele>983.6</ele>
        <time>2025-08-07T16:17:37Z</time>
      </trkpt>
      <trkpt lat="45.82461" lon="2.96449">
        <ele>983.6</ele>
        <time>2025-08-07T16:17:38Z</time>
      </trkpt>
      <trkpt lat="45.82465" lon="2.9645">
        <ele>983.6</ele>
        <time>2025-08-07T16:17:39Z</time>
      </trkpt>
      <trkpt lat="45.82473" lon="2.96451">
        <ele>983.4</ele>
        <time>2025-08-07T16:17:40Z</time>
      </trkpt>
      <trkpt lat="45.82479" lon="2.96452">
        <ele>983.4</ele>
        <time>2025-08-07T16:17:41Z</time>
      </trkpt>
      <trkpt lat="45.82485" lon="2.96453">
        <ele>983.4</ele>
        <time>2025-08-07T16:17:42Z</time>
      </trkpt>
      <trkpt lat="45.82489" lon="2.96456">
        <ele>983.4</ele>
        <time>2025-08-07T16:17:43Z</time>
      </trkpt>
      <trkpt lat="45.82494" lon="2.96457">
        <ele>983.4</ele>
        <time>2025-08-07T16:17:44Z</time>
      </trkpt>
      <trkpt lat="45.82498" lon="2.96459">
        <ele>983.4</ele>
        <time>2025-08-07T16:17:45Z</time>
      </trkpt>
      <trkpt lat="45.82503" lon="2.96461">
        <ele>983.4</ele>
        <time>2025-08-07T16:17:46Z</time>
      </trkpt>
      <trkpt lat="45.82508" lon="2.96464">
        <ele>983.6</ele>
        <time>2025-08-07T16:17:47Z</time>
      </trkpt>
      <trkpt lat="45.82513" lon="2.96468">
        <ele>983.6</ele>
        <time>2025-08-07T16:17:48Z</time>
      </trkpt>
      <trkpt lat="45.82516" lon="2.9647">
        <ele>983.8</ele>
        <time>2025-08-07T16:17:49Z</time>
      </trkpt>
      <trkpt lat="45.82519" lon="2.96472">
        <ele>984</ele>
        <time>2025-08-07T16:17:50Z</time>
      </trkpt>
      <trkpt lat="45.82522" lon="2.96473">
        <ele>984</ele>
        <time>2025-08-07T16:17:51Z</time>
      </trkpt>
      <trkpt lat="45.82528" lon="2.96475">
        <ele>984.2</ele>
        <time>2025-08-07T16:17:52Z</time>
      </trkpt>
      <trkpt lat="45.82534" lon="2.96478">
        <ele>984.2</ele>
        <time>2025-08-07T16:17:53Z</time>
      </trkpt>
      <trkpt lat="45.82537" lon="2.9648">
        <ele>984.4</ele>
        <time>2025-08-07T16:17:54Z</time>
      </trkpt>
      <trkpt lat="45.82542" lon="2.96485">
        <ele>984.4</ele>
        <time>2025-08-07T16:17:55Z</time>
      </trkpt>
      <trkpt lat="45.82546" lon="2.96489">
        <ele>984.6</ele>
        <time>2025-08-07T16:17:56Z</time>
      </trkpt>
      <trkpt lat="45.82549" lon="2.96492">
        <ele>984.6</ele>
        <time>2025-08-07T16:17:57Z</time>
      </trkpt>
      <trkpt lat="45.82552" lon="2.96494">
        <ele>984.6</ele>
        <time>2025-08-07T16:17:58Z</time>
      </trkpt>
      <trkpt lat="45.82558" lon="2.96497">
        <ele>984.8</ele>
        <time>2025-08-07T16:17:59Z</time>
      </trkpt>
      <trkpt lat="45.82561" lon="2.96502">
        <ele>984.8</ele>
        <time>2025-08-07T16:18:00Z</time>
      </trkpt>
      <trkpt lat="45.82566" lon="2.96505">
        <ele>985</ele>
        <time>2025-08-07T16:18:01Z</time>
      </trkpt>
      <trkpt lat="45.82568" lon="2.96507">
        <ele>985</ele>
        <time>2025-08-07T16:18:02Z</time>
      </trkpt>
      <trkpt lat="45.82569" lon="2.96509">
        <ele>985</ele>
        <time>2025-08-07T16:18:03Z</time>
      </trkpt>
      <trkpt lat="45.82572" lon="2.96513">
        <ele>985</ele>
        <time>2025-08-07T16:18:04Z</time>
      </trkpt>
      <trkpt lat="45.82574" lon="2.96517">
        <ele>985</ele>
        <time>2025-08-07T16:18:05Z</time>
      </trkpt>
      <trkpt lat="45.82577" lon="2.96522">
        <ele>985</ele>
        <time>2025-08-07T16:18:06Z</time>
      </trkpt>
      <trkpt lat="45.82581" lon="2.96526">
        <ele>985.2</ele>
        <time>2025-08-07T16:18:07Z</time>
      </trkpt>
      <trkpt lat="45.82584" lon="2.96529">
        <ele>985.4</ele>
        <time>2025-08-07T16:18:08Z</time>
      </trkpt>
      <trkpt lat="45.8259" lon="2.96533">
        <ele>985.4</ele>
        <time>2025-08-07T16:18:09Z</time>
      </trkpt>
      <trkpt lat="45.82593" lon="2.96536">
        <ele>985.6</ele>
        <time>2025-08-07T16:18:10Z</time>
      </trkpt>
      <trkpt lat="45.82595" lon="2.96538">
        <ele>985.8</ele>
        <time>2025-08-07T16:18:11Z</time>
      </trkpt>
      <trkpt lat="45.82598" lon="2.9654">
        <ele>985.8</ele>
        <time>2025-08-07T16:18:12Z</time>
      </trkpt>
      <trkpt lat="45.82602" lon="2.96544">
        <ele>986</ele>
        <time>2025-08-07T16:18:13Z</time>
      </trkpt>
      <trkpt lat="45.82604" lon="2.96551">
        <ele>986</ele>
        <time>2025-08-07T16:18:14Z</time>
      </trkpt>
      <trkpt lat="45.82609" lon="2.9656">
        <ele>986.2</ele>
        <time>2025-08-07T16:18:15Z</time>
      </trkpt>
      <trkpt lat="45.82614" lon="2.96565">
        <ele>986.2</ele>
        <time>2025-08-07T16:18:16Z</time>
      </trkpt>
      <trkpt lat="45.82617" lon="2.96569">
        <ele>986.2</ele>
        <time>2025-08-07T16:18:17Z</time>
      </trkpt>
      <trkpt lat="45.82621" lon="2.96573">
        <ele>986.4</ele>
        <time>2025-08-07T16:18:18Z</time>
      </trkpt>
      <trkpt lat="45.82623" lon="2.96579">
        <ele>986.4</ele>
        <time>2025-08-07T16:18:19Z</time>
      </trkpt>
      <trkpt lat="45.82625" lon="2.96583">
        <ele>986.6</ele>
        <time>2025-08-07T16:18:20Z</time>
      </trkpt>
      <trkpt lat="45.82627" lon="2.96586">
        <ele>986.6</ele>
        <time>2025-08-07T16:18:21Z</time>
      </trkpt>
      <trkpt lat="45.82629" lon="2.9659">
        <ele>986.6</ele>
        <time>2025-08-07T16:18:22Z</time>
      </trkpt>
      <trkpt lat="45.82632" lon="2.96595">
        <ele>986.8</ele>
        <time>2025-08-07T16:18:23Z</time>
      </trkpt>
      <trkpt lat="45.82635" lon="2.96602">
        <ele>986.8</ele>
        <time>2025-08-07T16:18:24Z</time>
      </trkpt>
      <trkpt lat="45.82639" lon="2.96608">
        <ele>986.8</ele>
        <time>2025-08-07T16:18:25Z</time>
      </trkpt>
      <trkpt lat="45.82641" lon="2.96615">
        <ele>987</ele>
        <time>2025-08-07T16:18:26Z</time>
      </trkpt>
      <trkpt lat="45.82643" lon="2.96621">
        <ele>987</ele>
        <time>2025-08-07T16:18:27Z</time>
      </trkpt>
      <trkpt lat="45.82646" lon="2.96627">
        <ele>987</ele>
        <time>2025-08-07T16:18:28Z</time>
      </trkpt>
      <trkpt lat="45.82648" lon="2.96631">
        <ele>987.2</ele>
        <time>2025-08-07T16:18:29Z</time>
      </trkpt>
      <trkpt lat="45.82651" lon="2.96638">
        <ele>987.4</ele>
        <time>2025-08-07T16:18:30Z</time>
      </trkpt>
      <trkpt lat="45.82654" lon="2.96643">
        <ele>987.4</ele>
        <time>2025-08-07T16:18:31Z</time>
      </trkpt>
      <trkpt lat="45.82658" lon="2.9665">
        <ele>987.4</ele>
        <time>2025-08-07T16:18:32Z</time>
      </trkpt>
      <trkpt lat="45.8266" lon="2.96656">
        <ele>987.6</ele>
        <time>2025-08-07T16:18:33Z</time>
      </trkpt>
      <trkpt lat="45.82663" lon="2.9666">
        <ele>987.8</ele>
        <time>2025-08-07T16:18:34Z</time>
      </trkpt>
      <trkpt lat="45.82666" lon="2.96668">
        <ele>987.8</ele>
        <time>2025-08-07T16:18:35Z</time>
      </trkpt>
      <trkpt lat="45.82669" lon="2.96674">
        <ele>988</ele>
        <time>2025-08-07T16:18:36Z</time>
      </trkpt>
      <trkpt lat="45.82672" lon="2.9668">
        <ele>988.2</ele>
        <time>2025-08-07T16:18:37Z</time>
      </trkpt>
      <trkpt lat="45.82675" lon="2.96685">
        <ele>988.4</ele>
        <time>2025-08-07T16:18:38Z</time>
      </trkpt>
      <trkpt lat="45.82676" lon="2.96691">
        <ele>988.4</ele>
        <time>2025-08-07T16:18:39Z</time>
      </trkpt>
      <trkpt lat="45.82675" lon="2.96701">
        <ele>988.6</ele>
        <time>2025-08-07T16:18:40Z</time>
      </trkpt>
      <trkpt lat="45.82675" lon="2.96705">
        <ele>988.8</ele>
        <time>2025-08-07T16:18:41Z</time>
      </trkpt>
      <trkpt lat="45.82677" lon="2.9671">
        <ele>988.8</ele>
        <time>2025-08-07T16:18:42Z</time>
      </trkpt>
      <trkpt lat="45.82679" lon="2.96715">
        <ele>989</ele>
        <time>2025-08-07T16:18:43Z</time>
      </trkpt>
      <trkpt lat="45.8268" lon="2.9672">
        <ele>989.2</ele>
        <time>2025-08-07T16:18:44Z</time>
      </trkpt>
      <trkpt lat="45.82681" lon="2.96725">
        <ele>989.4</ele>
        <time>2025-08-07T16:18:45Z</time>
      </trkpt>
      <trkpt lat="45.82682" lon="2.9673">
        <ele>989.6</ele>
        <time>2025-08-07T16:18:46Z</time>
      </trkpt>
      <trkpt lat="45.82683" lon="2.96732">
        <ele>989.6</ele>
        <time>2025-08-07T16:18:47Z</time>
      </trkpt>
      <trkpt lat="45.82684" lon="2.96734">
        <ele>989.8</ele>
        <time>2025-08-07T16:18:48Z</time>
      </trkpt>
      <trkpt lat="45.82685" lon="2.96734">
        <ele>989.8</ele>
        <time>2025-08-07T16:18:49Z</time>
      </trkpt>
      <trkpt lat="45.82684" lon="2.96734">
        <ele>990</ele>
        <time>2025-08-07T16:18:53Z</time>
      </trkpt>
      <trkpt lat="45.82684" lon="2.96733">
        <ele>990</ele>
        <time>2025-08-07T16:18:54Z</time>
      </trkpt>
      <trkpt lat="45.82684" lon="2.96732">
        <ele>990</ele>
        <time>2025-08-07T16:18:55Z</time>
      </trkpt>
      <trkpt lat="45.82683" lon="2.96732">
        <ele>990</ele>
        <time>2025-08-07T16:18:56Z</time>
      </trkpt>
      <trkpt lat="45.82683" lon="2.96731">
        <ele>989.8</ele>
        <time>2025-08-07T16:18:57Z</time>
      </trkpt>
      <trkpt lat="45.82683" lon="2.96731">
        <ele>989.8</ele>
        <time>2025-08-07T16:18:58Z</time>
      </trkpt>
      <trkpt lat="45.82683" lon="2.96731">
        <ele>989.8</ele>
        <time>2025-08-07T16:18:59Z</time>
      </trkpt>
      <trkpt lat="45.82683" lon="2.96731">
        <ele>989.8</ele>
        <time>2025-08-07T16:19:00Z</time>
      </trkpt>
      <trkpt lat="45.82686" lon="2.96743">
        <ele>990</ele>
        <time>2025-08-07T16:21:19Z</time>
      </trkpt>
      <trkpt lat="45.82687" lon="2.96747">
        <ele>990</ele>
        <time>2025-08-07T16:21:20Z</time>
      </trkpt>
      <trkpt lat="45.82688" lon="2.96752">
        <ele>990.2</ele>
        <time>2025-08-07T16:21:21Z</time>
      </trkpt>
      <trkpt lat="45.82689" lon="2.96755">
        <ele>990.2</ele>
        <time>2025-08-07T16:21:22Z</time>
      </trkpt>
      <trkpt lat="45.82691" lon="2.96759">
        <ele>990.4</ele>
        <time>2025-08-07T16:21:23Z</time>
      </trkpt>
      <trkpt lat="45.82692" lon="2.96763">
        <ele>990.6</ele>
        <time>2025-08-07T16:21:24Z</time>
      </trkpt>
      <trkpt lat="45.82693" lon="2.96768">
        <ele>990.6</ele>
        <time>2025-08-07T16:21:25Z</time>
      </trkpt>
      <trkpt lat="45.82695" lon="2.96772">
        <ele>990.8</ele>
        <time>2025-08-07T16:21:26Z</time>
      </trkpt>
      <trkpt lat="45.82696" lon="2.96776">
        <ele>991</ele>
        <time>2025-08-07T16:21:27Z</time>
      </trkpt>
      <trkpt lat="45.82698" lon="2.9678">
        <ele>991.2</ele>
        <time>2025-08-07T16:21:28Z</time>
      </trkpt>
      <trkpt lat="45.827" lon="2.96786">
        <ele>991.4</ele>
        <time>2025-08-07T16:21:29Z</time>
      </trkpt>
      <trkpt lat="45.82702" lon="2.96792">
        <ele>991.6</ele>
        <time>2025-08-07T16:21:30Z</time>
      </trkpt>
      <trkpt lat="45.82704" lon="2.96799">
        <ele>991.8</ele>
        <time>2025-08-07T16:21:31Z</time>
      </trkpt>
      <trkpt lat="45.82705" lon="2.96804">
        <ele>992</ele>
        <time>2025-08-07T16:21:32Z</time>
      </trkpt>
      <trkpt lat="45.82706" lon="2.9681">
        <ele>992</ele>
        <time>2025-08-07T16:21:33Z</time>
      </trkpt>
      <trkpt lat="45.82707" lon="2.96816">
        <ele>992</ele>
        <time>2025-08-07T16:21:34Z</time>
      </trkpt>
      <trkpt lat="45.82709" lon="2.96823">
        <ele>992</ele>
        <time>2025-08-07T16:21:35Z</time>
      </trkpt>
      <trkpt lat="45.82711" lon="2.96829">
        <ele>991.8</ele>
        <time>2025-08-07T16:21:36Z</time>
      </trkpt>
      <trkpt lat="45.82712" lon="2.96834">
        <ele>991.8</ele>
        <time>2025-08-07T16:21:37Z</time>
      </trkpt>
      <trkpt lat="45.82713" lon="2.9684">
        <ele>991.6</ele>
        <time>2025-08-07T16:21:38Z</time>
      </trkpt>
      <trkpt lat="45.82715" lon="2.96845">
        <ele>991.6</ele>
        <time>2025-08-07T16:21:39Z</time>
      </trkpt>
      <trkpt lat="45.82718" lon="2.96849">
        <ele>991.4</ele>
        <time>2025-08-07T16:21:40Z</time>
      </trkpt>
      <trkpt lat="45.82721" lon="2.96854">
        <ele>991.6</ele>
        <time>2025-08-07T16:21:41Z</time>
      </trkpt>
      <trkpt lat="45.82723" lon="2.96858">
        <ele>991.6</ele>
        <time>2025-08-07T16:21:42Z</time>
      </trkpt>
      <trkpt lat="45.82727" lon="2.96862">
        <ele>991.8</ele>
        <time>2025-08-07T16:21:43Z</time>
      </trkpt>
      <trkpt lat="45.8273" lon="2.96864">
        <ele>992</ele>
        <time>2025-08-07T16:21:44Z</time>
      </trkpt>
      <trkpt lat="45.82733" lon="2.96866">
        <ele>992.2</ele>
        <time>2025-08-07T16:21:45Z</time>
      </trkpt>
      <trkpt lat="45.82736" lon="2.96873">
        <ele>992.4</ele>
        <time>2025-08-07T16:21:46Z</time>
      </trkpt>
      <trkpt lat="45.8274" lon="2.96874">
        <ele>992.6</ele>
        <time>2025-08-07T16:21:47Z</time>
      </trkpt>
      <trkpt lat="45.82742" lon="2.96876">
        <ele>992.8</ele>
        <time>2025-08-07T16:21:48Z</time>
      </trkpt>
      <trkpt lat="45.82746" lon="2.96879">
        <ele>993.2</ele>
        <time>2025-08-07T16:21:49Z</time>
      </trkpt>
      <trkpt lat="45.82749" lon="2.96882">
        <ele>993.4</ele>
        <time>2025-08-07T16:21:50Z</time>
      </trkpt>
      <trkpt lat="45.82753" lon="2.96886">
        <ele>993.6</ele>
        <time>2025-08-07T16:21:51Z</time>
      </trkpt>
      <trkpt lat="45.82756" lon="2.96889">
        <ele>993.8</ele>
        <time>2025-08-07T16:21:52Z</time>
      </trkpt>
      <trkpt lat="45.82759" lon="2.96892">
        <ele>994</ele>
        <time>2025-08-07T16:21:53Z</time>
      </trkpt>
      <trkpt lat="45.82763" lon="2.96895">
        <ele>994.2</ele>
        <time>2025-08-07T16:21:54Z</time>
      </trkpt>
      <trkpt lat="45.82766" lon="2.96899">
        <ele>994.2</ele>
        <time>2025-08-07T16:21:55Z</time>
      </trkpt>
      <trkpt lat="45.8277" lon="2.96903">
        <ele>994.2</ele>
        <time>2025-08-07T16:21:56Z</time>
      </trkpt>
      <trkpt lat="45.82772" lon="2.96906">
        <ele>994.2</ele>
        <time>2025-08-07T16:21:57Z</time>
      </trkpt>
      <trkpt lat="45.82776" lon="2.96911">
        <ele>994</ele>
        <time>2025-08-07T16:21:58Z</time>
      </trkpt>
      <trkpt lat="45.82781" lon="2.96918">
        <ele>994</ele>
        <time>2025-08-07T16:21:59Z</time>
      </trkpt>
      <trkpt lat="45.82784" lon="2.96925">
        <ele>994</ele>
        <time>2025-08-07T16:22:00Z</time>
      </trkpt>
      <trkpt lat="45.82787" lon="2.96931">
        <ele>994</ele>
        <time>2025-08-07T16:22:01Z</time>
      </trkpt>
      <trkpt lat="45.82789" lon="2.96936">
        <ele>993.8</ele>
        <time>2025-08-07T16:22:02Z</time>
      </trkpt>
      <trkpt lat="45.82791" lon="2.96942">
        <ele>993.8</ele>
        <time>2025-08-07T16:22:03Z</time>
      </trkpt>
      <trkpt lat="45.82794" lon="2.96951">
        <ele>993.8</ele>
        <time>2025-08-07T16:22:04Z</time>
      </trkpt>
      <trkpt lat="45.82796" lon="2.96957">
        <ele>993.6</ele>
        <time>2025-08-07T16:22:05Z</time>
      </trkpt>
      <trkpt lat="45.82799" lon="2.96968">
        <ele>993.6</ele>
        <time>2025-08-07T16:22:06Z</time>
      </trkpt>
      <trkpt lat="45.82801" lon="2.96976">
        <ele>993.6</ele>
        <time>2025-08-07T16:22:07Z</time>
      </trkpt>
      <trkpt lat="45.82803" lon="2.96983">
        <ele>993.6</ele>
        <time>2025-08-07T16:22:08Z</time>
      </trkpt>
      <trkpt lat="45.82804" lon="2.96989">
        <ele>993.8</ele>
        <time>2025-08-07T16:22:09Z</time>
      </trkpt>
      <trkpt lat="45.82804" lon="2.96996">
        <ele>993.8</ele>
        <time>2025-08-07T16:22:10Z</time>
      </trkpt>
      <trkpt lat="45.82804" lon="2.97001">
        <ele>993.8</ele>
        <time>2025-08-07T16:22:11Z</time>
      </trkpt>
      <trkpt lat="45.82806" lon="2.97005">
        <ele>994</ele>
        <time>2025-08-07T16:22:12Z</time>
      </trkpt>
      <trkpt lat="45.82807" lon="2.9701">
        <ele>994</ele>
        <time>2025-08-07T16:22:13Z</time>
      </trkpt>
      <trkpt lat="45.82809" lon="2.97015">
        <ele>994</ele>
        <time>2025-08-07T16:22:14Z</time>
      </trkpt>
      <trkpt lat="45.82811" lon="2.97021">
        <ele>994</ele>
        <time>2025-08-07T16:22:15Z</time>
      </trkpt>
      <trkpt lat="45.82814" lon="2.97027">
        <ele>994</ele>
        <time>2025-08-07T16:22:16Z</time>
      </trkpt>
      <trkpt lat="45.82816" lon="2.97034">
        <ele>994</ele>
        <time>2025-08-07T16:22:17Z</time>
      </trkpt>
      <trkpt lat="45.82817" lon="2.9704">
        <ele>994.2</ele>
        <time>2025-08-07T16:22:18Z</time>
      </trkpt>
      <trkpt lat="45.82819" lon="2.97047">
        <ele>994.2</ele>
        <time>2025-08-07T16:22:19Z</time>
      </trkpt>
      <trkpt lat="45.82823" lon="2.97055">
        <ele>994.2</ele>
        <time>2025-08-07T16:22:20Z</time>
      </trkpt>
      <trkpt lat="45.82822" lon="2.97065">
        <ele>994.2</ele>
        <time>2025-08-07T16:22:21Z</time>
      </trkpt>
      <trkpt lat="45.82823" lon="2.97075">
        <ele>994</ele>
        <time>2025-08-07T16:22:22Z</time>
      </trkpt>
      <trkpt lat="45.82824" lon="2.97084">
        <ele>994</ele>
        <time>2025-08-07T16:22:23Z</time>
      </trkpt>
      <trkpt lat="45.82825" lon="2.97094">
        <ele>994</ele>
        <time>2025-08-07T16:22:24Z</time>
      </trkpt>
      <trkpt lat="45.82826" lon="2.97102">
        <ele>993.8</ele>
        <time>2025-08-07T16:22:25Z</time>
      </trkpt>
      <trkpt lat="45.82826" lon="2.9711">
        <ele>993.8</ele>
        <time>2025-08-07T16:22:26Z</time>
      </trkpt>
      <trkpt lat="45.82827" lon="2.97117">
        <ele>993.8</ele>
        <time>2025-08-07T16:22:27Z</time>
      </trkpt>
      <trkpt lat="45.82829" lon="2.97122">
        <ele>994</ele>
        <time>2025-08-07T16:22:28Z</time>
      </trkpt>
      <trkpt lat="45.8283" lon="2.97127">
        <ele>994</ele>
        <time>2025-08-07T16:22:29Z</time>
      </trkpt>
      <trkpt lat="45.82827" lon="2.97136">
        <ele>994</ele>
        <time>2025-08-07T16:22:30Z</time>
      </trkpt>
      <trkpt lat="45.82827" lon="2.97143">
        <ele>994</ele>
        <time>2025-08-07T16:22:31Z</time>
      </trkpt>
      <trkpt lat="45.82825" lon="2.97147">
        <ele>994</ele>
        <time>2025-08-07T16:22:32Z</time>
      </trkpt>
      <trkpt lat="45.82825" lon="2.97148">
        <ele>994</ele>
        <time>2025-08-07T16:22:33Z</time>
      </trkpt>
      <trkpt lat="45.82825" lon="2.97149">
        <ele>993.8</ele>
        <time>2025-08-07T16:22:34Z</time>
      </trkpt>
      <trkpt lat="45.82827" lon="2.97153">
        <ele>993.8</ele>
        <time>2025-08-07T16:22:35Z</time>
      </trkpt>
      <trkpt lat="45.82829" lon="2.97157">
        <ele>993.6</ele>
        <time>2025-08-07T16:22:36Z</time>
      </trkpt>
      <trkpt lat="45.82829" lon="2.97162">
        <ele>993.6</ele>
        <time>2025-08-07T16:22:37Z</time>
      </trkpt>
      <trkpt lat="45.82829" lon="2.97168">
        <ele>993.4</ele>
        <time>2025-08-07T16:22:38Z</time>
      </trkpt>
      <trkpt lat="45.82829" lon="2.97174">
        <ele>993.2</ele>
        <time>2025-08-07T16:22:39Z</time>
      </trkpt>
      <trkpt lat="45.8283" lon="2.97179">
        <ele>993</ele>
        <time>2025-08-07T16:22:40Z</time>
      </trkpt>
      <trkpt lat="45.82831" lon="2.97185">
        <ele>992.8</ele>
        <time>2025-08-07T16:22:41Z</time>
      </trkpt>
      <trkpt lat="45.82832" lon="2.97192">
        <ele>992.4</ele>
        <time>2025-08-07T16:22:42Z</time>
      </trkpt>
      <trkpt lat="45.82832" lon="2.97201">
        <ele>992.2</ele>
        <time>2025-08-07T16:22:43Z</time>
      </trkpt>
      <trkpt lat="45.82832" lon="2.9721">
        <ele>991.8</ele>
        <time>2025-08-07T16:22:44Z</time>
      </trkpt>
      <trkpt lat="45.82831" lon="2.97219">
        <ele>991.2</ele>
        <time>2025-08-07T16:22:45Z</time>
      </trkpt>
      <trkpt lat="45.82832" lon="2.97229">
        <ele>990.8</ele>
        <time>2025-08-07T16:22:46Z</time>
      </trkpt>
      <trkpt lat="45.8283" lon="2.97239">
        <ele>990.6</ele>
        <time>2025-08-07T16:22:47Z</time>
      </trkpt>
      <trkpt lat="45.82829" lon="2.9725">
        <ele>990.2</ele>
        <time>2025-08-07T16:22:48Z</time>
      </trkpt>
      <trkpt lat="45.82829" lon="2.97259">
        <ele>989.6</ele>
        <time>2025-08-07T16:22:49Z</time>
      </trkpt>
      <trkpt lat="45.8283" lon="2.9727">
        <ele>989</ele>
        <time>2025-08-07T16:22:50Z</time>
      </trkpt>
      <trkpt lat="45.82832" lon="2.97281">
        <ele>988.4</ele>
        <time>2025-08-07T16:22:51Z</time>
      </trkpt>
      <trkpt lat="45.82832" lon="2.97292">
        <ele>987.8</ele>
        <time>2025-08-07T16:22:52Z</time>
      </trkpt>
      <trkpt lat="45.82832" lon="2.97304">
        <ele>987.2</ele>
        <time>2025-08-07T16:22:53Z</time>
      </trkpt>
      <trkpt lat="45.8283" lon="2.97321">
        <ele>986.4</ele>
        <time>2025-08-07T16:22:54Z</time>
      </trkpt>
      <trkpt lat="45.82829" lon="2.97336">
        <ele>985.8</ele>
        <time>2025-08-07T16:22:55Z</time>
      </trkpt>
      <trkpt lat="45.8283" lon="2.97348">
        <ele>985.2</ele>
        <time>2025-08-07T16:22:56Z</time>
      </trkpt>
      <trkpt lat="45.8283" lon="2.97362">
        <ele>984.4</ele>
        <time>2025-08-07T16:22:57Z</time>
      </trkpt>
      <trkpt lat="45.8283" lon="2.9738">
        <ele>983.6</ele>
        <time>2025-08-07T16:22:58Z</time>
      </trkpt>
      <trkpt lat="45.8283" lon="2.97399">
        <ele>983</ele>
        <time>2025-08-07T16:22:59Z</time>
      </trkpt>
      <trkpt lat="45.82831" lon="2.97412">
        <ele>982.4</ele>
        <time>2025-08-07T16:23:00Z</time>
      </trkpt>
      <trkpt lat="45.8283" lon="2.97424">
        <ele>981.8</ele>
        <time>2025-08-07T16:23:01Z</time>
      </trkpt>
      <trkpt lat="45.82827" lon="2.97438">
        <ele>981</ele>
        <time>2025-08-07T16:23:02Z</time>
      </trkpt>
      <trkpt lat="45.82824" lon="2.97451">
        <ele>980.6</ele>
        <time>2025-08-07T16:23:03Z</time>
      </trkpt>
      <trkpt lat="45.82821" lon="2.97465">
        <ele>980</ele>
        <time>2025-08-07T16:23:04Z</time>
      </trkpt>
      <trkpt lat="45.82817" lon="2.97482">
        <ele>979.4</ele>
        <time>2025-08-07T16:23:05Z</time>
      </trkpt>
      <trkpt lat="45.82812" lon="2.97495">
        <ele>978.8</ele>
        <time>2025-08-07T16:23:06Z</time>
      </trkpt>
      <trkpt lat="45.82806" lon="2.97506">
        <ele>978.2</ele>
        <time>2025-08-07T16:23:07Z</time>
      </trkpt>
      <trkpt lat="45.828" lon="2.97516">
        <ele>977.6</ele>
        <time>2025-08-07T16:23:08Z</time>
      </trkpt>
      <trkpt lat="45.82795" lon="2.97524">
        <ele>977</ele>
        <time>2025-08-07T16:23:09Z</time>
      </trkpt>
      <trkpt lat="45.82789" lon="2.97535">
        <ele>976.2</ele>
        <time>2025-08-07T16:23:10Z</time>
      </trkpt>
      <trkpt lat="45.82783" lon="2.97541">
        <ele>975.4</ele>
        <time>2025-08-07T16:23:11Z</time>
      </trkpt>
      <trkpt lat="45.82775" lon="2.97546">
        <ele>974.8</ele>
        <time>2025-08-07T16:23:12Z</time>
      </trkpt>
      <trkpt lat="45.82767" lon="2.97553">
        <ele>974</ele>
        <time>2025-08-07T16:23:13Z</time>
      </trkpt>
      <trkpt lat="45.8276" lon="2.97557">
        <ele>973.2</ele>
        <time>2025-08-07T16:23:14Z</time>
      </trkpt>
      <trkpt lat="45.82752" lon="2.97558">
        <ele>972.6</ele>
        <time>2025-08-07T16:23:15Z</time>
      </trkpt>
      <trkpt lat="45.82743" lon="2.97566">
        <ele>971.6</ele>
        <time>2025-08-07T16:23:16Z</time>
      </trkpt>
      <trkpt lat="45.82734" lon="2.9757">
        <ele>970.8</ele>
        <time>2025-08-07T16:23:17Z</time>
      </trkpt>
      <trkpt lat="45.82728" lon="2.97572">
        <ele>970.2</ele>
        <time>2025-08-07T16:23:18Z</time>
      </trkpt>
      <trkpt lat="45.82721" lon="2.97572">
        <ele>969.4</ele>
        <time>2025-08-07T16:23:19Z</time>
      </trkpt>
      <trkpt lat="45.82714" lon="2.97572">
        <ele>968.6</ele>
        <time>2025-08-07T16:23:20Z</time>
      </trkpt>
      <trkpt lat="45.82708" lon="2.97573">
        <ele>968</ele>
        <time>2025-08-07T16:23:21Z</time>
      </trkpt>
      <trkpt lat="45.82699" lon="2.97575">
        <ele>967.4</ele>
        <time>2025-08-07T16:23:22Z</time>
      </trkpt>
      <trkpt lat="45.82691" lon="2.97575">
        <ele>966.8</ele>
        <time>2025-08-07T16:23:23Z</time>
      </trkpt>
      <trkpt lat="45.82684" lon="2.97575">
        <ele>966.2</ele>
        <time>2025-08-07T16:23:24Z</time>
      </trkpt>
      <trkpt lat="45.82673" lon="2.97575">
        <ele>965.6</ele>
        <time>2025-08-07T16:23:25Z</time>
      </trkpt>
      <trkpt lat="45.82666" lon="2.97575">
        <ele>964.8</ele>
        <time>2025-08-07T16:23:26Z</time>
      </trkpt>
      <trkpt lat="45.82657" lon="2.97575">
        <ele>964.2</ele>
        <time>2025-08-07T16:23:27Z</time>
      </trkpt>
      <trkpt lat="45.82648" lon="2.9757">
        <ele>963.6</ele>
        <time>2025-08-07T16:23:28Z</time>
      </trkpt>
      <trkpt lat="45.82639" lon="2.97568">
        <ele>963</ele>
        <time>2025-08-07T16:23:29Z</time>
      </trkpt>
      <trkpt lat="45.82628" lon="2.97564">
        <ele>962.2</ele>
        <time>2025-08-07T16:23:30Z</time>
      </trkpt>
      <trkpt lat="45.82618" lon="2.97566">
        <ele>961.6</ele>
        <time>2025-08-07T16:23:31Z</time>
      </trkpt>
      <trkpt lat="45.82608" lon="2.9757">
        <ele>961</ele>
        <time>2025-08-07T16:23:32Z</time>
      </trkpt>
      <trkpt lat="45.826" lon="2.97575">
        <ele>960</ele>
        <time>2025-08-07T16:23:33Z</time>
      </trkpt>
      <trkpt lat="45.8259" lon="2.9758">
        <ele>959.2</ele>
        <time>2025-08-07T16:23:34Z</time>
      </trkpt>
      <trkpt lat="45.82581" lon="2.97585">
        <ele>958.4</ele>
        <time>2025-08-07T16:23:35Z</time>
      </trkpt>
      <trkpt lat="45.82568" lon="2.97591">
        <ele>957.6</ele>
        <time>2025-08-07T16:23:36Z</time>
      </trkpt>
      <trkpt lat="45.82557" lon="2.97595">
        <ele>956.8</ele>
        <time>2025-08-07T16:23:37Z</time>
      </trkpt>
      <trkpt lat="45.82544" lon="2.97598">
        <ele>956</ele>
        <time>2025-08-07T16:23:38Z</time>
      </trkpt>
      <trkpt lat="45.82532" lon="2.97603">
        <ele>955.4</ele>
        <time>2025-08-07T16:23:39Z</time>
      </trkpt>
      <trkpt lat="45.82523" lon="2.97606">
        <ele>954.6</ele>
        <time>2025-08-07T16:23:40Z</time>
      </trkpt>
      <trkpt lat="45.82513" lon="2.97608">
        <ele>953.8</ele>
        <time>2025-08-07T16:23:41Z</time>
      </trkpt>
      <trkpt lat="45.82504" lon="2.97609">
        <ele>953.2</ele>
        <time>2025-08-07T16:23:42Z</time>
      </trkpt>
      <trkpt lat="45.82493" lon="2.97614">
        <ele>952.4</ele>
        <time>2025-08-07T16:23:43Z</time>
      </trkpt>
      <trkpt lat="45.82483" lon="2.97617">
        <ele>951.6</ele>
        <time>2025-08-07T16:23:44Z</time>
      </trkpt>
      <trkpt lat="45.82474" lon="2.97621">
        <ele>950.4</ele>
        <time>2025-08-07T16:23:45Z</time>
      </trkpt>
      <trkpt lat="45.82466" lon="2.97624">
        <ele>949.6</ele>
        <time>2025-08-07T16:23:46Z</time>
      </trkpt>
      <trkpt lat="45.82457" lon="2.97628">
        <ele>948.8</ele>
        <time>2025-08-07T16:23:47Z</time>
      </trkpt>
      <trkpt lat="45.82446" lon="2.97633">
        <ele>947.8</ele>
        <time>2025-08-07T16:23:48Z</time>
      </trkpt>
      <trkpt lat="45.82437" lon="2.97637">
        <ele>947</ele>
        <time>2025-08-07T16:23:49Z</time>
      </trkpt>
      <trkpt lat="45.82426" lon="2.97639">
        <ele>946.2</ele>
        <time>2025-08-07T16:23:50Z</time>
      </trkpt>
      <trkpt lat="45.82413" lon="2.97644">
        <ele>945.2</ele>
        <time>2025-08-07T16:23:51Z</time>
      </trkpt>
      <trkpt lat="45.82398" lon="2.97647">
        <ele>944.6</ele>
        <time>2025-08-07T16:23:52Z</time>
      </trkpt>
      <trkpt lat="45.82388" lon="2.9765">
        <ele>943.8</ele>
        <time>2025-08-07T16:23:53Z</time>
      </trkpt>
      <trkpt lat="45.82377" lon="2.97654">
        <ele>942.8</ele>
        <time>2025-08-07T16:23:54Z</time>
      </trkpt>
      <trkpt lat="45.82366" lon="2.9766">
        <ele>942</ele>
        <time>2025-08-07T16:23:55Z</time>
      </trkpt>
      <trkpt lat="45.82358" lon="2.97664">
        <ele>941</ele>
        <time>2025-08-07T16:23:56Z</time>
      </trkpt>
      <trkpt lat="45.82347" lon="2.97668">
        <ele>940.4</ele>
        <time>2025-08-07T16:23:57Z</time>
      </trkpt>
      <trkpt lat="45.82335" lon="2.97671">
        <ele>940</ele>
        <time>2025-08-07T16:23:58Z</time>
      </trkpt>
      <trkpt lat="45.82326" lon="2.97675">
        <ele>939.4</ele>
        <time>2025-08-07T16:23:59Z</time>
      </trkpt>
      <trkpt lat="45.82318" lon="2.97678">
        <ele>939.2</ele>
        <time>2025-08-07T16:24:00Z</time>
      </trkpt>
      <trkpt lat="45.82309" lon="2.97681">
        <ele>938.8</ele>
        <time>2025-08-07T16:24:01Z</time>
      </trkpt>
      <trkpt lat="45.823" lon="2.97682">
        <ele>938.8</ele>
        <time>2025-08-07T16:24:02Z</time>
      </trkpt>
      <trkpt lat="45.82293" lon="2.97684">
        <ele>938.4</ele>
        <time>2025-08-07T16:24:03Z</time>
      </trkpt>
      <trkpt lat="45.82287" lon="2.97687">
        <ele>938.2</ele>
        <time>2025-08-07T16:24:04Z</time>
      </trkpt>
      <trkpt lat="45.82282" lon="2.97689">
        <ele>938</ele>
        <time>2025-08-07T16:24:05Z</time>
      </trkpt>
      <trkpt lat="45.82275" lon="2.97694">
        <ele>937.8</ele>
        <time>2025-08-07T16:24:06Z</time>
      </trkpt>
      <trkpt lat="45.8227" lon="2.97701">
        <ele>937.8</ele>
        <time>2025-08-07T16:24:07Z</time>
      </trkpt>
      <trkpt lat="45.82268" lon="2.97706">
        <ele>937.6</ele>
        <time>2025-08-07T16:24:08Z</time>
      </trkpt>
      <trkpt lat="45.82266" lon="2.97712">
        <ele>937.6</ele>
        <time>2025-08-07T16:24:09Z</time>
      </trkpt>
      <trkpt lat="45.82264" lon="2.97717">
        <ele>937.6</ele>
        <time>2025-08-07T16:24:10Z</time>
      </trkpt>
      <trkpt lat="45.82263" lon="2.9772">
        <ele>937.4</ele>
        <time>2025-08-07T16:24:11Z</time>
      </trkpt>
      <trkpt lat="45.82261" lon="2.97724">
        <ele>937.4</ele>
        <time>2025-08-07T16:24:12Z</time>
      </trkpt>
      <trkpt lat="45.82259" lon="2.97728">
        <ele>937.2</ele>
        <time>2025-08-07T16:24:13Z</time>
      </trkpt>
      <trkpt lat="45.82257" lon="2.97739">
        <ele>937</ele>
        <time>2025-08-07T16:24:14Z</time>
      </trkpt>
      <trkpt lat="45.82254" lon="2.97746">
        <ele>937</ele>
        <time>2025-08-07T16:24:15Z</time>
      </trkpt>
      <trkpt lat="45.82252" lon="2.97752">
        <ele>936.8</ele>
        <time>2025-08-07T16:24:16Z</time>
      </trkpt>
      <trkpt lat="45.82254" lon="2.97754">
        <ele>936.8</ele>
        <time>2025-08-07T16:24:17Z</time>
      </trkpt>
      <trkpt lat="45.82259" lon="2.97759">
        <ele>936.6</ele>
        <time>2025-08-07T16:24:18Z</time>
      </trkpt>
      <trkpt lat="45.82262" lon="2.97761">
        <ele>936.6</ele>
        <time>2025-08-07T16:24:19Z</time>
      </trkpt>
      <trkpt lat="45.82265" lon="2.97762">
        <ele>936.4</ele>
        <time>2025-08-07T16:24:20Z</time>
      </trkpt>
      <trkpt lat="45.82266" lon="2.97761">
        <ele>936.4</ele>
        <time>2025-08-07T16:24:21Z</time>
      </trkpt>
      <trkpt lat="45.82267" lon="2.97759">
        <ele>936.4</ele>
        <time>2025-08-07T16:24:22Z</time>
      </trkpt>
      <trkpt lat="45.82267" lon="2.97758">
        <ele>936.4</ele>
        <time>2025-08-07T16:24:23Z</time>
      </trkpt>
      <trkpt lat="45.82267" lon="2.97757">
        <ele>936.6</ele>
        <time>2025-08-07T16:24:24Z</time>
      </trkpt>
      <trkpt lat="45.82267" lon="2.97754">
        <ele>936.6</ele>
        <time>2025-08-07T16:24:25Z</time>
      </trkpt>
      <trkpt lat="45.82267" lon="2.9775">
        <ele>936.8</ele>
        <time>2025-08-07T16:24:26Z</time>
      </trkpt>
      <trkpt lat="45.82268" lon="2.97745">
        <ele>937</ele>
        <time>2025-08-07T16:24:27Z</time>
      </trkpt>
      <trkpt lat="45.82269" lon="2.9774">
        <ele>937.2</ele>
        <time>2025-08-07T16:24:28Z</time>
      </trkpt>
      <trkpt lat="45.8227" lon="2.97736">
        <ele>937.4</ele>
        <time>2025-08-07T16:24:29Z</time>
      </trkpt>
      <trkpt lat="45.82271" lon="2.97729">
        <ele>937.4</ele>
        <time>2025-08-07T16:24:30Z</time>
      </trkpt>
      <trkpt lat="45.82272" lon="2.97722">
        <ele>937.6</ele>
        <time>2025-08-07T16:24:31Z</time>
      </trkpt>
      <trkpt lat="45.82273" lon="2.97715">
        <ele>937.6</ele>
        <time>2025-08-07T16:24:32Z</time>
      </trkpt>
      <trkpt lat="45.82275" lon="2.9771">
        <ele>937.6</ele>
        <time>2025-08-07T16:24:33Z</time>
      </trkpt>
      <trkpt lat="45.82278" lon="2.97706">
        <ele>937.6</ele>
        <time>2025-08-07T16:24:34Z</time>
      </trkpt>
      <trkpt lat="45.8228" lon="2.97704">
        <ele>937.4</ele>
        <time>2025-08-07T16:24:35Z</time>
      </trkpt>
      <trkpt lat="45.82282" lon="2.97704">
        <ele>937.4</ele>
        <time>2025-08-07T16:24:36Z</time>
      </trkpt>
      <trkpt lat="45.82284" lon="2.97704">
        <ele>937.2</ele>
        <time>2025-08-07T16:24:37Z</time>
      </trkpt>
      <trkpt lat="45.82287" lon="2.97705">
        <ele>936.8</ele>
        <time>2025-08-07T16:24:38Z</time>
      </trkpt>
      <trkpt lat="45.8229" lon="2.97707">
        <ele>936.4</ele>
        <time>2025-08-07T16:24:39Z</time>
      </trkpt>
      <trkpt lat="45.82294" lon="2.9771">
        <ele>936</ele>
        <time>2025-08-07T16:24:40Z</time>
      </trkpt>
      <trkpt lat="45.82297" lon="2.97713">
        <ele>935.6</ele>
        <time>2025-08-07T16:24:41Z</time>
      </trkpt>
      <trkpt lat="45.82301" lon="2.97715">
        <ele>935</ele>
        <time>2025-08-07T16:24:42Z</time>
      </trkpt>
      <trkpt lat="45.82307" lon="2.97719">
        <ele>934.6</ele>
        <time>2025-08-07T16:24:43Z</time>
      </trkpt>
      <trkpt lat="45.82311" lon="2.97722">
        <ele>934.2</ele>
        <time>2025-08-07T16:24:44Z</time>
      </trkpt>
      <trkpt lat="45.82316" lon="2.97728">
        <ele>933.6</ele>
        <time>2025-08-07T16:24:45Z</time>
      </trkpt>
      <trkpt lat="45.82322" lon="2.97732">
        <ele>933</ele>
        <time>2025-08-07T16:24:46Z</time>
      </trkpt>
      <trkpt lat="45.82328" lon="2.97738">
        <ele>932.4</ele>
        <time>2025-08-07T16:24:47Z</time>
      </trkpt>
      <trkpt lat="45.82332" lon="2.97741">
        <ele>931.8</ele>
        <time>2025-08-07T16:24:48Z</time>
      </trkpt>
      <trkpt lat="45.82336" lon="2.97744">
        <ele>931.2</ele>
        <time>2025-08-07T16:24:49Z</time>
      </trkpt>
      <trkpt lat="45.8234" lon="2.97746">
        <ele>930.6</ele>
        <time>2025-08-07T16:24:50Z</time>
      </trkpt>
      <trkpt lat="45.82344" lon="2.97746">
        <ele>930</ele>
        <time>2025-08-07T16:24:51Z</time>
      </trkpt>
      <trkpt lat="45.82349" lon="2.97746">
        <ele>929.4</ele>
        <time>2025-08-07T16:24:52Z</time>
      </trkpt>
      <trkpt lat="45.82353" lon="2.97746">
        <ele>928.8</ele>
        <time>2025-08-07T16:24:53Z</time>
      </trkpt>
      <trkpt lat="45.82357" lon="2.97746">
        <ele>928.4</ele>
        <time>2025-08-07T16:24:54Z</time>
      </trkpt>
      <trkpt lat="45.82361" lon="2.97747">
        <ele>927.6</ele>
        <time>2025-08-07T16:24:55Z</time>
      </trkpt>
      <trkpt lat="45.82368" lon="2.9775">
        <ele>927</ele>
        <time>2025-08-07T16:24:56Z</time>
      </trkpt>
      <trkpt lat="45.82374" lon="2.97755">
        <ele>926.4</ele>
        <time>2025-08-07T16:24:57Z</time>
      </trkpt>
      <trkpt lat="45.8238" lon="2.97759">
        <ele>925.8</ele>
        <time>2025-08-07T16:24:58Z</time>
      </trkpt>
      <trkpt lat="45.82384" lon="2.97762">
        <ele>925.2</ele>
        <time>2025-08-07T16:24:59Z</time>
      </trkpt>
      <trkpt lat="45.82385" lon="2.97765">
        <ele>924.6</ele>
        <time>2025-08-07T16:25:00Z</time>
      </trkpt>
      <trkpt lat="45.82388" lon="2.97769">
        <ele>924</ele>
        <time>2025-08-07T16:25:01Z</time>
      </trkpt>
      <trkpt lat="45.82394" lon="2.97773">
        <ele>923.4</ele>
        <time>2025-08-07T16:25:02Z</time>
      </trkpt>
      <trkpt lat="45.82398" lon="2.97778">
        <ele>923</ele>
        <time>2025-08-07T16:25:03Z</time>
      </trkpt>
      <trkpt lat="45.824" lon="2.9778">
        <ele>922.4</ele>
        <time>2025-08-07T16:25:04Z</time>
      </trkpt>
      <trkpt lat="45.82402" lon="2.97782">
        <ele>922</ele>
        <time>2025-08-07T16:25:05Z</time>
      </trkpt>
      <trkpt lat="45.82403" lon="2.97784">
        <ele>921.6</ele>
        <time>2025-08-07T16:25:06Z</time>
      </trkpt>
      <trkpt lat="45.82404" lon="2.97786">
        <ele>921.2</ele>
        <time>2025-08-07T16:25:07Z</time>
      </trkpt>
      <trkpt lat="45.82406" lon="2.97788">
        <ele>920.8</ele>
        <time>2025-08-07T16:25:08Z</time>
      </trkpt>
      <trkpt lat="45.82408" lon="2.97791">
        <ele>920.4</ele>
        <time>2025-08-07T16:25:09Z</time>
      </trkpt>
      <trkpt lat="45.82411" lon="2.97796">
        <ele>920</ele>
        <time>2025-08-07T16:25:10Z</time>
      </trkpt>
      <trkpt lat="45.82413" lon="2.97801">
        <ele>919.8</ele>
        <time>2025-08-07T16:25:11Z</time>
      </trkpt>
      <trkpt lat="45.82416" lon="2.97803">
        <ele>919.2</ele>
        <time>2025-08-07T16:25:12Z</time>
      </trkpt>
      <trkpt lat="45.82421" lon="2.97809">
        <ele>918.8</ele>
        <time>2025-08-07T16:25:13Z</time>
      </trkpt>
      <trkpt lat="45.82425" lon="2.97813">
        <ele>918.4</ele>
        <time>2025-08-07T16:25:14Z</time>
      </trkpt>
      <trkpt lat="45.82429" lon="2.97816">
        <ele>918</ele>
        <time>2025-08-07T16:25:15Z</time>
      </trkpt>
      <trkpt lat="45.82433" lon="2.97821">
        <ele>917.4</ele>
        <time>2025-08-07T16:25:16Z</time>
      </trkpt>
      <trkpt lat="45.82437" lon="2.97825">
        <ele>916.8</ele>
        <time>2025-08-07T16:25:17Z</time>
      </trkpt>
      <trkpt lat="45.82438" lon="2.97828">
        <ele>916.4</ele>
        <time>2025-08-07T16:25:18Z</time>
      </trkpt>
      <trkpt lat="45.82441" lon="2.97832">
        <ele>915.8</ele>
        <time>2025-08-07T16:25:19Z</time>
      </trkpt>
      <trkpt lat="45.82445" lon="2.97836">
        <ele>915.2</ele>
        <time>2025-08-07T16:25:20Z</time>
      </trkpt>
      <trkpt lat="45.82448" lon="2.9784">
        <ele>914.8</ele>
        <time>2025-08-07T16:25:21Z</time>
      </trkpt>
      <trkpt lat="45.82451" lon="2.97843">
        <ele>914.2</ele>
        <time>2025-08-07T16:25:22Z</time>
      </trkpt>
      <trkpt lat="45.82455" lon="2.97846">
        <ele>913.8</ele>
        <time>2025-08-07T16:25:23Z</time>
      </trkpt>
      <trkpt lat="45.8246" lon="2.97849">
        <ele>913.4</ele>
        <time>2025-08-07T16:25:24Z</time>
      </trkpt>
      <trkpt lat="45.82464" lon="2.97852">
        <ele>913</ele>
        <time>2025-08-07T16:25:25Z</time>
      </trkpt>
      <trkpt lat="45.82468" lon="2.97855">
        <ele>912.6</ele>
        <time>2025-08-07T16:25:26Z</time>
      </trkpt>
      <trkpt lat="45.82473" lon="2.97858">
        <ele>912.2</ele>
        <time>2025-08-07T16:25:27Z</time>
      </trkpt>
      <trkpt lat="45.82479" lon="2.9786">
        <ele>911.8</ele>
        <time>2025-08-07T16:25:28Z</time>
      </trkpt>
      <trkpt lat="45.82487" lon="2.97864">
        <ele>911.2</ele>
        <time>2025-08-07T16:25:29Z</time>
      </trkpt>
      <trkpt lat="45.82494" lon="2.97867">
        <ele>910.8</ele>
        <time>2025-08-07T16:25:30Z</time>
      </trkpt>
      <trkpt lat="45.82503" lon="2.97872">
        <ele>910.4</ele>
        <time>2025-08-07T16:25:31Z</time>
      </trkpt>
      <trkpt lat="45.82508" lon="2.97875">
        <ele>910</ele>
        <time>2025-08-07T16:25:32Z</time>
      </trkpt>
      <trkpt lat="45.82512" lon="2.97878">
        <ele>909.6</ele>
        <time>2025-08-07T16:25:33Z</time>
      </trkpt>
      <trkpt lat="45.82514" lon="2.9788">
        <ele>909.2</ele>
        <time>2025-08-07T16:25:34Z</time>
      </trkpt>
      <trkpt lat="45.82516" lon="2.97884">
        <ele>908.8</ele>
        <time>2025-08-07T16:25:35Z</time>
      </trkpt>
      <trkpt lat="45.82517" lon="2.97886">
        <ele>908.6</ele>
        <time>2025-08-07T16:25:36Z</time>
      </trkpt>
      <trkpt lat="45.82516" lon="2.97888">
        <ele>908.4</ele>
        <time>2025-08-07T16:25:37Z</time>
      </trkpt>
      <trkpt lat="45.82517" lon="2.9789">
        <ele>908.2</ele>
        <time>2025-08-07T16:25:38Z</time>
      </trkpt>
      <trkpt lat="45.82519" lon="2.97893">
        <ele>907.8</ele>
        <time>2025-08-07T16:25:39Z</time>
      </trkpt>
      <trkpt lat="45.82522" lon="2.97896">
        <ele>907.6</ele>
        <time>2025-08-07T16:25:40Z</time>
      </trkpt>
      <trkpt lat="45.82526" lon="2.97899">
        <ele>907.2</ele>
        <time>2025-08-07T16:25:41Z</time>
      </trkpt>
      <trkpt lat="45.82529" lon="2.97903">
        <ele>907</ele>
        <time>2025-08-07T16:25:42Z</time>
      </trkpt>
      <trkpt lat="45.82535" lon="2.97909">
        <ele>906.8</ele>
        <time>2025-08-07T16:25:43Z</time>
      </trkpt>
      <trkpt lat="45.8254" lon="2.97915">
        <ele>906.4</ele>
        <time>2025-08-07T16:25:44Z</time>
      </trkpt>
      <trkpt lat="45.82544" lon="2.97922">
        <ele>906.2</ele>
        <time>2025-08-07T16:25:45Z</time>
      </trkpt>
      <trkpt lat="45.82549" lon="2.97927">
        <ele>906</ele>
        <time>2025-08-07T16:25:46Z</time>
      </trkpt>
      <trkpt lat="45.82553" lon="2.9793">
        <ele>905.8</ele>
        <time>2025-08-07T16:25:47Z</time>
      </trkpt>
      <trkpt lat="45.82557" lon="2.97934">
        <ele>905.4</ele>
        <time>2025-08-07T16:25:48Z</time>
      </trkpt>
      <trkpt lat="45.8256" lon="2.97941">
        <ele>905.2</ele>
        <time>2025-08-07T16:25:49Z</time>
      </trkpt>
      <trkpt lat="45.82563" lon="2.97947">
        <ele>904.8</ele>
        <time>2025-08-07T16:25:50Z</time>
      </trkpt>
      <trkpt lat="45.82565" lon="2.97953">
        <ele>904.6</ele>
        <time>2025-08-07T16:25:51Z</time>
      </trkpt>
      <trkpt lat="45.82569" lon="2.97957">
        <ele>904.2</ele>
        <time>2025-08-07T16:25:52Z</time>
      </trkpt>
      <trkpt lat="45.82575" lon="2.97965">
        <ele>903.8</ele>
        <time>2025-08-07T16:25:53Z</time>
      </trkpt>
      <trkpt lat="45.8258" lon="2.97971">
        <ele>903.4</ele>
        <time>2025-08-07T16:25:54Z</time>
      </trkpt>
      <trkpt lat="45.82583" lon="2.9798">
        <ele>903.2</ele>
        <time>2025-08-07T16:25:55Z</time>
      </trkpt>
      <trkpt lat="45.82585" lon="2.97986">
        <ele>902.8</ele>
        <time>2025-08-07T16:25:56Z</time>
      </trkpt>
      <trkpt lat="45.82589" lon="2.97992">
        <ele>902.6</ele>
        <time>2025-08-07T16:25:57Z</time>
      </trkpt>
      <trkpt lat="45.82592" lon="2.98001">
        <ele>902.2</ele>
        <time>2025-08-07T16:25:58Z</time>
      </trkpt>
      <trkpt lat="45.82595" lon="2.98011">
        <ele>901.8</ele>
        <time>2025-08-07T16:25:59Z</time>
      </trkpt>
      <trkpt lat="45.82597" lon="2.9802">
        <ele>901.4</ele>
        <time>2025-08-07T16:26:00Z</time>
      </trkpt>
      <trkpt lat="45.826" lon="2.9803">
        <ele>901</ele>
        <time>2025-08-07T16:26:01Z</time>
      </trkpt>
      <trkpt lat="45.82604" lon="2.98037">
        <ele>900.6</ele>
        <time>2025-08-07T16:26:02Z</time>
      </trkpt>
      <trkpt lat="45.82608" lon="2.98048">
        <ele>900.2</ele>
        <time>2025-08-07T16:26:03Z</time>
      </trkpt>
      <trkpt lat="45.82611" lon="2.98056">
        <ele>900</ele>
        <time>2025-08-07T16:26:04Z</time>
      </trkpt>
      <trkpt lat="45.82613" lon="2.98061">
        <ele>899.6</ele>
        <time>2025-08-07T16:26:05Z</time>
      </trkpt>
      <trkpt lat="45.82616" lon="2.9807">
        <ele>899.2</ele>
        <time>2025-08-07T16:26:06Z</time>
      </trkpt>
      <trkpt lat="45.82619" lon="2.98076">
        <ele>898.8</ele>
        <time>2025-08-07T16:26:07Z</time>
      </trkpt>
      <trkpt lat="45.82623" lon="2.98083">
        <ele>898.4</ele>
        <time>2025-08-07T16:26:08Z</time>
      </trkpt>
      <trkpt lat="45.82627" lon="2.98091">
        <ele>898.2</ele>
        <time>2025-08-07T16:26:09Z</time>
      </trkpt>
      <trkpt lat="45.8263" lon="2.981">
        <ele>897.8</ele>
        <time>2025-08-07T16:26:10Z</time>
      </trkpt>
      <trkpt lat="45.82633" lon="2.98112">
        <ele>897.6</ele>
        <time>2025-08-07T16:26:11Z</time>
      </trkpt>
      <trkpt lat="45.82635" lon="2.9812">
        <ele>897.2</ele>
        <time>2025-08-07T16:26:12Z</time>
      </trkpt>
      <trkpt lat="45.82637" lon="2.98129">
        <ele>897</ele>
        <time>2025-08-07T16:26:13Z</time>
      </trkpt>
      <trkpt lat="45.8264" lon="2.98139">
        <ele>896.6</ele>
        <time>2025-08-07T16:26:14Z</time>
      </trkpt>
      <trkpt lat="45.82643" lon="2.98149">
        <ele>896.2</ele>
        <time>2025-08-07T16:26:15Z</time>
      </trkpt>
      <trkpt lat="45.82648" lon="2.9816">
        <ele>896</ele>
        <time>2025-08-07T16:26:16Z</time>
      </trkpt>
      <trkpt lat="45.82653" lon="2.9817">
        <ele>895.6</ele>
        <time>2025-08-07T16:26:17Z</time>
      </trkpt>
      <trkpt lat="45.82657" lon="2.9818">
        <ele>895.4</ele>
        <time>2025-08-07T16:26:18Z</time>
      </trkpt>
      <trkpt lat="45.82661" lon="2.9819">
        <ele>895</ele>
        <time>2025-08-07T16:26:19Z</time>
      </trkpt>
      <trkpt lat="45.82664" lon="2.98198">
        <ele>894.8</ele>
        <time>2025-08-07T16:26:20Z</time>
      </trkpt>
      <trkpt lat="45.82668" lon="2.98204">
        <ele>894.4</ele>
        <time>2025-08-07T16:26:21Z</time>
      </trkpt>
      <trkpt lat="45.82672" lon="2.98218">
        <ele>894.2</ele>
        <time>2025-08-07T16:26:22Z</time>
      </trkpt>
      <trkpt lat="45.82676" lon="2.98232">
        <ele>893.8</ele>
        <time>2025-08-07T16:26:23Z</time>
      </trkpt>
      <trkpt lat="45.8268" lon="2.98239">
        <ele>893.4</ele>
        <time>2025-08-07T16:26:24Z</time>
      </trkpt>
      <trkpt lat="45.82684" lon="2.98246">
        <ele>893.2</ele>
        <time>2025-08-07T16:26:25Z</time>
      </trkpt>
      <trkpt lat="45.82687" lon="2.98252">
        <ele>893</ele>
        <time>2025-08-07T16:26:26Z</time>
      </trkpt>
      <trkpt lat="45.82691" lon="2.9826">
        <ele>892.8</ele>
        <time>2025-08-07T16:26:27Z</time>
      </trkpt>
      <trkpt lat="45.82695" lon="2.98269">
        <ele>892.4</ele>
        <time>2025-08-07T16:26:28Z</time>
      </trkpt>
      <trkpt lat="45.82698" lon="2.98277">
        <ele>892.2</ele>
        <time>2025-08-07T16:26:29Z</time>
      </trkpt>
      <trkpt lat="45.82702" lon="2.98281">
        <ele>892</ele>
        <time>2025-08-07T16:26:30Z</time>
      </trkpt>
      <trkpt lat="45.82705" lon="2.98289">
        <ele>891.8</ele>
        <time>2025-08-07T16:26:31Z</time>
      </trkpt>
      <trkpt lat="45.82706" lon="2.98299">
        <ele>891.6</ele>
        <time>2025-08-07T16:26:32Z</time>
      </trkpt>
      <trkpt lat="45.82708" lon="2.9831">
        <ele>891.4</ele>
        <time>2025-08-07T16:26:33Z</time>
      </trkpt>
      <trkpt lat="45.82711" lon="2.98319">
        <ele>891.2</ele>
        <time>2025-08-07T16:26:34Z</time>
      </trkpt>
      <trkpt lat="45.82716" lon="2.98326">
        <ele>891.2</ele>
        <time>2025-08-07T16:26:35Z</time>
      </trkpt>
      <trkpt lat="45.8272" lon="2.98334">
        <ele>891</ele>
        <time>2025-08-07T16:26:36Z</time>
      </trkpt>
      <trkpt lat="45.82724" lon="2.9834">
        <ele>890.8</ele>
        <time>2025-08-07T16:26:37Z</time>
      </trkpt>
      <trkpt lat="45.82727" lon="2.98345">
        <ele>890.8</ele>
        <time>2025-08-07T16:26:38Z</time>
      </trkpt>
      <trkpt lat="45.82732" lon="2.98347">
        <ele>890.6</ele>
        <time>2025-08-07T16:26:39Z</time>
      </trkpt>
      <trkpt lat="45.82737" lon="2.98349">
        <ele>890.4</ele>
        <time>2025-08-07T16:26:40Z</time>
      </trkpt>
      <trkpt lat="45.82744" lon="2.98348">
        <ele>890.2</ele>
        <time>2025-08-07T16:26:41Z</time>
      </trkpt>
      <trkpt lat="45.82751" lon="2.98346">
        <ele>890</ele>
        <time>2025-08-07T16:26:42Z</time>
      </trkpt>
      <trkpt lat="45.82756" lon="2.98343">
        <ele>889.8</ele>
        <time>2025-08-07T16:26:43Z</time>
      </trkpt>
      <trkpt lat="45.82761" lon="2.9834">
        <ele>889.6</ele>
        <time>2025-08-07T16:26:44Z</time>
      </trkpt>
      <trkpt lat="45.82766" lon="2.98338">
        <ele>889.4</ele>
        <time>2025-08-07T16:26:45Z</time>
      </trkpt>
      <trkpt lat="45.8277" lon="2.98337">
        <ele>889.4</ele>
        <time>2025-08-07T16:26:46Z</time>
      </trkpt>
      <trkpt lat="45.82772" lon="2.98333">
        <ele>889.2</ele>
        <time>2025-08-07T16:26:47Z</time>
      </trkpt>
      <trkpt lat="45.82775" lon="2.98328">
        <ele>889.2</ele>
        <time>2025-08-07T16:26:48Z</time>
      </trkpt>
      <trkpt lat="45.82778" lon="2.98324">
        <ele>889</ele>
        <time>2025-08-07T16:26:49Z</time>
      </trkpt>
      <trkpt lat="45.82783" lon="2.98321">
        <ele>889</ele>
        <time>2025-08-07T16:26:50Z</time>
      </trkpt>
      <trkpt lat="45.82788" lon="2.98316">
        <ele>888.8</ele>
        <time>2025-08-07T16:26:51Z</time>
      </trkpt>
      <trkpt lat="45.82793" lon="2.98312">
        <ele>888.8</ele>
        <time>2025-08-07T16:26:52Z</time>
      </trkpt>
      <trkpt lat="45.82799" lon="2.98308">
        <ele>888.6</ele>
        <time>2025-08-07T16:26:53Z</time>
      </trkpt>
      <trkpt lat="45.82805" lon="2.98306">
        <ele>888.4</ele>
        <time>2025-08-07T16:26:54Z</time>
      </trkpt>
      <trkpt lat="45.8281" lon="2.98302">
        <ele>888.4</ele>
        <time>2025-08-07T16:26:55Z</time>
      </trkpt>
      <trkpt lat="45.82815" lon="2.98298">
        <ele>888.4</ele>
        <time>2025-08-07T16:26:56Z</time>
      </trkpt>
      <trkpt lat="45.82819" lon="2.98295">
        <ele>888.2</ele>
        <time>2025-08-07T16:26:57Z</time>
      </trkpt>
      <trkpt lat="45.82823" lon="2.98292">
        <ele>888.2</ele>
        <time>2025-08-07T16:26:58Z</time>
      </trkpt>
      <trkpt lat="45.82827" lon="2.98291">
        <ele>888.2</ele>
        <time>2025-08-07T16:26:59Z</time>
      </trkpt>
      <trkpt lat="45.82831" lon="2.98289">
        <ele>888</ele>
        <time>2025-08-07T16:27:00Z</time>
      </trkpt>
      <trkpt lat="45.82837" lon="2.98285">
        <ele>888</ele>
        <time>2025-08-07T16:27:01Z</time>
      </trkpt>
      <trkpt lat="45.82841" lon="2.98283">
        <ele>888</ele>
        <time>2025-08-07T16:27:02Z</time>
      </trkpt>
      <trkpt lat="45.82845" lon="2.98283">
        <ele>888</ele>
        <time>2025-08-07T16:27:03Z</time>
      </trkpt>
      <trkpt lat="45.82851" lon="2.9828">
        <ele>888</ele>
        <time>2025-08-07T16:27:04Z</time>
      </trkpt>
      <trkpt lat="45.82855" lon="2.98276">
        <ele>888</ele>
        <time>2025-08-07T16:27:05Z</time>
      </trkpt>
      <trkpt lat="45.8286" lon="2.98272">
        <ele>888</ele>
        <time>2025-08-07T16:27:06Z</time>
      </trkpt>
      <trkpt lat="45.82865" lon="2.98269">
        <ele>888</ele>
        <time>2025-08-07T16:27:07Z</time>
      </trkpt>
      <trkpt lat="45.82869" lon="2.98263">
        <ele>888</ele>
        <time>2025-08-07T16:27:08Z</time>
      </trkpt>
      <trkpt lat="45.8288" lon="2.98253">
        <ele>888</ele>
        <time>2025-08-07T16:27:09Z</time>
      </trkpt>
      <trkpt lat="45.82889" lon="2.9825">
        <ele>888.2</ele>
        <time>2025-08-07T16:27:10Z</time>
      </trkpt>
      <trkpt lat="45.82895" lon="2.98248">
        <ele>888.2</ele>
        <time>2025-08-07T16:27:11Z</time>
      </trkpt>
      <trkpt lat="45.829" lon="2.98243">
        <ele>888.2</ele>
        <time>2025-08-07T16:27:12Z</time>
      </trkpt>
      <trkpt lat="45.82904" lon="2.98237">
        <ele>888.2</ele>
        <time>2025-08-07T16:27:13Z</time>
      </trkpt>
      <trkpt lat="45.82914" lon="2.98229">
        <ele>888.2</ele>
        <time>2025-08-07T16:27:14Z</time>
      </trkpt>
      <trkpt lat="45.82919" lon="2.98222">
        <ele>888.2</ele>
        <time>2025-08-07T16:27:15Z</time>
      </trkpt>
      <trkpt lat="45.82923" lon="2.98215">
        <ele>888.2</ele>
        <time>2025-08-07T16:27:16Z</time>
      </trkpt>
      <trkpt lat="45.82927" lon="2.9821">
        <ele>888.2</ele>
        <time>2025-08-07T16:27:17Z</time>
      </trkpt>
      <trkpt lat="45.82932" lon="2.98207">
        <ele>888.2</ele>
        <time>2025-08-07T16:27:18Z</time>
      </trkpt>
      <trkpt lat="45.82935" lon="2.98204">
        <ele>888.2</ele>
        <time>2025-08-07T16:27:19Z</time>
      </trkpt>
      <trkpt lat="45.82938" lon="2.98201">
        <ele>888.4</ele>
        <time>2025-08-07T16:27:20Z</time>
      </trkpt>
      <trkpt lat="45.82941" lon="2.98196">
        <ele>888.4</ele>
        <time>2025-08-07T16:27:21Z</time>
      </trkpt>
      <trkpt lat="45.82943" lon="2.98191">
        <ele>888.4</ele>
        <time>2025-08-07T16:27:22Z</time>
      </trkpt>
      <trkpt lat="45.82949" lon="2.98187">
        <ele>888.6</ele>
        <time>2025-08-07T16:27:23Z</time>
      </trkpt>
      <trkpt lat="45.82958" lon="2.98184">
        <ele>888.6</ele>
        <time>2025-08-07T16:27:24Z</time>
      </trkpt>
      <trkpt lat="45.82963" lon="2.9818">
        <ele>888.8</ele>
        <time>2025-08-07T16:27:25Z</time>
      </trkpt>
      <trkpt lat="45.82968" lon="2.98175">
        <ele>888.8</ele>
        <time>2025-08-07T16:27:26Z</time>
      </trkpt>
      <trkpt lat="45.82969" lon="2.98169">
        <ele>889</ele>
        <time>2025-08-07T16:27:27Z</time>
      </trkpt>
      <trkpt lat="45.82972" lon="2.98164">
        <ele>889</ele>
        <time>2025-08-07T16:27:28Z</time>
      </trkpt>
      <trkpt lat="45.82975" lon="2.98159">
        <ele>889.2</ele>
        <time>2025-08-07T16:27:29Z</time>
      </trkpt>
      <trkpt lat="45.82978" lon="2.98154">
        <ele>889.2</ele>
        <time>2025-08-07T16:27:30Z</time>
      </trkpt>
      <trkpt lat="45.82981" lon="2.9815">
        <ele>889.4</ele>
        <time>2025-08-07T16:27:31Z</time>
      </trkpt>
      <trkpt lat="45.82984" lon="2.98146">
        <ele>889.6</ele>
        <time>2025-08-07T16:27:32Z</time>
      </trkpt>
      <trkpt lat="45.82986" lon="2.9814">
        <ele>889.8</ele>
        <time>2025-08-07T16:27:33Z</time>
      </trkpt>
      <trkpt lat="45.82987" lon="2.9813">
        <ele>890</ele>
        <time>2025-08-07T16:27:34Z</time>
      </trkpt>
      <trkpt lat="45.82989" lon="2.98122">
        <ele>890</ele>
        <time>2025-08-07T16:27:35Z</time>
      </trkpt>
      <trkpt lat="45.82993" lon="2.98116">
        <ele>890.2</ele>
        <time>2025-08-07T16:27:36Z</time>
      </trkpt>
      <trkpt lat="45.82997" lon="2.98111">
        <ele>890.4</ele>
        <time>2025-08-07T16:27:37Z</time>
      </trkpt>
      <trkpt lat="45.83001" lon="2.98104">
        <ele>890.4</ele>
        <time>2025-08-07T16:27:38Z</time>
      </trkpt>
      <trkpt lat="45.83003" lon="2.98099">
        <ele>890.6</ele>
        <time>2025-08-07T16:27:39Z</time>
      </trkpt>
      <trkpt lat="45.83007" lon="2.98093">
        <ele>890.6</ele>
        <time>2025-08-07T16:27:40Z</time>
      </trkpt>
      <trkpt lat="45.8301" lon="2.98087">
        <ele>890.8</ele>
        <time>2025-08-07T16:27:41Z</time>
      </trkpt>
      <trkpt lat="45.83013" lon="2.98081">
        <ele>891</ele>
        <time>2025-08-07T16:27:42Z</time>
      </trkpt>
      <trkpt lat="45.83016" lon="2.98074">
        <ele>891.2</ele>
        <time>2025-08-07T16:27:43Z</time>
      </trkpt>
      <trkpt lat="45.8302" lon="2.98068">
        <ele>891.4</ele>
        <time>2025-08-07T16:27:44Z</time>
      </trkpt>
      <trkpt lat="45.83024" lon="2.9806">
        <ele>891.4</ele>
        <time>2025-08-07T16:27:45Z</time>
      </trkpt>
      <trkpt lat="45.83028" lon="2.98054">
        <ele>891.6</ele>
        <time>2025-08-07T16:27:46Z</time>
      </trkpt>
      <trkpt lat="45.83033" lon="2.98049">
        <ele>891.8</ele>
        <time>2025-08-07T16:27:47Z</time>
      </trkpt>
      <trkpt lat="45.83038" lon="2.98043">
        <ele>891.8</ele>
        <time>2025-08-07T16:27:48Z</time>
      </trkpt>
      <trkpt lat="45.83042" lon="2.98041">
        <ele>891.8</ele>
        <time>2025-08-07T16:27:49Z</time>
      </trkpt>
      <trkpt lat="45.83044" lon="2.9804">
        <ele>892</ele>
        <time>2025-08-07T16:27:50Z</time>
      </trkpt>
      <trkpt lat="45.83045" lon="2.98039">
        <ele>892</ele>
        <time>2025-08-07T16:27:51Z</time>
      </trkpt>
      <trkpt lat="45.83046" lon="2.98038">
        <ele>892</ele>
        <time>2025-08-07T16:27:52Z</time>
      </trkpt>
      <trkpt lat="45.8305" lon="2.98037">
        <ele>892.2</ele>
        <time>2025-08-07T16:27:53Z</time>
      </trkpt>
      <trkpt lat="45.83055" lon="2.98038">
        <ele>892</ele>
        <time>2025-08-07T16:27:54Z</time>
      </trkpt>
      <trkpt lat="45.8306" lon="2.98039">
        <ele>892</ele>
        <time>2025-08-07T16:27:55Z</time>
      </trkpt>
      <trkpt lat="45.83063" lon="2.98037">
        <ele>892</ele>
        <time>2025-08-07T16:27:56Z</time>
      </trkpt>
      <trkpt lat="45.83066" lon="2.98035">
        <ele>892</ele>
        <time>2025-08-07T16:27:57Z</time>
      </trkpt>
      <trkpt lat="45.83069" lon="2.98031">
        <ele>892</ele>
        <time>2025-08-07T16:27:58Z</time>
      </trkpt>
      <trkpt lat="45.83076" lon="2.98024">
        <ele>892</ele>
        <time>2025-08-07T16:27:59Z</time>
      </trkpt>
      <trkpt lat="45.83079" lon="2.98019">
        <ele>892</ele>
        <time>2025-08-07T16:28:00Z</time>
      </trkpt>
      <trkpt lat="45.83081" lon="2.98015">
        <ele>892.2</ele>
        <time>2025-08-07T16:28:01Z</time>
      </trkpt>
      <trkpt lat="45.83082" lon="2.98012">
        <ele>892.2</ele>
        <time>2025-08-07T16:28:02Z</time>
      </trkpt>
      <trkpt lat="45.83084" lon="2.98007">
        <ele>892.2</ele>
        <time>2025-08-07T16:28:03Z</time>
      </trkpt>
      <trkpt lat="45.83086" lon="2.98004">
        <ele>892.4</ele>
        <time>2025-08-07T16:28:04Z</time>
      </trkpt>
      <trkpt lat="45.83091" lon="2.97999">
        <ele>892.4</ele>
        <time>2025-08-07T16:28:05Z</time>
      </trkpt>
      <trkpt lat="45.83095" lon="2.97993">
        <ele>892.6</ele>
        <time>2025-08-07T16:28:06Z</time>
      </trkpt>
      <trkpt lat="45.83098" lon="2.97986">
        <ele>892.6</ele>
        <time>2025-08-07T16:28:07Z</time>
      </trkpt>
      <trkpt lat="45.831" lon="2.97981">
        <ele>892.8</ele>
        <time>2025-08-07T16:28:08Z</time>
      </trkpt>
      <trkpt lat="45.83103" lon="2.97974">
        <ele>892.8</ele>
        <time>2025-08-07T16:28:09Z</time>
      </trkpt>
      <trkpt lat="45.83106" lon="2.97968">
        <ele>893</ele>
        <time>2025-08-07T16:28:10Z</time>
      </trkpt>
      <trkpt lat="45.83109" lon="2.97963">
        <ele>893</ele>
        <time>2025-08-07T16:28:11Z</time>
      </trkpt>
      <trkpt lat="45.83113" lon="2.97959">
        <ele>893</ele>
        <time>2025-08-07T16:28:12Z</time>
      </trkpt>
      <trkpt lat="45.83115" lon="2.97957">
        <ele>893.2</ele>
        <time>2025-08-07T16:28:13Z</time>
      </trkpt>
      <trkpt lat="45.83118" lon="2.97955">
        <ele>893.2</ele>
        <time>2025-08-07T16:28:14Z</time>
      </trkpt>
      <trkpt lat="45.83121" lon="2.97954">
        <ele>893.4</ele>
        <time>2025-08-07T16:28:15Z</time>
      </trkpt>
      <trkpt lat="45.83124" lon="2.97954">
        <ele>893.4</ele>
        <time>2025-08-07T16:28:16Z</time>
      </trkpt>
      <trkpt lat="45.83128" lon="2.97953">
        <ele>893.6</ele>
        <time>2025-08-07T16:28:17Z</time>
      </trkpt>
      <trkpt lat="45.83131" lon="2.97951">
        <ele>893.6</ele>
        <time>2025-08-07T16:28:18Z</time>
      </trkpt>
      <trkpt lat="45.83134" lon="2.97949">
        <ele>893.8</ele>
        <time>2025-08-07T16:28:19Z</time>
      </trkpt>
      <trkpt lat="45.83141" lon="2.97948">
        <ele>893.8</ele>
        <time>2025-08-07T16:28:20Z</time>
      </trkpt>
      <trkpt lat="45.83145" lon="2.9795">
        <ele>893.8</ele>
        <time>2025-08-07T16:28:21Z</time>
      </trkpt>
      <trkpt lat="45.83149" lon="2.97949">
        <ele>894</ele>
        <time>2025-08-07T16:28:22Z</time>
      </trkpt>
      <trkpt lat="45.83155" lon="2.97944">
        <ele>894.2</ele>
        <time>2025-08-07T16:28:23Z</time>
      </trkpt>
      <trkpt lat="45.8316" lon="2.97939">
        <ele>894.2</ele>
        <time>2025-08-07T16:28:24Z</time>
      </trkpt>
      <trkpt lat="45.83162" lon="2.97936">
        <ele>894.4</ele>
        <time>2025-08-07T16:28:25Z</time>
      </trkpt>
      <trkpt lat="45.83166" lon="2.97934">
        <ele>894.6</ele>
        <time>2025-08-07T16:28:26Z</time>
      </trkpt>
      <trkpt lat="45.83171" lon="2.97931">
        <ele>894.8</ele>
        <time>2025-08-07T16:28:27Z</time>
      </trkpt>
      <trkpt lat="45.83173" lon="2.97929">
        <ele>894.8</ele>
        <time>2025-08-07T16:28:28Z</time>
      </trkpt>
      <trkpt lat="45.83179" lon="2.97924">
        <ele>895</ele>
        <time>2025-08-07T16:28:29Z</time>
      </trkpt>
      <trkpt lat="45.83184" lon="2.97922">
        <ele>895</ele>
        <time>2025-08-07T16:28:30Z</time>
      </trkpt>
      <trkpt lat="45.83195" lon="2.97917">
        <ele>895</ele>
        <time>2025-08-07T16:28:31Z</time>
      </trkpt>
      <trkpt lat="45.83202" lon="2.97911">
        <ele>895.2</ele>
        <time>2025-08-07T16:28:32Z</time>
      </trkpt>
      <trkpt lat="45.83208" lon="2.97907">
        <ele>895.2</ele>
        <time>2025-08-07T16:28:33Z</time>
      </trkpt>
      <trkpt lat="45.83212" lon="2.97903">
        <ele>895.4</ele>
        <time>2025-08-07T16:28:34Z</time>
      </trkpt>
      <trkpt lat="45.83215" lon="2.97901">
        <ele>895.4</ele>
        <time>2025-08-07T16:28:35Z</time>
      </trkpt>
      <trkpt lat="45.83218" lon="2.97901">
        <ele>895.6</ele>
        <time>2025-08-07T16:28:36Z</time>
      </trkpt>
      <trkpt lat="45.83221" lon="2.97902">
        <ele>895.6</ele>
        <time>2025-08-07T16:28:37Z</time>
      </trkpt>
      <trkpt lat="45.83225" lon="2.97903">
        <ele>895.8</ele>
        <time>2025-08-07T16:28:38Z</time>
      </trkpt>
      <trkpt lat="45.83229" lon="2.97901">
        <ele>895.8</ele>
        <time>2025-08-07T16:28:39Z</time>
      </trkpt>
      <trkpt lat="45.83234" lon="2.97902">
        <ele>896</ele>
        <time>2025-08-07T16:28:40Z</time>
      </trkpt>
      <trkpt lat="45.83239" lon="2.97904">
        <ele>896.2</ele>
        <time>2025-08-07T16:28:41Z</time>
      </trkpt>
      <trkpt lat="45.83243" lon="2.97904">
        <ele>896.2</ele>
        <time>2025-08-07T16:28:42Z</time>
      </trkpt>
      <trkpt lat="45.83248" lon="2.97903">
        <ele>896.4</ele>
        <time>2025-08-07T16:28:43Z</time>
      </trkpt>
      <trkpt lat="45.83251" lon="2.97902">
        <ele>896.6</ele>
        <time>2025-08-07T16:28:44Z</time>
      </trkpt>
      <trkpt lat="45.83256" lon="2.97906">
        <ele>896.6</ele>
        <time>2025-08-07T16:28:45Z</time>
      </trkpt>
      <trkpt lat="45.8326" lon="2.97909">
        <ele>896.8</ele>
        <time>2025-08-07T16:28:46Z</time>
      </trkpt>
      <trkpt lat="45.83265" lon="2.9791">
        <ele>896.8</ele>
        <time>2025-08-07T16:28:47Z</time>
      </trkpt>
      <trkpt lat="45.83271" lon="2.97908">
        <ele>896.8</ele>
        <time>2025-08-07T16:28:48Z</time>
      </trkpt>
      <trkpt lat="45.83277" lon="2.97906">
        <ele>897</ele>
        <time>2025-08-07T16:28:49Z</time>
      </trkpt>
      <trkpt lat="45.83281" lon="2.97903">
        <ele>897</ele>
        <time>2025-08-07T16:28:50Z</time>
      </trkpt>
      <trkpt lat="45.83284" lon="2.97901">
        <ele>897.2</ele>
        <time>2025-08-07T16:28:51Z</time>
      </trkpt>
      <trkpt lat="45.83288" lon="2.97898">
        <ele>897.2</ele>
        <time>2025-08-07T16:28:52Z</time>
      </trkpt>
      <trkpt lat="45.83293" lon="2.97895">
        <ele>897.2</ele>
        <time>2025-08-07T16:28:53Z</time>
      </trkpt>
      <trkpt lat="45.83298" lon="2.97893">
        <ele>897.4</ele>
        <time>2025-08-07T16:28:54Z</time>
      </trkpt>
      <trkpt lat="45.83304" lon="2.97893">
        <ele>897.4</ele>
        <time>2025-08-07T16:28:55Z</time>
      </trkpt>
      <trkpt lat="45.83311" lon="2.97893">
        <ele>897.4</ele>
        <time>2025-08-07T16:28:56Z</time>
      </trkpt>
      <trkpt lat="45.83318" lon="2.97895">
        <ele>897.4</ele>
        <time>2025-08-07T16:28:57Z</time>
      </trkpt>
      <trkpt lat="45.83322" lon="2.97895">
        <ele>897.6</ele>
        <time>2025-08-07T16:28:58Z</time>
      </trkpt>
      <trkpt lat="45.83327" lon="2.97895">
        <ele>897.6</ele>
        <time>2025-08-07T16:28:59Z</time>
      </trkpt>
      <trkpt lat="45.83335" lon="2.97893">
        <ele>897.6</ele>
        <time>2025-08-07T16:29:00Z</time>
      </trkpt>
      <trkpt lat="45.83343" lon="2.97894">
        <ele>897.6</ele>
        <time>2025-08-07T16:29:01Z</time>
      </trkpt>
      <trkpt lat="45.83349" lon="2.97892">
        <ele>897.6</ele>
        <time>2025-08-07T16:29:02Z</time>
      </trkpt>
      <trkpt lat="45.83353" lon="2.9789">
        <ele>897.6</ele>
        <time>2025-08-07T16:29:03Z</time>
      </trkpt>
      <trkpt lat="45.83357" lon="2.97889">
        <ele>897.6</ele>
        <time>2025-08-07T16:29:04Z</time>
      </trkpt>
      <trkpt lat="45.83366" lon="2.97884">
        <ele>897.6</ele>
        <time>2025-08-07T16:29:05Z</time>
      </trkpt>
      <trkpt lat="45.83372" lon="2.97881">
        <ele>897.6</ele>
        <time>2025-08-07T16:29:06Z</time>
      </trkpt>
      <trkpt lat="45.83377" lon="2.97881">
        <ele>897.8</ele>
        <time>2025-08-07T16:29:07Z</time>
      </trkpt>
      <trkpt lat="45.83382" lon="2.97881">
        <ele>897.8</ele>
        <time>2025-08-07T16:29:08Z</time>
      </trkpt>
      <trkpt lat="45.83387" lon="2.97883">
        <ele>897.8</ele>
        <time>2025-08-07T16:29:09Z</time>
      </trkpt>
      <trkpt lat="45.8339" lon="2.97883">
        <ele>897.8</ele>
        <time>2025-08-07T16:29:10Z</time>
      </trkpt>
      <trkpt lat="45.83396" lon="2.97886">
        <ele>897.8</ele>
        <time>2025-08-07T16:29:11Z</time>
      </trkpt>
      <trkpt lat="45.83403" lon="2.9789">
        <ele>897.8</ele>
        <time>2025-08-07T16:29:12Z</time>
      </trkpt>
      <trkpt lat="45.83407" lon="2.97894">
        <ele>897.8</ele>
        <time>2025-08-07T16:29:13Z</time>
      </trkpt>
      <trkpt lat="45.8341" lon="2.97899">
        <ele>897.6</ele>
        <time>2025-08-07T16:29:14Z</time>
      </trkpt>
      <trkpt lat="45.83413" lon="2.97903">
        <ele>897.6</ele>
        <time>2025-08-07T16:29:15Z</time>
      </trkpt>
      <trkpt lat="45.83417" lon="2.9791">
        <ele>897.4</ele>
        <time>2025-08-07T16:29:16Z</time>
      </trkpt>
      <trkpt lat="45.83423" lon="2.97919">
        <ele>897.4</ele>
        <time>2025-08-07T16:29:17Z</time>
      </trkpt>
      <trkpt lat="45.83428" lon="2.97926">
        <ele>897.2</ele>
        <time>2025-08-07T16:29:18Z</time>
      </trkpt>
      <trkpt lat="45.83432" lon="2.97932">
        <ele>897</ele>
        <time>2025-08-07T16:29:19Z</time>
      </trkpt>
      <trkpt lat="45.83436" lon="2.97936">
        <ele>896.8</ele>
        <time>2025-08-07T16:29:20Z</time>
      </trkpt>
      <trkpt lat="45.83441" lon="2.97941">
        <ele>896.6</ele>
        <time>2025-08-07T16:29:21Z</time>
      </trkpt>
      <trkpt lat="45.83446" lon="2.97946">
        <ele>896.2</ele>
        <time>2025-08-07T16:29:22Z</time>
      </trkpt>
      <trkpt lat="45.83451" lon="2.97951">
        <ele>895.8</ele>
        <time>2025-08-07T16:29:23Z</time>
      </trkpt>
      <trkpt lat="45.83456" lon="2.97955">
        <ele>895.6</ele>
        <time>2025-08-07T16:29:24Z</time>
      </trkpt>
      <trkpt lat="45.83462" lon="2.9796">
        <ele>895.2</ele>
        <time>2025-08-07T16:29:25Z</time>
      </trkpt>
      <trkpt lat="45.83467" lon="2.97966">
        <ele>894.8</ele>
        <time>2025-08-07T16:29:26Z</time>
      </trkpt>
      <trkpt lat="45.83472" lon="2.97972">
        <ele>894.4</ele>
        <time>2025-08-07T16:29:27Z</time>
      </trkpt>
      <trkpt lat="45.83477" lon="2.97979">
        <ele>894</ele>
        <time>2025-08-07T16:29:28Z</time>
      </trkpt>
      <trkpt lat="45.83483" lon="2.97986">
        <ele>893.8</ele>
        <time>2025-08-07T16:29:29Z</time>
      </trkpt>
      <trkpt lat="45.83488" lon="2.97993">
        <ele>893.4</ele>
        <time>2025-08-07T16:29:30Z</time>
      </trkpt>
      <trkpt lat="45.83493" lon="2.98">
        <ele>893.2</ele>
        <time>2025-08-07T16:29:31Z</time>
      </trkpt>
      <trkpt lat="45.83499" lon="2.98007">
        <ele>893</ele>
        <time>2025-08-07T16:29:32Z</time>
      </trkpt>
      <trkpt lat="45.83502" lon="2.98011">
        <ele>892.8</ele>
        <time>2025-08-07T16:29:33Z</time>
      </trkpt>
      <trkpt lat="45.83506" lon="2.98016">
        <ele>892.4</ele>
        <time>2025-08-07T16:29:34Z</time>
      </trkpt>
      <trkpt lat="45.83511" lon="2.98023">
        <ele>892.2</ele>
        <time>2025-08-07T16:29:35Z</time>
      </trkpt>
      <trkpt lat="45.83515" lon="2.98029">
        <ele>892</ele>
        <time>2025-08-07T16:29:36Z</time>
      </trkpt>
      <trkpt lat="45.8352" lon="2.98036">
        <ele>891.8</ele>
        <time>2025-08-07T16:29:37Z</time>
      </trkpt>
      <trkpt lat="45.83523" lon="2.98044">
        <ele>891.4</ele>
        <time>2025-08-07T16:29:38Z</time>
      </trkpt>
      <trkpt lat="45.83527" lon="2.98057">
        <ele>891</ele>
        <time>2025-08-07T16:29:39Z</time>
      </trkpt>
      <trkpt lat="45.83532" lon="2.98066">
        <ele>890.6</ele>
        <time>2025-08-07T16:29:40Z</time>
      </trkpt>
      <trkpt lat="45.83536" lon="2.98072">
        <ele>890.2</ele>
        <time>2025-08-07T16:29:41Z</time>
      </trkpt>
      <trkpt lat="45.83543" lon="2.98078">
        <ele>890</ele>
        <time>2025-08-07T16:29:42Z</time>
      </trkpt>
      <trkpt lat="45.83549" lon="2.98085">
        <ele>889.6</ele>
        <time>2025-08-07T16:29:43Z</time>
      </trkpt>
      <trkpt lat="45.83555" lon="2.98092">
        <ele>889.4</ele>
        <time>2025-08-07T16:29:44Z</time>
      </trkpt>
      <trkpt lat="45.8356" lon="2.98098">
        <ele>889</ele>
        <time>2025-08-07T16:29:45Z</time>
      </trkpt>
      <trkpt lat="45.83566" lon="2.98106">
        <ele>888.8</ele>
        <time>2025-08-07T16:29:46Z</time>
      </trkpt>
      <trkpt lat="45.83569" lon="2.98112">
        <ele>888.4</ele>
        <time>2025-08-07T16:29:47Z</time>
      </trkpt>
      <trkpt lat="45.83571" lon="2.98118">
        <ele>888.2</ele>
        <time>2025-08-07T16:29:48Z</time>
      </trkpt>
      <trkpt lat="45.83573" lon="2.98126">
        <ele>888</ele>
        <time>2025-08-07T16:29:49Z</time>
      </trkpt>
      <trkpt lat="45.83577" lon="2.98132">
        <ele>887.8</ele>
        <time>2025-08-07T16:29:50Z</time>
      </trkpt>
      <trkpt lat="45.8358" lon="2.98137">
        <ele>887.4</ele>
        <time>2025-08-07T16:29:51Z</time>
      </trkpt>
      <trkpt lat="45.83584" lon="2.98144">
        <ele>887.2</ele>
        <time>2025-08-07T16:29:52Z</time>
      </trkpt>
      <trkpt lat="45.83588" lon="2.98151">
        <ele>886.8</ele>
        <time>2025-08-07T16:29:53Z</time>
      </trkpt>
      <trkpt lat="45.83593" lon="2.98158">
        <ele>886.4</ele>
        <time>2025-08-07T16:29:54Z</time>
      </trkpt>
      <trkpt lat="45.83598" lon="2.98163">
        <ele>885.8</ele>
        <time>2025-08-07T16:29:55Z</time>
      </trkpt>
      <trkpt lat="45.83604" lon="2.98167">
        <ele>885.4</ele>
        <time>2025-08-07T16:29:56Z</time>
      </trkpt>
      <trkpt lat="45.83612" lon="2.98173">
        <ele>884.8</ele>
        <time>2025-08-07T16:29:57Z</time>
      </trkpt>
      <trkpt lat="45.83619" lon="2.98178">
        <ele>884.2</ele>
        <time>2025-08-07T16:29:58Z</time>
      </trkpt>
      <trkpt lat="45.83625" lon="2.98181">
        <ele>883.6</ele>
        <time>2025-08-07T16:29:59Z</time>
      </trkpt>
      <trkpt lat="45.83631" lon="2.98187">
        <ele>883</ele>
        <time>2025-08-07T16:30:00Z</time>
      </trkpt>
      <trkpt lat="45.83636" lon="2.98193">
        <ele>882.4</ele>
        <time>2025-08-07T16:30:01Z</time>
      </trkpt>
      <trkpt lat="45.83639" lon="2.98201">
        <ele>882</ele>
        <time>2025-08-07T16:30:02Z</time>
      </trkpt>
      <trkpt lat="45.83642" lon="2.98207">
        <ele>881.6</ele>
        <time>2025-08-07T16:30:03Z</time>
      </trkpt>
      <trkpt lat="45.83646" lon="2.98214">
        <ele>881</ele>
        <time>2025-08-07T16:30:04Z</time>
      </trkpt>
      <trkpt lat="45.83653" lon="2.98224">
        <ele>880.8</ele>
        <time>2025-08-07T16:30:05Z</time>
      </trkpt>
      <trkpt lat="45.83657" lon="2.98234">
        <ele>880.4</ele>
        <time>2025-08-07T16:30:06Z</time>
      </trkpt>
      <trkpt lat="45.83661" lon="2.98242">
        <ele>880</ele>
        <time>2025-08-07T16:30:07Z</time>
      </trkpt>
      <trkpt lat="45.83666" lon="2.9825">
        <ele>879.6</ele>
        <time>2025-08-07T16:30:08Z</time>
      </trkpt>
      <trkpt lat="45.8367" lon="2.98256">
        <ele>879.2</ele>
        <time>2025-08-07T16:30:09Z</time>
      </trkpt>
      <trkpt lat="45.83673" lon="2.98263">
        <ele>878.8</ele>
        <time>2025-08-07T16:30:10Z</time>
      </trkpt>
      <trkpt lat="45.83675" lon="2.9827">
        <ele>878.6</ele>
        <time>2025-08-07T16:30:11Z</time>
      </trkpt>
      <trkpt lat="45.83678" lon="2.98279">
        <ele>878.2</ele>
        <time>2025-08-07T16:30:12Z</time>
      </trkpt>
      <trkpt lat="45.83681" lon="2.98288">
        <ele>877.8</ele>
        <time>2025-08-07T16:30:13Z</time>
      </trkpt>
      <trkpt lat="45.83686" lon="2.98301">
        <ele>877.6</ele>
        <time>2025-08-07T16:30:14Z</time>
      </trkpt>
      <trkpt lat="45.83692" lon="2.98314">
        <ele>877.2</ele>
        <time>2025-08-07T16:30:15Z</time>
      </trkpt>
      <trkpt lat="45.83697" lon="2.98321">
        <ele>877</ele>
        <time>2025-08-07T16:30:16Z</time>
      </trkpt>
      <trkpt lat="45.83701" lon="2.98327">
        <ele>876.6</ele>
        <time>2025-08-07T16:30:17Z</time>
      </trkpt>
      <trkpt lat="45.83704" lon="2.98333">
        <ele>876.4</ele>
        <time>2025-08-07T16:30:18Z</time>
      </trkpt>
      <trkpt lat="45.83707" lon="2.98337">
        <ele>876.2</ele>
        <time>2025-08-07T16:30:19Z</time>
      </trkpt>
      <trkpt lat="45.83709" lon="2.98343">
        <ele>876</ele>
        <time>2025-08-07T16:30:20Z</time>
      </trkpt>
      <trkpt lat="45.8371" lon="2.9835">
        <ele>875.8</ele>
        <time>2025-08-07T16:30:21Z</time>
      </trkpt>
      <trkpt lat="45.83712" lon="2.98357">
        <ele>875.6</ele>
        <time>2025-08-07T16:30:22Z</time>
      </trkpt>
      <trkpt lat="45.83714" lon="2.98365">
        <ele>875.4</ele>
        <time>2025-08-07T16:30:23Z</time>
      </trkpt>
      <trkpt lat="45.83715" lon="2.98375">
        <ele>875.2</ele>
        <time>2025-08-07T16:30:24Z</time>
      </trkpt>
      <trkpt lat="45.83718" lon="2.98386">
        <ele>875</ele>
        <time>2025-08-07T16:30:25Z</time>
      </trkpt>
      <trkpt lat="45.8372" lon="2.98392">
        <ele>875</ele>
        <time>2025-08-07T16:30:26Z</time>
      </trkpt>
      <trkpt lat="45.83723" lon="2.98399">
        <ele>874.8</ele>
        <time>2025-08-07T16:30:27Z</time>
      </trkpt>
      <trkpt lat="45.83726" lon="2.98406">
        <ele>874.6</ele>
        <time>2025-08-07T16:30:28Z</time>
      </trkpt>
      <trkpt lat="45.8373" lon="2.98413">
        <ele>874.4</ele>
        <time>2025-08-07T16:30:29Z</time>
      </trkpt>
      <trkpt lat="45.83734" lon="2.9842">
        <ele>874.4</ele>
        <time>2025-08-07T16:30:30Z</time>
      </trkpt>
      <trkpt lat="45.83738" lon="2.98428">
        <ele>874.2</ele>
        <time>2025-08-07T16:30:31Z</time>
      </trkpt>
      <trkpt lat="45.83741" lon="2.98434">
        <ele>874</ele>
        <time>2025-08-07T16:30:32Z</time>
      </trkpt>
      <trkpt lat="45.83743" lon="2.98443">
        <ele>873.8</ele>
        <time>2025-08-07T16:30:33Z</time>
      </trkpt>
      <trkpt lat="45.83745" lon="2.9845">
        <ele>873.6</ele>
        <time>2025-08-07T16:30:34Z</time>
      </trkpt>
      <trkpt lat="45.83747" lon="2.98456">
        <ele>873.4</ele>
        <time>2025-08-07T16:30:35Z</time>
      </trkpt>
      <trkpt lat="45.83751" lon="2.98464">
        <ele>873</ele>
        <time>2025-08-07T16:30:36Z</time>
      </trkpt>
      <trkpt lat="45.83754" lon="2.98472">
        <ele>872.8</ele>
        <time>2025-08-07T16:30:37Z</time>
      </trkpt>
      <trkpt lat="45.83755" lon="2.98481">
        <ele>872.4</ele>
        <time>2025-08-07T16:30:38Z</time>
      </trkpt>
      <trkpt lat="45.83757" lon="2.9849">
        <ele>872</ele>
        <time>2025-08-07T16:30:39Z</time>
      </trkpt>
      <trkpt lat="45.8376" lon="2.98499">
        <ele>871.4</ele>
        <time>2025-08-07T16:30:40Z</time>
      </trkpt>
      <trkpt lat="45.83764" lon="2.98509">
        <ele>870.8</ele>
        <time>2025-08-07T16:30:41Z</time>
      </trkpt>
      <trkpt lat="45.83768" lon="2.98519">
        <ele>870.4</ele>
        <time>2025-08-07T16:30:42Z</time>
      </trkpt>
      <trkpt lat="45.83774" lon="2.9853">
        <ele>869.8</ele>
        <time>2025-08-07T16:30:43Z</time>
      </trkpt>
      <trkpt lat="45.83781" lon="2.98545">
        <ele>869.2</ele>
        <time>2025-08-07T16:30:44Z</time>
      </trkpt>
      <trkpt lat="45.83784" lon="2.98557">
        <ele>868.4</ele>
        <time>2025-08-07T16:30:45Z</time>
      </trkpt>
      <trkpt lat="45.83788" lon="2.98568">
        <ele>867.6</ele>
        <time>2025-08-07T16:30:46Z</time>
      </trkpt>
      <trkpt lat="45.83793" lon="2.98576">
        <ele>867</ele>
        <time>2025-08-07T16:30:47Z</time>
      </trkpt>
      <trkpt lat="45.83797" lon="2.98582">
        <ele>866.4</ele>
        <time>2025-08-07T16:30:48Z</time>
      </trkpt>
      <trkpt lat="45.83802" lon="2.98588">
        <ele>865.6</ele>
        <time>2025-08-07T16:30:49Z</time>
      </trkpt>
      <trkpt lat="45.83807" lon="2.98598">
        <ele>864.8</ele>
        <time>2025-08-07T16:30:50Z</time>
      </trkpt>
      <trkpt lat="45.83812" lon="2.98605">
        <ele>864.2</ele>
        <time>2025-08-07T16:30:51Z</time>
      </trkpt>
      <trkpt lat="45.83819" lon="2.98613">
        <ele>863.4</ele>
        <time>2025-08-07T16:30:52Z</time>
      </trkpt>
      <trkpt lat="45.83823" lon="2.98622">
        <ele>862.8</ele>
        <time>2025-08-07T16:30:53Z</time>
      </trkpt>
      <trkpt lat="45.83827" lon="2.9863">
        <ele>862.2</ele>
        <time>2025-08-07T16:30:54Z</time>
      </trkpt>
      <trkpt lat="45.83832" lon="2.98639">
        <ele>861.6</ele>
        <time>2025-08-07T16:30:55Z</time>
      </trkpt>
      <trkpt lat="45.83835" lon="2.98646">
        <ele>861</ele>
        <time>2025-08-07T16:30:56Z</time>
      </trkpt>
      <trkpt lat="45.83836" lon="2.98653">
        <ele>860.6</ele>
        <time>2025-08-07T16:30:57Z</time>
      </trkpt>
      <trkpt lat="45.83836" lon="2.98661">
        <ele>860.2</ele>
        <time>2025-08-07T16:30:58Z</time>
      </trkpt>
      <trkpt lat="45.83834" lon="2.9867">
        <ele>859.8</ele>
        <time>2025-08-07T16:30:59Z</time>
      </trkpt>
      <trkpt lat="45.8383" lon="2.98688">
        <ele>859.4</ele>
        <time>2025-08-07T16:31:00Z</time>
      </trkpt>
      <trkpt lat="45.83828" lon="2.987">
        <ele>859.2</ele>
        <time>2025-08-07T16:31:01Z</time>
      </trkpt>
      <trkpt lat="45.83828" lon="2.98709">
        <ele>858.8</ele>
        <time>2025-08-07T16:31:02Z</time>
      </trkpt>
      <trkpt lat="45.8383" lon="2.9872">
        <ele>858.6</ele>
        <time>2025-08-07T16:31:03Z</time>
      </trkpt>
      <trkpt lat="45.8383" lon="2.98731">
        <ele>858.2</ele>
        <time>2025-08-07T16:31:04Z</time>
      </trkpt>
      <trkpt lat="45.83826" lon="2.98743">
        <ele>857.8</ele>
        <time>2025-08-07T16:31:05Z</time>
      </trkpt>
      <trkpt lat="45.83824" lon="2.98751">
        <ele>857.6</ele>
        <time>2025-08-07T16:31:06Z</time>
      </trkpt>
      <trkpt lat="45.83823" lon="2.98759">
        <ele>857.4</ele>
        <time>2025-08-07T16:31:07Z</time>
      </trkpt>
      <trkpt lat="45.83825" lon="2.9877">
        <ele>857.2</ele>
        <time>2025-08-07T16:31:08Z</time>
      </trkpt>
      <trkpt lat="45.83824" lon="2.98779">
        <ele>857</ele>
        <time>2025-08-07T16:31:09Z</time>
      </trkpt>
      <trkpt lat="45.83822" lon="2.98788">
        <ele>856.8</ele>
        <time>2025-08-07T16:31:10Z</time>
      </trkpt>
      <trkpt lat="45.83823" lon="2.98797">
        <ele>856.6</ele>
        <time>2025-08-07T16:31:11Z</time>
      </trkpt>
      <trkpt lat="45.83821" lon="2.98805">
        <ele>856.4</ele>
        <time>2025-08-07T16:31:12Z</time>
      </trkpt>
      <trkpt lat="45.8382" lon="2.98813">
        <ele>856.2</ele>
        <time>2025-08-07T16:31:13Z</time>
      </trkpt>
      <trkpt lat="45.83818" lon="2.98821">
        <ele>856</ele>
        <time>2025-08-07T16:31:14Z</time>
      </trkpt>
      <trkpt lat="45.83814" lon="2.98828">
        <ele>855.8</ele>
        <time>2025-08-07T16:31:15Z</time>
      </trkpt>
      <trkpt lat="45.83812" lon="2.98835">
        <ele>855.8</ele>
        <time>2025-08-07T16:31:16Z</time>
      </trkpt>
      <trkpt lat="45.83809" lon="2.98843">
        <ele>855.6</ele>
        <time>2025-08-07T16:31:17Z</time>
      </trkpt>
      <trkpt lat="45.83807" lon="2.9885">
        <ele>855.4</ele>
        <time>2025-08-07T16:31:18Z</time>
      </trkpt>
      <trkpt lat="45.83807" lon="2.98858">
        <ele>855.4</ele>
        <time>2025-08-07T16:31:19Z</time>
      </trkpt>
      <trkpt lat="45.83805" lon="2.98867">
        <ele>855.2</ele>
        <time>2025-08-07T16:31:20Z</time>
      </trkpt>
      <trkpt lat="45.83802" lon="2.98878">
        <ele>855</ele>
        <time>2025-08-07T16:31:21Z</time>
      </trkpt>
      <trkpt lat="45.83801" lon="2.98891">
        <ele>854.8</ele>
        <time>2025-08-07T16:31:22Z</time>
      </trkpt>
      <trkpt lat="45.83801" lon="2.98901">
        <ele>854.8</ele>
        <time>2025-08-07T16:31:23Z</time>
      </trkpt>
      <trkpt lat="45.83801" lon="2.98908">
        <ele>854.6</ele>
        <time>2025-08-07T16:31:24Z</time>
      </trkpt>
      <trkpt lat="45.83804" lon="2.98912">
        <ele>854.6</ele>
        <time>2025-08-07T16:31:25Z</time>
      </trkpt>
      <trkpt lat="45.83805" lon="2.98914">
        <ele>854.6</ele>
        <time>2025-08-07T16:31:26Z</time>
      </trkpt>
      <trkpt lat="45.83805" lon="2.98914">
        <ele>854.6</ele>
        <time>2025-08-07T16:31:27Z</time>
      </trkpt>
      <trkpt lat="45.83805" lon="2.98914">
        <ele>854.6</ele>
        <time>2025-08-07T16:31:28Z</time>
      </trkpt>
      <trkpt lat="45.83805" lon="2.98914">
        <ele>854.6</ele>
        <time>2025-08-07T16:31:29Z</time>
      </trkpt>
      <trkpt lat="45.83805" lon="2.98913">
        <ele>854.6</ele>
        <time>2025-08-07T16:31:30Z</time>
      </trkpt>
      <trkpt lat="45.83805" lon="2.98912">
        <ele>854.6</ele>
        <time>2025-08-07T16:31:31Z</time>
      </trkpt>
      <trkpt lat="45.83806" lon="2.9891">
        <ele>854.6</ele>
        <time>2025-08-07T16:31:32Z</time>
      </trkpt>
      <trkpt lat="45.83806" lon="2.98909">
        <ele>854.6</ele>
        <time>2025-08-07T16:31:33Z</time>
      </trkpt>
      <trkpt lat="45.83807" lon="2.98907">
        <ele>854.6</ele>
        <time>2025-08-07T16:31:34Z</time>
      </trkpt>
      <trkpt lat="45.83807" lon="2.98905">
        <ele>854.6</ele>
        <time>2025-08-07T16:31:35Z</time>
      </trkpt>
      <trkpt lat="45.83808" lon="2.98902">
        <ele>854.6</ele>
        <time>2025-08-07T16:31:36Z</time>
      </trkpt>
      <trkpt lat="45.83808" lon="2.98899">
        <ele>854.6</ele>
        <time>2025-08-07T16:31:37Z</time>
      </trkpt>
      <trkpt lat="45.83807" lon="2.98896">
        <ele>854.8</ele>
        <time>2025-08-07T16:31:38Z</time>
      </trkpt>
      <trkpt lat="45.83806" lon="2.98895">
        <ele>854.8</ele>
        <time>2025-08-07T16:31:39Z</time>
      </trkpt>
      <trkpt lat="45.83805" lon="2.98893">
        <ele>854.8</ele>
        <time>2025-08-07T16:31:40Z</time>
      </trkpt>
      <trkpt lat="45.83803" lon="2.98892">
        <ele>855</ele>
        <time>2025-08-07T16:31:41Z</time>
      </trkpt>
      <trkpt lat="45.83802" lon="2.98892">
        <ele>855.2</ele>
        <time>2025-08-07T16:31:42Z</time>
      </trkpt>
      <trkpt lat="45.83801" lon="2.98891">
        <ele>855.2</ele>
        <time>2025-08-07T16:31:43Z</time>
      </trkpt>
      <trkpt lat="45.83798" lon="2.98891">
        <ele>855.2</ele>
        <time>2025-08-07T16:31:44Z</time>
      </trkpt>
      <trkpt lat="45.83795" lon="2.98891">
        <ele>855.2</ele>
        <time>2025-08-07T16:31:45Z</time>
      </trkpt>
      <trkpt lat="45.83793" lon="2.98891">
        <ele>855.4</ele>
        <time>2025-08-07T16:31:46Z</time>
      </trkpt>
      <trkpt lat="45.8379" lon="2.9889">
        <ele>855.4</ele>
        <time>2025-08-07T16:31:47Z</time>
      </trkpt>
      <trkpt lat="45.83787" lon="2.98888">
        <ele>855.6</ele>
        <time>2025-08-07T16:31:48Z</time>
      </trkpt>
      <trkpt lat="45.83785" lon="2.98884">
        <ele>855.8</ele>
        <time>2025-08-07T16:31:49Z</time>
      </trkpt>
      <trkpt lat="45.83783" lon="2.9888">
        <ele>856.2</ele>
        <time>2025-08-07T16:31:50Z</time>
      </trkpt>
      <trkpt lat="45.83782" lon="2.98878">
        <ele>856.4</ele>
        <time>2025-08-07T16:31:51Z</time>
      </trkpt>
      <trkpt lat="45.83782" lon="2.98877">
        <ele>856.8</ele>
        <time>2025-08-07T16:31:52Z</time>
      </trkpt>
      <trkpt lat="45.83781" lon="2.98876">
        <ele>857.2</ele>
        <time>2025-08-07T16:31:53Z</time>
      </trkpt>
      <trkpt lat="45.8378" lon="2.98874">
        <ele>857.6</ele>
        <time>2025-08-07T16:31:54Z</time>
      </trkpt>
      <trkpt lat="45.8378" lon="2.98872">
        <ele>858</ele>
        <time>2025-08-07T16:31:55Z</time>
      </trkpt>
      <trkpt lat="45.8378" lon="2.98869">
        <ele>858.4</ele>
        <time>2025-08-07T16:31:56Z</time>
      </trkpt>
      <trkpt lat="45.83779" lon="2.98867">
        <ele>858.6</ele>
        <time>2025-08-07T16:31:57Z</time>
      </trkpt>
      <trkpt lat="45.83779" lon="2.98866">
        <ele>858.8</ele>
        <time>2025-08-07T16:31:58Z</time>
      </trkpt>
      <trkpt lat="45.83779" lon="2.98867">
        <ele>859</ele>
        <time>2025-08-07T16:31:59Z</time>
      </trkpt>
      <trkpt lat="45.83778" lon="2.98867">
        <ele>859</ele>
        <time>2025-08-07T16:32:00Z</time>
      </trkpt>
      <trkpt lat="45.83778" lon="2.98867">
        <ele>859</ele>
        <time>2025-08-07T16:32:01Z</time>
      </trkpt>
      <trkpt lat="45.83778" lon="2.98867">
        <ele>859</ele>
        <time>2025-08-07T16:32:02Z</time>
      </trkpt>
      <trkpt lat="45.83778" lon="2.98867">
        <ele>859</ele>
        <time>2025-08-07T16:32:03Z</time>
      </trkpt>
      <trkpt lat="45.83778" lon="2.98867">
        <ele>859</ele>
        <time>2025-08-07T16:32:04Z</time>
      </trkpt>
      <trkpt lat="45.83778" lon="2.98867">
        <ele>859</ele>
        <time>2025-08-07T16:32:05Z</time>
      </trkpt>
      <trkpt lat="45.83787" lon="2.98877">
        <ele>858.6</ele>
        <time>2025-08-07T16:35:31Z</time>
      </trkpt>
      <trkpt lat="45.8379" lon="2.9888">
        <ele>858.6</ele>
        <time>2025-08-07T16:35:32Z</time>
      </trkpt>
      <trkpt lat="45.83794" lon="2.98882">
        <ele>858.6</ele>
        <time>2025-08-07T16:35:33Z</time>
      </trkpt>
      <trkpt lat="45.83796" lon="2.98885">
        <ele>858.6</ele>
        <time>2025-08-07T16:35:34Z</time>
      </trkpt>
      <trkpt lat="45.838" lon="2.98888">
        <ele>858.6</ele>
        <time>2025-08-07T16:35:35Z</time>
      </trkpt>
      <trkpt lat="45.83803" lon="2.9889">
        <ele>858.6</ele>
        <time>2025-08-07T16:35:36Z</time>
      </trkpt>
      <trkpt lat="45.83807" lon="2.9889">
        <ele>858.4</ele>
        <time>2025-08-07T16:35:37Z</time>
      </trkpt>
      <trkpt lat="45.8381" lon="2.98892">
        <ele>858.2</ele>
        <time>2025-08-07T16:35:38Z</time>
      </trkpt>
      <trkpt lat="45.83811" lon="2.98894">
        <ele>858.2</ele>
        <time>2025-08-07T16:35:39Z</time>
      </trkpt>
      <trkpt lat="45.83811" lon="2.98896">
        <ele>858</ele>
        <time>2025-08-07T16:35:40Z</time>
      </trkpt>
      <trkpt lat="45.8381" lon="2.98896">
        <ele>858</ele>
        <time>2025-08-07T16:35:41Z</time>
      </trkpt>
      <trkpt lat="45.83808" lon="2.98898">
        <ele>857.8</ele>
        <time>2025-08-07T16:35:42Z</time>
      </trkpt>
      <trkpt lat="45.83806" lon="2.98901">
        <ele>857.8</ele>
        <time>2025-08-07T16:35:43Z</time>
      </trkpt>
      <trkpt lat="45.83805" lon="2.98905">
        <ele>857.8</ele>
        <time>2025-08-07T16:35:44Z</time>
      </trkpt>
      <trkpt lat="45.83804" lon="2.9891">
        <ele>857.6</ele>
        <time>2025-08-07T16:35:45Z</time>
      </trkpt>
      <trkpt lat="45.83803" lon="2.98915">
        <ele>857.6</ele>
        <time>2025-08-07T16:35:46Z</time>
      </trkpt>
      <trkpt lat="45.83802" lon="2.98921">
        <ele>857.6</ele>
        <time>2025-08-07T16:35:47Z</time>
      </trkpt>
      <trkpt lat="45.83801" lon="2.98927">
        <ele>857.6</ele>
        <time>2025-08-07T16:35:48Z</time>
      </trkpt>
      <trkpt lat="45.83799" lon="2.98934">
        <ele>857.4</ele>
        <time>2025-08-07T16:35:49Z</time>
      </trkpt>
      <trkpt lat="45.83799" lon="2.98944">
        <ele>857.4</ele>
        <time>2025-08-07T16:35:50Z</time>
      </trkpt>
      <trkpt lat="45.83798" lon="2.9895">
        <ele>857.4</ele>
        <time>2025-08-07T16:35:51Z</time>
      </trkpt>
      <trkpt lat="45.83797" lon="2.98959">
        <ele>857.2</ele>
        <time>2025-08-07T16:35:52Z</time>
      </trkpt>
      <trkpt lat="45.83797" lon="2.98968">
        <ele>857.2</ele>
        <time>2025-08-07T16:35:53Z</time>
      </trkpt>
      <trkpt lat="45.83798" lon="2.98978">
        <ele>857.2</ele>
        <time>2025-08-07T16:35:54Z</time>
      </trkpt>
      <trkpt lat="45.83798" lon="2.98986">
        <ele>857</ele>
        <time>2025-08-07T16:35:55Z</time>
      </trkpt>
      <trkpt lat="45.83798" lon="2.98995">
        <ele>857</ele>
        <time>2025-08-07T16:35:56Z</time>
      </trkpt>
      <trkpt lat="45.83798" lon="2.99">
        <ele>857</ele>
        <time>2025-08-07T16:35:57Z</time>
      </trkpt>
      <trkpt lat="45.83797" lon="2.99007">
        <ele>856.8</ele>
        <time>2025-08-07T16:35:58Z</time>
      </trkpt>
      <trkpt lat="45.83795" lon="2.99015">
        <ele>856.8</ele>
        <time>2025-08-07T16:35:59Z</time>
      </trkpt>
      <trkpt lat="45.83793" lon="2.99024">
        <ele>856.6</ele>
        <time>2025-08-07T16:36:00Z</time>
      </trkpt>
      <trkpt lat="45.83792" lon="2.99027">
        <ele>856.6</ele>
        <time>2025-08-07T16:36:01Z</time>
      </trkpt>
      <trkpt lat="45.83791" lon="2.99031">
        <ele>856.4</ele>
        <time>2025-08-07T16:36:02Z</time>
      </trkpt>
      <trkpt lat="45.83791" lon="2.99036">
        <ele>856.4</ele>
        <time>2025-08-07T16:36:03Z</time>
      </trkpt>
      <trkpt lat="45.8379" lon="2.99041">
        <ele>856.2</ele>
        <time>2025-08-07T16:36:04Z</time>
      </trkpt>
      <trkpt lat="45.8379" lon="2.99047">
        <ele>856.2</ele>
        <time>2025-08-07T16:36:05Z</time>
      </trkpt>
      <trkpt lat="45.83789" lon="2.99054">
        <ele>856.2</ele>
        <time>2025-08-07T16:36:06Z</time>
      </trkpt>
      <trkpt lat="45.83788" lon="2.99061">
        <ele>856</ele>
        <time>2025-08-07T16:36:07Z</time>
      </trkpt>
      <trkpt lat="45.83784" lon="2.9907">
        <ele>856</ele>
        <time>2025-08-07T16:36:08Z</time>
      </trkpt>
      <trkpt lat="45.83783" lon="2.99079">
        <ele>855.8</ele>
        <time>2025-08-07T16:36:09Z</time>
      </trkpt>
      <trkpt lat="45.83783" lon="2.99085">
        <ele>855.8</ele>
        <time>2025-08-07T16:36:10Z</time>
      </trkpt>
      <trkpt lat="45.83783" lon="2.99093">
        <ele>855.6</ele>
        <time>2025-08-07T16:36:11Z</time>
      </trkpt>
      <trkpt lat="45.83781" lon="2.99107">
        <ele>855.6</ele>
        <time>2025-08-07T16:36:12Z</time>
      </trkpt>
      <trkpt lat="45.83779" lon="2.99118">
        <ele>855.4</ele>
        <time>2025-08-07T16:36:13Z</time>
      </trkpt>
      <trkpt lat="45.83776" lon="2.99125">
        <ele>855.4</ele>
        <time>2025-08-07T16:36:14Z</time>
      </trkpt>
      <trkpt lat="45.83772" lon="2.99137">
        <ele>855.2</ele>
        <time>2025-08-07T16:36:15Z</time>
      </trkpt>
      <trkpt lat="45.83768" lon="2.99148">
        <ele>855</ele>
        <time>2025-08-07T16:36:16Z</time>
      </trkpt>
      <trkpt lat="45.83766" lon="2.99155">
        <ele>855</ele>
        <time>2025-08-07T16:36:17Z</time>
      </trkpt>
      <trkpt lat="45.83765" lon="2.99163">
        <ele>854.8</ele>
        <time>2025-08-07T16:36:18Z</time>
      </trkpt>
      <trkpt lat="45.83765" lon="2.99169">
        <ele>854.6</ele>
        <time>2025-08-07T16:36:19Z</time>
      </trkpt>
      <trkpt lat="45.83766" lon="2.99173">
        <ele>854.6</ele>
        <time>2025-08-07T16:36:20Z</time>
      </trkpt>
      <trkpt lat="45.83768" lon="2.99178">
        <ele>854.4</ele>
        <time>2025-08-07T16:36:21Z</time>
      </trkpt>
      <trkpt lat="45.83769" lon="2.99181">
        <ele>854.4</ele>
        <time>2025-08-07T16:36:22Z</time>
      </trkpt>
      <trkpt lat="45.83769" lon="2.99183">
        <ele>854.4</ele>
        <time>2025-08-07T16:36:23Z</time>
      </trkpt>
      <trkpt lat="45.83769" lon="2.99185">
        <ele>854.2</ele>
        <time>2025-08-07T16:36:24Z</time>
      </trkpt>
      <trkpt lat="45.83768" lon="2.99186">
        <ele>854.2</ele>
        <time>2025-08-07T16:36:25Z</time>
      </trkpt>
      <trkpt lat="45.83766" lon="2.99188">
        <ele>854.2</ele>
        <time>2025-08-07T16:36:26Z</time>
      </trkpt>
      <trkpt lat="45.83764" lon="2.99191">
        <ele>854.2</ele>
        <time>2025-08-07T16:36:27Z</time>
      </trkpt>
      <trkpt lat="45.8376" lon="2.99195">
        <ele>854</ele>
        <time>2025-08-07T16:36:28Z</time>
      </trkpt>
      <trkpt lat="45.83757" lon="2.99199">
        <ele>854</ele>
        <time>2025-08-07T16:36:29Z</time>
      </trkpt>
      <trkpt lat="45.83752" lon="2.99204">
        <ele>853.8</ele>
        <time>2025-08-07T16:36:30Z</time>
      </trkpt>
      <trkpt lat="45.83748" lon="2.99211">
        <ele>853.8</ele>
        <time>2025-08-07T16:36:31Z</time>
      </trkpt>
      <trkpt lat="45.83745" lon="2.99219">
        <ele>853.8</ele>
        <time>2025-08-07T16:36:32Z</time>
      </trkpt>
      <trkpt lat="45.83743" lon="2.99225">
        <ele>853.8</ele>
        <time>2025-08-07T16:36:33Z</time>
      </trkpt>
      <trkpt lat="45.83743" lon="2.99231">
        <ele>853.6</ele>
        <time>2025-08-07T16:36:34Z</time>
      </trkpt>
      <trkpt lat="45.83741" lon="2.99238">
        <ele>853.4</ele>
        <time>2025-08-07T16:36:35Z</time>
      </trkpt>
      <trkpt lat="45.83741" lon="2.99245">
        <ele>853.2</ele>
        <time>2025-08-07T16:36:36Z</time>
      </trkpt>
      <trkpt lat="45.83743" lon="2.99254">
        <ele>853</ele>
        <time>2025-08-07T16:36:37Z</time>
      </trkpt>
      <trkpt lat="45.83745" lon="2.99263">
        <ele>852.8</ele>
        <time>2025-08-07T16:36:38Z</time>
      </trkpt>
      <trkpt lat="45.83748" lon="2.99273">
        <ele>852.6</ele>
        <time>2025-08-07T16:36:39Z</time>
      </trkpt>
      <trkpt lat="45.83751" lon="2.99281">
        <ele>852.4</ele>
        <time>2025-08-07T16:36:40Z</time>
      </trkpt>
      <trkpt lat="45.83754" lon="2.99288">
        <ele>852.2</ele>
        <time>2025-08-07T16:36:41Z</time>
      </trkpt>
      <trkpt lat="45.83757" lon="2.99296">
        <ele>852</ele>
        <time>2025-08-07T16:36:42Z</time>
      </trkpt>
      <trkpt lat="45.8376" lon="2.99304">
        <ele>851.6</ele>
        <time>2025-08-07T16:36:43Z</time>
      </trkpt>
      <trkpt lat="45.83762" lon="2.99313">
        <ele>851.2</ele>
        <time>2025-08-07T16:36:44Z</time>
      </trkpt>
      <trkpt lat="45.83763" lon="2.99325">
        <ele>851</ele>
        <time>2025-08-07T16:36:45Z</time>
      </trkpt>
      <trkpt lat="45.83765" lon="2.99337">
        <ele>850.4</ele>
        <time>2025-08-07T16:36:46Z</time>
      </trkpt>
      <trkpt lat="45.83766" lon="2.99349">
        <ele>850</ele>
        <time>2025-08-07T16:36:47Z</time>
      </trkpt>
      <trkpt lat="45.83767" lon="2.9936">
        <ele>849.8</ele>
        <time>2025-08-07T16:36:48Z</time>
      </trkpt>
      <trkpt lat="45.83768" lon="2.99371">
        <ele>849.4</ele>
        <time>2025-08-07T16:36:49Z</time>
      </trkpt>
      <trkpt lat="45.83768" lon="2.99381">
        <ele>849</ele>
        <time>2025-08-07T16:36:50Z</time>
      </trkpt>
      <trkpt lat="45.83768" lon="2.9939">
        <ele>848.6</ele>
        <time>2025-08-07T16:36:51Z</time>
      </trkpt>
      <trkpt lat="45.83769" lon="2.994">
        <ele>848.2</ele>
        <time>2025-08-07T16:36:52Z</time>
      </trkpt>
      <trkpt lat="45.83768" lon="2.99415">
        <ele>847.6</ele>
        <time>2025-08-07T16:36:53Z</time>
      </trkpt>
      <trkpt lat="45.83768" lon="2.99426">
        <ele>847.2</ele>
        <time>2025-08-07T16:36:54Z</time>
      </trkpt>
      <trkpt lat="45.83767" lon="2.99439">
        <ele>846.8</ele>
        <time>2025-08-07T16:36:55Z</time>
      </trkpt>
      <trkpt lat="45.83768" lon="2.99452">
        <ele>846.4</ele>
        <time>2025-08-07T16:36:56Z</time>
      </trkpt>
      <trkpt lat="45.83769" lon="2.99462">
        <ele>846</ele>
        <time>2025-08-07T16:36:57Z</time>
      </trkpt>
      <trkpt lat="45.83768" lon="2.99473">
        <ele>845.6</ele>
        <time>2025-08-07T16:36:58Z</time>
      </trkpt>
      <trkpt lat="45.83767" lon="2.99485">
        <ele>845.4</ele>
        <time>2025-08-07T16:36:59Z</time>
      </trkpt>
      <trkpt lat="45.83767" lon="2.99496">
        <ele>845.2</ele>
        <time>2025-08-07T16:37:00Z</time>
      </trkpt>
      <trkpt lat="45.83766" lon="2.99506">
        <ele>845</ele>
        <time>2025-08-07T16:37:01Z</time>
      </trkpt>
      <trkpt lat="45.83764" lon="2.99515">
        <ele>844.8</ele>
        <time>2025-08-07T16:37:02Z</time>
      </trkpt>
      <trkpt lat="45.83762" lon="2.99525">
        <ele>844.4</ele>
        <time>2025-08-07T16:37:03Z</time>
      </trkpt>
      <trkpt lat="45.83764" lon="2.99533">
        <ele>844.2</ele>
        <time>2025-08-07T16:37:04Z</time>
      </trkpt>
      <trkpt lat="45.83767" lon="2.99546">
        <ele>843.8</ele>
        <time>2025-08-07T16:37:05Z</time>
      </trkpt>
      <trkpt lat="45.83768" lon="2.99562">
        <ele>843.4</ele>
        <time>2025-08-07T16:37:06Z</time>
      </trkpt>
      <trkpt lat="45.8377" lon="2.99576">
        <ele>843</ele>
        <time>2025-08-07T16:37:07Z</time>
      </trkpt>
      <trkpt lat="45.83773" lon="2.99587">
        <ele>842.6</ele>
        <time>2025-08-07T16:37:08Z</time>
      </trkpt>
      <trkpt lat="45.83775" lon="2.99596">
        <ele>842.2</ele>
        <time>2025-08-07T16:37:09Z</time>
      </trkpt>
      <trkpt lat="45.83776" lon="2.99608">
        <ele>841.8</ele>
        <time>2025-08-07T16:37:10Z</time>
      </trkpt>
      <trkpt lat="45.83777" lon="2.99619">
        <ele>841.4</ele>
        <time>2025-08-07T16:37:11Z</time>
      </trkpt>
      <trkpt lat="45.83779" lon="2.99629">
        <ele>841</ele>
        <time>2025-08-07T16:37:12Z</time>
      </trkpt>
      <trkpt lat="45.83782" lon="2.99638">
        <ele>840.6</ele>
        <time>2025-08-07T16:37:13Z</time>
      </trkpt>
      <trkpt lat="45.83787" lon="2.99648">
        <ele>840.2</ele>
        <time>2025-08-07T16:37:14Z</time>
      </trkpt>
      <trkpt lat="45.83794" lon="2.99658">
        <ele>839.6</ele>
        <time>2025-08-07T16:37:15Z</time>
      </trkpt>
      <trkpt lat="45.83798" lon="2.99668">
        <ele>839.2</ele>
        <time>2025-08-07T16:37:16Z</time>
      </trkpt>
      <trkpt lat="45.83803" lon="2.99677">
        <ele>838.8</ele>
        <time>2025-08-07T16:37:17Z</time>
      </trkpt>
      <trkpt lat="45.83807" lon="2.99686">
        <ele>838.2</ele>
        <time>2025-08-07T16:37:18Z</time>
      </trkpt>
      <trkpt lat="45.83811" lon="2.99696">
        <ele>837.6</ele>
        <time>2025-08-07T16:37:19Z</time>
      </trkpt>
      <trkpt lat="45.83815" lon="2.99708">
        <ele>837</ele>
        <time>2025-08-07T16:37:20Z</time>
      </trkpt>
      <trkpt lat="45.83818" lon="2.99718">
        <ele>836.4</ele>
        <time>2025-08-07T16:37:21Z</time>
      </trkpt>
      <trkpt lat="45.83823" lon="2.9973">
        <ele>836</ele>
        <time>2025-08-07T16:37:22Z</time>
      </trkpt>
      <trkpt lat="45.83826" lon="2.99738">
        <ele>835.6</ele>
        <time>2025-08-07T16:37:23Z</time>
      </trkpt>
      <trkpt lat="45.8383" lon="2.99748">
        <ele>835</ele>
        <time>2025-08-07T16:37:24Z</time>
      </trkpt>
      <trkpt lat="45.83834" lon="2.99757">
        <ele>834.4</ele>
        <time>2025-08-07T16:37:25Z</time>
      </trkpt>
      <trkpt lat="45.83838" lon="2.99765">
        <ele>834</ele>
        <time>2025-08-07T16:37:26Z</time>
      </trkpt>
      <trkpt lat="45.83841" lon="2.99772">
        <ele>833.6</ele>
        <time>2025-08-07T16:37:27Z</time>
      </trkpt>
      <trkpt lat="45.83844" lon="2.99776">
        <ele>833.4</ele>
        <time>2025-08-07T16:37:28Z</time>
      </trkpt>
      <trkpt lat="45.83845" lon="2.99779">
        <ele>833.2</ele>
        <time>2025-08-07T16:37:29Z</time>
      </trkpt>
      <trkpt lat="45.83849" lon="2.99782">
        <ele>832.8</ele>
        <time>2025-08-07T16:37:30Z</time>
      </trkpt>
      <trkpt lat="45.83853" lon="2.99784">
        <ele>832.6</ele>
        <time>2025-08-07T16:37:31Z</time>
      </trkpt>
      <trkpt lat="45.83857" lon="2.99785">
        <ele>832.2</ele>
        <time>2025-08-07T16:37:32Z</time>
      </trkpt>
      <trkpt lat="45.83861" lon="2.99785">
        <ele>832</ele>
        <time>2025-08-07T16:37:33Z</time>
      </trkpt>
      <trkpt lat="45.83866" lon="2.99783">
        <ele>831.6</ele>
        <time>2025-08-07T16:37:34Z</time>
      </trkpt>
      <trkpt lat="45.83871" lon="2.99782">
        <ele>831.2</ele>
        <time>2025-08-07T16:37:35Z</time>
      </trkpt>
      <trkpt lat="45.83876" lon="2.99781">
        <ele>831</ele>
        <time>2025-08-07T16:37:36Z</time>
      </trkpt>
      <trkpt lat="45.83882" lon="2.99783">
        <ele>830.6</ele>
        <time>2025-08-07T16:37:37Z</time>
      </trkpt>
      <trkpt lat="45.83889" lon="2.99787">
        <ele>830.2</ele>
        <time>2025-08-07T16:37:38Z</time>
      </trkpt>
      <trkpt lat="45.83896" lon="2.99792">
        <ele>829.8</ele>
        <time>2025-08-07T16:37:39Z</time>
      </trkpt>
      <trkpt lat="45.83903" lon="2.99797">
        <ele>829.6</ele>
        <time>2025-08-07T16:37:40Z</time>
      </trkpt>
      <trkpt lat="45.83911" lon="2.99803">
        <ele>829.2</ele>
        <time>2025-08-07T16:37:41Z</time>
      </trkpt>
      <trkpt lat="45.83918" lon="2.99808">
        <ele>829</ele>
        <time>2025-08-07T16:37:42Z</time>
      </trkpt>
      <trkpt lat="45.83924" lon="2.99813">
        <ele>828.8</ele>
        <time>2025-08-07T16:37:43Z</time>
      </trkpt>
      <trkpt lat="45.83931" lon="2.99818">
        <ele>828.6</ele>
        <time>2025-08-07T16:37:44Z</time>
      </trkpt>
      <trkpt lat="45.83937" lon="2.99823">
        <ele>828.4</ele>
        <time>2025-08-07T16:37:45Z</time>
      </trkpt>
      <trkpt lat="45.83944" lon="2.99827">
        <ele>828.2</ele>
        <time>2025-08-07T16:37:46Z</time>
      </trkpt>
      <trkpt lat="45.8395" lon="2.99832">
        <ele>828</ele>
        <time>2025-08-07T16:37:47Z</time>
      </trkpt>
      <trkpt lat="45.83956" lon="2.99836">
        <ele>827.6</ele>
        <time>2025-08-07T16:37:48Z</time>
      </trkpt>
      <trkpt lat="45.83961" lon="2.9984">
        <ele>827.4</ele>
        <time>2025-08-07T16:37:49Z</time>
      </trkpt>
      <trkpt lat="45.83968" lon="2.99845">
        <ele>827.2</ele>
        <time>2025-08-07T16:37:50Z</time>
      </trkpt>
      <trkpt lat="45.83974" lon="2.99849">
        <ele>827</ele>
        <time>2025-08-07T16:37:51Z</time>
      </trkpt>
      <trkpt lat="45.8398" lon="2.99854">
        <ele>826.8</ele>
        <time>2025-08-07T16:37:52Z</time>
      </trkpt>
      <trkpt lat="45.83985" lon="2.99858">
        <ele>826.4</ele>
        <time>2025-08-07T16:37:53Z</time>
      </trkpt>
      <trkpt lat="45.83992" lon="2.99862">
        <ele>826.2</ele>
        <time>2025-08-07T16:37:54Z</time>
      </trkpt>
      <trkpt lat="45.83997" lon="2.99867">
        <ele>826</ele>
        <time>2025-08-07T16:37:55Z</time>
      </trkpt>
      <trkpt lat="45.84003" lon="2.99871">
        <ele>825.8</ele>
        <time>2025-08-07T16:37:56Z</time>
      </trkpt>
      <trkpt lat="45.84009" lon="2.99876">
        <ele>825.4</ele>
        <time>2025-08-07T16:37:57Z</time>
      </trkpt>
      <trkpt lat="45.84014" lon="2.9988">
        <ele>825.2</ele>
        <time>2025-08-07T16:37:58Z</time>
      </trkpt>
      <trkpt lat="45.8402" lon="2.99884">
        <ele>825</ele>
        <time>2025-08-07T16:37:59Z</time>
      </trkpt>
      <trkpt lat="45.84026" lon="2.99888">
        <ele>825</ele>
        <time>2025-08-07T16:38:00Z</time>
      </trkpt>
      <trkpt lat="45.84031" lon="2.99893">
        <ele>824.8</ele>
        <time>2025-08-07T16:38:01Z</time>
      </trkpt>
      <trkpt lat="45.84037" lon="2.99897">
        <ele>824.6</ele>
        <time>2025-08-07T16:38:02Z</time>
      </trkpt>
      <trkpt lat="45.84042" lon="2.99901">
        <ele>824.4</ele>
        <time>2025-08-07T16:38:03Z</time>
      </trkpt>
      <trkpt lat="45.84047" lon="2.99905">
        <ele>824.2</ele>
        <time>2025-08-07T16:38:04Z</time>
      </trkpt>
      <trkpt lat="45.84053" lon="2.9991">
        <ele>824</ele>
        <time>2025-08-07T16:38:05Z</time>
      </trkpt>
      <trkpt lat="45.84058" lon="2.99915">
        <ele>823.8</ele>
        <time>2025-08-07T16:38:06Z</time>
      </trkpt>
      <trkpt lat="45.84063" lon="2.9992">
        <ele>823.6</ele>
        <time>2025-08-07T16:38:07Z</time>
      </trkpt>
      <trkpt lat="45.84067" lon="2.99925">
        <ele>823.4</ele>
        <time>2025-08-07T16:38:08Z</time>
      </trkpt>
      <trkpt lat="45.84071" lon="2.9993">
        <ele>823</ele>
        <time>2025-08-07T16:38:09Z</time>
      </trkpt>
      <trkpt lat="45.84075" lon="2.99936">
        <ele>822.6</ele>
        <time>2025-08-07T16:38:10Z</time>
      </trkpt>
      <trkpt lat="45.8408" lon="2.99942">
        <ele>822.4</ele>
        <time>2025-08-07T16:38:11Z</time>
      </trkpt>
      <trkpt lat="45.84084" lon="2.99947">
        <ele>822</ele>
        <time>2025-08-07T16:38:12Z</time>
      </trkpt>
      <trkpt lat="45.84089" lon="2.99952">
        <ele>821.8</ele>
        <time>2025-08-07T16:38:13Z</time>
      </trkpt>
      <trkpt lat="45.84093" lon="2.99957">
        <ele>821.6</ele>
        <time>2025-08-07T16:38:14Z</time>
      </trkpt>
      <trkpt lat="45.84097" lon="2.99962">
        <ele>821.2</ele>
        <time>2025-08-07T16:38:15Z</time>
      </trkpt>
      <trkpt lat="45.84102" lon="2.99968">
        <ele>821</ele>
        <time>2025-08-07T16:38:16Z</time>
      </trkpt>
      <trkpt lat="45.84107" lon="2.99973">
        <ele>820.8</ele>
        <time>2025-08-07T16:38:17Z</time>
      </trkpt>
      <trkpt lat="45.84112" lon="2.99978">
        <ele>820.8</ele>
        <time>2025-08-07T16:38:18Z</time>
      </trkpt>
      <trkpt lat="45.84117" lon="2.99982">
        <ele>820.6</ele>
        <time>2025-08-07T16:38:19Z</time>
      </trkpt>
      <trkpt lat="45.84122" lon="2.99986">
        <ele>820.2</ele>
        <time>2025-08-07T16:38:20Z</time>
      </trkpt>
      <trkpt lat="45.84128" lon="2.99991">
        <ele>820</ele>
        <time>2025-08-07T16:38:21Z</time>
      </trkpt>
      <trkpt lat="45.84134" lon="2.99996">
        <ele>819.8</ele>
        <time>2025-08-07T16:38:22Z</time>
      </trkpt>
      <trkpt lat="45.8414" lon="3.00001">
        <ele>819.6</ele>
        <time>2025-08-07T16:38:23Z</time>
      </trkpt>
      <trkpt lat="45.84146" lon="3.00007">
        <ele>819.4</ele>
        <time>2025-08-07T16:38:24Z</time>
      </trkpt>
      <trkpt lat="45.84152" lon="3.00012">
        <ele>819</ele>
        <time>2025-08-07T16:38:25Z</time>
      </trkpt>
      <trkpt lat="45.84158" lon="3.00019">
        <ele>818.8</ele>
        <time>2025-08-07T16:38:26Z</time>
      </trkpt>
      <trkpt lat="45.84164" lon="3.00026">
        <ele>818.4</ele>
        <time>2025-08-07T16:38:27Z</time>
      </trkpt>
      <trkpt lat="45.84169" lon="3.00031">
        <ele>818</ele>
        <time>2025-08-07T16:38:28Z</time>
      </trkpt>
      <trkpt lat="45.84173" lon="3.00037">
        <ele>817.8</ele>
        <time>2025-08-07T16:38:29Z</time>
      </trkpt>
      <trkpt lat="45.84178" lon="3.00043">
        <ele>817.4</ele>
        <time>2025-08-07T16:38:30Z</time>
      </trkpt>
      <trkpt lat="45.84183" lon="3.00051">
        <ele>817</ele>
        <time>2025-08-07T16:38:31Z</time>
      </trkpt>
      <trkpt lat="45.84189" lon="3.00059">
        <ele>816.6</ele>
        <time>2025-08-07T16:38:32Z</time>
      </trkpt>
      <trkpt lat="45.84194" lon="3.00066">
        <ele>816.2</ele>
        <time>2025-08-07T16:38:33Z</time>
      </trkpt>
      <trkpt lat="45.84199" lon="3.00072">
        <ele>815.8</ele>
        <time>2025-08-07T16:38:34Z</time>
      </trkpt>
      <trkpt lat="45.84205" lon="3.00079">
        <ele>815.4</ele>
        <time>2025-08-07T16:38:35Z</time>
      </trkpt>
      <trkpt lat="45.8421" lon="3.00085">
        <ele>814.8</ele>
        <time>2025-08-07T16:38:36Z</time>
      </trkpt>
      <trkpt lat="45.84216" lon="3.00091">
        <ele>814.4</ele>
        <time>2025-08-07T16:38:37Z</time>
      </trkpt>
      <trkpt lat="45.84223" lon="3.00096">
        <ele>813.8</ele>
        <time>2025-08-07T16:38:38Z</time>
      </trkpt>
      <trkpt lat="45.8423" lon="3.00102">
        <ele>813.2</ele>
        <time>2025-08-07T16:38:39Z</time>
      </trkpt>
      <trkpt lat="45.84236" lon="3.00108">
        <ele>812.6</ele>
        <time>2025-08-07T16:38:40Z</time>
      </trkpt>
      <trkpt lat="45.84244" lon="3.00112">
        <ele>812</ele>
        <time>2025-08-07T16:38:41Z</time>
      </trkpt>
      <trkpt lat="45.8425" lon="3.00117">
        <ele>811.4</ele>
        <time>2025-08-07T16:38:42Z</time>
      </trkpt>
      <trkpt lat="45.84258" lon="3.00123">
        <ele>810.8</ele>
        <time>2025-08-07T16:38:43Z</time>
      </trkpt>
      <trkpt lat="45.84265" lon="3.00128">
        <ele>810.2</ele>
        <time>2025-08-07T16:38:44Z</time>
      </trkpt>
      <trkpt lat="45.84272" lon="3.00134">
        <ele>809.4</ele>
        <time>2025-08-07T16:38:45Z</time>
      </trkpt>
      <trkpt lat="45.84279" lon="3.00139">
        <ele>809</ele>
        <time>2025-08-07T16:38:46Z</time>
      </trkpt>
      <trkpt lat="45.84286" lon="3.00145">
        <ele>808.4</ele>
        <time>2025-08-07T16:38:47Z</time>
      </trkpt>
      <trkpt lat="45.84292" lon="3.00151">
        <ele>808</ele>
        <time>2025-08-07T16:38:48Z</time>
      </trkpt>
      <trkpt lat="45.84298" lon="3.00158">
        <ele>807.6</ele>
        <time>2025-08-07T16:38:49Z</time>
      </trkpt>
      <trkpt lat="45.84304" lon="3.00164">
        <ele>807.4</ele>
        <time>2025-08-07T16:38:50Z</time>
      </trkpt>
      <trkpt lat="45.84309" lon="3.00171">
        <ele>807</ele>
        <time>2025-08-07T16:38:51Z</time>
      </trkpt>
      <trkpt lat="45.84313" lon="3.00179">
        <ele>806.8</ele>
        <time>2025-08-07T16:38:52Z</time>
      </trkpt>
      <trkpt lat="45.84318" lon="3.00187">
        <ele>806.4</ele>
        <time>2025-08-07T16:38:53Z</time>
      </trkpt>
      <trkpt lat="45.84322" lon="3.00195">
        <ele>806.2</ele>
        <time>2025-08-07T16:38:54Z</time>
      </trkpt>
      <trkpt lat="45.84326" lon="3.00202">
        <ele>805.8</ele>
        <time>2025-08-07T16:38:55Z</time>
      </trkpt>
      <trkpt lat="45.84331" lon="3.00209">
        <ele>805.6</ele>
        <time>2025-08-07T16:38:56Z</time>
      </trkpt>
      <trkpt lat="45.84335" lon="3.00215">
        <ele>805.2</ele>
        <time>2025-08-07T16:38:57Z</time>
      </trkpt>
      <trkpt lat="45.84339" lon="3.00222">
        <ele>805</ele>
        <time>2025-08-07T16:38:58Z</time>
      </trkpt>
      <trkpt lat="45.84344" lon="3.00228">
        <ele>804.6</ele>
        <time>2025-08-07T16:38:59Z</time>
      </trkpt>
      <trkpt lat="45.84347" lon="3.00233">
        <ele>804.4</ele>
        <time>2025-08-07T16:39:00Z</time>
      </trkpt>
      <trkpt lat="45.84352" lon="3.00239">
        <ele>804</ele>
        <time>2025-08-07T16:39:01Z</time>
      </trkpt>
      <trkpt lat="45.84357" lon="3.00246">
        <ele>803.6</ele>
        <time>2025-08-07T16:39:02Z</time>
      </trkpt>
      <trkpt lat="45.84359" lon="3.00252">
        <ele>803.2</ele>
        <time>2025-08-07T16:39:03Z</time>
      </trkpt>
      <trkpt lat="45.84359" lon="3.00259">
        <ele>803</ele>
        <time>2025-08-07T16:39:04Z</time>
      </trkpt>
      <trkpt lat="45.84358" lon="3.00264">
        <ele>802.8</ele>
        <time>2025-08-07T16:39:05Z</time>
      </trkpt>
      <trkpt lat="45.84355" lon="3.00268">
        <ele>802.6</ele>
        <time>2025-08-07T16:39:06Z</time>
      </trkpt>
      <trkpt lat="45.84351" lon="3.00272">
        <ele>802.4</ele>
        <time>2025-08-07T16:39:07Z</time>
      </trkpt>
      <trkpt lat="45.84347" lon="3.00277">
        <ele>802.4</ele>
        <time>2025-08-07T16:39:08Z</time>
      </trkpt>
      <trkpt lat="45.84342" lon="3.00282">
        <ele>802.2</ele>
        <time>2025-08-07T16:39:09Z</time>
      </trkpt>
      <trkpt lat="45.84338" lon="3.00288">
        <ele>802.2</ele>
        <time>2025-08-07T16:39:10Z</time>
      </trkpt>
      <trkpt lat="45.84333" lon="3.00294">
        <ele>802</ele>
        <time>2025-08-07T16:39:11Z</time>
      </trkpt>
      <trkpt lat="45.84328" lon="3.003">
        <ele>802</ele>
        <time>2025-08-07T16:39:12Z</time>
      </trkpt>
      <trkpt lat="45.84323" lon="3.00306">
        <ele>802</ele>
        <time>2025-08-07T16:39:13Z</time>
      </trkpt>
      <trkpt lat="45.84318" lon="3.00312">
        <ele>801.8</ele>
        <time>2025-08-07T16:39:14Z</time>
      </trkpt>
      <trkpt lat="45.84313" lon="3.00319">
        <ele>801.6</ele>
        <time>2025-08-07T16:39:15Z</time>
      </trkpt>
      <trkpt lat="45.84309" lon="3.00326">
        <ele>801.4</ele>
        <time>2025-08-07T16:39:16Z</time>
      </trkpt>
      <trkpt lat="45.84304" lon="3.00333">
        <ele>801.4</ele>
        <time>2025-08-07T16:39:17Z</time>
      </trkpt>
      <trkpt lat="45.84298" lon="3.0034">
        <ele>801.4</ele>
        <time>2025-08-07T16:39:18Z</time>
      </trkpt>
      <trkpt lat="45.84293" lon="3.00346">
        <ele>801.2</ele>
        <time>2025-08-07T16:39:19Z</time>
      </trkpt>
      <trkpt lat="45.84288" lon="3.00352">
        <ele>801.2</ele>
        <time>2025-08-07T16:39:20Z</time>
      </trkpt>
      <trkpt lat="45.84283" lon="3.00359">
        <ele>801.2</ele>
        <time>2025-08-07T16:39:21Z</time>
      </trkpt>
      <trkpt lat="45.84278" lon="3.00365">
        <ele>801.2</ele>
        <time>2025-08-07T16:39:22Z</time>
      </trkpt>
      <trkpt lat="45.84273" lon="3.00371">
        <ele>801.2</ele>
        <time>2025-08-07T16:39:23Z</time>
      </trkpt>
      <trkpt lat="45.84269" lon="3.00377">
        <ele>801</ele>
        <time>2025-08-07T16:39:24Z</time>
      </trkpt>
      <trkpt lat="45.84265" lon="3.00384">
        <ele>801</ele>
        <time>2025-08-07T16:39:25Z</time>
      </trkpt>
      <trkpt lat="45.8426" lon="3.0039">
        <ele>801</ele>
        <time>2025-08-07T16:39:26Z</time>
      </trkpt>
      <trkpt lat="45.84255" lon="3.00396">
        <ele>801</ele>
        <time>2025-08-07T16:39:27Z</time>
      </trkpt>
      <trkpt lat="45.84251" lon="3.00402">
        <ele>801</ele>
        <time>2025-08-07T16:39:28Z</time>
      </trkpt>
      <trkpt lat="45.84246" lon="3.00407">
        <ele>801</ele>
        <time>2025-08-07T16:39:29Z</time>
      </trkpt>
      <trkpt lat="45.84242" lon="3.00412">
        <ele>801</ele>
        <time>2025-08-07T16:39:30Z</time>
      </trkpt>
      <trkpt lat="45.84237" lon="3.00417">
        <ele>801</ele>
        <time>2025-08-07T16:39:31Z</time>
      </trkpt>
      <trkpt lat="45.84232" lon="3.00421">
        <ele>800.8</ele>
        <time>2025-08-07T16:39:32Z</time>
      </trkpt>
      <trkpt lat="45.84229" lon="3.00425">
        <ele>800.8</ele>
        <time>2025-08-07T16:39:33Z</time>
      </trkpt>
      <trkpt lat="45.84225" lon="3.00428">
        <ele>800.8</ele>
        <time>2025-08-07T16:39:34Z</time>
      </trkpt>
      <trkpt lat="45.84223" lon="3.0043">
        <ele>800.6</ele>
        <time>2025-08-07T16:39:35Z</time>
      </trkpt>
      <trkpt lat="45.84222" lon="3.00432">
        <ele>800.6</ele>
        <time>2025-08-07T16:39:36Z</time>
      </trkpt>
      <trkpt lat="45.84221" lon="3.00434">
        <ele>800.6</ele>
        <time>2025-08-07T16:39:37Z</time>
      </trkpt>
      <trkpt lat="45.84219" lon="3.00435">
        <ele>800.6</ele>
        <time>2025-08-07T16:39:38Z</time>
      </trkpt>
      <trkpt lat="45.84218" lon="3.00437">
        <ele>800.6</ele>
        <time>2025-08-07T16:39:39Z</time>
      </trkpt>
      <trkpt lat="45.84216" lon="3.00439">
        <ele>800.6</ele>
        <time>2025-08-07T16:39:40Z</time>
      </trkpt>
      <trkpt lat="45.84214" lon="3.00443">
        <ele>800.6</ele>
        <time>2025-08-07T16:39:41Z</time>
      </trkpt>
      <trkpt lat="45.84211" lon="3.00447">
        <ele>800.4</ele>
        <time>2025-08-07T16:39:42Z</time>
      </trkpt>
      <trkpt lat="45.84208" lon="3.00452">
        <ele>800.4</ele>
        <time>2025-08-07T16:39:43Z</time>
      </trkpt>
      <trkpt lat="45.84204" lon="3.00457">
        <ele>800.2</ele>
        <time>2025-08-07T16:39:44Z</time>
      </trkpt>
      <trkpt lat="45.842" lon="3.00461">
        <ele>800.2</ele>
        <time>2025-08-07T16:39:45Z</time>
      </trkpt>
      <trkpt lat="45.84197" lon="3.00466">
        <ele>800</ele>
        <time>2025-08-07T16:39:46Z</time>
      </trkpt>
      <trkpt lat="45.84192" lon="3.00472">
        <ele>800</ele>
        <time>2025-08-07T16:39:47Z</time>
      </trkpt>
      <trkpt lat="45.84188" lon="3.00479">
        <ele>800</ele>
        <time>2025-08-07T16:39:48Z</time>
      </trkpt>
      <trkpt lat="45.84184" lon="3.00486">
        <ele>799.8</ele>
        <time>2025-08-07T16:39:49Z</time>
      </trkpt>
      <trkpt lat="45.84181" lon="3.00493">
        <ele>799.8</ele>
        <time>2025-08-07T16:39:50Z</time>
      </trkpt>
      <trkpt lat="45.84178" lon="3.005">
        <ele>799.6</ele>
        <time>2025-08-07T16:39:51Z</time>
      </trkpt>
      <trkpt lat="45.84175" lon="3.00507">
        <ele>799.4</ele>
        <time>2025-08-07T16:39:52Z</time>
      </trkpt>
      <trkpt lat="45.84171" lon="3.00515">
        <ele>799.4</ele>
        <time>2025-08-07T16:39:53Z</time>
      </trkpt>
      <trkpt lat="45.84168" lon="3.00524">
        <ele>799.2</ele>
        <time>2025-08-07T16:39:54Z</time>
      </trkpt>
      <trkpt lat="45.84165" lon="3.00532">
        <ele>799</ele>
        <time>2025-08-07T16:39:55Z</time>
      </trkpt>
      <trkpt lat="45.84162" lon="3.0054">
        <ele>798.8</ele>
        <time>2025-08-07T16:39:56Z</time>
      </trkpt>
      <trkpt lat="45.84159" lon="3.0055">
        <ele>798.6</ele>
        <time>2025-08-07T16:39:57Z</time>
      </trkpt>
      <trkpt lat="45.84156" lon="3.0056">
        <ele>798.4</ele>
        <time>2025-08-07T16:39:58Z</time>
      </trkpt>
      <trkpt lat="45.84154" lon="3.00569">
        <ele>798.2</ele>
        <time>2025-08-07T16:39:59Z</time>
      </trkpt>
      <trkpt lat="45.84152" lon="3.00578">
        <ele>798.2</ele>
        <time>2025-08-07T16:40:00Z</time>
      </trkpt>
      <trkpt lat="45.84149" lon="3.00586">
        <ele>798</ele>
        <time>2025-08-07T16:40:01Z</time>
      </trkpt>
      <trkpt lat="45.84147" lon="3.00594">
        <ele>798</ele>
        <time>2025-08-07T16:40:02Z</time>
      </trkpt>
      <trkpt lat="45.84147" lon="3.00601">
        <ele>797.8</ele>
        <time>2025-08-07T16:40:03Z</time>
      </trkpt>
      <trkpt lat="45.84147" lon="3.00607">
        <ele>797.6</ele>
        <time>2025-08-07T16:40:04Z</time>
      </trkpt>
      <trkpt lat="45.84148" lon="3.00611">
        <ele>797.4</ele>
        <time>2025-08-07T16:40:05Z</time>
      </trkpt>
      <trkpt lat="45.84149" lon="3.00615">
        <ele>797.2</ele>
        <time>2025-08-07T16:40:06Z</time>
      </trkpt>
      <trkpt lat="45.84151" lon="3.00617">
        <ele>797.2</ele>
        <time>2025-08-07T16:40:07Z</time>
      </trkpt>
      <trkpt lat="45.84154" lon="3.0062">
        <ele>797</ele>
        <time>2025-08-07T16:40:08Z</time>
      </trkpt>
      <trkpt lat="45.84157" lon="3.00622">
        <ele>797</ele>
        <time>2025-08-07T16:40:09Z</time>
      </trkpt>
      <trkpt lat="45.84161" lon="3.00622">
        <ele>797</ele>
        <time>2025-08-07T16:40:10Z</time>
      </trkpt>
      <trkpt lat="45.84164" lon="3.00624">
        <ele>796.8</ele>
        <time>2025-08-07T16:40:11Z</time>
      </trkpt>
      <trkpt lat="45.84169" lon="3.00625">
        <ele>796.8</ele>
        <time>2025-08-07T16:40:12Z</time>
      </trkpt>
      <trkpt lat="45.84173" lon="3.00626">
        <ele>796.8</ele>
        <time>2025-08-07T16:40:13Z</time>
      </trkpt>
      <trkpt lat="45.84178" lon="3.00627">
        <ele>796.8</ele>
        <time>2025-08-07T16:40:14Z</time>
      </trkpt>
      <trkpt lat="45.84183" lon="3.00627">
        <ele>796.8</ele>
        <time>2025-08-07T16:40:15Z</time>
      </trkpt>
      <trkpt lat="45.84187" lon="3.00627">
        <ele>796.6</ele>
        <time>2025-08-07T16:40:16Z</time>
      </trkpt>
      <trkpt lat="45.84194" lon="3.00628">
        <ele>796.6</ele>
        <time>2025-08-07T16:40:17Z</time>
      </trkpt>
      <trkpt lat="45.84199" lon="3.00627">
        <ele>796.4</ele>
        <time>2025-08-07T16:40:18Z</time>
      </trkpt>
      <trkpt lat="45.84202" lon="3.00625">
        <ele>796.4</ele>
        <time>2025-08-07T16:40:19Z</time>
      </trkpt>
      <trkpt lat="45.84205" lon="3.00622">
        <ele>796.2</ele>
        <time>2025-08-07T16:40:20Z</time>
      </trkpt>
      <trkpt lat="45.84208" lon="3.00619">
        <ele>796.2</ele>
        <time>2025-08-07T16:40:21Z</time>
      </trkpt>
      <trkpt lat="45.84212" lon="3.00617">
        <ele>796</ele>
        <time>2025-08-07T16:40:22Z</time>
      </trkpt>
      <trkpt lat="45.84217" lon="3.00614">
        <ele>795.8</ele>
        <time>2025-08-07T16:40:23Z</time>
      </trkpt>
      <trkpt lat="45.84219" lon="3.00611">
        <ele>795.6</ele>
        <time>2025-08-07T16:40:24Z</time>
      </trkpt>
      <trkpt lat="45.84219" lon="3.00611">
        <ele>795.6</ele>
        <time>2025-08-07T16:40:25Z</time>
      </trkpt>
      <trkpt lat="45.8422" lon="3.0061">
        <ele>795.4</ele>
        <time>2025-08-07T16:40:26Z</time>
      </trkpt>
      <trkpt lat="45.84221" lon="3.00608">
        <ele>795.4</ele>
        <time>2025-08-07T16:40:27Z</time>
      </trkpt>
      <trkpt lat="45.84221" lon="3.00608">
        <ele>795.2</ele>
        <time>2025-08-07T16:40:28Z</time>
      </trkpt>
      <trkpt lat="45.84221" lon="3.00607">
        <ele>795.2</ele>
        <time>2025-08-07T16:40:29Z</time>
      </trkpt>
      <trkpt lat="45.84221" lon="3.00607">
        <ele>795</ele>
        <time>2025-08-07T16:40:30Z</time>
      </trkpt>
      <trkpt lat="45.84221" lon="3.00607">
        <ele>795</ele>
        <time>2025-08-07T16:40:31Z</time>
      </trkpt>
      <trkpt lat="45.84221" lon="3.00608">
        <ele>794.8</ele>
        <time>2025-08-07T16:40:32Z</time>
      </trkpt>
      <trkpt lat="45.84221" lon="3.00608">
        <ele>794.8</ele>
        <time>2025-08-07T16:40:33Z</time>
      </trkpt>
      <trkpt lat="45.84221" lon="3.00608">
        <ele>794.8</ele>
        <time>2025-08-07T16:40:34Z</time>
      </trkpt>
      <trkpt lat="45.84221" lon="3.00607">
        <ele>794.8</ele>
        <time>2025-08-07T16:40:35Z</time>
      </trkpt>
      <trkpt lat="45.84221" lon="3.00607">
        <ele>794.8</ele>
        <time>2025-08-07T16:40:36Z</time>
      </trkpt>
      <trkpt lat="45.8422" lon="3.00607">
        <ele>794.8</ele>
        <time>2025-08-07T16:40:37Z</time>
      </trkpt>
      <trkpt lat="45.84219" lon="3.00607">
        <ele>794.8</ele>
        <time>2025-08-07T16:40:38Z</time>
      </trkpt>
      <trkpt lat="45.84219" lon="3.00608">
        <ele>794.8</ele>
        <time>2025-08-07T16:40:39Z</time>
      </trkpt>
      <trkpt lat="45.84218" lon="3.00608">
        <ele>794.8</ele>
        <time>2025-08-07T16:40:40Z</time>
      </trkpt>
      <trkpt lat="45.84217" lon="3.00609">
        <ele>794.8</ele>
        <time>2025-08-07T16:40:41Z</time>
      </trkpt>
      <trkpt lat="45.84216" lon="3.00609">
        <ele>794.8</ele>
        <time>2025-08-07T16:40:42Z</time>
      </trkpt>
      <trkpt lat="45.84214" lon="3.0061">
        <ele>794.8</ele>
        <time>2025-08-07T16:40:43Z</time>
      </trkpt>
      <trkpt lat="45.84213" lon="3.0061">
        <ele>794.8</ele>
        <time>2025-08-07T16:40:44Z</time>
      </trkpt>
      <trkpt lat="45.84211" lon="3.00611">
        <ele>794.8</ele>
        <time>2025-08-07T16:40:45Z</time>
      </trkpt>
      <trkpt lat="45.84209" lon="3.00612">
        <ele>795</ele>
        <time>2025-08-07T16:40:46Z</time>
      </trkpt>
      <trkpt lat="45.84207" lon="3.00614">
        <ele>795</ele>
        <time>2025-08-07T16:40:47Z</time>
      </trkpt>
      <trkpt lat="45.84204" lon="3.00616">
        <ele>795</ele>
        <time>2025-08-07T16:40:48Z</time>
      </trkpt>
      <trkpt lat="45.84201" lon="3.00618">
        <ele>795</ele>
        <time>2025-08-07T16:40:49Z</time>
      </trkpt>
      <trkpt lat="45.84197" lon="3.00621">
        <ele>795</ele>
        <time>2025-08-07T16:40:50Z</time>
      </trkpt>
      <trkpt lat="45.84194" lon="3.00623">
        <ele>795.2</ele>
        <time>2025-08-07T16:40:51Z</time>
      </trkpt>
      <trkpt lat="45.84192" lon="3.00626">
        <ele>795.2</ele>
        <time>2025-08-07T16:40:52Z</time>
      </trkpt>
      <trkpt lat="45.84189" lon="3.00627">
        <ele>795.2</ele>
        <time>2025-08-07T16:40:53Z</time>
      </trkpt>
      <trkpt lat="45.84186" lon="3.00628">
        <ele>795.4</ele>
        <time>2025-08-07T16:40:54Z</time>
      </trkpt>
      <trkpt lat="45.84182" lon="3.00628">
        <ele>795.4</ele>
        <time>2025-08-07T16:40:55Z</time>
      </trkpt>
      <trkpt lat="45.84177" lon="3.00627">
        <ele>795.4</ele>
        <time>2025-08-07T16:40:56Z</time>
      </trkpt>
      <trkpt lat="45.84173" lon="3.00627">
        <ele>795.4</ele>
        <time>2025-08-07T16:40:57Z</time>
      </trkpt>
      <trkpt lat="45.84169" lon="3.00627">
        <ele>795.4</ele>
        <time>2025-08-07T16:40:58Z</time>
      </trkpt>
      <trkpt lat="45.84162" lon="3.00625">
        <ele>795.4</ele>
        <time>2025-08-07T16:40:59Z</time>
      </trkpt>
      <trkpt lat="45.84157" lon="3.00626">
        <ele>795.4</ele>
        <time>2025-08-07T16:41:00Z</time>
      </trkpt>
      <trkpt lat="45.84153" lon="3.00629">
        <ele>795.4</ele>
        <time>2025-08-07T16:41:01Z</time>
      </trkpt>
      <trkpt lat="45.84151" lon="3.00633">
        <ele>795.4</ele>
        <time>2025-08-07T16:41:02Z</time>
      </trkpt>
      <trkpt lat="45.84148" lon="3.00637">
        <ele>795.4</ele>
        <time>2025-08-07T16:41:03Z</time>
      </trkpt>
      <trkpt lat="45.84146" lon="3.00641">
        <ele>795.4</ele>
        <time>2025-08-07T16:41:04Z</time>
      </trkpt>
      <trkpt lat="45.84144" lon="3.00644">
        <ele>795.4</ele>
        <time>2025-08-07T16:41:05Z</time>
      </trkpt>
      <trkpt lat="45.84142" lon="3.00647">
        <ele>795.4</ele>
        <time>2025-08-07T16:41:06Z</time>
      </trkpt>
      <trkpt lat="45.8414" lon="3.00651">
        <ele>795.4</ele>
        <time>2025-08-07T16:41:07Z</time>
      </trkpt>
      <trkpt lat="45.8414" lon="3.00654">
        <ele>795.2</ele>
        <time>2025-08-07T16:41:08Z</time>
      </trkpt>
      <trkpt lat="45.84141" lon="3.00658">
        <ele>795</ele>
        <time>2025-08-07T16:41:09Z</time>
      </trkpt>
      <trkpt lat="45.84143" lon="3.00662">
        <ele>794.6</ele>
        <time>2025-08-07T16:41:10Z</time>
      </trkpt>
      <trkpt lat="45.84145" lon="3.00666">
        <ele>794.4</ele>
        <time>2025-08-07T16:41:11Z</time>
      </trkpt>
      <trkpt lat="45.84149" lon="3.00671">
        <ele>794</ele>
        <time>2025-08-07T16:41:12Z</time>
      </trkpt>
      <trkpt lat="45.84152" lon="3.00675">
        <ele>793.8</ele>
        <time>2025-08-07T16:41:13Z</time>
      </trkpt>
      <trkpt lat="45.84156" lon="3.00679">
        <ele>793.6</ele>
        <time>2025-08-07T16:41:14Z</time>
      </trkpt>
      <trkpt lat="45.84159" lon="3.00683">
        <ele>793.4</ele>
        <time>2025-08-07T16:41:15Z</time>
      </trkpt>
      <trkpt lat="45.84164" lon="3.00689">
        <ele>793.2</ele>
        <time>2025-08-07T16:41:16Z</time>
      </trkpt>
      <trkpt lat="45.84168" lon="3.00693">
        <ele>793</ele>
        <time>2025-08-07T16:41:17Z</time>
      </trkpt>
      <trkpt lat="45.84173" lon="3.00698">
        <ele>793</ele>
        <time>2025-08-07T16:41:18Z</time>
      </trkpt>
      <trkpt lat="45.84178" lon="3.00702">
        <ele>792.8</ele>
        <time>2025-08-07T16:41:19Z</time>
      </trkpt>
      <trkpt lat="45.84183" lon="3.00703">
        <ele>792.8</ele>
        <time>2025-08-07T16:41:20Z</time>
      </trkpt>
      <trkpt lat="45.84189" lon="3.00703">
        <ele>792.8</ele>
        <time>2025-08-07T16:41:21Z</time>
      </trkpt>
      <trkpt lat="45.84194" lon="3.00703">
        <ele>792.8</ele>
        <time>2025-08-07T16:41:22Z</time>
      </trkpt>
      <trkpt lat="45.84201" lon="3.00705">
        <ele>792.6</ele>
        <time>2025-08-07T16:41:23Z</time>
      </trkpt>
      <trkpt lat="45.84207" lon="3.00708">
        <ele>792.6</ele>
        <time>2025-08-07T16:41:24Z</time>
      </trkpt>
      <trkpt lat="45.84215" lon="3.00712">
        <ele>792.4</ele>
        <time>2025-08-07T16:41:25Z</time>
      </trkpt>
      <trkpt lat="45.84222" lon="3.00715">
        <ele>792.2</ele>
        <time>2025-08-07T16:41:26Z</time>
      </trkpt>
      <trkpt lat="45.84228" lon="3.00718">
        <ele>792</ele>
        <time>2025-08-07T16:41:27Z</time>
      </trkpt>
      <trkpt lat="45.84233" lon="3.0072">
        <ele>791.8</ele>
        <time>2025-08-07T16:41:28Z</time>
      </trkpt>
      <trkpt lat="45.84239" lon="3.00723">
        <ele>791.6</ele>
        <time>2025-08-07T16:41:29Z</time>
      </trkpt>
      <trkpt lat="45.84247" lon="3.00726">
        <ele>791.4</ele>
        <time>2025-08-07T16:41:30Z</time>
      </trkpt>
      <trkpt lat="45.84252" lon="3.00727">
        <ele>791.2</ele>
        <time>2025-08-07T16:41:31Z</time>
      </trkpt>
      <trkpt lat="45.84259" lon="3.00729">
        <ele>790.8</ele>
        <time>2025-08-07T16:41:32Z</time>
      </trkpt>
      <trkpt lat="45.84262" lon="3.00729">
        <ele>790.6</ele>
        <time>2025-08-07T16:41:33Z</time>
      </trkpt>
      <trkpt lat="45.84263" lon="3.0073">
        <ele>790.4</ele>
        <time>2025-08-07T16:41:34Z</time>
      </trkpt>
      <trkpt lat="45.84267" lon="3.0073">
        <ele>789.6</ele>
        <time>2025-08-07T16:41:51Z</time>
      </trkpt>
      <trkpt lat="45.84268" lon="3.0073">
        <ele>789.6</ele>
        <time>2025-08-07T16:41:52Z</time>
      </trkpt>
      <trkpt lat="45.8427" lon="3.00732">
        <ele>789.8</ele>
        <time>2025-08-07T16:41:53Z</time>
      </trkpt>
      <trkpt lat="45.84272" lon="3.00733">
        <ele>789.8</ele>
        <time>2025-08-07T16:41:54Z</time>
      </trkpt>
      <trkpt lat="45.84273" lon="3.00736">
        <ele>790</ele>
        <time>2025-08-07T16:41:55Z</time>
      </trkpt>
      <trkpt lat="45.84277" lon="3.00739">
        <ele>790.2</ele>
        <time>2025-08-07T16:41:56Z</time>
      </trkpt>
      <trkpt lat="45.8428" lon="3.00742">
        <ele>790.4</ele>
        <time>2025-08-07T16:41:57Z</time>
      </trkpt>
      <trkpt lat="45.84283" lon="3.00744">
        <ele>790.4</ele>
        <time>2025-08-07T16:41:58Z</time>
      </trkpt>
      <trkpt lat="45.84287" lon="3.00747">
        <ele>790.4</ele>
        <time>2025-08-07T16:41:59Z</time>
      </trkpt>
      <trkpt lat="45.84291" lon="3.0075">
        <ele>790.4</ele>
        <time>2025-08-07T16:42:00Z</time>
      </trkpt>
      <trkpt lat="45.84294" lon="3.00754">
        <ele>790.2</ele>
        <time>2025-08-07T16:42:01Z</time>
      </trkpt>
      <trkpt lat="45.84298" lon="3.00758">
        <ele>790</ele>
        <time>2025-08-07T16:42:02Z</time>
      </trkpt>
      <trkpt lat="45.84303" lon="3.00763">
        <ele>789.6</ele>
        <time>2025-08-07T16:42:03Z</time>
      </trkpt>
      <trkpt lat="45.84308" lon="3.00771">
        <ele>789.4</ele>
        <time>2025-08-07T16:42:04Z</time>
      </trkpt>
      <trkpt lat="45.84312" lon="3.00778">
        <ele>789</ele>
        <time>2025-08-07T16:42:05Z</time>
      </trkpt>
      <trkpt lat="45.84317" lon="3.00784">
        <ele>788.6</ele>
        <time>2025-08-07T16:42:06Z</time>
      </trkpt>
      <trkpt lat="45.8432" lon="3.00791">
        <ele>788</ele>
        <time>2025-08-07T16:42:07Z</time>
      </trkpt>
      <trkpt lat="45.84324" lon="3.00799">
        <ele>787.6</ele>
        <time>2025-08-07T16:42:08Z</time>
      </trkpt>
      <trkpt lat="45.84328" lon="3.00806">
        <ele>787.2</ele>
        <time>2025-08-07T16:42:09Z</time>
      </trkpt>
      <trkpt lat="45.84332" lon="3.00815">
        <ele>786.8</ele>
        <time>2025-08-07T16:42:10Z</time>
      </trkpt>
      <trkpt lat="45.84336" lon="3.00823">
        <ele>786.2</ele>
        <time>2025-08-07T16:42:11Z</time>
      </trkpt>
      <trkpt lat="45.84338" lon="3.00831">
        <ele>785.6</ele>
        <time>2025-08-07T16:42:12Z</time>
      </trkpt>
      <trkpt lat="45.84339" lon="3.00838">
        <ele>785</ele>
        <time>2025-08-07T16:42:13Z</time>
      </trkpt>
      <trkpt lat="45.84341" lon="3.00845">
        <ele>784.2</ele>
        <time>2025-08-07T16:42:14Z</time>
      </trkpt>
      <trkpt lat="45.84342" lon="3.00852">
        <ele>783.6</ele>
        <time>2025-08-07T16:42:15Z</time>
      </trkpt>
      <trkpt lat="45.84342" lon="3.00859">
        <ele>782.8</ele>
        <time>2025-08-07T16:42:16Z</time>
      </trkpt>
      <trkpt lat="45.84342" lon="3.00866">
        <ele>782</ele>
        <time>2025-08-07T16:42:17Z</time>
      </trkpt>
      <trkpt lat="45.84342" lon="3.00875">
        <ele>781.2</ele>
        <time>2025-08-07T16:42:18Z</time>
      </trkpt>
      <trkpt lat="45.84343" lon="3.00883">
        <ele>780.4</ele>
        <time>2025-08-07T16:42:19Z</time>
      </trkpt>
      <trkpt lat="45.84345" lon="3.00892">
        <ele>779.6</ele>
        <time>2025-08-07T16:42:20Z</time>
      </trkpt>
      <trkpt lat="45.84347" lon="3.00901">
        <ele>779</ele>
        <time>2025-08-07T16:42:21Z</time>
      </trkpt>
      <trkpt lat="45.8435" lon="3.0091">
        <ele>778.4</ele>
        <time>2025-08-07T16:42:22Z</time>
      </trkpt>
      <trkpt lat="45.84352" lon="3.00919">
        <ele>777.8</ele>
        <time>2025-08-07T16:42:23Z</time>
      </trkpt>
      <trkpt lat="45.84354" lon="3.00928">
        <ele>777</ele>
        <time>2025-08-07T16:42:24Z</time>
      </trkpt>
      <trkpt lat="45.84355" lon="3.00939">
        <ele>776.6</ele>
        <time>2025-08-07T16:42:25Z</time>
      </trkpt>
      <trkpt lat="45.84355" lon="3.00948">
        <ele>776</ele>
        <time>2025-08-07T16:42:26Z</time>
      </trkpt>
      <trkpt lat="45.84353" lon="3.00961">
        <ele>775.4</ele>
        <time>2025-08-07T16:42:27Z</time>
      </trkpt>
      <trkpt lat="45.8435" lon="3.0097">
        <ele>775</ele>
        <time>2025-08-07T16:42:28Z</time>
      </trkpt>
      <trkpt lat="45.8435" lon="3.0098">
        <ele>774.6</ele>
        <time>2025-08-07T16:42:29Z</time>
      </trkpt>
      <trkpt lat="45.84352" lon="3.0099">
        <ele>774.2</ele>
        <time>2025-08-07T16:42:30Z</time>
      </trkpt>
      <trkpt lat="45.84352" lon="3.00998">
        <ele>774</ele>
        <time>2025-08-07T16:42:31Z</time>
      </trkpt>
      <trkpt lat="45.84354" lon="3.01007">
        <ele>773.8</ele>
        <time>2025-08-07T16:42:32Z</time>
      </trkpt>
      <trkpt lat="45.84354" lon="3.01017">
        <ele>773.6</ele>
        <time>2025-08-07T16:42:33Z</time>
      </trkpt>
      <trkpt lat="45.84353" lon="3.01026">
        <ele>773.4</ele>
        <time>2025-08-07T16:42:34Z</time>
      </trkpt>
      <trkpt lat="45.84352" lon="3.01032">
        <ele>773.2</ele>
        <time>2025-08-07T16:42:35Z</time>
      </trkpt>
      <trkpt lat="45.84351" lon="3.01041">
        <ele>773</ele>
        <time>2025-08-07T16:42:36Z</time>
      </trkpt>
      <trkpt lat="45.84351" lon="3.01047">
        <ele>772.8</ele>
        <time>2025-08-07T16:42:37Z</time>
      </trkpt>
      <trkpt lat="45.8435" lon="3.0105">
        <ele>772.4</ele>
        <time>2025-08-07T16:42:38Z</time>
      </trkpt>
      <trkpt lat="45.84349" lon="3.01053">
        <ele>772.2</ele>
        <time>2025-08-07T16:42:39Z</time>
      </trkpt>
      <trkpt lat="45.84352" lon="3.01058">
        <ele>771.8</ele>
        <time>2025-08-07T16:42:40Z</time>
      </trkpt>
      <trkpt lat="45.84352" lon="3.01064">
        <ele>771.4</ele>
        <time>2025-08-07T16:42:41Z</time>
      </trkpt>
      <trkpt lat="45.84353" lon="3.01071">
        <ele>771.2</ele>
        <time>2025-08-07T16:42:42Z</time>
      </trkpt>
      <trkpt lat="45.84352" lon="3.01079">
        <ele>770.8</ele>
        <time>2025-08-07T16:42:43Z</time>
      </trkpt>
      <trkpt lat="45.8435" lon="3.01088">
        <ele>770.6</ele>
        <time>2025-08-07T16:42:44Z</time>
      </trkpt>
      <trkpt lat="45.84349" lon="3.01099">
        <ele>770.2</ele>
        <time>2025-08-07T16:42:45Z</time>
      </trkpt>
      <trkpt lat="45.84346" lon="3.01113">
        <ele>769.8</ele>
        <time>2025-08-07T16:42:46Z</time>
      </trkpt>
      <trkpt lat="45.84346" lon="3.0113">
        <ele>769.4</ele>
        <time>2025-08-07T16:42:47Z</time>
      </trkpt>
      <trkpt lat="45.84346" lon="3.01146">
        <ele>769</ele>
        <time>2025-08-07T16:42:48Z</time>
      </trkpt>
      <trkpt lat="45.84346" lon="3.01155">
        <ele>768.6</ele>
        <time>2025-08-07T16:42:49Z</time>
      </trkpt>
      <trkpt lat="45.84346" lon="3.01161">
        <ele>768.2</ele>
        <time>2025-08-07T16:42:50Z</time>
      </trkpt>
      <trkpt lat="45.84345" lon="3.01169">
        <ele>767.8</ele>
        <time>2025-08-07T16:42:51Z</time>
      </trkpt>
      <trkpt lat="45.84346" lon="3.01178">
        <ele>767.4</ele>
        <time>2025-08-07T16:42:52Z</time>
      </trkpt>
      <trkpt lat="45.84347" lon="3.01183">
        <ele>767</ele>
        <time>2025-08-07T16:42:53Z</time>
      </trkpt>
      <trkpt lat="45.84347" lon="3.01185">
        <ele>766.4</ele>
        <time>2025-08-07T16:42:54Z</time>
      </trkpt>
      <trkpt lat="45.84346" lon="3.01185">
        <ele>766</ele>
        <time>2025-08-07T16:42:55Z</time>
      </trkpt>
      <trkpt lat="45.84346" lon="3.01188">
        <ele>765.4</ele>
        <time>2025-08-07T16:42:56Z</time>
      </trkpt>
      <trkpt lat="45.84344" lon="3.01193">
        <ele>765</ele>
        <time>2025-08-07T16:42:57Z</time>
      </trkpt>
      <trkpt lat="45.84343" lon="3.01197">
        <ele>764.6</ele>
        <time>2025-08-07T16:42:58Z</time>
      </trkpt>
      <trkpt lat="45.84343" lon="3.01202">
        <ele>764.2</ele>
        <time>2025-08-07T16:42:59Z</time>
      </trkpt>
      <trkpt lat="45.84343" lon="3.01206">
        <ele>763.8</ele>
        <time>2025-08-07T16:43:00Z</time>
      </trkpt>
      <trkpt lat="45.84343" lon="3.01212">
        <ele>763.4</ele>
        <time>2025-08-07T16:43:01Z</time>
      </trkpt>
      <trkpt lat="45.84342" lon="3.01217">
        <ele>763.2</ele>
        <time>2025-08-07T16:43:02Z</time>
      </trkpt>
      <trkpt lat="45.84342" lon="3.01223">
        <ele>762.8</ele>
        <time>2025-08-07T16:43:03Z</time>
      </trkpt>
      <trkpt lat="45.84342" lon="3.01235">
        <ele>762.4</ele>
        <time>2025-08-07T16:43:04Z</time>
      </trkpt>
      <trkpt lat="45.84342" lon="3.01244">
        <ele>762</ele>
        <time>2025-08-07T16:43:05Z</time>
      </trkpt>
      <trkpt lat="45.84343" lon="3.01254">
        <ele>761.6</ele>
        <time>2025-08-07T16:43:06Z</time>
      </trkpt>
      <trkpt lat="45.84344" lon="3.01263">
        <ele>761.4</ele>
        <time>2025-08-07T16:43:07Z</time>
      </trkpt>
      <trkpt lat="45.84344" lon="3.0127">
        <ele>761</ele>
        <time>2025-08-07T16:43:08Z</time>
      </trkpt>
      <trkpt lat="45.84344" lon="3.01275">
        <ele>760.8</ele>
        <time>2025-08-07T16:43:09Z</time>
      </trkpt>
      <trkpt lat="45.84345" lon="3.01282">
        <ele>760.4</ele>
        <time>2025-08-07T16:43:10Z</time>
      </trkpt>
      <trkpt lat="45.84345" lon="3.01296">
        <ele>760.2</ele>
        <time>2025-08-07T16:43:11Z</time>
      </trkpt>
      <trkpt lat="45.84344" lon="3.0131">
        <ele>760</ele>
        <time>2025-08-07T16:43:12Z</time>
      </trkpt>
      <trkpt lat="45.84344" lon="3.0132">
        <ele>759.6</ele>
        <time>2025-08-07T16:43:13Z</time>
      </trkpt>
      <trkpt lat="45.84345" lon="3.0133">
        <ele>759.2</ele>
        <time>2025-08-07T16:43:14Z</time>
      </trkpt>
      <trkpt lat="45.84346" lon="3.01341">
        <ele>758.8</ele>
        <time>2025-08-07T16:43:15Z</time>
      </trkpt>
      <trkpt lat="45.84347" lon="3.0135">
        <ele>758.4</ele>
        <time>2025-08-07T16:43:16Z</time>
      </trkpt>
      <trkpt lat="45.84347" lon="3.01358">
        <ele>758</ele>
        <time>2025-08-07T16:43:17Z</time>
      </trkpt>
      <trkpt lat="45.84346" lon="3.01366">
        <ele>757.4</ele>
        <time>2025-08-07T16:43:18Z</time>
      </trkpt>
      <trkpt lat="45.84346" lon="3.01376">
        <ele>756.8</ele>
        <time>2025-08-07T16:43:19Z</time>
      </trkpt>
      <trkpt lat="45.84346" lon="3.01385">
        <ele>756.4</ele>
        <time>2025-08-07T16:43:20Z</time>
      </trkpt>
      <trkpt lat="45.84345" lon="3.01392">
        <ele>756</ele>
        <time>2025-08-07T16:43:21Z</time>
      </trkpt>
      <trkpt lat="45.84342" lon="3.01401">
        <ele>755.6</ele>
        <time>2025-08-07T16:43:22Z</time>
      </trkpt>
      <trkpt lat="45.8434" lon="3.01408">
        <ele>755</ele>
        <time>2025-08-07T16:43:23Z</time>
      </trkpt>
      <trkpt lat="45.84339" lon="3.01414">
        <ele>754.6</ele>
        <time>2025-08-07T16:43:24Z</time>
      </trkpt>
      <trkpt lat="45.84338" lon="3.0142">
        <ele>754</ele>
        <time>2025-08-07T16:43:25Z</time>
      </trkpt>
      <trkpt lat="45.84337" lon="3.01432">
        <ele>753.4</ele>
        <time>2025-08-07T16:43:26Z</time>
      </trkpt>
      <trkpt lat="45.84335" lon="3.01445">
        <ele>752.8</ele>
        <time>2025-08-07T16:43:27Z</time>
      </trkpt>
      <trkpt lat="45.84333" lon="3.01454">
        <ele>752.2</ele>
        <time>2025-08-07T16:43:28Z</time>
      </trkpt>
      <trkpt lat="45.84332" lon="3.01464">
        <ele>751.6</ele>
        <time>2025-08-07T16:43:29Z</time>
      </trkpt>
      <trkpt lat="45.8433" lon="3.01475">
        <ele>751.2</ele>
        <time>2025-08-07T16:43:30Z</time>
      </trkpt>
      <trkpt lat="45.84326" lon="3.01486">
        <ele>750.6</ele>
        <time>2025-08-07T16:43:31Z</time>
      </trkpt>
      <trkpt lat="45.84323" lon="3.01498">
        <ele>750</ele>
        <time>2025-08-07T16:43:32Z</time>
      </trkpt>
      <trkpt lat="45.84322" lon="3.0151">
        <ele>749.4</ele>
        <time>2025-08-07T16:43:33Z</time>
      </trkpt>
      <trkpt lat="45.8432" lon="3.01521">
        <ele>749</ele>
        <time>2025-08-07T16:43:34Z</time>
      </trkpt>
      <trkpt lat="45.84319" lon="3.0153">
        <ele>748.4</ele>
        <time>2025-08-07T16:43:35Z</time>
      </trkpt>
      <trkpt lat="45.84318" lon="3.01539">
        <ele>748</ele>
        <time>2025-08-07T16:43:36Z</time>
      </trkpt>
      <trkpt lat="45.84317" lon="3.0155">
        <ele>747.6</ele>
        <time>2025-08-07T16:43:37Z</time>
      </trkpt>
      <trkpt lat="45.84316" lon="3.01564">
        <ele>747.2</ele>
        <time>2025-08-07T16:43:38Z</time>
      </trkpt>
      <trkpt lat="45.84315" lon="3.01573">
        <ele>746.8</ele>
        <time>2025-08-07T16:43:39Z</time>
      </trkpt>
      <trkpt lat="45.84314" lon="3.01583">
        <ele>746.4</ele>
        <time>2025-08-07T16:43:40Z</time>
      </trkpt>
      <trkpt lat="45.84313" lon="3.01591">
        <ele>746</ele>
        <time>2025-08-07T16:43:41Z</time>
      </trkpt>
      <trkpt lat="45.84314" lon="3.016">
        <ele>745.6</ele>
        <time>2025-08-07T16:43:42Z</time>
      </trkpt>
      <trkpt lat="45.84313" lon="3.01608">
        <ele>745.4</ele>
        <time>2025-08-07T16:43:43Z</time>
      </trkpt>
      <trkpt lat="45.84312" lon="3.01616">
        <ele>745.2</ele>
        <time>2025-08-07T16:43:44Z</time>
      </trkpt>
      <trkpt lat="45.84311" lon="3.01624">
        <ele>745</ele>
        <time>2025-08-07T16:43:45Z</time>
      </trkpt>
      <trkpt lat="45.84308" lon="3.01631">
        <ele>744.8</ele>
        <time>2025-08-07T16:43:46Z</time>
      </trkpt>
      <trkpt lat="45.84307" lon="3.01641">
        <ele>744.4</ele>
        <time>2025-08-07T16:43:47Z</time>
      </trkpt>
      <trkpt lat="45.84307" lon="3.01652">
        <ele>744</ele>
        <time>2025-08-07T16:43:48Z</time>
      </trkpt>
      <trkpt lat="45.84306" lon="3.01667">
        <ele>743.8</ele>
        <time>2025-08-07T16:43:49Z</time>
      </trkpt>
      <trkpt lat="45.84307" lon="3.01674">
        <ele>743.4</ele>
        <time>2025-08-07T16:43:50Z</time>
      </trkpt>
      <trkpt lat="45.84307" lon="3.01682">
        <ele>743</ele>
        <time>2025-08-07T16:43:51Z</time>
      </trkpt>
      <trkpt lat="45.84307" lon="3.01693">
        <ele>742.8</ele>
        <time>2025-08-07T16:43:52Z</time>
      </trkpt>
      <trkpt lat="45.84307" lon="3.01697">
        <ele>742.4</ele>
        <time>2025-08-07T16:43:53Z</time>
      </trkpt>
      <trkpt lat="45.84307" lon="3.01701">
        <ele>742</ele>
        <time>2025-08-07T16:43:54Z</time>
      </trkpt>
      <trkpt lat="45.84307" lon="3.01705">
        <ele>741.6</ele>
        <time>2025-08-07T16:43:55Z</time>
      </trkpt>
      <trkpt lat="45.8431" lon="3.0171">
        <ele>741.2</ele>
        <time>2025-08-07T16:43:56Z</time>
      </trkpt>
      <trkpt lat="45.84313" lon="3.01717">
        <ele>741</ele>
        <time>2025-08-07T16:43:57Z</time>
      </trkpt>
      <trkpt lat="45.84317" lon="3.01722">
        <ele>740.8</ele>
        <time>2025-08-07T16:43:58Z</time>
      </trkpt>
      <trkpt lat="45.84321" lon="3.01723">
        <ele>740.4</ele>
        <time>2025-08-07T16:43:59Z</time>
      </trkpt>
      <trkpt lat="45.84326" lon="3.01723">
        <ele>740.4</ele>
        <time>2025-08-07T16:44:00Z</time>
      </trkpt>
      <trkpt lat="45.84331" lon="3.01722">
        <ele>740.2</ele>
        <time>2025-08-07T16:44:01Z</time>
      </trkpt>
      <trkpt lat="45.84335" lon="3.01719">
        <ele>740.2</ele>
        <time>2025-08-07T16:44:02Z</time>
      </trkpt>
      <trkpt lat="45.84338" lon="3.01716">
        <ele>740</ele>
        <time>2025-08-07T16:44:03Z</time>
      </trkpt>
      <trkpt lat="45.84342" lon="3.01713">
        <ele>739.8</ele>
        <time>2025-08-07T16:44:04Z</time>
      </trkpt>
      <trkpt lat="45.84346" lon="3.0171">
        <ele>739.6</ele>
        <time>2025-08-07T16:44:05Z</time>
      </trkpt>
      <trkpt lat="45.8435" lon="3.01706">
        <ele>739</ele>
        <time>2025-08-07T16:44:06Z</time>
      </trkpt>
      <trkpt lat="45.84354" lon="3.01702">
        <ele>738.6</ele>
        <time>2025-08-07T16:44:07Z</time>
      </trkpt>
      <trkpt lat="45.84359" lon="3.01698">
        <ele>737.8</ele>
        <time>2025-08-07T16:44:08Z</time>
      </trkpt>
      <trkpt lat="45.84363" lon="3.01693">
        <ele>737.2</ele>
        <time>2025-08-07T16:44:09Z</time>
      </trkpt>
      <trkpt lat="45.84367" lon="3.01687">
        <ele>736.2</ele>
        <time>2025-08-07T16:44:10Z</time>
      </trkpt>
      <trkpt lat="45.84372" lon="3.0168">
        <ele>735.4</ele>
        <time>2025-08-07T16:44:11Z</time>
      </trkpt>
      <trkpt lat="45.84377" lon="3.01672">
        <ele>734.2</ele>
        <time>2025-08-07T16:44:12Z</time>
      </trkpt>
      <trkpt lat="45.84382" lon="3.01663">
        <ele>733</ele>
        <time>2025-08-07T16:44:13Z</time>
      </trkpt>
      <trkpt lat="45.84387" lon="3.01654">
        <ele>731.8</ele>
        <time>2025-08-07T16:44:14Z</time>
      </trkpt>
      <trkpt lat="45.84392" lon="3.01645">
        <ele>730.8</ele>
        <time>2025-08-07T16:44:15Z</time>
      </trkpt>
      <trkpt lat="45.84398" lon="3.01635">
        <ele>730</ele>
        <time>2025-08-07T16:44:16Z</time>
      </trkpt>
      <trkpt lat="45.84404" lon="3.01624">
        <ele>729</ele>
        <time>2025-08-07T16:44:17Z</time>
      </trkpt>
      <trkpt lat="45.84408" lon="3.01614">
        <ele>728.4</ele>
        <time>2025-08-07T16:44:18Z</time>
      </trkpt>
      <trkpt lat="45.84413" lon="3.01603">
        <ele>727.8</ele>
        <time>2025-08-07T16:44:19Z</time>
      </trkpt>
      <trkpt lat="45.84419" lon="3.01594">
        <ele>727.4</ele>
        <time>2025-08-07T16:44:20Z</time>
      </trkpt>
      <trkpt lat="45.84426" lon="3.01587">
        <ele>727.2</ele>
        <time>2025-08-07T16:44:21Z</time>
      </trkpt>
      <trkpt lat="45.84432" lon="3.01581">
        <ele>727.2</ele>
        <time>2025-08-07T16:44:22Z</time>
      </trkpt>
      <trkpt lat="45.84437" lon="3.01576">
        <ele>727.4</ele>
        <time>2025-08-07T16:44:23Z</time>
      </trkpt>
      <trkpt lat="45.84441" lon="3.01571">
        <ele>727.4</ele>
        <time>2025-08-07T16:44:24Z</time>
      </trkpt>
      <trkpt lat="45.84444" lon="3.01567">
        <ele>727.6</ele>
        <time>2025-08-07T16:44:25Z</time>
      </trkpt>
      <trkpt lat="45.84447" lon="3.01563">
        <ele>727.8</ele>
        <time>2025-08-07T16:44:26Z</time>
      </trkpt>
      <trkpt lat="45.8445" lon="3.01559">
        <ele>728</ele>
        <time>2025-08-07T16:44:27Z</time>
      </trkpt>
      <trkpt lat="45.84454" lon="3.01555">
        <ele>728.2</ele>
        <time>2025-08-07T16:44:28Z</time>
      </trkpt>
      <trkpt lat="45.84457" lon="3.0155">
        <ele>728.2</ele>
        <time>2025-08-07T16:44:29Z</time>
      </trkpt>
      <trkpt lat="45.84461" lon="3.01546">
        <ele>728.4</ele>
        <time>2025-08-07T16:44:30Z</time>
      </trkpt>
      <trkpt lat="45.84464" lon="3.01542">
        <ele>728.4</ele>
        <time>2025-08-07T16:44:31Z</time>
      </trkpt>
      <trkpt lat="45.84466" lon="3.0154">
        <ele>728.4</ele>
        <time>2025-08-07T16:44:32Z</time>
      </trkpt>
      <trkpt lat="45.84468" lon="3.01539">
        <ele>728.6</ele>
        <time>2025-08-07T16:44:33Z</time>
      </trkpt>
      <trkpt lat="45.84471" lon="3.01539">
        <ele>728.6</ele>
        <time>2025-08-07T16:44:34Z</time>
      </trkpt>
      <trkpt lat="45.84473" lon="3.0154">
        <ele>728.6</ele>
        <time>2025-08-07T16:44:35Z</time>
      </trkpt>
      <trkpt lat="45.84475" lon="3.01541">
        <ele>728.6</ele>
        <time>2025-08-07T16:44:36Z</time>
      </trkpt>
      <trkpt lat="45.84475" lon="3.01543">
        <ele>728.6</ele>
        <time>2025-08-07T16:44:37Z</time>
      </trkpt>
      <trkpt lat="45.84476" lon="3.01546">
        <ele>728.6</ele>
        <time>2025-08-07T16:44:38Z</time>
      </trkpt>
      <trkpt lat="45.84478" lon="3.0155">
        <ele>728.6</ele>
        <time>2025-08-07T16:44:39Z</time>
      </trkpt>
      <trkpt lat="45.8448" lon="3.01554">
        <ele>728.6</ele>
        <time>2025-08-07T16:44:40Z</time>
      </trkpt>
      <trkpt lat="45.84483" lon="3.0156">
        <ele>728.4</ele>
        <time>2025-08-07T16:44:41Z</time>
      </trkpt>
      <trkpt lat="45.84486" lon="3.01563">
        <ele>728.4</ele>
        <time>2025-08-07T16:44:42Z</time>
      </trkpt>
      <trkpt lat="45.84489" lon="3.01568">
        <ele>728.4</ele>
        <time>2025-08-07T16:44:43Z</time>
      </trkpt>
      <trkpt lat="45.84494" lon="3.01571">
        <ele>728.4</ele>
        <time>2025-08-07T16:44:44Z</time>
      </trkpt>
      <trkpt lat="45.84498" lon="3.01574">
        <ele>728.2</ele>
        <time>2025-08-07T16:44:45Z</time>
      </trkpt>
      <trkpt lat="45.84504" lon="3.01576">
        <ele>728.2</ele>
        <time>2025-08-07T16:44:46Z</time>
      </trkpt>
      <trkpt lat="45.84511" lon="3.01577">
        <ele>728.2</ele>
        <time>2025-08-07T16:44:47Z</time>
      </trkpt>
      <trkpt lat="45.84518" lon="3.01579">
        <ele>728</ele>
        <time>2025-08-07T16:44:48Z</time>
      </trkpt>
      <trkpt lat="45.84523" lon="3.0158">
        <ele>728</ele>
        <time>2025-08-07T16:44:49Z</time>
      </trkpt>
      <trkpt lat="45.84528" lon="3.01583">
        <ele>727.8</ele>
        <time>2025-08-07T16:44:50Z</time>
      </trkpt>
      <trkpt lat="45.84533" lon="3.0159">
        <ele>727.6</ele>
        <time>2025-08-07T16:44:51Z</time>
      </trkpt>
      <trkpt lat="45.84538" lon="3.01597">
        <ele>727.4</ele>
        <time>2025-08-07T16:44:52Z</time>
      </trkpt>
      <trkpt lat="45.84543" lon="3.01604">
        <ele>727.2</ele>
        <time>2025-08-07T16:44:53Z</time>
      </trkpt>
      <trkpt lat="45.84546" lon="3.01611">
        <ele>727</ele>
        <time>2025-08-07T16:44:54Z</time>
      </trkpt>
      <trkpt lat="45.84547" lon="3.0162">
        <ele>726.8</ele>
        <time>2025-08-07T16:44:55Z</time>
      </trkpt>
      <trkpt lat="45.84547" lon="3.0163">
        <ele>726.4</ele>
        <time>2025-08-07T16:44:56Z</time>
      </trkpt>
      <trkpt lat="45.84548" lon="3.01639">
        <ele>726</ele>
        <time>2025-08-07T16:44:57Z</time>
      </trkpt>
      <trkpt lat="45.84549" lon="3.01649">
        <ele>725.8</ele>
        <time>2025-08-07T16:44:58Z</time>
      </trkpt>
      <trkpt lat="45.84551" lon="3.01659">
        <ele>725.4</ele>
        <time>2025-08-07T16:44:59Z</time>
      </trkpt>
      <trkpt lat="45.84553" lon="3.01671">
        <ele>725.2</ele>
        <time>2025-08-07T16:45:00Z</time>
      </trkpt>
      <trkpt lat="45.84555" lon="3.01685">
        <ele>724.8</ele>
        <time>2025-08-07T16:45:01Z</time>
      </trkpt>
      <trkpt lat="45.84558" lon="3.01696">
        <ele>724.4</ele>
        <time>2025-08-07T16:45:02Z</time>
      </trkpt>
      <trkpt lat="45.84561" lon="3.01706">
        <ele>724</ele>
        <time>2025-08-07T16:45:03Z</time>
      </trkpt>
      <trkpt lat="45.84564" lon="3.01716">
        <ele>723.6</ele>
        <time>2025-08-07T16:45:04Z</time>
      </trkpt>
      <trkpt lat="45.84566" lon="3.01726">
        <ele>723</ele>
        <time>2025-08-07T16:45:05Z</time>
      </trkpt>
      <trkpt lat="45.84567" lon="3.01737">
        <ele>722.6</ele>
        <time>2025-08-07T16:45:06Z</time>
      </trkpt>
      <trkpt lat="45.84567" lon="3.01748">
        <ele>722</ele>
        <time>2025-08-07T16:45:07Z</time>
      </trkpt>
      <trkpt lat="45.84568" lon="3.01762">
        <ele>721.4</ele>
        <time>2025-08-07T16:45:08Z</time>
      </trkpt>
      <trkpt lat="45.84569" lon="3.01775">
        <ele>720.8</ele>
        <time>2025-08-07T16:45:09Z</time>
      </trkpt>
      <trkpt lat="45.84571" lon="3.01788">
        <ele>720.2</ele>
        <time>2025-08-07T16:45:10Z</time>
      </trkpt>
      <trkpt lat="45.84573" lon="3.01801">
        <ele>719.4</ele>
        <time>2025-08-07T16:45:11Z</time>
      </trkpt>
      <trkpt lat="45.84575" lon="3.01815">
        <ele>718.6</ele>
        <time>2025-08-07T16:45:12Z</time>
      </trkpt>
      <trkpt lat="45.84577" lon="3.01828">
        <ele>717.6</ele>
        <time>2025-08-07T16:45:13Z</time>
      </trkpt>
      <trkpt lat="45.84578" lon="3.0184">
        <ele>716.6</ele>
        <time>2025-08-07T16:45:14Z</time>
      </trkpt>
      <trkpt lat="45.84579" lon="3.01852">
        <ele>715.4</ele>
        <time>2025-08-07T16:45:15Z</time>
      </trkpt>
      <trkpt lat="45.84581" lon="3.01866">
        <ele>714.4</ele>
        <time>2025-08-07T16:45:16Z</time>
      </trkpt>
      <trkpt lat="45.84581" lon="3.01874">
        <ele>713.4</ele>
        <time>2025-08-07T16:45:17Z</time>
      </trkpt>
      <trkpt lat="45.84581" lon="3.01885">
        <ele>712.4</ele>
        <time>2025-08-07T16:45:18Z</time>
      </trkpt>
      <trkpt lat="45.84581" lon="3.01895">
        <ele>711.4</ele>
        <time>2025-08-07T16:45:19Z</time>
      </trkpt>
      <trkpt lat="45.8458" lon="3.01903">
        <ele>710.4</ele>
        <time>2025-08-07T16:45:20Z</time>
      </trkpt>
      <trkpt lat="45.84579" lon="3.01911">
        <ele>709.6</ele>
        <time>2025-08-07T16:45:21Z</time>
      </trkpt>
      <trkpt lat="45.84579" lon="3.01919">
        <ele>708.8</ele>
        <time>2025-08-07T16:45:22Z</time>
      </trkpt>
      <trkpt lat="45.84578" lon="3.01928">
        <ele>708.2</ele>
        <time>2025-08-07T16:45:23Z</time>
      </trkpt>
      <trkpt lat="45.84578" lon="3.01939">
        <ele>707.4</ele>
        <time>2025-08-07T16:45:24Z</time>
      </trkpt>
      <trkpt lat="45.84577" lon="3.01947">
        <ele>706.6</ele>
        <time>2025-08-07T16:45:25Z</time>
      </trkpt>
      <trkpt lat="45.84577" lon="3.01953">
        <ele>705.8</ele>
        <time>2025-08-07T16:45:26Z</time>
      </trkpt>
      <trkpt lat="45.84575" lon="3.0196">
        <ele>705</ele>
        <time>2025-08-07T16:45:27Z</time>
      </trkpt>
      <trkpt lat="45.84571" lon="3.01968">
        <ele>704.4</ele>
        <time>2025-08-07T16:45:28Z</time>
      </trkpt>
      <trkpt lat="45.84567" lon="3.01977">
        <ele>703.6</ele>
        <time>2025-08-07T16:45:29Z</time>
      </trkpt>
      <trkpt lat="45.84562" lon="3.01986">
        <ele>702.8</ele>
        <time>2025-08-07T16:45:30Z</time>
      </trkpt>
      <trkpt lat="45.84557" lon="3.01995">
        <ele>701.8</ele>
        <time>2025-08-07T16:45:31Z</time>
      </trkpt>
      <trkpt lat="45.84552" lon="3.02006">
        <ele>701</ele>
        <time>2025-08-07T16:45:32Z</time>
      </trkpt>
      <trkpt lat="45.84549" lon="3.02017">
        <ele>699.8</ele>
        <time>2025-08-07T16:45:33Z</time>
      </trkpt>
      <trkpt lat="45.84546" lon="3.0203">
        <ele>698.6</ele>
        <time>2025-08-07T16:45:34Z</time>
      </trkpt>
      <trkpt lat="45.84544" lon="3.02045">
        <ele>697.4</ele>
        <time>2025-08-07T16:45:35Z</time>
      </trkpt>
      <trkpt lat="45.84542" lon="3.02056">
        <ele>696.4</ele>
        <time>2025-08-07T16:45:36Z</time>
      </trkpt>
      <trkpt lat="45.84541" lon="3.02068">
        <ele>695.2</ele>
        <time>2025-08-07T16:45:37Z</time>
      </trkpt>
      <trkpt lat="45.84539" lon="3.0208">
        <ele>694.2</ele>
        <time>2025-08-07T16:45:38Z</time>
      </trkpt>
      <trkpt lat="45.84536" lon="3.0209">
        <ele>693.2</ele>
        <time>2025-08-07T16:45:39Z</time>
      </trkpt>
      <trkpt lat="45.84534" lon="3.021">
        <ele>692.2</ele>
        <time>2025-08-07T16:45:40Z</time>
      </trkpt>
      <trkpt lat="45.8453" lon="3.02108">
        <ele>691.4</ele>
        <time>2025-08-07T16:45:41Z</time>
      </trkpt>
      <trkpt lat="45.84523" lon="3.02117">
        <ele>690.4</ele>
        <time>2025-08-07T16:45:42Z</time>
      </trkpt>
      <trkpt lat="45.84515" lon="3.02127">
        <ele>689.2</ele>
        <time>2025-08-07T16:45:43Z</time>
      </trkpt>
      <trkpt lat="45.84506" lon="3.02138">
        <ele>687.8</ele>
        <time>2025-08-07T16:45:44Z</time>
      </trkpt>
      <trkpt lat="45.845" lon="3.02148">
        <ele>686.6</ele>
        <time>2025-08-07T16:45:45Z</time>
      </trkpt>
      <trkpt lat="45.84491" lon="3.0216">
        <ele>685.4</ele>
        <time>2025-08-07T16:45:46Z</time>
      </trkpt>
      <trkpt lat="45.84482" lon="3.02172">
        <ele>684.6</ele>
        <time>2025-08-07T16:45:47Z</time>
      </trkpt>
      <trkpt lat="45.84477" lon="3.0218">
        <ele>683.8</ele>
        <time>2025-08-07T16:45:48Z</time>
      </trkpt>
      <trkpt lat="45.8447" lon="3.02186">
        <ele>683</ele>
        <time>2025-08-07T16:45:49Z</time>
      </trkpt>
      <trkpt lat="45.84464" lon="3.02191">
        <ele>682.4</ele>
        <time>2025-08-07T16:45:50Z</time>
      </trkpt>
      <trkpt lat="45.84457" lon="3.02195">
        <ele>681.8</ele>
        <time>2025-08-07T16:45:51Z</time>
      </trkpt>
      <trkpt lat="45.84451" lon="3.02198">
        <ele>681.2</ele>
        <time>2025-08-07T16:45:52Z</time>
      </trkpt>
      <trkpt lat="45.84445" lon="3.02202">
        <ele>680.4</ele>
        <time>2025-08-07T16:45:53Z</time>
      </trkpt>
      <trkpt lat="45.84439" lon="3.02204">
        <ele>679.8</ele>
        <time>2025-08-07T16:45:54Z</time>
      </trkpt>
      <trkpt lat="45.84432" lon="3.02206">
        <ele>679.2</ele>
        <time>2025-08-07T16:45:55Z</time>
      </trkpt>
      <trkpt lat="45.84426" lon="3.02208">
        <ele>678.6</ele>
        <time>2025-08-07T16:45:56Z</time>
      </trkpt>
      <trkpt lat="45.84422" lon="3.02209">
        <ele>678</ele>
        <time>2025-08-07T16:45:57Z</time>
      </trkpt>
      <trkpt lat="45.8442" lon="3.02212">
        <ele>677.6</ele>
        <time>2025-08-07T16:45:58Z</time>
      </trkpt>
      <trkpt lat="45.84418" lon="3.02215">
        <ele>677</ele>
        <time>2025-08-07T16:45:59Z</time>
      </trkpt>
      <trkpt lat="45.84415" lon="3.02215">
        <ele>676.8</ele>
        <time>2025-08-07T16:46:00Z</time>
      </trkpt>
      <trkpt lat="45.84413" lon="3.02216">
        <ele>676.4</ele>
        <time>2025-08-07T16:46:01Z</time>
      </trkpt>
      <trkpt lat="45.84412" lon="3.02218">
        <ele>676.2</ele>
        <time>2025-08-07T16:46:02Z</time>
      </trkpt>
      <trkpt lat="45.84411" lon="3.02221">
        <ele>675.8</ele>
        <time>2025-08-07T16:46:03Z</time>
      </trkpt>
      <trkpt lat="45.84409" lon="3.02224">
        <ele>675.6</ele>
        <time>2025-08-07T16:46:04Z</time>
      </trkpt>
      <trkpt lat="45.84409" lon="3.02227">
        <ele>675.4</ele>
        <time>2025-08-07T16:46:05Z</time>
      </trkpt>
      <trkpt lat="45.84409" lon="3.02229">
        <ele>675.2</ele>
        <time>2025-08-07T16:46:06Z</time>
      </trkpt>
      <trkpt lat="45.84409" lon="3.02231">
        <ele>675.2</ele>
        <time>2025-08-07T16:46:07Z</time>
      </trkpt>
      <trkpt lat="45.8441" lon="3.02233">
        <ele>675</ele>
        <time>2025-08-07T16:46:08Z</time>
      </trkpt>
      <trkpt lat="45.84409" lon="3.02234">
        <ele>674.8</ele>
        <time>2025-08-07T16:46:09Z</time>
      </trkpt>
      <trkpt lat="45.8441" lon="3.02236">
        <ele>674.8</ele>
        <time>2025-08-07T16:46:10Z</time>
      </trkpt>
      <trkpt lat="45.8441" lon="3.02239">
        <ele>674.6</ele>
        <time>2025-08-07T16:46:11Z</time>
      </trkpt>
      <trkpt lat="45.84409" lon="3.02243">
        <ele>674.6</ele>
        <time>2025-08-07T16:46:12Z</time>
      </trkpt>
      <trkpt lat="45.8441" lon="3.02247">
        <ele>674.4</ele>
        <time>2025-08-07T16:46:13Z</time>
      </trkpt>
      <trkpt lat="45.84411" lon="3.02253">
        <ele>674.4</ele>
        <time>2025-08-07T16:46:14Z</time>
      </trkpt>
      <trkpt lat="45.84412" lon="3.02259">
        <ele>674.2</ele>
        <time>2025-08-07T16:46:15Z</time>
      </trkpt>
      <trkpt lat="45.84413" lon="3.02266">
        <ele>674</ele>
        <time>2025-08-07T16:46:16Z</time>
      </trkpt>
      <trkpt lat="45.84414" lon="3.02272">
        <ele>673.8</ele>
        <time>2025-08-07T16:46:17Z</time>
      </trkpt>
      <trkpt lat="45.84415" lon="3.02279">
        <ele>673.6</ele>
        <time>2025-08-07T16:46:18Z</time>
      </trkpt>
      <trkpt lat="45.84416" lon="3.02287">
        <ele>673.4</ele>
        <time>2025-08-07T16:46:19Z</time>
      </trkpt>
      <trkpt lat="45.84417" lon="3.02295">
        <ele>673.4</ele>
        <time>2025-08-07T16:46:20Z</time>
      </trkpt>
      <trkpt lat="45.84418" lon="3.02302">
        <ele>673</ele>
        <time>2025-08-07T16:46:21Z</time>
      </trkpt>
      <trkpt lat="45.84418" lon="3.0231">
        <ele>672.8</ele>
        <time>2025-08-07T16:46:22Z</time>
      </trkpt>
      <trkpt lat="45.8442" lon="3.02318">
        <ele>672.6</ele>
        <time>2025-08-07T16:46:23Z</time>
      </trkpt>
      <trkpt lat="45.84421" lon="3.02329">
        <ele>672.4</ele>
        <time>2025-08-07T16:46:24Z</time>
      </trkpt>
      <trkpt lat="45.84422" lon="3.02338">
        <ele>672.2</ele>
        <time>2025-08-07T16:46:25Z</time>
      </trkpt>
      <trkpt lat="45.84423" lon="3.02346">
        <ele>671.8</ele>
        <time>2025-08-07T16:46:26Z</time>
      </trkpt>
      <trkpt lat="45.84425" lon="3.02357">
        <ele>671.4</ele>
        <time>2025-08-07T16:46:27Z</time>
      </trkpt>
      <trkpt lat="45.84426" lon="3.02366">
        <ele>671</ele>
        <time>2025-08-07T16:46:28Z</time>
      </trkpt>
      <trkpt lat="45.84428" lon="3.02376">
        <ele>670.6</ele>
        <time>2025-08-07T16:46:29Z</time>
      </trkpt>
      <trkpt lat="45.84429" lon="3.02386">
        <ele>670.2</ele>
        <time>2025-08-07T16:46:30Z</time>
      </trkpt>
      <trkpt lat="45.8443" lon="3.02397">
        <ele>669.6</ele>
        <time>2025-08-07T16:46:31Z</time>
      </trkpt>
      <trkpt lat="45.84431" lon="3.02408">
        <ele>669</ele>
        <time>2025-08-07T16:46:32Z</time>
      </trkpt>
      <trkpt lat="45.84432" lon="3.02419">
        <ele>668.2</ele>
        <time>2025-08-07T16:46:33Z</time>
      </trkpt>
      <trkpt lat="45.84432" lon="3.02431">
        <ele>667.6</ele>
        <time>2025-08-07T16:46:34Z</time>
      </trkpt>
      <trkpt lat="45.84431" lon="3.02443">
        <ele>667.2</ele>
        <time>2025-08-07T16:46:35Z</time>
      </trkpt>
      <trkpt lat="45.84429" lon="3.02455">
        <ele>666.6</ele>
        <time>2025-08-07T16:46:36Z</time>
      </trkpt>
      <trkpt lat="45.84426" lon="3.02466">
        <ele>666</ele>
        <time>2025-08-07T16:46:37Z</time>
      </trkpt>
      <trkpt lat="45.84423" lon="3.02477">
        <ele>665.4</ele>
        <time>2025-08-07T16:46:38Z</time>
      </trkpt>
      <trkpt lat="45.8442" lon="3.02485">
        <ele>665</ele>
        <time>2025-08-07T16:46:39Z</time>
      </trkpt>
      <trkpt lat="45.84417" lon="3.02493">
        <ele>664.4</ele>
        <time>2025-08-07T16:46:40Z</time>
      </trkpt>
      <trkpt lat="45.84414" lon="3.025">
        <ele>664</ele>
        <time>2025-08-07T16:46:41Z</time>
      </trkpt>
      <trkpt lat="45.8441" lon="3.02505">
        <ele>663.4</ele>
        <time>2025-08-07T16:46:42Z</time>
      </trkpt>
      <trkpt lat="45.84405" lon="3.0251">
        <ele>663</ele>
        <time>2025-08-07T16:46:43Z</time>
      </trkpt>
      <trkpt lat="45.84402" lon="3.02515">
        <ele>662.6</ele>
        <time>2025-08-07T16:46:44Z</time>
      </trkpt>
      <trkpt lat="45.84401" lon="3.02524">
        <ele>662.2</ele>
        <time>2025-08-07T16:46:45Z</time>
      </trkpt>
      <trkpt lat="45.84403" lon="3.0253">
        <ele>662</ele>
        <time>2025-08-07T16:46:46Z</time>
      </trkpt>
      <trkpt lat="45.84405" lon="3.02535">
        <ele>661.8</ele>
        <time>2025-08-07T16:46:47Z</time>
      </trkpt>
      <trkpt lat="45.84408" lon="3.02541">
        <ele>661.6</ele>
        <time>2025-08-07T16:46:48Z</time>
      </trkpt>
      <trkpt lat="45.84411" lon="3.02548">
        <ele>661.2</ele>
        <time>2025-08-07T16:46:49Z</time>
      </trkpt>
      <trkpt lat="45.84415" lon="3.02555">
        <ele>660.8</ele>
        <time>2025-08-07T16:46:50Z</time>
      </trkpt>
      <trkpt lat="45.84419" lon="3.02564">
        <ele>660.6</ele>
        <time>2025-08-07T16:46:51Z</time>
      </trkpt>
      <trkpt lat="45.84422" lon="3.02571">
        <ele>660.2</ele>
        <time>2025-08-07T16:46:52Z</time>
      </trkpt>
      <trkpt lat="45.84426" lon="3.02578">
        <ele>660.2</ele>
        <time>2025-08-07T16:46:53Z</time>
      </trkpt>
      <trkpt lat="45.8443" lon="3.02586">
        <ele>660</ele>
        <time>2025-08-07T16:46:54Z</time>
      </trkpt>
      <trkpt lat="45.84435" lon="3.02593">
        <ele>659.6</ele>
        <time>2025-08-07T16:46:55Z</time>
      </trkpt>
      <trkpt lat="45.84439" lon="3.02601">
        <ele>659.4</ele>
        <time>2025-08-07T16:46:56Z</time>
      </trkpt>
      <trkpt lat="45.84444" lon="3.02608">
        <ele>659.2</ele>
        <time>2025-08-07T16:46:57Z</time>
      </trkpt>
      <trkpt lat="45.84448" lon="3.02616">
        <ele>659.2</ele>
        <time>2025-08-07T16:46:58Z</time>
      </trkpt>
      <trkpt lat="45.84452" lon="3.02624">
        <ele>659</ele>
        <time>2025-08-07T16:46:59Z</time>
      </trkpt>
      <trkpt lat="45.84456" lon="3.02631">
        <ele>658.6</ele>
        <time>2025-08-07T16:47:00Z</time>
      </trkpt>
      <trkpt lat="45.8446" lon="3.0264">
        <ele>658.6</ele>
        <time>2025-08-07T16:47:01Z</time>
      </trkpt>
      <trkpt lat="45.84463" lon="3.02646">
        <ele>658.2</ele>
        <time>2025-08-07T16:47:02Z</time>
      </trkpt>
      <trkpt lat="45.84467" lon="3.02653">
        <ele>658.2</ele>
        <time>2025-08-07T16:47:03Z</time>
      </trkpt>
      <trkpt lat="45.84471" lon="3.02661">
        <ele>658</ele>
        <time>2025-08-07T16:47:04Z</time>
      </trkpt>
      <trkpt lat="45.84475" lon="3.02669">
        <ele>657.6</ele>
        <time>2025-08-07T16:47:05Z</time>
      </trkpt>
      <trkpt lat="45.84478" lon="3.02677">
        <ele>657.4</ele>
        <time>2025-08-07T16:47:06Z</time>
      </trkpt>
      <trkpt lat="45.84481" lon="3.02684">
        <ele>657.4</ele>
        <time>2025-08-07T16:47:07Z</time>
      </trkpt>
      <trkpt lat="45.84485" lon="3.02692">
        <ele>657.2</ele>
        <time>2025-08-07T16:47:08Z</time>
      </trkpt>
      <trkpt lat="45.84487" lon="3.027">
        <ele>656.8</ele>
        <time>2025-08-07T16:47:09Z</time>
      </trkpt>
      <trkpt lat="45.84491" lon="3.02711">
        <ele>656.6</ele>
        <time>2025-08-07T16:47:10Z</time>
      </trkpt>
      <trkpt lat="45.84493" lon="3.02719">
        <ele>656.2</ele>
        <time>2025-08-07T16:47:11Z</time>
      </trkpt>
      <trkpt lat="45.84495" lon="3.02729">
        <ele>656</ele>
        <time>2025-08-07T16:47:12Z</time>
      </trkpt>
      <trkpt lat="45.84497" lon="3.0274">
        <ele>656</ele>
        <time>2025-08-07T16:47:13Z</time>
      </trkpt>
      <trkpt lat="45.84498" lon="3.02748">
        <ele>655.8</ele>
        <time>2025-08-07T16:47:14Z</time>
      </trkpt>
      <trkpt lat="45.84499" lon="3.02758">
        <ele>655.4</ele>
        <time>2025-08-07T16:47:15Z</time>
      </trkpt>
      <trkpt lat="45.845" lon="3.02767">
        <ele>655.2</ele>
        <time>2025-08-07T16:47:16Z</time>
      </trkpt>
      <trkpt lat="45.84502" lon="3.02777">
        <ele>655</ele>
        <time>2025-08-07T16:47:17Z</time>
      </trkpt>
      <trkpt lat="45.84503" lon="3.02786">
        <ele>654.8</ele>
        <time>2025-08-07T16:47:18Z</time>
      </trkpt>
      <trkpt lat="45.84505" lon="3.02796">
        <ele>654.6</ele>
        <time>2025-08-07T16:47:19Z</time>
      </trkpt>
      <trkpt lat="45.84507" lon="3.02804">
        <ele>654.4</ele>
        <time>2025-08-07T16:47:20Z</time>
      </trkpt>
      <trkpt lat="45.84508" lon="3.02813">
        <ele>654.2</ele>
        <time>2025-08-07T16:47:21Z</time>
      </trkpt>
      <trkpt lat="45.8451" lon="3.02822">
        <ele>654.2</ele>
        <time>2025-08-07T16:47:22Z</time>
      </trkpt>
      <trkpt lat="45.84512" lon="3.02832">
        <ele>654.2</ele>
        <time>2025-08-07T16:47:23Z</time>
      </trkpt>
      <trkpt lat="45.84513" lon="3.0284">
        <ele>654</ele>
        <time>2025-08-07T16:47:24Z</time>
      </trkpt>
      <trkpt lat="45.84515" lon="3.02848">
        <ele>653.8</ele>
        <time>2025-08-07T16:47:25Z</time>
      </trkpt>
      <trkpt lat="45.84516" lon="3.02857">
        <ele>653.6</ele>
        <time>2025-08-07T16:47:26Z</time>
      </trkpt>
      <trkpt lat="45.84517" lon="3.02867">
        <ele>653.2</ele>
        <time>2025-08-07T16:47:27Z</time>
      </trkpt>
      <trkpt lat="45.84517" lon="3.02877">
        <ele>653</ele>
        <time>2025-08-07T16:47:28Z</time>
      </trkpt>
      <trkpt lat="45.84518" lon="3.02884">
        <ele>653</ele>
        <time>2025-08-07T16:47:29Z</time>
      </trkpt>
      <trkpt lat="45.84518" lon="3.02893">
        <ele>652.8</ele>
        <time>2025-08-07T16:47:30Z</time>
      </trkpt>
      <trkpt lat="45.84518" lon="3.02903">
        <ele>652.6</ele>
        <time>2025-08-07T16:47:31Z</time>
      </trkpt>
      <trkpt lat="45.84518" lon="3.02912">
        <ele>652.4</ele>
        <time>2025-08-07T16:47:32Z</time>
      </trkpt>
      <trkpt lat="45.84519" lon="3.02921">
        <ele>652.2</ele>
        <time>2025-08-07T16:47:33Z</time>
      </trkpt>
      <trkpt lat="45.84519" lon="3.0293">
        <ele>651.8</ele>
        <time>2025-08-07T16:47:34Z</time>
      </trkpt>
      <trkpt lat="45.84519" lon="3.02939">
        <ele>651.6</ele>
        <time>2025-08-07T16:47:35Z</time>
      </trkpt>
      <trkpt lat="45.84519" lon="3.0295">
        <ele>651.4</ele>
        <time>2025-08-07T16:47:36Z</time>
      </trkpt>
      <trkpt lat="45.84518" lon="3.02959">
        <ele>651.4</ele>
        <time>2025-08-07T16:47:37Z</time>
      </trkpt>
      <trkpt lat="45.84517" lon="3.02968">
        <ele>651.2</ele>
        <time>2025-08-07T16:47:38Z</time>
      </trkpt>
      <trkpt lat="45.84516" lon="3.02978">
        <ele>651</ele>
        <time>2025-08-07T16:47:39Z</time>
      </trkpt>
      <trkpt lat="45.84515" lon="3.02987">
        <ele>650.8</ele>
        <time>2025-08-07T16:47:40Z</time>
      </trkpt>
      <trkpt lat="45.84514" lon="3.02996">
        <ele>650.6</ele>
        <time>2025-08-07T16:47:41Z</time>
      </trkpt>
      <trkpt lat="45.84512" lon="3.03005">
        <ele>650.4</ele>
        <time>2025-08-07T16:47:42Z</time>
      </trkpt>
      <trkpt lat="45.8451" lon="3.03014">
        <ele>650.2</ele>
        <time>2025-08-07T16:47:43Z</time>
      </trkpt>
      <trkpt lat="45.84509" lon="3.03023">
        <ele>650</ele>
        <time>2025-08-07T16:47:44Z</time>
      </trkpt>
      <trkpt lat="45.84507" lon="3.03033">
        <ele>649.8</ele>
        <time>2025-08-07T16:47:45Z</time>
      </trkpt>
      <trkpt lat="45.84505" lon="3.03039">
        <ele>649.8</ele>
        <time>2025-08-07T16:47:46Z</time>
      </trkpt>
      <trkpt lat="45.84504" lon="3.03047">
        <ele>649.6</ele>
        <time>2025-08-07T16:47:47Z</time>
      </trkpt>
      <trkpt lat="45.84503" lon="3.03056">
        <ele>649.6</ele>
        <time>2025-08-07T16:47:48Z</time>
      </trkpt>
      <trkpt lat="45.84505" lon="3.03061">
        <ele>649.6</ele>
        <time>2025-08-07T16:47:49Z</time>
      </trkpt>
      <trkpt lat="45.84507" lon="3.03069">
        <ele>649.6</ele>
        <time>2025-08-07T16:47:50Z</time>
      </trkpt>
      <trkpt lat="45.8451" lon="3.03073">
        <ele>649.6</ele>
        <time>2025-08-07T16:47:51Z</time>
      </trkpt>
      <trkpt lat="45.84515" lon="3.03076">
        <ele>649.6</ele>
        <time>2025-08-07T16:47:52Z</time>
      </trkpt>
      <trkpt lat="45.84521" lon="3.0308">
        <ele>649.6</ele>
        <time>2025-08-07T16:47:53Z</time>
      </trkpt>
      <trkpt lat="45.84526" lon="3.03081">
        <ele>649.6</ele>
        <time>2025-08-07T16:47:54Z</time>
      </trkpt>
      <trkpt lat="45.84531" lon="3.03082">
        <ele>649.6</ele>
        <time>2025-08-07T16:47:55Z</time>
      </trkpt>
      <trkpt lat="45.84537" lon="3.03083">
        <ele>649.6</ele>
        <time>2025-08-07T16:47:56Z</time>
      </trkpt>
      <trkpt lat="45.84543" lon="3.03084">
        <ele>649.8</ele>
        <time>2025-08-07T16:47:57Z</time>
      </trkpt>
      <trkpt lat="45.84549" lon="3.03084">
        <ele>649.8</ele>
        <time>2025-08-07T16:47:58Z</time>
      </trkpt>
      <trkpt lat="45.84555" lon="3.03084">
        <ele>650</ele>
        <time>2025-08-07T16:47:59Z</time>
      </trkpt>
      <trkpt lat="45.84562" lon="3.03083">
        <ele>650.2</ele>
        <time>2025-08-07T16:48:00Z</time>
      </trkpt>
      <trkpt lat="45.84568" lon="3.03082">
        <ele>650.2</ele>
        <time>2025-08-07T16:48:01Z</time>
      </trkpt>
      <trkpt lat="45.84573" lon="3.03082">
        <ele>650.2</ele>
        <time>2025-08-07T16:48:02Z</time>
      </trkpt>
      <trkpt lat="45.84579" lon="3.03082">
        <ele>650.2</ele>
        <time>2025-08-07T16:48:03Z</time>
      </trkpt>
      <trkpt lat="45.84585" lon="3.03083">
        <ele>650.2</ele>
        <time>2025-08-07T16:48:04Z</time>
      </trkpt>
      <trkpt lat="45.84591" lon="3.03084">
        <ele>650.4</ele>
        <time>2025-08-07T16:48:05Z</time>
      </trkpt>
      <trkpt lat="45.84597" lon="3.03085">
        <ele>650.6</ele>
        <time>2025-08-07T16:48:06Z</time>
      </trkpt>
      <trkpt lat="45.84603" lon="3.03087">
        <ele>650.6</ele>
        <time>2025-08-07T16:48:07Z</time>
      </trkpt>
      <trkpt lat="45.8461" lon="3.03089">
        <ele>650.8</ele>
        <time>2025-08-07T16:48:08Z</time>
      </trkpt>
      <trkpt lat="45.84615" lon="3.03091">
        <ele>650.8</ele>
        <time>2025-08-07T16:48:09Z</time>
      </trkpt>
      <trkpt lat="45.8462" lon="3.03095">
        <ele>651</ele>
        <time>2025-08-07T16:48:10Z</time>
      </trkpt>
      <trkpt lat="45.84625" lon="3.03099">
        <ele>651</ele>
        <time>2025-08-07T16:48:11Z</time>
      </trkpt>
      <trkpt lat="45.84629" lon="3.03104">
        <ele>651</ele>
        <time>2025-08-07T16:48:12Z</time>
      </trkpt>
      <trkpt lat="45.84632" lon="3.0311">
        <ele>650.8</ele>
        <time>2025-08-07T16:48:13Z</time>
      </trkpt>
      <trkpt lat="45.84636" lon="3.03117">
        <ele>650.8</ele>
        <time>2025-08-07T16:48:14Z</time>
      </trkpt>
      <trkpt lat="45.8464" lon="3.03123">
        <ele>650.6</ele>
        <time>2025-08-07T16:48:15Z</time>
      </trkpt>
      <trkpt lat="45.84646" lon="3.03131">
        <ele>650.2</ele>
        <time>2025-08-07T16:48:16Z</time>
      </trkpt>
      <trkpt lat="45.8465" lon="3.03137">
        <ele>650</ele>
        <time>2025-08-07T16:48:17Z</time>
      </trkpt>
      <trkpt lat="45.84656" lon="3.03145">
        <ele>649.6</ele>
        <time>2025-08-07T16:48:18Z</time>
      </trkpt>
      <trkpt lat="45.84661" lon="3.03152">
        <ele>649.2</ele>
        <time>2025-08-07T16:48:19Z</time>
      </trkpt>
      <trkpt lat="45.84667" lon="3.0316">
        <ele>648.6</ele>
        <time>2025-08-07T16:48:20Z</time>
      </trkpt>
      <trkpt lat="45.84672" lon="3.03168">
        <ele>648.2</ele>
        <time>2025-08-07T16:48:21Z</time>
      </trkpt>
      <trkpt lat="45.84677" lon="3.03177">
        <ele>647.8</ele>
        <time>2025-08-07T16:48:22Z</time>
      </trkpt>
      <trkpt lat="45.84682" lon="3.03187">
        <ele>647.4</ele>
        <time>2025-08-07T16:48:23Z</time>
      </trkpt>
      <trkpt lat="45.84686" lon="3.03199">
        <ele>647</ele>
        <time>2025-08-07T16:48:24Z</time>
      </trkpt>
      <trkpt lat="45.84689" lon="3.03208">
        <ele>646.6</ele>
        <time>2025-08-07T16:48:25Z</time>
      </trkpt>
      <trkpt lat="45.84693" lon="3.03218">
        <ele>646.2</ele>
        <time>2025-08-07T16:48:26Z</time>
      </trkpt>
      <trkpt lat="45.84698" lon="3.03227">
        <ele>645.8</ele>
        <time>2025-08-07T16:48:27Z</time>
      </trkpt>
      <trkpt lat="45.84703" lon="3.03237">
        <ele>645.6</ele>
        <time>2025-08-07T16:48:28Z</time>
      </trkpt>
      <trkpt lat="45.84708" lon="3.03245">
        <ele>645.2</ele>
        <time>2025-08-07T16:48:29Z</time>
      </trkpt>
      <trkpt lat="45.84714" lon="3.03254">
        <ele>644.8</ele>
        <time>2025-08-07T16:48:30Z</time>
      </trkpt>
      <trkpt lat="45.8472" lon="3.03262">
        <ele>644.4</ele>
        <time>2025-08-07T16:48:31Z</time>
      </trkpt>
      <trkpt lat="45.84726" lon="3.03269">
        <ele>644.2</ele>
        <time>2025-08-07T16:48:32Z</time>
      </trkpt>
      <trkpt lat="45.84733" lon="3.03276">
        <ele>644</ele>
        <time>2025-08-07T16:48:33Z</time>
      </trkpt>
      <trkpt lat="45.84739" lon="3.03282">
        <ele>643.8</ele>
        <time>2025-08-07T16:48:34Z</time>
      </trkpt>
      <trkpt lat="45.84746" lon="3.03288">
        <ele>643.6</ele>
        <time>2025-08-07T16:48:35Z</time>
      </trkpt>
      <trkpt lat="45.84752" lon="3.03294">
        <ele>643.4</ele>
        <time>2025-08-07T16:48:36Z</time>
      </trkpt>
      <trkpt lat="45.84759" lon="3.033">
        <ele>643.2</ele>
        <time>2025-08-07T16:48:37Z</time>
      </trkpt>
      <trkpt lat="45.84765" lon="3.03306">
        <ele>643</ele>
        <time>2025-08-07T16:48:38Z</time>
      </trkpt>
      <trkpt lat="45.84771" lon="3.03312">
        <ele>642.8</ele>
        <time>2025-08-07T16:48:39Z</time>
      </trkpt>
      <trkpt lat="45.84777" lon="3.03318">
        <ele>642.8</ele>
        <time>2025-08-07T16:48:40Z</time>
      </trkpt>
      <trkpt lat="45.84783" lon="3.03324">
        <ele>642.8</ele>
        <time>2025-08-07T16:48:41Z</time>
      </trkpt>
      <trkpt lat="45.84788" lon="3.03329">
        <ele>642.8</ele>
        <time>2025-08-07T16:48:42Z</time>
      </trkpt>
      <trkpt lat="45.84793" lon="3.03334">
        <ele>642.8</ele>
        <time>2025-08-07T16:48:43Z</time>
      </trkpt>
      <trkpt lat="45.84799" lon="3.03339">
        <ele>642.8</ele>
        <time>2025-08-07T16:48:44Z</time>
      </trkpt>
      <trkpt lat="45.84804" lon="3.03343">
        <ele>643</ele>
        <time>2025-08-07T16:48:45Z</time>
      </trkpt>
      <trkpt lat="45.8481" lon="3.03347">
        <ele>643</ele>
        <time>2025-08-07T16:48:46Z</time>
      </trkpt>
      <trkpt lat="45.84815" lon="3.03352">
        <ele>643</ele>
        <time>2025-08-07T16:48:47Z</time>
      </trkpt>
      <trkpt lat="45.8482" lon="3.03356">
        <ele>643</ele>
        <time>2025-08-07T16:48:48Z</time>
      </trkpt>
      <trkpt lat="45.84826" lon="3.0336">
        <ele>643</ele>
        <time>2025-08-07T16:48:49Z</time>
      </trkpt>
      <trkpt lat="45.84831" lon="3.03363">
        <ele>643.2</ele>
        <time>2025-08-07T16:48:50Z</time>
      </trkpt>
      <trkpt lat="45.84837" lon="3.03367">
        <ele>643.2</ele>
        <time>2025-08-07T16:48:51Z</time>
      </trkpt>
      <trkpt lat="45.84842" lon="3.03372">
        <ele>643.2</ele>
        <time>2025-08-07T16:48:52Z</time>
      </trkpt>
      <trkpt lat="45.84847" lon="3.03375">
        <ele>643.2</ele>
        <time>2025-08-07T16:48:53Z</time>
      </trkpt>
      <trkpt lat="45.84852" lon="3.03379">
        <ele>643.2</ele>
        <time>2025-08-07T16:48:54Z</time>
      </trkpt>
      <trkpt lat="45.84857" lon="3.03383">
        <ele>643.4</ele>
        <time>2025-08-07T16:48:55Z</time>
      </trkpt>
      <trkpt lat="45.84862" lon="3.03387">
        <ele>643.4</ele>
        <time>2025-08-07T16:48:56Z</time>
      </trkpt>
      <trkpt lat="45.84867" lon="3.03391">
        <ele>643.4</ele>
        <time>2025-08-07T16:48:57Z</time>
      </trkpt>
      <trkpt lat="45.84872" lon="3.03396">
        <ele>643.6</ele>
        <time>2025-08-07T16:48:58Z</time>
      </trkpt>
      <trkpt lat="45.84877" lon="3.034">
        <ele>643.6</ele>
        <time>2025-08-07T16:48:59Z</time>
      </trkpt>
      <trkpt lat="45.84882" lon="3.03404">
        <ele>643.6</ele>
        <time>2025-08-07T16:49:00Z</time>
      </trkpt>
      <trkpt lat="45.84886" lon="3.03407">
        <ele>643.6</ele>
        <time>2025-08-07T16:49:01Z</time>
      </trkpt>
      <trkpt lat="45.84889" lon="3.03409">
        <ele>643.6</ele>
        <time>2025-08-07T16:49:02Z</time>
      </trkpt>
      <trkpt lat="45.84891" lon="3.0341">
        <ele>643.6</ele>
        <time>2025-08-07T16:49:03Z</time>
      </trkpt>
      <trkpt lat="45.84893" lon="3.0341">
        <ele>643.6</ele>
        <time>2025-08-07T16:49:04Z</time>
      </trkpt>
      <trkpt lat="45.84895" lon="3.03409">
        <ele>643.8</ele>
        <time>2025-08-07T16:49:05Z</time>
      </trkpt>
      <trkpt lat="45.84896" lon="3.03408">
        <ele>643.8</ele>
        <time>2025-08-07T16:49:06Z</time>
      </trkpt>
      <trkpt lat="45.84896" lon="3.03406">
        <ele>644</ele>
        <time>2025-08-07T16:49:07Z</time>
      </trkpt>
      <trkpt lat="45.84897" lon="3.03404">
        <ele>644</ele>
        <time>2025-08-07T16:49:08Z</time>
      </trkpt>
      <trkpt lat="45.84897" lon="3.03402">
        <ele>644.2</ele>
        <time>2025-08-07T16:49:09Z</time>
      </trkpt>
      <trkpt lat="45.84898" lon="3.03399">
        <ele>644.2</ele>
        <time>2025-08-07T16:49:10Z</time>
      </trkpt>
      <trkpt lat="45.84898" lon="3.03396">
        <ele>644.4</ele>
        <time>2025-08-07T16:49:11Z</time>
      </trkpt>
      <trkpt lat="45.84899" lon="3.03394">
        <ele>644.6</ele>
        <time>2025-08-07T16:49:12Z</time>
      </trkpt>
      <trkpt lat="45.849" lon="3.03391">
        <ele>644.8</ele>
        <time>2025-08-07T16:49:13Z</time>
      </trkpt>
      <trkpt lat="45.84901" lon="3.03388">
        <ele>645</ele>
        <time>2025-08-07T16:49:14Z</time>
      </trkpt>
      <trkpt lat="45.84901" lon="3.03384">
        <ele>645.4</ele>
        <time>2025-08-07T16:49:15Z</time>
      </trkpt>
      <trkpt lat="45.84901" lon="3.03381">
        <ele>645.6</ele>
        <time>2025-08-07T16:49:16Z</time>
      </trkpt>
      <trkpt lat="45.84902" lon="3.03377">
        <ele>645.8</ele>
        <time>2025-08-07T16:49:17Z</time>
      </trkpt>
      <trkpt lat="45.84904" lon="3.03373">
        <ele>646.2</ele>
        <time>2025-08-07T16:49:18Z</time>
      </trkpt>
      <trkpt lat="45.84906" lon="3.03369">
        <ele>646.4</ele>
        <time>2025-08-07T16:49:19Z</time>
      </trkpt>
      <trkpt lat="45.84909" lon="3.03365">
        <ele>646.6</ele>
        <time>2025-08-07T16:49:20Z</time>
      </trkpt>
      <trkpt lat="45.84911" lon="3.03362">
        <ele>647</ele>
        <time>2025-08-07T16:49:21Z</time>
      </trkpt>
      <trkpt lat="45.84913" lon="3.03359">
        <ele>647.2</ele>
        <time>2025-08-07T16:49:22Z</time>
      </trkpt>
      <trkpt lat="45.84913" lon="3.03356">
        <ele>647.2</ele>
        <time>2025-08-07T16:49:23Z</time>
      </trkpt>
      <trkpt lat="45.84912" lon="3.03354">
        <ele>647.4</ele>
        <time>2025-08-07T16:49:24Z</time>
      </trkpt>
      <trkpt lat="45.84911" lon="3.03354">
        <ele>647.4</ele>
        <time>2025-08-07T16:49:25Z</time>
      </trkpt>
      <trkpt lat="45.84909" lon="3.03355">
        <ele>647.4</ele>
        <time>2025-08-07T16:49:26Z</time>
      </trkpt>
      <trkpt lat="45.84907" lon="3.03357">
        <ele>647.4</ele>
        <time>2025-08-07T16:49:27Z</time>
      </trkpt>
      <trkpt lat="45.84906" lon="3.03361">
        <ele>647.2</ele>
        <time>2025-08-07T16:49:28Z</time>
      </trkpt>
      <trkpt lat="45.84905" lon="3.03365">
        <ele>647.2</ele>
        <time>2025-08-07T16:49:29Z</time>
      </trkpt>
      <trkpt lat="45.84904" lon="3.03369">
        <ele>647</ele>
        <time>2025-08-07T16:49:30Z</time>
      </trkpt>
      <trkpt lat="45.84903" lon="3.03374">
        <ele>646.8</ele>
        <time>2025-08-07T16:49:31Z</time>
      </trkpt>
      <trkpt lat="45.84903" lon="3.03377">
        <ele>646.6</ele>
        <time>2025-08-07T16:49:32Z</time>
      </trkpt>
      <trkpt lat="45.84901" lon="3.03381">
        <ele>646.2</ele>
        <time>2025-08-07T16:49:33Z</time>
      </trkpt>
      <trkpt lat="45.849" lon="3.03384">
        <ele>646</ele>
        <time>2025-08-07T16:49:34Z</time>
      </trkpt>
      <trkpt lat="45.84899" lon="3.03387">
        <ele>645.8</ele>
        <time>2025-08-07T16:49:35Z</time>
      </trkpt>
      <trkpt lat="45.84898" lon="3.03391">
        <ele>645.4</ele>
        <time>2025-08-07T16:49:36Z</time>
      </trkpt>
      <trkpt lat="45.84896" lon="3.03393">
        <ele>645.2</ele>
        <time>2025-08-07T16:49:37Z</time>
      </trkpt>
      <trkpt lat="45.84896" lon="3.03396">
        <ele>644.8</ele>
        <time>2025-08-07T16:49:38Z</time>
      </trkpt>
      <trkpt lat="45.84895" lon="3.034">
        <ele>644.6</ele>
        <time>2025-08-07T16:49:39Z</time>
      </trkpt>
      <trkpt lat="45.84895" lon="3.03402">
        <ele>644.2</ele>
        <time>2025-08-07T16:49:40Z</time>
      </trkpt>
      <trkpt lat="45.84895" lon="3.03405">
        <ele>644</ele>
        <time>2025-08-07T16:49:41Z</time>
      </trkpt>
      <trkpt lat="45.84895" lon="3.03409">
        <ele>643.8</ele>
        <time>2025-08-07T16:49:42Z</time>
      </trkpt>
      <trkpt lat="45.84897" lon="3.03413">
        <ele>643.6</ele>
        <time>2025-08-07T16:49:43Z</time>
      </trkpt>
      <trkpt lat="45.849" lon="3.03417">
        <ele>643.6</ele>
        <time>2025-08-07T16:49:44Z</time>
      </trkpt>
      <trkpt lat="45.84903" lon="3.03419">
        <ele>643.6</ele>
        <time>2025-08-07T16:49:45Z</time>
      </trkpt>
      <trkpt lat="45.84908" lon="3.03421">
        <ele>643.6</ele>
        <time>2025-08-07T16:49:46Z</time>
      </trkpt>
      <trkpt lat="45.84912" lon="3.03423">
        <ele>643.6</ele>
        <time>2025-08-07T16:49:47Z</time>
      </trkpt>
      <trkpt lat="45.84916" lon="3.03426">
        <ele>643.6</ele>
        <time>2025-08-07T16:49:48Z</time>
      </trkpt>
      <trkpt lat="45.8492" lon="3.03428">
        <ele>643.8</ele>
        <time>2025-08-07T16:49:49Z</time>
      </trkpt>
      <trkpt lat="45.84925" lon="3.0343">
        <ele>643.8</ele>
        <time>2025-08-07T16:49:50Z</time>
      </trkpt>
      <trkpt lat="45.84929" lon="3.03431">
        <ele>644</ele>
        <time>2025-08-07T16:49:51Z</time>
      </trkpt>
      <trkpt lat="45.84934" lon="3.03432">
        <ele>644.2</ele>
        <time>2025-08-07T16:49:52Z</time>
      </trkpt>
      <trkpt lat="45.84938" lon="3.03431">
        <ele>644.4</ele>
        <time>2025-08-07T16:49:53Z</time>
      </trkpt>
      <trkpt lat="45.84942" lon="3.03429">
        <ele>644.4</ele>
        <time>2025-08-07T16:49:54Z</time>
      </trkpt>
      <trkpt lat="45.84946" lon="3.03426">
        <ele>644.6</ele>
        <time>2025-08-07T16:49:55Z</time>
      </trkpt>
      <trkpt lat="45.8495" lon="3.03423">
        <ele>644.8</ele>
        <time>2025-08-07T16:49:56Z</time>
      </trkpt>
      <trkpt lat="45.84954" lon="3.0342">
        <ele>645</ele>
        <time>2025-08-07T16:49:57Z</time>
      </trkpt>
      <trkpt lat="45.84957" lon="3.03417">
        <ele>645.2</ele>
        <time>2025-08-07T16:49:58Z</time>
      </trkpt>
      <trkpt lat="45.8496" lon="3.03414">
        <ele>645.2</ele>
        <time>2025-08-07T16:49:59Z</time>
      </trkpt>
      <trkpt lat="45.84964" lon="3.03411">
        <ele>645.2</ele>
        <time>2025-08-07T16:50:00Z</time>
      </trkpt>
      <trkpt lat="45.84967" lon="3.03408">
        <ele>645.4</ele>
        <time>2025-08-07T16:50:01Z</time>
      </trkpt>
      <trkpt lat="45.84971" lon="3.03404">
        <ele>645.6</ele>
        <time>2025-08-07T16:50:02Z</time>
      </trkpt>
      <trkpt lat="45.84975" lon="3.03401">
        <ele>645.6</ele>
        <time>2025-08-07T16:50:03Z</time>
      </trkpt>
      <trkpt lat="45.84979" lon="3.03398">
        <ele>645.8</ele>
        <time>2025-08-07T16:50:04Z</time>
      </trkpt>
      <trkpt lat="45.84983" lon="3.03394">
        <ele>645.8</ele>
        <time>2025-08-07T16:50:05Z</time>
      </trkpt>
      <trkpt lat="45.84986" lon="3.0339">
        <ele>646</ele>
        <time>2025-08-07T16:50:06Z</time>
      </trkpt>
      <trkpt lat="45.84989" lon="3.03386">
        <ele>646</ele>
        <time>2025-08-07T16:50:07Z</time>
      </trkpt>
      <trkpt lat="45.84992" lon="3.03382">
        <ele>646.2</ele>
        <time>2025-08-07T16:50:08Z</time>
      </trkpt>
      <trkpt lat="45.84996" lon="3.03378">
        <ele>646.2</ele>
        <time>2025-08-07T16:50:09Z</time>
      </trkpt>
      <trkpt lat="45.84999" lon="3.03374">
        <ele>646.2</ele>
        <time>2025-08-07T16:50:10Z</time>
      </trkpt>
      <trkpt lat="45.85004" lon="3.03369">
        <ele>646.4</ele>
        <time>2025-08-07T16:50:11Z</time>
      </trkpt>
      <trkpt lat="45.85008" lon="3.03364">
        <ele>646.4</ele>
        <time>2025-08-07T16:50:12Z</time>
      </trkpt>
      <trkpt lat="45.85012" lon="3.03359">
        <ele>646.6</ele>
        <time>2025-08-07T16:50:13Z</time>
      </trkpt>
      <trkpt lat="45.85017" lon="3.03354">
        <ele>646.8</ele>
        <time>2025-08-07T16:50:14Z</time>
      </trkpt>
      <trkpt lat="45.85021" lon="3.0335">
        <ele>646.8</ele>
        <time>2025-08-07T16:50:15Z</time>
      </trkpt>
      <trkpt lat="45.85026" lon="3.03347">
        <ele>647</ele>
        <time>2025-08-07T16:50:16Z</time>
      </trkpt>
      <trkpt lat="45.85031" lon="3.03343">
        <ele>647</ele>
        <time>2025-08-07T16:50:17Z</time>
      </trkpt>
      <trkpt lat="45.85035" lon="3.0334">
        <ele>647.2</ele>
        <time>2025-08-07T16:50:18Z</time>
      </trkpt>
      <trkpt lat="45.8504" lon="3.03337">
        <ele>647.4</ele>
        <time>2025-08-07T16:50:19Z</time>
      </trkpt>
      <trkpt lat="45.85044" lon="3.03334">
        <ele>647.4</ele>
        <time>2025-08-07T16:50:20Z</time>
      </trkpt>
      <trkpt lat="45.85048" lon="3.03331">
        <ele>647.6</ele>
        <time>2025-08-07T16:50:21Z</time>
      </trkpt>
      <trkpt lat="45.85052" lon="3.03327">
        <ele>647.8</ele>
        <time>2025-08-07T16:50:22Z</time>
      </trkpt>
      <trkpt lat="45.85057" lon="3.03323">
        <ele>648</ele>
        <time>2025-08-07T16:50:23Z</time>
      </trkpt>
      <trkpt lat="45.85061" lon="3.03319">
        <ele>648.2</ele>
        <time>2025-08-07T16:50:24Z</time>
      </trkpt>
      <trkpt lat="45.85065" lon="3.03314">
        <ele>648.4</ele>
        <time>2025-08-07T16:50:25Z</time>
      </trkpt>
      <trkpt lat="45.85069" lon="3.0331">
        <ele>648.6</ele>
        <time>2025-08-07T16:50:26Z</time>
      </trkpt>
      <trkpt lat="45.85074" lon="3.03308">
        <ele>648.8</ele>
        <time>2025-08-07T16:50:27Z</time>
      </trkpt>
      <trkpt lat="45.85077" lon="3.03305">
        <ele>649</ele>
        <time>2025-08-07T16:50:28Z</time>
      </trkpt>
      <trkpt lat="45.8508" lon="3.03303">
        <ele>649.4</ele>
        <time>2025-08-07T16:50:29Z</time>
      </trkpt>
      <trkpt lat="45.85082" lon="3.03299">
        <ele>649.8</ele>
        <time>2025-08-07T16:50:30Z</time>
      </trkpt>
      <trkpt lat="45.85084" lon="3.03295">
        <ele>650</ele>
        <time>2025-08-07T16:50:31Z</time>
      </trkpt>
      <trkpt lat="45.85086" lon="3.03291">
        <ele>650.4</ele>
        <time>2025-08-07T16:50:32Z</time>
      </trkpt>
      <trkpt lat="45.85089" lon="3.03287">
        <ele>650.6</ele>
        <time>2025-08-07T16:50:33Z</time>
      </trkpt>
      <trkpt lat="45.85091" lon="3.03283">
        <ele>650.8</ele>
        <time>2025-08-07T16:50:34Z</time>
      </trkpt>
      <trkpt lat="45.85094" lon="3.03278">
        <ele>651.2</ele>
        <time>2025-08-07T16:50:35Z</time>
      </trkpt>
      <trkpt lat="45.85096" lon="3.03274">
        <ele>651.4</ele>
        <time>2025-08-07T16:50:36Z</time>
      </trkpt>
      <trkpt lat="45.85098" lon="3.0327">
        <ele>651.6</ele>
        <time>2025-08-07T16:50:37Z</time>
      </trkpt>
      <trkpt lat="45.851" lon="3.03265">
        <ele>652</ele>
        <time>2025-08-07T16:50:38Z</time>
      </trkpt>
      <trkpt lat="45.85101" lon="3.03259">
        <ele>652.2</ele>
        <time>2025-08-07T16:50:39Z</time>
      </trkpt>
      <trkpt lat="45.85103" lon="3.03254">
        <ele>652.6</ele>
        <time>2025-08-07T16:50:40Z</time>
      </trkpt>
      <trkpt lat="45.85104" lon="3.03249">
        <ele>653</ele>
        <time>2025-08-07T16:50:41Z</time>
      </trkpt>
      <trkpt lat="45.85105" lon="3.03243">
        <ele>653.4</ele>
        <time>2025-08-07T16:50:42Z</time>
      </trkpt>
      <trkpt lat="45.85106" lon="3.03238">
        <ele>653.8</ele>
        <time>2025-08-07T16:50:43Z</time>
      </trkpt>
      <trkpt lat="45.85108" lon="3.03234">
        <ele>654.2</ele>
        <time>2025-08-07T16:50:44Z</time>
      </trkpt>
      <trkpt lat="45.85109" lon="3.03229">
        <ele>654.8</ele>
        <time>2025-08-07T16:50:45Z</time>
      </trkpt>
      <trkpt lat="45.85111" lon="3.03224">
        <ele>655.2</ele>
        <time>2025-08-07T16:50:46Z</time>
      </trkpt>
      <trkpt lat="45.85113" lon="3.03219">
        <ele>655.6</ele>
        <time>2025-08-07T16:50:47Z</time>
      </trkpt>
      <trkpt lat="45.85115" lon="3.03215">
        <ele>656</ele>
        <time>2025-08-07T16:50:48Z</time>
      </trkpt>
      <trkpt lat="45.85117" lon="3.0321">
        <ele>656.4</ele>
        <time>2025-08-07T16:50:49Z</time>
      </trkpt>
      <trkpt lat="45.85119" lon="3.03205">
        <ele>656.8</ele>
        <time>2025-08-07T16:50:50Z</time>
      </trkpt>
      <trkpt lat="45.85121" lon="3.032">
        <ele>657.2</ele>
        <time>2025-08-07T16:50:51Z</time>
      </trkpt>
      <trkpt lat="45.85122" lon="3.03196">
        <ele>657.4</ele>
        <time>2025-08-07T16:50:52Z</time>
      </trkpt>
      <trkpt lat="45.85122" lon="3.0319">
        <ele>657.6</ele>
        <time>2025-08-07T16:50:53Z</time>
      </trkpt>
      <trkpt lat="45.85123" lon="3.03185">
        <ele>658</ele>
        <time>2025-08-07T16:50:54Z</time>
      </trkpt>
      <trkpt lat="45.85123" lon="3.03179">
        <ele>658.4</ele>
        <time>2025-08-07T16:50:55Z</time>
      </trkpt>
      <trkpt lat="45.85125" lon="3.03174">
        <ele>658.6</ele>
        <time>2025-08-07T16:50:56Z</time>
      </trkpt>
      <trkpt lat="45.85126" lon="3.03169">
        <ele>659</ele>
        <time>2025-08-07T16:50:57Z</time>
      </trkpt>
      <trkpt lat="45.85128" lon="3.03164">
        <ele>659.2</ele>
        <time>2025-08-07T16:50:58Z</time>
      </trkpt>
      <trkpt lat="45.85128" lon="3.0316">
        <ele>659.4</ele>
        <time>2025-08-07T16:50:59Z</time>
      </trkpt>
      <trkpt lat="45.8513" lon="3.03156">
        <ele>659.8</ele>
        <time>2025-08-07T16:51:00Z</time>
      </trkpt>
      <trkpt lat="45.85131" lon="3.03152">
        <ele>659.8</ele>
        <time>2025-08-07T16:51:01Z</time>
      </trkpt>
      <trkpt lat="45.85134" lon="3.03148">
        <ele>660</ele>
        <time>2025-08-07T16:51:02Z</time>
      </trkpt>
      <trkpt lat="45.85137" lon="3.03146">
        <ele>660.2</ele>
        <time>2025-08-07T16:51:03Z</time>
      </trkpt>
      <trkpt lat="45.85141" lon="3.03143">
        <ele>660.4</ele>
        <time>2025-08-07T16:51:04Z</time>
      </trkpt>
      <trkpt lat="45.85144" lon="3.0314">
        <ele>660.6</ele>
        <time>2025-08-07T16:51:05Z</time>
      </trkpt>
      <trkpt lat="45.85146" lon="3.03138">
        <ele>660.8</ele>
        <time>2025-08-07T16:51:06Z</time>
      </trkpt>
      <trkpt lat="45.8515" lon="3.03135">
        <ele>661</ele>
        <time>2025-08-07T16:51:07Z</time>
      </trkpt>
      <trkpt lat="45.85154" lon="3.03132">
        <ele>661</ele>
        <time>2025-08-07T16:51:08Z</time>
      </trkpt>
      <trkpt lat="45.85158" lon="3.0313">
        <ele>661.2</ele>
        <time>2025-08-07T16:51:09Z</time>
      </trkpt>
      <trkpt lat="45.8516" lon="3.03128">
        <ele>661.4</ele>
        <time>2025-08-07T16:51:10Z</time>
      </trkpt>
      <trkpt lat="45.85163" lon="3.03128">
        <ele>661.6</ele>
        <time>2025-08-07T16:51:11Z</time>
      </trkpt>
      <trkpt lat="45.85167" lon="3.03126">
        <ele>662</ele>
        <time>2025-08-07T16:51:12Z</time>
      </trkpt>
      <trkpt lat="45.8517" lon="3.03124">
        <ele>662.2</ele>
        <time>2025-08-07T16:51:13Z</time>
      </trkpt>
      <trkpt lat="45.85174" lon="3.03121">
        <ele>662.4</ele>
        <time>2025-08-07T16:51:14Z</time>
      </trkpt>
      <trkpt lat="45.85177" lon="3.03118">
        <ele>662.6</ele>
        <time>2025-08-07T16:51:15Z</time>
      </trkpt>
      <trkpt lat="45.85179" lon="3.03117">
        <ele>662.8</ele>
        <time>2025-08-07T16:51:16Z</time>
      </trkpt>
      <trkpt lat="45.85181" lon="3.03116">
        <ele>663</ele>
        <time>2025-08-07T16:51:17Z</time>
      </trkpt>
      <trkpt lat="45.85184" lon="3.03114">
        <ele>663.2</ele>
        <time>2025-08-07T16:51:18Z</time>
      </trkpt>
      <trkpt lat="45.85187" lon="3.03111">
        <ele>663.4</ele>
        <time>2025-08-07T16:51:19Z</time>
      </trkpt>
      <trkpt lat="45.8519" lon="3.03111">
        <ele>663.8</ele>
        <time>2025-08-07T16:51:20Z</time>
      </trkpt>
      <trkpt lat="45.85193" lon="3.0311">
        <ele>664</ele>
        <time>2025-08-07T16:51:21Z</time>
      </trkpt>
      <trkpt lat="45.85196" lon="3.0311">
        <ele>664.4</ele>
        <time>2025-08-07T16:51:22Z</time>
      </trkpt>
      <trkpt lat="45.85197" lon="3.03111">
        <ele>664.6</ele>
        <time>2025-08-07T16:51:23Z</time>
      </trkpt>
      <trkpt lat="45.85198" lon="3.03113">
        <ele>664.8</ele>
        <time>2025-08-07T16:51:24Z</time>
      </trkpt>
      <trkpt lat="45.852" lon="3.03115">
        <ele>665</ele>
        <time>2025-08-07T16:51:25Z</time>
      </trkpt>
      <trkpt lat="45.85204" lon="3.03117">
        <ele>665.4</ele>
        <time>2025-08-07T16:51:26Z</time>
      </trkpt>
      <trkpt lat="45.85206" lon="3.03117">
        <ele>665.8</ele>
        <time>2025-08-07T16:51:27Z</time>
      </trkpt>
      <trkpt lat="45.85211" lon="3.03118">
        <ele>666</ele>
        <time>2025-08-07T16:51:28Z</time>
      </trkpt>
      <trkpt lat="45.85213" lon="3.03121">
        <ele>666.4</ele>
        <time>2025-08-07T16:51:29Z</time>
      </trkpt>
      <trkpt lat="45.85214" lon="3.03123">
        <ele>666.8</ele>
        <time>2025-08-07T16:51:30Z</time>
      </trkpt>
      <trkpt lat="45.85216" lon="3.03126">
        <ele>667.2</ele>
        <time>2025-08-07T16:51:31Z</time>
      </trkpt>
      <trkpt lat="45.85219" lon="3.0313">
        <ele>667.6</ele>
        <time>2025-08-07T16:51:32Z</time>
      </trkpt>
      <trkpt lat="45.85221" lon="3.03134">
        <ele>668</ele>
        <time>2025-08-07T16:51:33Z</time>
      </trkpt>
      <trkpt lat="45.85226" lon="3.03135">
        <ele>668.4</ele>
        <time>2025-08-07T16:51:34Z</time>
      </trkpt>
      <trkpt lat="45.85229" lon="3.03134">
        <ele>668.8</ele>
        <time>2025-08-07T16:51:35Z</time>
      </trkpt>
      <trkpt lat="45.85232" lon="3.03134">
        <ele>669.4</ele>
        <time>2025-08-07T16:51:36Z</time>
      </trkpt>
      <trkpt lat="45.85236" lon="3.03132">
        <ele>669.8</ele>
        <time>2025-08-07T16:51:37Z</time>
      </trkpt>
      <trkpt lat="45.8524" lon="3.03131">
        <ele>670.4</ele>
        <time>2025-08-07T16:51:38Z</time>
      </trkpt>
      <trkpt lat="45.85244" lon="3.03129">
        <ele>670.8</ele>
        <time>2025-08-07T16:51:39Z</time>
      </trkpt>
      <trkpt lat="45.85246" lon="3.03128">
        <ele>671.2</ele>
        <time>2025-08-07T16:51:40Z</time>
      </trkpt>
      <trkpt lat="45.85248" lon="3.03127">
        <ele>671.6</ele>
        <time>2025-08-07T16:51:41Z</time>
      </trkpt>
      <trkpt lat="45.85252" lon="3.03126">
        <ele>672.2</ele>
        <time>2025-08-07T16:51:42Z</time>
      </trkpt>
      <trkpt lat="45.85255" lon="3.03126">
        <ele>672.6</ele>
        <time>2025-08-07T16:51:43Z</time>
      </trkpt>
      <trkpt lat="45.85257" lon="3.03126">
        <ele>673</ele>
        <time>2025-08-07T16:51:44Z</time>
      </trkpt>
      <trkpt lat="45.8526" lon="3.03127">
        <ele>673.4</ele>
        <time>2025-08-07T16:51:45Z</time>
      </trkpt>
      <trkpt lat="45.85262" lon="3.03127">
        <ele>673.6</ele>
        <time>2025-08-07T16:51:46Z</time>
      </trkpt>
      <trkpt lat="45.85266" lon="3.03126">
        <ele>674</ele>
        <time>2025-08-07T16:51:47Z</time>
      </trkpt>
      <trkpt lat="45.85269" lon="3.03123">
        <ele>674.2</ele>
        <time>2025-08-07T16:51:48Z</time>
      </trkpt>
      <trkpt lat="45.85271" lon="3.03121">
        <ele>674.6</ele>
        <time>2025-08-07T16:51:49Z</time>
      </trkpt>
      <trkpt lat="45.85272" lon="3.03119">
        <ele>674.8</ele>
        <time>2025-08-07T16:51:50Z</time>
      </trkpt>
      <trkpt lat="45.85274" lon="3.03117">
        <ele>675.2</ele>
        <time>2025-08-07T16:51:51Z</time>
      </trkpt>
      <trkpt lat="45.85276" lon="3.03116">
        <ele>675.4</ele>
        <time>2025-08-07T16:51:52Z</time>
      </trkpt>
      <trkpt lat="45.85277" lon="3.03115">
        <ele>675.8</ele>
        <time>2025-08-07T16:51:53Z</time>
      </trkpt>
      <trkpt lat="45.85279" lon="3.03113">
        <ele>676</ele>
        <time>2025-08-07T16:51:54Z</time>
      </trkpt>
      <trkpt lat="45.8528" lon="3.03111">
        <ele>676.4</ele>
        <time>2025-08-07T16:51:55Z</time>
      </trkpt>
      <trkpt lat="45.85281" lon="3.0311">
        <ele>676.6</ele>
        <time>2025-08-07T16:51:56Z</time>
      </trkpt>
      <trkpt lat="45.85282" lon="3.03109">
        <ele>676.8</ele>
        <time>2025-08-07T16:51:57Z</time>
      </trkpt>
      <trkpt lat="45.85283" lon="3.03108">
        <ele>677</ele>
        <time>2025-08-07T16:51:58Z</time>
      </trkpt>
      <trkpt lat="45.85283" lon="3.03108">
        <ele>677.2</ele>
        <time>2025-08-07T16:51:59Z</time>
      </trkpt>
      <trkpt lat="45.85283" lon="3.03108">
        <ele>677.2</ele>
        <time>2025-08-07T16:52:00Z</time>
      </trkpt>
      <trkpt lat="45.85283" lon="3.03108">
        <ele>677.4</ele>
        <time>2025-08-07T16:52:01Z</time>
      </trkpt>
      <trkpt lat="45.85283" lon="3.03108">
        <ele>677.4</ele>
        <time>2025-08-07T16:52:02Z</time>
      </trkpt>
      <trkpt lat="45.85283" lon="3.03108">
        <ele>677.4</ele>
        <time>2025-08-07T16:52:03Z</time>
      </trkpt>
      <trkpt lat="45.85283" lon="3.03108">
        <ele>677.4</ele>
        <time>2025-08-07T16:52:04Z</time>
      </trkpt>
      <trkpt lat="45.85285" lon="3.03106">
        <ele>678</ele>
        <time>2025-08-07T16:52:18Z</time>
      </trkpt>
      <trkpt lat="45.85286" lon="3.03104">
        <ele>678</ele>
        <time>2025-08-07T16:52:19Z</time>
      </trkpt>
      <trkpt lat="45.85286" lon="3.03102">
        <ele>678.2</ele>
        <time>2025-08-07T16:52:20Z</time>
      </trkpt>
      <trkpt lat="45.85287" lon="3.031">
        <ele>678.4</ele>
        <time>2025-08-07T16:52:21Z</time>
      </trkpt>
      <trkpt lat="45.85287" lon="3.03099">
        <ele>678.4</ele>
        <time>2025-08-07T16:52:22Z</time>
      </trkpt>
      <trkpt lat="45.85288" lon="3.03096">
        <ele>678.8</ele>
        <time>2025-08-07T16:52:23Z</time>
      </trkpt>
      <trkpt lat="45.85289" lon="3.03093">
        <ele>679</ele>
        <time>2025-08-07T16:52:24Z</time>
      </trkpt>
      <trkpt lat="45.85289" lon="3.03089">
        <ele>679.2</ele>
        <time>2025-08-07T16:52:25Z</time>
      </trkpt>
      <trkpt lat="45.85289" lon="3.03085">
        <ele>679.4</ele>
        <time>2025-08-07T16:52:26Z</time>
      </trkpt>
      <trkpt lat="45.85288" lon="3.03083">
        <ele>679.4</ele>
        <time>2025-08-07T16:52:27Z</time>
      </trkpt>
      <trkpt lat="45.85288" lon="3.0308">
        <ele>679.6</ele>
        <time>2025-08-07T16:52:28Z</time>
      </trkpt>
      <trkpt lat="45.85288" lon="3.03077">
        <ele>679.8</ele>
        <time>2025-08-07T16:52:29Z</time>
      </trkpt>
      <trkpt lat="45.85287" lon="3.03073">
        <ele>679.8</ele>
        <time>2025-08-07T16:52:30Z</time>
      </trkpt>
      <trkpt lat="45.85286" lon="3.03069">
        <ele>680.2</ele>
        <time>2025-08-07T16:52:31Z</time>
      </trkpt>
      <trkpt lat="45.85286" lon="3.03065">
        <ele>680.4</ele>
        <time>2025-08-07T16:52:32Z</time>
      </trkpt>
      <trkpt lat="45.85286" lon="3.03062">
        <ele>680.8</ele>
        <time>2025-08-07T16:52:33Z</time>
      </trkpt>
      <trkpt lat="45.85286" lon="3.03059">
        <ele>681</ele>
        <time>2025-08-07T16:52:34Z</time>
      </trkpt>
      <trkpt lat="45.85286" lon="3.03056">
        <ele>681.2</ele>
        <time>2025-08-07T16:52:35Z</time>
      </trkpt>
      <trkpt lat="45.85286" lon="3.03053">
        <ele>681.4</ele>
        <time>2025-08-07T16:52:36Z</time>
      </trkpt>
      <trkpt lat="45.85287" lon="3.0305">
        <ele>681.6</ele>
        <time>2025-08-07T16:52:37Z</time>
      </trkpt>
      <trkpt lat="45.85287" lon="3.03048">
        <ele>682</ele>
        <time>2025-08-07T16:52:38Z</time>
      </trkpt>
      <trkpt lat="45.85287" lon="3.03046">
        <ele>682.2</ele>
        <time>2025-08-07T16:52:39Z</time>
      </trkpt>
      <trkpt lat="45.85287" lon="3.03043">
        <ele>682.4</ele>
        <time>2025-08-07T16:52:40Z</time>
      </trkpt>
      <trkpt lat="45.85287" lon="3.0304">
        <ele>682.6</ele>
        <time>2025-08-07T16:52:41Z</time>
      </trkpt>
      <trkpt lat="45.85288" lon="3.03036">
        <ele>682.8</ele>
        <time>2025-08-07T16:52:42Z</time>
      </trkpt>
      <trkpt lat="45.85288" lon="3.03032">
        <ele>683</ele>
        <time>2025-08-07T16:52:43Z</time>
      </trkpt>
      <trkpt lat="45.85289" lon="3.03029">
        <ele>683.2</ele>
        <time>2025-08-07T16:52:44Z</time>
      </trkpt>
      <trkpt lat="45.85289" lon="3.03025">
        <ele>683.4</ele>
        <time>2025-08-07T16:52:45Z</time>
      </trkpt>
      <trkpt lat="45.85289" lon="3.03021">
        <ele>683.6</ele>
        <time>2025-08-07T16:52:46Z</time>
      </trkpt>
      <trkpt lat="45.85289" lon="3.03017">
        <ele>684</ele>
        <time>2025-08-07T16:52:47Z</time>
      </trkpt>
      <trkpt lat="45.85289" lon="3.03012">
        <ele>684.2</ele>
        <time>2025-08-07T16:52:48Z</time>
      </trkpt>
      <trkpt lat="45.8529" lon="3.03006">
        <ele>684.6</ele>
        <time>2025-08-07T16:52:49Z</time>
      </trkpt>
      <trkpt lat="45.85291" lon="3.03002">
        <ele>684.8</ele>
        <time>2025-08-07T16:52:50Z</time>
      </trkpt>
      <trkpt lat="45.85292" lon="3.02999">
        <ele>685</ele>
        <time>2025-08-07T16:52:51Z</time>
      </trkpt>
      <trkpt lat="45.85293" lon="3.02996">
        <ele>685.2</ele>
        <time>2025-08-07T16:52:52Z</time>
      </trkpt>
      <trkpt lat="45.85295" lon="3.02992">
        <ele>685.6</ele>
        <time>2025-08-07T16:52:53Z</time>
      </trkpt>
      <trkpt lat="45.85298" lon="3.02988">
        <ele>686</ele>
        <time>2025-08-07T16:52:54Z</time>
      </trkpt>
      <trkpt lat="45.85301" lon="3.02983">
        <ele>686.2</ele>
        <time>2025-08-07T16:52:55Z</time>
      </trkpt>
      <trkpt lat="45.85303" lon="3.02979">
        <ele>686.6</ele>
        <time>2025-08-07T16:52:56Z</time>
      </trkpt>
      <trkpt lat="45.85306" lon="3.02975">
        <ele>687</ele>
        <time>2025-08-07T16:52:57Z</time>
      </trkpt>
      <trkpt lat="45.85309" lon="3.02972">
        <ele>687.2</ele>
        <time>2025-08-07T16:52:58Z</time>
      </trkpt>
      <trkpt lat="45.85311" lon="3.0297">
        <ele>687.6</ele>
        <time>2025-08-07T16:52:59Z</time>
      </trkpt>
      <trkpt lat="45.85314" lon="3.02967">
        <ele>687.8</ele>
        <time>2025-08-07T16:53:00Z</time>
      </trkpt>
      <trkpt lat="45.85317" lon="3.02962">
        <ele>688</ele>
        <time>2025-08-07T16:53:01Z</time>
      </trkpt>
      <trkpt lat="45.85317" lon="3.02961">
        <ele>688.2</ele>
        <time>2025-08-07T16:53:02Z</time>
      </trkpt>
      <trkpt lat="45.85317" lon="3.02961">
        <ele>688.4</ele>
        <time>2025-08-07T16:53:03Z</time>
      </trkpt>
      <trkpt lat="45.85317" lon="3.02961">
        <ele>688.4</ele>
        <time>2025-08-07T16:53:04Z</time>
      </trkpt>
      <trkpt lat="45.85317" lon="3.02961">
        <ele>688.6</ele>
        <time>2025-08-07T16:53:07Z</time>
      </trkpt>
      <trkpt lat="45.85317" lon="3.02961">
        <ele>688.6</ele>
        <time>2025-08-07T16:53:08Z</time>
      </trkpt>
      <trkpt lat="45.85317" lon="3.02961">
        <ele>688.6</ele>
        <time>2025-08-07T16:53:09Z</time>
      </trkpt>
      <trkpt lat="45.85317" lon="3.02961">
        <ele>688.6</ele>
        <time>2025-08-07T16:53:10Z</time>
      </trkpt>
      <trkpt lat="45.85317" lon="3.02961">
        <ele>688.6</ele>
        <time>2025-08-07T16:53:11Z</time>
      </trkpt>
      <trkpt lat="45.85317" lon="3.02961">
        <ele>688.6</ele>
        <time>2025-08-07T16:53:12Z</time>
      </trkpt>
      <trkpt lat="45.85322" lon="3.0295">
        <ele>689</ele>
        <time>2025-08-07T16:53:34Z</time>
      </trkpt>
      <trkpt lat="45.85323" lon="3.02946">
        <ele>689</ele>
        <time>2025-08-07T16:53:35Z</time>
      </trkpt>
      <trkpt lat="45.85325" lon="3.02941">
        <ele>689.2</ele>
        <time>2025-08-07T16:53:36Z</time>
      </trkpt>
      <trkpt lat="45.85327" lon="3.02936">
        <ele>689.2</ele>
        <time>2025-08-07T16:53:37Z</time>
      </trkpt>
      <trkpt lat="45.85329" lon="3.02931">
        <ele>689.4</ele>
        <time>2025-08-07T16:53:38Z</time>
      </trkpt>
      <trkpt lat="45.85332" lon="3.02926">
        <ele>689.6</ele>
        <time>2025-08-07T16:53:39Z</time>
      </trkpt>
      <trkpt lat="45.85334" lon="3.02921">
        <ele>689.8</ele>
        <time>2025-08-07T16:53:40Z</time>
      </trkpt>
      <trkpt lat="45.85336" lon="3.02916">
        <ele>690</ele>
        <time>2025-08-07T16:53:41Z</time>
      </trkpt>
      <trkpt lat="45.85338" lon="3.02912">
        <ele>690.2</ele>
        <time>2025-08-07T16:53:42Z</time>
      </trkpt>
      <trkpt lat="45.8534" lon="3.02907">
        <ele>690.2</ele>
        <time>2025-08-07T16:53:43Z</time>
      </trkpt>
      <trkpt lat="45.85343" lon="3.02902">
        <ele>690.4</ele>
        <time>2025-08-07T16:53:44Z</time>
      </trkpt>
      <trkpt lat="45.85346" lon="3.02897">
        <ele>690.6</ele>
        <time>2025-08-07T16:53:45Z</time>
      </trkpt>
      <trkpt lat="45.85348" lon="3.02892">
        <ele>690.8</ele>
        <time>2025-08-07T16:53:46Z</time>
      </trkpt>
      <trkpt lat="45.8535" lon="3.02886">
        <ele>691</ele>
        <time>2025-08-07T16:53:47Z</time>
      </trkpt>
      <trkpt lat="45.85352" lon="3.02881">
        <ele>691.2</ele>
        <time>2025-08-07T16:53:48Z</time>
      </trkpt>
      <trkpt lat="45.85354" lon="3.02877">
        <ele>691.6</ele>
        <time>2025-08-07T16:53:49Z</time>
      </trkpt>
      <trkpt lat="45.85356" lon="3.02872">
        <ele>691.8</ele>
        <time>2025-08-07T16:53:50Z</time>
      </trkpt>
      <trkpt lat="45.85357" lon="3.02867">
        <ele>692</ele>
        <time>2025-08-07T16:53:51Z</time>
      </trkpt>
      <trkpt lat="45.85358" lon="3.02863">
        <ele>692.4</ele>
        <time>2025-08-07T16:53:52Z</time>
      </trkpt>
      <trkpt lat="45.8536" lon="3.02859">
        <ele>692.6</ele>
        <time>2025-08-07T16:53:53Z</time>
      </trkpt>
      <trkpt lat="45.85363" lon="3.02854">
        <ele>692.8</ele>
        <time>2025-08-07T16:53:54Z</time>
      </trkpt>
      <trkpt lat="45.85364" lon="3.02849">
        <ele>693</ele>
        <time>2025-08-07T16:53:55Z</time>
      </trkpt>
      <trkpt lat="45.85367" lon="3.02844">
        <ele>693.2</ele>
        <time>2025-08-07T16:53:56Z</time>
      </trkpt>
      <trkpt lat="45.85369" lon="3.02838">
        <ele>693.4</ele>
        <time>2025-08-07T16:53:57Z</time>
      </trkpt>
      <trkpt lat="45.85371" lon="3.02832">
        <ele>693.4</ele>
        <time>2025-08-07T16:53:58Z</time>
      </trkpt>
      <trkpt lat="45.85374" lon="3.02826">
        <ele>693.6</ele>
        <time>2025-08-07T16:53:59Z</time>
      </trkpt>
      <trkpt lat="45.85377" lon="3.0282">
        <ele>693.8</ele>
        <time>2025-08-07T16:54:00Z</time>
      </trkpt>
      <trkpt lat="45.85379" lon="3.02812">
        <ele>693.8</ele>
        <time>2025-08-07T16:54:01Z</time>
      </trkpt>
      <trkpt lat="45.85383" lon="3.02806">
        <ele>693.8</ele>
        <time>2025-08-07T16:54:02Z</time>
      </trkpt>
      <trkpt lat="45.85388" lon="3.02798">
        <ele>693.8</ele>
        <time>2025-08-07T16:54:03Z</time>
      </trkpt>
      <trkpt lat="45.85392" lon="3.02792">
        <ele>694</ele>
        <time>2025-08-07T16:54:04Z</time>
      </trkpt>
      <trkpt lat="45.85394" lon="3.02785">
        <ele>693.8</ele>
        <time>2025-08-07T16:54:05Z</time>
      </trkpt>
      <trkpt lat="45.85397" lon="3.0278">
        <ele>693.8</ele>
        <time>2025-08-07T16:54:06Z</time>
      </trkpt>
      <trkpt lat="45.85401" lon="3.02775">
        <ele>693.8</ele>
        <time>2025-08-07T16:54:07Z</time>
      </trkpt>
      <trkpt lat="45.85403" lon="3.02769">
        <ele>693.8</ele>
        <time>2025-08-07T16:54:08Z</time>
      </trkpt>
      <trkpt lat="45.85406" lon="3.02764">
        <ele>693.8</ele>
        <time>2025-08-07T16:54:09Z</time>
      </trkpt>
      <trkpt lat="45.85408" lon="3.02759">
        <ele>693.8</ele>
        <time>2025-08-07T16:54:10Z</time>
      </trkpt>
      <trkpt lat="45.8541" lon="3.02755">
        <ele>693.8</ele>
        <time>2025-08-07T16:54:11Z</time>
      </trkpt>
      <trkpt lat="45.85414" lon="3.02751">
        <ele>693.8</ele>
        <time>2025-08-07T16:54:12Z</time>
      </trkpt>
      <trkpt lat="45.85418" lon="3.02746">
        <ele>693.8</ele>
        <time>2025-08-07T16:54:13Z</time>
      </trkpt>
      <trkpt lat="45.85421" lon="3.02742">
        <ele>693.8</ele>
        <time>2025-08-07T16:54:14Z</time>
      </trkpt>
      <trkpt lat="45.85423" lon="3.02738">
        <ele>693.8</ele>
        <time>2025-08-07T16:54:15Z</time>
      </trkpt>
      <trkpt lat="45.85427" lon="3.02732">
        <ele>694</ele>
        <time>2025-08-07T16:54:16Z</time>
      </trkpt>
      <trkpt lat="45.85431" lon="3.02725">
        <ele>694</ele>
        <time>2025-08-07T16:54:17Z</time>
      </trkpt>
      <trkpt lat="45.85434" lon="3.02718">
        <ele>694</ele>
        <time>2025-08-07T16:54:18Z</time>
      </trkpt>
      <trkpt lat="45.85437" lon="3.02713">
        <ele>694.2</ele>
        <time>2025-08-07T16:54:19Z</time>
      </trkpt>
      <trkpt lat="45.85439" lon="3.02709">
        <ele>694.2</ele>
        <time>2025-08-07T16:54:20Z</time>
      </trkpt>
      <trkpt lat="45.85441" lon="3.02704">
        <ele>694.4</ele>
        <time>2025-08-07T16:54:21Z</time>
      </trkpt>
      <trkpt lat="45.85447" lon="3.02696">
        <ele>694.4</ele>
        <time>2025-08-07T16:54:22Z</time>
      </trkpt>
      <trkpt lat="45.85449" lon="3.0269">
        <ele>694.4</ele>
        <time>2025-08-07T16:54:23Z</time>
      </trkpt>
      <trkpt lat="45.85453" lon="3.02684">
        <ele>694.6</ele>
        <time>2025-08-07T16:54:24Z</time>
      </trkpt>
      <trkpt lat="45.85455" lon="3.0268">
        <ele>694.8</ele>
        <time>2025-08-07T16:54:25Z</time>
      </trkpt>
      <trkpt lat="45.85458" lon="3.02674">
        <ele>694.8</ele>
        <time>2025-08-07T16:54:26Z</time>
      </trkpt>
      <trkpt lat="45.85461" lon="3.02668">
        <ele>694.8</ele>
        <time>2025-08-07T16:54:27Z</time>
      </trkpt>
      <trkpt lat="45.85463" lon="3.02661">
        <ele>694.8</ele>
        <time>2025-08-07T16:54:28Z</time>
      </trkpt>
      <trkpt lat="45.85466" lon="3.02655">
        <ele>694.8</ele>
        <time>2025-08-07T16:54:29Z</time>
      </trkpt>
      <trkpt lat="45.85468" lon="3.02649">
        <ele>695</ele>
        <time>2025-08-07T16:54:30Z</time>
      </trkpt>
      <trkpt lat="45.85471" lon="3.02644">
        <ele>695</ele>
        <time>2025-08-07T16:54:31Z</time>
      </trkpt>
      <trkpt lat="45.85474" lon="3.02639">
        <ele>695</ele>
        <time>2025-08-07T16:54:32Z</time>
      </trkpt>
      <trkpt lat="45.85481" lon="3.02633">
        <ele>695.2</ele>
        <time>2025-08-07T16:54:33Z</time>
      </trkpt>
      <trkpt lat="45.85483" lon="3.02628">
        <ele>695.4</ele>
        <time>2025-08-07T16:54:34Z</time>
      </trkpt>
      <trkpt lat="45.8549" lon="3.02624">
        <ele>695.4</ele>
        <time>2025-08-07T16:54:35Z</time>
      </trkpt>
      <trkpt lat="45.85493" lon="3.0262">
        <ele>695.6</ele>
        <time>2025-08-07T16:54:36Z</time>
      </trkpt>
      <trkpt lat="45.85496" lon="3.02618">
        <ele>695.6</ele>
        <time>2025-08-07T16:54:37Z</time>
      </trkpt>
      <trkpt lat="45.85499" lon="3.02617">
        <ele>695.8</ele>
        <time>2025-08-07T16:54:38Z</time>
      </trkpt>
      <trkpt lat="45.85502" lon="3.02615">
        <ele>695.8</ele>
        <time>2025-08-07T16:54:39Z</time>
      </trkpt>
      <trkpt lat="45.85506" lon="3.02613">
        <ele>696</ele>
        <time>2025-08-07T16:54:40Z</time>
      </trkpt>
      <trkpt lat="45.85509" lon="3.02613">
        <ele>696.2</ele>
        <time>2025-08-07T16:54:41Z</time>
      </trkpt>
      <trkpt lat="45.85513" lon="3.02611">
        <ele>696.6</ele>
        <time>2025-08-07T16:54:42Z</time>
      </trkpt>
      <trkpt lat="45.85516" lon="3.02609">
        <ele>697</ele>
        <time>2025-08-07T16:54:43Z</time>
      </trkpt>
      <trkpt lat="45.8552" lon="3.02604">
        <ele>697.4</ele>
        <time>2025-08-07T16:54:44Z</time>
      </trkpt>
      <trkpt lat="45.85525" lon="3.02598">
        <ele>697.8</ele>
        <time>2025-08-07T16:54:45Z</time>
      </trkpt>
      <trkpt lat="45.85528" lon="3.02593">
        <ele>698.2</ele>
        <time>2025-08-07T16:54:46Z</time>
      </trkpt>
      <trkpt lat="45.85527" lon="3.02588">
        <ele>698.8</ele>
        <time>2025-08-07T16:54:47Z</time>
      </trkpt>
      <trkpt lat="45.85528" lon="3.02584">
        <ele>699.2</ele>
        <time>2025-08-07T16:54:48Z</time>
      </trkpt>
      <trkpt lat="45.8553" lon="3.02579">
        <ele>699.8</ele>
        <time>2025-08-07T16:54:49Z</time>
      </trkpt>
      <trkpt lat="45.85532" lon="3.02574">
        <ele>700.2</ele>
        <time>2025-08-07T16:54:50Z</time>
      </trkpt>
      <trkpt lat="45.85534" lon="3.02569">
        <ele>700.8</ele>
        <time>2025-08-07T16:54:51Z</time>
      </trkpt>
      <trkpt lat="45.85536" lon="3.02565">
        <ele>701.4</ele>
        <time>2025-08-07T16:54:52Z</time>
      </trkpt>
      <trkpt lat="45.85537" lon="3.02561">
        <ele>701.8</ele>
        <time>2025-08-07T16:54:53Z</time>
      </trkpt>
      <trkpt lat="45.85538" lon="3.02557">
        <ele>702.4</ele>
        <time>2025-08-07T16:54:54Z</time>
      </trkpt>
      <trkpt lat="45.85541" lon="3.02554">
        <ele>702.8</ele>
        <time>2025-08-07T16:54:55Z</time>
      </trkpt>
      <trkpt lat="45.85543" lon="3.0255">
        <ele>703.2</ele>
        <time>2025-08-07T16:54:56Z</time>
      </trkpt>
      <trkpt lat="45.85543" lon="3.02547">
        <ele>703.8</ele>
        <time>2025-08-07T16:54:57Z</time>
      </trkpt>
      <trkpt lat="45.85546" lon="3.02543">
        <ele>704.2</ele>
        <time>2025-08-07T16:54:58Z</time>
      </trkpt>
      <trkpt lat="45.85548" lon="3.02539">
        <ele>704.6</ele>
        <time>2025-08-07T16:54:59Z</time>
      </trkpt>
      <trkpt lat="45.8555" lon="3.02535">
        <ele>705</ele>
        <time>2025-08-07T16:55:00Z</time>
      </trkpt>
      <trkpt lat="45.85552" lon="3.02532">
        <ele>705.6</ele>
        <time>2025-08-07T16:55:01Z</time>
      </trkpt>
      <trkpt lat="45.85555" lon="3.02528">
        <ele>706</ele>
        <time>2025-08-07T16:55:02Z</time>
      </trkpt>
      <trkpt lat="45.85558" lon="3.02524">
        <ele>706.4</ele>
        <time>2025-08-07T16:55:03Z</time>
      </trkpt>
      <trkpt lat="45.85561" lon="3.02521">
        <ele>706.8</ele>
        <time>2025-08-07T16:55:04Z</time>
      </trkpt>
      <trkpt lat="45.85564" lon="3.02517">
        <ele>707.2</ele>
        <time>2025-08-07T16:55:05Z</time>
      </trkpt>
      <trkpt lat="45.85566" lon="3.02514">
        <ele>707.4</ele>
        <time>2025-08-07T16:55:06Z</time>
      </trkpt>
      <trkpt lat="45.85569" lon="3.0251">
        <ele>707.8</ele>
        <time>2025-08-07T16:55:07Z</time>
      </trkpt>
      <trkpt lat="45.85573" lon="3.02506">
        <ele>708.2</ele>
        <time>2025-08-07T16:55:08Z</time>
      </trkpt>
      <trkpt lat="45.85575" lon="3.02503">
        <ele>708.4</ele>
        <time>2025-08-07T16:55:09Z</time>
      </trkpt>
      <trkpt lat="45.85578" lon="3.02499">
        <ele>708.8</ele>
        <time>2025-08-07T16:55:10Z</time>
      </trkpt>
      <trkpt lat="45.85577" lon="3.02495">
        <ele>709</ele>
        <time>2025-08-07T16:55:11Z</time>
      </trkpt>
      <trkpt lat="45.85579" lon="3.02492">
        <ele>709.4</ele>
        <time>2025-08-07T16:55:12Z</time>
      </trkpt>
      <trkpt lat="45.8558" lon="3.02489">
        <ele>709.6</ele>
        <time>2025-08-07T16:55:13Z</time>
      </trkpt>
      <trkpt lat="45.85583" lon="3.02486">
        <ele>709.8</ele>
        <time>2025-08-07T16:55:14Z</time>
      </trkpt>
      <trkpt lat="45.85586" lon="3.02483">
        <ele>710.2</ele>
        <time>2025-08-07T16:55:15Z</time>
      </trkpt>
      <trkpt lat="45.85588" lon="3.02479">
        <ele>710.6</ele>
        <time>2025-08-07T16:55:16Z</time>
      </trkpt>
      <trkpt lat="45.8559" lon="3.02476">
        <ele>710.8</ele>
        <time>2025-08-07T16:55:17Z</time>
      </trkpt>
      <trkpt lat="45.85592" lon="3.02473">
        <ele>711</ele>
        <time>2025-08-07T16:55:18Z</time>
      </trkpt>
      <trkpt lat="45.85594" lon="3.0247">
        <ele>711.2</ele>
        <time>2025-08-07T16:55:19Z</time>
      </trkpt>
      <trkpt lat="45.85597" lon="3.02465">
        <ele>711.4</ele>
        <time>2025-08-07T16:55:20Z</time>
      </trkpt>
      <trkpt lat="45.85599" lon="3.02461">
        <ele>711.6</ele>
        <time>2025-08-07T16:55:21Z</time>
      </trkpt>
      <trkpt lat="45.85602" lon="3.02457">
        <ele>711.8</ele>
        <time>2025-08-07T16:55:22Z</time>
      </trkpt>
      <trkpt lat="45.85604" lon="3.02452">
        <ele>712.2</ele>
        <time>2025-08-07T16:55:23Z</time>
      </trkpt>
      <trkpt lat="45.85607" lon="3.02448">
        <ele>712.4</ele>
        <time>2025-08-07T16:55:24Z</time>
      </trkpt>
      <trkpt lat="45.85609" lon="3.02443">
        <ele>712.8</ele>
        <time>2025-08-07T16:55:25Z</time>
      </trkpt>
      <trkpt lat="45.85611" lon="3.02438">
        <ele>713</ele>
        <time>2025-08-07T16:55:26Z</time>
      </trkpt>
      <trkpt lat="45.85614" lon="3.02433">
        <ele>713.4</ele>
        <time>2025-08-07T16:55:27Z</time>
      </trkpt>
      <trkpt lat="45.85615" lon="3.02429">
        <ele>713.8</ele>
        <time>2025-08-07T16:55:28Z</time>
      </trkpt>
      <trkpt lat="45.85617" lon="3.02425">
        <ele>714.2</ele>
        <time>2025-08-07T16:55:29Z</time>
      </trkpt>
      <trkpt lat="45.85619" lon="3.02421">
        <ele>714.6</ele>
        <time>2025-08-07T16:55:30Z</time>
      </trkpt>
      <trkpt lat="45.85619" lon="3.02416">
        <ele>715</ele>
        <time>2025-08-07T16:55:31Z</time>
      </trkpt>
      <trkpt lat="45.8562" lon="3.02412">
        <ele>715.4</ele>
        <time>2025-08-07T16:55:32Z</time>
      </trkpt>
      <trkpt lat="45.85622" lon="3.02407">
        <ele>715.8</ele>
        <time>2025-08-07T16:55:33Z</time>
      </trkpt>
      <trkpt lat="45.85624" lon="3.02402">
        <ele>716</ele>
        <time>2025-08-07T16:55:34Z</time>
      </trkpt>
      <trkpt lat="45.85625" lon="3.02397">
        <ele>716.4</ele>
        <time>2025-08-07T16:55:35Z</time>
      </trkpt>
      <trkpt lat="45.85628" lon="3.02393">
        <ele>716.8</ele>
        <time>2025-08-07T16:55:36Z</time>
      </trkpt>
      <trkpt lat="45.85631" lon="3.0239">
        <ele>717.2</ele>
        <time>2025-08-07T16:55:37Z</time>
      </trkpt>
      <trkpt lat="45.85635" lon="3.02387">
        <ele>717.8</ele>
        <time>2025-08-07T16:55:38Z</time>
      </trkpt>
      <trkpt lat="45.85638" lon="3.02385">
        <ele>718.2</ele>
        <time>2025-08-07T16:55:39Z</time>
      </trkpt>
      <trkpt lat="45.85641" lon="3.02383">
        <ele>718.8</ele>
        <time>2025-08-07T16:55:40Z</time>
      </trkpt>
      <trkpt lat="45.85646" lon="3.02381">
        <ele>719.4</ele>
        <time>2025-08-07T16:55:41Z</time>
      </trkpt>
      <trkpt lat="45.85649" lon="3.02379">
        <ele>719.8</ele>
        <time>2025-08-07T16:55:42Z</time>
      </trkpt>
      <trkpt lat="45.85651" lon="3.02376">
        <ele>720.4</ele>
        <time>2025-08-07T16:55:43Z</time>
      </trkpt>
      <trkpt lat="45.85654" lon="3.02373">
        <ele>720.8</ele>
        <time>2025-08-07T16:55:44Z</time>
      </trkpt>
      <trkpt lat="45.85657" lon="3.0237">
        <ele>721.2</ele>
        <time>2025-08-07T16:55:45Z</time>
      </trkpt>
      <trkpt lat="45.85661" lon="3.02368">
        <ele>721.8</ele>
        <time>2025-08-07T16:55:46Z</time>
      </trkpt>
      <trkpt lat="45.85664" lon="3.02366">
        <ele>722.2</ele>
        <time>2025-08-07T16:55:47Z</time>
      </trkpt>
      <trkpt lat="45.85667" lon="3.02363">
        <ele>722.6</ele>
        <time>2025-08-07T16:55:48Z</time>
      </trkpt>
      <trkpt lat="45.85671" lon="3.02362">
        <ele>723</ele>
        <time>2025-08-07T16:55:49Z</time>
      </trkpt>
      <trkpt lat="45.85674" lon="3.02359">
        <ele>723.6</ele>
        <time>2025-08-07T16:55:50Z</time>
      </trkpt>
      <trkpt lat="45.85677" lon="3.02356">
        <ele>724</ele>
        <time>2025-08-07T16:55:51Z</time>
      </trkpt>
      <trkpt lat="45.8568" lon="3.02353">
        <ele>724.4</ele>
        <time>2025-08-07T16:55:52Z</time>
      </trkpt>
      <trkpt lat="45.85682" lon="3.02351">
        <ele>724.8</ele>
        <time>2025-08-07T16:55:53Z</time>
      </trkpt>
      <trkpt lat="45.85684" lon="3.02348">
        <ele>725.2</ele>
        <time>2025-08-07T16:55:54Z</time>
      </trkpt>
      <trkpt lat="45.85685" lon="3.02344">
        <ele>725.6</ele>
        <time>2025-08-07T16:55:55Z</time>
      </trkpt>
      <trkpt lat="45.85685" lon="3.02339">
        <ele>726</ele>
        <time>2025-08-07T16:55:56Z</time>
      </trkpt>
      <trkpt lat="45.85685" lon="3.02334">
        <ele>726.4</ele>
        <time>2025-08-07T16:55:57Z</time>
      </trkpt>
      <trkpt lat="45.85685" lon="3.02328">
        <ele>726.8</ele>
        <time>2025-08-07T16:55:58Z</time>
      </trkpt>
      <trkpt lat="45.85686" lon="3.02323">
        <ele>727.4</ele>
        <time>2025-08-07T16:55:59Z</time>
      </trkpt>
      <trkpt lat="45.85687" lon="3.02318">
        <ele>727.8</ele>
        <time>2025-08-07T16:56:00Z</time>
      </trkpt>
      <trkpt lat="45.85689" lon="3.02314">
        <ele>728.4</ele>
        <time>2025-08-07T16:56:01Z</time>
      </trkpt>
      <trkpt lat="45.85691" lon="3.02309">
        <ele>728.6</ele>
        <time>2025-08-07T16:56:02Z</time>
      </trkpt>
      <trkpt lat="45.85692" lon="3.02303">
        <ele>729</ele>
        <time>2025-08-07T16:56:03Z</time>
      </trkpt>
      <trkpt lat="45.85694" lon="3.02298">
        <ele>729.4</ele>
        <time>2025-08-07T16:56:04Z</time>
      </trkpt>
      <trkpt lat="45.85696" lon="3.02291">
        <ele>729.8</ele>
        <time>2025-08-07T16:56:05Z</time>
      </trkpt>
      <trkpt lat="45.85698" lon="3.02284">
        <ele>730</ele>
        <time>2025-08-07T16:56:06Z</time>
      </trkpt>
      <trkpt lat="45.857" lon="3.02277">
        <ele>730.2</ele>
        <time>2025-08-07T16:56:07Z</time>
      </trkpt>
      <trkpt lat="45.85701" lon="3.0227">
        <ele>730.4</ele>
        <time>2025-08-07T16:56:08Z</time>
      </trkpt>
      <trkpt lat="45.85703" lon="3.02262">
        <ele>730.6</ele>
        <time>2025-08-07T16:56:09Z</time>
      </trkpt>
      <trkpt lat="45.85705" lon="3.02254">
        <ele>730.8</ele>
        <time>2025-08-07T16:56:10Z</time>
      </trkpt>
      <trkpt lat="45.85707" lon="3.02247">
        <ele>731</ele>
        <time>2025-08-07T16:56:11Z</time>
      </trkpt>
      <trkpt lat="45.85709" lon="3.0224">
        <ele>731.2</ele>
        <time>2025-08-07T16:56:12Z</time>
      </trkpt>
      <trkpt lat="45.85711" lon="3.02233">
        <ele>731.4</ele>
        <time>2025-08-07T16:56:13Z</time>
      </trkpt>
      <trkpt lat="45.85713" lon="3.02226">
        <ele>731.6</ele>
        <time>2025-08-07T16:56:14Z</time>
      </trkpt>
      <trkpt lat="45.85714" lon="3.0222">
        <ele>731.8</ele>
        <time>2025-08-07T16:56:15Z</time>
      </trkpt>
      <trkpt lat="45.85716" lon="3.02213">
        <ele>731.8</ele>
        <time>2025-08-07T16:56:16Z</time>
      </trkpt>
      <trkpt lat="45.85717" lon="3.02207">
        <ele>731.8</ele>
        <time>2025-08-07T16:56:17Z</time>
      </trkpt>
      <trkpt lat="45.85719" lon="3.02201">
        <ele>732</ele>
        <time>2025-08-07T16:56:18Z</time>
      </trkpt>
      <trkpt lat="45.8572" lon="3.02196">
        <ele>732</ele>
        <time>2025-08-07T16:56:19Z</time>
      </trkpt>
      <trkpt lat="45.85722" lon="3.02192">
        <ele>732</ele>
        <time>2025-08-07T16:56:20Z</time>
      </trkpt>
      <trkpt lat="45.85725" lon="3.02189">
        <ele>732</ele>
        <time>2025-08-07T16:56:21Z</time>
      </trkpt>
      <trkpt lat="45.85727" lon="3.02186">
        <ele>732</ele>
        <time>2025-08-07T16:56:22Z</time>
      </trkpt>
      <trkpt lat="45.85729" lon="3.02185">
        <ele>732</ele>
        <time>2025-08-07T16:56:23Z</time>
      </trkpt>
      <trkpt lat="45.8573" lon="3.02184">
        <ele>732</ele>
        <time>2025-08-07T16:56:24Z</time>
      </trkpt>
      <trkpt lat="45.85733" lon="3.02182">
        <ele>732</ele>
        <time>2025-08-07T16:56:48Z</time>
      </trkpt>
      <trkpt lat="45.85734" lon="3.0218">
        <ele>732</ele>
        <time>2025-08-07T16:56:49Z</time>
      </trkpt>
      <trkpt lat="45.85736" lon="3.02177">
        <ele>732</ele>
        <time>2025-08-07T16:56:50Z</time>
      </trkpt>
      <trkpt lat="45.85738" lon="3.02174">
        <ele>732</ele>
        <time>2025-08-07T16:56:51Z</time>
      </trkpt>
      <trkpt lat="45.85741" lon="3.0217">
        <ele>732.2</ele>
        <time>2025-08-07T16:56:52Z</time>
      </trkpt>
      <trkpt lat="45.85743" lon="3.02167">
        <ele>732.4</ele>
        <time>2025-08-07T16:56:53Z</time>
      </trkpt>
      <trkpt lat="45.85745" lon="3.02164">
        <ele>732.6</ele>
        <time>2025-08-07T16:56:54Z</time>
      </trkpt>
      <trkpt lat="45.85747" lon="3.0216">
        <ele>733</ele>
        <time>2025-08-07T16:56:55Z</time>
      </trkpt>
      <trkpt lat="45.8575" lon="3.02157">
        <ele>733.2</ele>
        <time>2025-08-07T16:56:56Z</time>
      </trkpt>
      <trkpt lat="45.85752" lon="3.02153">
        <ele>733.6</ele>
        <time>2025-08-07T16:56:57Z</time>
      </trkpt>
      <trkpt lat="45.85755" lon="3.02149">
        <ele>734</ele>
        <time>2025-08-07T16:56:58Z</time>
      </trkpt>
      <trkpt lat="45.85757" lon="3.02145">
        <ele>734.4</ele>
        <time>2025-08-07T16:56:59Z</time>
      </trkpt>
      <trkpt lat="45.85759" lon="3.0214">
        <ele>734.8</ele>
        <time>2025-08-07T16:57:00Z</time>
      </trkpt>
      <trkpt lat="45.85762" lon="3.02136">
        <ele>735.2</ele>
        <time>2025-08-07T16:57:01Z</time>
      </trkpt>
      <trkpt lat="45.85765" lon="3.02131">
        <ele>735.4</ele>
        <time>2025-08-07T16:57:02Z</time>
      </trkpt>
      <trkpt lat="45.85767" lon="3.02125">
        <ele>735.8</ele>
        <time>2025-08-07T16:57:03Z</time>
      </trkpt>
      <trkpt lat="45.8577" lon="3.0212">
        <ele>736</ele>
        <time>2025-08-07T16:57:04Z</time>
      </trkpt>
      <trkpt lat="45.85772" lon="3.02114">
        <ele>736.2</ele>
        <time>2025-08-07T16:57:05Z</time>
      </trkpt>
      <trkpt lat="45.85775" lon="3.02109">
        <ele>736.4</ele>
        <time>2025-08-07T16:57:06Z</time>
      </trkpt>
      <trkpt lat="45.85778" lon="3.02103">
        <ele>736.6</ele>
        <time>2025-08-07T16:57:07Z</time>
      </trkpt>
      <trkpt lat="45.8578" lon="3.02097">
        <ele>736.8</ele>
        <time>2025-08-07T16:57:08Z</time>
      </trkpt>
      <trkpt lat="45.85783" lon="3.02091">
        <ele>737</ele>
        <time>2025-08-07T16:57:09Z</time>
      </trkpt>
      <trkpt lat="45.85786" lon="3.02085">
        <ele>737.2</ele>
        <time>2025-08-07T16:57:10Z</time>
      </trkpt>
      <trkpt lat="45.85789" lon="3.02079">
        <ele>737.4</ele>
        <time>2025-08-07T16:57:11Z</time>
      </trkpt>
      <trkpt lat="45.85792" lon="3.02074">
        <ele>737.4</ele>
        <time>2025-08-07T16:57:12Z</time>
      </trkpt>
      <trkpt lat="45.85794" lon="3.02068">
        <ele>737.4</ele>
        <time>2025-08-07T16:57:13Z</time>
      </trkpt>
      <trkpt lat="45.85796" lon="3.02062">
        <ele>737.6</ele>
        <time>2025-08-07T16:57:14Z</time>
      </trkpt>
      <trkpt lat="45.85798" lon="3.02056">
        <ele>737.6</ele>
        <time>2025-08-07T16:57:15Z</time>
      </trkpt>
      <trkpt lat="45.85801" lon="3.02049">
        <ele>737.8</ele>
        <time>2025-08-07T16:57:16Z</time>
      </trkpt>
      <trkpt lat="45.85803" lon="3.02043">
        <ele>737.8</ele>
        <time>2025-08-07T16:57:17Z</time>
      </trkpt>
      <trkpt lat="45.85805" lon="3.02037">
        <ele>738</ele>
        <time>2025-08-07T16:57:18Z</time>
      </trkpt>
      <trkpt lat="45.85808" lon="3.0203">
        <ele>738.2</ele>
        <time>2025-08-07T16:57:19Z</time>
      </trkpt>
      <trkpt lat="45.85811" lon="3.02024">
        <ele>738.4</ele>
        <time>2025-08-07T16:57:20Z</time>
      </trkpt>
      <trkpt lat="45.85813" lon="3.02017">
        <ele>738.8</ele>
        <time>2025-08-07T16:57:21Z</time>
      </trkpt>
      <trkpt lat="45.85816" lon="3.02012">
        <ele>739.4</ele>
        <time>2025-08-07T16:57:22Z</time>
      </trkpt>
      <trkpt lat="45.85818" lon="3.02006">
        <ele>739.8</ele>
        <time>2025-08-07T16:57:23Z</time>
      </trkpt>
      <trkpt lat="45.85821" lon="3.02001">
        <ele>740.4</ele>
        <time>2025-08-07T16:57:24Z</time>
      </trkpt>
      <trkpt lat="45.85823" lon="3.01996">
        <ele>740.8</ele>
        <time>2025-08-07T16:57:25Z</time>
      </trkpt>
      <trkpt lat="45.85825" lon="3.01991">
        <ele>741.2</ele>
        <time>2025-08-07T16:57:26Z</time>
      </trkpt>
      <trkpt lat="45.85828" lon="3.01986">
        <ele>741.6</ele>
        <time>2025-08-07T16:57:27Z</time>
      </trkpt>
      <trkpt lat="45.8583" lon="3.0198">
        <ele>742</ele>
        <time>2025-08-07T16:57:28Z</time>
      </trkpt>
      <trkpt lat="45.85832" lon="3.01975">
        <ele>742.4</ele>
        <time>2025-08-07T16:57:29Z</time>
      </trkpt>
      <trkpt lat="45.85834" lon="3.0197">
        <ele>742.6</ele>
        <time>2025-08-07T16:57:30Z</time>
      </trkpt>
      <trkpt lat="45.85836" lon="3.01964">
        <ele>743</ele>
        <time>2025-08-07T16:57:31Z</time>
      </trkpt>
      <trkpt lat="45.85838" lon="3.01959">
        <ele>743.4</ele>
        <time>2025-08-07T16:57:32Z</time>
      </trkpt>
      <trkpt lat="45.85841" lon="3.01954">
        <ele>743.8</ele>
        <time>2025-08-07T16:57:33Z</time>
      </trkpt>
      <trkpt lat="45.85843" lon="3.01949">
        <ele>744</ele>
        <time>2025-08-07T16:57:34Z</time>
      </trkpt>
      <trkpt lat="45.85845" lon="3.01944">
        <ele>744.4</ele>
        <time>2025-08-07T16:57:35Z</time>
      </trkpt>
      <trkpt lat="45.85847" lon="3.0194">
        <ele>744.6</ele>
        <time>2025-08-07T16:57:36Z</time>
      </trkpt>
      <trkpt lat="45.85849" lon="3.01937">
        <ele>744.8</ele>
        <time>2025-08-07T16:57:37Z</time>
      </trkpt>
      <trkpt lat="45.85852" lon="3.01935">
        <ele>745</ele>
        <time>2025-08-07T16:57:38Z</time>
      </trkpt>
      <trkpt lat="45.85854" lon="3.01933">
        <ele>745.2</ele>
        <time>2025-08-07T16:57:39Z</time>
      </trkpt>
      <trkpt lat="45.85855" lon="3.0193">
        <ele>745.4</ele>
        <time>2025-08-07T16:57:40Z</time>
      </trkpt>
      <trkpt lat="45.85855" lon="3.01927">
        <ele>745.6</ele>
        <time>2025-08-07T16:57:41Z</time>
      </trkpt>
      <trkpt lat="45.85855" lon="3.01924">
        <ele>745.8</ele>
        <time>2025-08-07T16:57:42Z</time>
      </trkpt>
      <trkpt lat="45.85856" lon="3.01919">
        <ele>746</ele>
        <time>2025-08-07T16:57:43Z</time>
      </trkpt>
      <trkpt lat="45.85855" lon="3.01914">
        <ele>746.2</ele>
        <time>2025-08-07T16:57:44Z</time>
      </trkpt>
      <trkpt lat="45.85854" lon="3.01909">
        <ele>746.6</ele>
        <time>2025-08-07T16:57:45Z</time>
      </trkpt>
      <trkpt lat="45.85853" lon="3.01903">
        <ele>746.8</ele>
        <time>2025-08-07T16:57:46Z</time>
      </trkpt>
      <trkpt lat="45.85851" lon="3.01896">
        <ele>747</ele>
        <time>2025-08-07T16:57:47Z</time>
      </trkpt>
      <trkpt lat="45.85849" lon="3.01889">
        <ele>747.2</ele>
        <time>2025-08-07T16:57:48Z</time>
      </trkpt>
      <trkpt lat="45.85847" lon="3.01882">
        <ele>747.4</ele>
        <time>2025-08-07T16:57:49Z</time>
      </trkpt>
      <trkpt lat="45.85846" lon="3.01875">
        <ele>747.6</ele>
        <time>2025-08-07T16:57:50Z</time>
      </trkpt>
      <trkpt lat="45.85844" lon="3.01869">
        <ele>747.8</ele>
        <time>2025-08-07T16:57:51Z</time>
      </trkpt>
      <trkpt lat="45.85843" lon="3.01862">
        <ele>748.2</ele>
        <time>2025-08-07T16:57:52Z</time>
      </trkpt>
      <trkpt lat="45.85844" lon="3.01855">
        <ele>748.6</ele>
        <time>2025-08-07T16:57:53Z</time>
      </trkpt>
      <trkpt lat="45.85845" lon="3.01849">
        <ele>749</ele>
        <time>2025-08-07T16:57:54Z</time>
      </trkpt>
      <trkpt lat="45.85847" lon="3.01844">
        <ele>749.4</ele>
        <time>2025-08-07T16:57:55Z</time>
      </trkpt>
      <trkpt lat="45.8585" lon="3.01839">
        <ele>749.8</ele>
        <time>2025-08-07T16:57:56Z</time>
      </trkpt>
      <trkpt lat="45.85853" lon="3.01834">
        <ele>750</ele>
        <time>2025-08-07T16:57:57Z</time>
      </trkpt>
      <trkpt lat="45.85856" lon="3.01829">
        <ele>750.2</ele>
        <time>2025-08-07T16:57:58Z</time>
      </trkpt>
      <trkpt lat="45.85859" lon="3.01824">
        <ele>750.2</ele>
        <time>2025-08-07T16:57:59Z</time>
      </trkpt>
      <trkpt lat="45.85863" lon="3.01819">
        <ele>750.2</ele>
        <time>2025-08-07T16:58:00Z</time>
      </trkpt>
      <trkpt lat="45.85866" lon="3.01813">
        <ele>750</ele>
        <time>2025-08-07T16:58:01Z</time>
      </trkpt>
      <trkpt lat="45.8587" lon="3.01806">
        <ele>750</ele>
        <time>2025-08-07T16:58:02Z</time>
      </trkpt>
      <trkpt lat="45.85873" lon="3.01801">
        <ele>749.6</ele>
        <time>2025-08-07T16:58:03Z</time>
      </trkpt>
      <trkpt lat="45.85876" lon="3.01795">
        <ele>749.4</ele>
        <time>2025-08-07T16:58:04Z</time>
      </trkpt>
      <trkpt lat="45.85878" lon="3.01789">
        <ele>749</ele>
        <time>2025-08-07T16:58:05Z</time>
      </trkpt>
      <trkpt lat="45.85881" lon="3.01783">
        <ele>748.4</ele>
        <time>2025-08-07T16:58:06Z</time>
      </trkpt>
      <trkpt lat="45.85883" lon="3.01777">
        <ele>748</ele>
        <time>2025-08-07T16:58:07Z</time>
      </trkpt>
      <trkpt lat="45.85886" lon="3.0177">
        <ele>747.4</ele>
        <time>2025-08-07T16:58:08Z</time>
      </trkpt>
      <trkpt lat="45.85889" lon="3.01764">
        <ele>746.6</ele>
        <time>2025-08-07T16:58:09Z</time>
      </trkpt>
      <trkpt lat="45.85892" lon="3.01758">
        <ele>746.2</ele>
        <time>2025-08-07T16:58:10Z</time>
      </trkpt>
      <trkpt lat="45.85897" lon="3.01752">
        <ele>745.4</ele>
        <time>2025-08-07T16:58:11Z</time>
      </trkpt>
      <trkpt lat="45.859" lon="3.01745">
        <ele>744.6</ele>
        <time>2025-08-07T16:58:12Z</time>
      </trkpt>
      <trkpt lat="45.85904" lon="3.01738">
        <ele>743.8</ele>
        <time>2025-08-07T16:58:13Z</time>
      </trkpt>
      <trkpt lat="45.85907" lon="3.01731">
        <ele>743</ele>
        <time>2025-08-07T16:58:14Z</time>
      </trkpt>
      <trkpt lat="45.85911" lon="3.01724">
        <ele>742.2</ele>
        <time>2025-08-07T16:58:15Z</time>
      </trkpt>
      <trkpt lat="45.85914" lon="3.01716">
        <ele>741.4</ele>
        <time>2025-08-07T16:58:16Z</time>
      </trkpt>
      <trkpt lat="45.85918" lon="3.01707">
        <ele>740.4</ele>
        <time>2025-08-07T16:58:17Z</time>
      </trkpt>
      <trkpt lat="45.85921" lon="3.01699">
        <ele>739.4</ele>
        <time>2025-08-07T16:58:18Z</time>
      </trkpt>
      <trkpt lat="45.85925" lon="3.0169">
        <ele>738.4</ele>
        <time>2025-08-07T16:58:19Z</time>
      </trkpt>
      <trkpt lat="45.85928" lon="3.0168">
        <ele>737.4</ele>
        <time>2025-08-07T16:58:20Z</time>
      </trkpt>
      <trkpt lat="45.85932" lon="3.01671">
        <ele>736.2</ele>
        <time>2025-08-07T16:58:21Z</time>
      </trkpt>
      <trkpt lat="45.85937" lon="3.01661">
        <ele>735.2</ele>
        <time>2025-08-07T16:58:22Z</time>
      </trkpt>
      <trkpt lat="45.85942" lon="3.01651">
        <ele>734</ele>
        <time>2025-08-07T16:58:23Z</time>
      </trkpt>
      <trkpt lat="45.85948" lon="3.01641">
        <ele>732.8</ele>
        <time>2025-08-07T16:58:24Z</time>
      </trkpt>
      <trkpt lat="45.85953" lon="3.01632">
        <ele>731.6</ele>
        <time>2025-08-07T16:58:25Z</time>
      </trkpt>
      <trkpt lat="45.85958" lon="3.01622">
        <ele>730.6</ele>
        <time>2025-08-07T16:58:26Z</time>
      </trkpt>
      <trkpt lat="45.85962" lon="3.01614">
        <ele>729.6</ele>
        <time>2025-08-07T16:58:27Z</time>
      </trkpt>
      <trkpt lat="45.85966" lon="3.01606">
        <ele>728.6</ele>
        <time>2025-08-07T16:58:28Z</time>
      </trkpt>
      <trkpt lat="45.85969" lon="3.016">
        <ele>727.6</ele>
        <time>2025-08-07T16:58:29Z</time>
      </trkpt>
      <trkpt lat="45.85972" lon="3.01593">
        <ele>726.6</ele>
        <time>2025-08-07T16:58:30Z</time>
      </trkpt>
      <trkpt lat="45.85975" lon="3.01588">
        <ele>725.6</ele>
        <time>2025-08-07T16:58:31Z</time>
      </trkpt>
      <trkpt lat="45.85977" lon="3.01582">
        <ele>724.6</ele>
        <time>2025-08-07T16:58:32Z</time>
      </trkpt>
      <trkpt lat="45.8598" lon="3.01577">
        <ele>723.6</ele>
        <time>2025-08-07T16:58:33Z</time>
      </trkpt>
      <trkpt lat="45.85983" lon="3.01573">
        <ele>722.6</ele>
        <time>2025-08-07T16:58:34Z</time>
      </trkpt>
      <trkpt lat="45.85985" lon="3.01568">
        <ele>721.8</ele>
        <time>2025-08-07T16:58:35Z</time>
      </trkpt>
      <trkpt lat="45.85987" lon="3.01563">
        <ele>720.8</ele>
        <time>2025-08-07T16:58:36Z</time>
      </trkpt>
      <trkpt lat="45.85989" lon="3.01558">
        <ele>719.8</ele>
        <time>2025-08-07T16:58:37Z</time>
      </trkpt>
      <trkpt lat="45.85992" lon="3.01552">
        <ele>719</ele>
        <time>2025-08-07T16:58:38Z</time>
      </trkpt>
      <trkpt lat="45.85994" lon="3.01546">
        <ele>717.8</ele>
        <time>2025-08-07T16:58:39Z</time>
      </trkpt>
      <trkpt lat="45.85995" lon="3.0154">
        <ele>716.6</ele>
        <time>2025-08-07T16:58:40Z</time>
      </trkpt>
      <trkpt lat="45.85997" lon="3.01533">
        <ele>715.6</ele>
        <time>2025-08-07T16:58:41Z</time>
      </trkpt>
      <trkpt lat="45.85999" lon="3.01526">
        <ele>714.4</ele>
        <time>2025-08-07T16:58:42Z</time>
      </trkpt>
      <trkpt lat="45.86" lon="3.01521">
        <ele>713.4</ele>
        <time>2025-08-07T16:58:43Z</time>
      </trkpt>
      <trkpt lat="45.86001" lon="3.01515">
        <ele>712.6</ele>
        <time>2025-08-07T16:58:44Z</time>
      </trkpt>
      <trkpt lat="45.86002" lon="3.01509">
        <ele>712</ele>
        <time>2025-08-07T16:58:45Z</time>
      </trkpt>
      <trkpt lat="45.86002" lon="3.01504">
        <ele>711.4</ele>
        <time>2025-08-07T16:58:46Z</time>
      </trkpt>
      <trkpt lat="45.86001" lon="3.01499">
        <ele>711</ele>
        <time>2025-08-07T16:58:47Z</time>
      </trkpt>
      <trkpt lat="45.85999" lon="3.01493">
        <ele>710.6</ele>
        <time>2025-08-07T16:58:48Z</time>
      </trkpt>
      <trkpt lat="45.85996" lon="3.01488">
        <ele>710.2</ele>
        <time>2025-08-07T16:58:49Z</time>
      </trkpt>
      <trkpt lat="45.85994" lon="3.01482">
        <ele>710</ele>
        <time>2025-08-07T16:58:50Z</time>
      </trkpt>
      <trkpt lat="45.85991" lon="3.01477">
        <ele>709.8</ele>
        <time>2025-08-07T16:58:51Z</time>
      </trkpt>
      <trkpt lat="45.8599" lon="3.01472">
        <ele>709.8</ele>
        <time>2025-08-07T16:58:52Z</time>
      </trkpt>
      <trkpt lat="45.85989" lon="3.01466">
        <ele>709.8</ele>
        <time>2025-08-07T16:58:53Z</time>
      </trkpt>
      <trkpt lat="45.85986" lon="3.01459">
        <ele>709.8</ele>
        <time>2025-08-07T16:58:54Z</time>
      </trkpt>
      <trkpt lat="45.85985" lon="3.01452">
        <ele>709.8</ele>
        <time>2025-08-07T16:58:55Z</time>
      </trkpt>
      <trkpt lat="45.85985" lon="3.01445">
        <ele>710</ele>
        <time>2025-08-07T16:58:56Z</time>
      </trkpt>
      <trkpt lat="45.85985" lon="3.01437">
        <ele>710</ele>
        <time>2025-08-07T16:58:57Z</time>
      </trkpt>
      <trkpt lat="45.85985" lon="3.0143">
        <ele>710.2</ele>
        <time>2025-08-07T16:58:58Z</time>
      </trkpt>
      <trkpt lat="45.85984" lon="3.01422">
        <ele>710.2</ele>
        <time>2025-08-07T16:58:59Z</time>
      </trkpt>
      <trkpt lat="45.85983" lon="3.01415">
        <ele>710.4</ele>
        <time>2025-08-07T16:59:00Z</time>
      </trkpt>
      <trkpt lat="45.85983" lon="3.01408">
        <ele>710.6</ele>
        <time>2025-08-07T16:59:01Z</time>
      </trkpt>
      <trkpt lat="45.85983" lon="3.01401">
        <ele>710.8</ele>
        <time>2025-08-07T16:59:02Z</time>
      </trkpt>
      <trkpt lat="45.85983" lon="3.01393">
        <ele>710.8</ele>
        <time>2025-08-07T16:59:03Z</time>
      </trkpt>
      <trkpt lat="45.85981" lon="3.01386">
        <ele>711</ele>
        <time>2025-08-07T16:59:04Z</time>
      </trkpt>
      <trkpt lat="45.85979" lon="3.01379">
        <ele>711.2</ele>
        <time>2025-08-07T16:59:05Z</time>
      </trkpt>
      <trkpt lat="45.85979" lon="3.01372">
        <ele>711.2</ele>
        <time>2025-08-07T16:59:06Z</time>
      </trkpt>
      <trkpt lat="45.8598" lon="3.01365">
        <ele>711.4</ele>
        <time>2025-08-07T16:59:07Z</time>
      </trkpt>
      <trkpt lat="45.85981" lon="3.01358">
        <ele>711.6</ele>
        <time>2025-08-07T16:59:08Z</time>
      </trkpt>
      <trkpt lat="45.85981" lon="3.01351">
        <ele>711.8</ele>
        <time>2025-08-07T16:59:09Z</time>
      </trkpt>
      <trkpt lat="45.8598" lon="3.01342">
        <ele>712</ele>
        <time>2025-08-07T16:59:10Z</time>
      </trkpt>
      <trkpt lat="45.8598" lon="3.01334">
        <ele>712.2</ele>
        <time>2025-08-07T16:59:11Z</time>
      </trkpt>
      <trkpt lat="45.8598" lon="3.01326">
        <ele>712.4</ele>
        <time>2025-08-07T16:59:12Z</time>
      </trkpt>
      <trkpt lat="45.8598" lon="3.01318">
        <ele>712.6</ele>
        <time>2025-08-07T16:59:13Z</time>
      </trkpt>
      <trkpt lat="45.8598" lon="3.01311">
        <ele>712.8</ele>
        <time>2025-08-07T16:59:14Z</time>
      </trkpt>
      <trkpt lat="45.85979" lon="3.01303">
        <ele>713</ele>
        <time>2025-08-07T16:59:15Z</time>
      </trkpt>
      <trkpt lat="45.85979" lon="3.01297">
        <ele>713.2</ele>
        <time>2025-08-07T16:59:16Z</time>
      </trkpt>
      <trkpt lat="45.85978" lon="3.0129">
        <ele>713.4</ele>
        <time>2025-08-07T16:59:17Z</time>
      </trkpt>
      <trkpt lat="45.85978" lon="3.01283">
        <ele>713.4</ele>
        <time>2025-08-07T16:59:18Z</time>
      </trkpt>
      <trkpt lat="45.85976" lon="3.01277">
        <ele>713.6</ele>
        <time>2025-08-07T16:59:19Z</time>
      </trkpt>
      <trkpt lat="45.85975" lon="3.01273">
        <ele>713.8</ele>
        <time>2025-08-07T16:59:20Z</time>
      </trkpt>
      <trkpt lat="45.85974" lon="3.0127">
        <ele>713.8</ele>
        <time>2025-08-07T16:59:21Z</time>
      </trkpt>
      <trkpt lat="45.85973" lon="3.01268">
        <ele>714</ele>
        <time>2025-08-07T16:59:22Z</time>
      </trkpt>
      <trkpt lat="45.85973" lon="3.01267">
        <ele>714</ele>
        <time>2025-08-07T16:59:23Z</time>
      </trkpt>
      <trkpt lat="45.85973" lon="3.0127">
        <ele>714</ele>
        <time>2025-08-07T16:59:29Z</time>
      </trkpt>
      <trkpt lat="45.85973" lon="3.01272">
        <ele>714</ele>
        <time>2025-08-07T16:59:30Z</time>
      </trkpt>
      <trkpt lat="45.85973" lon="3.01275">
        <ele>714</ele>
        <time>2025-08-07T16:59:31Z</time>
      </trkpt>
      <trkpt lat="45.85973" lon="3.01278">
        <ele>714</ele>
        <time>2025-08-07T16:59:32Z</time>
      </trkpt>
      <trkpt lat="45.85973" lon="3.01281">
        <ele>714</ele>
        <time>2025-08-07T16:59:33Z</time>
      </trkpt>
      <trkpt lat="45.85974" lon="3.01285">
        <ele>713.8</ele>
        <time>2025-08-07T16:59:34Z</time>
      </trkpt>
      <trkpt lat="45.85975" lon="3.01287">
        <ele>713.8</ele>
        <time>2025-08-07T16:59:35Z</time>
      </trkpt>
      <trkpt lat="45.85976" lon="3.0129">
        <ele>713.6</ele>
        <time>2025-08-07T16:59:36Z</time>
      </trkpt>
      <trkpt lat="45.85976" lon="3.01293">
        <ele>713.6</ele>
        <time>2025-08-07T16:59:37Z</time>
      </trkpt>
      <trkpt lat="45.85976" lon="3.01296">
        <ele>713.6</ele>
        <time>2025-08-07T16:59:38Z</time>
      </trkpt>
      <trkpt lat="45.85976" lon="3.01299">
        <ele>713.4</ele>
        <time>2025-08-07T16:59:39Z</time>
      </trkpt>
      <trkpt lat="45.85976" lon="3.01301">
        <ele>713.4</ele>
        <time>2025-08-07T16:59:40Z</time>
      </trkpt>
      <trkpt lat="45.85976" lon="3.01304">
        <ele>713.4</ele>
        <time>2025-08-07T16:59:41Z</time>
      </trkpt>
      <trkpt lat="45.85976" lon="3.01307">
        <ele>713.2</ele>
        <time>2025-08-07T16:59:42Z</time>
      </trkpt>
      <trkpt lat="45.85977" lon="3.01309">
        <ele>713.2</ele>
        <time>2025-08-07T16:59:43Z</time>
      </trkpt>
      <trkpt lat="45.85978" lon="3.01311">
        <ele>713.2</ele>
        <time>2025-08-07T16:59:44Z</time>
      </trkpt>
      <trkpt lat="45.85979" lon="3.01312">
        <ele>713.2</ele>
        <time>2025-08-07T16:59:45Z</time>
      </trkpt>
      <trkpt lat="45.8598" lon="3.01312">
        <ele>713.2</ele>
        <time>2025-08-07T16:59:46Z</time>
      </trkpt>
      <trkpt lat="45.85982" lon="3.01311">
        <ele>713</ele>
        <time>2025-08-07T16:59:47Z</time>
      </trkpt>
      <trkpt lat="45.85983" lon="3.01309">
        <ele>713</ele>
        <time>2025-08-07T16:59:48Z</time>
      </trkpt>
      <trkpt lat="45.85985" lon="3.01307">
        <ele>713</ele>
        <time>2025-08-07T16:59:49Z</time>
      </trkpt>
      <trkpt lat="45.85987" lon="3.01304">
        <ele>713</ele>
        <time>2025-08-07T16:59:50Z</time>
      </trkpt>
      <trkpt lat="45.85988" lon="3.01301">
        <ele>713</ele>
        <time>2025-08-07T16:59:51Z</time>
      </trkpt>
      <trkpt lat="45.85989" lon="3.01299">
        <ele>713</ele>
        <time>2025-08-07T16:59:52Z</time>
      </trkpt>
      <trkpt lat="45.85991" lon="3.01296">
        <ele>713</ele>
        <time>2025-08-07T16:59:53Z</time>
      </trkpt>
      <trkpt lat="45.85992" lon="3.01293">
        <ele>713.2</ele>
        <time>2025-08-07T16:59:54Z</time>
      </trkpt>
      <trkpt lat="45.85992" lon="3.01292">
        <ele>713.2</ele>
        <time>2025-08-07T16:59:55Z</time>
      </trkpt>
      <trkpt lat="45.85992" lon="3.01292">
        <ele>713.2</ele>
        <time>2025-08-07T16:59:56Z</time>
      </trkpt>
      <trkpt lat="45.85992" lon="3.01292">
        <ele>713.2</ele>
        <time>2025-08-07T16:59:57Z</time>
      </trkpt>
      <trkpt lat="45.85992" lon="3.01292">
        <ele>713.2</ele>
        <time>2025-08-07T16:59:58Z</time>
      </trkpt>
      <trkpt lat="45.85992" lon="3.01292">
        <ele>713.4</ele>
        <time>2025-08-07T16:59:59Z</time>
      </trkpt>
      <trkpt lat="45.85992" lon="3.01292">
        <ele>713.4</ele>
        <time>2025-08-07T17:00:00Z</time>
      </trkpt>
      <trkpt lat="45.85993" lon="3.01292">
        <ele>713.4</ele>
        <time>2025-08-07T17:00:01Z</time>
      </trkpt>
      <trkpt lat="45.85993" lon="3.01291">
        <ele>713.4</ele>
        <time>2025-08-07T17:00:02Z</time>
      </trkpt>
      <trkpt lat="45.85995" lon="3.0129">
        <ele>713.8</ele>
        <time>2025-08-07T17:00:05Z</time>
      </trkpt>
      <trkpt lat="45.85996" lon="3.01288">
        <ele>713.8</ele>
        <time>2025-08-07T17:00:06Z</time>
      </trkpt>
      <trkpt lat="45.85997" lon="3.01286">
        <ele>714</ele>
        <time>2025-08-07T17:00:07Z</time>
      </trkpt>
      <trkpt lat="45.85999" lon="3.01284">
        <ele>714.2</ele>
        <time>2025-08-07T17:00:08Z</time>
      </trkpt>
      <trkpt lat="45.86001" lon="3.01281">
        <ele>714.2</ele>
        <time>2025-08-07T17:00:09Z</time>
      </trkpt>
      <trkpt lat="45.86004" lon="3.01278">
        <ele>714.4</ele>
        <time>2025-08-07T17:00:10Z</time>
      </trkpt>
      <trkpt lat="45.86007" lon="3.01276">
        <ele>714.4</ele>
        <time>2025-08-07T17:00:11Z</time>
      </trkpt>
      <trkpt lat="45.8601" lon="3.01272">
        <ele>714.6</ele>
        <time>2025-08-07T17:00:12Z</time>
      </trkpt>
      <trkpt lat="45.86012" lon="3.01269">
        <ele>714.8</ele>
        <time>2025-08-07T17:00:13Z</time>
      </trkpt>
      <trkpt lat="45.86015" lon="3.01266">
        <ele>714.8</ele>
        <time>2025-08-07T17:00:14Z</time>
      </trkpt>
      <trkpt lat="45.86017" lon="3.01263">
        <ele>715</ele>
        <time>2025-08-07T17:00:15Z</time>
      </trkpt>
      <trkpt lat="45.86021" lon="3.01261">
        <ele>715</ele>
        <time>2025-08-07T17:00:16Z</time>
      </trkpt>
      <trkpt lat="45.86025" lon="3.01258">
        <ele>715.2</ele>
        <time>2025-08-07T17:00:17Z</time>
      </trkpt>
      <trkpt lat="45.86031" lon="3.01255">
        <ele>715.2</ele>
        <time>2025-08-07T17:00:18Z</time>
      </trkpt>
      <trkpt lat="45.86039" lon="3.0125">
        <ele>715.2</ele>
        <time>2025-08-07T17:00:19Z</time>
      </trkpt>
      <trkpt lat="45.86047" lon="3.01246">
        <ele>715.4</ele>
        <time>2025-08-07T17:00:20Z</time>
      </trkpt>
      <trkpt lat="45.86056" lon="3.01242">
        <ele>715.4</ele>
        <time>2025-08-07T17:00:21Z</time>
      </trkpt>
      <trkpt lat="45.86059" lon="3.01239">
        <ele>715.4</ele>
        <time>2025-08-07T17:00:22Z</time>
      </trkpt>
      <trkpt lat="45.86062" lon="3.01236">
        <ele>715.6</ele>
        <time>2025-08-07T17:00:23Z</time>
      </trkpt>
      <trkpt lat="45.86065" lon="3.01233">
        <ele>715.6</ele>
        <time>2025-08-07T17:00:24Z</time>
      </trkpt>
      <trkpt lat="45.86069" lon="3.0123">
        <ele>715.6</ele>
        <time>2025-08-07T17:00:25Z</time>
      </trkpt>
      <trkpt lat="45.86072" lon="3.01227">
        <ele>715.6</ele>
        <time>2025-08-07T17:00:26Z</time>
      </trkpt>
      <trkpt lat="45.86076" lon="3.01223">
        <ele>715.8</ele>
        <time>2025-08-07T17:00:27Z</time>
      </trkpt>
      <trkpt lat="45.86079" lon="3.0122">
        <ele>715.6</ele>
        <time>2025-08-07T17:00:28Z</time>
      </trkpt>
      <trkpt lat="45.86083" lon="3.01218">
        <ele>715.6</ele>
        <time>2025-08-07T17:00:29Z</time>
      </trkpt>
      <trkpt lat="45.86089" lon="3.01217">
        <ele>715.6</ele>
        <time>2025-08-07T17:00:30Z</time>
      </trkpt>
      <trkpt lat="45.86089" lon="3.01217">
        <ele>715.6</ele>
        <time>2025-08-07T17:00:31Z</time>
      </trkpt>
      <trkpt lat="45.86089" lon="3.01217">
        <ele>715.6</ele>
        <time>2025-08-07T17:00:32Z</time>
      </trkpt>
      <trkpt lat="45.8609" lon="3.01217">
        <ele>715.6</ele>
        <time>2025-08-07T17:00:33Z</time>
      </trkpt>
      <trkpt lat="45.86091" lon="3.01216">
        <ele>715.6</ele>
        <time>2025-08-07T17:00:34Z</time>
      </trkpt>
      <trkpt lat="45.86094" lon="3.01214">
        <ele>715.6</ele>
        <time>2025-08-07T17:00:35Z</time>
      </trkpt>
      <trkpt lat="45.86096" lon="3.01212">
        <ele>715.6</ele>
        <time>2025-08-07T17:00:36Z</time>
      </trkpt>
      <trkpt lat="45.86098" lon="3.01209">
        <ele>715.6</ele>
        <time>2025-08-07T17:00:37Z</time>
      </trkpt>
      <trkpt lat="45.86101" lon="3.01206">
        <ele>715.8</ele>
        <time>2025-08-07T17:00:38Z</time>
      </trkpt>
      <trkpt lat="45.86104" lon="3.01202">
        <ele>715.8</ele>
        <time>2025-08-07T17:00:39Z</time>
      </trkpt>
      <trkpt lat="45.86106" lon="3.01198">
        <ele>716</ele>
        <time>2025-08-07T17:00:40Z</time>
      </trkpt>
      <trkpt lat="45.86108" lon="3.01193">
        <ele>716</ele>
        <time>2025-08-07T17:00:41Z</time>
      </trkpt>
      <trkpt lat="45.86111" lon="3.01189">
        <ele>716.2</ele>
        <time>2025-08-07T17:00:42Z</time>
      </trkpt>
      <trkpt lat="45.86114" lon="3.01184">
        <ele>716.4</ele>
        <time>2025-08-07T17:00:43Z</time>
      </trkpt>
      <trkpt lat="45.86118" lon="3.01179">
        <ele>716.6</ele>
        <time>2025-08-07T17:00:44Z</time>
      </trkpt>
      <trkpt lat="45.86122" lon="3.01174">
        <ele>716.6</ele>
        <time>2025-08-07T17:00:45Z</time>
      </trkpt>
      <trkpt lat="45.86126" lon="3.01169">
        <ele>716.8</ele>
        <time>2025-08-07T17:00:46Z</time>
      </trkpt>
      <trkpt lat="45.8613" lon="3.01164">
        <ele>717</ele>
        <time>2025-08-07T17:00:47Z</time>
      </trkpt>
      <trkpt lat="45.86135" lon="3.0116">
        <ele>717.2</ele>
        <time>2025-08-07T17:00:48Z</time>
      </trkpt>
      <trkpt lat="45.8614" lon="3.01155">
        <ele>717.2</ele>
        <time>2025-08-07T17:00:49Z</time>
      </trkpt>
      <trkpt lat="45.86145" lon="3.01151">
        <ele>717.4</ele>
        <time>2025-08-07T17:00:50Z</time>
      </trkpt>
      <trkpt lat="45.8615" lon="3.01147">
        <ele>717.6</ele>
        <time>2025-08-07T17:00:51Z</time>
      </trkpt>
      <trkpt lat="45.86155" lon="3.01143">
        <ele>718</ele>
        <time>2025-08-07T17:00:52Z</time>
      </trkpt>
      <trkpt lat="45.8616" lon="3.0114">
        <ele>718.2</ele>
        <time>2025-08-07T17:00:53Z</time>
      </trkpt>
      <trkpt lat="45.86165" lon="3.01137">
        <ele>718.4</ele>
        <time>2025-08-07T17:00:54Z</time>
      </trkpt>
      <trkpt lat="45.86169" lon="3.01134">
        <ele>718.6</ele>
        <time>2025-08-07T17:00:55Z</time>
      </trkpt>
      <trkpt lat="45.86174" lon="3.01132">
        <ele>718.8</ele>
        <time>2025-08-07T17:00:56Z</time>
      </trkpt>
      <trkpt lat="45.86179" lon="3.01131">
        <ele>719</ele>
        <time>2025-08-07T17:00:57Z</time>
      </trkpt>
      <trkpt lat="45.86185" lon="3.0113">
        <ele>719.2</ele>
        <time>2025-08-07T17:00:58Z</time>
      </trkpt>
      <trkpt lat="45.86191" lon="3.01131">
        <ele>719.4</ele>
        <time>2025-08-07T17:00:59Z</time>
      </trkpt>
      <trkpt lat="45.86198" lon="3.01132">
        <ele>719.6</ele>
        <time>2025-08-07T17:01:00Z</time>
      </trkpt>
      <trkpt lat="45.86205" lon="3.01135">
        <ele>719.8</ele>
        <time>2025-08-07T17:01:01Z</time>
      </trkpt>
      <trkpt lat="45.86211" lon="3.01137">
        <ele>720</ele>
        <time>2025-08-07T17:01:02Z</time>
      </trkpt>
      <trkpt lat="45.86216" lon="3.01139">
        <ele>720.2</ele>
        <time>2025-08-07T17:01:03Z</time>
      </trkpt>
      <trkpt lat="45.86222" lon="3.01142">
        <ele>720.4</ele>
        <time>2025-08-07T17:01:04Z</time>
      </trkpt>
      <trkpt lat="45.86229" lon="3.01144">
        <ele>720.6</ele>
        <time>2025-08-07T17:01:05Z</time>
      </trkpt>
      <trkpt lat="45.86235" lon="3.01147">
        <ele>720.8</ele>
        <time>2025-08-07T17:01:06Z</time>
      </trkpt>
      <trkpt lat="45.86242" lon="3.01151">
        <ele>721</ele>
        <time>2025-08-07T17:01:07Z</time>
      </trkpt>
      <trkpt lat="45.86248" lon="3.01154">
        <ele>721.2</ele>
        <time>2025-08-07T17:01:08Z</time>
      </trkpt>
      <trkpt lat="45.86253" lon="3.01156">
        <ele>721.4</ele>
        <time>2025-08-07T17:01:09Z</time>
      </trkpt>
      <trkpt lat="45.86259" lon="3.01158">
        <ele>721.6</ele>
        <time>2025-08-07T17:01:10Z</time>
      </trkpt>
      <trkpt lat="45.86264" lon="3.01161">
        <ele>721.8</ele>
        <time>2025-08-07T17:01:11Z</time>
      </trkpt>
      <trkpt lat="45.86271" lon="3.01164">
        <ele>722</ele>
        <time>2025-08-07T17:01:12Z</time>
      </trkpt>
      <trkpt lat="45.86278" lon="3.01167">
        <ele>722.4</ele>
        <time>2025-08-07T17:01:13Z</time>
      </trkpt>
      <trkpt lat="45.86285" lon="3.01168">
        <ele>722.6</ele>
        <time>2025-08-07T17:01:14Z</time>
      </trkpt>
      <trkpt lat="45.86292" lon="3.0117">
        <ele>722.6</ele>
        <time>2025-08-07T17:01:15Z</time>
      </trkpt>
      <trkpt lat="45.86298" lon="3.0117">
        <ele>722.8</ele>
        <time>2025-08-07T17:01:16Z</time>
      </trkpt>
      <trkpt lat="45.86303" lon="3.0117">
        <ele>723</ele>
        <time>2025-08-07T17:01:17Z</time>
      </trkpt>
      <trkpt lat="45.86309" lon="3.01169">
        <ele>723.2</ele>
        <time>2025-08-07T17:01:18Z</time>
      </trkpt>
      <trkpt lat="45.86314" lon="3.01168">
        <ele>723.4</ele>
        <time>2025-08-07T17:01:19Z</time>
      </trkpt>
      <trkpt lat="45.8632" lon="3.01166">
        <ele>723.6</ele>
        <time>2025-08-07T17:01:20Z</time>
      </trkpt>
      <trkpt lat="45.86326" lon="3.01164">
        <ele>723.6</ele>
        <time>2025-08-07T17:01:21Z</time>
      </trkpt>
      <trkpt lat="45.86331" lon="3.01162">
        <ele>723.8</ele>
        <time>2025-08-07T17:01:22Z</time>
      </trkpt>
      <trkpt lat="45.86335" lon="3.01159">
        <ele>724</ele>
        <time>2025-08-07T17:01:23Z</time>
      </trkpt>
      <trkpt lat="45.86338" lon="3.01156">
        <ele>724.2</ele>
        <time>2025-08-07T17:01:24Z</time>
      </trkpt>
      <trkpt lat="45.86343" lon="3.01152">
        <ele>724.4</ele>
        <time>2025-08-07T17:01:25Z</time>
      </trkpt>
      <trkpt lat="45.86348" lon="3.01149">
        <ele>724.6</ele>
        <time>2025-08-07T17:01:26Z</time>
      </trkpt>
      <trkpt lat="45.86352" lon="3.01146">
        <ele>724.8</ele>
        <time>2025-08-07T17:01:27Z</time>
      </trkpt>
      <trkpt lat="45.86356" lon="3.01142">
        <ele>725</ele>
        <time>2025-08-07T17:01:28Z</time>
      </trkpt>
      <trkpt lat="45.86359" lon="3.01138">
        <ele>725.2</ele>
        <time>2025-08-07T17:01:29Z</time>
      </trkpt>
      <trkpt lat="45.86363" lon="3.01135">
        <ele>725.4</ele>
        <time>2025-08-07T17:01:30Z</time>
      </trkpt>
      <trkpt lat="45.86366" lon="3.01131">
        <ele>725.6</ele>
        <time>2025-08-07T17:01:31Z</time>
      </trkpt>
      <trkpt lat="45.8637" lon="3.01126">
        <ele>725.8</ele>
        <time>2025-08-07T17:01:32Z</time>
      </trkpt>
      <trkpt lat="45.86375" lon="3.01122">
        <ele>726</ele>
        <time>2025-08-07T17:01:33Z</time>
      </trkpt>
      <trkpt lat="45.86382" lon="3.01117">
        <ele>726.2</ele>
        <time>2025-08-07T17:01:34Z</time>
      </trkpt>
      <trkpt lat="45.86386" lon="3.01113">
        <ele>726.4</ele>
        <time>2025-08-07T17:01:35Z</time>
      </trkpt>
      <trkpt lat="45.86391" lon="3.01109">
        <ele>726.6</ele>
        <time>2025-08-07T17:01:36Z</time>
      </trkpt>
      <trkpt lat="45.86395" lon="3.01104">
        <ele>726.8</ele>
        <time>2025-08-07T17:01:37Z</time>
      </trkpt>
      <trkpt lat="45.86401" lon="3.011">
        <ele>727</ele>
        <time>2025-08-07T17:01:38Z</time>
      </trkpt>
      <trkpt lat="45.86406" lon="3.01095">
        <ele>727.4</ele>
        <time>2025-08-07T17:01:39Z</time>
      </trkpt>
      <trkpt lat="45.8641" lon="3.0109">
        <ele>727.6</ele>
        <time>2025-08-07T17:01:40Z</time>
      </trkpt>
      <trkpt lat="45.86415" lon="3.01084">
        <ele>727.8</ele>
        <time>2025-08-07T17:01:41Z</time>
      </trkpt>
      <trkpt lat="45.8642" lon="3.01079">
        <ele>728</ele>
        <time>2025-08-07T17:01:42Z</time>
      </trkpt>
      <trkpt lat="45.86427" lon="3.01074">
        <ele>728.2</ele>
        <time>2025-08-07T17:01:43Z</time>
      </trkpt>
      <trkpt lat="45.86432" lon="3.01069">
        <ele>728.4</ele>
        <time>2025-08-07T17:01:44Z</time>
      </trkpt>
      <trkpt lat="45.86438" lon="3.01065">
        <ele>728.6</ele>
        <time>2025-08-07T17:01:45Z</time>
      </trkpt>
      <trkpt lat="45.86445" lon="3.01061">
        <ele>729</ele>
        <time>2025-08-07T17:01:46Z</time>
      </trkpt>
      <trkpt lat="45.86448" lon="3.01057">
        <ele>729.2</ele>
        <time>2025-08-07T17:01:47Z</time>
      </trkpt>
      <trkpt lat="45.8645" lon="3.01052">
        <ele>729.4</ele>
        <time>2025-08-07T17:01:48Z</time>
      </trkpt>
      <trkpt lat="45.86452" lon="3.01046">
        <ele>729.6</ele>
        <time>2025-08-07T17:01:49Z</time>
      </trkpt>
      <trkpt lat="45.86455" lon="3.01039">
        <ele>729.8</ele>
        <time>2025-08-07T17:01:50Z</time>
      </trkpt>
      <trkpt lat="45.86458" lon="3.01032">
        <ele>730.2</ele>
        <time>2025-08-07T17:01:51Z</time>
      </trkpt>
      <trkpt lat="45.86461" lon="3.01025">
        <ele>730.4</ele>
        <time>2025-08-07T17:01:52Z</time>
      </trkpt>
      <trkpt lat="45.86463" lon="3.01019">
        <ele>730.6</ele>
        <time>2025-08-07T17:01:53Z</time>
      </trkpt>
      <trkpt lat="45.86464" lon="3.01013">
        <ele>730.6</ele>
        <time>2025-08-07T17:01:54Z</time>
      </trkpt>
      <trkpt lat="45.86468" lon="3.01006">
        <ele>730.8</ele>
        <time>2025-08-07T17:01:55Z</time>
      </trkpt>
      <trkpt lat="45.8647" lon="3.01">
        <ele>731</ele>
        <time>2025-08-07T17:01:56Z</time>
      </trkpt>
      <trkpt lat="45.86475" lon="3.00994">
        <ele>731.2</ele>
        <time>2025-08-07T17:01:57Z</time>
      </trkpt>
      <trkpt lat="45.8648" lon="3.00987">
        <ele>731.4</ele>
        <time>2025-08-07T17:01:58Z</time>
      </trkpt>
      <trkpt lat="45.86486" lon="3.00978">
        <ele>731.6</ele>
        <time>2025-08-07T17:01:59Z</time>
      </trkpt>
      <trkpt lat="45.86491" lon="3.00971">
        <ele>731.8</ele>
        <time>2025-08-07T17:02:00Z</time>
      </trkpt>
      <trkpt lat="45.86499" lon="3.00964">
        <ele>732</ele>
        <time>2025-08-07T17:02:01Z</time>
      </trkpt>
      <trkpt lat="45.86507" lon="3.00958">
        <ele>732.2</ele>
        <time>2025-08-07T17:02:02Z</time>
      </trkpt>
      <trkpt lat="45.86514" lon="3.00952">
        <ele>732.4</ele>
        <time>2025-08-07T17:02:03Z</time>
      </trkpt>
      <trkpt lat="45.86515" lon="3.00946">
        <ele>732.6</ele>
        <time>2025-08-07T17:02:04Z</time>
      </trkpt>
      <trkpt lat="45.86517" lon="3.0094">
        <ele>732.8</ele>
        <time>2025-08-07T17:02:05Z</time>
      </trkpt>
      <trkpt lat="45.86521" lon="3.00934">
        <ele>733</ele>
        <time>2025-08-07T17:02:06Z</time>
      </trkpt>
      <trkpt lat="45.86526" lon="3.00926">
        <ele>733.2</ele>
        <time>2025-08-07T17:02:07Z</time>
      </trkpt>
      <trkpt lat="45.86532" lon="3.00917">
        <ele>733.4</ele>
        <time>2025-08-07T17:02:08Z</time>
      </trkpt>
      <trkpt lat="45.86535" lon="3.0091">
        <ele>733.6</ele>
        <time>2025-08-07T17:02:09Z</time>
      </trkpt>
      <trkpt lat="45.86537" lon="3.00902">
        <ele>733.8</ele>
        <time>2025-08-07T17:02:10Z</time>
      </trkpt>
      <trkpt lat="45.86538" lon="3.00894">
        <ele>734</ele>
        <time>2025-08-07T17:02:11Z</time>
      </trkpt>
      <trkpt lat="45.86538" lon="3.00886">
        <ele>734.2</ele>
        <time>2025-08-07T17:02:12Z</time>
      </trkpt>
      <trkpt lat="45.86539" lon="3.00879">
        <ele>734.4</ele>
        <time>2025-08-07T17:02:13Z</time>
      </trkpt>
      <trkpt lat="45.86539" lon="3.00872">
        <ele>734.6</ele>
        <time>2025-08-07T17:02:14Z</time>
      </trkpt>
      <trkpt lat="45.8654" lon="3.00867">
        <ele>734.8</ele>
        <time>2025-08-07T17:02:15Z</time>
      </trkpt>
      <trkpt lat="45.8654" lon="3.0086">
        <ele>735</ele>
        <time>2025-08-07T17:02:16Z</time>
      </trkpt>
      <trkpt lat="45.86541" lon="3.00855">
        <ele>735.2</ele>
        <time>2025-08-07T17:02:17Z</time>
      </trkpt>
      <trkpt lat="45.8654" lon="3.00848">
        <ele>735.4</ele>
        <time>2025-08-07T17:02:18Z</time>
      </trkpt>
      <trkpt lat="45.8654" lon="3.00841">
        <ele>735.6</ele>
        <time>2025-08-07T17:02:19Z</time>
      </trkpt>
      <trkpt lat="45.8654" lon="3.00835">
        <ele>735.8</ele>
        <time>2025-08-07T17:02:20Z</time>
      </trkpt>
      <trkpt lat="45.86541" lon="3.0083">
        <ele>736</ele>
        <time>2025-08-07T17:02:21Z</time>
      </trkpt>
      <trkpt lat="45.86541" lon="3.00823">
        <ele>736.2</ele>
        <time>2025-08-07T17:02:22Z</time>
      </trkpt>
      <trkpt lat="45.8654" lon="3.00818">
        <ele>736.2</ele>
        <time>2025-08-07T17:02:23Z</time>
      </trkpt>
      <trkpt lat="45.86539" lon="3.00814">
        <ele>736.4</ele>
        <time>2025-08-07T17:02:24Z</time>
      </trkpt>
      <trkpt lat="45.86538" lon="3.00811">
        <ele>736.4</ele>
        <time>2025-08-07T17:02:25Z</time>
      </trkpt>
      <trkpt lat="45.86538" lon="3.00809">
        <ele>736.6</ele>
        <time>2025-08-07T17:02:26Z</time>
      </trkpt>
      <trkpt lat="45.86538" lon="3.00808">
        <ele>736.6</ele>
        <time>2025-08-07T17:02:27Z</time>
      </trkpt>
      <trkpt lat="45.86537" lon="3.00807">
        <ele>736.6</ele>
        <time>2025-08-07T17:02:28Z</time>
      </trkpt>
      <trkpt lat="45.86536" lon="3.00806">
        <ele>736.8</ele>
        <time>2025-08-07T17:02:29Z</time>
      </trkpt>
      <trkpt lat="45.86535" lon="3.00804">
        <ele>736.8</ele>
        <time>2025-08-07T17:02:30Z</time>
      </trkpt>
      <trkpt lat="45.86535" lon="3.00801">
        <ele>737</ele>
        <time>2025-08-07T17:02:31Z</time>
      </trkpt>
      <trkpt lat="45.86534" lon="3.00799">
        <ele>737</ele>
        <time>2025-08-07T17:02:32Z</time>
      </trkpt>
      <trkpt lat="45.86533" lon="3.00794">
        <ele>737.2</ele>
        <time>2025-08-07T17:02:33Z</time>
      </trkpt>
      <trkpt lat="45.86532" lon="3.00788">
        <ele>737.2</ele>
        <time>2025-08-07T17:02:34Z</time>
      </trkpt>
      <trkpt lat="45.86531" lon="3.00784">
        <ele>737.4</ele>
        <time>2025-08-07T17:02:35Z</time>
      </trkpt>
      <trkpt lat="45.86528" lon="3.00778">
        <ele>737.4</ele>
        <time>2025-08-07T17:02:36Z</time>
      </trkpt>
      <trkpt lat="45.86526" lon="3.00773">
        <ele>737.6</ele>
        <time>2025-08-07T17:02:37Z</time>
      </trkpt>
      <trkpt lat="45.86524" lon="3.00768">
        <ele>737.8</ele>
        <time>2025-08-07T17:02:38Z</time>
      </trkpt>
      <trkpt lat="45.86522" lon="3.00765">
        <ele>737.8</ele>
        <time>2025-08-07T17:02:39Z</time>
      </trkpt>
      <trkpt lat="45.8652" lon="3.0076">
        <ele>738</ele>
        <time>2025-08-07T17:02:40Z</time>
      </trkpt>
      <trkpt lat="45.86517" lon="3.00754">
        <ele>738.2</ele>
        <time>2025-08-07T17:02:41Z</time>
      </trkpt>
      <trkpt lat="45.86514" lon="3.00749">
        <ele>738.4</ele>
        <time>2025-08-07T17:02:42Z</time>
      </trkpt>
      <trkpt lat="45.86511" lon="3.00742">
        <ele>738.6</ele>
        <time>2025-08-07T17:02:43Z</time>
      </trkpt>
      <trkpt lat="45.86508" lon="3.00738">
        <ele>738.8</ele>
        <time>2025-08-07T17:02:44Z</time>
      </trkpt>
      <trkpt lat="45.86504" lon="3.0073">
        <ele>739</ele>
        <time>2025-08-07T17:02:45Z</time>
      </trkpt>
      <trkpt lat="45.86501" lon="3.00726">
        <ele>739.2</ele>
        <time>2025-08-07T17:02:46Z</time>
      </trkpt>
      <trkpt lat="45.86499" lon="3.00722">
        <ele>739.4</ele>
        <time>2025-08-07T17:02:47Z</time>
      </trkpt>
      <trkpt lat="45.86497" lon="3.00717">
        <ele>739.4</ele>
        <time>2025-08-07T17:02:48Z</time>
      </trkpt>
      <trkpt lat="45.86495" lon="3.00712">
        <ele>739.6</ele>
        <time>2025-08-07T17:02:49Z</time>
      </trkpt>
      <trkpt lat="45.86492" lon="3.00704">
        <ele>739.8</ele>
        <time>2025-08-07T17:02:50Z</time>
      </trkpt>
      <trkpt lat="45.8649" lon="3.007">
        <ele>740</ele>
        <time>2025-08-07T17:02:51Z</time>
      </trkpt>
      <trkpt lat="45.86488" lon="3.00695">
        <ele>740.2</ele>
        <time>2025-08-07T17:02:52Z</time>
      </trkpt>
      <trkpt lat="45.86484" lon="3.00686">
        <ele>740.4</ele>
        <time>2025-08-07T17:02:53Z</time>
      </trkpt>
      <trkpt lat="45.86481" lon="3.00679">
        <ele>740.4</ele>
        <time>2025-08-07T17:02:54Z</time>
      </trkpt>
      <trkpt lat="45.86478" lon="3.00672">
        <ele>740.6</ele>
        <time>2025-08-07T17:02:55Z</time>
      </trkpt>
      <trkpt lat="45.86476" lon="3.00665">
        <ele>740.6</ele>
        <time>2025-08-07T17:02:56Z</time>
      </trkpt>
      <trkpt lat="45.86474" lon="3.00657">
        <ele>740.8</ele>
        <time>2025-08-07T17:02:57Z</time>
      </trkpt>
      <trkpt lat="45.86474" lon="3.00651">
        <ele>740.8</ele>
        <time>2025-08-07T17:02:58Z</time>
      </trkpt>
      <trkpt lat="45.86476" lon="3.00644">
        <ele>740.8</ele>
        <time>2025-08-07T17:02:59Z</time>
      </trkpt>
      <trkpt lat="45.86475" lon="3.00639">
        <ele>740.8</ele>
        <time>2025-08-07T17:03:00Z</time>
      </trkpt>
      <trkpt lat="45.86475" lon="3.00634">
        <ele>740.6</ele>
        <time>2025-08-07T17:03:01Z</time>
      </trkpt>
      <trkpt lat="45.86475" lon="3.0063">
        <ele>740.6</ele>
        <time>2025-08-07T17:03:02Z</time>
      </trkpt>
      <trkpt lat="45.86475" lon="3.00628">
        <ele>740.6</ele>
        <time>2025-08-07T17:03:03Z</time>
      </trkpt>
      <trkpt lat="45.86475" lon="3.00627">
        <ele>740.6</ele>
        <time>2025-08-07T17:03:04Z</time>
      </trkpt>
      <trkpt lat="45.86475" lon="3.00631">
        <ele>740.4</ele>
        <time>2025-08-07T17:03:18Z</time>
      </trkpt>
      <trkpt lat="45.86475" lon="3.00633">
        <ele>740.4</ele>
        <time>2025-08-07T17:03:19Z</time>
      </trkpt>
      <trkpt lat="45.86476" lon="3.00637">
        <ele>740.4</ele>
        <time>2025-08-07T17:03:20Z</time>
      </trkpt>
      <trkpt lat="45.86476" lon="3.00641">
        <ele>740.4</ele>
        <time>2025-08-07T17:03:21Z</time>
      </trkpt>
      <trkpt lat="45.86475" lon="3.00645">
        <ele>740.2</ele>
        <time>2025-08-07T17:03:22Z</time>
      </trkpt>
      <trkpt lat="45.86476" lon="3.0065">
        <ele>740.2</ele>
        <time>2025-08-07T17:03:23Z</time>
      </trkpt>
      <trkpt lat="45.86476" lon="3.00655">
        <ele>740.2</ele>
        <time>2025-08-07T17:03:24Z</time>
      </trkpt>
      <trkpt lat="45.86477" lon="3.00659">
        <ele>740</ele>
        <time>2025-08-07T17:03:25Z</time>
      </trkpt>
      <trkpt lat="45.86478" lon="3.00663">
        <ele>740</ele>
        <time>2025-08-07T17:03:26Z</time>
      </trkpt>
      <trkpt lat="45.8648" lon="3.00668">
        <ele>739.8</ele>
        <time>2025-08-07T17:03:27Z</time>
      </trkpt>
      <trkpt lat="45.86483" lon="3.00672">
        <ele>739.6</ele>
        <time>2025-08-07T17:03:28Z</time>
      </trkpt>
      <trkpt lat="45.86484" lon="3.00677">
        <ele>739.4</ele>
        <time>2025-08-07T17:03:29Z</time>
      </trkpt>
      <trkpt lat="45.86486" lon="3.00682">
        <ele>739.2</ele>
        <time>2025-08-07T17:03:30Z</time>
      </trkpt>
      <trkpt lat="45.86488" lon="3.00687">
        <ele>739</ele>
        <time>2025-08-07T17:03:31Z</time>
      </trkpt>
      <trkpt lat="45.86489" lon="3.00691">
        <ele>738.8</ele>
        <time>2025-08-07T17:03:32Z</time>
      </trkpt>
      <trkpt lat="45.86491" lon="3.00696">
        <ele>738.8</ele>
        <time>2025-08-07T17:03:33Z</time>
      </trkpt>
      <trkpt lat="45.86495" lon="3.00702">
        <ele>738.6</ele>
        <time>2025-08-07T17:03:34Z</time>
      </trkpt>
      <trkpt lat="45.86497" lon="3.00706">
        <ele>738.4</ele>
        <time>2025-08-07T17:03:35Z</time>
      </trkpt>
      <trkpt lat="45.86499" lon="3.00711">
        <ele>738.2</ele>
        <time>2025-08-07T17:03:36Z</time>
      </trkpt>
      <trkpt lat="45.86501" lon="3.00716">
        <ele>738</ele>
        <time>2025-08-07T17:03:37Z</time>
      </trkpt>
      <trkpt lat="45.86501" lon="3.00718">
        <ele>737.8</ele>
        <time>2025-08-07T17:03:38Z</time>
      </trkpt>
      <trkpt lat="45.86501" lon="3.00719">
        <ele>737.8</ele>
        <time>2025-08-07T17:03:39Z</time>
      </trkpt>
      <trkpt lat="45.86501" lon="3.00719">
        <ele>737.8</ele>
        <time>2025-08-07T17:03:40Z</time>
      </trkpt>
      <trkpt lat="45.86501" lon="3.00719">
        <ele>737.6</ele>
        <time>2025-08-07T17:03:41Z</time>
      </trkpt>
      <trkpt lat="45.86501" lon="3.00719">
        <ele>737.6</ele>
        <time>2025-08-07T17:03:42Z</time>
      </trkpt>
      <trkpt lat="45.86501" lon="3.00719">
        <ele>737.6</ele>
        <time>2025-08-07T17:03:43Z</time>
      </trkpt>
      <trkpt lat="45.86503" lon="3.00724">
        <ele>737.4</ele>
        <time>2025-08-07T17:03:53Z</time>
      </trkpt>
      <trkpt lat="45.86504" lon="3.00726">
        <ele>737.4</ele>
        <time>2025-08-07T17:03:54Z</time>
      </trkpt>
      <trkpt lat="45.86506" lon="3.00729">
        <ele>737.4</ele>
        <time>2025-08-07T17:03:55Z</time>
      </trkpt>
      <trkpt lat="45.86507" lon="3.00732">
        <ele>737.4</ele>
        <time>2025-08-07T17:03:56Z</time>
      </trkpt>
      <trkpt lat="45.86509" lon="3.00735">
        <ele>737.2</ele>
        <time>2025-08-07T17:03:57Z</time>
      </trkpt>
      <trkpt lat="45.86511" lon="3.00738">
        <ele>737</ele>
        <time>2025-08-07T17:03:58Z</time>
      </trkpt>
      <trkpt lat="45.86513" lon="3.00741">
        <ele>737</ele>
        <time>2025-08-07T17:03:59Z</time>
      </trkpt>
      <trkpt lat="45.86515" lon="3.00744">
        <ele>736.8</ele>
        <time>2025-08-07T17:04:00Z</time>
      </trkpt>
      <trkpt lat="45.86516" lon="3.00746">
        <ele>736.6</ele>
        <time>2025-08-07T17:04:01Z</time>
      </trkpt>
      <trkpt lat="45.86516" lon="3.00748">
        <ele>736.6</ele>
        <time>2025-08-07T17:04:02Z</time>
      </trkpt>
      <trkpt lat="45.86516" lon="3.0075">
        <ele>736.4</ele>
        <time>2025-08-07T17:04:03Z</time>
      </trkpt>
      <trkpt lat="45.86515" lon="3.0075">
        <ele>736.2</ele>
        <time>2025-08-07T17:04:04Z</time>
      </trkpt>
      <trkpt lat="45.86514" lon="3.0075">
        <ele>736</ele>
        <time>2025-08-07T17:04:05Z</time>
      </trkpt>
      <trkpt lat="45.86514" lon="3.00749">
        <ele>735.8</ele>
        <time>2025-08-07T17:04:06Z</time>
      </trkpt>
      <trkpt lat="45.86513" lon="3.00749">
        <ele>735.6</ele>
        <time>2025-08-07T17:04:07Z</time>
      </trkpt>
      <trkpt lat="45.86512" lon="3.00748">
        <ele>735.4</ele>
        <time>2025-08-07T17:04:08Z</time>
      </trkpt>
      <trkpt lat="45.86512" lon="3.00748">
        <ele>735</ele>
        <time>2025-08-07T17:04:09Z</time>
      </trkpt>
      <trkpt lat="45.86511" lon="3.00746">
        <ele>734.6</ele>
        <time>2025-08-07T17:04:10Z</time>
      </trkpt>
      <trkpt lat="45.86511" lon="3.00745">
        <ele>734.2</ele>
        <time>2025-08-07T17:04:11Z</time>
      </trkpt>
      <trkpt lat="45.8651" lon="3.00744">
        <ele>733.6</ele>
        <time>2025-08-07T17:04:12Z</time>
      </trkpt>
      <trkpt lat="45.8651" lon="3.00743">
        <ele>733.2</ele>
        <time>2025-08-07T17:04:13Z</time>
      </trkpt>
      <trkpt lat="45.86511" lon="3.00743">
        <ele>732.8</ele>
        <time>2025-08-07T17:04:14Z</time>
      </trkpt>
      <trkpt lat="45.86513" lon="3.00741">
        <ele>732.4</ele>
        <time>2025-08-07T17:04:15Z</time>
      </trkpt>
      <trkpt lat="45.86515" lon="3.0074">
        <ele>732.2</ele>
        <time>2025-08-07T17:04:16Z</time>
      </trkpt>
      <trkpt lat="45.86515" lon="3.00739">
        <ele>731.8</ele>
        <time>2025-08-07T17:04:17Z</time>
      </trkpt>
      <trkpt lat="45.86515" lon="3.00739">
        <ele>731.6</ele>
        <time>2025-08-07T17:04:18Z</time>
      </trkpt>
      <trkpt lat="45.86516" lon="3.00739">
        <ele>731.6</ele>
        <time>2025-08-07T17:04:19Z</time>
      </trkpt>
      <trkpt lat="45.86516" lon="3.00739">
        <ele>731.4</ele>
        <time>2025-08-07T17:04:20Z</time>
      </trkpt>
      <trkpt lat="45.86516" lon="3.00739">
        <ele>731.4</ele>
        <time>2025-08-07T17:04:21Z</time>
      </trkpt>
      <trkpt lat="45.86516" lon="3.00739">
        <ele>731.2</ele>
        <time>2025-08-07T17:04:22Z</time>
      </trkpt>
      <trkpt lat="45.86516" lon="3.00739">
        <ele>731.2</ele>
        <time>2025-08-07T17:04:23Z</time>
      </trkpt>
      <trkpt lat="45.86516" lon="3.00739">
        <ele>731.2</ele>
        <time>2025-08-07T17:04:24Z</time>
      </trkpt>
      <trkpt lat="45.8652" lon="3.0074">
        <ele>730.8</ele>
        <time>2025-08-07T17:04:39Z</time>
      </trkpt>
      <trkpt lat="45.86522" lon="3.0074">
        <ele>730.8</ele>
        <time>2025-08-07T17:04:40Z</time>
      </trkpt>
      <trkpt lat="45.86524" lon="3.0074">
        <ele>730.6</ele>
        <time>2025-08-07T17:04:41Z</time>
      </trkpt>
      <trkpt lat="45.86527" lon="3.0074">
        <ele>730.4</ele>
        <time>2025-08-07T17:04:42Z</time>
      </trkpt>
      <trkpt lat="45.8653" lon="3.00738">
        <ele>730.2</ele>
        <time>2025-08-07T17:04:43Z</time>
      </trkpt>
      <trkpt lat="45.86534" lon="3.00736">
        <ele>729.8</ele>
        <time>2025-08-07T17:04:44Z</time>
      </trkpt>
      <trkpt lat="45.86539" lon="3.00734">
        <ele>729.6</ele>
        <time>2025-08-07T17:04:45Z</time>
      </trkpt>
      <trkpt lat="45.86544" lon="3.00732">
        <ele>729.2</ele>
        <time>2025-08-07T17:04:46Z</time>
      </trkpt>
      <trkpt lat="45.86549" lon="3.00728">
        <ele>729</ele>
        <time>2025-08-07T17:04:47Z</time>
      </trkpt>
      <trkpt lat="45.86554" lon="3.00725">
        <ele>728.8</ele>
        <time>2025-08-07T17:04:48Z</time>
      </trkpt>
      <trkpt lat="45.86559" lon="3.00721">
        <ele>728.4</ele>
        <time>2025-08-07T17:04:49Z</time>
      </trkpt>
      <trkpt lat="45.86564" lon="3.00716">
        <ele>728.2</ele>
        <time>2025-08-07T17:04:50Z</time>
      </trkpt>
      <trkpt lat="45.8657" lon="3.00712">
        <ele>727.8</ele>
        <time>2025-08-07T17:04:51Z</time>
      </trkpt>
      <trkpt lat="45.86578" lon="3.00707">
        <ele>727.6</ele>
        <time>2025-08-07T17:04:52Z</time>
      </trkpt>
      <trkpt lat="45.86583" lon="3.00702">
        <ele>727.4</ele>
        <time>2025-08-07T17:04:53Z</time>
      </trkpt>
      <trkpt lat="45.86588" lon="3.00698">
        <ele>727.2</ele>
        <time>2025-08-07T17:04:54Z</time>
      </trkpt>
      <trkpt lat="45.86589" lon="3.00694">
        <ele>727</ele>
        <time>2025-08-07T17:04:55Z</time>
      </trkpt>
      <trkpt lat="45.86589" lon="3.00691">
        <ele>726.8</ele>
        <time>2025-08-07T17:04:56Z</time>
      </trkpt>
      <trkpt lat="45.86589" lon="3.00688">
        <ele>726.8</ele>
        <time>2025-08-07T17:04:57Z</time>
      </trkpt>
      <trkpt lat="45.86588" lon="3.00682">
        <ele>726.6</ele>
        <time>2025-08-07T17:04:58Z</time>
      </trkpt>
      <trkpt lat="45.86585" lon="3.00678">
        <ele>726.4</ele>
        <time>2025-08-07T17:04:59Z</time>
      </trkpt>
      <trkpt lat="45.86583" lon="3.00672">
        <ele>726.4</ele>
        <time>2025-08-07T17:05:00Z</time>
      </trkpt>
      <trkpt lat="45.86583" lon="3.00665">
        <ele>726.2</ele>
        <time>2025-08-07T17:05:01Z</time>
      </trkpt>
      <trkpt lat="45.86584" lon="3.00658">
        <ele>725.8</ele>
        <time>2025-08-07T17:05:02Z</time>
      </trkpt>
      <trkpt lat="45.86586" lon="3.00651">
        <ele>725.6</ele>
        <time>2025-08-07T17:05:03Z</time>
      </trkpt>
      <trkpt lat="45.86588" lon="3.00645">
        <ele>725.4</ele>
        <time>2025-08-07T17:05:04Z</time>
      </trkpt>
      <trkpt lat="45.86591" lon="3.00639">
        <ele>725.2</ele>
        <time>2025-08-07T17:05:05Z</time>
      </trkpt>
      <trkpt lat="45.86594" lon="3.00635">
        <ele>725.2</ele>
        <time>2025-08-07T17:05:06Z</time>
      </trkpt>
      <trkpt lat="45.86595" lon="3.00634">
        <ele>725.2</ele>
        <time>2025-08-07T17:05:07Z</time>
      </trkpt>
      <trkpt lat="45.86595" lon="3.00632">
        <ele>725.4</ele>
        <time>2025-08-07T17:05:08Z</time>
      </trkpt>
      <trkpt lat="45.86597" lon="3.00628">
        <ele>725.4</ele>
        <time>2025-08-07T17:05:09Z</time>
      </trkpt>
      <trkpt lat="45.86599" lon="3.00623">
        <ele>725.4</ele>
        <time>2025-08-07T17:05:10Z</time>
      </trkpt>
      <trkpt lat="45.866" lon="3.00618">
        <ele>725.6</ele>
        <time>2025-08-07T17:05:11Z</time>
      </trkpt>
      <trkpt lat="45.86602" lon="3.00612">
        <ele>725.6</ele>
        <time>2025-08-07T17:05:12Z</time>
      </trkpt>
      <trkpt lat="45.86602" lon="3.00606">
        <ele>725.8</ele>
        <time>2025-08-07T17:05:13Z</time>
      </trkpt>
      <trkpt lat="45.86603" lon="3.00598">
        <ele>725.8</ele>
        <time>2025-08-07T17:05:14Z</time>
      </trkpt>
      <trkpt lat="45.86604" lon="3.00591">
        <ele>726</ele>
        <time>2025-08-07T17:05:15Z</time>
      </trkpt>
      <trkpt lat="45.86605" lon="3.00583">
        <ele>726</ele>
        <time>2025-08-07T17:05:16Z</time>
      </trkpt>
      <trkpt lat="45.86606" lon="3.00575">
        <ele>726</ele>
        <time>2025-08-07T17:05:17Z</time>
      </trkpt>
      <trkpt lat="45.86606" lon="3.00569">
        <ele>726</ele>
        <time>2025-08-07T17:05:18Z</time>
      </trkpt>
      <trkpt lat="45.86607" lon="3.00566">
        <ele>726.2</ele>
        <time>2025-08-07T17:05:19Z</time>
      </trkpt>
      <trkpt lat="45.86608" lon="3.00563">
        <ele>726.2</ele>
        <time>2025-08-07T17:05:20Z</time>
      </trkpt>
      <trkpt lat="45.86612" lon="3.00559">
        <ele>726.2</ele>
        <time>2025-08-07T17:05:21Z</time>
      </trkpt>
      <trkpt lat="45.86615" lon="3.00552">
        <ele>726.2</ele>
        <time>2025-08-07T17:05:22Z</time>
      </trkpt>
      <trkpt lat="45.86617" lon="3.00547">
        <ele>726</ele>
        <time>2025-08-07T17:05:23Z</time>
      </trkpt>
      <trkpt lat="45.86618" lon="3.0054">
        <ele>725.8</ele>
        <time>2025-08-07T17:05:24Z</time>
      </trkpt>
      <trkpt lat="45.86623" lon="3.00532">
        <ele>725.8</ele>
        <time>2025-08-07T17:05:25Z</time>
      </trkpt>
      <trkpt lat="45.86627" lon="3.00523">
        <ele>725.6</ele>
        <time>2025-08-07T17:05:26Z</time>
      </trkpt>
      <trkpt lat="45.86629" lon="3.00512">
        <ele>725.4</ele>
        <time>2025-08-07T17:05:27Z</time>
      </trkpt>
      <trkpt lat="45.86632" lon="3.00501">
        <ele>725</ele>
        <time>2025-08-07T17:05:28Z</time>
      </trkpt>
      <trkpt lat="45.86635" lon="3.00493">
        <ele>724.8</ele>
        <time>2025-08-07T17:05:29Z</time>
      </trkpt>
      <trkpt lat="45.86637" lon="3.00488">
        <ele>724.6</ele>
        <time>2025-08-07T17:05:30Z</time>
      </trkpt>
      <trkpt lat="45.8664" lon="3.00483">
        <ele>724.4</ele>
        <time>2025-08-07T17:05:31Z</time>
      </trkpt>
      <trkpt lat="45.86645" lon="3.00478">
        <ele>724</ele>
        <time>2025-08-07T17:05:32Z</time>
      </trkpt>
      <trkpt lat="45.8665" lon="3.00473">
        <ele>723.8</ele>
        <time>2025-08-07T17:05:33Z</time>
      </trkpt>
      <trkpt lat="45.86655" lon="3.00467">
        <ele>723.6</ele>
        <time>2025-08-07T17:05:34Z</time>
      </trkpt>
      <trkpt lat="45.86659" lon="3.00461">
        <ele>723.6</ele>
        <time>2025-08-07T17:05:35Z</time>
      </trkpt>
      <trkpt lat="45.86665" lon="3.00456">
        <ele>723.4</ele>
        <time>2025-08-07T17:05:36Z</time>
      </trkpt>
      <trkpt lat="45.8667" lon="3.00451">
        <ele>723.2</ele>
        <time>2025-08-07T17:05:37Z</time>
      </trkpt>
      <trkpt lat="45.86671" lon="3.00448">
        <ele>723.2</ele>
        <time>2025-08-07T17:05:38Z</time>
      </trkpt>
      <trkpt lat="45.86673" lon="3.00446">
        <ele>723.2</ele>
        <time>2025-08-07T17:05:39Z</time>
      </trkpt>
      <trkpt lat="45.86678" lon="3.00443">
        <ele>723.2</ele>
        <time>2025-08-07T17:05:40Z</time>
      </trkpt>
      <trkpt lat="45.86682" lon="3.00438">
        <ele>723.4</ele>
        <time>2025-08-07T17:05:41Z</time>
      </trkpt>
      <trkpt lat="45.86685" lon="3.00434">
        <ele>723.4</ele>
        <time>2025-08-07T17:05:42Z</time>
      </trkpt>
      <trkpt lat="45.86686" lon="3.00431">
        <ele>723.6</ele>
        <time>2025-08-07T17:05:43Z</time>
      </trkpt>
      <trkpt lat="45.86687" lon="3.00427">
        <ele>723.6</ele>
        <time>2025-08-07T17:05:44Z</time>
      </trkpt>
      <trkpt lat="45.86689" lon="3.00422">
        <ele>723.8</ele>
        <time>2025-08-07T17:05:45Z</time>
      </trkpt>
      <trkpt lat="45.86693" lon="3.00418">
        <ele>723.8</ele>
        <time>2025-08-07T17:05:46Z</time>
      </trkpt>
      <trkpt lat="45.86697" lon="3.00414">
        <ele>723.8</ele>
        <time>2025-08-07T17:05:47Z</time>
      </trkpt>
      <trkpt lat="45.86701" lon="3.00407">
        <ele>723.8</ele>
        <time>2025-08-07T17:05:48Z</time>
      </trkpt>
      <trkpt lat="45.86706" lon="3.00401">
        <ele>724</ele>
        <time>2025-08-07T17:05:49Z</time>
      </trkpt>
      <trkpt lat="45.86712" lon="3.00394">
        <ele>724.2</ele>
        <time>2025-08-07T17:05:50Z</time>
      </trkpt>
      <trkpt lat="45.86718" lon="3.00387">
        <ele>724.2</ele>
        <time>2025-08-07T17:05:51Z</time>
      </trkpt>
      <trkpt lat="45.86724" lon="3.00379">
        <ele>724.4</ele>
        <time>2025-08-07T17:05:52Z</time>
      </trkpt>
      <trkpt lat="45.86728" lon="3.00372">
        <ele>724.6</ele>
        <time>2025-08-07T17:05:53Z</time>
      </trkpt>
      <trkpt lat="45.86733" lon="3.00364">
        <ele>724.8</ele>
        <time>2025-08-07T17:05:54Z</time>
      </trkpt>
      <trkpt lat="45.86736" lon="3.00358">
        <ele>725</ele>
        <time>2025-08-07T17:05:55Z</time>
      </trkpt>
      <trkpt lat="45.86737" lon="3.00352">
        <ele>725.2</ele>
        <time>2025-08-07T17:05:56Z</time>
      </trkpt>
      <trkpt lat="45.86736" lon="3.00345">
        <ele>725.4</ele>
        <time>2025-08-07T17:05:57Z</time>
      </trkpt>
      <trkpt lat="45.86737" lon="3.0034">
        <ele>725.6</ele>
        <time>2025-08-07T17:05:58Z</time>
      </trkpt>
      <trkpt lat="45.86739" lon="3.00333">
        <ele>726</ele>
        <time>2025-08-07T17:05:59Z</time>
      </trkpt>
      <trkpt lat="45.86742" lon="3.00324">
        <ele>726.2</ele>
        <time>2025-08-07T17:06:00Z</time>
      </trkpt>
      <trkpt lat="45.86745" lon="3.00317">
        <ele>726.4</ele>
        <time>2025-08-07T17:06:01Z</time>
      </trkpt>
      <trkpt lat="45.86748" lon="3.0031">
        <ele>726.6</ele>
        <time>2025-08-07T17:06:02Z</time>
      </trkpt>
      <trkpt lat="45.86749" lon="3.00305">
        <ele>726.6</ele>
        <time>2025-08-07T17:06:03Z</time>
      </trkpt>
      <trkpt lat="45.86751" lon="3.003">
        <ele>726.8</ele>
        <time>2025-08-07T17:06:04Z</time>
      </trkpt>
      <trkpt lat="45.86753" lon="3.00295">
        <ele>727</ele>
        <time>2025-08-07T17:06:05Z</time>
      </trkpt>
      <trkpt lat="45.86756" lon="3.00289">
        <ele>727</ele>
        <time>2025-08-07T17:06:06Z</time>
      </trkpt>
      <trkpt lat="45.86759" lon="3.00284">
        <ele>727</ele>
        <time>2025-08-07T17:06:07Z</time>
      </trkpt>
      <trkpt lat="45.86763" lon="3.00279">
        <ele>727</ele>
        <time>2025-08-07T17:06:08Z</time>
      </trkpt>
      <trkpt lat="45.86765" lon="3.00274">
        <ele>727</ele>
        <time>2025-08-07T17:06:09Z</time>
      </trkpt>
      <trkpt lat="45.86769" lon="3.00266">
        <ele>726.8</ele>
        <time>2025-08-07T17:06:10Z</time>
      </trkpt>
      <trkpt lat="45.86776" lon="3.00258">
        <ele>726.8</ele>
        <time>2025-08-07T17:06:11Z</time>
      </trkpt>
      <trkpt lat="45.8678" lon="3.00249">
        <ele>726.8</ele>
        <time>2025-08-07T17:06:12Z</time>
      </trkpt>
      <trkpt lat="45.86786" lon="3.00242">
        <ele>726.6</ele>
        <time>2025-08-07T17:06:13Z</time>
      </trkpt>
      <trkpt lat="45.86787" lon="3.00235">
        <ele>726.6</ele>
        <time>2025-08-07T17:06:14Z</time>
      </trkpt>
      <trkpt lat="45.86791" lon="3.00224">
        <ele>726.6</ele>
        <time>2025-08-07T17:06:15Z</time>
      </trkpt>
      <trkpt lat="45.86793" lon="3.00214">
        <ele>726.4</ele>
        <time>2025-08-07T17:06:16Z</time>
      </trkpt>
      <trkpt lat="45.86795" lon="3.00208">
        <ele>726.2</ele>
        <time>2025-08-07T17:06:17Z</time>
      </trkpt>
      <trkpt lat="45.86799" lon="3.00199">
        <ele>726.2</ele>
        <time>2025-08-07T17:06:18Z</time>
      </trkpt>
      <trkpt lat="45.86803" lon="3.00191">
        <ele>726</ele>
        <time>2025-08-07T17:06:19Z</time>
      </trkpt>
      <trkpt lat="45.86805" lon="3.00181">
        <ele>725.8</ele>
        <time>2025-08-07T17:06:20Z</time>
      </trkpt>
      <trkpt lat="45.86807" lon="3.00175">
        <ele>725.8</ele>
        <time>2025-08-07T17:06:21Z</time>
      </trkpt>
      <trkpt lat="45.8681" lon="3.00169">
        <ele>725.6</ele>
        <time>2025-08-07T17:06:22Z</time>
      </trkpt>
      <trkpt lat="45.86813" lon="3.00162">
        <ele>725.6</ele>
        <time>2025-08-07T17:06:23Z</time>
      </trkpt>
      <trkpt lat="45.86816" lon="3.00155">
        <ele>725.4</ele>
        <time>2025-08-07T17:06:24Z</time>
      </trkpt>
      <trkpt lat="45.86818" lon="3.00149">
        <ele>725.4</ele>
        <time>2025-08-07T17:06:25Z</time>
      </trkpt>
      <trkpt lat="45.86821" lon="3.00143">
        <ele>725.2</ele>
        <time>2025-08-07T17:06:26Z</time>
      </trkpt>
      <trkpt lat="45.86822" lon="3.00137">
        <ele>725.2</ele>
        <time>2025-08-07T17:06:27Z</time>
      </trkpt>
      <trkpt lat="45.86825" lon="3.00129">
        <ele>725.2</ele>
        <time>2025-08-07T17:06:28Z</time>
      </trkpt>
      <trkpt lat="45.86828" lon="3.00122">
        <ele>725</ele>
        <time>2025-08-07T17:06:29Z</time>
      </trkpt>
      <trkpt lat="45.86827" lon="3.00118">
        <ele>725</ele>
        <time>2025-08-07T17:06:30Z</time>
      </trkpt>
      <trkpt lat="45.86828" lon="3.00114">
        <ele>725</ele>
        <time>2025-08-07T17:06:31Z</time>
      </trkpt>
      <trkpt lat="45.8683" lon="3.00108">
        <ele>725</ele>
        <time>2025-08-07T17:06:32Z</time>
      </trkpt>
      <trkpt lat="45.86834" lon="3.00101">
        <ele>725</ele>
        <time>2025-08-07T17:06:33Z</time>
      </trkpt>
      <trkpt lat="45.86836" lon="3.00093">
        <ele>725</ele>
        <time>2025-08-07T17:06:34Z</time>
      </trkpt>
      <trkpt lat="45.86835" lon="3.00085">
        <ele>725</ele>
        <time>2025-08-07T17:06:35Z</time>
      </trkpt>
      <trkpt lat="45.86835" lon="3.00077">
        <ele>725.2</ele>
        <time>2025-08-07T17:06:36Z</time>
      </trkpt>
      <trkpt lat="45.86837" lon="3.00068">
        <ele>725.2</ele>
        <time>2025-08-07T17:06:37Z</time>
      </trkpt>
      <trkpt lat="45.86839" lon="3.0006">
        <ele>725.4</ele>
        <time>2025-08-07T17:06:38Z</time>
      </trkpt>
      <trkpt lat="45.8684" lon="3.00053">
        <ele>725.4</ele>
        <time>2025-08-07T17:06:39Z</time>
      </trkpt>
      <trkpt lat="45.8684" lon="3.00046">
        <ele>725.6</ele>
        <time>2025-08-07T17:06:40Z</time>
      </trkpt>
      <trkpt lat="45.86841" lon="3.00039">
        <ele>725.6</ele>
        <time>2025-08-07T17:06:41Z</time>
      </trkpt>
      <trkpt lat="45.86843" lon="3.00033">
        <ele>725.8</ele>
        <time>2025-08-07T17:06:42Z</time>
      </trkpt>
      <trkpt lat="45.86846" lon="3.00025">
        <ele>725.8</ele>
        <time>2025-08-07T17:06:43Z</time>
      </trkpt>
      <trkpt lat="45.86849" lon="3.00018">
        <ele>725.6</ele>
        <time>2025-08-07T17:06:44Z</time>
      </trkpt>
      <trkpt lat="45.86851" lon="3.00013">
        <ele>725.6</ele>
        <time>2025-08-07T17:06:45Z</time>
      </trkpt>
      <trkpt lat="45.86854" lon="3.00007">
        <ele>725.6</ele>
        <time>2025-08-07T17:06:46Z</time>
      </trkpt>
      <trkpt lat="45.86857" lon="2.99999">
        <ele>725.6</ele>
        <time>2025-08-07T17:06:47Z</time>
      </trkpt>
      <trkpt lat="45.86861" lon="2.9999">
        <ele>725.4</ele>
        <time>2025-08-07T17:06:48Z</time>
      </trkpt>
      <trkpt lat="45.86868" lon="2.99983">
        <ele>725.4</ele>
        <time>2025-08-07T17:06:49Z</time>
      </trkpt>
      <trkpt lat="45.86873" lon="2.99976">
        <ele>725.4</ele>
        <time>2025-08-07T17:06:50Z</time>
      </trkpt>
      <trkpt lat="45.86877" lon="2.99969">
        <ele>725.4</ele>
        <time>2025-08-07T17:06:51Z</time>
      </trkpt>
      <trkpt lat="45.86879" lon="2.99963">
        <ele>725.4</ele>
        <time>2025-08-07T17:06:52Z</time>
      </trkpt>
      <trkpt lat="45.86882" lon="2.99957">
        <ele>725.2</ele>
        <time>2025-08-07T17:06:53Z</time>
      </trkpt>
      <trkpt lat="45.86886" lon="2.99949">
        <ele>725.2</ele>
        <time>2025-08-07T17:06:54Z</time>
      </trkpt>
      <trkpt lat="45.86888" lon="2.99943">
        <ele>725.2</ele>
        <time>2025-08-07T17:06:55Z</time>
      </trkpt>
      <trkpt lat="45.8689" lon="2.99939">
        <ele>725.4</ele>
        <time>2025-08-07T17:06:56Z</time>
      </trkpt>
      <trkpt lat="45.86891" lon="2.99937">
        <ele>725.6</ele>
        <time>2025-08-07T17:06:57Z</time>
      </trkpt>
      <trkpt lat="45.86893" lon="2.99936">
        <ele>725.6</ele>
        <time>2025-08-07T17:06:58Z</time>
      </trkpt>
      <trkpt lat="45.86895" lon="2.99936">
        <ele>725.8</ele>
        <time>2025-08-07T17:06:59Z</time>
      </trkpt>
      <trkpt lat="45.86898" lon="2.99935">
        <ele>726</ele>
        <time>2025-08-07T17:07:00Z</time>
      </trkpt>
      <trkpt lat="45.86904" lon="2.99933">
        <ele>726</ele>
        <time>2025-08-07T17:07:01Z</time>
      </trkpt>
      <trkpt lat="45.8691" lon="2.99926">
        <ele>726</ele>
        <time>2025-08-07T17:07:02Z</time>
      </trkpt>
      <trkpt lat="45.86916" lon="2.99924">
        <ele>726</ele>
        <time>2025-08-07T17:07:03Z</time>
      </trkpt>
      <trkpt lat="45.86931" lon="2.99924">
        <ele>726</ele>
        <time>2025-08-07T17:07:04Z</time>
      </trkpt>
      <trkpt lat="45.86939" lon="2.99925">
        <ele>726</ele>
        <time>2025-08-07T17:07:05Z</time>
      </trkpt>
      <trkpt lat="45.86945" lon="2.99926">
        <ele>726</ele>
        <time>2025-08-07T17:07:06Z</time>
      </trkpt>
      <trkpt lat="45.8695" lon="2.99927">
        <ele>726</ele>
        <time>2025-08-07T17:07:07Z</time>
      </trkpt>
      <trkpt lat="45.86956" lon="2.99927">
        <ele>726</ele>
        <time>2025-08-07T17:07:08Z</time>
      </trkpt>
      <trkpt lat="45.8696" lon="2.99928">
        <ele>726</ele>
        <time>2025-08-07T17:07:09Z</time>
      </trkpt>
      <trkpt lat="45.86962" lon="2.99929">
        <ele>726.2</ele>
        <time>2025-08-07T17:07:10Z</time>
      </trkpt>
      <trkpt lat="45.86967" lon="2.99929">
        <ele>726.2</ele>
        <time>2025-08-07T17:07:11Z</time>
      </trkpt>
      <trkpt lat="45.86974" lon="2.99928">
        <ele>726.2</ele>
        <time>2025-08-07T17:07:12Z</time>
      </trkpt>
      <trkpt lat="45.86982" lon="2.99925">
        <ele>726.2</ele>
        <time>2025-08-07T17:07:13Z</time>
      </trkpt>
      <trkpt lat="45.8699" lon="2.99922">
        <ele>726.2</ele>
        <time>2025-08-07T17:07:14Z</time>
      </trkpt>
      <trkpt lat="45.86999" lon="2.99917">
        <ele>726.4</ele>
        <time>2025-08-07T17:07:15Z</time>
      </trkpt>
      <trkpt lat="45.87003" lon="2.99913">
        <ele>726.4</ele>
        <time>2025-08-07T17:07:16Z</time>
      </trkpt>
      <trkpt lat="45.87007" lon="2.99907">
        <ele>726.4</ele>
        <time>2025-08-07T17:07:17Z</time>
      </trkpt>
      <trkpt lat="45.87011" lon="2.99903">
        <ele>726.6</ele>
        <time>2025-08-07T17:07:18Z</time>
      </trkpt>
      <trkpt lat="45.87015" lon="2.999">
        <ele>726.6</ele>
        <time>2025-08-07T17:07:19Z</time>
      </trkpt>
      <trkpt lat="45.87018" lon="2.99899">
        <ele>726.8</ele>
        <time>2025-08-07T17:07:20Z</time>
      </trkpt>
      <trkpt lat="45.87021" lon="2.99895">
        <ele>726.8</ele>
        <time>2025-08-07T17:07:21Z</time>
      </trkpt>
      <trkpt lat="45.87024" lon="2.99891">
        <ele>726.8</ele>
        <time>2025-08-07T17:07:22Z</time>
      </trkpt>
      <trkpt lat="45.8703" lon="2.99888">
        <ele>727</ele>
        <time>2025-08-07T17:07:23Z</time>
      </trkpt>
      <trkpt lat="45.87035" lon="2.99884">
        <ele>727</ele>
        <time>2025-08-07T17:07:24Z</time>
      </trkpt>
      <trkpt lat="45.87041" lon="2.9988">
        <ele>727.2</ele>
        <time>2025-08-07T17:07:25Z</time>
      </trkpt>
      <trkpt lat="45.87049" lon="2.99874">
        <ele>727.2</ele>
        <time>2025-08-07T17:07:26Z</time>
      </trkpt>
      <trkpt lat="45.87057" lon="2.99871">
        <ele>727.4</ele>
        <time>2025-08-07T17:07:27Z</time>
      </trkpt>
      <trkpt lat="45.87061" lon="2.99868">
        <ele>727.6</ele>
        <time>2025-08-07T17:07:28Z</time>
      </trkpt>
      <trkpt lat="45.87065" lon="2.99866">
        <ele>727.8</ele>
        <time>2025-08-07T17:07:29Z</time>
      </trkpt>
      <trkpt lat="45.87068" lon="2.99862">
        <ele>727.8</ele>
        <time>2025-08-07T17:07:30Z</time>
      </trkpt>
      <trkpt lat="45.8707" lon="2.99859">
        <ele>728</ele>
        <time>2025-08-07T17:07:31Z</time>
      </trkpt>
      <trkpt lat="45.87073" lon="2.99856">
        <ele>728</ele>
        <time>2025-08-07T17:07:32Z</time>
      </trkpt>
      <trkpt lat="45.87076" lon="2.99853">
        <ele>728.2</ele>
        <time>2025-08-07T17:07:33Z</time>
      </trkpt>
      <trkpt lat="45.87076" lon="2.99853">
        <ele>728.2</ele>
        <time>2025-08-07T17:07:34Z</time>
      </trkpt>
      <trkpt lat="45.87076" lon="2.99854">
        <ele>728.2</ele>
        <time>2025-08-07T17:07:35Z</time>
      </trkpt>
      <trkpt lat="45.87077" lon="2.99855">
        <ele>728</ele>
        <time>2025-08-07T17:07:36Z</time>
      </trkpt>
      <trkpt lat="45.87078" lon="2.99857">
        <ele>728</ele>
        <time>2025-08-07T17:07:37Z</time>
      </trkpt>
      <trkpt lat="45.87079" lon="2.99861">
        <ele>727.8</ele>
        <time>2025-08-07T17:07:38Z</time>
      </trkpt>
      <trkpt lat="45.8708" lon="2.99864">
        <ele>727.8</ele>
        <time>2025-08-07T17:07:39Z</time>
      </trkpt>
      <trkpt lat="45.8708" lon="2.99867">
        <ele>727.6</ele>
        <time>2025-08-07T17:07:40Z</time>
      </trkpt>
      <trkpt lat="45.8708" lon="2.9987">
        <ele>727.4</ele>
        <time>2025-08-07T17:07:41Z</time>
      </trkpt>
      <trkpt lat="45.8708" lon="2.99875">
        <ele>727</ele>
        <time>2025-08-07T17:07:42Z</time>
      </trkpt>
      <trkpt lat="45.8708" lon="2.9988">
        <ele>726.8</ele>
        <time>2025-08-07T17:07:43Z</time>
      </trkpt>
      <trkpt lat="45.8708" lon="2.99886">
        <ele>726.4</ele>
        <time>2025-08-07T17:07:44Z</time>
      </trkpt>
      <trkpt lat="45.8708" lon="2.99892">
        <ele>726.2</ele>
        <time>2025-08-07T17:07:45Z</time>
      </trkpt>
      <trkpt lat="45.8708" lon="2.99897">
        <ele>725.8</ele>
        <time>2025-08-07T17:07:46Z</time>
      </trkpt>
      <trkpt lat="45.8708" lon="2.99903">
        <ele>725.4</ele>
        <time>2025-08-07T17:07:47Z</time>
      </trkpt>
      <trkpt lat="45.87082" lon="2.9991">
        <ele>725.2</ele>
        <time>2025-08-07T17:07:48Z</time>
      </trkpt>
      <trkpt lat="45.87083" lon="2.99919">
        <ele>724.6</ele>
        <time>2025-08-07T17:07:49Z</time>
      </trkpt>
      <trkpt lat="45.87084" lon="2.9993">
        <ele>724.2</ele>
        <time>2025-08-07T17:07:50Z</time>
      </trkpt>
      <trkpt lat="45.87084" lon="2.99941">
        <ele>723.6</ele>
        <time>2025-08-07T17:07:51Z</time>
      </trkpt>
      <trkpt lat="45.87085" lon="2.99951">
        <ele>723</ele>
        <time>2025-08-07T17:07:52Z</time>
      </trkpt>
      <trkpt lat="45.87085" lon="2.99961">
        <ele>722.4</ele>
        <time>2025-08-07T17:07:53Z</time>
      </trkpt>
      <trkpt lat="45.87086" lon="2.99971">
        <ele>721.6</ele>
        <time>2025-08-07T17:07:54Z</time>
      </trkpt>
      <trkpt lat="45.87087" lon="2.99982">
        <ele>721</ele>
        <time>2025-08-07T17:07:55Z</time>
      </trkpt>
      <trkpt lat="45.87088" lon="2.99997">
        <ele>720.4</ele>
        <time>2025-08-07T17:07:56Z</time>
      </trkpt>
      <trkpt lat="45.87088" lon="3.0001">
        <ele>719.8</ele>
        <time>2025-08-07T17:07:57Z</time>
      </trkpt>
      <trkpt lat="45.87088" lon="3.00022">
        <ele>719.4</ele>
        <time>2025-08-07T17:07:58Z</time>
      </trkpt>
      <trkpt lat="45.87089" lon="3.00034">
        <ele>718.8</ele>
        <time>2025-08-07T17:07:59Z</time>
      </trkpt>
      <trkpt lat="45.8709" lon="3.00044">
        <ele>718.2</ele>
        <time>2025-08-07T17:08:00Z</time>
      </trkpt>
      <trkpt lat="45.8709" lon="3.00055">
        <ele>717.6</ele>
        <time>2025-08-07T17:08:01Z</time>
      </trkpt>
      <trkpt lat="45.87089" lon="3.00065">
        <ele>717</ele>
        <time>2025-08-07T17:08:02Z</time>
      </trkpt>
      <trkpt lat="45.87089" lon="3.00076">
        <ele>716.4</ele>
        <time>2025-08-07T17:08:03Z</time>
      </trkpt>
      <trkpt lat="45.87088" lon="3.00086">
        <ele>716</ele>
        <time>2025-08-07T17:08:04Z</time>
      </trkpt>
      <trkpt lat="45.87086" lon="3.001">
        <ele>715.4</ele>
        <time>2025-08-07T17:08:05Z</time>
      </trkpt>
      <trkpt lat="45.87086" lon="3.00111">
        <ele>714.8</ele>
        <time>2025-08-07T17:08:06Z</time>
      </trkpt>
      <trkpt lat="45.87086" lon="3.00121">
        <ele>714.4</ele>
        <time>2025-08-07T17:08:07Z</time>
      </trkpt>
      <trkpt lat="45.87086" lon="3.00134">
        <ele>714</ele>
        <time>2025-08-07T17:08:08Z</time>
      </trkpt>
      <trkpt lat="45.87088" lon="3.00146">
        <ele>713.4</ele>
        <time>2025-08-07T17:08:09Z</time>
      </trkpt>
      <trkpt lat="45.8709" lon="3.00159">
        <ele>712.8</ele>
        <time>2025-08-07T17:08:10Z</time>
      </trkpt>
      <trkpt lat="45.8709" lon="3.00174">
        <ele>712.4</ele>
        <time>2025-08-07T17:08:11Z</time>
      </trkpt>
      <trkpt lat="45.87088" lon="3.00187">
        <ele>711.8</ele>
        <time>2025-08-07T17:08:12Z</time>
      </trkpt>
      <trkpt lat="45.87086" lon="3.00199">
        <ele>711.4</ele>
        <time>2025-08-07T17:08:13Z</time>
      </trkpt>
      <trkpt lat="45.87086" lon="3.0021">
        <ele>711</ele>
        <time>2025-08-07T17:08:14Z</time>
      </trkpt>
      <trkpt lat="45.87085" lon="3.00221">
        <ele>710.6</ele>
        <time>2025-08-07T17:08:15Z</time>
      </trkpt>
      <trkpt lat="45.87083" lon="3.00233">
        <ele>710.2</ele>
        <time>2025-08-07T17:08:16Z</time>
      </trkpt>
      <trkpt lat="45.87084" lon="3.00243">
        <ele>709.6</ele>
        <time>2025-08-07T17:08:17Z</time>
      </trkpt>
      <trkpt lat="45.87084" lon="3.00251">
        <ele>709.2</ele>
        <time>2025-08-07T17:08:18Z</time>
      </trkpt>
      <trkpt lat="45.87085" lon="3.00259">
        <ele>708.8</ele>
        <time>2025-08-07T17:08:19Z</time>
      </trkpt>
      <trkpt lat="45.87086" lon="3.00268">
        <ele>708.4</ele>
        <time>2025-08-07T17:08:20Z</time>
      </trkpt>
      <trkpt lat="45.87086" lon="3.00278">
        <ele>708</ele>
        <time>2025-08-07T17:08:21Z</time>
      </trkpt>
      <trkpt lat="45.87085" lon="3.00291">
        <ele>707.6</ele>
        <time>2025-08-07T17:08:22Z</time>
      </trkpt>
      <trkpt lat="45.87083" lon="3.00311">
        <ele>707.4</ele>
        <time>2025-08-07T17:08:23Z</time>
      </trkpt>
      <trkpt lat="45.87081" lon="3.00324">
        <ele>707</ele>
        <time>2025-08-07T17:08:24Z</time>
      </trkpt>
      <trkpt lat="45.87084" lon="3.00335">
        <ele>706.8</ele>
        <time>2025-08-07T17:08:25Z</time>
      </trkpt>
      <trkpt lat="45.87088" lon="3.00344">
        <ele>706.6</ele>
        <time>2025-08-07T17:08:26Z</time>
      </trkpt>
      <trkpt lat="45.87089" lon="3.00354">
        <ele>706.4</ele>
        <time>2025-08-07T17:08:27Z</time>
      </trkpt>
      <trkpt lat="45.87091" lon="3.00366">
        <ele>706</ele>
        <time>2025-08-07T17:08:28Z</time>
      </trkpt>
      <trkpt lat="45.87091" lon="3.00378">
        <ele>705.6</ele>
        <time>2025-08-07T17:08:29Z</time>
      </trkpt>
      <trkpt lat="45.87091" lon="3.00387">
        <ele>705.4</ele>
        <time>2025-08-07T17:08:30Z</time>
      </trkpt>
      <trkpt lat="45.87091" lon="3.00397">
        <ele>705</ele>
        <time>2025-08-07T17:08:31Z</time>
      </trkpt>
      <trkpt lat="45.87091" lon="3.00407">
        <ele>704.8</ele>
        <time>2025-08-07T17:08:32Z</time>
      </trkpt>
      <trkpt lat="45.87092" lon="3.00415">
        <ele>704.4</ele>
        <time>2025-08-07T17:08:33Z</time>
      </trkpt>
      <trkpt lat="45.87092" lon="3.00425">
        <ele>703.8</ele>
        <time>2025-08-07T17:08:34Z</time>
      </trkpt>
      <trkpt lat="45.87093" lon="3.00434">
        <ele>703.6</ele>
        <time>2025-08-07T17:08:35Z</time>
      </trkpt>
      <trkpt lat="45.87092" lon="3.00446">
        <ele>703.2</ele>
        <time>2025-08-07T17:08:36Z</time>
      </trkpt>
      <trkpt lat="45.87092" lon="3.00458">
        <ele>702.8</ele>
        <time>2025-08-07T17:08:37Z</time>
      </trkpt>
      <trkpt lat="45.87093" lon="3.0047">
        <ele>702.4</ele>
        <time>2025-08-07T17:08:38Z</time>
      </trkpt>
      <trkpt lat="45.87093" lon="3.00484">
        <ele>702</ele>
        <time>2025-08-07T17:08:39Z</time>
      </trkpt>
      <trkpt lat="45.87094" lon="3.00495">
        <ele>701.6</ele>
        <time>2025-08-07T17:08:40Z</time>
      </trkpt>
      <trkpt lat="45.87094" lon="3.00504">
        <ele>701.2</ele>
        <time>2025-08-07T17:08:41Z</time>
      </trkpt>
      <trkpt lat="45.87094" lon="3.00512">
        <ele>700.8</ele>
        <time>2025-08-07T17:08:42Z</time>
      </trkpt>
      <trkpt lat="45.87094" lon="3.00522">
        <ele>700.4</ele>
        <time>2025-08-07T17:08:43Z</time>
      </trkpt>
      <trkpt lat="45.87094" lon="3.00531">
        <ele>699.8</ele>
        <time>2025-08-07T17:08:44Z</time>
      </trkpt>
      <trkpt lat="45.87093" lon="3.0054">
        <ele>699.4</ele>
        <time>2025-08-07T17:08:45Z</time>
      </trkpt>
      <trkpt lat="45.87091" lon="3.00549">
        <ele>699</ele>
        <time>2025-08-07T17:08:46Z</time>
      </trkpt>
      <trkpt lat="45.8709" lon="3.00552">
        <ele>698.6</ele>
        <time>2025-08-07T17:08:47Z</time>
      </trkpt>
      <trkpt lat="45.87089" lon="3.00555">
        <ele>698.2</ele>
        <time>2025-08-07T17:08:48Z</time>
      </trkpt>
      <trkpt lat="45.87089" lon="3.00558">
        <ele>697.8</ele>
        <time>2025-08-07T17:08:49Z</time>
      </trkpt>
      <trkpt lat="45.87085" lon="3.00563">
        <ele>697.4</ele>
        <time>2025-08-07T17:08:50Z</time>
      </trkpt>
      <trkpt lat="45.87083" lon="3.00566">
        <ele>696.8</ele>
        <time>2025-08-07T17:08:51Z</time>
      </trkpt>
      <trkpt lat="45.87077" lon="3.00571">
        <ele>696.4</ele>
        <time>2025-08-07T17:08:52Z</time>
      </trkpt>
      <trkpt lat="45.87071" lon="3.00575">
        <ele>695.8</ele>
        <time>2025-08-07T17:08:53Z</time>
      </trkpt>
      <trkpt lat="45.87068" lon="3.00577">
        <ele>695.2</ele>
        <time>2025-08-07T17:08:54Z</time>
      </trkpt>
      <trkpt lat="45.87063" lon="3.00581">
        <ele>695</ele>
        <time>2025-08-07T17:08:55Z</time>
      </trkpt>
      <trkpt lat="45.87059" lon="3.00585">
        <ele>694.6</ele>
        <time>2025-08-07T17:08:56Z</time>
      </trkpt>
      <trkpt lat="45.87056" lon="3.0059">
        <ele>694.4</ele>
        <time>2025-08-07T17:08:57Z</time>
      </trkpt>
      <trkpt lat="45.87054" lon="3.00594">
        <ele>694.2</ele>
        <time>2025-08-07T17:08:58Z</time>
      </trkpt>
      <trkpt lat="45.87054" lon="3.00599">
        <ele>694</ele>
        <time>2025-08-07T17:08:59Z</time>
      </trkpt>
      <trkpt lat="45.87053" lon="3.00605">
        <ele>693.8</ele>
        <time>2025-08-07T17:09:00Z</time>
      </trkpt>
      <trkpt lat="45.87048" lon="3.00614">
        <ele>693.8</ele>
        <time>2025-08-07T17:09:01Z</time>
      </trkpt>
      <trkpt lat="45.87044" lon="3.00619">
        <ele>693.6</ele>
        <time>2025-08-07T17:09:02Z</time>
      </trkpt>
      <trkpt lat="45.87037" lon="3.00624">
        <ele>693.2</ele>
        <time>2025-08-07T17:09:03Z</time>
      </trkpt>
      <trkpt lat="45.87036" lon="3.00632">
        <ele>692.8</ele>
        <time>2025-08-07T17:09:04Z</time>
      </trkpt>
      <trkpt lat="45.87039" lon="3.0064">
        <ele>692.4</ele>
        <time>2025-08-07T17:09:05Z</time>
      </trkpt>
      <trkpt lat="45.87039" lon="3.0065">
        <ele>691.8</ele>
        <time>2025-08-07T17:09:06Z</time>
      </trkpt>
      <trkpt lat="45.8704" lon="3.0066">
        <ele>691.2</ele>
        <time>2025-08-07T17:09:07Z</time>
      </trkpt>
      <trkpt lat="45.87041" lon="3.0067">
        <ele>690.4</ele>
        <time>2025-08-07T17:09:08Z</time>
      </trkpt>
      <trkpt lat="45.87043" lon="3.0068">
        <ele>689.8</ele>
        <time>2025-08-07T17:09:09Z</time>
      </trkpt>
      <trkpt lat="45.87044" lon="3.0069">
        <ele>689</ele>
        <time>2025-08-07T17:09:10Z</time>
      </trkpt>
      <trkpt lat="45.87045" lon="3.00698">
        <ele>688.4</ele>
        <time>2025-08-07T17:09:11Z</time>
      </trkpt>
      <trkpt lat="45.87046" lon="3.00707">
        <ele>687.8</ele>
        <time>2025-08-07T17:09:12Z</time>
      </trkpt>
      <trkpt lat="45.87047" lon="3.00715">
        <ele>687.2</ele>
        <time>2025-08-07T17:09:13Z</time>
      </trkpt>
      <trkpt lat="45.87048" lon="3.00721">
        <ele>686.6</ele>
        <time>2025-08-07T17:09:14Z</time>
      </trkpt>
      <trkpt lat="45.87048" lon="3.00729">
        <ele>686</ele>
        <time>2025-08-07T17:09:15Z</time>
      </trkpt>
      <trkpt lat="45.87048" lon="3.00735">
        <ele>685.6</ele>
        <time>2025-08-07T17:09:16Z</time>
      </trkpt>
      <trkpt lat="45.8705" lon="3.00741">
        <ele>685.2</ele>
        <time>2025-08-07T17:09:17Z</time>
      </trkpt>
      <trkpt lat="45.87052" lon="3.00746">
        <ele>684.8</ele>
        <time>2025-08-07T17:09:18Z</time>
      </trkpt>
      <trkpt lat="45.87055" lon="3.00751">
        <ele>684.4</ele>
        <time>2025-08-07T17:09:19Z</time>
      </trkpt>
      <trkpt lat="45.87058" lon="3.00754">
        <ele>684</ele>
        <time>2025-08-07T17:09:20Z</time>
      </trkpt>
      <trkpt lat="45.87061" lon="3.00757">
        <ele>683.4</ele>
        <time>2025-08-07T17:09:21Z</time>
      </trkpt>
      <trkpt lat="45.87065" lon="3.00759">
        <ele>683</ele>
        <time>2025-08-07T17:09:22Z</time>
      </trkpt>
      <trkpt lat="45.8707" lon="3.00761">
        <ele>682.6</ele>
        <time>2025-08-07T17:09:23Z</time>
      </trkpt>
      <trkpt lat="45.87075" lon="3.00763">
        <ele>682.2</ele>
        <time>2025-08-07T17:09:24Z</time>
      </trkpt>
      <trkpt lat="45.87079" lon="3.00764">
        <ele>681.8</ele>
        <time>2025-08-07T17:09:25Z</time>
      </trkpt>
      <trkpt lat="45.87083" lon="3.00764">
        <ele>681.6</ele>
        <time>2025-08-07T17:09:26Z</time>
      </trkpt>
      <trkpt lat="45.87086" lon="3.00765">
        <ele>681.4</ele>
        <time>2025-08-07T17:09:27Z</time>
      </trkpt>
      <trkpt lat="45.87088" lon="3.00765">
        <ele>681.2</ele>
        <time>2025-08-07T17:09:28Z</time>
      </trkpt>
      <trkpt lat="45.87088" lon="3.00765">
        <ele>681.2</ele>
        <time>2025-08-07T17:09:29Z</time>
      </trkpt>
      <trkpt lat="45.8709" lon="3.00766">
        <ele>680.8</ele>
        <time>2025-08-07T17:10:03Z</time>
      </trkpt>
      <trkpt lat="45.87092" lon="3.00767">
        <ele>680.8</ele>
        <time>2025-08-07T17:10:04Z</time>
      </trkpt>
      <trkpt lat="45.87094" lon="3.00768">
        <ele>680.8</ele>
        <time>2025-08-07T17:10:05Z</time>
      </trkpt>
      <trkpt lat="45.87097" lon="3.00768">
        <ele>680.6</ele>
        <time>2025-08-07T17:10:06Z</time>
      </trkpt>
      <trkpt lat="45.871" lon="3.00768">
        <ele>680.2</ele>
        <time>2025-08-07T17:10:07Z</time>
      </trkpt>
      <trkpt lat="45.87103" lon="3.00769">
        <ele>680</ele>
        <time>2025-08-07T17:10:08Z</time>
      </trkpt>
      <trkpt lat="45.87105" lon="3.0077">
        <ele>679.4</ele>
        <time>2025-08-07T17:10:09Z</time>
      </trkpt>
      <trkpt lat="45.87107" lon="3.00772">
        <ele>678.8</ele>
        <time>2025-08-07T17:10:10Z</time>
      </trkpt>
      <trkpt lat="45.87109" lon="3.00774">
        <ele>678.4</ele>
        <time>2025-08-07T17:10:11Z</time>
      </trkpt>
      <trkpt lat="45.87112" lon="3.00776">
        <ele>678</ele>
        <time>2025-08-07T17:10:12Z</time>
      </trkpt>
      <trkpt lat="45.87113" lon="3.00778">
        <ele>677.4</ele>
        <time>2025-08-07T17:10:13Z</time>
      </trkpt>
      <trkpt lat="45.87115" lon="3.00782">
        <ele>677</ele>
        <time>2025-08-07T17:10:14Z</time>
      </trkpt>
      <trkpt lat="45.87117" lon="3.00786">
        <ele>676.4</ele>
        <time>2025-08-07T17:10:15Z</time>
      </trkpt>
      <trkpt lat="45.87118" lon="3.00791">
        <ele>676</ele>
        <time>2025-08-07T17:10:16Z</time>
      </trkpt>
      <trkpt lat="45.8712" lon="3.00797">
        <ele>675.4</ele>
        <time>2025-08-07T17:10:17Z</time>
      </trkpt>
      <trkpt lat="45.87122" lon="3.00805">
        <ele>675</ele>
        <time>2025-08-07T17:10:18Z</time>
      </trkpt>
      <trkpt lat="45.87123" lon="3.00813">
        <ele>674.6</ele>
        <time>2025-08-07T17:10:19Z</time>
      </trkpt>
      <trkpt lat="45.87127" lon="3.00822">
        <ele>674.2</ele>
        <time>2025-08-07T17:10:20Z</time>
      </trkpt>
      <trkpt lat="45.8713" lon="3.00831">
        <ele>673.6</ele>
        <time>2025-08-07T17:10:21Z</time>
      </trkpt>
      <trkpt lat="45.87134" lon="3.00841">
        <ele>673.2</ele>
        <time>2025-08-07T17:10:22Z</time>
      </trkpt>
      <trkpt lat="45.87139" lon="3.00852">
        <ele>673</ele>
        <time>2025-08-07T17:10:23Z</time>
      </trkpt>
      <trkpt lat="45.87142" lon="3.00862">
        <ele>672.6</ele>
        <time>2025-08-07T17:10:24Z</time>
      </trkpt>
      <trkpt lat="45.87144" lon="3.00873">
        <ele>672.2</ele>
        <time>2025-08-07T17:10:25Z</time>
      </trkpt>
      <trkpt lat="45.87146" lon="3.00884">
        <ele>671.8</ele>
        <time>2025-08-07T17:10:26Z</time>
      </trkpt>
      <trkpt lat="45.87148" lon="3.00895">
        <ele>671.6</ele>
        <time>2025-08-07T17:10:27Z</time>
      </trkpt>
      <trkpt lat="45.8715" lon="3.00906">
        <ele>671.2</ele>
        <time>2025-08-07T17:10:28Z</time>
      </trkpt>
      <trkpt lat="45.87151" lon="3.00917">
        <ele>670.8</ele>
        <time>2025-08-07T17:10:29Z</time>
      </trkpt>
      <trkpt lat="45.87152" lon="3.00927">
        <ele>670.4</ele>
        <time>2025-08-07T17:10:30Z</time>
      </trkpt>
      <trkpt lat="45.87154" lon="3.00937">
        <ele>670</ele>
        <time>2025-08-07T17:10:31Z</time>
      </trkpt>
      <trkpt lat="45.87154" lon="3.00948">
        <ele>669.8</ele>
        <time>2025-08-07T17:10:32Z</time>
      </trkpt>
      <trkpt lat="45.87155" lon="3.00959">
        <ele>669.6</ele>
        <time>2025-08-07T17:10:33Z</time>
      </trkpt>
      <trkpt lat="45.87156" lon="3.00969">
        <ele>669.2</ele>
        <time>2025-08-07T17:10:34Z</time>
      </trkpt>
      <trkpt lat="45.87157" lon="3.00978">
        <ele>669</ele>
        <time>2025-08-07T17:10:35Z</time>
      </trkpt>
      <trkpt lat="45.87158" lon="3.00987">
        <ele>668.8</ele>
        <time>2025-08-07T17:10:36Z</time>
      </trkpt>
      <trkpt lat="45.87161" lon="3.00997">
        <ele>668.6</ele>
        <time>2025-08-07T17:10:37Z</time>
      </trkpt>
      <trkpt lat="45.87161" lon="3.01007">
        <ele>668.2</ele>
        <time>2025-08-07T17:10:38Z</time>
      </trkpt>
      <trkpt lat="45.8716" lon="3.01016">
        <ele>668</ele>
        <time>2025-08-07T17:10:39Z</time>
      </trkpt>
      <trkpt lat="45.87158" lon="3.01027">
        <ele>667.8</ele>
        <time>2025-08-07T17:10:40Z</time>
      </trkpt>
      <trkpt lat="45.87159" lon="3.01037">
        <ele>667.4</ele>
        <time>2025-08-07T17:10:41Z</time>
      </trkpt>
      <trkpt lat="45.8716" lon="3.01048">
        <ele>667</ele>
        <time>2025-08-07T17:10:42Z</time>
      </trkpt>
      <trkpt lat="45.87161" lon="3.01057">
        <ele>666.6</ele>
        <time>2025-08-07T17:10:43Z</time>
      </trkpt>
      <trkpt lat="45.87162" lon="3.01067">
        <ele>666.2</ele>
        <time>2025-08-07T17:10:44Z</time>
      </trkpt>
      <trkpt lat="45.87164" lon="3.01078">
        <ele>665.6</ele>
        <time>2025-08-07T17:10:45Z</time>
      </trkpt>
      <trkpt lat="45.87166" lon="3.01088">
        <ele>665</ele>
        <time>2025-08-07T17:10:46Z</time>
      </trkpt>
      <trkpt lat="45.87168" lon="3.01096">
        <ele>664.6</ele>
        <time>2025-08-07T17:10:47Z</time>
      </trkpt>
      <trkpt lat="45.8717" lon="3.01105">
        <ele>664</ele>
        <time>2025-08-07T17:10:48Z</time>
      </trkpt>
      <trkpt lat="45.87172" lon="3.01111">
        <ele>663.4</ele>
        <time>2025-08-07T17:10:49Z</time>
      </trkpt>
      <trkpt lat="45.87173" lon="3.01118">
        <ele>663</ele>
        <time>2025-08-07T17:10:50Z</time>
      </trkpt>
      <trkpt lat="45.87175" lon="3.01124">
        <ele>662.4</ele>
        <time>2025-08-07T17:10:51Z</time>
      </trkpt>
      <trkpt lat="45.87176" lon="3.01129">
        <ele>661.8</ele>
        <time>2025-08-07T17:10:52Z</time>
      </trkpt>
      <trkpt lat="45.87177" lon="3.01133">
        <ele>661.4</ele>
        <time>2025-08-07T17:10:53Z</time>
      </trkpt>
      <trkpt lat="45.87179" lon="3.01138">
        <ele>661</ele>
        <time>2025-08-07T17:10:54Z</time>
      </trkpt>
      <trkpt lat="45.87182" lon="3.01143">
        <ele>660.6</ele>
        <time>2025-08-07T17:10:55Z</time>
      </trkpt>
      <trkpt lat="45.87185" lon="3.01148">
        <ele>660</ele>
        <time>2025-08-07T17:10:56Z</time>
      </trkpt>
      <trkpt lat="45.87188" lon="3.01153">
        <ele>659.6</ele>
        <time>2025-08-07T17:10:57Z</time>
      </trkpt>
      <trkpt lat="45.87191" lon="3.01159">
        <ele>659</ele>
        <time>2025-08-07T17:10:58Z</time>
      </trkpt>
      <trkpt lat="45.87192" lon="3.01163">
        <ele>658.6</ele>
        <time>2025-08-07T17:10:59Z</time>
      </trkpt>
      <trkpt lat="45.87192" lon="3.01166">
        <ele>658.2</ele>
        <time>2025-08-07T17:11:00Z</time>
      </trkpt>
      <trkpt lat="45.87192" lon="3.01169">
        <ele>658</ele>
        <time>2025-08-07T17:11:01Z</time>
      </trkpt>
      <trkpt lat="45.87193" lon="3.01171">
        <ele>657.6</ele>
        <time>2025-08-07T17:11:02Z</time>
      </trkpt>
      <trkpt lat="45.87193" lon="3.01172">
        <ele>657.4</ele>
        <time>2025-08-07T17:11:03Z</time>
      </trkpt>
      <trkpt lat="45.87197" lon="3.01175">
        <ele>657</ele>
        <time>2025-08-07T17:11:07Z</time>
      </trkpt>
      <trkpt lat="45.87199" lon="3.01175">
        <ele>656.8</ele>
        <time>2025-08-07T17:11:08Z</time>
      </trkpt>
      <trkpt lat="45.872" lon="3.01175">
        <ele>656.8</ele>
        <time>2025-08-07T17:11:09Z</time>
      </trkpt>
      <trkpt lat="45.872" lon="3.01176">
        <ele>656.8</ele>
        <time>2025-08-07T17:11:10Z</time>
      </trkpt>
      <trkpt lat="45.87202" lon="3.01177">
        <ele>657</ele>
        <time>2025-08-07T17:11:11Z</time>
      </trkpt>
      <trkpt lat="45.87204" lon="3.0118">
        <ele>657</ele>
        <time>2025-08-07T17:11:12Z</time>
      </trkpt>
      <trkpt lat="45.87205" lon="3.0118">
        <ele>657</ele>
        <time>2025-08-07T17:11:13Z</time>
      </trkpt>
      <trkpt lat="45.87207" lon="3.01181">
        <ele>656.8</ele>
        <time>2025-08-07T17:11:14Z</time>
      </trkpt>
      <trkpt lat="45.87209" lon="3.0118">
        <ele>656.8</ele>
        <time>2025-08-07T17:11:15Z</time>
      </trkpt>
      <trkpt lat="45.87211" lon="3.0118">
        <ele>656.8</ele>
        <time>2025-08-07T17:11:16Z</time>
      </trkpt>
      <trkpt lat="45.87212" lon="3.0118">
        <ele>656.8</ele>
        <time>2025-08-07T17:11:17Z</time>
      </trkpt>
      <trkpt lat="45.87214" lon="3.01178">
        <ele>656.8</ele>
        <time>2025-08-07T17:11:18Z</time>
      </trkpt>
      <trkpt lat="45.87215" lon="3.01178">
        <ele>656.8</ele>
        <time>2025-08-07T17:11:19Z</time>
      </trkpt>
      <trkpt lat="45.87217" lon="3.01178">
        <ele>656.8</ele>
        <time>2025-08-07T17:11:20Z</time>
      </trkpt>
      <trkpt lat="45.87218" lon="3.01177">
        <ele>657</ele>
        <time>2025-08-07T17:11:21Z</time>
      </trkpt>
      <trkpt lat="45.87219" lon="3.01176">
        <ele>657</ele>
        <time>2025-08-07T17:11:22Z</time>
      </trkpt>
      <trkpt lat="45.8722" lon="3.01176">
        <ele>657</ele>
        <time>2025-08-07T17:11:23Z</time>
      </trkpt>
      <trkpt lat="45.8722" lon="3.01176">
        <ele>657</ele>
        <time>2025-08-07T17:11:24Z</time>
      </trkpt>
      <trkpt lat="45.87221" lon="3.01175">
        <ele>657.2</ele>
        <time>2025-08-07T17:11:25Z</time>
      </trkpt>
      <trkpt lat="45.87223" lon="3.01174">
        <ele>657.2</ele>
        <time>2025-08-07T17:11:26Z</time>
      </trkpt>
      <trkpt lat="45.87224" lon="3.01174">
        <ele>657.2</ele>
        <time>2025-08-07T17:11:27Z</time>
      </trkpt>
      <trkpt lat="45.87225" lon="3.01174">
        <ele>657.4</ele>
        <time>2025-08-07T17:11:28Z</time>
      </trkpt>
      <trkpt lat="45.87226" lon="3.01174">
        <ele>657.4</ele>
        <time>2025-08-07T17:11:29Z</time>
      </trkpt>
      <trkpt lat="45.87228" lon="3.01173">
        <ele>657.6</ele>
        <time>2025-08-07T17:11:30Z</time>
      </trkpt>
      <trkpt lat="45.87229" lon="3.01173">
        <ele>657.6</ele>
        <time>2025-08-07T17:11:31Z</time>
      </trkpt>
      <trkpt lat="45.87231" lon="3.01171">
        <ele>657.8</ele>
        <time>2025-08-07T17:11:32Z</time>
      </trkpt>
      <trkpt lat="45.87231" lon="3.01171">
        <ele>657.8</ele>
        <time>2025-08-07T17:11:33Z</time>
      </trkpt>
      <trkpt lat="45.87231" lon="3.01171">
        <ele>658</ele>
        <time>2025-08-07T17:11:34Z</time>
      </trkpt>
      <trkpt lat="45.87231" lon="3.01171">
        <ele>658.2</ele>
        <time>2025-08-07T17:11:35Z</time>
      </trkpt>
      <trkpt lat="45.87232" lon="3.01171">
        <ele>658.2</ele>
        <time>2025-08-07T17:11:36Z</time>
      </trkpt>
      <trkpt lat="45.87233" lon="3.0117">
        <ele>658.4</ele>
        <time>2025-08-07T17:11:37Z</time>
      </trkpt>
      <trkpt lat="45.87235" lon="3.0117">
        <ele>658.6</ele>
        <time>2025-08-07T17:11:38Z</time>
      </trkpt>
      <trkpt lat="45.87236" lon="3.01168">
        <ele>658.8</ele>
        <time>2025-08-07T17:11:39Z</time>
      </trkpt>
      <trkpt lat="45.87237" lon="3.01167">
        <ele>658.8</ele>
        <time>2025-08-07T17:11:40Z</time>
      </trkpt>
      <trkpt lat="45.87239" lon="3.01166">
        <ele>659</ele>
        <time>2025-08-07T17:11:41Z</time>
      </trkpt>
      <trkpt lat="45.87241" lon="3.01165">
        <ele>659.2</ele>
        <time>2025-08-07T17:11:42Z</time>
      </trkpt>
      <trkpt lat="45.87242" lon="3.01163">
        <ele>659.4</ele>
        <time>2025-08-07T17:11:43Z</time>
      </trkpt>
      <trkpt lat="45.87243" lon="3.0116">
        <ele>659.6</ele>
        <time>2025-08-07T17:11:44Z</time>
      </trkpt>
      <trkpt lat="45.87245" lon="3.01157">
        <ele>659.8</ele>
        <time>2025-08-07T17:11:45Z</time>
      </trkpt>
      <trkpt lat="45.87246" lon="3.01155">
        <ele>660</ele>
        <time>2025-08-07T17:11:46Z</time>
      </trkpt>
      <trkpt lat="45.87248" lon="3.01153">
        <ele>660.2</ele>
        <time>2025-08-07T17:11:47Z</time>
      </trkpt>
      <trkpt lat="45.8725" lon="3.01151">
        <ele>660.4</ele>
        <time>2025-08-07T17:11:48Z</time>
      </trkpt>
      <trkpt lat="45.87251" lon="3.01149">
        <ele>660.6</ele>
        <time>2025-08-07T17:11:49Z</time>
      </trkpt>
      <trkpt lat="45.87253" lon="3.01147">
        <ele>660.8</ele>
        <time>2025-08-07T17:11:50Z</time>
      </trkpt>
      <trkpt lat="45.87254" lon="3.01145">
        <ele>661</ele>
        <time>2025-08-07T17:11:51Z</time>
      </trkpt>
      <trkpt lat="45.87256" lon="3.01143">
        <ele>661.2</ele>
        <time>2025-08-07T17:11:52Z</time>
      </trkpt>
      <trkpt lat="45.8726" lon="3.0114">
        <ele>661.6</ele>
        <time>2025-08-07T17:11:53Z</time>
      </trkpt>
      <trkpt lat="45.87263" lon="3.01136">
        <ele>662</ele>
        <time>2025-08-07T17:11:54Z</time>
      </trkpt>
      <trkpt lat="45.87266" lon="3.01133">
        <ele>662.2</ele>
        <time>2025-08-07T17:11:55Z</time>
      </trkpt>
      <trkpt lat="45.87269" lon="3.0113">
        <ele>662.6</ele>
        <time>2025-08-07T17:11:56Z</time>
      </trkpt>
      <trkpt lat="45.87271" lon="3.01127">
        <ele>663</ele>
        <time>2025-08-07T17:11:57Z</time>
      </trkpt>
      <trkpt lat="45.87273" lon="3.01126">
        <ele>663.4</ele>
        <time>2025-08-07T17:11:58Z</time>
      </trkpt>
      <trkpt lat="45.87277" lon="3.01124">
        <ele>663.6</ele>
        <time>2025-08-07T17:11:59Z</time>
      </trkpt>
      <trkpt lat="45.87281" lon="3.01122">
        <ele>664</ele>
        <time>2025-08-07T17:12:00Z</time>
      </trkpt>
      <trkpt lat="45.87287" lon="3.0112">
        <ele>664.2</ele>
        <time>2025-08-07T17:12:01Z</time>
      </trkpt>
      <trkpt lat="45.8729" lon="3.01119">
        <ele>664.4</ele>
        <time>2025-08-07T17:12:02Z</time>
      </trkpt>
      <trkpt lat="45.87291" lon="3.01119">
        <ele>664.6</ele>
        <time>2025-08-07T17:12:03Z</time>
      </trkpt>
      <trkpt lat="45.87294" lon="3.01118">
        <ele>664.8</ele>
        <time>2025-08-07T17:12:04Z</time>
      </trkpt>
      <trkpt lat="45.87297" lon="3.01116">
        <ele>665</ele>
        <time>2025-08-07T17:12:05Z</time>
      </trkpt>
      <trkpt lat="45.87301" lon="3.01118">
        <ele>665.2</ele>
        <time>2025-08-07T17:12:06Z</time>
      </trkpt>
      <trkpt lat="45.87304" lon="3.01117">
        <ele>665.2</ele>
        <time>2025-08-07T17:12:07Z</time>
      </trkpt>
      <trkpt lat="45.87306" lon="3.01116">
        <ele>665.2</ele>
        <time>2025-08-07T17:12:08Z</time>
      </trkpt>
      <trkpt lat="45.87309" lon="3.01114">
        <ele>665.4</ele>
        <time>2025-08-07T17:12:09Z</time>
      </trkpt>
      <trkpt lat="45.87311" lon="3.01112">
        <ele>665.4</ele>
        <time>2025-08-07T17:12:10Z</time>
      </trkpt>
      <trkpt lat="45.87313" lon="3.0111">
        <ele>665.6</ele>
        <time>2025-08-07T17:12:11Z</time>
      </trkpt>
      <trkpt lat="45.87317" lon="3.01106">
        <ele>665.6</ele>
        <time>2025-08-07T17:12:12Z</time>
      </trkpt>
      <trkpt lat="45.87319" lon="3.01102">
        <ele>665.6</ele>
        <time>2025-08-07T17:12:13Z</time>
      </trkpt>
      <trkpt lat="45.87322" lon="3.01099">
        <ele>665.6</ele>
        <time>2025-08-07T17:12:14Z</time>
      </trkpt>
      <trkpt lat="45.87325" lon="3.01096">
        <ele>665.8</ele>
        <time>2025-08-07T17:12:15Z</time>
      </trkpt>
      <trkpt lat="45.87328" lon="3.01092">
        <ele>665.8</ele>
        <time>2025-08-07T17:12:16Z</time>
      </trkpt>
      <trkpt lat="45.87332" lon="3.01085">
        <ele>665.8</ele>
        <time>2025-08-07T17:12:17Z</time>
      </trkpt>
      <trkpt lat="45.87335" lon="3.0108">
        <ele>666</ele>
        <time>2025-08-07T17:12:18Z</time>
      </trkpt>
      <trkpt lat="45.87337" lon="3.01078">
        <ele>666</ele>
        <time>2025-08-07T17:12:19Z</time>
      </trkpt>
      <trkpt lat="45.87343" lon="3.01076">
        <ele>666</ele>
        <time>2025-08-07T17:12:20Z</time>
      </trkpt>
      <trkpt lat="45.87344" lon="3.01075">
        <ele>666.2</ele>
        <time>2025-08-07T17:12:21Z</time>
      </trkpt>
      <trkpt lat="45.87347" lon="3.01074">
        <ele>666.4</ele>
        <time>2025-08-07T17:12:22Z</time>
      </trkpt>
      <trkpt lat="45.8735" lon="3.01072">
        <ele>666.6</ele>
        <time>2025-08-07T17:12:23Z</time>
      </trkpt>
      <trkpt lat="45.87354" lon="3.0107">
        <ele>667</ele>
        <time>2025-08-07T17:12:24Z</time>
      </trkpt>
      <trkpt lat="45.87356" lon="3.01068">
        <ele>667.2</ele>
        <time>2025-08-07T17:12:25Z</time>
      </trkpt>
      <trkpt lat="45.8736" lon="3.01063">
        <ele>667.6</ele>
        <time>2025-08-07T17:12:26Z</time>
      </trkpt>
      <trkpt lat="45.87364" lon="3.01059">
        <ele>667.8</ele>
        <time>2025-08-07T17:12:27Z</time>
      </trkpt>
      <trkpt lat="45.87367" lon="3.01058">
        <ele>668.4</ele>
        <time>2025-08-07T17:12:28Z</time>
      </trkpt>
      <trkpt lat="45.87372" lon="3.01057">
        <ele>668.8</ele>
        <time>2025-08-07T17:12:29Z</time>
      </trkpt>
      <trkpt lat="45.87375" lon="3.01057">
        <ele>669</ele>
        <time>2025-08-07T17:12:30Z</time>
      </trkpt>
      <trkpt lat="45.87378" lon="3.01056">
        <ele>669.4</ele>
        <time>2025-08-07T17:12:31Z</time>
      </trkpt>
      <trkpt lat="45.87382" lon="3.01055">
        <ele>669.4</ele>
        <time>2025-08-07T17:12:32Z</time>
      </trkpt>
      <trkpt lat="45.87386" lon="3.01053">
        <ele>669.6</ele>
        <time>2025-08-07T17:12:33Z</time>
      </trkpt>
      <trkpt lat="45.87389" lon="3.01052">
        <ele>669.8</ele>
        <time>2025-08-07T17:12:34Z</time>
      </trkpt>
      <trkpt lat="45.87393" lon="3.0105">
        <ele>670</ele>
        <time>2025-08-07T17:12:35Z</time>
      </trkpt>
      <trkpt lat="45.87395" lon="3.0105">
        <ele>670.2</ele>
        <time>2025-08-07T17:12:36Z</time>
      </trkpt>
      <trkpt lat="45.87398" lon="3.01049">
        <ele>670.2</ele>
        <time>2025-08-07T17:12:37Z</time>
      </trkpt>
      <trkpt lat="45.87402" lon="3.01048">
        <ele>670.4</ele>
        <time>2025-08-07T17:12:38Z</time>
      </trkpt>
      <trkpt lat="45.87405" lon="3.01044">
        <ele>670.6</ele>
        <time>2025-08-07T17:12:39Z</time>
      </trkpt>
      <trkpt lat="45.87409" lon="3.01038">
        <ele>670.8</ele>
        <time>2025-08-07T17:12:40Z</time>
      </trkpt>
      <trkpt lat="45.87416" lon="3.01033">
        <ele>671</ele>
        <time>2025-08-07T17:12:41Z</time>
      </trkpt>
      <trkpt lat="45.87419" lon="3.0103">
        <ele>671.2</ele>
        <time>2025-08-07T17:12:42Z</time>
      </trkpt>
      <trkpt lat="45.87422" lon="3.01027">
        <ele>671.4</ele>
        <time>2025-08-07T17:12:43Z</time>
      </trkpt>
      <trkpt lat="45.87424" lon="3.01026">
        <ele>671.4</ele>
        <time>2025-08-07T17:12:44Z</time>
      </trkpt>
      <trkpt lat="45.87425" lon="3.01023">
        <ele>671.6</ele>
        <time>2025-08-07T17:12:45Z</time>
      </trkpt>
      <trkpt lat="45.87425" lon="3.01018">
        <ele>671.8</ele>
        <time>2025-08-07T17:12:46Z</time>
      </trkpt>
      <trkpt lat="45.87426" lon="3.01013">
        <ele>671.8</ele>
        <time>2025-08-07T17:12:47Z</time>
      </trkpt>
      <trkpt lat="45.87429" lon="3.01009">
        <ele>671.8</ele>
        <time>2025-08-07T17:12:48Z</time>
      </trkpt>
      <trkpt lat="45.87431" lon="3.01005">
        <ele>671.8</ele>
        <time>2025-08-07T17:12:49Z</time>
      </trkpt>
      <trkpt lat="45.87431" lon="3.01001">
        <ele>671.8</ele>
        <time>2025-08-07T17:12:50Z</time>
      </trkpt>
      <trkpt lat="45.87432" lon="3.00997">
        <ele>671.8</ele>
        <time>2025-08-07T17:12:51Z</time>
      </trkpt>
      <trkpt lat="45.87431" lon="3.00996">
        <ele>671.8</ele>
        <time>2025-08-07T17:12:52Z</time>
      </trkpt>
      <trkpt lat="45.87431" lon="3.00997">
        <ele>671.8</ele>
        <time>2025-08-07T17:12:53Z</time>
      </trkpt>
      <trkpt lat="45.87431" lon="3.00997">
        <ele>671.8</ele>
        <time>2025-08-07T17:12:54Z</time>
      </trkpt>
      <trkpt lat="45.87431" lon="3.00997">
        <ele>671.8</ele>
        <time>2025-08-07T17:12:55Z</time>
      </trkpt>
      <trkpt lat="45.87431" lon="3.00997">
        <ele>671.8</ele>
        <time>2025-08-07T17:12:56Z</time>
      </trkpt>
      <trkpt lat="45.87431" lon="3.00997">
        <ele>671.8</ele>
        <time>2025-08-07T17:12:57Z</time>
      </trkpt>
      <trkpt lat="45.87431" lon="3.00997">
        <ele>671.8</ele>
        <time>2025-08-07T17:12:58Z</time>
      </trkpt>
      <trkpt lat="45.87431" lon="3.01003">
        <ele>671.8</ele>
        <time>2025-08-07T17:13:10Z</time>
      </trkpt>
      <trkpt lat="45.87431" lon="3.01007">
        <ele>671.8</ele>
        <time>2025-08-07T17:13:11Z</time>
      </trkpt>
      <trkpt lat="45.87431" lon="3.01011">
        <ele>671.8</ele>
        <time>2025-08-07T17:13:12Z</time>
      </trkpt>
      <trkpt lat="45.87431" lon="3.01015">
        <ele>672</ele>
        <time>2025-08-07T17:13:13Z</time>
      </trkpt>
      <trkpt lat="45.87433" lon="3.01019">
        <ele>672.2</ele>
        <time>2025-08-07T17:13:14Z</time>
      </trkpt>
      <trkpt lat="45.87434" lon="3.01022">
        <ele>672.4</ele>
        <time>2025-08-07T17:13:15Z</time>
      </trkpt>
      <trkpt lat="45.87436" lon="3.01025">
        <ele>672.6</ele>
        <time>2025-08-07T17:13:16Z</time>
      </trkpt>
      <trkpt lat="45.87437" lon="3.01027">
        <ele>673</ele>
        <time>2025-08-07T17:13:17Z</time>
      </trkpt>
      <trkpt lat="45.87439" lon="3.0103">
        <ele>673.4</ele>
        <time>2025-08-07T17:13:18Z</time>
      </trkpt>
      <trkpt lat="45.8744" lon="3.01033">
        <ele>673.8</ele>
        <time>2025-08-07T17:13:19Z</time>
      </trkpt>
      <trkpt lat="45.87442" lon="3.01036">
        <ele>674.2</ele>
        <time>2025-08-07T17:13:20Z</time>
      </trkpt>
      <trkpt lat="45.87444" lon="3.0104">
        <ele>674.6</ele>
        <time>2025-08-07T17:13:21Z</time>
      </trkpt>
      <trkpt lat="45.87446" lon="3.01043">
        <ele>675</ele>
        <time>2025-08-07T17:13:22Z</time>
      </trkpt>
      <trkpt lat="45.87447" lon="3.01045">
        <ele>675.6</ele>
        <time>2025-08-07T17:13:23Z</time>
      </trkpt>
      <trkpt lat="45.8745" lon="3.01048">
        <ele>676</ele>
        <time>2025-08-07T17:13:24Z</time>
      </trkpt>
      <trkpt lat="45.87452" lon="3.01051">
        <ele>676.4</ele>
        <time>2025-08-07T17:13:25Z</time>
      </trkpt>
      <trkpt lat="45.87455" lon="3.01054">
        <ele>677</ele>
        <time>2025-08-07T17:13:26Z</time>
      </trkpt>
      <trkpt lat="45.87457" lon="3.01058">
        <ele>677.4</ele>
        <time>2025-08-07T17:13:27Z</time>
      </trkpt>
      <trkpt lat="45.8746" lon="3.01061">
        <ele>677.8</ele>
        <time>2025-08-07T17:13:28Z</time>
      </trkpt>
      <trkpt lat="45.87463" lon="3.01064">
        <ele>678.4</ele>
        <time>2025-08-07T17:13:29Z</time>
      </trkpt>
      <trkpt lat="45.87465" lon="3.01067">
        <ele>678.8</ele>
        <time>2025-08-07T17:13:30Z</time>
      </trkpt>
      <trkpt lat="45.87466" lon="3.01069">
        <ele>679.2</ele>
        <time>2025-08-07T17:13:31Z</time>
      </trkpt>
      <trkpt lat="45.87468" lon="3.01071">
        <ele>679.6</ele>
        <time>2025-08-07T17:13:32Z</time>
      </trkpt>
      <trkpt lat="45.87469" lon="3.01074">
        <ele>679.8</ele>
        <time>2025-08-07T17:13:33Z</time>
      </trkpt>
      <trkpt lat="45.87472" lon="3.01074">
        <ele>680.2</ele>
        <time>2025-08-07T17:13:34Z</time>
      </trkpt>
      <trkpt lat="45.87474" lon="3.01073">
        <ele>680.6</ele>
        <time>2025-08-07T17:13:35Z</time>
      </trkpt>
      <trkpt lat="45.87476" lon="3.0107">
        <ele>680.8</ele>
        <time>2025-08-07T17:13:36Z</time>
      </trkpt>
      <trkpt lat="45.87477" lon="3.01067">
        <ele>681</ele>
        <time>2025-08-07T17:13:37Z</time>
      </trkpt>
      <trkpt lat="45.87479" lon="3.01062">
        <ele>681.2</ele>
        <time>2025-08-07T17:13:38Z</time>
      </trkpt>
      <trkpt lat="45.87481" lon="3.0106">
        <ele>681.4</ele>
        <time>2025-08-07T17:13:39Z</time>
      </trkpt>
      <trkpt lat="45.87483" lon="3.01057">
        <ele>681.8</ele>
        <time>2025-08-07T17:13:40Z</time>
      </trkpt>
      <trkpt lat="45.87484" lon="3.01054">
        <ele>682</ele>
        <time>2025-08-07T17:13:41Z</time>
      </trkpt>
      <trkpt lat="45.87486" lon="3.0105">
        <ele>682.2</ele>
        <time>2025-08-07T17:13:42Z</time>
      </trkpt>
      <trkpt lat="45.87489" lon="3.01045">
        <ele>682.6</ele>
        <time>2025-08-07T17:13:43Z</time>
      </trkpt>
      <trkpt lat="45.87491" lon="3.01041">
        <ele>683</ele>
        <time>2025-08-07T17:13:44Z</time>
      </trkpt>
      <trkpt lat="45.87493" lon="3.01038">
        <ele>683.2</ele>
        <time>2025-08-07T17:13:45Z</time>
      </trkpt>
      <trkpt lat="45.87495" lon="3.01034">
        <ele>683.6</ele>
        <time>2025-08-07T17:13:46Z</time>
      </trkpt>
      <trkpt lat="45.87496" lon="3.01031">
        <ele>684.2</ele>
        <time>2025-08-07T17:13:47Z</time>
      </trkpt>
      <trkpt lat="45.87497" lon="3.01027">
        <ele>684.6</ele>
        <time>2025-08-07T17:13:48Z</time>
      </trkpt>
      <trkpt lat="45.87499" lon="3.01024">
        <ele>685</ele>
        <time>2025-08-07T17:13:49Z</time>
      </trkpt>
      <trkpt lat="45.875" lon="3.01021">
        <ele>685.4</ele>
        <time>2025-08-07T17:13:50Z</time>
      </trkpt>
      <trkpt lat="45.87502" lon="3.01019">
        <ele>685.8</ele>
        <time>2025-08-07T17:13:51Z</time>
      </trkpt>
      <trkpt lat="45.87504" lon="3.01017">
        <ele>686.2</ele>
        <time>2025-08-07T17:13:52Z</time>
      </trkpt>
      <trkpt lat="45.87506" lon="3.01015">
        <ele>686.6</ele>
        <time>2025-08-07T17:13:53Z</time>
      </trkpt>
      <trkpt lat="45.87509" lon="3.01014">
        <ele>687</ele>
        <time>2025-08-07T17:13:54Z</time>
      </trkpt>
      <trkpt lat="45.87512" lon="3.01013">
        <ele>687.4</ele>
        <time>2025-08-07T17:13:55Z</time>
      </trkpt>
      <trkpt lat="45.87515" lon="3.01012">
        <ele>687.8</ele>
        <time>2025-08-07T17:13:56Z</time>
      </trkpt>
      <trkpt lat="45.87517" lon="3.01012">
        <ele>688.2</ele>
        <time>2025-08-07T17:13:57Z</time>
      </trkpt>
      <trkpt lat="45.8752" lon="3.01012">
        <ele>688.6</ele>
        <time>2025-08-07T17:13:58Z</time>
      </trkpt>
      <trkpt lat="45.87523" lon="3.01012">
        <ele>689</ele>
        <time>2025-08-07T17:13:59Z</time>
      </trkpt>
      <trkpt lat="45.87527" lon="3.01011">
        <ele>689.2</ele>
        <time>2025-08-07T17:14:00Z</time>
      </trkpt>
      <trkpt lat="45.8753" lon="3.01011">
        <ele>689.6</ele>
        <time>2025-08-07T17:14:01Z</time>
      </trkpt>
      <trkpt lat="45.87534" lon="3.01011">
        <ele>689.8</ele>
        <time>2025-08-07T17:14:02Z</time>
      </trkpt>
      <trkpt lat="45.87538" lon="3.01011">
        <ele>690</ele>
        <time>2025-08-07T17:14:03Z</time>
      </trkpt>
      <trkpt lat="45.87542" lon="3.01011">
        <ele>690.4</ele>
        <time>2025-08-07T17:14:04Z</time>
      </trkpt>
      <trkpt lat="45.87547" lon="3.0101">
        <ele>690.6</ele>
        <time>2025-08-07T17:14:05Z</time>
      </trkpt>
      <trkpt lat="45.87552" lon="3.01009">
        <ele>690.8</ele>
        <time>2025-08-07T17:14:06Z</time>
      </trkpt>
      <trkpt lat="45.87555" lon="3.01009">
        <ele>691</ele>
        <time>2025-08-07T17:14:07Z</time>
      </trkpt>
      <trkpt lat="45.8756" lon="3.01008">
        <ele>691</ele>
        <time>2025-08-07T17:14:08Z</time>
      </trkpt>
      <trkpt lat="45.87564" lon="3.01007">
        <ele>691.2</ele>
        <time>2025-08-07T17:14:09Z</time>
      </trkpt>
      <trkpt lat="45.8757" lon="3.01006">
        <ele>691.2</ele>
        <time>2025-08-07T17:14:10Z</time>
      </trkpt>
      <trkpt lat="45.87576" lon="3.01006">
        <ele>691.4</ele>
        <time>2025-08-07T17:14:11Z</time>
      </trkpt>
      <trkpt lat="45.87581" lon="3.01005">
        <ele>691.4</ele>
        <time>2025-08-07T17:14:12Z</time>
      </trkpt>
      <trkpt lat="45.87587" lon="3.01004">
        <ele>691.4</ele>
        <time>2025-08-07T17:14:13Z</time>
      </trkpt>
      <trkpt lat="45.87592" lon="3.01003">
        <ele>691.4</ele>
        <time>2025-08-07T17:14:14Z</time>
      </trkpt>
      <trkpt lat="45.87598" lon="3.01002">
        <ele>691.2</ele>
        <time>2025-08-07T17:14:15Z</time>
      </trkpt>
      <trkpt lat="45.87603" lon="3.01002">
        <ele>691.2</ele>
        <time>2025-08-07T17:14:16Z</time>
      </trkpt>
      <trkpt lat="45.87609" lon="3.01001">
        <ele>691</ele>
        <time>2025-08-07T17:14:17Z</time>
      </trkpt>
      <trkpt lat="45.87615" lon="3.00999">
        <ele>691</ele>
        <time>2025-08-07T17:14:18Z</time>
      </trkpt>
      <trkpt lat="45.8762" lon="3.00998">
        <ele>690.8</ele>
        <time>2025-08-07T17:14:19Z</time>
      </trkpt>
      <trkpt lat="45.87626" lon="3.00996">
        <ele>690.6</ele>
        <time>2025-08-07T17:14:20Z</time>
      </trkpt>
      <trkpt lat="45.87632" lon="3.00995">
        <ele>690.4</ele>
        <time>2025-08-07T17:14:21Z</time>
      </trkpt>
      <trkpt lat="45.87638" lon="3.00992">
        <ele>690.2</ele>
        <time>2025-08-07T17:14:22Z</time>
      </trkpt>
      <trkpt lat="45.87644" lon="3.00991">
        <ele>690</ele>
        <time>2025-08-07T17:14:23Z</time>
      </trkpt>
      <trkpt lat="45.87649" lon="3.00989">
        <ele>689.8</ele>
        <time>2025-08-07T17:14:24Z</time>
      </trkpt>
      <trkpt lat="45.87655" lon="3.00987">
        <ele>689.6</ele>
        <time>2025-08-07T17:14:25Z</time>
      </trkpt>
      <trkpt lat="45.87661" lon="3.00985">
        <ele>689.2</ele>
        <time>2025-08-07T17:14:26Z</time>
      </trkpt>
      <trkpt lat="45.87666" lon="3.00984">
        <ele>689</ele>
        <time>2025-08-07T17:14:27Z</time>
      </trkpt>
      <trkpt lat="45.87672" lon="3.00983">
        <ele>688.6</ele>
        <time>2025-08-07T17:14:28Z</time>
      </trkpt>
      <trkpt lat="45.87678" lon="3.00984">
        <ele>688.2</ele>
        <time>2025-08-07T17:14:29Z</time>
      </trkpt>
      <trkpt lat="45.87684" lon="3.00986">
        <ele>687.6</ele>
        <time>2025-08-07T17:14:30Z</time>
      </trkpt>
      <trkpt lat="45.87689" lon="3.00992">
        <ele>687</ele>
        <time>2025-08-07T17:14:31Z</time>
      </trkpt>
      <trkpt lat="45.87695" lon="3.00998">
        <ele>686.6</ele>
        <time>2025-08-07T17:14:32Z</time>
      </trkpt>
      <trkpt lat="45.87701" lon="3.01005">
        <ele>686.4</ele>
        <time>2025-08-07T17:14:33Z</time>
      </trkpt>
      <trkpt lat="45.87706" lon="3.01011">
        <ele>686.2</ele>
        <time>2025-08-07T17:14:34Z</time>
      </trkpt>
      <trkpt lat="45.87711" lon="3.01018">
        <ele>686.2</ele>
        <time>2025-08-07T17:14:35Z</time>
      </trkpt>
      <trkpt lat="45.87716" lon="3.01024">
        <ele>686.2</ele>
        <time>2025-08-07T17:14:36Z</time>
      </trkpt>
      <trkpt lat="45.87719" lon="3.01029">
        <ele>686.2</ele>
        <time>2025-08-07T17:14:37Z</time>
      </trkpt>
      <trkpt lat="45.87723" lon="3.01033">
        <ele>686.2</ele>
        <time>2025-08-07T17:14:38Z</time>
      </trkpt>
      <trkpt lat="45.87726" lon="3.01038">
        <ele>686.4</ele>
        <time>2025-08-07T17:14:39Z</time>
      </trkpt>
      <trkpt lat="45.87729" lon="3.01042">
        <ele>686.4</ele>
        <time>2025-08-07T17:14:40Z</time>
      </trkpt>
      <trkpt lat="45.87731" lon="3.01046">
        <ele>686.6</ele>
        <time>2025-08-07T17:14:41Z</time>
      </trkpt>
      <trkpt lat="45.87734" lon="3.0105">
        <ele>686.8</ele>
        <time>2025-08-07T17:14:42Z</time>
      </trkpt>
      <trkpt lat="45.87736" lon="3.01054">
        <ele>687.2</ele>
        <time>2025-08-07T17:14:43Z</time>
      </trkpt>
      <trkpt lat="45.87739" lon="3.01059">
        <ele>687.4</ele>
        <time>2025-08-07T17:14:44Z</time>
      </trkpt>
      <trkpt lat="45.87742" lon="3.01064">
        <ele>687.8</ele>
        <time>2025-08-07T17:14:45Z</time>
      </trkpt>
      <trkpt lat="45.87744" lon="3.01067">
        <ele>688.2</ele>
        <time>2025-08-07T17:14:46Z</time>
      </trkpt>
      <trkpt lat="45.87746" lon="3.01071">
        <ele>688.6</ele>
        <time>2025-08-07T17:14:47Z</time>
      </trkpt>
      <trkpt lat="45.87749" lon="3.01076">
        <ele>689</ele>
        <time>2025-08-07T17:14:48Z</time>
      </trkpt>
      <trkpt lat="45.87752" lon="3.01081">
        <ele>689.4</ele>
        <time>2025-08-07T17:14:49Z</time>
      </trkpt>
      <trkpt lat="45.87755" lon="3.01085">
        <ele>689.8</ele>
        <time>2025-08-07T17:14:50Z</time>
      </trkpt>
      <trkpt lat="45.87759" lon="3.01089">
        <ele>690.2</ele>
        <time>2025-08-07T17:14:51Z</time>
      </trkpt>
      <trkpt lat="45.87762" lon="3.01093">
        <ele>690.6</ele>
        <time>2025-08-07T17:14:52Z</time>
      </trkpt>
      <trkpt lat="45.87764" lon="3.01097">
        <ele>691</ele>
        <time>2025-08-07T17:14:53Z</time>
      </trkpt>
      <trkpt lat="45.87767" lon="3.01101">
        <ele>691.4</ele>
        <time>2025-08-07T17:14:54Z</time>
      </trkpt>
      <trkpt lat="45.8777" lon="3.01105">
        <ele>692</ele>
        <time>2025-08-07T17:14:55Z</time>
      </trkpt>
      <trkpt lat="45.87773" lon="3.01109">
        <ele>692.4</ele>
        <time>2025-08-07T17:14:56Z</time>
      </trkpt>
      <trkpt lat="45.87775" lon="3.01112">
        <ele>692.8</ele>
        <time>2025-08-07T17:14:57Z</time>
      </trkpt>
      <trkpt lat="45.87778" lon="3.01116">
        <ele>693.2</ele>
        <time>2025-08-07T17:14:58Z</time>
      </trkpt>
      <trkpt lat="45.87781" lon="3.01121">
        <ele>693.6</ele>
        <time>2025-08-07T17:14:59Z</time>
      </trkpt>
      <trkpt lat="45.87786" lon="3.01126">
        <ele>694</ele>
        <time>2025-08-07T17:15:00Z</time>
      </trkpt>
      <trkpt lat="45.87789" lon="3.01131">
        <ele>694.4</ele>
        <time>2025-08-07T17:15:01Z</time>
      </trkpt>
      <trkpt lat="45.87792" lon="3.01136">
        <ele>694.8</ele>
        <time>2025-08-07T17:15:02Z</time>
      </trkpt>
      <trkpt lat="45.87794" lon="3.01141">
        <ele>695.2</ele>
        <time>2025-08-07T17:15:03Z</time>
      </trkpt>
      <trkpt lat="45.87796" lon="3.01145">
        <ele>695.6</ele>
        <time>2025-08-07T17:15:04Z</time>
      </trkpt>
      <trkpt lat="45.87799" lon="3.01151">
        <ele>696</ele>
        <time>2025-08-07T17:15:05Z</time>
      </trkpt>
      <trkpt lat="45.87802" lon="3.01156">
        <ele>696.2</ele>
        <time>2025-08-07T17:15:06Z</time>
      </trkpt>
      <trkpt lat="45.87806" lon="3.01161">
        <ele>696.6</ele>
        <time>2025-08-07T17:15:07Z</time>
      </trkpt>
      <trkpt lat="45.8781" lon="3.01168">
        <ele>697</ele>
        <time>2025-08-07T17:15:08Z</time>
      </trkpt>
      <trkpt lat="45.87812" lon="3.01171">
        <ele>697.2</ele>
        <time>2025-08-07T17:15:09Z</time>
      </trkpt>
      <trkpt lat="45.87816" lon="3.01175">
        <ele>697.6</ele>
        <time>2025-08-07T17:15:10Z</time>
      </trkpt>
      <trkpt lat="45.87818" lon="3.01178">
        <ele>698</ele>
        <time>2025-08-07T17:15:11Z</time>
      </trkpt>
      <trkpt lat="45.87821" lon="3.01183">
        <ele>698.2</ele>
        <time>2025-08-07T17:15:12Z</time>
      </trkpt>
      <trkpt lat="45.87825" lon="3.01189">
        <ele>698.4</ele>
        <time>2025-08-07T17:15:13Z</time>
      </trkpt>
      <trkpt lat="45.87829" lon="3.01193">
        <ele>698.6</ele>
        <time>2025-08-07T17:15:14Z</time>
      </trkpt>
      <trkpt lat="45.87832" lon="3.01197">
        <ele>698.8</ele>
        <time>2025-08-07T17:15:15Z</time>
      </trkpt>
      <trkpt lat="45.87836" lon="3.01201">
        <ele>699</ele>
        <time>2025-08-07T17:15:16Z</time>
      </trkpt>
      <trkpt lat="45.8784" lon="3.01205">
        <ele>699.2</ele>
        <time>2025-08-07T17:15:17Z</time>
      </trkpt>
      <trkpt lat="45.87843" lon="3.0121">
        <ele>699.4</ele>
        <time>2025-08-07T17:15:18Z</time>
      </trkpt>
      <trkpt lat="45.87846" lon="3.01214">
        <ele>699.6</ele>
        <time>2025-08-07T17:15:19Z</time>
      </trkpt>
      <trkpt lat="45.87849" lon="3.01217">
        <ele>699.8</ele>
        <time>2025-08-07T17:15:20Z</time>
      </trkpt>
      <trkpt lat="45.87853" lon="3.0122">
        <ele>700</ele>
        <time>2025-08-07T17:15:21Z</time>
      </trkpt>
      <trkpt lat="45.87857" lon="3.01223">
        <ele>700</ele>
        <time>2025-08-07T17:15:22Z</time>
      </trkpt>
      <trkpt lat="45.87861" lon="3.01227">
        <ele>700</ele>
        <time>2025-08-07T17:15:23Z</time>
      </trkpt>
      <trkpt lat="45.87866" lon="3.0123">
        <ele>700</ele>
        <time>2025-08-07T17:15:24Z</time>
      </trkpt>
      <trkpt lat="45.8787" lon="3.01233">
        <ele>700</ele>
        <time>2025-08-07T17:15:25Z</time>
      </trkpt>
      <trkpt lat="45.87875" lon="3.01234">
        <ele>700</ele>
        <time>2025-08-07T17:15:26Z</time>
      </trkpt>
      <trkpt lat="45.8788" lon="3.01233">
        <ele>700</ele>
        <time>2025-08-07T17:15:27Z</time>
      </trkpt>
      <trkpt lat="45.87883" lon="3.01232">
        <ele>699.8</ele>
        <time>2025-08-07T17:15:28Z</time>
      </trkpt>
      <trkpt lat="45.87887" lon="3.01228">
        <ele>699.8</ele>
        <time>2025-08-07T17:15:29Z</time>
      </trkpt>
      <trkpt lat="45.87892" lon="3.01225">
        <ele>699.6</ele>
        <time>2025-08-07T17:15:30Z</time>
      </trkpt>
      <trkpt lat="45.87896" lon="3.01222">
        <ele>699.6</ele>
        <time>2025-08-07T17:15:31Z</time>
      </trkpt>
      <trkpt lat="45.879" lon="3.0122">
        <ele>699.6</ele>
        <time>2025-08-07T17:15:32Z</time>
      </trkpt>
      <trkpt lat="45.87905" lon="3.01219">
        <ele>699.6</ele>
        <time>2025-08-07T17:15:33Z</time>
      </trkpt>
      <trkpt lat="45.87909" lon="3.0122">
        <ele>699.6</ele>
        <time>2025-08-07T17:15:34Z</time>
      </trkpt>
      <trkpt lat="45.87913" lon="3.01223">
        <ele>699.6</ele>
        <time>2025-08-07T17:15:35Z</time>
      </trkpt>
      <trkpt lat="45.87917" lon="3.01228">
        <ele>699.8</ele>
        <time>2025-08-07T17:15:36Z</time>
      </trkpt>
      <trkpt lat="45.87921" lon="3.01233">
        <ele>699.8</ele>
        <time>2025-08-07T17:15:37Z</time>
      </trkpt>
      <trkpt lat="45.87925" lon="3.01237">
        <ele>700</ele>
        <time>2025-08-07T17:15:38Z</time>
      </trkpt>
      <trkpt lat="45.8793" lon="3.0124">
        <ele>700</ele>
        <time>2025-08-07T17:15:39Z</time>
      </trkpt>
      <trkpt lat="45.87934" lon="3.01245">
        <ele>700.2</ele>
        <time>2025-08-07T17:15:40Z</time>
      </trkpt>
      <trkpt lat="45.87938" lon="3.0125">
        <ele>700.2</ele>
        <time>2025-08-07T17:15:41Z</time>
      </trkpt>
      <trkpt lat="45.87943" lon="3.01255">
        <ele>700.4</ele>
        <time>2025-08-07T17:15:42Z</time>
      </trkpt>
      <trkpt lat="45.87947" lon="3.01259">
        <ele>700.6</ele>
        <time>2025-08-07T17:15:43Z</time>
      </trkpt>
      <trkpt lat="45.8795" lon="3.01261">
        <ele>700.6</ele>
        <time>2025-08-07T17:15:44Z</time>
      </trkpt>
      <trkpt lat="45.87952" lon="3.01262">
        <ele>700.8</ele>
        <time>2025-08-07T17:15:45Z</time>
      </trkpt>
      <trkpt lat="45.87954" lon="3.01261">
        <ele>701.2</ele>
        <time>2025-08-07T17:15:46Z</time>
      </trkpt>
      <trkpt lat="45.87956" lon="3.01255">
        <ele>701.4</ele>
        <time>2025-08-07T17:15:47Z</time>
      </trkpt>
      <trkpt lat="45.87957" lon="3.01251">
        <ele>701.8</ele>
        <time>2025-08-07T17:15:48Z</time>
      </trkpt>
      <trkpt lat="45.87959" lon="3.01248">
        <ele>702</ele>
        <time>2025-08-07T17:15:49Z</time>
      </trkpt>
      <trkpt lat="45.87962" lon="3.01244">
        <ele>702.4</ele>
        <time>2025-08-07T17:15:50Z</time>
      </trkpt>
      <trkpt lat="45.87963" lon="3.0124">
        <ele>703</ele>
        <time>2025-08-07T17:15:51Z</time>
      </trkpt>
      <trkpt lat="45.87965" lon="3.01235">
        <ele>703.2</ele>
        <time>2025-08-07T17:15:52Z</time>
      </trkpt>
      <trkpt lat="45.87966" lon="3.0123">
        <ele>703.6</ele>
        <time>2025-08-07T17:15:53Z</time>
      </trkpt>
      <trkpt lat="45.87967" lon="3.01225">
        <ele>704</ele>
        <time>2025-08-07T17:15:54Z</time>
      </trkpt>
      <trkpt lat="45.87968" lon="3.01221">
        <ele>704.4</ele>
        <time>2025-08-07T17:15:55Z</time>
      </trkpt>
      <trkpt lat="45.87969" lon="3.01216">
        <ele>704.8</ele>
        <time>2025-08-07T17:15:56Z</time>
      </trkpt>
      <trkpt lat="45.8797" lon="3.0121">
        <ele>705.2</ele>
        <time>2025-08-07T17:15:57Z</time>
      </trkpt>
      <trkpt lat="45.8797" lon="3.01205">
        <ele>705.6</ele>
        <time>2025-08-07T17:15:58Z</time>
      </trkpt>
      <trkpt lat="45.87971" lon="3.012">
        <ele>705.8</ele>
        <time>2025-08-07T17:15:59Z</time>
      </trkpt>
      <trkpt lat="45.87972" lon="3.01195">
        <ele>706.2</ele>
        <time>2025-08-07T17:16:00Z</time>
      </trkpt>
      <trkpt lat="45.87973" lon="3.0119">
        <ele>706.6</ele>
        <time>2025-08-07T17:16:01Z</time>
      </trkpt>
      <trkpt lat="45.87974" lon="3.01186">
        <ele>707</ele>
        <time>2025-08-07T17:16:02Z</time>
      </trkpt>
      <trkpt lat="45.87975" lon="3.01181">
        <ele>707.2</ele>
        <time>2025-08-07T17:16:03Z</time>
      </trkpt>
      <trkpt lat="45.87975" lon="3.01176">
        <ele>707.6</ele>
        <time>2025-08-07T17:16:04Z</time>
      </trkpt>
      <trkpt lat="45.87976" lon="3.01171">
        <ele>708</ele>
        <time>2025-08-07T17:16:05Z</time>
      </trkpt>
      <trkpt lat="45.87977" lon="3.01166">
        <ele>708.2</ele>
        <time>2025-08-07T17:16:06Z</time>
      </trkpt>
      <trkpt lat="45.87978" lon="3.01161">
        <ele>708.6</ele>
        <time>2025-08-07T17:16:07Z</time>
      </trkpt>
      <trkpt lat="45.87978" lon="3.01157">
        <ele>709</ele>
        <time>2025-08-07T17:16:08Z</time>
      </trkpt>
      <trkpt lat="45.87979" lon="3.01152">
        <ele>709.4</ele>
        <time>2025-08-07T17:16:09Z</time>
      </trkpt>
      <trkpt lat="45.87981" lon="3.01148">
        <ele>709.6</ele>
        <time>2025-08-07T17:16:10Z</time>
      </trkpt>
      <trkpt lat="45.87982" lon="3.01143">
        <ele>710</ele>
        <time>2025-08-07T17:16:11Z</time>
      </trkpt>
      <trkpt lat="45.87984" lon="3.01139">
        <ele>710.4</ele>
        <time>2025-08-07T17:16:12Z</time>
      </trkpt>
      <trkpt lat="45.87986" lon="3.01134">
        <ele>710.8</ele>
        <time>2025-08-07T17:16:13Z</time>
      </trkpt>
      <trkpt lat="45.87987" lon="3.0113">
        <ele>711.2</ele>
        <time>2025-08-07T17:16:14Z</time>
      </trkpt>
      <trkpt lat="45.87988" lon="3.01126">
        <ele>711.4</ele>
        <time>2025-08-07T17:16:15Z</time>
      </trkpt>
      <trkpt lat="45.87989" lon="3.01121">
        <ele>711.8</ele>
        <time>2025-08-07T17:16:16Z</time>
      </trkpt>
      <trkpt lat="45.87991" lon="3.01117">
        <ele>712.2</ele>
        <time>2025-08-07T17:16:17Z</time>
      </trkpt>
      <trkpt lat="45.87992" lon="3.01113">
        <ele>712.6</ele>
        <time>2025-08-07T17:16:18Z</time>
      </trkpt>
      <trkpt lat="45.87994" lon="3.01108">
        <ele>712.8</ele>
        <time>2025-08-07T17:16:19Z</time>
      </trkpt>
      <trkpt lat="45.87994" lon="3.01103">
        <ele>713.2</ele>
        <time>2025-08-07T17:16:20Z</time>
      </trkpt>
      <trkpt lat="45.87994" lon="3.01098">
        <ele>713.6</ele>
        <time>2025-08-07T17:16:21Z</time>
      </trkpt>
      <trkpt lat="45.87993" lon="3.01094">
        <ele>714</ele>
        <time>2025-08-07T17:16:22Z</time>
      </trkpt>
      <trkpt lat="45.87992" lon="3.0109">
        <ele>714.2</ele>
        <time>2025-08-07T17:16:23Z</time>
      </trkpt>
      <trkpt lat="45.8799" lon="3.01087">
        <ele>714.2</ele>
        <time>2025-08-07T17:16:24Z</time>
      </trkpt>
      <trkpt lat="45.87988" lon="3.01083">
        <ele>714.4</ele>
        <time>2025-08-07T17:16:25Z</time>
      </trkpt>
      <trkpt lat="45.87985" lon="3.01079">
        <ele>714.4</ele>
        <time>2025-08-07T17:16:26Z</time>
      </trkpt>
      <trkpt lat="45.87982" lon="3.01074">
        <ele>714.4</ele>
        <time>2025-08-07T17:16:27Z</time>
      </trkpt>
      <trkpt lat="45.87979" lon="3.01068">
        <ele>714.4</ele>
        <time>2025-08-07T17:16:28Z</time>
      </trkpt>
      <trkpt lat="45.87976" lon="3.01062">
        <ele>714.4</ele>
        <time>2025-08-07T17:16:29Z</time>
      </trkpt>
      <trkpt lat="45.87972" lon="3.01056">
        <ele>714.6</ele>
        <time>2025-08-07T17:16:30Z</time>
      </trkpt>
      <trkpt lat="45.87969" lon="3.0105">
        <ele>714.6</ele>
        <time>2025-08-07T17:16:31Z</time>
      </trkpt>
      <trkpt lat="45.87965" lon="3.01044">
        <ele>714.6</ele>
        <time>2025-08-07T17:16:32Z</time>
      </trkpt>
      <trkpt lat="45.87961" lon="3.01038">
        <ele>714.8</ele>
        <time>2025-08-07T17:16:33Z</time>
      </trkpt>
      <trkpt lat="45.87958" lon="3.01031">
        <ele>714.8</ele>
        <time>2025-08-07T17:16:34Z</time>
      </trkpt>
      <trkpt lat="45.87953" lon="3.01024">
        <ele>714.8</ele>
        <time>2025-08-07T17:16:35Z</time>
      </trkpt>
      <trkpt lat="45.87949" lon="3.01017">
        <ele>714.8</ele>
        <time>2025-08-07T17:16:36Z</time>
      </trkpt>
      <trkpt lat="45.87945" lon="3.0101">
        <ele>715</ele>
        <time>2025-08-07T17:16:37Z</time>
      </trkpt>
      <trkpt lat="45.87941" lon="3.01004">
        <ele>714.8</ele>
        <time>2025-08-07T17:16:38Z</time>
      </trkpt>
      <trkpt lat="45.87937" lon="3.00997">
        <ele>714.8</ele>
        <time>2025-08-07T17:16:39Z</time>
      </trkpt>
      <trkpt lat="45.87933" lon="3.00991">
        <ele>714.8</ele>
        <time>2025-08-07T17:16:40Z</time>
      </trkpt>
      <trkpt lat="45.87929" lon="3.00984">
        <ele>715</ele>
        <time>2025-08-07T17:16:41Z</time>
      </trkpt>
      <trkpt lat="45.87925" lon="3.00978">
        <ele>715</ele>
        <time>2025-08-07T17:16:42Z</time>
      </trkpt>
      <trkpt lat="45.87921" lon="3.00971">
        <ele>715</ele>
        <time>2025-08-07T17:16:43Z</time>
      </trkpt>
      <trkpt lat="45.87917" lon="3.00964">
        <ele>714.8</ele>
        <time>2025-08-07T17:16:44Z</time>
      </trkpt>
      <trkpt lat="45.87913" lon="3.00958">
        <ele>714.8</ele>
        <time>2025-08-07T17:16:45Z</time>
      </trkpt>
      <trkpt lat="45.87909" lon="3.00951">
        <ele>714.6</ele>
        <time>2025-08-07T17:16:46Z</time>
      </trkpt>
      <trkpt lat="45.87904" lon="3.00944">
        <ele>714.4</ele>
        <time>2025-08-07T17:16:47Z</time>
      </trkpt>
      <trkpt lat="45.879" lon="3.00936">
        <ele>714</ele>
        <time>2025-08-07T17:16:48Z</time>
      </trkpt>
      <trkpt lat="45.87895" lon="3.00929">
        <ele>713.4</ele>
        <time>2025-08-07T17:16:49Z</time>
      </trkpt>
      <trkpt lat="45.87891" lon="3.00921">
        <ele>712.8</ele>
        <time>2025-08-07T17:16:50Z</time>
      </trkpt>
      <trkpt lat="45.87886" lon="3.00913">
        <ele>712.2</ele>
        <time>2025-08-07T17:16:51Z</time>
      </trkpt>
      <trkpt lat="45.87881" lon="3.00905">
        <ele>711.6</ele>
        <time>2025-08-07T17:16:52Z</time>
      </trkpt>
      <trkpt lat="45.87876" lon="3.00896">
        <ele>711</ele>
        <time>2025-08-07T17:16:53Z</time>
      </trkpt>
      <trkpt lat="45.8787" lon="3.00887">
        <ele>710.4</ele>
        <time>2025-08-07T17:16:54Z</time>
      </trkpt>
      <trkpt lat="45.87865" lon="3.00878">
        <ele>709.6</ele>
        <time>2025-08-07T17:16:55Z</time>
      </trkpt>
      <trkpt lat="45.87859" lon="3.00868">
        <ele>709</ele>
        <time>2025-08-07T17:16:56Z</time>
      </trkpt>
      <trkpt lat="45.87853" lon="3.00858">
        <ele>708.2</ele>
        <time>2025-08-07T17:16:57Z</time>
      </trkpt>
      <trkpt lat="45.87848" lon="3.00848">
        <ele>707.8</ele>
        <time>2025-08-07T17:16:58Z</time>
      </trkpt>
      <trkpt lat="45.87841" lon="3.00839">
        <ele>707.2</ele>
        <time>2025-08-07T17:16:59Z</time>
      </trkpt>
      <trkpt lat="45.87835" lon="3.00829">
        <ele>706.6</ele>
        <time>2025-08-07T17:17:00Z</time>
      </trkpt>
      <trkpt lat="45.87829" lon="3.00819">
        <ele>706.2</ele>
        <time>2025-08-07T17:17:01Z</time>
      </trkpt>
      <trkpt lat="45.87823" lon="3.00809">
        <ele>705.8</ele>
        <time>2025-08-07T17:17:02Z</time>
      </trkpt>
      <trkpt lat="45.87818" lon="3.008">
        <ele>705.4</ele>
        <time>2025-08-07T17:17:03Z</time>
      </trkpt>
      <trkpt lat="45.87814" lon="3.00792">
        <ele>705.2</ele>
        <time>2025-08-07T17:17:04Z</time>
      </trkpt>
      <trkpt lat="45.87812" lon="3.00784">
        <ele>704.8</ele>
        <time>2025-08-07T17:17:05Z</time>
      </trkpt>
      <trkpt lat="45.87811" lon="3.00777">
        <ele>704.8</ele>
        <time>2025-08-07T17:17:06Z</time>
      </trkpt>
      <trkpt lat="45.87811" lon="3.00769">
        <ele>704.8</ele>
        <time>2025-08-07T17:17:07Z</time>
      </trkpt>
      <trkpt lat="45.87812" lon="3.00763">
        <ele>705</ele>
        <time>2025-08-07T17:17:08Z</time>
      </trkpt>
      <trkpt lat="45.87814" lon="3.00757">
        <ele>705</ele>
        <time>2025-08-07T17:17:09Z</time>
      </trkpt>
      <trkpt lat="45.87815" lon="3.00751">
        <ele>705.2</ele>
        <time>2025-08-07T17:17:10Z</time>
      </trkpt>
      <trkpt lat="45.87816" lon="3.00745">
        <ele>705.2</ele>
        <time>2025-08-07T17:17:11Z</time>
      </trkpt>
      <trkpt lat="45.87817" lon="3.00739">
        <ele>705.4</ele>
        <time>2025-08-07T17:17:12Z</time>
      </trkpt>
      <trkpt lat="45.87819" lon="3.00733">
        <ele>705.6</ele>
        <time>2025-08-07T17:17:13Z</time>
      </trkpt>
      <trkpt lat="45.87821" lon="3.00726">
        <ele>705.8</ele>
        <time>2025-08-07T17:17:14Z</time>
      </trkpt>
      <trkpt lat="45.87822" lon="3.00719">
        <ele>706</ele>
        <time>2025-08-07T17:17:15Z</time>
      </trkpt>
      <trkpt lat="45.87823" lon="3.00712">
        <ele>706.4</ele>
        <time>2025-08-07T17:17:16Z</time>
      </trkpt>
      <trkpt lat="45.87825" lon="3.00706">
        <ele>706.6</ele>
        <time>2025-08-07T17:17:17Z</time>
      </trkpt>
      <trkpt lat="45.87826" lon="3.00699">
        <ele>707</ele>
        <time>2025-08-07T17:17:18Z</time>
      </trkpt>
      <trkpt lat="45.87828" lon="3.00693">
        <ele>707.2</ele>
        <time>2025-08-07T17:17:19Z</time>
      </trkpt>
      <trkpt lat="45.87829" lon="3.00687">
        <ele>707.6</ele>
        <time>2025-08-07T17:17:20Z</time>
      </trkpt>
      <trkpt lat="45.8783" lon="3.0068">
        <ele>708</ele>
        <time>2025-08-07T17:17:21Z</time>
      </trkpt>
      <trkpt lat="45.87831" lon="3.00675">
        <ele>708.2</ele>
        <time>2025-08-07T17:17:22Z</time>
      </trkpt>
      <trkpt lat="45.87833" lon="3.00669">
        <ele>708.6</ele>
        <time>2025-08-07T17:17:23Z</time>
      </trkpt>
      <trkpt lat="45.87834" lon="3.00664">
        <ele>709</ele>
        <time>2025-08-07T17:17:24Z</time>
      </trkpt>
      <trkpt lat="45.87835" lon="3.00658">
        <ele>709.2</ele>
        <time>2025-08-07T17:17:25Z</time>
      </trkpt>
      <trkpt lat="45.87836" lon="3.00653">
        <ele>709.6</ele>
        <time>2025-08-07T17:17:26Z</time>
      </trkpt>
      <trkpt lat="45.87838" lon="3.00647">
        <ele>709.8</ele>
        <time>2025-08-07T17:17:27Z</time>
      </trkpt>
      <trkpt lat="45.87838" lon="3.00641">
        <ele>710.2</ele>
        <time>2025-08-07T17:17:28Z</time>
      </trkpt>
      <trkpt lat="45.87839" lon="3.00636">
        <ele>710.4</ele>
        <time>2025-08-07T17:17:29Z</time>
      </trkpt>
      <trkpt lat="45.87841" lon="3.0063">
        <ele>710.8</ele>
        <time>2025-08-07T17:17:30Z</time>
      </trkpt>
      <trkpt lat="45.87842" lon="3.00624">
        <ele>711.2</ele>
        <time>2025-08-07T17:17:31Z</time>
      </trkpt>
      <trkpt lat="45.87843" lon="3.00619">
        <ele>711.4</ele>
        <time>2025-08-07T17:17:32Z</time>
      </trkpt>
      <trkpt lat="45.87844" lon="3.00613">
        <ele>711.8</ele>
        <time>2025-08-07T17:17:33Z</time>
      </trkpt>
      <trkpt lat="45.87846" lon="3.00607">
        <ele>712</ele>
        <time>2025-08-07T17:17:34Z</time>
      </trkpt>
      <trkpt lat="45.87847" lon="3.00601">
        <ele>712.4</ele>
        <time>2025-08-07T17:17:35Z</time>
      </trkpt>
      <trkpt lat="45.87848" lon="3.00595">
        <ele>712.6</ele>
        <time>2025-08-07T17:17:36Z</time>
      </trkpt>
      <trkpt lat="45.87849" lon="3.00589">
        <ele>713</ele>
        <time>2025-08-07T17:17:37Z</time>
      </trkpt>
      <trkpt lat="45.87849" lon="3.00583">
        <ele>713.4</ele>
        <time>2025-08-07T17:17:38Z</time>
      </trkpt>
      <trkpt lat="45.8785" lon="3.00578">
        <ele>713.6</ele>
        <time>2025-08-07T17:17:39Z</time>
      </trkpt>
      <trkpt lat="45.8785" lon="3.00573">
        <ele>714</ele>
        <time>2025-08-07T17:17:40Z</time>
      </trkpt>
      <trkpt lat="45.87851" lon="3.00568">
        <ele>714.4</ele>
        <time>2025-08-07T17:17:41Z</time>
      </trkpt>
      <trkpt lat="45.87852" lon="3.00563">
        <ele>714.6</ele>
        <time>2025-08-07T17:17:42Z</time>
      </trkpt>
      <trkpt lat="45.87852" lon="3.00558">
        <ele>715</ele>
        <time>2025-08-07T17:17:43Z</time>
      </trkpt>
      <trkpt lat="45.87854" lon="3.00552">
        <ele>715.4</ele>
        <time>2025-08-07T17:17:44Z</time>
      </trkpt>
      <trkpt lat="45.87855" lon="3.00547">
        <ele>715.8</ele>
        <time>2025-08-07T17:17:45Z</time>
      </trkpt>
      <trkpt lat="45.87857" lon="3.00543">
        <ele>716</ele>
        <time>2025-08-07T17:17:46Z</time>
      </trkpt>
      <trkpt lat="45.87858" lon="3.00539">
        <ele>716.4</ele>
        <time>2025-08-07T17:17:47Z</time>
      </trkpt>
      <trkpt lat="45.87859" lon="3.00535">
        <ele>716.8</ele>
        <time>2025-08-07T17:17:48Z</time>
      </trkpt>
      <trkpt lat="45.8786" lon="3.0053">
        <ele>717.4</ele>
        <time>2025-08-07T17:17:49Z</time>
      </trkpt>
      <trkpt lat="45.8786" lon="3.00525">
        <ele>717.8</ele>
        <time>2025-08-07T17:17:50Z</time>
      </trkpt>
      <trkpt lat="45.87862" lon="3.00521">
        <ele>718.2</ele>
        <time>2025-08-07T17:17:51Z</time>
      </trkpt>
      <trkpt lat="45.87862" lon="3.00516">
        <ele>718.6</ele>
        <time>2025-08-07T17:17:52Z</time>
      </trkpt>
      <trkpt lat="45.87863" lon="3.00512">
        <ele>719</ele>
        <time>2025-08-07T17:17:53Z</time>
      </trkpt>
      <trkpt lat="45.87864" lon="3.00508">
        <ele>719.4</ele>
        <time>2025-08-07T17:17:54Z</time>
      </trkpt>
      <trkpt lat="45.87865" lon="3.00504">
        <ele>719.8</ele>
        <time>2025-08-07T17:17:55Z</time>
      </trkpt>
      <trkpt lat="45.87866" lon="3.00501">
        <ele>720.2</ele>
        <time>2025-08-07T17:17:56Z</time>
      </trkpt>
      <trkpt lat="45.87866" lon="3.00497">
        <ele>720.6</ele>
        <time>2025-08-07T17:17:57Z</time>
      </trkpt>
      <trkpt lat="45.87867" lon="3.00493">
        <ele>721</ele>
        <time>2025-08-07T17:17:58Z</time>
      </trkpt>
      <trkpt lat="45.87868" lon="3.00489">
        <ele>721.6</ele>
        <time>2025-08-07T17:17:59Z</time>
      </trkpt>
      <trkpt lat="45.87868" lon="3.00485">
        <ele>722</ele>
        <time>2025-08-07T17:18:00Z</time>
      </trkpt>
      <trkpt lat="45.87869" lon="3.00481">
        <ele>722.4</ele>
        <time>2025-08-07T17:18:01Z</time>
      </trkpt>
      <trkpt lat="45.8787" lon="3.00478">
        <ele>723</ele>
        <time>2025-08-07T17:18:02Z</time>
      </trkpt>
      <trkpt lat="45.8787" lon="3.00474">
        <ele>723.4</ele>
        <time>2025-08-07T17:18:03Z</time>
      </trkpt>
      <trkpt lat="45.8787" lon="3.0047">
        <ele>723.8</ele>
        <time>2025-08-07T17:18:04Z</time>
      </trkpt>
      <trkpt lat="45.87871" lon="3.00466">
        <ele>724.4</ele>
        <time>2025-08-07T17:18:05Z</time>
      </trkpt>
      <trkpt lat="45.87872" lon="3.00462">
        <ele>724.8</ele>
        <time>2025-08-07T17:18:06Z</time>
      </trkpt>
      <trkpt lat="45.87872" lon="3.00458">
        <ele>725.2</ele>
        <time>2025-08-07T17:18:07Z</time>
      </trkpt>
      <trkpt lat="45.87873" lon="3.00454">
        <ele>725.6</ele>
        <time>2025-08-07T17:18:08Z</time>
      </trkpt>
      <trkpt lat="45.87873" lon="3.00451">
        <ele>726.2</ele>
        <time>2025-08-07T17:18:09Z</time>
      </trkpt>
      <trkpt lat="45.87873" lon="3.00447">
        <ele>726.6</ele>
        <time>2025-08-07T17:18:10Z</time>
      </trkpt>
      <trkpt lat="45.87874" lon="3.00443">
        <ele>727</ele>
        <time>2025-08-07T17:18:11Z</time>
      </trkpt>
      <trkpt lat="45.87875" lon="3.0044">
        <ele>727.4</ele>
        <time>2025-08-07T17:18:12Z</time>
      </trkpt>
      <trkpt lat="45.87876" lon="3.00436">
        <ele>728</ele>
        <time>2025-08-07T17:18:13Z</time>
      </trkpt>
      <trkpt lat="45.87877" lon="3.00432">
        <ele>728.4</ele>
        <time>2025-08-07T17:18:14Z</time>
      </trkpt>
      <trkpt lat="45.87878" lon="3.00428">
        <ele>728.8</ele>
        <time>2025-08-07T17:18:15Z</time>
      </trkpt>
      <trkpt lat="45.87879" lon="3.00424">
        <ele>729.2</ele>
        <time>2025-08-07T17:18:16Z</time>
      </trkpt>
      <trkpt lat="45.87879" lon="3.0042">
        <ele>729.6</ele>
        <time>2025-08-07T17:18:17Z</time>
      </trkpt>
      <trkpt lat="45.8788" lon="3.00416">
        <ele>730</ele>
        <time>2025-08-07T17:18:18Z</time>
      </trkpt>
      <trkpt lat="45.87881" lon="3.00413">
        <ele>730.4</ele>
        <time>2025-08-07T17:18:19Z</time>
      </trkpt>
      <trkpt lat="45.87881" lon="3.00409">
        <ele>730.8</ele>
        <time>2025-08-07T17:18:20Z</time>
      </trkpt>
      <trkpt lat="45.87882" lon="3.00405">
        <ele>731.2</ele>
        <time>2025-08-07T17:18:21Z</time>
      </trkpt>
      <trkpt lat="45.87883" lon="3.00402">
        <ele>731.6</ele>
        <time>2025-08-07T17:18:22Z</time>
      </trkpt>
      <trkpt lat="45.87883" lon="3.00399">
        <ele>732</ele>
        <time>2025-08-07T17:18:23Z</time>
      </trkpt>
      <trkpt lat="45.87883" lon="3.00396">
        <ele>732.2</ele>
        <time>2025-08-07T17:18:24Z</time>
      </trkpt>
      <trkpt lat="45.87884" lon="3.00394">
        <ele>732.6</ele>
        <time>2025-08-07T17:18:25Z</time>
      </trkpt>
      <trkpt lat="45.87885" lon="3.00391">
        <ele>733</ele>
        <time>2025-08-07T17:18:26Z</time>
      </trkpt>
      <trkpt lat="45.87886" lon="3.00388">
        <ele>733.4</ele>
        <time>2025-08-07T17:18:27Z</time>
      </trkpt>
      <trkpt lat="45.87887" lon="3.00385">
        <ele>733.8</ele>
        <time>2025-08-07T17:18:28Z</time>
      </trkpt>
      <trkpt lat="45.87888" lon="3.00382">
        <ele>734</ele>
        <time>2025-08-07T17:18:29Z</time>
      </trkpt>
      <trkpt lat="45.87889" lon="3.00379">
        <ele>734.4</ele>
        <time>2025-08-07T17:18:30Z</time>
      </trkpt>
      <trkpt lat="45.8789" lon="3.00377">
        <ele>734.8</ele>
        <time>2025-08-07T17:18:31Z</time>
      </trkpt>
      <trkpt lat="45.87892" lon="3.00375">
        <ele>735.2</ele>
        <time>2025-08-07T17:18:32Z</time>
      </trkpt>
      <trkpt lat="45.87893" lon="3.00372">
        <ele>735.4</ele>
        <time>2025-08-07T17:18:33Z</time>
      </trkpt>
      <trkpt lat="45.87894" lon="3.0037">
        <ele>735.8</ele>
        <time>2025-08-07T17:18:34Z</time>
      </trkpt>
      <trkpt lat="45.87896" lon="3.00367">
        <ele>736.2</ele>
        <time>2025-08-07T17:18:35Z</time>
      </trkpt>
      <trkpt lat="45.87897" lon="3.00365">
        <ele>736.4</ele>
        <time>2025-08-07T17:18:36Z</time>
      </trkpt>
      <trkpt lat="45.87899" lon="3.00362">
        <ele>736.8</ele>
        <time>2025-08-07T17:18:37Z</time>
      </trkpt>
      <trkpt lat="45.87901" lon="3.0036">
        <ele>737.2</ele>
        <time>2025-08-07T17:18:38Z</time>
      </trkpt>
      <trkpt lat="45.87902" lon="3.00357">
        <ele>737.4</ele>
        <time>2025-08-07T17:18:39Z</time>
      </trkpt>
      <trkpt lat="45.87904" lon="3.00355">
        <ele>737.8</ele>
        <time>2025-08-07T17:18:40Z</time>
      </trkpt>
      <trkpt lat="45.87905" lon="3.00353">
        <ele>738</ele>
        <time>2025-08-07T17:18:41Z</time>
      </trkpt>
      <trkpt lat="45.87907" lon="3.0035">
        <ele>738.2</ele>
        <time>2025-08-07T17:18:42Z</time>
      </trkpt>
      <trkpt lat="45.87909" lon="3.00348">
        <ele>738.6</ele>
        <time>2025-08-07T17:18:43Z</time>
      </trkpt>
      <trkpt lat="45.87911" lon="3.00346">
        <ele>738.8</ele>
        <time>2025-08-07T17:18:44Z</time>
      </trkpt>
      <trkpt lat="45.87913" lon="3.00343">
        <ele>739</ele>
        <time>2025-08-07T17:18:45Z</time>
      </trkpt>
      <trkpt lat="45.87915" lon="3.00341">
        <ele>739.4</ele>
        <time>2025-08-07T17:18:46Z</time>
      </trkpt>
      <trkpt lat="45.87916" lon="3.00339">
        <ele>739.6</ele>
        <time>2025-08-07T17:18:47Z</time>
      </trkpt>
      <trkpt lat="45.87918" lon="3.00336">
        <ele>740</ele>
        <time>2025-08-07T17:18:48Z</time>
      </trkpt>
      <trkpt lat="45.87919" lon="3.00333">
        <ele>740.2</ele>
        <time>2025-08-07T17:18:49Z</time>
      </trkpt>
      <trkpt lat="45.8792" lon="3.0033">
        <ele>740.6</ele>
        <time>2025-08-07T17:18:50Z</time>
      </trkpt>
      <trkpt lat="45.87922" lon="3.00327">
        <ele>740.8</ele>
        <time>2025-08-07T17:18:51Z</time>
      </trkpt>
      <trkpt lat="45.87923" lon="3.00324">
        <ele>741.2</ele>
        <time>2025-08-07T17:18:52Z</time>
      </trkpt>
      <trkpt lat="45.87924" lon="3.0032">
        <ele>741.4</ele>
        <time>2025-08-07T17:18:53Z</time>
      </trkpt>
      <trkpt lat="45.87925" lon="3.00318">
        <ele>741.8</ele>
        <time>2025-08-07T17:18:54Z</time>
      </trkpt>
      <trkpt lat="45.87927" lon="3.00314">
        <ele>742</ele>
        <time>2025-08-07T17:18:55Z</time>
      </trkpt>
      <trkpt lat="45.87928" lon="3.00311">
        <ele>742.4</ele>
        <time>2025-08-07T17:18:56Z</time>
      </trkpt>
      <trkpt lat="45.87929" lon="3.00308">
        <ele>742.8</ele>
        <time>2025-08-07T17:18:57Z</time>
      </trkpt>
      <trkpt lat="45.8793" lon="3.00305">
        <ele>743</ele>
        <time>2025-08-07T17:18:58Z</time>
      </trkpt>
      <trkpt lat="45.87931" lon="3.00301">
        <ele>743.4</ele>
        <time>2025-08-07T17:18:59Z</time>
      </trkpt>
      <trkpt lat="45.87933" lon="3.00298">
        <ele>743.6</ele>
        <time>2025-08-07T17:19:00Z</time>
      </trkpt>
      <trkpt lat="45.87934" lon="3.00295">
        <ele>743.8</ele>
        <time>2025-08-07T17:19:01Z</time>
      </trkpt>
      <trkpt lat="45.87936" lon="3.00292">
        <ele>744.2</ele>
        <time>2025-08-07T17:19:02Z</time>
      </trkpt>
      <trkpt lat="45.87937" lon="3.00289">
        <ele>744.4</ele>
        <time>2025-08-07T17:19:03Z</time>
      </trkpt>
      <trkpt lat="45.87938" lon="3.00285">
        <ele>744.6</ele>
        <time>2025-08-07T17:19:04Z</time>
      </trkpt>
      <trkpt lat="45.8794" lon="3.00282">
        <ele>745</ele>
        <time>2025-08-07T17:19:05Z</time>
      </trkpt>
      <trkpt lat="45.87941" lon="3.00279">
        <ele>745.2</ele>
        <time>2025-08-07T17:19:06Z</time>
      </trkpt>
      <trkpt lat="45.87942" lon="3.00275">
        <ele>745.4</ele>
        <time>2025-08-07T17:19:07Z</time>
      </trkpt>
      <trkpt lat="45.87944" lon="3.00272">
        <ele>745.8</ele>
        <time>2025-08-07T17:19:08Z</time>
      </trkpt>
      <trkpt lat="45.87945" lon="3.00268">
        <ele>746</ele>
        <time>2025-08-07T17:19:09Z</time>
      </trkpt>
      <trkpt lat="45.87946" lon="3.00265">
        <ele>746.2</ele>
        <time>2025-08-07T17:19:10Z</time>
      </trkpt>
      <trkpt lat="45.87948" lon="3.00261">
        <ele>746.4</ele>
        <time>2025-08-07T17:19:11Z</time>
      </trkpt>
      <trkpt lat="45.87949" lon="3.00257">
        <ele>746.8</ele>
        <time>2025-08-07T17:19:12Z</time>
      </trkpt>
      <trkpt lat="45.87951" lon="3.00253">
        <ele>747</ele>
        <time>2025-08-07T17:19:13Z</time>
      </trkpt>
      <trkpt lat="45.87952" lon="3.00249">
        <ele>747.2</ele>
        <time>2025-08-07T17:19:14Z</time>
      </trkpt>
      <trkpt lat="45.87953" lon="3.00246">
        <ele>747.4</ele>
        <time>2025-08-07T17:19:15Z</time>
      </trkpt>
      <trkpt lat="45.87955" lon="3.00242">
        <ele>747.6</ele>
        <time>2025-08-07T17:19:16Z</time>
      </trkpt>
      <trkpt lat="45.87956" lon="3.00238">
        <ele>748</ele>
        <time>2025-08-07T17:19:17Z</time>
      </trkpt>
      <trkpt lat="45.87957" lon="3.00235">
        <ele>748.2</ele>
        <time>2025-08-07T17:19:18Z</time>
      </trkpt>
      <trkpt lat="45.87959" lon="3.00231">
        <ele>748.4</ele>
        <time>2025-08-07T17:19:19Z</time>
      </trkpt>
      <trkpt lat="45.8796" lon="3.00227">
        <ele>748.6</ele>
        <time>2025-08-07T17:19:20Z</time>
      </trkpt>
      <trkpt lat="45.87962" lon="3.00222">
        <ele>748.8</ele>
        <time>2025-08-07T17:19:21Z</time>
      </trkpt>
      <trkpt lat="45.87964" lon="3.00218">
        <ele>748.8</ele>
        <time>2025-08-07T17:19:22Z</time>
      </trkpt>
      <trkpt lat="45.87966" lon="3.00213">
        <ele>749</ele>
        <time>2025-08-07T17:19:23Z</time>
      </trkpt>
      <trkpt lat="45.87969" lon="3.00208">
        <ele>749</ele>
        <time>2025-08-07T17:19:24Z</time>
      </trkpt>
      <trkpt lat="45.87971" lon="3.00203">
        <ele>748.8</ele>
        <time>2025-08-07T17:19:25Z</time>
      </trkpt>
      <trkpt lat="45.87975" lon="3.00199">
        <ele>748.6</ele>
        <time>2025-08-07T17:19:26Z</time>
      </trkpt>
      <trkpt lat="45.87979" lon="3.00196">
        <ele>748.4</ele>
        <time>2025-08-07T17:19:27Z</time>
      </trkpt>
      <trkpt lat="45.87984" lon="3.00192">
        <ele>748.2</ele>
        <time>2025-08-07T17:19:28Z</time>
      </trkpt>
      <trkpt lat="45.87989" lon="3.00189">
        <ele>748</ele>
        <time>2025-08-07T17:19:29Z</time>
      </trkpt>
      <trkpt lat="45.87994" lon="3.00186">
        <ele>747.6</ele>
        <time>2025-08-07T17:19:30Z</time>
      </trkpt>
      <trkpt lat="45.87999" lon="3.00182">
        <ele>747.2</ele>
        <time>2025-08-07T17:19:31Z</time>
      </trkpt>
      <trkpt lat="45.88005" lon="3.00179">
        <ele>746.8</ele>
        <time>2025-08-07T17:19:32Z</time>
      </trkpt>
      <trkpt lat="45.88011" lon="3.00175">
        <ele>746.4</ele>
        <time>2025-08-07T17:19:33Z</time>
      </trkpt>
      <trkpt lat="45.88018" lon="3.0017">
        <ele>745.8</ele>
        <time>2025-08-07T17:19:34Z</time>
      </trkpt>
      <trkpt lat="45.88024" lon="3.00164">
        <ele>745.2</ele>
        <time>2025-08-07T17:19:35Z</time>
      </trkpt>
      <trkpt lat="45.8803" lon="3.00158">
        <ele>744.8</ele>
        <time>2025-08-07T17:19:36Z</time>
      </trkpt>
      <trkpt lat="45.88035" lon="3.00151">
        <ele>744.6</ele>
        <time>2025-08-07T17:19:37Z</time>
      </trkpt>
      <trkpt lat="45.88038" lon="3.00143">
        <ele>744.2</ele>
        <time>2025-08-07T17:19:38Z</time>
      </trkpt>
      <trkpt lat="45.88041" lon="3.00135">
        <ele>744</ele>
        <time>2025-08-07T17:19:39Z</time>
      </trkpt>
      <trkpt lat="45.88042" lon="3.00126">
        <ele>743.8</ele>
        <time>2025-08-07T17:19:40Z</time>
      </trkpt>
      <trkpt lat="45.88043" lon="3.00118">
        <ele>743.8</ele>
        <time>2025-08-07T17:19:41Z</time>
      </trkpt>
      <trkpt lat="45.88044" lon="3.00111">
        <ele>743.8</ele>
        <time>2025-08-07T17:19:42Z</time>
      </trkpt>
      <trkpt lat="45.88045" lon="3.00105">
        <ele>743.8</ele>
        <time>2025-08-07T17:19:43Z</time>
      </trkpt>
      <trkpt lat="45.88047" lon="3.00101">
        <ele>744</ele>
        <time>2025-08-07T17:19:44Z</time>
      </trkpt>
      <trkpt lat="45.88047" lon="3.00098">
        <ele>744</ele>
        <time>2025-08-07T17:19:45Z</time>
      </trkpt>
      <trkpt lat="45.88048" lon="3.00095">
        <ele>744</ele>
        <time>2025-08-07T17:19:46Z</time>
      </trkpt>
      <trkpt lat="45.88048" lon="3.00091">
        <ele>744.2</ele>
        <time>2025-08-07T17:19:47Z</time>
      </trkpt>
      <trkpt lat="45.88049" lon="3.00086">
        <ele>744.2</ele>
        <time>2025-08-07T17:19:48Z</time>
      </trkpt>
      <trkpt lat="45.88049" lon="3.0008">
        <ele>744.2</ele>
        <time>2025-08-07T17:19:49Z</time>
      </trkpt>
      <trkpt lat="45.8805" lon="3.00074">
        <ele>744.2</ele>
        <time>2025-08-07T17:19:50Z</time>
      </trkpt>
      <trkpt lat="45.8805" lon="3.00067">
        <ele>744.2</ele>
        <time>2025-08-07T17:19:51Z</time>
      </trkpt>
      <trkpt lat="45.8805" lon="3.00059">
        <ele>744</ele>
        <time>2025-08-07T17:19:52Z</time>
      </trkpt>
      <trkpt lat="45.88049" lon="3.0005">
        <ele>743.8</ele>
        <time>2025-08-07T17:19:53Z</time>
      </trkpt>
      <trkpt lat="45.88049" lon="3.0004">
        <ele>743.6</ele>
        <time>2025-08-07T17:19:54Z</time>
      </trkpt>
      <trkpt lat="45.88049" lon="3.00029">
        <ele>743.4</ele>
        <time>2025-08-07T17:19:55Z</time>
      </trkpt>
      <trkpt lat="45.8805" lon="3.00019">
        <ele>743.2</ele>
        <time>2025-08-07T17:19:56Z</time>
      </trkpt>
      <trkpt lat="45.88052" lon="3.00009">
        <ele>743</ele>
        <time>2025-08-07T17:19:57Z</time>
      </trkpt>
      <trkpt lat="45.88054" lon="2.99999">
        <ele>742.8</ele>
        <time>2025-08-07T17:19:58Z</time>
      </trkpt>
      <trkpt lat="45.88057" lon="2.99989">
        <ele>742.6</ele>
        <time>2025-08-07T17:19:59Z</time>
      </trkpt>
      <trkpt lat="45.88059" lon="2.99979">
        <ele>742.2</ele>
        <time>2025-08-07T17:20:00Z</time>
      </trkpt>
      <trkpt lat="45.88061" lon="2.99969">
        <ele>742</ele>
        <time>2025-08-07T17:20:01Z</time>
      </trkpt>
      <trkpt lat="45.88064" lon="2.9996">
        <ele>741.8</ele>
        <time>2025-08-07T17:20:02Z</time>
      </trkpt>
      <trkpt lat="45.88066" lon="2.99951">
        <ele>741.6</ele>
        <time>2025-08-07T17:20:03Z</time>
      </trkpt>
      <trkpt lat="45.88069" lon="2.99942">
        <ele>741.2</ele>
        <time>2025-08-07T17:20:04Z</time>
      </trkpt>
      <trkpt lat="45.8807" lon="2.99932">
        <ele>740.8</ele>
        <time>2025-08-07T17:20:05Z</time>
      </trkpt>
      <trkpt lat="45.88069" lon="2.99925">
        <ele>740.4</ele>
        <time>2025-08-07T17:20:06Z</time>
      </trkpt>
      <trkpt lat="45.88069" lon="2.99917">
        <ele>740</ele>
        <time>2025-08-07T17:20:07Z</time>
      </trkpt>
      <trkpt lat="45.88068" lon="2.9991">
        <ele>739.6</ele>
        <time>2025-08-07T17:20:08Z</time>
      </trkpt>
      <trkpt lat="45.88068" lon="2.99902">
        <ele>739.2</ele>
        <time>2025-08-07T17:20:09Z</time>
      </trkpt>
      <trkpt lat="45.8807" lon="2.99894">
        <ele>739</ele>
        <time>2025-08-07T17:20:10Z</time>
      </trkpt>
      <trkpt lat="45.88072" lon="2.99886">
        <ele>739</ele>
        <time>2025-08-07T17:20:11Z</time>
      </trkpt>
      <trkpt lat="45.88074" lon="2.99878">
        <ele>739</ele>
        <time>2025-08-07T17:20:12Z</time>
      </trkpt>
      <trkpt lat="45.88076" lon="2.99869">
        <ele>739</ele>
        <time>2025-08-07T17:20:13Z</time>
      </trkpt>
      <trkpt lat="45.88076" lon="2.9986">
        <ele>739.2</ele>
        <time>2025-08-07T17:20:14Z</time>
      </trkpt>
      <trkpt lat="45.88076" lon="2.99851">
        <ele>739.2</ele>
        <time>2025-08-07T17:20:15Z</time>
      </trkpt>
      <trkpt lat="45.88074" lon="2.99843">
        <ele>739.2</ele>
        <time>2025-08-07T17:20:16Z</time>
      </trkpt>
      <trkpt lat="45.88072" lon="2.99834">
        <ele>739.2</ele>
        <time>2025-08-07T17:20:17Z</time>
      </trkpt>
      <trkpt lat="45.88071" lon="2.99825">
        <ele>739.2</ele>
        <time>2025-08-07T17:20:18Z</time>
      </trkpt>
      <trkpt lat="45.88068" lon="2.99816">
        <ele>739.2</ele>
        <time>2025-08-07T17:20:19Z</time>
      </trkpt>
      <trkpt lat="45.88067" lon="2.99808">
        <ele>739.2</ele>
        <time>2025-08-07T17:20:20Z</time>
      </trkpt>
      <trkpt lat="45.88065" lon="2.99799">
        <ele>739.2</ele>
        <time>2025-08-07T17:20:21Z</time>
      </trkpt>
      <trkpt lat="45.88063" lon="2.9979">
        <ele>739.4</ele>
        <time>2025-08-07T17:20:22Z</time>
      </trkpt>
      <trkpt lat="45.88062" lon="2.99782">
        <ele>739.2</ele>
        <time>2025-08-07T17:20:23Z</time>
      </trkpt>
      <trkpt lat="45.8806" lon="2.99773">
        <ele>739.2</ele>
        <time>2025-08-07T17:20:24Z</time>
      </trkpt>
      <trkpt lat="45.88058" lon="2.99765">
        <ele>739.2</ele>
        <time>2025-08-07T17:20:25Z</time>
      </trkpt>
      <trkpt lat="45.88056" lon="2.99756">
        <ele>739.2</ele>
        <time>2025-08-07T17:20:26Z</time>
      </trkpt>
      <trkpt lat="45.88054" lon="2.99749">
        <ele>739.2</ele>
        <time>2025-08-07T17:20:27Z</time>
      </trkpt>
      <trkpt lat="45.88051" lon="2.99742">
        <ele>739.4</ele>
        <time>2025-08-07T17:20:28Z</time>
      </trkpt>
      <trkpt lat="45.88047" lon="2.99736">
        <ele>739.6</ele>
        <time>2025-08-07T17:20:29Z</time>
      </trkpt>
      <trkpt lat="45.88042" lon="2.9973">
        <ele>739.8</ele>
        <time>2025-08-07T17:20:30Z</time>
      </trkpt>
      <trkpt lat="45.88038" lon="2.99724">
        <ele>740</ele>
        <time>2025-08-07T17:20:31Z</time>
      </trkpt>
      <trkpt lat="45.88034" lon="2.99718">
        <ele>740.2</ele>
        <time>2025-08-07T17:20:32Z</time>
      </trkpt>
      <trkpt lat="45.8803" lon="2.99713">
        <ele>740.4</ele>
        <time>2025-08-07T17:20:33Z</time>
      </trkpt>
      <trkpt lat="45.88025" lon="2.99708">
        <ele>740.6</ele>
        <time>2025-08-07T17:20:34Z</time>
      </trkpt>
      <trkpt lat="45.8802" lon="2.99703">
        <ele>740.8</ele>
        <time>2025-08-07T17:20:35Z</time>
      </trkpt>
      <trkpt lat="45.88015" lon="2.99699">
        <ele>741</ele>
        <time>2025-08-07T17:20:36Z</time>
      </trkpt>
      <trkpt lat="45.8801" lon="2.99696">
        <ele>741</ele>
        <time>2025-08-07T17:20:37Z</time>
      </trkpt>
      <trkpt lat="45.88006" lon="2.99692">
        <ele>741.2</ele>
        <time>2025-08-07T17:20:38Z</time>
      </trkpt>
      <trkpt lat="45.88002" lon="2.99689">
        <ele>741.4</ele>
        <time>2025-08-07T17:20:39Z</time>
      </trkpt>
      <trkpt lat="45.88" lon="2.99686">
        <ele>741.4</ele>
        <time>2025-08-07T17:20:40Z</time>
      </trkpt>
      <trkpt lat="45.87999" lon="2.99684">
        <ele>741.4</ele>
        <time>2025-08-07T17:20:41Z</time>
      </trkpt>
      <trkpt lat="45.87998" lon="2.99683">
        <ele>741.6</ele>
        <time>2025-08-07T17:20:42Z</time>
      </trkpt>
    </trkseg>
  </trk>
</gpx>